<?xml version="1.0" encoding="UTF-8"?>
<gpx version="1.1" creator="https://www.youtrack.es" xsi:schemaLocation="http://www.topografix.com/GPX/1/1 http://www.topografix.com/GPX/1/1/gpx.xsd http://www.garmin.com/xmlschemas/GpxExtensions/v3 http://www.garmin.com/xmlschemas/GpxExtensionsv3.xsd http://www.garmin.com/xmlschemas/TrackPointExtension/v1 http://www.garmin.com/xmlschemas/TrackPointExtensionv1.xsd" xmlns:gpxtpx="http://www.garmin.com/xmlschemas/TrackPointExtension/v1" xmlns:gpxx="http://www.garmin.com/xmlschemas/GpxExtensions/v3" xmlns:xsi="http://www.w3.org/2001/XMLSchema-instance">
  <metadata>
    <link href="https://www.youtrack.es">
      <text>YouTrack.es</text>
    </link>
    <time>2026-05-08T05:01:21Z</time>
  </metadata>
  <trk>
    <src>https://www.youtrack.es</src>
    <link href="https://www.youtrack.es/ruta/9741-volcan-tacana-ruta-sur">
      <text>YouTrack.es</text>
    </link>
    <trkseg>
      <trkpt lat="15.101705" lon="-92.084021">
        <ele>2179.984180293479</ele>
        <time>2019-11-30T14:01:04Z</time>
      </trkpt>
      <trkpt lat="15.101804" lon="-92.084046">
        <ele>2185.712850154491</ele>
        <time>2019-11-30T14:01:08Z</time>
      </trkpt>
      <trkpt lat="15.101804" lon="-92.084046">
        <ele>2184.997273982616</ele>
        <time>2019-11-30T14:01:18Z</time>
      </trkpt>
      <trkpt lat="15.101842" lon="-92.084067">
        <ele>2184.9964939526308</ele>
        <time>2019-11-30T14:01:23Z</time>
      </trkpt>
      <trkpt lat="15.101849" lon="-92.084062">
        <ele>2184.9964004936755</ele>
        <time>2019-11-30T14:01:31Z</time>
      </trkpt>
      <trkpt lat="15.101855" lon="-92.084060">
        <ele>2185.7214375836293</ele>
        <time>2019-11-30T14:01:47Z</time>
      </trkpt>
      <trkpt lat="15.101872" lon="-92.084059">
        <ele>2186.5645825280894</ele>
        <time>2019-11-30T14:01:52Z</time>
      </trkpt>
      <trkpt lat="15.101887" lon="-92.084067">
        <ele>2186.5171885805876</ele>
        <time>2019-11-30T14:01:57Z</time>
      </trkpt>
      <trkpt lat="15.101895" lon="-92.084071">
        <ele>2186.517178204028</ele>
        <time>2019-11-30T14:02:03Z</time>
      </trkpt>
      <trkpt lat="15.101900" lon="-92.084075">
        <ele>2186.677828177881</ele>
        <time>2019-11-30T14:02:14Z</time>
      </trkpt>
      <trkpt lat="15.101920" lon="-92.084102">
        <ele>2187.203100009016</ele>
        <time>2019-11-30T14:02:19Z</time>
      </trkpt>
      <trkpt lat="15.101945" lon="-92.084139">
        <ele>2187.813157881182</ele>
        <time>2019-11-30T14:02:23Z</time>
      </trkpt>
      <trkpt lat="15.101966" lon="-92.084163">
        <ele>2188.3979600253</ele>
        <time>2019-11-30T14:02:28Z</time>
      </trkpt>
      <trkpt lat="15.101976" lon="-92.084168">
        <ele>2188.397939091903</ele>
        <time>2019-11-30T14:02:32Z</time>
      </trkpt>
      <trkpt lat="15.101983" lon="-92.084172">
        <ele>2188.8796275308828</ele>
        <time>2019-11-30T14:02:37Z</time>
      </trkpt>
      <trkpt lat="15.101992" lon="-92.084187">
        <ele>2190.5259474752365</ele>
        <time>2019-11-30T14:02:41Z</time>
      </trkpt>
      <trkpt lat="15.102006" lon="-92.084198">
        <ele>2190.237384890382</ele>
        <time>2019-11-30T14:02:46Z</time>
      </trkpt>
      <trkpt lat="15.102014" lon="-92.084201">
        <ele>2190.2962027598624</ele>
        <time>2019-11-30T14:02:50Z</time>
      </trkpt>
      <trkpt lat="15.102022" lon="-92.084204">
        <ele>2191.8471986812588</ele>
        <time>2019-11-30T14:02:55Z</time>
      </trkpt>
      <trkpt lat="15.102036" lon="-92.084206">
        <ele>2192.729457363412</ele>
        <time>2019-11-30T14:02:59Z</time>
      </trkpt>
      <trkpt lat="15.102043" lon="-92.084209">
        <ele>2194.2587330858223</ele>
        <time>2019-11-30T14:03:04Z</time>
      </trkpt>
      <trkpt lat="15.102049" lon="-92.084218">
        <ele>2194.595443467668</ele>
        <time>2019-11-30T14:03:09Z</time>
      </trkpt>
      <trkpt lat="15.102061" lon="-92.084222">
        <ele>2194.79316198604</ele>
        <time>2019-11-30T14:03:14Z</time>
      </trkpt>
      <trkpt lat="15.102069" lon="-92.084220">
        <ele>2196.0914220112772</ele>
        <time>2019-11-30T14:03:21Z</time>
      </trkpt>
      <trkpt lat="15.102078" lon="-92.084219">
        <ele>2196.409230480787</ele>
        <time>2019-11-30T14:03:28Z</time>
      </trkpt>
      <trkpt lat="15.102084" lon="-92.084225">
        <ele>2197.984202160949</ele>
        <time>2019-11-30T14:03:35Z</time>
      </trkpt>
      <trkpt lat="15.102092" lon="-92.084238">
        <ele>2199.8560968279107</ele>
        <time>2019-11-30T14:03:40Z</time>
      </trkpt>
      <trkpt lat="15.102103" lon="-92.084249">
        <ele>2200.366624984215</ele>
        <time>2019-11-30T14:03:44Z</time>
      </trkpt>
      <trkpt lat="15.102109" lon="-92.084253">
        <ele>2200.366626218075</ele>
        <time>2019-11-30T14:03:48Z</time>
      </trkpt>
      <trkpt lat="15.102120" lon="-92.084262">
        <ele>2201.364682731751</ele>
        <time>2019-11-30T14:03:52Z</time>
      </trkpt>
      <trkpt lat="15.102126" lon="-92.084287">
        <ele>2202.0999969060595</ele>
        <time>2019-11-30T14:03:57Z</time>
      </trkpt>
      <trkpt lat="15.102140" lon="-92.084316">
        <ele>2202.8709383135047</ele>
        <time>2019-11-30T14:04:01Z</time>
      </trkpt>
      <trkpt lat="15.102149" lon="-92.084327">
        <ele>2204.0453020890823</ele>
        <time>2019-11-30T14:04:06Z</time>
      </trkpt>
      <trkpt lat="15.102157" lon="-92.084338">
        <ele>2204.0453501508277</ele>
        <time>2019-11-30T14:04:10Z</time>
      </trkpt>
      <trkpt lat="15.102162" lon="-92.084345">
        <ele>2204.0453793041725</ele>
        <time>2019-11-30T14:04:14Z</time>
      </trkpt>
      <trkpt lat="15.102167" lon="-92.084351">
        <ele>2204.884027243733</ele>
        <time>2019-11-30T14:04:18Z</time>
      </trkpt>
      <trkpt lat="15.102178" lon="-92.084360">
        <ele>2205.8344863671123</ele>
        <time>2019-11-30T14:04:22Z</time>
      </trkpt>
      <trkpt lat="15.102193" lon="-92.084369">
        <ele>2206.8842737093846</ele>
        <time>2019-11-30T14:04:26Z</time>
      </trkpt>
      <trkpt lat="15.102217" lon="-92.084384">
        <ele>2207.3644830364515</ele>
        <time>2019-11-30T14:04:30Z</time>
      </trkpt>
      <trkpt lat="15.102228" lon="-92.084391">
        <ele>2207.678934737976</ele>
        <time>2019-11-30T14:04:34Z</time>
      </trkpt>
      <trkpt lat="15.102249" lon="-92.084399">
        <ele>2208.920325252944</ele>
        <time>2019-11-30T14:04:39Z</time>
      </trkpt>
      <trkpt lat="15.102252" lon="-92.084400">
        <ele>2208.9203143811237</ele>
        <time>2019-11-30T14:04:44Z</time>
      </trkpt>
      <trkpt lat="15.102274" lon="-92.084411">
        <ele>2211.7205652680054</ele>
        <time>2019-11-30T14:04:49Z</time>
      </trkpt>
      <trkpt lat="15.102304" lon="-92.084440">
        <ele>2212.5099496071357</ele>
        <time>2019-11-30T14:04:54Z</time>
      </trkpt>
      <trkpt lat="15.102311" lon="-92.084446">
        <ele>2212.509962797743</ele>
        <time>2019-11-30T14:04:59Z</time>
      </trkpt>
      <trkpt lat="15.102317" lon="-92.084452">
        <ele>2212.5099820736914</ele>
        <time>2019-11-30T14:05:11Z</time>
      </trkpt>
      <trkpt lat="15.102323" lon="-92.084460">
        <ele>2213.6748118643573</ele>
        <time>2019-11-30T14:05:15Z</time>
      </trkpt>
      <trkpt lat="15.102331" lon="-92.084467">
        <ele>2213.6748341597504</ele>
        <time>2019-11-30T14:05:20Z</time>
      </trkpt>
      <trkpt lat="15.102337" lon="-92.084471">
        <ele>2214.503934249036</ele>
        <time>2019-11-30T14:05:26Z</time>
      </trkpt>
      <trkpt lat="15.102350" lon="-92.084473">
        <ele>2215.4999525758562</ele>
        <time>2019-11-30T14:05:30Z</time>
      </trkpt>
      <trkpt lat="15.102361" lon="-92.084474">
        <ele>2215.499891125168</ele>
        <time>2019-11-30T14:05:35Z</time>
      </trkpt>
      <trkpt lat="15.102368" lon="-92.084478">
        <ele>2216.128062633667</ele>
        <time>2019-11-30T14:05:58Z</time>
      </trkpt>
      <trkpt lat="15.102376" lon="-92.084482">
        <ele>2216.490352688613</ele>
        <time>2019-11-30T14:06:02Z</time>
      </trkpt>
      <trkpt lat="15.102384" lon="-92.084486">
        <ele>2216.49033014645</ele>
        <time>2019-11-30T14:06:12Z</time>
      </trkpt>
      <trkpt lat="15.102390" lon="-92.084491">
        <ele>2218.645615556901</ele>
        <time>2019-11-30T14:06:25Z</time>
      </trkpt>
      <trkpt lat="15.102396" lon="-92.084497">
        <ele>2219.140264727762</ele>
        <time>2019-11-30T14:06:32Z</time>
      </trkpt>
      <trkpt lat="15.102420" lon="-92.084501">
        <ele>2221.842781949807</ele>
        <time>2019-11-30T14:06:36Z</time>
      </trkpt>
      <trkpt lat="15.102447" lon="-92.084504">
        <ele>2221.8426312219945</ele>
        <time>2019-11-30T14:06:40Z</time>
      </trkpt>
      <trkpt lat="15.102462" lon="-92.084506">
        <ele>2221.8425425205955</ele>
        <time>2019-11-30T14:06:44Z</time>
      </trkpt>
      <trkpt lat="15.102468" lon="-92.084508">
        <ele>2221.842528125235</ele>
        <time>2019-11-30T14:07:33Z</time>
      </trkpt>
      <trkpt lat="15.102473" lon="-92.084515">
        <ele>2221.842561210496</ele>
        <time>2019-11-30T14:07:39Z</time>
      </trkpt>
      <trkpt lat="15.102493" lon="-92.084534">
        <ele>2223.957598217074</ele>
        <time>2019-11-30T14:07:44Z</time>
      </trkpt>
      <trkpt lat="15.102511" lon="-92.084541">
        <ele>2224.2195113432194</ele>
        <time>2019-11-30T14:07:48Z</time>
      </trkpt>
      <trkpt lat="15.102523" lon="-92.084546">
        <ele>2224.569580338266</ele>
        <time>2019-11-30T14:07:53Z</time>
      </trkpt>
      <trkpt lat="15.102535" lon="-92.084552">
        <ele>2227.6103267725357</ele>
        <time>2019-11-30T14:07:58Z</time>
      </trkpt>
      <trkpt lat="15.102551" lon="-92.084564">
        <ele>2228.7292382064134</ele>
        <time>2019-11-30T14:08:03Z</time>
      </trkpt>
      <trkpt lat="15.102561" lon="-92.084573">
        <ele>2228.7292488426538</ele>
        <time>2019-11-30T14:08:07Z</time>
      </trkpt>
      <trkpt lat="15.102566" lon="-92.084577">
        <ele>2228.790293046502</ele>
        <time>2019-11-30T14:08:11Z</time>
      </trkpt>
      <trkpt lat="15.102578" lon="-92.084592">
        <ele>2229.1057864823792</ele>
        <time>2019-11-30T14:08:16Z</time>
      </trkpt>
      <trkpt lat="15.102584" lon="-92.084599">
        <ele>2229.1058134858067</ele>
        <time>2019-11-30T14:08:21Z</time>
      </trkpt>
      <trkpt lat="15.102594" lon="-92.084601">
        <ele>2229.2354018888295</ele>
        <time>2019-11-30T14:08:26Z</time>
      </trkpt>
      <trkpt lat="15.102598" lon="-92.084602">
        <ele>2229.235388603173</ele>
        <time>2019-11-30T14:08:42Z</time>
      </trkpt>
      <trkpt lat="15.102607" lon="-92.084601">
        <ele>2229.2353276905596</ele>
        <time>2019-11-30T14:08:48Z</time>
      </trkpt>
      <trkpt lat="15.102602" lon="-92.084608">
        <ele>2231.974922947769</ele>
        <time>2019-11-30T14:09:00Z</time>
      </trkpt>
      <trkpt lat="15.102601" lon="-92.084624">
        <ele>2234.0082820657867</ele>
        <time>2019-11-30T14:09:04Z</time>
      </trkpt>
      <trkpt lat="15.102614" lon="-92.084650">
        <ele>2236.6354029609806</ele>
        <time>2019-11-30T14:09:08Z</time>
      </trkpt>
      <trkpt lat="15.102629" lon="-92.084698">
        <ele>2238.593536143899</ele>
        <time>2019-11-30T14:09:13Z</time>
      </trkpt>
      <trkpt lat="15.102638" lon="-92.084708">
        <ele>2238.593569720278</ele>
        <time>2019-11-30T14:09:17Z</time>
      </trkpt>
      <trkpt lat="15.102646" lon="-92.084712">
        <ele>2238.593555820107</ele>
        <time>2019-11-30T14:09:25Z</time>
      </trkpt>
      <trkpt lat="15.102655" lon="-92.084717">
        <ele>2237.8047282811417</ele>
        <time>2019-11-30T14:09:29Z</time>
      </trkpt>
      <trkpt lat="15.102668" lon="-92.084727">
        <ele>2237.80473292226</ele>
        <time>2019-11-30T14:09:33Z</time>
      </trkpt>
      <trkpt lat="15.102674" lon="-92.084733">
        <ele>2237.8047536164854</ele>
        <time>2019-11-30T14:09:38Z</time>
      </trkpt>
      <trkpt lat="15.102681" lon="-92.084734">
        <ele>2238.0100388239844</ele>
        <time>2019-11-30T14:09:43Z</time>
      </trkpt>
      <trkpt lat="15.102697" lon="-92.084730">
        <ele>2237.877563155663</ele>
        <time>2019-11-30T14:09:47Z</time>
      </trkpt>
      <trkpt lat="15.102710" lon="-92.084728">
        <ele>2237.8283901061486</ele>
        <time>2019-11-30T14:09:51Z</time>
      </trkpt>
      <trkpt lat="15.102724" lon="-92.084733">
        <ele>2237.365701871497</ele>
        <time>2019-11-30T14:09:55Z</time>
      </trkpt>
      <trkpt lat="15.102741" lon="-92.084747">
        <ele>2239.681636759273</ele>
        <time>2019-11-30T14:10:00Z</time>
      </trkpt>
      <trkpt lat="15.102804" lon="-92.084775">
        <ele>2242.511570296493</ele>
        <time>2019-11-30T14:10:05Z</time>
      </trkpt>
      <trkpt lat="15.102819" lon="-92.084782">
        <ele>2244.2715521716623</ele>
        <time>2019-11-30T14:10:10Z</time>
      </trkpt>
      <trkpt lat="15.102825" lon="-92.084792">
        <ele>2244.307494456066</ele>
        <time>2019-11-30T14:10:14Z</time>
      </trkpt>
      <trkpt lat="15.102834" lon="-92.084805">
        <ele>2244.6889066975273</ele>
        <time>2019-11-30T14:10:18Z</time>
      </trkpt>
      <trkpt lat="15.102849" lon="-92.084824">
        <ele>2245.1638365396902</ele>
        <time>2019-11-30T14:10:23Z</time>
      </trkpt>
      <trkpt lat="15.102874" lon="-92.084840">
        <ele>2246.2441510036265</ele>
        <time>2019-11-30T14:10:28Z</time>
      </trkpt>
      <trkpt lat="15.102881" lon="-92.084847">
        <ele>2246.4084747606566</ele>
        <time>2019-11-30T14:10:32Z</time>
      </trkpt>
      <trkpt lat="15.102888" lon="-92.084851">
        <ele>2246.6028021927646</ele>
        <time>2019-11-30T14:10:37Z</time>
      </trkpt>
      <trkpt lat="15.102905" lon="-92.084853">
        <ele>2247.5817167469263</ele>
        <time>2019-11-30T14:10:41Z</time>
      </trkpt>
      <trkpt lat="15.102915" lon="-92.084854">
        <ele>2248.354126771338</ele>
        <time>2019-11-30T14:10:46Z</time>
      </trkpt>
      <trkpt lat="15.102935" lon="-92.084859">
        <ele>2248.713410437405</ele>
        <time>2019-11-30T14:10:50Z</time>
      </trkpt>
      <trkpt lat="15.102948" lon="-92.084861">
        <ele>2249.9626126531844</ele>
        <time>2019-11-30T14:10:55Z</time>
      </trkpt>
      <trkpt lat="15.102958" lon="-92.084863">
        <ele>2250.431318267561</ele>
        <time>2019-11-30T14:10:59Z</time>
      </trkpt>
      <trkpt lat="15.102967" lon="-92.084865">
        <ele>2250.4312809059147</ele>
        <time>2019-11-30T14:11:06Z</time>
      </trkpt>
      <trkpt lat="15.102976" lon="-92.084873">
        <ele>2250.9552184841846</ele>
        <time>2019-11-30T14:11:11Z</time>
      </trkpt>
      <trkpt lat="15.102998" lon="-92.084891">
        <ele>2251.649829755014</ele>
        <time>2019-11-30T14:11:16Z</time>
      </trkpt>
      <trkpt lat="15.103010" lon="-92.084900">
        <ele>2251.570005226868</ele>
        <time>2019-11-30T14:11:20Z</time>
      </trkpt>
      <trkpt lat="15.103027" lon="-92.084915">
        <ele>2252.616903808598</ele>
        <time>2019-11-30T14:11:25Z</time>
      </trkpt>
      <trkpt lat="15.103044" lon="-92.084929">
        <ele>2252.6169305061053</ele>
        <time>2019-11-30T14:11:29Z</time>
      </trkpt>
      <trkpt lat="15.103053" lon="-92.084936">
        <ele>2252.616940272337</ele>
        <time>2019-11-30T14:11:34Z</time>
      </trkpt>
      <trkpt lat="15.103060" lon="-92.084941">
        <ele>2254.2602523214778</ele>
        <time>2019-11-30T14:11:40Z</time>
      </trkpt>
      <trkpt lat="15.103068" lon="-92.084945">
        <ele>2255.335190621343</ele>
        <time>2019-11-30T14:11:45Z</time>
      </trkpt>
      <trkpt lat="15.103076" lon="-92.084948">
        <ele>2256.1898947168547</ele>
        <time>2019-11-30T14:11:49Z</time>
      </trkpt>
      <trkpt lat="15.103082" lon="-92.084951">
        <ele>2256.6095600122735</ele>
        <time>2019-11-30T14:11:53Z</time>
      </trkpt>
      <trkpt lat="15.103103" lon="-92.084961">
        <ele>2257.824363483474</ele>
        <time>2019-11-30T14:11:58Z</time>
      </trkpt>
      <trkpt lat="15.103112" lon="-92.084964">
        <ele>2257.8243344651996</ele>
        <time>2019-11-30T14:12:02Z</time>
      </trkpt>
      <trkpt lat="15.103120" lon="-92.084968">
        <ele>2259.3838910351283</ele>
        <time>2019-11-30T14:12:06Z</time>
      </trkpt>
      <trkpt lat="15.103127" lon="-92.084980">
        <ele>2260.5546174839224</ele>
        <time>2019-11-30T14:12:11Z</time>
      </trkpt>
      <trkpt lat="15.103139" lon="-92.084999">
        <ele>2260.6697047123457</ele>
        <time>2019-11-30T14:12:15Z</time>
      </trkpt>
      <trkpt lat="15.103150" lon="-92.085001">
        <ele>2260.8744919885507</ele>
        <time>2019-11-30T14:12:19Z</time>
      </trkpt>
      <trkpt lat="15.103150" lon="-92.085001">
        <ele>2260.9279587854257</ele>
        <time>2019-11-30T14:12:28Z</time>
      </trkpt>
      <trkpt lat="15.103172" lon="-92.085021">
        <ele>2260.3899133443774</ele>
        <time>2019-11-30T14:12:33Z</time>
      </trkpt>
      <trkpt lat="15.103178" lon="-92.085027">
        <ele>2260.1594633545196</ele>
        <time>2019-11-30T14:12:38Z</time>
      </trkpt>
      <trkpt lat="15.103182" lon="-92.085035">
        <ele>2259.986178617687</ele>
        <time>2019-11-30T14:12:43Z</time>
      </trkpt>
      <trkpt lat="15.103196" lon="-92.085046">
        <ele>2259.819201500953</ele>
        <time>2019-11-30T14:12:47Z</time>
      </trkpt>
      <trkpt lat="15.103212" lon="-92.085062">
        <ele>2259.6651926222253</ele>
        <time>2019-11-30T14:12:52Z</time>
      </trkpt>
      <trkpt lat="15.103217" lon="-92.085069">
        <ele>2259.7819226708057</ele>
        <time>2019-11-30T14:12:56Z</time>
      </trkpt>
      <trkpt lat="15.103233" lon="-92.085081">
        <ele>2260.4652826453494</ele>
        <time>2019-11-30T14:13:00Z</time>
      </trkpt>
      <trkpt lat="15.103261" lon="-92.085093">
        <ele>2261.0985222773284</ele>
        <time>2019-11-30T14:13:04Z</time>
      </trkpt>
      <trkpt lat="15.103278" lon="-92.085089">
        <ele>2261.3298165728684</ele>
        <time>2019-11-30T14:13:09Z</time>
      </trkpt>
      <trkpt lat="15.103280" lon="-92.085089">
        <ele>2261.178922930799</ele>
        <time>2019-11-30T14:13:29Z</time>
      </trkpt>
      <trkpt lat="15.103295" lon="-92.085110">
        <ele>2261.7056333029464</ele>
        <time>2019-11-30T14:13:33Z</time>
      </trkpt>
      <trkpt lat="15.103303" lon="-92.085130">
        <ele>2263.148394863922</ele>
        <time>2019-11-30T14:13:37Z</time>
      </trkpt>
      <trkpt lat="15.103314" lon="-92.085140">
        <ele>2263.4345543451773</ele>
        <time>2019-11-30T14:13:41Z</time>
      </trkpt>
      <trkpt lat="15.103321" lon="-92.085146">
        <ele>2263.434569331501</ele>
        <time>2019-11-30T14:13:45Z</time>
      </trkpt>
      <trkpt lat="15.103321" lon="-92.085146">
        <ele>2263.434569331501</ele>
        <time>2019-11-30T14:13:54Z</time>
      </trkpt>
      <trkpt lat="15.103330" lon="-92.085154">
        <ele>2263.8288693790128</ele>
        <time>2019-11-30T14:13:59Z</time>
      </trkpt>
      <trkpt lat="15.103336" lon="-92.085161">
        <ele>2264.639450010476</ele>
        <time>2019-11-30T14:14:03Z</time>
      </trkpt>
      <trkpt lat="15.103341" lon="-92.085169">
        <ele>2264.871669358326</ele>
        <time>2019-11-30T14:14:08Z</time>
      </trkpt>
      <trkpt lat="15.103344" lon="-92.085186">
        <ele>2265.212875094975</ele>
        <time>2019-11-30T14:14:12Z</time>
      </trkpt>
      <trkpt lat="15.103346" lon="-92.085193">
        <ele>2266.8352374559363</ele>
        <time>2019-11-30T14:14:18Z</time>
      </trkpt>
      <trkpt lat="15.103355" lon="-92.085204">
        <ele>2266.8352917147795</ele>
        <time>2019-11-30T14:14:23Z</time>
      </trkpt>
      <trkpt lat="15.103363" lon="-92.085207">
        <ele>2267.299128877408</ele>
        <time>2019-11-30T14:14:32Z</time>
      </trkpt>
      <trkpt lat="15.103385" lon="-92.085206">
        <ele>2267.9559586012697</ele>
        <time>2019-11-30T14:14:36Z</time>
      </trkpt>
      <trkpt lat="15.103400" lon="-92.085211">
        <ele>2267.9559133378884</ele>
        <time>2019-11-30T14:14:41Z</time>
      </trkpt>
      <trkpt lat="15.103407" lon="-92.085215">
        <ele>2267.955904552723</ele>
        <time>2019-11-30T14:14:53Z</time>
      </trkpt>
      <trkpt lat="15.103413" lon="-92.085222">
        <ele>2268.760130602393</ele>
        <time>2019-11-30T14:14:58Z</time>
      </trkpt>
      <trkpt lat="15.103418" lon="-92.085230">
        <ele>2268.7601691107143</ele>
        <time>2019-11-30T14:15:04Z</time>
      </trkpt>
      <trkpt lat="15.103426" lon="-92.085233">
        <ele>2270.269186833837</ele>
        <time>2019-11-30T14:15:12Z</time>
      </trkpt>
      <trkpt lat="15.103444" lon="-92.085241">
        <ele>2270.5679641061797</ele>
        <time>2019-11-30T14:15:17Z</time>
      </trkpt>
      <trkpt lat="15.103447" lon="-92.085244">
        <ele>2270.5679738022814</ele>
        <time>2019-11-30T14:15:25Z</time>
      </trkpt>
      <trkpt lat="15.103456" lon="-92.085257">
        <ele>2270.568045281798</ele>
        <time>2019-11-30T14:15:30Z</time>
      </trkpt>
      <trkpt lat="15.103462" lon="-92.085262">
        <ele>2272.2731315285737</ele>
        <time>2019-11-30T14:15:34Z</time>
      </trkpt>
      <trkpt lat="15.103476" lon="-92.085277">
        <ele>2273.569327553583</ele>
        <time>2019-11-30T14:15:39Z</time>
      </trkpt>
      <trkpt lat="15.103488" lon="-92.085296">
        <ele>2273.68246787992</ele>
        <time>2019-11-30T14:15:43Z</time>
      </trkpt>
      <trkpt lat="15.103496" lon="-92.085306">
        <ele>2273.682510017152</ele>
        <time>2019-11-30T14:15:48Z</time>
      </trkpt>
      <trkpt lat="15.103502" lon="-92.085318">
        <ele>2275.421843961337</ele>
        <time>2019-11-30T14:15:52Z</time>
      </trkpt>
      <trkpt lat="15.103508" lon="-92.085343">
        <ele>2276.489427201901</ele>
        <time>2019-11-30T14:15:57Z</time>
      </trkpt>
      <trkpt lat="15.103513" lon="-92.085358">
        <ele>2276.714879739913</ele>
        <time>2019-11-30T14:16:01Z</time>
      </trkpt>
      <trkpt lat="15.103543" lon="-92.085357">
        <ele>2276.0440205674367</ele>
        <time>2019-11-30T14:16:05Z</time>
      </trkpt>
      <trkpt lat="15.103561" lon="-92.085359">
        <ele>2276.043919055547</ele>
        <time>2019-11-30T14:16:10Z</time>
      </trkpt>
      <trkpt lat="15.103561" lon="-92.085359">
        <ele>2276.043919055547</ele>
        <time>2019-11-30T14:16:54Z</time>
      </trkpt>
      <trkpt lat="15.103576" lon="-92.085363">
        <ele>2276.0438549730975</ele>
        <time>2019-11-30T14:16:59Z</time>
      </trkpt>
      <trkpt lat="15.103577" lon="-92.085356">
        <ele>2276.199542041982</ele>
        <time>2019-11-30T14:17:30Z</time>
      </trkpt>
      <trkpt lat="15.103572" lon="-92.085333">
        <ele>2276.866105605501</ele>
        <time>2019-11-30T14:17:35Z</time>
      </trkpt>
      <trkpt lat="15.103575" lon="-92.085312">
        <ele>2277.265785821369</ele>
        <time>2019-11-30T14:17:40Z</time>
      </trkpt>
      <trkpt lat="15.103578" lon="-92.085315">
        <ele>2279.4086190228245</ele>
        <time>2019-11-30T14:17:56Z</time>
      </trkpt>
      <trkpt lat="15.103582" lon="-92.085359">
        <ele>2279.4090174713024</ele>
        <time>2019-11-30T14:18:01Z</time>
      </trkpt>
      <trkpt lat="15.103582" lon="-92.085367">
        <ele>2280.5448369773944</ele>
        <time>2019-11-30T14:18:29Z</time>
      </trkpt>
      <trkpt lat="15.103609" lon="-92.085393">
        <ele>2283.6498808357674</ele>
        <time>2019-11-30T14:18:34Z</time>
      </trkpt>
      <trkpt lat="15.103625" lon="-92.085400">
        <ele>2285.680852217674</ele>
        <time>2019-11-30T14:18:39Z</time>
      </trkpt>
      <trkpt lat="15.103639" lon="-92.085397">
        <ele>2286.754213240374</ele>
        <time>2019-11-30T14:18:43Z</time>
      </trkpt>
      <trkpt lat="15.103662" lon="-92.085397">
        <ele>2288.5455663371017</ele>
        <time>2019-11-30T14:18:47Z</time>
      </trkpt>
      <trkpt lat="15.103656" lon="-92.085449">
        <ele>2291.7089510763744</ele>
        <time>2019-11-30T14:18:52Z</time>
      </trkpt>
      <trkpt lat="15.103653" lon="-92.085467">
        <ele>2292.312169904517</ele>
        <time>2019-11-30T14:18:56Z</time>
      </trkpt>
      <trkpt lat="15.103653" lon="-92.085476">
        <ele>2292.3122611680005</ele>
        <time>2019-11-30T14:19:02Z</time>
      </trkpt>
      <trkpt lat="15.103653" lon="-92.085481">
        <ele>2290.407762144231</ele>
        <time>2019-11-30T14:19:07Z</time>
      </trkpt>
      <trkpt lat="15.103655" lon="-92.085509">
        <ele>2288.0633004375013</ele>
        <time>2019-11-30T14:19:11Z</time>
      </trkpt>
      <trkpt lat="15.103652" lon="-92.085518">
        <ele>2288.06340037334</ele>
        <time>2019-11-30T14:19:18Z</time>
      </trkpt>
      <trkpt lat="15.103656" lon="-92.085525">
        <ele>2288.374972670977</ele>
        <time>2019-11-30T14:19:26Z</time>
      </trkpt>
      <trkpt lat="15.103664" lon="-92.085528">
        <ele>2288.9086297843805</ele>
        <time>2019-11-30T14:19:36Z</time>
      </trkpt>
      <trkpt lat="15.103676" lon="-92.085531">
        <ele>2289.7245029670485</ele>
        <time>2019-11-30T14:19:41Z</time>
      </trkpt>
      <trkpt lat="15.103684" lon="-92.085533">
        <ele>2290.499127755915</ele>
        <time>2019-11-30T14:19:45Z</time>
      </trkpt>
      <trkpt lat="15.103692" lon="-92.085539">
        <ele>2291.0250098578954</ele>
        <time>2019-11-30T14:19:49Z</time>
      </trkpt>
      <trkpt lat="15.103703" lon="-92.085542">
        <ele>2291.613830427372</ele>
        <time>2019-11-30T14:19:54Z</time>
      </trkpt>
      <trkpt lat="15.103719" lon="-92.085540">
        <ele>2292.69720327086</ele>
        <time>2019-11-30T14:19:58Z</time>
      </trkpt>
      <trkpt lat="15.103735" lon="-92.085536">
        <ele>2293.4902714050872</ele>
        <time>2019-11-30T14:20:03Z</time>
      </trkpt>
      <trkpt lat="15.103745" lon="-92.085536">
        <ele>2293.490203109635</ele>
        <time>2019-11-30T14:20:07Z</time>
      </trkpt>
      <trkpt lat="15.103753" lon="-92.085538">
        <ele>2293.480403376476</ele>
        <time>2019-11-30T14:20:16Z</time>
      </trkpt>
      <trkpt lat="15.103764" lon="-92.085544">
        <ele>2294.5892795833543</ele>
        <time>2019-11-30T14:20:20Z</time>
      </trkpt>
      <trkpt lat="15.103778" lon="-92.085551">
        <ele>2295.4037129241688</ele>
        <time>2019-11-30T14:20:24Z</time>
      </trkpt>
      <trkpt lat="15.103789" lon="-92.085557">
        <ele>2295.520390452001</ele>
        <time>2019-11-30T14:20:28Z</time>
      </trkpt>
      <trkpt lat="15.103794" lon="-92.085564">
        <ele>2296.233314154772</ele>
        <time>2019-11-30T14:20:36Z</time>
      </trkpt>
      <trkpt lat="15.103798" lon="-92.085573">
        <ele>2296.6572061623756</ele>
        <time>2019-11-30T14:20:40Z</time>
      </trkpt>
      <trkpt lat="15.103804" lon="-92.085586">
        <ele>2296.5474257167184</ele>
        <time>2019-11-30T14:20:44Z</time>
      </trkpt>
      <trkpt lat="15.103807" lon="-92.085595">
        <ele>2296.5487091486666</ele>
        <time>2019-11-30T14:20:48Z</time>
      </trkpt>
      <trkpt lat="15.103810" lon="-92.085604">
        <ele>2296.7668014490832</ele>
        <time>2019-11-30T14:20:53Z</time>
      </trkpt>
      <trkpt lat="15.103817" lon="-92.085610">
        <ele>2297.2568050650407</ele>
        <time>2019-11-30T14:20:57Z</time>
      </trkpt>
      <trkpt lat="15.103830" lon="-92.085614">
        <ele>2297.773845992228</ele>
        <time>2019-11-30T14:21:01Z</time>
      </trkpt>
      <trkpt lat="15.103838" lon="-92.085618">
        <ele>2297.739412146626</ele>
        <time>2019-11-30T14:21:09Z</time>
      </trkpt>
      <trkpt lat="15.103846" lon="-92.085620">
        <ele>2298.184927370363</ele>
        <time>2019-11-30T14:21:13Z</time>
      </trkpt>
      <trkpt lat="15.103854" lon="-92.085623">
        <ele>2298.983494610085</ele>
        <time>2019-11-30T14:21:18Z</time>
      </trkpt>
      <trkpt lat="15.103860" lon="-92.085631">
        <ele>2299.4569127959853</ele>
        <time>2019-11-30T14:21:23Z</time>
      </trkpt>
      <trkpt lat="15.103868" lon="-92.085636">
        <ele>2300.1109707173987</ele>
        <time>2019-11-30T14:21:29Z</time>
      </trkpt>
      <trkpt lat="15.103881" lon="-92.085640">
        <ele>2300.458821723601</ele>
        <time>2019-11-30T14:21:34Z</time>
      </trkpt>
      <trkpt lat="15.103887" lon="-92.085643">
        <ele>2300.6499633277776</ele>
        <time>2019-11-30T14:21:39Z</time>
      </trkpt>
      <trkpt lat="15.103913" lon="-92.085647">
        <ele>2302.4193705322386</ele>
        <time>2019-11-30T14:21:44Z</time>
      </trkpt>
      <trkpt lat="15.103920" lon="-92.085652">
        <ele>2302.8900692203106</ele>
        <time>2019-11-30T14:21:49Z</time>
      </trkpt>
      <trkpt lat="15.103921" lon="-92.085663">
        <ele>2302.8901640037307</ele>
        <time>2019-11-30T14:21:54Z</time>
      </trkpt>
      <trkpt lat="15.103924" lon="-92.085670">
        <ele>2303.3970536052766</ele>
        <time>2019-11-30T14:22:08Z</time>
      </trkpt>
      <trkpt lat="15.103931" lon="-92.085675">
        <ele>2304.849206166513</ele>
        <time>2019-11-30T14:22:12Z</time>
      </trkpt>
      <trkpt lat="15.103938" lon="-92.085679">
        <ele>2305.523756998261</ele>
        <time>2019-11-30T14:22:16Z</time>
      </trkpt>
      <trkpt lat="15.103952" lon="-92.085691">
        <ele>2306.7310545609866</ele>
        <time>2019-11-30T14:22:20Z</time>
      </trkpt>
      <trkpt lat="15.103964" lon="-92.085699">
        <ele>2307.00912595078</ele>
        <time>2019-11-30T14:22:24Z</time>
      </trkpt>
      <trkpt lat="15.103976" lon="-92.085711">
        <ele>2309.5064813612726</ele>
        <time>2019-11-30T14:22:29Z</time>
      </trkpt>
      <trkpt lat="15.103984" lon="-92.085721">
        <ele>2309.5065158823722</ele>
        <time>2019-11-30T14:22:33Z</time>
      </trkpt>
      <trkpt lat="15.103991" lon="-92.085726">
        <ele>2309.8456354945397</ele>
        <time>2019-11-30T14:22:41Z</time>
      </trkpt>
      <trkpt lat="15.104000" lon="-92.085732">
        <ele>2310.567310502283</ele>
        <time>2019-11-30T14:22:46Z</time>
      </trkpt>
      <trkpt lat="15.104007" lon="-92.085736">
        <ele>2310.567311053806</ele>
        <time>2019-11-30T14:22:51Z</time>
      </trkpt>
      <trkpt lat="15.104012" lon="-92.085739">
        <ele>2310.6964557863685</ele>
        <time>2019-11-30T14:23:28Z</time>
      </trkpt>
      <trkpt lat="15.104030" lon="-92.085764">
        <ele>2312.0754816787735</ele>
        <time>2019-11-30T14:23:33Z</time>
      </trkpt>
      <trkpt lat="15.104064" lon="-92.085801">
        <ele>2314.753097128193</ele>
        <time>2019-11-30T14:23:37Z</time>
      </trkpt>
      <trkpt lat="15.104124" lon="-92.085864">
        <ele>2316.6637102801164</ele>
        <time>2019-11-30T14:23:41Z</time>
      </trkpt>
      <trkpt lat="15.104144" lon="-92.085876">
        <ele>2318.338989641821</ele>
        <time>2019-11-30T14:23:45Z</time>
      </trkpt>
      <trkpt lat="15.104175" lon="-92.085893">
        <ele>2319.237139709788</ele>
        <time>2019-11-30T14:23:50Z</time>
      </trkpt>
      <trkpt lat="15.104198" lon="-92.085903">
        <ele>2319.6069607943896</ele>
        <time>2019-11-30T14:23:54Z</time>
      </trkpt>
      <trkpt lat="15.104207" lon="-92.085907">
        <ele>2319.6069347224</ele>
        <time>2019-11-30T14:23:58Z</time>
      </trkpt>
      <trkpt lat="15.104216" lon="-92.085909">
        <ele>2319.7170082043335</ele>
        <time>2019-11-30T14:24:04Z</time>
      </trkpt>
      <trkpt lat="15.104227" lon="-92.085905">
        <ele>2320.4234385259856</ele>
        <time>2019-11-30T14:24:08Z</time>
      </trkpt>
      <trkpt lat="15.104243" lon="-92.085915">
        <ele>2321.2605932947863</ele>
        <time>2019-11-30T14:24:13Z</time>
      </trkpt>
      <trkpt lat="15.104253" lon="-92.085922">
        <ele>2321.260590301844</ele>
        <time>2019-11-30T14:24:17Z</time>
      </trkpt>
      <trkpt lat="15.104269" lon="-92.085929">
        <ele>2323.6939023427813</ele>
        <time>2019-11-30T14:24:22Z</time>
      </trkpt>
      <trkpt lat="15.104285" lon="-92.085944">
        <ele>2324.6558601828897</ele>
        <time>2019-11-30T14:24:26Z</time>
      </trkpt>
      <trkpt lat="15.104290" lon="-92.085953">
        <ele>2325.6356468563636</ele>
        <time>2019-11-30T14:24:30Z</time>
      </trkpt>
      <trkpt lat="15.104303" lon="-92.085971">
        <ele>2326.432607038458</ele>
        <time>2019-11-30T14:24:34Z</time>
      </trkpt>
      <trkpt lat="15.104319" lon="-92.085993">
        <ele>2327.2237257884494</ele>
        <time>2019-11-30T14:24:38Z</time>
      </trkpt>
      <trkpt lat="15.104328" lon="-92.086001">
        <ele>2327.2237495855397</ele>
        <time>2019-11-30T14:24:42Z</time>
      </trkpt>
      <trkpt lat="15.104334" lon="-92.086005">
        <ele>2327.459588651618</ele>
        <time>2019-11-30T14:24:46Z</time>
      </trkpt>
      <trkpt lat="15.104348" lon="-92.086026">
        <ele>2329.3610691176636</ele>
        <time>2019-11-30T14:24:51Z</time>
      </trkpt>
      <trkpt lat="15.104362" lon="-92.086039">
        <ele>2330.5105103966603</ele>
        <time>2019-11-30T14:24:55Z</time>
      </trkpt>
      <trkpt lat="15.104379" lon="-92.086052">
        <ele>2331.6465102725606</ele>
        <time>2019-11-30T14:24:59Z</time>
      </trkpt>
      <trkpt lat="15.104405" lon="-92.086071">
        <ele>2333.0849972092315</ele>
        <time>2019-11-30T14:25:04Z</time>
      </trkpt>
      <trkpt lat="15.104424" lon="-92.086093">
        <ele>2333.9940175732627</ele>
        <time>2019-11-30T14:25:09Z</time>
      </trkpt>
      <trkpt lat="15.104430" lon="-92.086101">
        <ele>2333.9940520632313</ele>
        <time>2019-11-30T14:25:13Z</time>
      </trkpt>
      <trkpt lat="15.104436" lon="-92.086107">
        <ele>2333.994082661933</ele>
        <time>2019-11-30T14:25:20Z</time>
      </trkpt>
      <trkpt lat="15.104443" lon="-92.086107">
        <ele>2334.5216175525393</ele>
        <time>2019-11-30T14:25:32Z</time>
      </trkpt>
      <trkpt lat="15.104460" lon="-92.086103">
        <ele>2335.0939800757437</ele>
        <time>2019-11-30T14:25:36Z</time>
      </trkpt>
      <trkpt lat="15.104466" lon="-92.086102">
        <ele>2335.6544773304436</ele>
        <time>2019-11-30T14:25:52Z</time>
      </trkpt>
      <trkpt lat="15.104507" lon="-92.086119">
        <ele>2336.271556768162</ele>
        <time>2019-11-30T14:25:57Z</time>
      </trkpt>
      <trkpt lat="15.104531" lon="-92.086139">
        <ele>2336.8941481728793</ele>
        <time>2019-11-30T14:26:02Z</time>
      </trkpt>
      <trkpt lat="15.104545" lon="-92.086147">
        <ele>2337.296725638416</ele>
        <time>2019-11-30T14:26:06Z</time>
      </trkpt>
      <trkpt lat="15.104578" lon="-92.086134">
        <ele>2338.154536068523</ele>
        <time>2019-11-30T14:26:11Z</time>
      </trkpt>
      <trkpt lat="15.104597" lon="-92.086130">
        <ele>2339.372870930297</ele>
        <time>2019-11-30T14:26:15Z</time>
      </trkpt>
      <trkpt lat="15.104611" lon="-92.086135">
        <ele>2340.953389109744</ele>
        <time>2019-11-30T14:26:20Z</time>
      </trkpt>
      <trkpt lat="15.104638" lon="-92.086150">
        <ele>2341.448716122292</ele>
        <time>2019-11-30T14:26:25Z</time>
      </trkpt>
      <trkpt lat="15.104648" lon="-92.086166">
        <ele>2341.940022676771</ele>
        <time>2019-11-30T14:26:29Z</time>
      </trkpt>
      <trkpt lat="15.104661" lon="-92.086192">
        <ele>2343.4621614879165</ele>
        <time>2019-11-30T14:26:34Z</time>
      </trkpt>
      <trkpt lat="15.104674" lon="-92.086219">
        <ele>2345.01629012327</ele>
        <time>2019-11-30T14:26:38Z</time>
      </trkpt>
      <trkpt lat="15.104686" lon="-92.086261">
        <ele>2346.6733602445743</ele>
        <time>2019-11-30T14:26:42Z</time>
      </trkpt>
      <trkpt lat="15.104687" lon="-92.086283">
        <ele>2347.6354782884305</ele>
        <time>2019-11-30T14:26:46Z</time>
      </trkpt>
      <trkpt lat="15.104699" lon="-92.086324">
        <ele>2348.4644047746597</ele>
        <time>2019-11-30T14:26:50Z</time>
      </trkpt>
      <trkpt lat="15.104702" lon="-92.086352">
        <ele>2349.1804736999197</ele>
        <time>2019-11-30T14:26:55Z</time>
      </trkpt>
      <trkpt lat="15.104717" lon="-92.086336">
        <ele>2349.4226575916464</ele>
        <time>2019-11-30T14:26:59Z</time>
      </trkpt>
      <trkpt lat="15.104725" lon="-92.086340">
        <ele>2349.404327815145</ele>
        <time>2019-11-30T14:27:05Z</time>
      </trkpt>
      <trkpt lat="15.104736" lon="-92.086354">
        <ele>2349.7884271514954</ele>
        <time>2019-11-30T14:27:09Z</time>
      </trkpt>
      <trkpt lat="15.104755" lon="-92.086375">
        <ele>2350.2228288234573</ele>
        <time>2019-11-30T14:27:14Z</time>
      </trkpt>
      <trkpt lat="15.104762" lon="-92.086383">
        <ele>2350.222859017839</ele>
        <time>2019-11-30T14:27:18Z</time>
      </trkpt>
      <trkpt lat="15.104768" lon="-92.086391">
        <ele>2350.895017684531</ele>
        <time>2019-11-30T14:27:22Z</time>
      </trkpt>
      <trkpt lat="15.104783" lon="-92.086410">
        <ele>2352.6250843889475</ele>
        <time>2019-11-30T14:27:27Z</time>
      </trkpt>
      <trkpt lat="15.104792" lon="-92.086423">
        <ele>2352.8224187173646</ele>
        <time>2019-11-30T14:27:31Z</time>
      </trkpt>
      <trkpt lat="15.104802" lon="-92.086433">
        <ele>2353.9303570867705</ele>
        <time>2019-11-30T14:27:36Z</time>
      </trkpt>
      <trkpt lat="15.104814" lon="-92.086435">
        <ele>2354.68151381809</ele>
        <time>2019-11-30T14:27:40Z</time>
      </trkpt>
      <trkpt lat="15.104833" lon="-92.086430">
        <ele>2355.617132880409</ele>
        <time>2019-11-30T14:27:44Z</time>
      </trkpt>
      <trkpt lat="15.104865" lon="-92.086442">
        <ele>2356.361665555251</ele>
        <time>2019-11-30T14:27:49Z</time>
      </trkpt>
      <trkpt lat="15.104876" lon="-92.086457">
        <ele>2357.0204303711184</ele>
        <time>2019-11-30T14:27:53Z</time>
      </trkpt>
      <trkpt lat="15.104890" lon="-92.086485">
        <ele>2357.6565934747287</ele>
        <time>2019-11-30T14:27:57Z</time>
      </trkpt>
      <trkpt lat="15.104896" lon="-92.086499">
        <ele>2358.3507815062153</ele>
        <time>2019-11-30T14:28:01Z</time>
      </trkpt>
      <trkpt lat="15.104900" lon="-92.086509">
        <ele>2359.094504565622</ele>
        <time>2019-11-30T14:28:05Z</time>
      </trkpt>
      <trkpt lat="15.104909" lon="-92.086508">
        <ele>2360.17475771762</ele>
        <time>2019-11-30T14:28:10Z</time>
      </trkpt>
      <trkpt lat="15.104923" lon="-92.086505">
        <ele>2361.0174082229655</ele>
        <time>2019-11-30T14:28:14Z</time>
      </trkpt>
      <trkpt lat="15.104945" lon="-92.086517">
        <ele>2361.3957979988827</ele>
        <time>2019-11-30T14:28:18Z</time>
      </trkpt>
      <trkpt lat="15.104960" lon="-92.086526">
        <ele>2361.83377670446</ele>
        <time>2019-11-30T14:28:22Z</time>
      </trkpt>
      <trkpt lat="15.104978" lon="-92.086537">
        <ele>2362.644553902323</ele>
        <time>2019-11-30T14:28:26Z</time>
      </trkpt>
      <trkpt lat="15.104994" lon="-92.086552">
        <ele>2363.492981166436</ele>
        <time>2019-11-30T14:28:30Z</time>
      </trkpt>
      <trkpt lat="15.105010" lon="-92.086572">
        <ele>2364.2853024677224</ele>
        <time>2019-11-30T14:28:34Z</time>
      </trkpt>
      <trkpt lat="15.105033" lon="-92.086606">
        <ele>2364.756186141839</ele>
        <time>2019-11-30T14:28:38Z</time>
      </trkpt>
      <trkpt lat="15.105046" lon="-92.086620">
        <ele>2365.314338795187</ele>
        <time>2019-11-30T14:28:43Z</time>
      </trkpt>
      <trkpt lat="15.105054" lon="-92.086630">
        <ele>2366.1327415120404</ele>
        <time>2019-11-30T14:28:47Z</time>
      </trkpt>
      <trkpt lat="15.105068" lon="-92.086646">
        <ele>2366.1213328256663</ele>
        <time>2019-11-30T14:28:51Z</time>
      </trkpt>
      <trkpt lat="15.105078" lon="-92.086657">
        <ele>2366.121370513361</ele>
        <time>2019-11-30T14:28:55Z</time>
      </trkpt>
      <trkpt lat="15.105083" lon="-92.086651">
        <ele>2367.287293507442</ele>
        <time>2019-11-30T14:29:08Z</time>
      </trkpt>
      <trkpt lat="15.105080" lon="-92.086633">
        <ele>2367.6081851299514</ele>
        <time>2019-11-30T14:29:12Z</time>
      </trkpt>
      <trkpt lat="15.105081" lon="-92.086610">
        <ele>2368.01591605299</ele>
        <time>2019-11-30T14:29:16Z</time>
      </trkpt>
      <trkpt lat="15.105103" lon="-92.086574">
        <ele>2368.43167784869</ele>
        <time>2019-11-30T14:29:21Z</time>
      </trkpt>
      <trkpt lat="15.105119" lon="-92.086571">
        <ele>2368.471827010842</ele>
        <time>2019-11-30T14:29:25Z</time>
      </trkpt>
      <trkpt lat="15.105131" lon="-92.086581">
        <ele>2369.0917215460295</ele>
        <time>2019-11-30T14:29:30Z</time>
      </trkpt>
      <trkpt lat="15.105132" lon="-92.086582">
        <ele>2369.2443127399733</ele>
        <time>2019-11-30T14:29:37Z</time>
      </trkpt>
      <trkpt lat="15.105163" lon="-92.086611">
        <ele>2369.8862347245486</ele>
        <time>2019-11-30T14:29:41Z</time>
      </trkpt>
      <trkpt lat="15.105166" lon="-92.086614">
        <ele>2370.0444471115497</ele>
        <time>2019-11-30T14:29:52Z</time>
      </trkpt>
      <trkpt lat="15.105188" lon="-92.086626">
        <ele>2370.120590529315</ele>
        <time>2019-11-30T14:29:57Z</time>
      </trkpt>
      <trkpt lat="15.105198" lon="-92.086629">
        <ele>2370.716256834777</ele>
        <time>2019-11-30T14:30:01Z</time>
      </trkpt>
      <trkpt lat="15.105217" lon="-92.086636">
        <ele>2371.1224498333117</ele>
        <time>2019-11-30T14:30:06Z</time>
      </trkpt>
      <trkpt lat="15.105226" lon="-92.086639">
        <ele>2371.576515433383</ele>
        <time>2019-11-30T14:30:10Z</time>
      </trkpt>
      <trkpt lat="15.105234" lon="-92.086636">
        <ele>2372.721943892002</ele>
        <time>2019-11-30T14:30:18Z</time>
      </trkpt>
      <trkpt lat="15.105247" lon="-92.086638">
        <ele>2372.88326010326</ele>
        <time>2019-11-30T14:30:23Z</time>
      </trkpt>
      <trkpt lat="15.105256" lon="-92.086641">
        <ele>2373.404215553425</ele>
        <time>2019-11-30T14:30:27Z</time>
      </trkpt>
      <trkpt lat="15.105299" lon="-92.086666">
        <ele>2374.1146285576087</ele>
        <time>2019-11-30T14:30:32Z</time>
      </trkpt>
      <trkpt lat="15.105323" lon="-92.086687">
        <ele>2374.411299769642</ele>
        <time>2019-11-30T14:30:36Z</time>
      </trkpt>
      <trkpt lat="15.105333" lon="-92.086695">
        <ele>2374.6432449093136</ele>
        <time>2019-11-30T14:30:41Z</time>
      </trkpt>
      <trkpt lat="15.105341" lon="-92.086697">
        <ele>2374.779196486389</ele>
        <time>2019-11-30T14:30:45Z</time>
      </trkpt>
      <trkpt lat="15.105383" lon="-92.086697">
        <ele>2375.5992296320733</ele>
        <time>2019-11-30T14:30:50Z</time>
      </trkpt>
      <trkpt lat="15.105405" lon="-92.086702">
        <ele>2376.875019106467</ele>
        <time>2019-11-30T14:30:55Z</time>
      </trkpt>
      <trkpt lat="15.105422" lon="-92.086711">
        <ele>2377.557118880473</ele>
        <time>2019-11-30T14:30:59Z</time>
      </trkpt>
      <trkpt lat="15.105432" lon="-92.086716">
        <ele>2377.5571011149177</ele>
        <time>2019-11-30T14:31:03Z</time>
      </trkpt>
      <trkpt lat="15.105443" lon="-92.086723">
        <ele>2378.104703904107</ele>
        <time>2019-11-30T14:31:08Z</time>
      </trkpt>
      <trkpt lat="15.105455" lon="-92.086730">
        <ele>2378.7506821098586</ele>
        <time>2019-11-30T14:31:13Z</time>
      </trkpt>
      <trkpt lat="15.105477" lon="-92.086732">
        <ele>2379.5073992401644</ele>
        <time>2019-11-30T14:31:17Z</time>
      </trkpt>
      <trkpt lat="15.105491" lon="-92.086734">
        <ele>2379.5073198430428</ele>
        <time>2019-11-30T14:31:21Z</time>
      </trkpt>
      <trkpt lat="15.105502" lon="-92.086737">
        <ele>2379.4325704586813</ele>
        <time>2019-11-30T14:31:25Z</time>
      </trkpt>
      <trkpt lat="15.105520" lon="-92.086750">
        <ele>2379.882045982058</ele>
        <time>2019-11-30T14:31:30Z</time>
      </trkpt>
      <trkpt lat="15.105575" lon="-92.086807">
        <ele>2381.373194071969</ele>
        <time>2019-11-30T14:31:34Z</time>
      </trkpt>
      <trkpt lat="15.105597" lon="-92.086819">
        <ele>2383.1370907717637</ele>
        <time>2019-11-30T14:31:39Z</time>
      </trkpt>
      <trkpt lat="15.105613" lon="-92.086831">
        <ele>2384.5721518529176</ele>
        <time>2019-11-30T14:31:43Z</time>
      </trkpt>
      <trkpt lat="15.105634" lon="-92.086847">
        <ele>2385.889060867666</ele>
        <time>2019-11-30T14:31:48Z</time>
      </trkpt>
      <trkpt lat="15.105649" lon="-92.086857">
        <ele>2385.889062044318</ele>
        <time>2019-11-30T14:31:52Z</time>
      </trkpt>
      <trkpt lat="15.105657" lon="-92.086861">
        <ele>2385.8126319802714</ele>
        <time>2019-11-30T14:31:57Z</time>
      </trkpt>
      <trkpt lat="15.105652" lon="-92.086854">
        <ele>2387.7518018817573</ele>
        <time>2019-11-30T14:32:03Z</time>
      </trkpt>
      <trkpt lat="15.105642" lon="-92.086848">
        <ele>2389.1971284736705</ele>
        <time>2019-11-30T14:32:07Z</time>
      </trkpt>
      <trkpt lat="15.105626" lon="-92.086823">
        <ele>2391.5539203231297</ele>
        <time>2019-11-30T14:32:12Z</time>
      </trkpt>
      <trkpt lat="15.105617" lon="-92.086810">
        <ele>2391.662749868044</ele>
        <time>2019-11-30T14:32:16Z</time>
      </trkpt>
      <trkpt lat="15.105613" lon="-92.086802">
        <ele>2391.6627001731845</ele>
        <time>2019-11-30T14:32:24Z</time>
      </trkpt>
      <trkpt lat="15.105613" lon="-92.086772">
        <ele>2391.138962532477</ele>
        <time>2019-11-30T14:32:29Z</time>
      </trkpt>
      <trkpt lat="15.105616" lon="-92.086756">
        <ele>2390.3509488836094</ele>
        <time>2019-11-30T14:32:33Z</time>
      </trkpt>
      <trkpt lat="15.105628" lon="-92.086740">
        <ele>2390.3013985598136</ele>
        <time>2019-11-30T14:32:37Z</time>
      </trkpt>
      <trkpt lat="15.105640" lon="-92.086728">
        <ele>2390.63518239012</ele>
        <time>2019-11-30T14:32:41Z</time>
      </trkpt>
      <trkpt lat="15.105666" lon="-92.086714">
        <ele>2391.5775056998473</ele>
        <time>2019-11-30T14:32:45Z</time>
      </trkpt>
      <trkpt lat="15.105694" lon="-92.086710">
        <ele>2391.703746941047</ele>
        <time>2019-11-30T14:32:49Z</time>
      </trkpt>
      <trkpt lat="15.105717" lon="-92.086713">
        <ele>2392.0896092832313</ele>
        <time>2019-11-30T14:32:53Z</time>
      </trkpt>
      <trkpt lat="15.105733" lon="-92.086715">
        <ele>2392.4982177337893</ele>
        <time>2019-11-30T14:32:58Z</time>
      </trkpt>
      <trkpt lat="15.105742" lon="-92.086720">
        <ele>2393.376386695642</ele>
        <time>2019-11-30T14:33:02Z</time>
      </trkpt>
      <trkpt lat="15.105750" lon="-92.086725">
        <ele>2393.4881939951583</ele>
        <time>2019-11-30T14:33:06Z</time>
      </trkpt>
      <trkpt lat="15.105762" lon="-92.086729">
        <ele>2394.2254546906056</ele>
        <time>2019-11-30T14:33:10Z</time>
      </trkpt>
      <trkpt lat="15.105784" lon="-92.086734">
        <ele>2394.462663568166</ele>
        <time>2019-11-30T14:33:14Z</time>
      </trkpt>
      <trkpt lat="15.105822" lon="-92.086741">
        <ele>2394.243974177857</ele>
        <time>2019-11-30T14:33:19Z</time>
      </trkpt>
      <trkpt lat="15.105850" lon="-92.086751">
        <ele>2395.6506256661833</ele>
        <time>2019-11-30T14:33:23Z</time>
      </trkpt>
      <trkpt lat="15.105863" lon="-92.086756">
        <ele>2395.874460525691</ele>
        <time>2019-11-30T14:33:27Z</time>
      </trkpt>
      <trkpt lat="15.105876" lon="-92.086768">
        <ele>2396.205053763621</ele>
        <time>2019-11-30T14:33:32Z</time>
      </trkpt>
      <trkpt lat="15.105885" lon="-92.086776">
        <ele>2396.4479965996143</ele>
        <time>2019-11-30T14:33:37Z</time>
      </trkpt>
      <trkpt lat="15.105893" lon="-92.086785">
        <ele>2396.794707840449</ele>
        <time>2019-11-30T14:33:41Z</time>
      </trkpt>
      <trkpt lat="15.105901" lon="-92.086801">
        <ele>2397.7733367485116</ele>
        <time>2019-11-30T14:33:45Z</time>
      </trkpt>
      <trkpt lat="15.105919" lon="-92.086837">
        <ele>2398.7012971303666</ele>
        <time>2019-11-30T14:33:49Z</time>
      </trkpt>
      <trkpt lat="15.105936" lon="-92.086854">
        <ele>2399.4271780649015</ele>
        <time>2019-11-30T14:33:53Z</time>
      </trkpt>
      <trkpt lat="15.105949" lon="-92.086868">
        <ele>2399.334693101875</ele>
        <time>2019-11-30T14:33:57Z</time>
      </trkpt>
      <trkpt lat="15.105961" lon="-92.086888">
        <ele>2399.6485393976473</ele>
        <time>2019-11-30T14:34:01Z</time>
      </trkpt>
      <trkpt lat="15.105967" lon="-92.086910">
        <ele>2399.810575932911</ele>
        <time>2019-11-30T14:34:06Z</time>
      </trkpt>
      <trkpt lat="15.105973" lon="-92.086925">
        <ele>2400.253062392568</ele>
        <time>2019-11-30T14:34:10Z</time>
      </trkpt>
      <trkpt lat="15.105990" lon="-92.086959">
        <ele>2401.5445410264674</ele>
        <time>2019-11-30T14:34:15Z</time>
      </trkpt>
      <trkpt lat="15.106000" lon="-92.086981">
        <ele>2403.2573266295635</ele>
        <time>2019-11-30T14:34:20Z</time>
      </trkpt>
      <trkpt lat="15.106014" lon="-92.087013">
        <ele>2404.611064999517</ele>
        <time>2019-11-30T14:34:24Z</time>
      </trkpt>
      <trkpt lat="15.106021" lon="-92.087032">
        <ele>2405.568721787871</ele>
        <time>2019-11-30T14:34:28Z</time>
      </trkpt>
      <trkpt lat="15.106025" lon="-92.087041">
        <ele>2405.568784343201</ele>
        <time>2019-11-30T14:34:33Z</time>
      </trkpt>
      <trkpt lat="15.106039" lon="-92.087058">
        <ele>2405.2878448934716</ele>
        <time>2019-11-30T14:34:37Z</time>
      </trkpt>
      <trkpt lat="15.106047" lon="-92.087068">
        <ele>2405.2878965406926</ele>
        <time>2019-11-30T14:34:42Z</time>
      </trkpt>
      <trkpt lat="15.106044" lon="-92.087075">
        <ele>2408.8285084405175</ele>
        <time>2019-11-30T14:35:01Z</time>
      </trkpt>
      <trkpt lat="15.106050" lon="-92.087085">
        <ele>2409.0424366521265</ele>
        <time>2019-11-30T14:35:06Z</time>
      </trkpt>
      <trkpt lat="15.106053" lon="-92.087093">
        <ele>2409.042485068396</ele>
        <time>2019-11-30T14:35:12Z</time>
      </trkpt>
      <trkpt lat="15.106054" lon="-92.087101">
        <ele>2410.221272664677</ele>
        <time>2019-11-30T14:35:25Z</time>
      </trkpt>
      <trkpt lat="15.106057" lon="-92.087109">
        <ele>2410.9432520190844</ele>
        <time>2019-11-30T14:35:29Z</time>
      </trkpt>
      <trkpt lat="15.106060" lon="-92.087102">
        <ele>2412.580615378291</ele>
        <time>2019-11-30T14:35:36Z</time>
      </trkpt>
      <trkpt lat="15.106063" lon="-92.087084">
        <ele>2412.8567908470386</ele>
        <time>2019-11-30T14:35:40Z</time>
      </trkpt>
      <trkpt lat="15.106068" lon="-92.087062">
        <ele>2413.142916957117</ele>
        <time>2019-11-30T14:35:45Z</time>
      </trkpt>
      <trkpt lat="15.106071" lon="-92.087053">
        <ele>2413.1428138262877</ele>
        <time>2019-11-30T14:35:51Z</time>
      </trkpt>
      <trkpt lat="15.106078" lon="-92.087051">
        <ele>2413.4974834854875</ele>
        <time>2019-11-30T14:36:16Z</time>
      </trkpt>
      <trkpt lat="15.106100" lon="-92.087046">
        <ele>2413.7033502013296</ele>
        <time>2019-11-30T14:36:21Z</time>
      </trkpt>
      <trkpt lat="15.106116" lon="-92.087043">
        <ele>2414.0882175380416</ele>
        <time>2019-11-30T14:36:25Z</time>
      </trkpt>
      <trkpt lat="15.106134" lon="-92.087041">
        <ele>2414.9555162986194</ele>
        <time>2019-11-30T14:36:29Z</time>
      </trkpt>
      <trkpt lat="15.106146" lon="-92.087042">
        <ele>2416.1583230144483</ele>
        <time>2019-11-30T14:36:33Z</time>
      </trkpt>
      <trkpt lat="15.106161" lon="-92.087047">
        <ele>2417.376051437242</ele>
        <time>2019-11-30T14:36:38Z</time>
      </trkpt>
      <trkpt lat="15.106173" lon="-92.087053">
        <ele>2417.7471264213523</ele>
        <time>2019-11-30T14:36:43Z</time>
      </trkpt>
      <trkpt lat="15.106180" lon="-92.087058">
        <ele>2418.3125564714555</ele>
        <time>2019-11-30T14:36:51Z</time>
      </trkpt>
      <trkpt lat="15.106185" lon="-92.087051">
        <ele>2421.585643362635</ele>
        <time>2019-11-30T14:37:04Z</time>
      </trkpt>
      <trkpt lat="15.106187" lon="-92.087036">
        <ele>2422.5334893408544</ele>
        <time>2019-11-30T14:37:08Z</time>
      </trkpt>
      <trkpt lat="15.106192" lon="-92.087006">
        <ele>2424.0685575118623</ele>
        <time>2019-11-30T14:37:13Z</time>
      </trkpt>
      <trkpt lat="15.106194" lon="-92.086973">
        <ele>2423.9434683933805</ele>
        <time>2019-11-30T14:37:17Z</time>
      </trkpt>
      <trkpt lat="15.106208" lon="-92.086946">
        <ele>2424.148436852377</ele>
        <time>2019-11-30T14:37:21Z</time>
      </trkpt>
      <trkpt lat="15.106219" lon="-92.086930">
        <ele>2424.148211850113</ele>
        <time>2019-11-30T14:37:25Z</time>
      </trkpt>
      <trkpt lat="15.106227" lon="-92.086920">
        <ele>2424.148060817266</ele>
        <time>2019-11-30T14:37:30Z</time>
      </trkpt>
      <trkpt lat="15.106232" lon="-92.086914">
        <ele>2424.147969178835</ele>
        <time>2019-11-30T14:37:37Z</time>
      </trkpt>
      <trkpt lat="15.106250" lon="-92.086916">
        <ele>2423.6468961638243</ele>
        <time>2019-11-30T14:37:41Z</time>
      </trkpt>
      <trkpt lat="15.106289" lon="-92.086943">
        <ele>2423.793627447118</ele>
        <time>2019-11-30T14:37:46Z</time>
      </trkpt>
      <trkpt lat="15.106307" lon="-92.086967">
        <ele>2424.4990618007505</ele>
        <time>2019-11-30T14:37:50Z</time>
      </trkpt>
      <trkpt lat="15.106326" lon="-92.086989">
        <ele>2427.0030526153278</ele>
        <time>2019-11-30T14:37:54Z</time>
      </trkpt>
      <trkpt lat="15.106348" lon="-92.087016">
        <ele>2429.0341813835353</ele>
        <time>2019-11-30T14:37:59Z</time>
      </trkpt>
      <trkpt lat="15.106361" lon="-92.087032">
        <ele>2429.9820079695783</ele>
        <time>2019-11-30T14:38:03Z</time>
      </trkpt>
      <trkpt lat="15.106378" lon="-92.087052">
        <ele>2430.8937061979527</ele>
        <time>2019-11-30T14:38:07Z</time>
      </trkpt>
      <trkpt lat="15.106395" lon="-92.087071">
        <ele>2431.1930882299234</ele>
        <time>2019-11-30T14:38:12Z</time>
      </trkpt>
      <trkpt lat="15.106403" lon="-92.087078">
        <ele>2431.5092702224265</ele>
        <time>2019-11-30T14:38:16Z</time>
      </trkpt>
      <trkpt lat="15.106410" lon="-92.087084">
        <ele>2431.509285519188</ele>
        <time>2019-11-30T14:38:21Z</time>
      </trkpt>
      <trkpt lat="15.106418" lon="-92.087089">
        <ele>2432.3088398260165</ele>
        <time>2019-11-30T14:38:25Z</time>
      </trkpt>
      <trkpt lat="15.106432" lon="-92.087093">
        <ele>2433.3888664546694</ele>
        <time>2019-11-30T14:38:29Z</time>
      </trkpt>
      <trkpt lat="15.106443" lon="-92.087096">
        <ele>2433.388813925761</ele>
        <time>2019-11-30T14:38:33Z</time>
      </trkpt>
      <trkpt lat="15.106451" lon="-92.087099">
        <ele>2433.3887963612165</ele>
        <time>2019-11-30T14:38:38Z</time>
      </trkpt>
      <trkpt lat="15.106457" lon="-92.087103">
        <ele>2433.388792925113</ele>
        <time>2019-11-30T14:38:45Z</time>
      </trkpt>
      <trkpt lat="15.106456" lon="-92.087097">
        <ele>2437.423407948557</ele>
        <time>2019-11-30T14:39:00Z</time>
      </trkpt>
      <trkpt lat="15.106457" lon="-92.087088">
        <ele>2437.508517584676</ele>
        <time>2019-11-30T14:39:04Z</time>
      </trkpt>
      <trkpt lat="15.106459" lon="-92.087083">
        <ele>2437.6014721214583</ele>
        <time>2019-11-30T14:39:10Z</time>
      </trkpt>
      <trkpt lat="15.106489" lon="-92.087063">
        <ele>2436.9782824744634</ele>
        <time>2019-11-30T14:39:15Z</time>
      </trkpt>
      <trkpt lat="15.106523" lon="-92.087043">
        <ele>2437.380941164092</ele>
        <time>2019-11-30T14:39:19Z</time>
      </trkpt>
      <trkpt lat="15.106551" lon="-92.087025">
        <ele>2437.3988936690585</ele>
        <time>2019-11-30T14:39:23Z</time>
      </trkpt>
      <trkpt lat="15.106577" lon="-92.087014">
        <ele>2438.073664910791</ele>
        <time>2019-11-30T14:39:28Z</time>
      </trkpt>
      <trkpt lat="15.106601" lon="-92.087010">
        <ele>2438.8281024027615</ele>
        <time>2019-11-30T14:39:32Z</time>
      </trkpt>
      <trkpt lat="15.106630" lon="-92.087005">
        <ele>2439.161358848873</ele>
        <time>2019-11-30T14:39:36Z</time>
      </trkpt>
      <trkpt lat="15.106672" lon="-92.086995">
        <ele>2439.564063482501</ele>
        <time>2019-11-30T14:39:40Z</time>
      </trkpt>
      <trkpt lat="15.106722" lon="-92.086984">
        <ele>2440.0262663933504</ele>
        <time>2019-11-30T14:39:44Z</time>
      </trkpt>
      <trkpt lat="15.106756" lon="-92.086975">
        <ele>2440.578447642224</ele>
        <time>2019-11-30T14:39:49Z</time>
      </trkpt>
      <trkpt lat="15.106756" lon="-92.086975">
        <ele>2441.305254282849</ele>
        <time>2019-11-30T14:39:57Z</time>
      </trkpt>
      <trkpt lat="15.106819" lon="-92.086968">
        <ele>2443.7805995988783</ele>
        <time>2019-11-30T14:40:02Z</time>
      </trkpt>
      <trkpt lat="15.106839" lon="-92.086962">
        <ele>2446.3785566643014</ele>
        <time>2019-11-30T14:40:06Z</time>
      </trkpt>
      <trkpt lat="15.106876" lon="-92.086950">
        <ele>2446.9878160727812</ele>
        <time>2019-11-30T14:40:10Z</time>
      </trkpt>
      <trkpt lat="15.106899" lon="-92.086944">
        <ele>2447.212950365291</ele>
        <time>2019-11-30T14:40:14Z</time>
      </trkpt>
      <trkpt lat="15.106907" lon="-92.086942">
        <ele>2447.8176039553796</ele>
        <time>2019-11-30T14:40:19Z</time>
      </trkpt>
      <trkpt lat="15.106912" lon="-92.086935">
        <ele>2448.321903934008</ele>
        <time>2019-11-30T14:40:25Z</time>
      </trkpt>
      <trkpt lat="15.106905" lon="-92.086936">
        <ele>2449.505557334747</ele>
        <time>2019-11-30T14:40:32Z</time>
      </trkpt>
      <trkpt lat="15.106888" lon="-92.086939">
        <ele>2450.175856544574</ele>
        <time>2019-11-30T14:40:37Z</time>
      </trkpt>
      <trkpt lat="15.106874" lon="-92.086929">
        <ele>2451.179515494372</ele>
        <time>2019-11-30T14:40:41Z</time>
      </trkpt>
      <trkpt lat="15.106857" lon="-92.086904">
        <ele>2451.9301225809695</ele>
        <time>2019-11-30T14:40:45Z</time>
      </trkpt>
      <trkpt lat="15.106852" lon="-92.086865">
        <ele>2450.9004762818163</ele>
        <time>2019-11-30T14:40:50Z</time>
      </trkpt>
      <trkpt lat="15.106855" lon="-92.086816">
        <ele>2449.7874284901927</ele>
        <time>2019-11-30T14:40:54Z</time>
      </trkpt>
      <trkpt lat="15.106857" lon="-92.086776">
        <ele>2449.787027783679</ele>
        <time>2019-11-30T14:40:58Z</time>
      </trkpt>
      <trkpt lat="15.106857" lon="-92.086753">
        <ele>2449.390574240717</ele>
        <time>2019-11-30T14:41:02Z</time>
      </trkpt>
      <trkpt lat="15.106872" lon="-92.086727">
        <ele>2450.0205862058256</ele>
        <time>2019-11-30T14:41:07Z</time>
      </trkpt>
      <trkpt lat="15.106888" lon="-92.086733">
        <ele>2450.599153530215</ele>
        <time>2019-11-30T14:41:11Z</time>
      </trkpt>
      <trkpt lat="15.106911" lon="-92.086736">
        <ele>2450.5609380929795</ele>
        <time>2019-11-30T14:41:16Z</time>
      </trkpt>
      <trkpt lat="15.106941" lon="-92.086747">
        <ele>2451.2634851529237</ele>
        <time>2019-11-30T14:41:21Z</time>
      </trkpt>
      <trkpt lat="15.106958" lon="-92.086745">
        <ele>2451.5492379323664</ele>
        <time>2019-11-30T14:41:25Z</time>
      </trkpt>
      <trkpt lat="15.106970" lon="-92.086742">
        <ele>2451.5491319077123</ele>
        <time>2019-11-30T14:41:30Z</time>
      </trkpt>
      <trkpt lat="15.106977" lon="-92.086741">
        <ele>2451.8662169194718</ele>
        <time>2019-11-30T14:41:36Z</time>
      </trkpt>
      <trkpt lat="15.106997" lon="-92.086742">
        <ele>2452.2337735675987</ele>
        <time>2019-11-30T14:41:41Z</time>
      </trkpt>
      <trkpt lat="15.107027" lon="-92.086755">
        <ele>2452.761284319486</ele>
        <time>2019-11-30T14:41:46Z</time>
      </trkpt>
      <trkpt lat="15.107039" lon="-92.086763">
        <ele>2452.8638260847024</ele>
        <time>2019-11-30T14:41:50Z</time>
      </trkpt>
      <trkpt lat="15.107060" lon="-92.086776">
        <ele>2453.3396456367377</ele>
        <time>2019-11-30T14:41:55Z</time>
      </trkpt>
      <trkpt lat="15.107093" lon="-92.086782">
        <ele>2454.0574994349577</ele>
        <time>2019-11-30T14:42:00Z</time>
      </trkpt>
      <trkpt lat="15.107114" lon="-92.086778">
        <ele>2454.7355475151694</ele>
        <time>2019-11-30T14:42:04Z</time>
      </trkpt>
      <trkpt lat="15.107135" lon="-92.086761">
        <ele>2455.751353484002</ele>
        <time>2019-11-30T14:42:09Z</time>
      </trkpt>
      <trkpt lat="15.107154" lon="-92.086757">
        <ele>2456.4291694965073</ele>
        <time>2019-11-30T14:42:13Z</time>
      </trkpt>
      <trkpt lat="15.107180" lon="-92.086757">
        <ele>2457.1985319015976</ele>
        <time>2019-11-30T14:42:18Z</time>
      </trkpt>
      <trkpt lat="15.107200" lon="-92.086754">
        <ele>2457.6151165955193</ele>
        <time>2019-11-30T14:42:22Z</time>
      </trkpt>
      <trkpt lat="15.107222" lon="-92.086749">
        <ele>2458.7535942137483</ele>
        <time>2019-11-30T14:42:27Z</time>
      </trkpt>
      <trkpt lat="15.107235" lon="-92.086746">
        <ele>2458.7534749857477</ele>
        <time>2019-11-30T14:42:32Z</time>
      </trkpt>
      <trkpt lat="15.107244" lon="-92.086744">
        <ele>2458.7533995121103</ele>
        <time>2019-11-30T14:42:43Z</time>
      </trkpt>
      <trkpt lat="15.107249" lon="-92.086744">
        <ele>2458.3715310090297</ele>
        <time>2019-11-30T14:42:50Z</time>
      </trkpt>
      <trkpt lat="15.107267" lon="-92.086736">
        <ele>2458.468493586654</ele>
        <time>2019-11-30T14:42:55Z</time>
      </trkpt>
      <trkpt lat="15.107288" lon="-92.086739">
        <ele>2459.4242000030126</ele>
        <time>2019-11-30T14:43:00Z</time>
      </trkpt>
      <trkpt lat="15.107296" lon="-92.086744">
        <ele>2459.424198969238</ele>
        <time>2019-11-30T14:43:04Z</time>
      </trkpt>
      <trkpt lat="15.107300" lon="-92.086752">
        <ele>2459.42425570551</ele>
        <time>2019-11-30T14:43:14Z</time>
      </trkpt>
      <trkpt lat="15.107307" lon="-92.086760">
        <ele>2460.2287178171673</ele>
        <time>2019-11-30T14:43:18Z</time>
      </trkpt>
      <trkpt lat="15.107336" lon="-92.086779">
        <ele>2462.043902068264</ele>
        <time>2019-11-30T14:43:22Z</time>
      </trkpt>
      <trkpt lat="15.107353" lon="-92.086782">
        <ele>2462.329457005884</ele>
        <time>2019-11-30T14:43:26Z</time>
      </trkpt>
      <trkpt lat="15.107376" lon="-92.086778">
        <ele>2462.325116775167</ele>
        <time>2019-11-30T14:43:30Z</time>
      </trkpt>
      <trkpt lat="15.107389" lon="-92.086778">
        <ele>2462.3250338829475</ele>
        <time>2019-11-30T14:43:35Z</time>
      </trkpt>
      <trkpt lat="15.107396" lon="-92.086779">
        <ele>2462.3250021172953</ele>
        <time>2019-11-30T14:43:44Z</time>
      </trkpt>
      <trkpt lat="15.107422" lon="-92.086781">
        <ele>2462.6700605329784</ele>
        <time>2019-11-30T14:43:48Z</time>
      </trkpt>
      <trkpt lat="15.107440" lon="-92.086784">
        <ele>2462.6699726747715</ele>
        <time>2019-11-30T14:43:52Z</time>
      </trkpt>
      <trkpt lat="15.107448" lon="-92.086788">
        <ele>2462.669958025803</ele>
        <time>2019-11-30T14:43:56Z</time>
      </trkpt>
      <trkpt lat="15.107456" lon="-92.086813">
        <ele>2464.3781537402388</ele>
        <time>2019-11-30T14:44:00Z</time>
      </trkpt>
      <trkpt lat="15.107464" lon="-92.086825">
        <ele>2464.3782245193215</ele>
        <time>2019-11-30T14:44:05Z</time>
      </trkpt>
      <trkpt lat="15.107472" lon="-92.086840">
        <ele>2465.383681019319</ele>
        <time>2019-11-30T14:44:10Z</time>
      </trkpt>
      <trkpt lat="15.107504" lon="-92.086894">
        <ele>2468.080533862131</ele>
        <time>2019-11-30T14:44:14Z</time>
      </trkpt>
      <trkpt lat="15.107539" lon="-92.086946">
        <ele>2471.2060501330184</ele>
        <time>2019-11-30T14:44:19Z</time>
      </trkpt>
      <trkpt lat="15.107554" lon="-92.086964">
        <ele>2471.206124006865</ele>
        <time>2019-11-30T14:44:24Z</time>
      </trkpt>
      <trkpt lat="15.107559" lon="-92.086972">
        <ele>2471.38414509369</ele>
        <time>2019-11-30T14:44:28Z</time>
      </trkpt>
      <trkpt lat="15.107572" lon="-92.086958">
        <ele>2473.1634633398444</ele>
        <time>2019-11-30T14:44:32Z</time>
      </trkpt>
      <trkpt lat="15.107583" lon="-92.086952">
        <ele>2474.646005093566</ele>
        <time>2019-11-30T14:44:37Z</time>
      </trkpt>
      <trkpt lat="15.107589" lon="-92.086948">
        <ele>2475.6661884849736</ele>
        <time>2019-11-30T14:44:42Z</time>
      </trkpt>
      <trkpt lat="15.107597" lon="-92.086937">
        <ele>2476.246341709277</ele>
        <time>2019-11-30T14:44:46Z</time>
      </trkpt>
      <trkpt lat="15.107611" lon="-92.086925">
        <ele>2476.5278841307395</ele>
        <time>2019-11-30T14:44:50Z</time>
      </trkpt>
      <trkpt lat="15.107620" lon="-92.086923">
        <ele>2476.652804989879</ele>
        <time>2019-11-30T14:44:55Z</time>
      </trkpt>
      <trkpt lat="15.107629" lon="-92.086934">
        <ele>2477.4948852547673</ele>
        <time>2019-11-30T14:44:59Z</time>
      </trkpt>
      <trkpt lat="15.107646" lon="-92.086947">
        <ele>2478.061549286542</ele>
        <time>2019-11-30T14:45:04Z</time>
      </trkpt>
      <trkpt lat="15.107663" lon="-92.086953">
        <ele>2478.4042691921304</ele>
        <time>2019-11-30T14:45:08Z</time>
      </trkpt>
      <trkpt lat="15.107689" lon="-92.086965">
        <ele>2478.6339589572854</ele>
        <time>2019-11-30T14:45:12Z</time>
      </trkpt>
      <trkpt lat="15.107724" lon="-92.087011">
        <ele>2479.715465411358</ele>
        <time>2019-11-30T14:45:16Z</time>
      </trkpt>
      <trkpt lat="15.107731" lon="-92.087037">
        <ele>2480.3775346222906</ele>
        <time>2019-11-30T14:45:20Z</time>
      </trkpt>
      <trkpt lat="15.107746" lon="-92.087058">
        <ele>2479.563924850103</ele>
        <time>2019-11-30T14:45:25Z</time>
      </trkpt>
      <trkpt lat="15.107760" lon="-92.087086">
        <ele>2479.519914280089</ele>
        <time>2019-11-30T14:45:29Z</time>
      </trkpt>
      <trkpt lat="15.107774" lon="-92.087122">
        <ele>2480.4203218030693</ele>
        <time>2019-11-30T14:45:33Z</time>
      </trkpt>
      <trkpt lat="15.107787" lon="-92.087155">
        <ele>2480.48452060888</ele>
        <time>2019-11-30T14:45:37Z</time>
      </trkpt>
      <trkpt lat="15.107794" lon="-92.087211">
        <ele>2479.928620823814</ele>
        <time>2019-11-30T14:45:42Z</time>
      </trkpt>
      <trkpt lat="15.107794" lon="-92.087242">
        <ele>2479.383268834565</ele>
        <time>2019-11-30T14:45:46Z</time>
      </trkpt>
      <trkpt lat="15.107789" lon="-92.087281">
        <ele>2478.840473147351</ele>
        <time>2019-11-30T14:45:50Z</time>
      </trkpt>
      <trkpt lat="15.107785" lon="-92.087325">
        <ele>2478.58042247225</ele>
        <time>2019-11-30T14:45:55Z</time>
      </trkpt>
      <trkpt lat="15.107776" lon="-92.087362">
        <ele>2478.693635467658</ele>
        <time>2019-11-30T14:45:59Z</time>
      </trkpt>
      <trkpt lat="15.107758" lon="-92.087409">
        <ele>2478.8529035621054</ele>
        <time>2019-11-30T14:46:04Z</time>
      </trkpt>
      <trkpt lat="15.107741" lon="-92.087458">
        <ele>2479.52439403168</ele>
        <time>2019-11-30T14:46:09Z</time>
      </trkpt>
      <trkpt lat="15.107729" lon="-92.087502">
        <ele>2480.0593215745994</ele>
        <time>2019-11-30T14:46:14Z</time>
      </trkpt>
      <trkpt lat="15.107768" lon="-92.087568">
        <ele>2480.3441298112634</ele>
        <time>2019-11-30T14:46:19Z</time>
      </trkpt>
      <trkpt lat="15.107772" lon="-92.087584">
        <ele>2480.344261669168</ele>
        <time>2019-11-30T14:46:23Z</time>
      </trkpt>
      <trkpt lat="15.107772" lon="-92.087584">
        <ele>2480.344261669168</ele>
        <time>2019-11-30T14:46:31Z</time>
      </trkpt>
      <trkpt lat="15.107742" lon="-92.087578">
        <ele>2480.3443999430283</ele>
        <time>2019-11-30T14:46:35Z</time>
      </trkpt>
      <trkpt lat="15.107732" lon="-92.087572">
        <ele>2480.3444066975226</ele>
        <time>2019-11-30T14:46:39Z</time>
      </trkpt>
      <trkpt lat="15.107731" lon="-92.087571">
        <ele>2480.3444047724984</ele>
        <time>2019-11-30T14:46:51Z</time>
      </trkpt>
      <trkpt lat="15.107720" lon="-92.087566">
        <ele>2481.0275334089943</ele>
        <time>2019-11-30T14:46:56Z</time>
      </trkpt>
      <trkpt lat="15.107716" lon="-92.087567">
        <ele>2481.0275681448975</ele>
        <time>2019-11-30T14:47:03Z</time>
      </trkpt>
      <trkpt lat="15.107716" lon="-92.087567">
        <ele>2481.0275681448975</ele>
        <time>2019-11-30T14:47:03Z</time>
      </trkpt>
      <trkpt lat="15.107863" lon="-92.087165">
        <ele>2464.0116034514117</ele>
        <time>2019-11-30T15:32:08Z</time>
      </trkpt>
      <trkpt lat="15.107824" lon="-92.087296">
        <ele>2477.9927279324634</ele>
        <time>2019-11-30T15:32:12Z</time>
      </trkpt>
      <trkpt lat="15.107824" lon="-92.087296">
        <ele>2476.9968783230884</ele>
        <time>2019-11-30T15:32:17Z</time>
      </trkpt>
      <trkpt lat="15.107847" lon="-92.087210">
        <ele>2480.5681500655433</ele>
        <time>2019-11-30T15:32:21Z</time>
      </trkpt>
      <trkpt lat="15.107838" lon="-92.087195">
        <ele>2482.8935093433906</ele>
        <time>2019-11-30T15:32:26Z</time>
      </trkpt>
      <trkpt lat="15.107835" lon="-92.087179">
        <ele>2482.9224192845095</ele>
        <time>2019-11-30T15:32:31Z</time>
      </trkpt>
      <trkpt lat="15.107849" lon="-92.087149">
        <ele>2483.4010434343168</ele>
        <time>2019-11-30T15:32:35Z</time>
      </trkpt>
      <trkpt lat="15.107835" lon="-92.087106">
        <ele>2481.9646846251812</ele>
        <time>2019-11-30T15:32:40Z</time>
      </trkpt>
      <trkpt lat="15.107828" lon="-92.087080">
        <ele>2481.745727497279</ele>
        <time>2019-11-30T15:32:44Z</time>
      </trkpt>
      <trkpt lat="15.107838" lon="-92.087060">
        <ele>2481.5916549600734</ele>
        <time>2019-11-30T15:32:49Z</time>
      </trkpt>
      <trkpt lat="15.107849" lon="-92.087047">
        <ele>2480.972070455203</ele>
        <time>2019-11-30T15:32:53Z</time>
      </trkpt>
      <trkpt lat="15.107867" lon="-92.087035">
        <ele>2480.819734029731</ele>
        <time>2019-11-30T15:32:58Z</time>
      </trkpt>
      <trkpt lat="15.107877" lon="-92.087033">
        <ele>2480.688792265648</ele>
        <time>2019-11-30T15:33:02Z</time>
      </trkpt>
      <trkpt lat="15.107883" lon="-92.087031">
        <ele>2481.704354874632</ele>
        <time>2019-11-30T15:33:06Z</time>
      </trkpt>
      <trkpt lat="15.107923" lon="-92.087031">
        <ele>2484.055417852594</ele>
        <time>2019-11-30T15:33:11Z</time>
      </trkpt>
      <trkpt lat="15.107956" lon="-92.087027">
        <ele>2487.0783525877296</ele>
        <time>2019-11-30T15:33:15Z</time>
      </trkpt>
      <trkpt lat="15.107980" lon="-92.087030">
        <ele>2487.726170815948</ele>
        <time>2019-11-30T15:33:19Z</time>
      </trkpt>
      <trkpt lat="15.107985" lon="-92.087046">
        <ele>2488.4079334640664</ele>
        <time>2019-11-30T15:33:23Z</time>
      </trkpt>
      <trkpt lat="15.107979" lon="-92.087068">
        <ele>2488.8991567350604</ele>
        <time>2019-11-30T15:33:27Z</time>
      </trkpt>
      <trkpt lat="15.107979" lon="-92.087093">
        <ele>2489.828107402631</ele>
        <time>2019-11-30T15:33:32Z</time>
      </trkpt>
      <trkpt lat="15.107983" lon="-92.087132">
        <ele>2491.1529223013868</ele>
        <time>2019-11-30T15:33:36Z</time>
      </trkpt>
      <trkpt lat="15.107989" lon="-92.087176">
        <ele>2491.5698140168715</ele>
        <time>2019-11-30T15:33:41Z</time>
      </trkpt>
      <trkpt lat="15.107996" lon="-92.087199">
        <ele>2491.2584661427945</ele>
        <time>2019-11-30T15:33:45Z</time>
      </trkpt>
      <trkpt lat="15.108012" lon="-92.087241">
        <ele>2492.6398759068034</ele>
        <time>2019-11-30T15:33:49Z</time>
      </trkpt>
      <trkpt lat="15.108021" lon="-92.087259">
        <ele>2493.1570812390432</ele>
        <time>2019-11-30T15:33:53Z</time>
      </trkpt>
      <trkpt lat="15.108028" lon="-92.087270">
        <ele>2494.296305997957</ele>
        <time>2019-11-30T15:33:58Z</time>
      </trkpt>
      <trkpt lat="15.108036" lon="-92.087269">
        <ele>2495.7027297620925</ele>
        <time>2019-11-30T15:34:04Z</time>
      </trkpt>
      <trkpt lat="15.108043" lon="-92.087251">
        <ele>2495.015743742743</ele>
        <time>2019-11-30T15:34:09Z</time>
      </trkpt>
      <trkpt lat="15.108054" lon="-92.087228">
        <ele>2494.6504513304244</ele>
        <time>2019-11-30T15:34:13Z</time>
      </trkpt>
      <trkpt lat="15.108063" lon="-92.087209">
        <ele>2494.24689199925</ele>
        <time>2019-11-30T15:34:18Z</time>
      </trkpt>
      <trkpt lat="15.108081" lon="-92.087184">
        <ele>2494.4618594790268</ele>
        <time>2019-11-30T15:34:22Z</time>
      </trkpt>
      <trkpt lat="15.108109" lon="-92.087169">
        <ele>2494.289169224932</ele>
        <time>2019-11-30T15:34:27Z</time>
      </trkpt>
      <trkpt lat="15.108118" lon="-92.087168">
        <ele>2494.167030453127</ele>
        <time>2019-11-30T15:34:32Z</time>
      </trkpt>
      <trkpt lat="15.108128" lon="-92.087170">
        <ele>2494.021476279993</ele>
        <time>2019-11-30T15:34:36Z</time>
      </trkpt>
      <trkpt lat="15.108136" lon="-92.087172">
        <ele>2494.0214373994054</ele>
        <time>2019-11-30T15:34:43Z</time>
      </trkpt>
      <trkpt lat="15.108142" lon="-92.087173">
        <ele>2494.049247547462</ele>
        <time>2019-11-30T15:34:54Z</time>
      </trkpt>
      <trkpt lat="15.108157" lon="-92.087180">
        <ele>2493.7940814581166</ele>
        <time>2019-11-30T15:34:58Z</time>
      </trkpt>
      <trkpt lat="15.108165" lon="-92.087183">
        <ele>2493.794058508643</ele>
        <time>2019-11-30T15:35:02Z</time>
      </trkpt>
      <trkpt lat="15.108170" lon="-92.087185">
        <ele>2493.7940484431915</ele>
        <time>2019-11-30T15:35:07Z</time>
      </trkpt>
      <trkpt lat="15.108196" lon="-92.087204">
        <ele>2495.0670089364753</ele>
        <time>2019-11-30T15:35:11Z</time>
      </trkpt>
      <trkpt lat="15.108227" lon="-92.087225">
        <ele>2495.9276042609904</ele>
        <time>2019-11-30T15:35:15Z</time>
      </trkpt>
      <trkpt lat="15.108244" lon="-92.087237">
        <ele>2495.927607119977</ele>
        <time>2019-11-30T15:35:19Z</time>
      </trkpt>
      <trkpt lat="15.108255" lon="-92.087244">
        <ele>2495.927610382457</ele>
        <time>2019-11-30T15:35:23Z</time>
      </trkpt>
      <trkpt lat="15.108262" lon="-92.087250">
        <ele>2495.9276143985303</ele>
        <time>2019-11-30T15:35:28Z</time>
      </trkpt>
      <trkpt lat="15.108270" lon="-92.087252">
        <ele>2496.586283675919</ele>
        <time>2019-11-30T15:35:33Z</time>
      </trkpt>
      <trkpt lat="15.108300" lon="-92.087257">
        <ele>2497.1876851399848</ele>
        <time>2019-11-30T15:35:38Z</time>
      </trkpt>
      <trkpt lat="15.108323" lon="-92.087262">
        <ele>2497.1875857781024</ele>
        <time>2019-11-30T15:35:42Z</time>
      </trkpt>
      <trkpt lat="15.108342" lon="-92.087269">
        <ele>2497.3552491486435</ele>
        <time>2019-11-30T15:35:46Z</time>
      </trkpt>
      <trkpt lat="15.108380" lon="-92.087288">
        <ele>2499.53096879792</ele>
        <time>2019-11-30T15:35:50Z</time>
      </trkpt>
      <trkpt lat="15.108423" lon="-92.087308">
        <ele>2500.7540254523046</ele>
        <time>2019-11-30T15:35:55Z</time>
      </trkpt>
      <trkpt lat="15.108474" lon="-92.087327">
        <ele>2502.3058707376267</ele>
        <time>2019-11-30T15:36:00Z</time>
      </trkpt>
      <trkpt lat="15.108555" lon="-92.087356">
        <ele>2502.9984988986644</ele>
        <time>2019-11-30T15:36:05Z</time>
      </trkpt>
      <trkpt lat="15.108591" lon="-92.087370">
        <ele>2503.318705952033</ele>
        <time>2019-11-30T15:36:09Z</time>
      </trkpt>
      <trkpt lat="15.108636" lon="-92.087383">
        <ele>2503.4940696033004</ele>
        <time>2019-11-30T15:36:14Z</time>
      </trkpt>
      <trkpt lat="15.108684" lon="-92.087381">
        <ele>2503.481773016125</ele>
        <time>2019-11-30T15:36:19Z</time>
      </trkpt>
      <trkpt lat="15.108718" lon="-92.087369">
        <ele>2503.8498349589136</ele>
        <time>2019-11-30T15:36:23Z</time>
      </trkpt>
      <trkpt lat="15.108760" lon="-92.087356">
        <ele>2505.4668670721217</ele>
        <time>2019-11-30T15:36:28Z</time>
      </trkpt>
      <trkpt lat="15.108794" lon="-92.087353">
        <ele>2507.1382401887454</ele>
        <time>2019-11-30T15:36:32Z</time>
      </trkpt>
      <trkpt lat="15.108823" lon="-92.087349">
        <ele>2508.8767807730464</ele>
        <time>2019-11-30T15:36:36Z</time>
      </trkpt>
      <trkpt lat="15.108842" lon="-92.087343">
        <ele>2510.4105316688724</ele>
        <time>2019-11-30T15:36:40Z</time>
      </trkpt>
      <trkpt lat="15.108867" lon="-92.087338">
        <ele>2510.918133960991</ele>
        <time>2019-11-30T15:36:45Z</time>
      </trkpt>
      <trkpt lat="15.108890" lon="-92.087337">
        <ele>2510.8391142270616</ele>
        <time>2019-11-30T15:36:49Z</time>
      </trkpt>
      <trkpt lat="15.108899" lon="-92.087337">
        <ele>2510.839053005004</ele>
        <time>2019-11-30T15:37:25Z</time>
      </trkpt>
      <trkpt lat="15.108928" lon="-92.087337">
        <ele>2510.8388588994458</ele>
        <time>2019-11-30T15:37:30Z</time>
      </trkpt>
      <trkpt lat="15.108934" lon="-92.087337">
        <ele>2510.4792071142883</ele>
        <time>2019-11-30T15:38:00Z</time>
      </trkpt>
      <trkpt lat="15.108976" lon="-92.087341">
        <ele>2510.578571577624</ele>
        <time>2019-11-30T15:38:05Z</time>
      </trkpt>
      <trkpt lat="15.109007" lon="-92.087342">
        <ele>2510.9755944182693</ele>
        <time>2019-11-30T15:38:09Z</time>
      </trkpt>
      <trkpt lat="15.109040" lon="-92.087334">
        <ele>2512.704067054941</ele>
        <time>2019-11-30T15:38:14Z</time>
      </trkpt>
      <trkpt lat="15.109072" lon="-92.087330">
        <ele>2513.9506395207814</ele>
        <time>2019-11-30T15:38:18Z</time>
      </trkpt>
      <trkpt lat="15.109098" lon="-92.087328">
        <ele>2513.9504440499795</ele>
        <time>2019-11-30T15:38:22Z</time>
      </trkpt>
      <trkpt lat="15.109116" lon="-92.087327">
        <ele>2514.185423571705</ele>
        <time>2019-11-30T15:38:27Z</time>
      </trkpt>
      <trkpt lat="15.109136" lon="-92.087327">
        <ele>2514.2336369266473</ele>
        <time>2019-11-30T15:38:31Z</time>
      </trkpt>
      <trkpt lat="15.109149" lon="-92.087327">
        <ele>2514.2335456227192</ele>
        <time>2019-11-30T15:38:35Z</time>
      </trkpt>
      <trkpt lat="15.109181" lon="-92.087334">
        <ele>2514.195802236643</ele>
        <time>2019-11-30T15:38:40Z</time>
      </trkpt>
      <trkpt lat="15.109195" lon="-92.087335">
        <ele>2514.127605842659</ele>
        <time>2019-11-30T15:38:44Z</time>
      </trkpt>
      <trkpt lat="15.109203" lon="-92.087338">
        <ele>2513.7039994590486</ele>
        <time>2019-11-30T15:38:48Z</time>
      </trkpt>
      <trkpt lat="15.109200" lon="-92.087333">
        <ele>2512.953723787215</ele>
        <time>2019-11-30T15:38:52Z</time>
      </trkpt>
      <trkpt lat="15.109195" lon="-92.087312">
        <ele>2513.480649352596</ele>
        <time>2019-11-30T15:38:56Z</time>
      </trkpt>
      <trkpt lat="15.109185" lon="-92.087268">
        <ele>2513.1839066690204</ele>
        <time>2019-11-30T15:39:01Z</time>
      </trkpt>
      <trkpt lat="15.109164" lon="-92.087245">
        <ele>2513.807846389522</ele>
        <time>2019-11-30T15:39:05Z</time>
      </trkpt>
      <trkpt lat="15.109131" lon="-92.087234">
        <ele>2514.325778094107</ele>
        <time>2019-11-30T15:39:09Z</time>
      </trkpt>
      <trkpt lat="15.109106" lon="-92.087220">
        <ele>2513.7630594515704</ele>
        <time>2019-11-30T15:39:13Z</time>
      </trkpt>
      <trkpt lat="15.109080" lon="-92.087194">
        <ele>2513.8642905006272</ele>
        <time>2019-11-30T15:39:17Z</time>
      </trkpt>
      <trkpt lat="15.109064" lon="-92.087169">
        <ele>2514.39735929748</ele>
        <time>2019-11-30T15:39:21Z</time>
      </trkpt>
      <trkpt lat="15.109044" lon="-92.087119">
        <ele>2516.1897318070723</ele>
        <time>2019-11-30T15:39:26Z</time>
      </trkpt>
      <trkpt lat="15.109024" lon="-92.087068">
        <ele>2517.8893232891605</ele>
        <time>2019-11-30T15:39:30Z</time>
      </trkpt>
      <trkpt lat="15.109012" lon="-92.087029">
        <ele>2519.218367211735</ele>
        <time>2019-11-30T15:39:35Z</time>
      </trkpt>
      <trkpt lat="15.109004" lon="-92.087002">
        <ele>2519.581679567692</ele>
        <time>2019-11-30T15:39:39Z</time>
      </trkpt>
      <trkpt lat="15.109001" lon="-92.086988">
        <ele>2519.581560622553</ele>
        <time>2019-11-30T15:39:43Z</time>
      </trkpt>
      <trkpt lat="15.108998" lon="-92.086979">
        <ele>2519.89057720657</ele>
        <time>2019-11-30T15:39:48Z</time>
      </trkpt>
      <trkpt lat="15.108998" lon="-92.086970">
        <ele>2518.6260832835183</ele>
        <time>2019-11-30T15:39:54Z</time>
      </trkpt>
      <trkpt lat="15.109012" lon="-92.086964">
        <ele>2518.198930341966</ele>
        <time>2019-11-30T15:39:58Z</time>
      </trkpt>
      <trkpt lat="15.109058" lon="-92.086953">
        <ele>2518.022252451501</ele>
        <time>2019-11-30T15:40:02Z</time>
      </trkpt>
      <trkpt lat="15.109090" lon="-92.086949">
        <ele>2518.537379341533</ele>
        <time>2019-11-30T15:40:07Z</time>
      </trkpt>
      <trkpt lat="15.109120" lon="-92.086957">
        <ele>2519.073876744251</ele>
        <time>2019-11-30T15:40:11Z</time>
      </trkpt>
      <trkpt lat="15.109158" lon="-92.086970">
        <ele>2519.6684857911305</ele>
        <time>2019-11-30T15:40:16Z</time>
      </trkpt>
      <trkpt lat="15.109187" lon="-92.086988">
        <ele>2521.619642636268</ele>
        <time>2019-11-30T15:40:21Z</time>
      </trkpt>
      <trkpt lat="15.109215" lon="-92.086990">
        <ele>2523.1878313483508</ele>
        <time>2019-11-30T15:40:25Z</time>
      </trkpt>
      <trkpt lat="15.109210" lon="-92.086978">
        <ele>2524.426027501803</ele>
        <time>2019-11-30T15:40:29Z</time>
      </trkpt>
      <trkpt lat="15.109176" lon="-92.086956">
        <ele>2525.0136883664554</ele>
        <time>2019-11-30T15:40:33Z</time>
      </trkpt>
      <trkpt lat="15.109153" lon="-92.086940">
        <ele>2524.917245401161</ele>
        <time>2019-11-30T15:40:37Z</time>
      </trkpt>
      <trkpt lat="15.109140" lon="-92.086924">
        <ele>2524.808539140068</ele>
        <time>2019-11-30T15:40:41Z</time>
      </trkpt>
      <trkpt lat="15.109130" lon="-92.086912">
        <ele>2525.466680063312</ele>
        <time>2019-11-30T15:40:45Z</time>
      </trkpt>
      <trkpt lat="15.109130" lon="-92.086898">
        <ele>2526.9257830792576</ele>
        <time>2019-11-30T15:40:49Z</time>
      </trkpt>
      <trkpt lat="15.109151" lon="-92.086884">
        <ele>2526.151582094875</ele>
        <time>2019-11-30T15:40:54Z</time>
      </trkpt>
      <trkpt lat="15.109177" lon="-92.086878">
        <ele>2526.3039346894134</ele>
        <time>2019-11-30T15:40:58Z</time>
      </trkpt>
      <trkpt lat="15.109200" lon="-92.086881">
        <ele>2526.876078269611</ele>
        <time>2019-11-30T15:41:03Z</time>
      </trkpt>
      <trkpt lat="15.109211" lon="-92.086887">
        <ele>2527.259856109695</ele>
        <time>2019-11-30T15:41:07Z</time>
      </trkpt>
      <trkpt lat="15.109231" lon="-92.086893">
        <ele>2527.8386419655694</ele>
        <time>2019-11-30T15:41:12Z</time>
      </trkpt>
      <trkpt lat="15.109254" lon="-92.086878">
        <ele>2527.425986647577</ele>
        <time>2019-11-30T15:41:17Z</time>
      </trkpt>
      <trkpt lat="15.109271" lon="-92.086873">
        <ele>2526.873820144373</ele>
        <time>2019-11-30T15:41:22Z</time>
      </trkpt>
      <trkpt lat="15.109277" lon="-92.086879">
        <ele>2526.6550932752557</ele>
        <time>2019-11-30T15:41:29Z</time>
      </trkpt>
      <trkpt lat="15.109281" lon="-92.086885">
        <ele>2526.953944755107</ele>
        <time>2019-11-30T15:41:33Z</time>
      </trkpt>
      <trkpt lat="15.109312" lon="-92.086912">
        <ele>2528.4830627734596</ele>
        <time>2019-11-30T15:41:38Z</time>
      </trkpt>
      <trkpt lat="15.109344" lon="-92.086948">
        <ele>2529.7214880145793</ele>
        <time>2019-11-30T15:41:42Z</time>
      </trkpt>
      <trkpt lat="15.109378" lon="-92.086980">
        <ele>2530.7108305432453</ele>
        <time>2019-11-30T15:41:46Z</time>
      </trkpt>
      <trkpt lat="15.109399" lon="-92.086996">
        <ele>2530.79117116778</ele>
        <time>2019-11-30T15:41:50Z</time>
      </trkpt>
      <trkpt lat="15.109413" lon="-92.087007">
        <ele>2531.45890381267</ele>
        <time>2019-11-30T15:41:55Z</time>
      </trkpt>
      <trkpt lat="15.109421" lon="-92.087007">
        <ele>2532.34972908312</ele>
        <time>2019-11-30T15:41:59Z</time>
      </trkpt>
      <trkpt lat="15.109428" lon="-92.087004">
        <ele>2534.4829445111227</ele>
        <time>2019-11-30T15:42:05Z</time>
      </trkpt>
      <trkpt lat="15.109439" lon="-92.086995">
        <ele>2535.293090154252</ele>
        <time>2019-11-30T15:42:10Z</time>
      </trkpt>
      <trkpt lat="15.109445" lon="-92.086988">
        <ele>2535.4497241505683</ele>
        <time>2019-11-30T15:42:20Z</time>
      </trkpt>
      <trkpt lat="15.109465" lon="-92.086979">
        <ele>2536.373330459615</ele>
        <time>2019-11-30T15:42:25Z</time>
      </trkpt>
      <trkpt lat="15.109485" lon="-92.086975">
        <ele>2537.3375140615794</ele>
        <time>2019-11-30T15:42:29Z</time>
      </trkpt>
      <trkpt lat="15.109514" lon="-92.086972">
        <ele>2537.4989148359045</ele>
        <time>2019-11-30T15:42:33Z</time>
      </trkpt>
      <trkpt lat="15.109560" lon="-92.086969">
        <ele>2537.446822309191</ele>
        <time>2019-11-30T15:42:38Z</time>
      </trkpt>
      <trkpt lat="15.109586" lon="-92.086969">
        <ele>2537.398798277254</ele>
        <time>2019-11-30T15:42:42Z</time>
      </trkpt>
      <trkpt lat="15.109617" lon="-92.086967">
        <ele>2537.5477385848844</ele>
        <time>2019-11-30T15:42:46Z</time>
      </trkpt>
      <trkpt lat="15.109634" lon="-92.086971">
        <ele>2538.683898276171</ele>
        <time>2019-11-30T15:42:51Z</time>
      </trkpt>
      <trkpt lat="15.109635" lon="-92.086979">
        <ele>2539.2171732584447</ele>
        <time>2019-11-30T15:42:55Z</time>
      </trkpt>
      <trkpt lat="15.109636" lon="-92.087006">
        <ele>2540.0477577527763</ele>
        <time>2019-11-30T15:42:59Z</time>
      </trkpt>
      <trkpt lat="15.109638" lon="-92.087031">
        <ele>2540.0479859779325</ele>
        <time>2019-11-30T15:43:03Z</time>
      </trkpt>
      <trkpt lat="15.109644" lon="-92.087041">
        <ele>2541.6242130954024</ele>
        <time>2019-11-30T15:43:07Z</time>
      </trkpt>
      <trkpt lat="15.109654" lon="-92.087043">
        <ele>2542.131008613904</ele>
        <time>2019-11-30T15:43:11Z</time>
      </trkpt>
      <trkpt lat="15.109663" lon="-92.087046">
        <ele>2543.7340038092966</ele>
        <time>2019-11-30T15:43:15Z</time>
      </trkpt>
      <trkpt lat="15.109674" lon="-92.087054">
        <ele>2545.7274116858084</ele>
        <time>2019-11-30T15:43:19Z</time>
      </trkpt>
      <trkpt lat="15.109698" lon="-92.087065">
        <ele>2547.5762406895483</ele>
        <time>2019-11-30T15:43:23Z</time>
      </trkpt>
      <trkpt lat="15.109707" lon="-92.087067">
        <ele>2547.576196746785</ele>
        <time>2019-11-30T15:43:28Z</time>
      </trkpt>
      <trkpt lat="15.109715" lon="-92.087068">
        <ele>2547.5761586905755</ele>
        <time>2019-11-30T15:43:55Z</time>
      </trkpt>
      <trkpt lat="15.109747" lon="-92.087083">
        <ele>2547.4310803711887</ele>
        <time>2019-11-30T15:43:59Z</time>
      </trkpt>
      <trkpt lat="15.109805" lon="-92.087110">
        <ele>2548.703418742654</ele>
        <time>2019-11-30T15:44:04Z</time>
      </trkpt>
      <trkpt lat="15.109841" lon="-92.087116">
        <ele>2549.98497812531</ele>
        <time>2019-11-30T15:44:08Z</time>
      </trkpt>
      <trkpt lat="15.109863" lon="-92.087120">
        <ele>2549.9848657455177</ele>
        <time>2019-11-30T15:44:13Z</time>
      </trkpt>
      <trkpt lat="15.109873" lon="-92.087122">
        <ele>2550.7340931568547</ele>
        <time>2019-11-30T15:44:18Z</time>
      </trkpt>
      <trkpt lat="15.109894" lon="-92.087137">
        <ele>2552.521942347775</ele>
        <time>2019-11-30T15:44:22Z</time>
      </trkpt>
      <trkpt lat="15.109937" lon="-92.087167">
        <ele>2554.823951956971</ele>
        <time>2019-11-30T15:44:27Z</time>
      </trkpt>
      <trkpt lat="15.109955" lon="-92.087178">
        <ele>2556.868613063943</ele>
        <time>2019-11-30T15:44:32Z</time>
      </trkpt>
      <trkpt lat="15.110002" lon="-92.087188">
        <ele>2557.932361999469</ele>
        <time>2019-11-30T15:44:37Z</time>
      </trkpt>
      <trkpt lat="15.110029" lon="-92.087187">
        <ele>2558.6116204825494</ele>
        <time>2019-11-30T15:44:41Z</time>
      </trkpt>
      <trkpt lat="15.110048" lon="-92.087185">
        <ele>2558.4320413114137</ele>
        <time>2019-11-30T15:44:46Z</time>
      </trkpt>
      <trkpt lat="15.110069" lon="-92.087188">
        <ele>2556.906284820542</ele>
        <time>2019-11-30T15:44:51Z</time>
      </trkpt>
      <trkpt lat="15.110089" lon="-92.087197">
        <ele>2557.963620049872</ele>
        <time>2019-11-30T15:44:55Z</time>
      </trkpt>
      <trkpt lat="15.110101" lon="-92.087212">
        <ele>2558.6070012711766</ele>
        <time>2019-11-30T15:45:00Z</time>
      </trkpt>
      <trkpt lat="15.110106" lon="-92.087219">
        <ele>2558.607034926102</ele>
        <time>2019-11-30T15:45:06Z</time>
      </trkpt>
      <trkpt lat="15.110111" lon="-92.087227">
        <ele>2558.6070721416695</ele>
        <time>2019-11-30T15:45:26Z</time>
      </trkpt>
      <trkpt lat="15.110118" lon="-92.087234">
        <ele>2559.1803385189646</ele>
        <time>2019-11-30T15:45:31Z</time>
      </trkpt>
      <trkpt lat="15.110126" lon="-92.087239">
        <ele>2559.1803395534544</ele>
        <time>2019-11-30T15:45:36Z</time>
      </trkpt>
      <trkpt lat="15.110132" lon="-92.087243">
        <ele>2559.3334162343285</ele>
        <time>2019-11-30T15:45:43Z</time>
      </trkpt>
      <trkpt lat="15.110142" lon="-92.087254">
        <ele>2560.248250842473</ele>
        <time>2019-11-30T15:45:47Z</time>
      </trkpt>
      <trkpt lat="15.110157" lon="-92.087274">
        <ele>2561.295465593956</ele>
        <time>2019-11-30T15:45:51Z</time>
      </trkpt>
      <trkpt lat="15.110171" lon="-92.087290">
        <ele>2561.5892269886153</ele>
        <time>2019-11-30T15:45:55Z</time>
      </trkpt>
      <trkpt lat="15.110180" lon="-92.087301">
        <ele>2562.9559777199347</ele>
        <time>2019-11-30T15:45:59Z</time>
      </trkpt>
      <trkpt lat="15.110207" lon="-92.087295">
        <ele>2564.2150219215036</ele>
        <time>2019-11-30T15:46:03Z</time>
      </trkpt>
      <trkpt lat="15.110254" lon="-92.087273">
        <ele>2565.8514589557035</ele>
        <time>2019-11-30T15:46:08Z</time>
      </trkpt>
      <trkpt lat="15.110270" lon="-92.087253">
        <ele>2567.408774185751</ele>
        <time>2019-11-30T15:46:12Z</time>
      </trkpt>
      <trkpt lat="15.110296" lon="-92.087223">
        <ele>2569.088000331227</ele>
        <time>2019-11-30T15:46:17Z</time>
      </trkpt>
      <trkpt lat="15.110323" lon="-92.087202">
        <ele>2570.1994314925746</ele>
        <time>2019-11-30T15:46:21Z</time>
      </trkpt>
      <trkpt lat="15.110344" lon="-92.087179">
        <ele>2570.6722118855673</ele>
        <time>2019-11-30T15:46:25Z</time>
      </trkpt>
      <trkpt lat="15.110372" lon="-92.087146">
        <ele>2571.8860627740755</ele>
        <time>2019-11-30T15:46:30Z</time>
      </trkpt>
      <trkpt lat="15.110404" lon="-92.087116">
        <ele>2573.066948865848</ele>
        <time>2019-11-30T15:46:34Z</time>
      </trkpt>
      <trkpt lat="15.110437" lon="-92.087085">
        <ele>2573.669942810425</ele>
        <time>2019-11-30T15:46:38Z</time>
      </trkpt>
      <trkpt lat="15.110474" lon="-92.087060">
        <ele>2573.7702801786454</ele>
        <time>2019-11-30T15:46:43Z</time>
      </trkpt>
      <trkpt lat="15.110493" lon="-92.087054">
        <ele>2572.5266965117335</ele>
        <time>2019-11-30T15:46:47Z</time>
      </trkpt>
      <trkpt lat="15.110542" lon="-92.087053">
        <ele>2571.6943297742027</ele>
        <time>2019-11-30T15:46:51Z</time>
      </trkpt>
      <trkpt lat="15.110574" lon="-92.087056">
        <ele>2571.5745211943777</ele>
        <time>2019-11-30T15:46:56Z</time>
      </trkpt>
      <trkpt lat="15.110618" lon="-92.087061">
        <ele>2571.7522547420667</ele>
        <time>2019-11-30T15:47:01Z</time>
      </trkpt>
      <trkpt lat="15.110651" lon="-92.087069">
        <ele>2571.8844348169023</ele>
        <time>2019-11-30T15:47:05Z</time>
      </trkpt>
      <trkpt lat="15.110689" lon="-92.087082">
        <ele>2571.38993179518</ele>
        <time>2019-11-30T15:47:09Z</time>
      </trkpt>
      <trkpt lat="15.110735" lon="-92.087096">
        <ele>2570.0464958608686</ele>
        <time>2019-11-30T15:47:14Z</time>
      </trkpt>
      <trkpt lat="15.110762" lon="-92.087102">
        <ele>2569.444086690297</ele>
        <time>2019-11-30T15:47:18Z</time>
      </trkpt>
      <trkpt lat="15.110787" lon="-92.087108">
        <ele>2569.4893827392166</ele>
        <time>2019-11-30T15:47:23Z</time>
      </trkpt>
      <trkpt lat="15.110799" lon="-92.087112">
        <ele>2570.1829506983086</ele>
        <time>2019-11-30T15:47:27Z</time>
      </trkpt>
      <trkpt lat="15.110774" lon="-92.087106">
        <ele>2570.5590366019214</ele>
        <time>2019-11-30T15:47:32Z</time>
      </trkpt>
      <trkpt lat="15.110765" lon="-92.087105">
        <ele>2570.559090632513</ele>
        <time>2019-11-30T15:47:37Z</time>
      </trkpt>
      <trkpt lat="15.110758" lon="-92.087105">
        <ele>2570.628710241338</ele>
        <time>2019-11-30T15:47:52Z</time>
      </trkpt>
      <trkpt lat="15.110759" lon="-92.087112">
        <ele>2570.9434732642285</ele>
        <time>2019-11-30T15:48:03Z</time>
      </trkpt>
      <trkpt lat="15.110782" lon="-92.087140">
        <ele>2571.81687906065</ele>
        <time>2019-11-30T15:48:07Z</time>
      </trkpt>
      <trkpt lat="15.110815" lon="-92.087167">
        <ele>2573.2834793092907</ele>
        <time>2019-11-30T15:48:12Z</time>
      </trkpt>
      <trkpt lat="15.110843" lon="-92.087180">
        <ele>2575.027558838797</ele>
        <time>2019-11-30T15:48:17Z</time>
      </trkpt>
      <trkpt lat="15.110871" lon="-92.087198">
        <ele>2575.6894195763207</ele>
        <time>2019-11-30T15:48:21Z</time>
      </trkpt>
      <trkpt lat="15.110878" lon="-92.087211">
        <ele>2575.9956529104466</ele>
        <time>2019-11-30T15:48:25Z</time>
      </trkpt>
      <trkpt lat="15.110872" lon="-92.087227">
        <ele>2575.463865812422</ele>
        <time>2019-11-30T15:48:29Z</time>
      </trkpt>
      <trkpt lat="15.110860" lon="-92.087248">
        <ele>2574.98392614036</ele>
        <time>2019-11-30T15:48:33Z</time>
      </trkpt>
      <trkpt lat="15.110843" lon="-92.087278">
        <ele>2575.0356081512246</ele>
        <time>2019-11-30T15:48:38Z</time>
      </trkpt>
      <trkpt lat="15.110833" lon="-92.087302">
        <ele>2575.3486525014428</ele>
        <time>2019-11-30T15:48:43Z</time>
      </trkpt>
      <trkpt lat="15.110817" lon="-92.087334">
        <ele>2574.6972175424803</ele>
        <time>2019-11-30T15:48:48Z</time>
      </trkpt>
      <trkpt lat="15.110806" lon="-92.087370">
        <ele>2574.755741039518</ele>
        <time>2019-11-30T15:48:52Z</time>
      </trkpt>
      <trkpt lat="15.110802" lon="-92.087397">
        <ele>2575.330006544825</ele>
        <time>2019-11-30T15:48:56Z</time>
      </trkpt>
      <trkpt lat="15.110801" lon="-92.087423">
        <ele>2576.2653225366175</ele>
        <time>2019-11-30T15:49:01Z</time>
      </trkpt>
      <trkpt lat="15.110801" lon="-92.087450">
        <ele>2576.9960571151105</ele>
        <time>2019-11-30T15:49:05Z</time>
      </trkpt>
      <trkpt lat="15.110803" lon="-92.087478">
        <ele>2577.855932976646</ele>
        <time>2019-11-30T15:49:10Z</time>
      </trkpt>
      <trkpt lat="15.110804" lon="-92.087520">
        <ele>2578.7806520498157</ele>
        <time>2019-11-30T15:49:15Z</time>
      </trkpt>
      <trkpt lat="15.110804" lon="-92.087534">
        <ele>2579.0183376440295</ele>
        <time>2019-11-30T15:49:20Z</time>
      </trkpt>
      <trkpt lat="15.110804" lon="-92.087534">
        <ele>2580.3452419409045</ele>
        <time>2019-11-30T15:49:25Z</time>
      </trkpt>
      <trkpt lat="15.110801" lon="-92.087589">
        <ele>2581.626318110909</ele>
        <time>2019-11-30T15:49:29Z</time>
      </trkpt>
      <trkpt lat="15.110796" lon="-92.087619">
        <ele>2582.645688835104</ele>
        <time>2019-11-30T15:49:33Z</time>
      </trkpt>
      <trkpt lat="15.110801" lon="-92.087641">
        <ele>2583.154175307623</ele>
        <time>2019-11-30T15:49:37Z</time>
      </trkpt>
      <trkpt lat="15.110805" lon="-92.087687">
        <ele>2583.710502184159</ele>
        <time>2019-11-30T15:49:41Z</time>
      </trkpt>
      <trkpt lat="15.110803" lon="-92.087714">
        <ele>2584.5967705906573</ele>
        <time>2019-11-30T15:49:45Z</time>
      </trkpt>
      <trkpt lat="15.110791" lon="-92.087751">
        <ele>2585.3713822436407</ele>
        <time>2019-11-30T15:49:49Z</time>
      </trkpt>
      <trkpt lat="15.110776" lon="-92.087786">
        <ele>2585.913318226565</ele>
        <time>2019-11-30T15:49:53Z</time>
      </trkpt>
      <trkpt lat="15.110765" lon="-92.087809">
        <ele>2586.441206632826</ele>
        <time>2019-11-30T15:49:57Z</time>
      </trkpt>
      <trkpt lat="15.110755" lon="-92.087828">
        <ele>2586.902891010852</ele>
        <time>2019-11-30T15:50:02Z</time>
      </trkpt>
      <trkpt lat="15.110749" lon="-92.087841">
        <ele>2587.1254668415218</ele>
        <time>2019-11-30T15:50:06Z</time>
      </trkpt>
      <trkpt lat="15.110743" lon="-92.087863">
        <ele>2587.4592160478146</ele>
        <time>2019-11-30T15:50:10Z</time>
      </trkpt>
      <trkpt lat="15.110742" lon="-92.087888">
        <ele>2588.492433119184</ele>
        <time>2019-11-30T15:50:15Z</time>
      </trkpt>
      <trkpt lat="15.110739" lon="-92.087915">
        <ele>2588.791053959296</ele>
        <time>2019-11-30T15:50:20Z</time>
      </trkpt>
      <trkpt lat="15.110735" lon="-92.087946">
        <ele>2589.88170645856</ele>
        <time>2019-11-30T15:50:25Z</time>
      </trkpt>
      <trkpt lat="15.110734" lon="-92.087965">
        <ele>2591.318422011</ele>
        <time>2019-11-30T15:50:29Z</time>
      </trkpt>
      <trkpt lat="15.110735" lon="-92.087984">
        <ele>2591.523687257848</ele>
        <time>2019-11-30T15:50:33Z</time>
      </trkpt>
      <trkpt lat="15.110739" lon="-92.088007">
        <ele>2592.3046409004237</ele>
        <time>2019-11-30T15:50:37Z</time>
      </trkpt>
      <trkpt lat="15.110750" lon="-92.088030">
        <ele>2592.724470748301</ele>
        <time>2019-11-30T15:50:42Z</time>
      </trkpt>
      <trkpt lat="15.110759" lon="-92.088035">
        <ele>2592.299904728688</ele>
        <time>2019-11-30T15:50:46Z</time>
      </trkpt>
      <trkpt lat="15.110775" lon="-92.088034">
        <ele>2593.4448047729575</ele>
        <time>2019-11-30T15:50:51Z</time>
      </trkpt>
      <trkpt lat="15.110807" lon="-92.088023">
        <ele>2593.5343257100562</ele>
        <time>2019-11-30T15:50:56Z</time>
      </trkpt>
      <trkpt lat="15.110819" lon="-92.088015">
        <ele>2593.2670859128557</ele>
        <time>2019-11-30T15:51:00Z</time>
      </trkpt>
      <trkpt lat="15.110838" lon="-92.088008">
        <ele>2592.627240755522</ele>
        <time>2019-11-30T15:51:05Z</time>
      </trkpt>
      <trkpt lat="15.110880" lon="-92.088004">
        <ele>2593.795143858554</ele>
        <time>2019-11-30T15:51:09Z</time>
      </trkpt>
      <trkpt lat="15.110907" lon="-92.088013">
        <ele>2593.9971933954007</ele>
        <time>2019-11-30T15:51:13Z</time>
      </trkpt>
      <trkpt lat="15.110918" lon="-92.088016">
        <ele>2594.1592659247685</ele>
        <time>2019-11-30T15:51:18Z</time>
      </trkpt>
      <trkpt lat="15.110924" lon="-92.088021">
        <ele>2594.3040455736686</ele>
        <time>2019-11-30T15:51:23Z</time>
      </trkpt>
      <trkpt lat="15.110930" lon="-92.088026">
        <ele>2594.3040511809404</ele>
        <time>2019-11-30T15:51:27Z</time>
      </trkpt>
      <trkpt lat="15.110938" lon="-92.088031">
        <ele>2594.785746732285</ele>
        <time>2019-11-30T15:51:35Z</time>
      </trkpt>
      <trkpt lat="15.110947" lon="-92.088035">
        <ele>2595.6526706233</ele>
        <time>2019-11-30T15:51:39Z</time>
      </trkpt>
      <trkpt lat="15.110963" lon="-92.088043">
        <ele>2597.4590386133773</ele>
        <time>2019-11-30T15:51:44Z</time>
      </trkpt>
      <trkpt lat="15.110984" lon="-92.088050">
        <ele>2599.022443248653</ele>
        <time>2019-11-30T15:51:48Z</time>
      </trkpt>
      <trkpt lat="15.111003" lon="-92.088052">
        <ele>2600.1793269983764</ele>
        <time>2019-11-30T15:51:52Z</time>
      </trkpt>
      <trkpt lat="15.111010" lon="-92.088054">
        <ele>2600.179297974934</ele>
        <time>2019-11-30T15:51:56Z</time>
      </trkpt>
      <trkpt lat="15.111024" lon="-92.088062">
        <ele>2599.940997762081</ele>
        <time>2019-11-30T15:52:00Z</time>
      </trkpt>
      <trkpt lat="15.111051" lon="-92.088077">
        <ele>2600.233447432122</ele>
        <time>2019-11-30T15:52:05Z</time>
      </trkpt>
      <trkpt lat="15.111064" lon="-92.088088">
        <ele>2600.4973900524956</ele>
        <time>2019-11-30T15:52:10Z</time>
      </trkpt>
      <trkpt lat="15.111064" lon="-92.088088">
        <ele>2600.6787865368706</ele>
        <time>2019-11-30T15:52:20Z</time>
      </trkpt>
      <trkpt lat="15.111086" lon="-92.088109">
        <ele>2600.948374655563</ele>
        <time>2019-11-30T15:52:25Z</time>
      </trkpt>
      <trkpt lat="15.111092" lon="-92.088118">
        <ele>2602.099298422685</ele>
        <time>2019-11-30T15:52:29Z</time>
      </trkpt>
      <trkpt lat="15.111103" lon="-92.088131">
        <ele>2603.5143883110104</ele>
        <time>2019-11-30T15:52:33Z</time>
      </trkpt>
      <trkpt lat="15.111142" lon="-92.088152">
        <ele>2602.901552307932</ele>
        <time>2019-11-30T15:52:38Z</time>
      </trkpt>
      <trkpt lat="15.111151" lon="-92.088155">
        <ele>2602.8836951144167</ele>
        <time>2019-11-30T15:52:42Z</time>
      </trkpt>
      <trkpt lat="15.111161" lon="-92.088154">
        <ele>2603.6485178737776</ele>
        <time>2019-11-30T15:52:46Z</time>
      </trkpt>
      <trkpt lat="15.111179" lon="-92.088154">
        <ele>2604.449911754923</ele>
        <time>2019-11-30T15:52:51Z</time>
      </trkpt>
      <trkpt lat="15.111197" lon="-92.088165">
        <ele>2605.0656232001347</ele>
        <time>2019-11-30T15:52:56Z</time>
      </trkpt>
      <trkpt lat="15.111209" lon="-92.088179">
        <ele>2604.902830380626</ele>
        <time>2019-11-30T15:53:00Z</time>
      </trkpt>
      <trkpt lat="15.111228" lon="-92.088201">
        <ele>2604.2703547935926</ele>
        <time>2019-11-30T15:53:05Z</time>
      </trkpt>
      <trkpt lat="15.111244" lon="-92.088220">
        <ele>2604.270436198562</ele>
        <time>2019-11-30T15:53:09Z</time>
      </trkpt>
      <trkpt lat="15.111257" lon="-92.088232">
        <ele>2605.0209616600378</ele>
        <time>2019-11-30T15:53:14Z</time>
      </trkpt>
      <trkpt lat="15.111266" lon="-92.088251">
        <ele>2606.8401756236944</ele>
        <time>2019-11-30T15:53:18Z</time>
      </trkpt>
      <trkpt lat="15.111272" lon="-92.088265">
        <ele>2608.8068310722188</ele>
        <time>2019-11-30T15:53:22Z</time>
      </trkpt>
      <trkpt lat="15.111282" lon="-92.088266">
        <ele>2609.1981281563585</ele>
        <time>2019-11-30T15:53:27Z</time>
      </trkpt>
      <trkpt lat="15.111291" lon="-92.088267">
        <ele>2609.523276523746</ele>
        <time>2019-11-30T15:53:31Z</time>
      </trkpt>
      <trkpt lat="15.111300" lon="-92.088268">
        <ele>2609.5232253026206</ele>
        <time>2019-11-30T15:53:39Z</time>
      </trkpt>
      <trkpt lat="15.111307" lon="-92.088265">
        <ele>2610.2868258615094</ele>
        <time>2019-11-30T15:53:44Z</time>
      </trkpt>
      <trkpt lat="15.111338" lon="-92.088263">
        <ele>2611.2089558326284</ele>
        <time>2019-11-30T15:53:49Z</time>
      </trkpt>
      <trkpt lat="15.111369" lon="-92.088265">
        <ele>2612.515410016918</ele>
        <time>2019-11-30T15:53:53Z</time>
      </trkpt>
      <trkpt lat="15.111409" lon="-92.088266">
        <ele>2612.262726061194</ele>
        <time>2019-11-30T15:53:57Z</time>
      </trkpt>
      <trkpt lat="15.111436" lon="-92.088274">
        <ele>2612.17766247334</ele>
        <time>2019-11-30T15:54:01Z</time>
      </trkpt>
      <trkpt lat="15.111452" lon="-92.088277">
        <ele>2612.1775840256296</ele>
        <time>2019-11-30T15:54:06Z</time>
      </trkpt>
      <trkpt lat="15.111466" lon="-92.088288">
        <ele>2613.025263199263</ele>
        <time>2019-11-30T15:54:11Z</time>
      </trkpt>
      <trkpt lat="15.111488" lon="-92.088322">
        <ele>2614.1838898072156</ele>
        <time>2019-11-30T15:54:15Z</time>
      </trkpt>
      <trkpt lat="15.111499" lon="-92.088336">
        <ele>2614.421989519063</ele>
        <time>2019-11-30T15:54:20Z</time>
      </trkpt>
      <trkpt lat="15.111511" lon="-92.088358">
        <ele>2615.8313115796336</ele>
        <time>2019-11-30T15:54:25Z</time>
      </trkpt>
      <trkpt lat="15.111526" lon="-92.088397">
        <ele>2616.271044480223</ele>
        <time>2019-11-30T15:54:29Z</time>
      </trkpt>
      <trkpt lat="15.111537" lon="-92.088425">
        <ele>2616.114997862149</ele>
        <time>2019-11-30T15:54:33Z</time>
      </trkpt>
      <trkpt lat="15.111543" lon="-92.088451">
        <ele>2616.6335182117923</ele>
        <time>2019-11-30T15:54:38Z</time>
      </trkpt>
      <trkpt lat="15.111556" lon="-92.088488">
        <ele>2617.450930833222</ele>
        <time>2019-11-30T15:54:42Z</time>
      </trkpt>
      <trkpt lat="15.111578" lon="-92.088518">
        <ele>2618.421055770429</ele>
        <time>2019-11-30T15:54:47Z</time>
      </trkpt>
      <trkpt lat="15.111600" lon="-92.088526">
        <ele>2619.1028733356593</ele>
        <time>2019-11-30T15:54:51Z</time>
      </trkpt>
      <trkpt lat="15.111611" lon="-92.088525">
        <ele>2619.144293206367</ele>
        <time>2019-11-30T15:54:55Z</time>
      </trkpt>
      <trkpt lat="15.111619" lon="-92.088523">
        <ele>2619.429381021919</ele>
        <time>2019-11-30T15:55:00Z</time>
      </trkpt>
      <trkpt lat="15.111636" lon="-92.088517">
        <ele>2619.60156694995</ele>
        <time>2019-11-30T15:55:05Z</time>
      </trkpt>
      <trkpt lat="15.111647" lon="-92.088512">
        <ele>2619.710823123886</ele>
        <time>2019-11-30T15:55:09Z</time>
      </trkpt>
      <trkpt lat="15.111659" lon="-92.088505">
        <ele>2620.1498899425696</ele>
        <time>2019-11-30T15:55:13Z</time>
      </trkpt>
      <trkpt lat="15.111677" lon="-92.088498">
        <ele>2620.9902778915425</ele>
        <time>2019-11-30T15:55:17Z</time>
      </trkpt>
      <trkpt lat="15.111694" lon="-92.088493">
        <ele>2621.7598942276263</ele>
        <time>2019-11-30T15:55:21Z</time>
      </trkpt>
      <trkpt lat="15.111721" lon="-92.088492">
        <ele>2622.3536978738944</ele>
        <time>2019-11-30T15:55:26Z</time>
      </trkpt>
      <trkpt lat="15.111762" lon="-92.088484">
        <ele>2623.525963049338</ele>
        <time>2019-11-30T15:55:31Z</time>
      </trkpt>
      <trkpt lat="15.111788" lon="-92.088474">
        <ele>2623.9412113493636</ele>
        <time>2019-11-30T15:55:35Z</time>
      </trkpt>
      <trkpt lat="15.111811" lon="-92.088462">
        <ele>2624.3105790848576</ele>
        <time>2019-11-30T15:55:39Z</time>
      </trkpt>
      <trkpt lat="15.111825" lon="-92.088453">
        <ele>2624.488617774577</ele>
        <time>2019-11-30T15:55:43Z</time>
      </trkpt>
      <trkpt lat="15.111848" lon="-92.088433">
        <ele>2623.737539750012</ele>
        <time>2019-11-30T15:55:48Z</time>
      </trkpt>
      <trkpt lat="15.111885" lon="-92.088385">
        <ele>2623.8945419725787</ele>
        <time>2019-11-30T15:55:53Z</time>
      </trkpt>
      <trkpt lat="15.111906" lon="-92.088356">
        <ele>2624.2041710183353</ele>
        <time>2019-11-30T15:55:57Z</time>
      </trkpt>
      <trkpt lat="15.111921" lon="-92.088334">
        <ele>2625.436776126925</ele>
        <time>2019-11-30T15:56:02Z</time>
      </trkpt>
      <trkpt lat="15.111934" lon="-92.088307">
        <ele>2626.5812014288344</ele>
        <time>2019-11-30T15:56:06Z</time>
      </trkpt>
      <trkpt lat="15.111968" lon="-92.088269">
        <ele>2627.390173872661</ele>
        <time>2019-11-30T15:56:11Z</time>
      </trkpt>
      <trkpt lat="15.111987" lon="-92.088269">
        <ele>2627.839509655977</ele>
        <time>2019-11-30T15:56:15Z</time>
      </trkpt>
      <trkpt lat="15.112019" lon="-92.088278">
        <ele>2628.5867054772048</ele>
        <time>2019-11-30T15:56:19Z</time>
      </trkpt>
      <trkpt lat="15.112043" lon="-92.088281">
        <ele>2629.3363331927685</ele>
        <time>2019-11-30T15:56:24Z</time>
      </trkpt>
      <trkpt lat="15.112056" lon="-92.088281">
        <ele>2629.2593451248995</ele>
        <time>2019-11-30T15:56:28Z</time>
      </trkpt>
      <trkpt lat="15.112070" lon="-92.088282">
        <ele>2629.7792733979013</ele>
        <time>2019-11-30T15:56:32Z</time>
      </trkpt>
      <trkpt lat="15.112087" lon="-92.088282">
        <ele>2629.779164861348</ele>
        <time>2019-11-30T15:56:36Z</time>
      </trkpt>
      <trkpt lat="15.112099" lon="-92.088281">
        <ele>2629.7529490423153</ele>
        <time>2019-11-30T15:56:41Z</time>
      </trkpt>
      <trkpt lat="15.112124" lon="-92.088295">
        <ele>2630.2600032674086</ele>
        <time>2019-11-30T15:56:46Z</time>
      </trkpt>
      <trkpt lat="15.112170" lon="-92.088304">
        <ele>2631.234155066294</ele>
        <time>2019-11-30T15:56:51Z</time>
      </trkpt>
      <trkpt lat="15.112222" lon="-92.088312">
        <ele>2632.485598744083</ele>
        <time>2019-11-30T15:56:55Z</time>
      </trkpt>
      <trkpt lat="15.112241" lon="-92.088317">
        <ele>2634.7779981751532</ele>
        <time>2019-11-30T15:56:59Z</time>
      </trkpt>
      <trkpt lat="15.112257" lon="-92.088320">
        <ele>2636.378511165766</ele>
        <time>2019-11-30T15:57:03Z</time>
      </trkpt>
      <trkpt lat="15.112283" lon="-92.088325">
        <ele>2637.3593419387157</ele>
        <time>2019-11-30T15:57:08Z</time>
      </trkpt>
      <trkpt lat="15.112308" lon="-92.088326">
        <ele>2637.1626603330787</ele>
        <time>2019-11-30T15:57:12Z</time>
      </trkpt>
      <trkpt lat="15.112350" lon="-92.088334">
        <ele>2636.5252551731483</ele>
        <time>2019-11-30T15:57:16Z</time>
      </trkpt>
      <trkpt lat="15.112380" lon="-92.088340">
        <ele>2636.5251163818307</ele>
        <time>2019-11-30T15:57:21Z</time>
      </trkpt>
      <trkpt lat="15.112389" lon="-92.088342">
        <ele>2636.525071506279</ele>
        <time>2019-11-30T15:57:25Z</time>
      </trkpt>
      <trkpt lat="15.112398" lon="-92.088346">
        <ele>2636.498443989128</ele>
        <time>2019-11-30T15:57:29Z</time>
      </trkpt>
      <trkpt lat="15.112412" lon="-92.088351">
        <ele>2636.5872735804132</ele>
        <time>2019-11-30T15:57:33Z</time>
      </trkpt>
      <trkpt lat="15.112419" lon="-92.088354">
        <ele>2636.587251768447</ele>
        <time>2019-11-30T15:57:37Z</time>
      </trkpt>
      <trkpt lat="15.112427" lon="-92.088358">
        <ele>2636.5872323425556</ele>
        <time>2019-11-30T15:57:52Z</time>
      </trkpt>
      <trkpt lat="15.112427" lon="-92.088365">
        <ele>2637.4984390415084</ele>
        <time>2019-11-30T15:58:01Z</time>
      </trkpt>
      <trkpt lat="15.112417" lon="-92.088386">
        <ele>2637.8278153211677</ele>
        <time>2019-11-30T15:58:06Z</time>
      </trkpt>
      <trkpt lat="15.112405" lon="-92.088408">
        <ele>2638.9648296018827</ele>
        <time>2019-11-30T15:58:10Z</time>
      </trkpt>
      <trkpt lat="15.112397" lon="-92.088423">
        <ele>2638.965029065981</ele>
        <time>2019-11-30T15:58:15Z</time>
      </trkpt>
      <trkpt lat="15.112396" lon="-92.088432">
        <ele>2640.249788097283</ele>
        <time>2019-11-30T15:58:20Z</time>
      </trkpt>
      <trkpt lat="15.112402" lon="-92.088447">
        <ele>2642.6961782105445</ele>
        <time>2019-11-30T15:58:25Z</time>
      </trkpt>
      <trkpt lat="15.112407" lon="-92.088454">
        <ele>2642.6962189407814</ele>
        <time>2019-11-30T15:58:30Z</time>
      </trkpt>
      <trkpt lat="15.112413" lon="-92.088461">
        <ele>2644.4455190409594</ele>
        <time>2019-11-30T15:58:38Z</time>
      </trkpt>
      <trkpt lat="15.112426" lon="-92.088470">
        <ele>2646.9091443467237</ele>
        <time>2019-11-30T15:58:42Z</time>
      </trkpt>
      <trkpt lat="15.112435" lon="-92.088477">
        <ele>2647.391084077081</ele>
        <time>2019-11-30T15:58:46Z</time>
      </trkpt>
      <trkpt lat="15.112442" lon="-92.088482">
        <ele>2647.391086289382</ele>
        <time>2019-11-30T15:58:52Z</time>
      </trkpt>
      <trkpt lat="15.112448" lon="-92.088485">
        <ele>2648.858363975519</ele>
        <time>2019-11-30T15:58:58Z</time>
      </trkpt>
      <trkpt lat="15.112479" lon="-92.088497">
        <ele>2649.9517872657993</ele>
        <time>2019-11-30T15:59:03Z</time>
      </trkpt>
      <trkpt lat="15.112497" lon="-92.088503">
        <ele>2649.951728790006</ele>
        <time>2019-11-30T15:59:07Z</time>
      </trkpt>
      <trkpt lat="15.112506" lon="-92.088506">
        <ele>2649.951700831668</ele>
        <time>2019-11-30T15:59:11Z</time>
      </trkpt>
      <trkpt lat="15.112522" lon="-92.088507">
        <ele>2650.6974470277505</ele>
        <time>2019-11-30T15:59:15Z</time>
      </trkpt>
      <trkpt lat="15.112560" lon="-92.088509">
        <ele>2650.7924313650396</ele>
        <time>2019-11-30T15:59:20Z</time>
      </trkpt>
      <trkpt lat="15.112606" lon="-92.088523">
        <ele>2650.496372391134</ele>
        <time>2019-11-30T15:59:25Z</time>
      </trkpt>
      <trkpt lat="15.112662" lon="-92.088540">
        <ele>2650.265703820361</ele>
        <time>2019-11-30T15:59:30Z</time>
      </trkpt>
      <trkpt lat="15.112711" lon="-92.088555">
        <ele>2650.2408659621838</ele>
        <time>2019-11-30T15:59:34Z</time>
      </trkpt>
      <trkpt lat="15.112725" lon="-92.088558">
        <ele>2649.9353842760215</ele>
        <time>2019-11-30T15:59:38Z</time>
      </trkpt>
      <trkpt lat="15.112745" lon="-92.088562">
        <ele>2649.8586323158293</ele>
        <time>2019-11-30T15:59:42Z</time>
      </trkpt>
      <trkpt lat="15.112786" lon="-92.088567">
        <ele>2651.591067989609</ele>
        <time>2019-11-30T15:59:47Z</time>
      </trkpt>
      <trkpt lat="15.112811" lon="-92.088569">
        <ele>2651.8484992164003</ele>
        <time>2019-11-30T15:59:52Z</time>
      </trkpt>
      <trkpt lat="15.112818" lon="-92.088570">
        <ele>2651.848458208305</ele>
        <time>2019-11-30T15:59:57Z</time>
      </trkpt>
      <trkpt lat="15.112840" lon="-92.088581">
        <ele>2654.3533014775744</ele>
        <time>2019-11-30T16:00:02Z</time>
      </trkpt>
      <trkpt lat="15.112877" lon="-92.088602">
        <ele>2658.377441174474</ele>
        <time>2019-11-30T16:00:07Z</time>
      </trkpt>
      <trkpt lat="15.112895" lon="-92.088608">
        <ele>2660.68670797095</ele>
        <time>2019-11-30T16:00:11Z</time>
      </trkpt>
      <trkpt lat="15.112908" lon="-92.088610">
        <ele>2661.6431874607756</ele>
        <time>2019-11-30T16:00:15Z</time>
      </trkpt>
      <trkpt lat="15.112917" lon="-92.088611">
        <ele>2662.1423980714744</ele>
        <time>2019-11-30T16:00:19Z</time>
      </trkpt>
      <trkpt lat="15.112936" lon="-92.088604">
        <ele>2662.7716026915236</ele>
        <time>2019-11-30T16:00:24Z</time>
      </trkpt>
      <trkpt lat="15.112947" lon="-92.088600">
        <ele>2662.7714897458595</ele>
        <time>2019-11-30T16:00:28Z</time>
      </trkpt>
      <trkpt lat="15.112954" lon="-92.088596">
        <ele>2662.7714029750355</ele>
        <time>2019-11-30T16:00:34Z</time>
      </trkpt>
      <trkpt lat="15.112961" lon="-92.088594">
        <ele>2663.1087425098735</ele>
        <time>2019-11-30T16:00:42Z</time>
      </trkpt>
      <trkpt lat="15.112985" lon="-92.088606">
        <ele>2664.7737420170506</ele>
        <time>2019-11-30T16:00:47Z</time>
      </trkpt>
      <trkpt lat="15.113034" lon="-92.088631">
        <ele>2665.9201499092064</ele>
        <time>2019-11-30T16:00:51Z</time>
      </trkpt>
      <trkpt lat="15.113070" lon="-92.088653">
        <ele>2667.5202259452153</ele>
        <time>2019-11-30T16:00:55Z</time>
      </trkpt>
      <trkpt lat="15.113083" lon="-92.088665">
        <ele>2669.3793866849965</ele>
        <time>2019-11-30T16:00:59Z</time>
      </trkpt>
      <trkpt lat="15.113124" lon="-92.088694">
        <ele>2669.665044337526</ele>
        <time>2019-11-30T16:01:03Z</time>
      </trkpt>
      <trkpt lat="15.113140" lon="-92.088707">
        <ele>2669.66507341566</ele>
        <time>2019-11-30T16:01:07Z</time>
      </trkpt>
      <trkpt lat="15.113149" lon="-92.088714">
        <ele>2669.4519478931807</ele>
        <time>2019-11-30T16:01:11Z</time>
      </trkpt>
      <trkpt lat="15.113163" lon="-92.088719">
        <ele>2668.6848122610772</ele>
        <time>2019-11-30T16:01:15Z</time>
      </trkpt>
      <trkpt lat="15.113174" lon="-92.088724">
        <ele>2668.6847905123504</ele>
        <time>2019-11-30T16:01:19Z</time>
      </trkpt>
      <trkpt lat="15.113182" lon="-92.088729">
        <ele>2668.6847808348734</ele>
        <time>2019-11-30T16:01:26Z</time>
      </trkpt>
      <trkpt lat="15.113190" lon="-92.088733">
        <ele>2668.706005059999</ele>
        <time>2019-11-30T16:01:30Z</time>
      </trkpt>
      <trkpt lat="15.113206" lon="-92.088749">
        <ele>2668.6604053696246</ele>
        <time>2019-11-30T16:01:34Z</time>
      </trkpt>
      <trkpt lat="15.113209" lon="-92.088768">
        <ele>2668.1962164744677</ele>
        <time>2019-11-30T16:01:38Z</time>
      </trkpt>
      <trkpt lat="15.113207" lon="-92.088776">
        <ele>2667.976583495306</ele>
        <time>2019-11-30T16:01:42Z</time>
      </trkpt>
      <trkpt lat="15.113196" lon="-92.088796">
        <ele>2667.981490918465</ele>
        <time>2019-11-30T16:01:47Z</time>
      </trkpt>
      <trkpt lat="15.113180" lon="-92.088806">
        <ele>2668.8222656612916</ele>
        <time>2019-11-30T16:01:52Z</time>
      </trkpt>
      <trkpt lat="15.113155" lon="-92.088811">
        <ele>2668.707003217035</ele>
        <time>2019-11-30T16:01:56Z</time>
      </trkpt>
      <trkpt lat="15.113137" lon="-92.088818">
        <ele>2668.364418182633</ele>
        <time>2019-11-30T16:02:01Z</time>
      </trkpt>
      <trkpt lat="15.113120" lon="-92.088833">
        <ele>2668.25115228999</ele>
        <time>2019-11-30T16:02:05Z</time>
      </trkpt>
      <trkpt lat="15.113093" lon="-92.088863">
        <ele>2667.632247445114</ele>
        <time>2019-11-30T16:02:09Z</time>
      </trkpt>
      <trkpt lat="15.113078" lon="-92.088877">
        <ele>2668.0978095199494</ele>
        <time>2019-11-30T16:02:14Z</time>
      </trkpt>
      <trkpt lat="15.113065" lon="-92.088889">
        <ele>2668.9200298139285</ele>
        <time>2019-11-30T16:02:18Z</time>
      </trkpt>
      <trkpt lat="15.113057" lon="-92.088899">
        <ele>2669.158709992939</ele>
        <time>2019-11-30T16:02:22Z</time>
      </trkpt>
      <trkpt lat="15.113052" lon="-92.088906">
        <ele>2669.158809296197</ele>
        <time>2019-11-30T16:02:28Z</time>
      </trkpt>
      <trkpt lat="15.113049" lon="-92.088911">
        <ele>2669.4960352395906</ele>
        <time>2019-11-30T16:02:33Z</time>
      </trkpt>
      <trkpt lat="15.113036" lon="-92.088941">
        <ele>2670.0325544564885</ele>
        <time>2019-11-30T16:02:38Z</time>
      </trkpt>
      <trkpt lat="15.113032" lon="-92.088952">
        <ele>2670.0326897787613</ele>
        <time>2019-11-30T16:02:43Z</time>
      </trkpt>
      <trkpt lat="15.113031" lon="-92.088967">
        <ele>2670.761356584874</ele>
        <time>2019-11-30T16:02:47Z</time>
      </trkpt>
      <trkpt lat="15.113023" lon="-92.088994">
        <ele>2671.023141609894</ele>
        <time>2019-11-30T16:02:52Z</time>
      </trkpt>
      <trkpt lat="15.113014" lon="-92.089018">
        <ele>2671.5693372881547</ele>
        <time>2019-11-30T16:02:56Z</time>
      </trkpt>
      <trkpt lat="15.113010" lon="-92.089028">
        <ele>2671.569468252869</ele>
        <time>2019-11-30T16:03:00Z</time>
      </trkpt>
      <trkpt lat="15.113000" lon="-92.089055">
        <ele>2672.065645012269</ele>
        <time>2019-11-30T16:03:05Z</time>
      </trkpt>
      <trkpt lat="15.112984" lon="-92.089097">
        <ele>2672.9021013848283</ele>
        <time>2019-11-30T16:03:09Z</time>
      </trkpt>
      <trkpt lat="15.112967" lon="-92.089139">
        <ele>2674.2439294648257</ele>
        <time>2019-11-30T16:03:14Z</time>
      </trkpt>
      <trkpt lat="15.112953" lon="-92.089173">
        <ele>2675.3510497783855</ele>
        <time>2019-11-30T16:03:18Z</time>
      </trkpt>
      <trkpt lat="15.112947" lon="-92.089186">
        <ele>2675.3512164723656</ele>
        <time>2019-11-30T16:03:23Z</time>
      </trkpt>
      <trkpt lat="15.112943" lon="-92.089195">
        <ele>2675.351332957181</ele>
        <time>2019-11-30T16:03:28Z</time>
      </trkpt>
      <trkpt lat="15.112940" lon="-92.089202">
        <ele>2675.3514148056775</ele>
        <time>2019-11-30T16:03:35Z</time>
      </trkpt>
      <trkpt lat="15.112934" lon="-92.089219">
        <ele>2674.3679734237744</ele>
        <time>2019-11-30T16:03:39Z</time>
      </trkpt>
      <trkpt lat="15.112923" lon="-92.089267">
        <ele>2674.273547701282</ele>
        <time>2019-11-30T16:03:44Z</time>
      </trkpt>
      <trkpt lat="15.112919" lon="-92.089301">
        <ele>2674.2280091717444</ele>
        <time>2019-11-30T16:03:48Z</time>
      </trkpt>
      <trkpt lat="15.112911" lon="-92.089352">
        <ele>2674.34672841348</ele>
        <time>2019-11-30T16:03:53Z</time>
      </trkpt>
      <trkpt lat="15.112907" lon="-92.089382">
        <ele>2674.400761192439</ele>
        <time>2019-11-30T16:03:57Z</time>
      </trkpt>
      <trkpt lat="15.112898" lon="-92.089440">
        <ele>2674.7876206523383</ele>
        <time>2019-11-30T16:04:01Z</time>
      </trkpt>
      <trkpt lat="15.112882" lon="-92.089508">
        <ele>2674.4170555420724</ele>
        <time>2019-11-30T16:04:06Z</time>
      </trkpt>
      <trkpt lat="15.112872" lon="-92.089577">
        <ele>2674.4829792419787</ele>
        <time>2019-11-30T16:04:10Z</time>
      </trkpt>
      <trkpt lat="15.112864" lon="-92.089652">
        <ele>2674.9769344807423</ele>
        <time>2019-11-30T16:04:15Z</time>
      </trkpt>
      <trkpt lat="15.112864" lon="-92.089738">
        <ele>2675.0908118522575</ele>
        <time>2019-11-30T16:04:19Z</time>
      </trkpt>
      <trkpt lat="15.112866" lon="-92.089817">
        <ele>2675.1936266778303</ele>
        <time>2019-11-30T16:04:24Z</time>
      </trkpt>
      <trkpt lat="15.112860" lon="-92.089863">
        <ele>2675.8674541073437</ele>
        <time>2019-11-30T16:04:29Z</time>
      </trkpt>
      <trkpt lat="15.112852" lon="-92.089888">
        <ele>2675.8340579931432</ele>
        <time>2019-11-30T16:04:33Z</time>
      </trkpt>
      <trkpt lat="15.112862" lon="-92.089926">
        <ele>2675.982569168128</ele>
        <time>2019-11-30T16:04:38Z</time>
      </trkpt>
      <trkpt lat="15.112861" lon="-92.089967">
        <ele>2675.716122180062</ele>
        <time>2019-11-30T16:04:43Z</time>
      </trkpt>
      <trkpt lat="15.112857" lon="-92.090003">
        <ele>2674.8749494398276</ele>
        <time>2019-11-30T16:04:47Z</time>
      </trkpt>
      <trkpt lat="15.112854" lon="-92.090039">
        <ele>2674.4785919496253</ele>
        <time>2019-11-30T16:04:51Z</time>
      </trkpt>
      <trkpt lat="15.112854" lon="-92.090068">
        <ele>2674.4498297669056</ele>
        <time>2019-11-30T16:04:55Z</time>
      </trkpt>
      <trkpt lat="15.112855" lon="-92.090079">
        <ele>2674.698951567769</ele>
        <time>2019-11-30T16:04:59Z</time>
      </trkpt>
      <trkpt lat="15.112856" lon="-92.090075">
        <ele>2673.917895917653</ele>
        <time>2019-11-30T16:05:42Z</time>
      </trkpt>
      <trkpt lat="15.112876" lon="-92.090030">
        <ele>2673.917329033343</ele>
        <time>2019-11-30T16:05:47Z</time>
      </trkpt>
      <trkpt lat="15.112876" lon="-92.090030">
        <ele>2673.495942314593</ele>
        <time>2019-11-30T16:07:39Z</time>
      </trkpt>
      <trkpt lat="15.112862" lon="-92.090033">
        <ele>2673.496060054628</ele>
        <time>2019-11-30T16:07:43Z</time>
      </trkpt>
      <trkpt lat="15.112863" lon="-92.090033">
        <ele>2673.4960519628257</ele>
        <time>2019-11-30T16:09:53Z</time>
      </trkpt>
      <trkpt lat="15.112863" lon="-92.090033">
        <ele>2673.4960519628257</ele>
        <time>2019-11-30T16:09:54Z</time>
      </trkpt>
      <trkpt lat="15.112912" lon="-92.089925">
        <ele>2673.202627290068</ele>
        <time>2019-11-30T16:16:43Z</time>
      </trkpt>
      <trkpt lat="15.112918" lon="-92.090069">
        <ele>2686.34022916733</ele>
        <time>2019-11-30T16:16:47Z</time>
      </trkpt>
      <trkpt lat="15.112854" lon="-92.090059">
        <ele>2674.3442716736013</ele>
        <time>2019-11-30T16:16:52Z</time>
      </trkpt>
      <trkpt lat="15.112854" lon="-92.090059">
        <ele>2675.2890958923513</ele>
        <time>2019-11-30T16:17:48Z</time>
      </trkpt>
      <trkpt lat="15.112858" lon="-92.090076">
        <ele>2675.0287332553694</ele>
        <time>2019-11-30T16:17:52Z</time>
      </trkpt>
      <trkpt lat="15.112858" lon="-92.090089">
        <ele>2674.2710560297123</ele>
        <time>2019-11-30T16:17:56Z</time>
      </trkpt>
      <trkpt lat="15.112860" lon="-92.090126">
        <ele>2673.833898752074</ele>
        <time>2019-11-30T16:18:01Z</time>
      </trkpt>
      <trkpt lat="15.112866" lon="-92.090163">
        <ele>2673.8342245890576</ele>
        <time>2019-11-30T16:18:06Z</time>
      </trkpt>
      <trkpt lat="15.112867" lon="-92.090181">
        <ele>2673.834393938832</ele>
        <time>2019-11-30T16:18:10Z</time>
      </trkpt>
      <trkpt lat="15.112870" lon="-92.090200">
        <ele>2674.232021565539</ele>
        <time>2019-11-30T16:18:14Z</time>
      </trkpt>
      <trkpt lat="15.112872" lon="-92.090212">
        <ele>2674.23212901672</ele>
        <time>2019-11-30T16:18:18Z</time>
      </trkpt>
      <trkpt lat="15.112874" lon="-92.090219">
        <ele>2674.21045611588</ele>
        <time>2019-11-30T16:18:26Z</time>
      </trkpt>
      <trkpt lat="15.112877" lon="-92.090244">
        <ele>2673.8478790022145</ele>
        <time>2019-11-30T16:18:30Z</time>
      </trkpt>
      <trkpt lat="15.112878" lon="-92.090280">
        <ele>2674.667816214421</ele>
        <time>2019-11-30T16:18:35Z</time>
      </trkpt>
      <trkpt lat="15.112877" lon="-92.090293">
        <ele>2674.667940685648</ele>
        <time>2019-11-30T16:18:39Z</time>
      </trkpt>
      <trkpt lat="15.112877" lon="-92.090302">
        <ele>2674.668031473797</ele>
        <time>2019-11-30T16:18:46Z</time>
      </trkpt>
      <trkpt lat="15.112875" lon="-92.090315">
        <ele>2675.573694843887</ele>
        <time>2019-11-30T16:18:51Z</time>
      </trkpt>
      <trkpt lat="15.112872" lon="-92.090355">
        <ele>2677.0907114915035</ele>
        <time>2019-11-30T16:18:55Z</time>
      </trkpt>
      <trkpt lat="15.112873" lon="-92.090394">
        <ele>2677.831805855842</ele>
        <time>2019-11-30T16:18:59Z</time>
      </trkpt>
      <trkpt lat="15.112884" lon="-92.090462">
        <ele>2677.6800533392525</ele>
        <time>2019-11-30T16:19:04Z</time>
      </trkpt>
      <trkpt lat="15.112894" lon="-92.090521">
        <ele>2677.7223140925544</ele>
        <time>2019-11-30T16:19:09Z</time>
      </trkpt>
      <trkpt lat="15.112891" lon="-92.090560">
        <ele>2678.1465457826976</ele>
        <time>2019-11-30T16:19:13Z</time>
      </trkpt>
      <trkpt lat="15.112887" lon="-92.090584">
        <ele>2678.283523448042</ele>
        <time>2019-11-30T16:19:17Z</time>
      </trkpt>
      <trkpt lat="15.112882" lon="-92.090609">
        <ele>2679.5047539566094</ele>
        <time>2019-11-30T16:19:22Z</time>
      </trkpt>
      <trkpt lat="15.112877" lon="-92.090645">
        <ele>2680.385508211665</ele>
        <time>2019-11-30T16:19:26Z</time>
      </trkpt>
      <trkpt lat="15.112870" lon="-92.090706">
        <ele>2681.414960609595</ele>
        <time>2019-11-30T16:19:31Z</time>
      </trkpt>
      <trkpt lat="15.112872" lon="-92.090756">
        <ele>2680.1959605502416</ele>
        <time>2019-11-30T16:19:36Z</time>
      </trkpt>
      <trkpt lat="15.112878" lon="-92.090778">
        <ele>2679.2659651884696</ele>
        <time>2019-11-30T16:19:40Z</time>
      </trkpt>
      <trkpt lat="15.112889" lon="-92.090811">
        <ele>2678.380223204204</ele>
        <time>2019-11-30T16:19:44Z</time>
      </trkpt>
      <trkpt lat="15.112902" lon="-92.090849">
        <ele>2678.3871036191877</ele>
        <time>2019-11-30T16:19:49Z</time>
      </trkpt>
      <trkpt lat="15.112907" lon="-92.090864">
        <ele>2678.3872138534675</ele>
        <time>2019-11-30T16:19:54Z</time>
      </trkpt>
      <trkpt lat="15.112910" lon="-92.090871">
        <ele>2678.3872673976325</ele>
        <time>2019-11-30T16:19:59Z</time>
      </trkpt>
      <trkpt lat="15.112929" lon="-92.090899">
        <ele>2676.399129607276</ele>
        <time>2019-11-30T16:20:03Z</time>
      </trkpt>
      <trkpt lat="15.112954" lon="-92.090929">
        <ele>2676.3992704674174</ele>
        <time>2019-11-30T16:20:07Z</time>
      </trkpt>
      <trkpt lat="15.112966" lon="-92.090945">
        <ele>2676.3993388039726</ele>
        <time>2019-11-30T16:20:11Z</time>
      </trkpt>
      <trkpt lat="15.112979" lon="-92.090960">
        <ele>2675.7560929795704</ele>
        <time>2019-11-30T16:20:15Z</time>
      </trkpt>
      <trkpt lat="15.113000" lon="-92.090991">
        <ele>2674.7008367141384</ele>
        <time>2019-11-30T16:20:19Z</time>
      </trkpt>
      <trkpt lat="15.113020" lon="-92.091020">
        <ele>2673.459052845552</ele>
        <time>2019-11-30T16:20:23Z</time>
      </trkpt>
      <trkpt lat="15.113055" lon="-92.091072">
        <ele>2672.423688400467</ele>
        <time>2019-11-30T16:20:27Z</time>
      </trkpt>
      <trkpt lat="15.113088" lon="-92.091135">
        <ele>2672.6574883043004</ele>
        <time>2019-11-30T16:20:32Z</time>
      </trkpt>
      <trkpt lat="15.113113" lon="-92.091182">
        <ele>2673.97858947999</ele>
        <time>2019-11-30T16:20:36Z</time>
      </trkpt>
      <trkpt lat="15.113150" lon="-92.091240">
        <ele>2673.505280899814</ele>
        <time>2019-11-30T16:20:41Z</time>
      </trkpt>
      <trkpt lat="15.113178" lon="-92.091282">
        <ele>2672.572160036506</ele>
        <time>2019-11-30T16:20:45Z</time>
      </trkpt>
      <trkpt lat="15.113196" lon="-92.091312">
        <ele>2672.063791361606</ele>
        <time>2019-11-30T16:20:49Z</time>
      </trkpt>
      <trkpt lat="15.113214" lon="-92.091339">
        <ele>2671.5529543099706</ele>
        <time>2019-11-30T16:20:53Z</time>
      </trkpt>
      <trkpt lat="15.113233" lon="-92.091377">
        <ele>2670.9980291008146</ele>
        <time>2019-11-30T16:20:57Z</time>
      </trkpt>
      <trkpt lat="15.113251" lon="-92.091411">
        <ele>2670.5629388030384</ele>
        <time>2019-11-30T16:21:01Z</time>
      </trkpt>
      <trkpt lat="15.113268" lon="-92.091437">
        <ele>2670.4957019130447</ele>
        <time>2019-11-30T16:21:05Z</time>
      </trkpt>
      <trkpt lat="15.113294" lon="-92.091490">
        <ele>2670.583942895913</ele>
        <time>2019-11-30T16:21:10Z</time>
      </trkpt>
      <trkpt lat="15.113310" lon="-92.091524">
        <ele>2670.4098558259834</ele>
        <time>2019-11-30T16:21:14Z</time>
      </trkpt>
      <trkpt lat="15.113321" lon="-92.091544">
        <ele>2670.45636734846</ele>
        <time>2019-11-30T16:21:18Z</time>
      </trkpt>
      <trkpt lat="15.113342" lon="-92.091579">
        <ele>2670.4272739218163</ele>
        <time>2019-11-30T16:21:22Z</time>
      </trkpt>
      <trkpt lat="15.113367" lon="-92.091625">
        <ele>2670.3963119284444</ele>
        <time>2019-11-30T16:21:26Z</time>
      </trkpt>
      <trkpt lat="15.113390" lon="-92.091666">
        <ele>2670.6814705833417</ele>
        <time>2019-11-30T16:21:31Z</time>
      </trkpt>
      <trkpt lat="15.113399" lon="-92.091681">
        <ele>2670.681567650696</ele>
        <time>2019-11-30T16:21:35Z</time>
      </trkpt>
      <trkpt lat="15.113404" lon="-92.091689">
        <ele>2670.681612529373</ele>
        <time>2019-11-30T16:21:39Z</time>
      </trkpt>
      <trkpt lat="15.113408" lon="-92.091697">
        <ele>2670.6023150918627</ele>
        <time>2019-11-30T16:21:46Z</time>
      </trkpt>
      <trkpt lat="15.113407" lon="-92.091712">
        <ele>2670.2399153996876</ele>
        <time>2019-11-30T16:21:50Z</time>
      </trkpt>
      <trkpt lat="15.113402" lon="-92.091753">
        <ele>2670.249395239644</ele>
        <time>2019-11-30T16:21:55Z</time>
      </trkpt>
      <trkpt lat="15.113406" lon="-92.091810">
        <ele>2671.5392331872868</ele>
        <time>2019-11-30T16:22:00Z</time>
      </trkpt>
      <trkpt lat="15.113412" lon="-92.091864">
        <ele>2672.6161442684306</ele>
        <time>2019-11-30T16:22:04Z</time>
      </trkpt>
      <trkpt lat="15.113414" lon="-92.091891">
        <ele>2672.94354182955</ele>
        <time>2019-11-30T16:22:08Z</time>
      </trkpt>
      <trkpt lat="15.113423" lon="-92.091934">
        <ele>2673.25811137401</ele>
        <time>2019-11-30T16:22:13Z</time>
      </trkpt>
      <trkpt lat="15.113433" lon="-92.091957">
        <ele>2672.738742910858</ele>
        <time>2019-11-30T16:22:17Z</time>
      </trkpt>
      <trkpt lat="15.113441" lon="-92.091966">
        <ele>2672.8523017465996</ele>
        <time>2019-11-30T16:22:21Z</time>
      </trkpt>
      <trkpt lat="15.113453" lon="-92.091979">
        <ele>2673.210747333693</ele>
        <time>2019-11-30T16:22:26Z</time>
      </trkpt>
      <trkpt lat="15.113472" lon="-92.091996">
        <ele>2673.904393455112</ele>
        <time>2019-11-30T16:22:30Z</time>
      </trkpt>
      <trkpt lat="15.113514" lon="-92.092059">
        <ele>2673.916706654278</ele>
        <time>2019-11-30T16:22:34Z</time>
      </trkpt>
      <trkpt lat="15.113527" lon="-92.092097">
        <ele>2672.8205527828018</ele>
        <time>2019-11-30T16:22:39Z</time>
      </trkpt>
      <trkpt lat="15.113536" lon="-92.092121">
        <ele>2670.1000253850057</ele>
        <time>2019-11-30T16:22:43Z</time>
      </trkpt>
      <trkpt lat="15.113554" lon="-92.092175">
        <ele>2667.634139040362</ele>
        <time>2019-11-30T16:22:47Z</time>
      </trkpt>
      <trkpt lat="15.113554" lon="-92.092232">
        <ele>2666.6471440472246</ele>
        <time>2019-11-30T16:22:51Z</time>
      </trkpt>
      <trkpt lat="15.113550" lon="-92.092294">
        <ele>2666.142164389057</ele>
        <time>2019-11-30T16:22:55Z</time>
      </trkpt>
      <trkpt lat="15.113544" lon="-92.092337">
        <ele>2667.4043457989037</ele>
        <time>2019-11-30T16:22:59Z</time>
      </trkpt>
      <trkpt lat="15.113544" lon="-92.092400">
        <ele>2670.1493472255256</ele>
        <time>2019-11-30T16:23:04Z</time>
      </trkpt>
      <trkpt lat="15.113542" lon="-92.092426">
        <ele>2671.120069127505</ele>
        <time>2019-11-30T16:23:08Z</time>
      </trkpt>
      <trkpt lat="15.113542" lon="-92.092439">
        <ele>2672.0396354512</ele>
        <time>2019-11-30T16:23:12Z</time>
      </trkpt>
      <trkpt lat="15.113541" lon="-92.092463">
        <ele>2671.5896799234706</ele>
        <time>2019-11-30T16:23:16Z</time>
      </trkpt>
      <trkpt lat="15.113540" lon="-92.092477">
        <ele>2671.589820201445</ele>
        <time>2019-11-30T16:23:21Z</time>
      </trkpt>
      <trkpt lat="15.113537" lon="-92.092478">
        <ele>2672.1291584408364</ele>
        <time>2019-11-30T16:23:48Z</time>
      </trkpt>
      <trkpt lat="15.113521" lon="-92.092490">
        <ele>2672.8176135392673</ele>
        <time>2019-11-30T16:23:52Z</time>
      </trkpt>
      <trkpt lat="15.113522" lon="-92.092500">
        <ele>2672.4170720089173</ele>
        <time>2019-11-30T16:23:56Z</time>
      </trkpt>
      <trkpt lat="15.113524" lon="-92.092502">
        <ele>2672.5472065174336</ele>
        <time>2019-11-30T16:24:16Z</time>
      </trkpt>
      <trkpt lat="15.113572" lon="-92.092526">
        <ele>2671.297130117744</ele>
        <time>2019-11-30T16:24:21Z</time>
      </trkpt>
      <trkpt lat="15.113573" lon="-92.092537">
        <ele>2671.297235214109</ele>
        <time>2019-11-30T16:24:25Z</time>
      </trkpt>
      <trkpt lat="15.113573" lon="-92.092537">
        <ele>2671.451043807859</ele>
        <time>2019-11-30T16:24:33Z</time>
      </trkpt>
      <trkpt lat="15.113567" lon="-92.092550">
        <ele>2671.3994522952753</ele>
        <time>2019-11-30T16:24:37Z</time>
      </trkpt>
      <trkpt lat="15.113567" lon="-92.092550">
        <ele>2672.0222550296503</ele>
        <time>2019-11-30T16:25:00Z</time>
      </trkpt>
      <trkpt lat="15.113613" lon="-92.092567">
        <ele>2671.7455049388636</ele>
        <time>2019-11-30T16:25:04Z</time>
      </trkpt>
      <trkpt lat="15.113613" lon="-92.092569">
        <ele>2675.465253819029</ele>
        <time>2019-11-30T16:26:04Z</time>
      </trkpt>
      <trkpt lat="15.113623" lon="-92.092549">
        <ele>2675.7213317483424</ele>
        <time>2019-11-30T16:26:09Z</time>
      </trkpt>
      <trkpt lat="15.113621" lon="-92.092551">
        <ele>2674.6273760979043</ele>
        <time>2019-11-30T16:26:19Z</time>
      </trkpt>
      <trkpt lat="15.113652" lon="-92.092567">
        <ele>2671.504040240486</ele>
        <time>2019-11-30T16:26:24Z</time>
      </trkpt>
      <trkpt lat="15.113635" lon="-92.092607">
        <ele>2668.0526361249504</ele>
        <time>2019-11-30T16:26:28Z</time>
      </trkpt>
      <trkpt lat="15.113608" lon="-92.092650">
        <ele>2664.660905172958</ele>
        <time>2019-11-30T16:26:33Z</time>
      </trkpt>
      <trkpt lat="15.113595" lon="-92.092677">
        <ele>2662.8260449459835</ele>
        <time>2019-11-30T16:26:38Z</time>
      </trkpt>
      <trkpt lat="15.113587" lon="-92.092700">
        <ele>2659.3861478203576</ele>
        <time>2019-11-30T16:26:42Z</time>
      </trkpt>
      <trkpt lat="15.113577" lon="-92.092704">
        <ele>2655.4978240532982</ele>
        <time>2019-11-30T16:26:46Z</time>
      </trkpt>
      <trkpt lat="15.113553" lon="-92.092711">
        <ele>2662.9533652905748</ele>
        <time>2019-11-30T16:26:50Z</time>
      </trkpt>
      <trkpt lat="15.113546" lon="-92.092707">
        <ele>2660.133554074437</ele>
        <time>2019-11-30T16:26:54Z</time>
      </trkpt>
      <trkpt lat="15.113546" lon="-92.092700">
        <ele>2658.4213202001174</ele>
        <time>2019-11-30T16:26:58Z</time>
      </trkpt>
      <trkpt lat="15.113572" lon="-92.092664">
        <ele>2657.714251077378</ele>
        <time>2019-11-30T16:27:03Z</time>
      </trkpt>
      <trkpt lat="15.113592" lon="-92.092657">
        <ele>2656.0783141075913</ele>
        <time>2019-11-30T16:27:08Z</time>
      </trkpt>
      <trkpt lat="15.113601" lon="-92.092655">
        <ele>2655.8155404089275</ele>
        <time>2019-11-30T16:27:12Z</time>
      </trkpt>
      <trkpt lat="15.113596" lon="-92.092659">
        <ele>2655.902772605753</ele>
        <time>2019-11-30T16:27:17Z</time>
      </trkpt>
      <trkpt lat="15.113574" lon="-92.092698">
        <ele>2655.4721494323194</ele>
        <time>2019-11-30T16:27:21Z</time>
      </trkpt>
      <trkpt lat="15.113573" lon="-92.092747">
        <ele>2658.8639879710313</ele>
        <time>2019-11-30T16:27:26Z</time>
      </trkpt>
      <trkpt lat="15.113595" lon="-92.092765">
        <ele>2661.064219725914</ele>
        <time>2019-11-30T16:27:30Z</time>
      </trkpt>
      <trkpt lat="15.113629" lon="-92.092778">
        <ele>2657.1039163987984</ele>
        <time>2019-11-30T16:27:34Z</time>
      </trkpt>
      <trkpt lat="15.113659" lon="-92.092758">
        <ele>2657.3369206105003</ele>
        <time>2019-11-30T16:27:38Z</time>
      </trkpt>
      <trkpt lat="15.113676" lon="-92.092708">
        <ele>2658.102190382578</ele>
        <time>2019-11-30T16:27:42Z</time>
      </trkpt>
      <trkpt lat="15.113664" lon="-92.092701">
        <ele>2660.161529080014</ele>
        <time>2019-11-30T16:27:47Z</time>
      </trkpt>
      <trkpt lat="15.113629" lon="-92.092718">
        <ele>2661.383841965413</ele>
        <time>2019-11-30T16:27:51Z</time>
      </trkpt>
      <trkpt lat="15.113583" lon="-92.092733">
        <ele>2661.2771136186734</ele>
        <time>2019-11-30T16:27:56Z</time>
      </trkpt>
      <trkpt lat="15.113538" lon="-92.092751">
        <ele>2660.0205048195644</ele>
        <time>2019-11-30T16:28:01Z</time>
      </trkpt>
      <trkpt lat="15.113485" lon="-92.092768">
        <ele>2662.641629875677</ele>
        <time>2019-11-30T16:28:06Z</time>
      </trkpt>
      <trkpt lat="15.113463" lon="-92.092782">
        <ele>2663.819394085476</ele>
        <time>2019-11-30T16:28:11Z</time>
      </trkpt>
      <trkpt lat="15.113456" lon="-92.092787">
        <ele>2663.8194876663533</ele>
        <time>2019-11-30T16:28:16Z</time>
      </trkpt>
      <trkpt lat="15.113450" lon="-92.092793">
        <ele>2663.819592323501</ele>
        <time>2019-11-30T16:28:26Z</time>
      </trkpt>
      <trkpt lat="15.113457" lon="-92.092795">
        <ele>2665.878393735175</ele>
        <time>2019-11-30T16:29:29Z</time>
      </trkpt>
      <trkpt lat="15.113471" lon="-92.092799">
        <ele>2665.878346528168</ele>
        <time>2019-11-30T16:29:33Z</time>
      </trkpt>
      <trkpt lat="15.113479" lon="-92.092804">
        <ele>2665.8783441562587</ele>
        <time>2019-11-30T16:29:41Z</time>
      </trkpt>
      <trkpt lat="15.113495" lon="-92.092806">
        <ele>2666.9309965932116</ele>
        <time>2019-11-30T16:29:45Z</time>
      </trkpt>
      <trkpt lat="15.113539" lon="-92.092811">
        <ele>2667.613128343337</ele>
        <time>2019-11-30T16:29:50Z</time>
      </trkpt>
      <trkpt lat="15.113551" lon="-92.092817">
        <ele>2667.6131186889074</ele>
        <time>2019-11-30T16:29:54Z</time>
      </trkpt>
      <trkpt lat="15.113558" lon="-92.092822">
        <ele>2667.6131161763665</ele>
        <time>2019-11-30T16:30:02Z</time>
      </trkpt>
      <trkpt lat="15.113564" lon="-92.092823">
        <ele>2669.0608369390507</ele>
        <time>2019-11-30T16:30:07Z</time>
      </trkpt>
      <trkpt lat="15.113581" lon="-92.092818">
        <ele>2669.0606738921906</ele>
        <time>2019-11-30T16:30:11Z</time>
      </trkpt>
      <trkpt lat="15.113592" lon="-92.092816">
        <ele>2668.9475513333437</ele>
        <time>2019-11-30T16:30:15Z</time>
      </trkpt>
      <trkpt lat="15.113611" lon="-92.092816">
        <ele>2668.971357692819</ele>
        <time>2019-11-30T16:30:20Z</time>
      </trkpt>
      <trkpt lat="15.113640" lon="-92.092819">
        <ele>2671.8696343947504</ele>
        <time>2019-11-30T16:30:24Z</time>
      </trkpt>
      <trkpt lat="15.113663" lon="-92.092824">
        <ele>2671.8695287947367</ele>
        <time>2019-11-30T16:30:28Z</time>
      </trkpt>
      <trkpt lat="15.113679" lon="-92.092836">
        <ele>2671.879797359396</ele>
        <time>2019-11-30T16:30:33Z</time>
      </trkpt>
      <trkpt lat="15.113691" lon="-92.092843">
        <ele>2671.8797876535227</ele>
        <time>2019-11-30T16:30:37Z</time>
      </trkpt>
      <trkpt lat="15.113699" lon="-92.092847">
        <ele>2671.8797730268184</ele>
        <time>2019-11-30T16:30:44Z</time>
      </trkpt>
      <trkpt lat="15.113701" lon="-92.092855">
        <ele>2673.3293044014426</ele>
        <time>2019-11-30T16:31:18Z</time>
      </trkpt>
      <trkpt lat="15.113704" lon="-92.092863">
        <ele>2673.3293661475764</ele>
        <time>2019-11-30T16:31:24Z</time>
      </trkpt>
      <trkpt lat="15.113697" lon="-92.092862">
        <ele>2676.817192548372</ele>
        <time>2019-11-30T16:32:04Z</time>
      </trkpt>
      <trkpt lat="15.113682" lon="-92.092861">
        <ele>2677.3255749543114</ele>
        <time>2019-11-30T16:32:08Z</time>
      </trkpt>
      <trkpt lat="15.113682" lon="-92.092861">
        <ele>2677.3255749543114</ele>
        <time>2019-11-30T16:32:20Z</time>
      </trkpt>
      <trkpt lat="15.113664" lon="-92.092867">
        <ele>2679.2857151926237</ele>
        <time>2019-11-30T16:32:25Z</time>
      </trkpt>
      <trkpt lat="15.113660" lon="-92.092879">
        <ele>2679.3781470574722</ele>
        <time>2019-11-30T16:32:29Z</time>
      </trkpt>
      <trkpt lat="15.113656" lon="-92.092888">
        <ele>2679.3782540127672</ele>
        <time>2019-11-30T16:32:35Z</time>
      </trkpt>
      <trkpt lat="15.113651" lon="-92.092891">
        <ele>2679.287991536054</ele>
        <time>2019-11-30T16:32:51Z</time>
      </trkpt>
      <trkpt lat="15.113618" lon="-92.092891">
        <ele>2679.7003156896935</ele>
        <time>2019-11-30T16:32:55Z</time>
      </trkpt>
      <trkpt lat="15.113546" lon="-92.092878">
        <ele>2680.936743842476</ele>
        <time>2019-11-30T16:32:59Z</time>
      </trkpt>
      <trkpt lat="15.113505" lon="-92.092869">
        <ele>2680.7301314769256</ele>
        <time>2019-11-30T16:33:03Z</time>
      </trkpt>
      <trkpt lat="15.113474" lon="-92.092865">
        <ele>2680.343822794953</ele>
        <time>2019-11-30T16:33:08Z</time>
      </trkpt>
      <trkpt lat="15.113459" lon="-92.092864">
        <ele>2679.1627596254943</ele>
        <time>2019-11-30T16:33:12Z</time>
      </trkpt>
      <trkpt lat="15.113437" lon="-92.092859">
        <ele>2678.0131848069145</ele>
        <time>2019-11-30T16:33:16Z</time>
      </trkpt>
      <trkpt lat="15.113424" lon="-92.092855">
        <ele>2678.0132339480037</ele>
        <time>2019-11-30T16:33:20Z</time>
      </trkpt>
      <trkpt lat="15.113418" lon="-92.092850">
        <ele>2678.547164598168</ele>
        <time>2019-11-30T16:35:23Z</time>
      </trkpt>
      <trkpt lat="15.113432" lon="-92.092853">
        <ele>2678.5470990981303</ele>
        <time>2019-11-30T16:35:27Z</time>
      </trkpt>
      <trkpt lat="15.113426" lon="-92.092859">
        <ele>2676.7017385974937</ele>
        <time>2019-11-30T16:35:42Z</time>
      </trkpt>
      <trkpt lat="15.113426" lon="-92.092865">
        <ele>2676.1678660127286</ele>
        <time>2019-11-30T16:35:52Z</time>
      </trkpt>
      <trkpt lat="15.113420" lon="-92.092879">
        <ele>2675.225409297685</ele>
        <time>2019-11-30T16:35:57Z</time>
      </trkpt>
      <trkpt lat="15.113412" lon="-92.092894">
        <ele>2675.225606126277</ele>
        <time>2019-11-30T16:36:02Z</time>
      </trkpt>
      <trkpt lat="15.113409" lon="-92.092901">
        <ele>2674.874623806479</ele>
        <time>2019-11-30T16:36:08Z</time>
      </trkpt>
      <trkpt lat="15.113405" lon="-92.092910">
        <ele>2673.5886152031358</ele>
        <time>2019-11-30T16:36:13Z</time>
      </trkpt>
      <trkpt lat="15.113378" lon="-92.092946">
        <ele>2672.6709241887465</ele>
        <time>2019-11-30T16:36:17Z</time>
      </trkpt>
      <trkpt lat="15.113319" lon="-92.093011">
        <ele>2671.8406542349558</ele>
        <time>2019-11-30T16:36:22Z</time>
      </trkpt>
      <trkpt lat="15.113285" lon="-92.093051">
        <ele>2671.063185414186</ele>
        <time>2019-11-30T16:36:26Z</time>
      </trkpt>
      <trkpt lat="15.113269" lon="-92.093082">
        <ele>2670.5916645658795</ele>
        <time>2019-11-30T16:36:31Z</time>
      </trkpt>
      <trkpt lat="15.113254" lon="-92.093123">
        <ele>2670.912482894791</ele>
        <time>2019-11-30T16:36:35Z</time>
      </trkpt>
      <trkpt lat="15.113254" lon="-92.093137">
        <ele>2669.687037054873</ele>
        <time>2019-11-30T16:36:40Z</time>
      </trkpt>
      <trkpt lat="15.113262" lon="-92.093133">
        <ele>2668.0892905644528</ele>
        <time>2019-11-30T16:36:47Z</time>
      </trkpt>
      <trkpt lat="15.113274" lon="-92.093119">
        <ele>2668.948198442876</ele>
        <time>2019-11-30T16:36:52Z</time>
      </trkpt>
      <trkpt lat="15.113275" lon="-92.093108">
        <ele>2672.3079522197886</ele>
        <time>2019-11-30T16:36:56Z</time>
      </trkpt>
      <trkpt lat="15.113266" lon="-92.093106">
        <ele>2670.766238946989</ele>
        <time>2019-11-30T16:37:01Z</time>
      </trkpt>
      <trkpt lat="15.113271" lon="-92.093113">
        <ele>2667.520421560636</ele>
        <time>2019-11-30T16:37:08Z</time>
      </trkpt>
      <trkpt lat="15.113271" lon="-92.093126">
        <ele>2666.4595141446443</ele>
        <time>2019-11-30T16:37:13Z</time>
      </trkpt>
      <trkpt lat="15.113268" lon="-92.093177">
        <ele>2665.330396289292</ele>
        <time>2019-11-30T16:37:18Z</time>
      </trkpt>
      <trkpt lat="15.113265" lon="-92.093214">
        <ele>2664.913547024381</ele>
        <time>2019-11-30T16:37:22Z</time>
      </trkpt>
      <trkpt lat="15.113271" lon="-92.093230">
        <ele>2664.747407346583</ele>
        <time>2019-11-30T16:37:26Z</time>
      </trkpt>
      <trkpt lat="15.113275" lon="-92.093255">
        <ele>2664.4143736571928</ele>
        <time>2019-11-30T16:37:31Z</time>
      </trkpt>
      <trkpt lat="15.113273" lon="-92.093287">
        <ele>2664.3648907948136</ele>
        <time>2019-11-30T16:37:35Z</time>
      </trkpt>
      <trkpt lat="15.113270" lon="-92.093283">
        <ele>2664.6392899252296</ele>
        <time>2019-11-30T16:37:40Z</time>
      </trkpt>
      <trkpt lat="15.113265" lon="-92.093245">
        <ele>2665.210481943645</ele>
        <time>2019-11-30T16:37:44Z</time>
      </trkpt>
      <trkpt lat="15.113269" lon="-92.093201">
        <ele>2665.1946423321733</ele>
        <time>2019-11-30T16:37:48Z</time>
      </trkpt>
      <trkpt lat="15.113263" lon="-92.093203">
        <ele>2664.894893840193</ele>
        <time>2019-11-30T16:37:53Z</time>
      </trkpt>
      <trkpt lat="15.113250" lon="-92.093201">
        <ele>2664.376407772457</ele>
        <time>2019-11-30T16:37:57Z</time>
      </trkpt>
      <trkpt lat="15.113230" lon="-92.093190">
        <ele>2663.52511816505</ele>
        <time>2019-11-30T16:38:02Z</time>
      </trkpt>
      <trkpt lat="15.113208" lon="-92.093200">
        <ele>2659.830527315714</ele>
        <time>2019-11-30T16:38:07Z</time>
      </trkpt>
      <trkpt lat="15.113189" lon="-92.093238">
        <ele>2657.854950233835</ele>
        <time>2019-11-30T16:38:11Z</time>
      </trkpt>
      <trkpt lat="15.113163" lon="-92.093297">
        <ele>2659.4262578791927</ele>
        <time>2019-11-30T16:38:15Z</time>
      </trkpt>
      <trkpt lat="15.113147" lon="-92.093336">
        <ele>2659.4267440705107</ele>
        <time>2019-11-30T16:38:19Z</time>
      </trkpt>
      <trkpt lat="15.113143" lon="-92.093346">
        <ele>2659.4268648154807</ele>
        <time>2019-11-30T16:38:23Z</time>
      </trkpt>
      <trkpt lat="15.113138" lon="-92.093352">
        <ele>2659.643515100606</ele>
        <time>2019-11-30T16:39:55Z</time>
      </trkpt>
      <trkpt lat="15.113134" lon="-92.093357">
        <ele>2660.606473231398</ele>
        <time>2019-11-30T16:40:04Z</time>
      </trkpt>
      <trkpt lat="15.113136" lon="-92.093373">
        <ele>2660.9708787218037</ele>
        <time>2019-11-30T16:40:08Z</time>
      </trkpt>
      <trkpt lat="15.113135" lon="-92.093381">
        <ele>2663.1272125305973</ele>
        <time>2019-11-30T16:40:18Z</time>
      </trkpt>
      <trkpt lat="15.113147" lon="-92.093395">
        <ele>2665.3428526842395</ele>
        <time>2019-11-30T16:40:23Z</time>
      </trkpt>
      <trkpt lat="15.113153" lon="-92.093401">
        <ele>2665.0799291086105</ele>
        <time>2019-11-30T16:40:27Z</time>
      </trkpt>
      <trkpt lat="15.113169" lon="-92.093419">
        <ele>2664.243574498959</ele>
        <time>2019-11-30T16:40:32Z</time>
      </trkpt>
      <trkpt lat="15.113179" lon="-92.093426">
        <ele>2664.243579997804</ele>
        <time>2019-11-30T16:40:37Z</time>
      </trkpt>
      <trkpt lat="15.113187" lon="-92.093429">
        <ele>2664.2435566212625</ele>
        <time>2019-11-30T16:40:52Z</time>
      </trkpt>
      <trkpt lat="15.113191" lon="-92.093443">
        <ele>2665.0476196437917</ele>
        <time>2019-11-30T16:40:56Z</time>
      </trkpt>
      <trkpt lat="15.113195" lon="-92.093461">
        <ele>2665.0477733526145</ele>
        <time>2019-11-30T16:41:00Z</time>
      </trkpt>
      <trkpt lat="15.113198" lon="-92.093469">
        <ele>2665.047829360151</ele>
        <time>2019-11-30T16:41:08Z</time>
      </trkpt>
      <trkpt lat="15.113200" lon="-92.093473">
        <ele>2665.38281752654</ele>
        <time>2019-11-30T16:41:13Z</time>
      </trkpt>
      <trkpt lat="15.113207" lon="-92.093495">
        <ele>2665.6017433383877</ele>
        <time>2019-11-30T16:41:18Z</time>
      </trkpt>
      <trkpt lat="15.113215" lon="-92.093517">
        <ele>2666.3440961550045</ele>
        <time>2019-11-30T16:41:22Z</time>
      </trkpt>
      <trkpt lat="15.113224" lon="-92.093546">
        <ele>2666.557937210402</ele>
        <time>2019-11-30T16:41:27Z</time>
      </trkpt>
      <trkpt lat="15.113237" lon="-92.093575">
        <ele>2667.0622950763536</ele>
        <time>2019-11-30T16:41:31Z</time>
      </trkpt>
      <trkpt lat="15.113239" lon="-92.093579">
        <ele>2666.7720382288594</ele>
        <time>2019-11-30T16:41:37Z</time>
      </trkpt>
      <trkpt lat="15.113259" lon="-92.093599">
        <ele>2666.7027620348713</ele>
        <time>2019-11-30T16:41:41Z</time>
      </trkpt>
      <trkpt lat="15.113271" lon="-92.093612">
        <ele>2666.985523001573</ele>
        <time>2019-11-30T16:41:46Z</time>
      </trkpt>
      <trkpt lat="15.113283" lon="-92.093638">
        <ele>2667.6302384888963</ele>
        <time>2019-11-30T16:41:51Z</time>
      </trkpt>
      <trkpt lat="15.113291" lon="-92.093656">
        <ele>2667.630357273442</ele>
        <time>2019-11-30T16:41:55Z</time>
      </trkpt>
      <trkpt lat="15.113296" lon="-92.093666">
        <ele>2667.6304284289936</ele>
        <time>2019-11-30T16:42:00Z</time>
      </trkpt>
      <trkpt lat="15.113303" lon="-92.093671">
        <ele>2668.9697918760344</ele>
        <time>2019-11-30T16:42:06Z</time>
      </trkpt>
      <trkpt lat="15.113315" lon="-92.093673">
        <ele>2670.696045163377</ele>
        <time>2019-11-30T16:42:11Z</time>
      </trkpt>
      <trkpt lat="15.113335" lon="-92.093674">
        <ele>2671.384158682458</ele>
        <time>2019-11-30T16:42:16Z</time>
      </trkpt>
      <trkpt lat="15.113343" lon="-92.093675">
        <ele>2671.384112268898</ele>
        <time>2019-11-30T16:42:20Z</time>
      </trkpt>
      <trkpt lat="15.113348" lon="-92.093682">
        <ele>2671.564574515963</ele>
        <time>2019-11-30T16:42:44Z</time>
      </trkpt>
      <trkpt lat="15.113352" lon="-92.093709">
        <ele>2672.108267027815</ele>
        <time>2019-11-30T16:42:48Z</time>
      </trkpt>
      <trkpt lat="15.113353" lon="-92.093719">
        <ele>2672.108359438577</ele>
        <time>2019-11-30T16:42:53Z</time>
      </trkpt>
      <trkpt lat="15.113355" lon="-92.093721">
        <ele>2674.046603026243</ele>
        <time>2019-11-30T16:43:32Z</time>
      </trkpt>
      <trkpt lat="15.113355" lon="-92.093709">
        <ele>2674.0464801132425</ele>
        <time>2019-11-30T16:43:36Z</time>
      </trkpt>
      <trkpt lat="15.113353" lon="-92.093717">
        <ele>2673.7482341241152</ele>
        <time>2019-11-30T16:43:45Z</time>
      </trkpt>
      <trkpt lat="15.113354" lon="-92.093731">
        <ele>2673.56062008251</ele>
        <time>2019-11-30T16:43:49Z</time>
      </trkpt>
      <trkpt lat="15.113373" lon="-92.093739">
        <ele>2673.8066717636675</ele>
        <time>2019-11-30T16:43:53Z</time>
      </trkpt>
      <trkpt lat="15.113398" lon="-92.093739">
        <ele>2673.912467140614</ele>
        <time>2019-11-30T16:43:57Z</time>
      </trkpt>
      <trkpt lat="15.113443" lon="-92.093722">
        <ele>2674.0189370840167</ele>
        <time>2019-11-30T16:44:01Z</time>
      </trkpt>
      <trkpt lat="15.113478" lon="-92.093716">
        <ele>2673.8797409159574</ele>
        <time>2019-11-30T16:44:05Z</time>
      </trkpt>
      <trkpt lat="15.113498" lon="-92.093741">
        <ele>2673.7448443479598</ele>
        <time>2019-11-30T16:44:10Z</time>
      </trkpt>
      <trkpt lat="15.113504" lon="-92.093761">
        <ele>2673.8538819886744</ele>
        <time>2019-11-30T16:44:14Z</time>
      </trkpt>
      <trkpt lat="15.113514" lon="-92.093771">
        <ele>2674.0299464519408</ele>
        <time>2019-11-30T16:44:19Z</time>
      </trkpt>
      <trkpt lat="15.113514" lon="-92.093771">
        <ele>2673.8639308269408</ele>
        <time>2019-11-30T16:44:26Z</time>
      </trkpt>
      <trkpt lat="15.113632" lon="-92.093668">
        <ele>2677.1624434109895</ele>
        <time>2019-11-30T16:45:21Z</time>
      </trkpt>
      <trkpt lat="15.113543" lon="-92.093719">
        <ele>2677.416205466846</ele>
        <time>2019-11-30T16:45:25Z</time>
      </trkpt>
      <trkpt lat="15.113477" lon="-92.093809">
        <ele>2677.1723982121903</ele>
        <time>2019-11-30T16:45:29Z</time>
      </trkpt>
      <trkpt lat="15.113462" lon="-92.093863">
        <ele>2678.491389133856</ele>
        <time>2019-11-30T16:45:33Z</time>
      </trkpt>
      <trkpt lat="15.113449" lon="-92.093892">
        <ele>2679.98614464874</ele>
        <time>2019-11-30T16:45:37Z</time>
      </trkpt>
      <trkpt lat="15.113432" lon="-92.093938">
        <ele>2678.019171259684</ele>
        <time>2019-11-30T16:45:41Z</time>
      </trkpt>
      <trkpt lat="15.113430" lon="-92.093964">
        <ele>2675.7941051480375</ele>
        <time>2019-11-30T16:45:46Z</time>
      </trkpt>
      <trkpt lat="15.113456" lon="-92.093992">
        <ele>2677.3445037098263</ele>
        <time>2019-11-30T16:45:51Z</time>
      </trkpt>
      <trkpt lat="15.113485" lon="-92.093998">
        <ele>2676.820198034528</ele>
        <time>2019-11-30T16:45:55Z</time>
      </trkpt>
      <trkpt lat="15.113513" lon="-92.094002">
        <ele>2674.593736811589</ele>
        <time>2019-11-30T16:46:00Z</time>
      </trkpt>
      <trkpt lat="15.113525" lon="-92.094010">
        <ele>2676.6599056109644</ele>
        <time>2019-11-30T16:46:04Z</time>
      </trkpt>
      <trkpt lat="15.113540" lon="-92.094029">
        <ele>2673.7774215684876</ele>
        <time>2019-11-30T16:46:08Z</time>
      </trkpt>
      <trkpt lat="15.113554" lon="-92.094036">
        <ele>2673.5418061250843</ele>
        <time>2019-11-30T16:46:12Z</time>
      </trkpt>
      <trkpt lat="15.113569" lon="-92.094038">
        <ele>2673.2570602764395</ele>
        <time>2019-11-30T16:46:16Z</time>
      </trkpt>
      <trkpt lat="15.113577" lon="-92.094037">
        <ele>2672.7130496935633</ele>
        <time>2019-11-30T16:46:22Z</time>
      </trkpt>
      <trkpt lat="15.113598" lon="-92.094042">
        <ele>2672.3623791456907</ele>
        <time>2019-11-30T16:46:27Z</time>
      </trkpt>
      <trkpt lat="15.113606" lon="-92.094044">
        <ele>2669.2612768102977</ele>
        <time>2019-11-30T16:46:32Z</time>
      </trkpt>
      <trkpt lat="15.113621" lon="-92.094039">
        <ele>2669.5067374917967</ele>
        <time>2019-11-30T16:46:37Z</time>
      </trkpt>
      <trkpt lat="15.113617" lon="-92.094044">
        <ele>2672.8869359982295</ele>
        <time>2019-11-30T16:46:42Z</time>
      </trkpt>
      <trkpt lat="15.113605" lon="-92.094054">
        <ele>2676.603175311323</ele>
        <time>2019-11-30T16:46:46Z</time>
      </trkpt>
      <trkpt lat="15.113581" lon="-92.094084">
        <ele>2686.047963619526</ele>
        <time>2019-11-30T16:46:51Z</time>
      </trkpt>
      <trkpt lat="15.113581" lon="-92.094084">
        <ele>2689.715688228901</ele>
        <time>2019-11-30T16:46:56Z</time>
      </trkpt>
      <trkpt lat="15.113447" lon="-92.094270">
        <ele>2689.6834686887573</ele>
        <time>2019-11-30T16:47:01Z</time>
      </trkpt>
      <trkpt lat="15.113450" lon="-92.094294">
        <ele>2688.992767987957</ele>
        <time>2019-11-30T16:47:05Z</time>
      </trkpt>
      <trkpt lat="15.113448" lon="-92.094331">
        <ele>2691.0141449893795</ele>
        <time>2019-11-30T16:47:09Z</time>
      </trkpt>
      <trkpt lat="15.113445" lon="-92.094345">
        <ele>2693.334855300996</ele>
        <time>2019-11-30T16:47:14Z</time>
      </trkpt>
      <trkpt lat="15.113429" lon="-92.094376">
        <ele>2697.4407322832535</ele>
        <time>2019-11-30T16:47:18Z</time>
      </trkpt>
      <trkpt lat="15.113428" lon="-92.094383">
        <ele>2696.795300657443</ele>
        <time>2019-11-30T16:47:22Z</time>
      </trkpt>
      <trkpt lat="15.113414" lon="-92.094409">
        <ele>2695.5971559785075</ele>
        <time>2019-11-30T16:47:27Z</time>
      </trkpt>
      <trkpt lat="15.113426" lon="-92.094412">
        <ele>2693.3822650109623</ele>
        <time>2019-11-30T16:47:31Z</time>
      </trkpt>
      <trkpt lat="15.113449" lon="-92.094398">
        <ele>2693.339255659303</ele>
        <time>2019-11-30T16:47:35Z</time>
      </trkpt>
      <trkpt lat="15.113462" lon="-92.094376">
        <ele>2693.44662414521</ele>
        <time>2019-11-30T16:47:39Z</time>
      </trkpt>
      <trkpt lat="15.113450" lon="-92.094373">
        <ele>2698.077528476216</ele>
        <time>2019-11-30T16:47:44Z</time>
      </trkpt>
      <trkpt lat="15.113434" lon="-92.094388">
        <ele>2700.6541880220193</ele>
        <time>2019-11-30T16:47:48Z</time>
      </trkpt>
      <trkpt lat="15.113409" lon="-92.094410">
        <ele>2703.3049606609366</ele>
        <time>2019-11-30T16:47:52Z</time>
      </trkpt>
      <trkpt lat="15.113395" lon="-92.094435">
        <ele>2703.6541752070884</ele>
        <time>2019-11-30T16:47:57Z</time>
      </trkpt>
      <trkpt lat="15.113390" lon="-92.094437">
        <ele>2704.865900619644</ele>
        <time>2019-11-30T16:48:10Z</time>
      </trkpt>
      <trkpt lat="15.113382" lon="-92.094469">
        <ele>2704.125785588483</ele>
        <time>2019-11-30T16:48:15Z</time>
      </trkpt>
      <trkpt lat="15.113382" lon="-92.094469">
        <ele>2701.408012150983</ele>
        <time>2019-11-30T16:48:26Z</time>
      </trkpt>
      <trkpt lat="15.113403" lon="-92.094542">
        <ele>2701.2740689233747</ele>
        <time>2019-11-30T16:48:30Z</time>
      </trkpt>
      <trkpt lat="15.113404" lon="-92.094547">
        <ele>2700.339057690035</ele>
        <time>2019-11-30T16:48:35Z</time>
      </trkpt>
      <trkpt lat="15.113393" lon="-92.094567">
        <ele>2700.6684293219446</ele>
        <time>2019-11-30T16:48:39Z</time>
      </trkpt>
      <trkpt lat="15.113377" lon="-92.094609">
        <ele>2702.2553674107726</ele>
        <time>2019-11-30T16:48:43Z</time>
      </trkpt>
      <trkpt lat="15.113371" lon="-92.094629">
        <ele>2703.153795576184</ele>
        <time>2019-11-30T16:48:47Z</time>
      </trkpt>
      <trkpt lat="15.113365" lon="-92.094648">
        <ele>2702.662812518172</ele>
        <time>2019-11-30T16:48:52Z</time>
      </trkpt>
      <trkpt lat="15.113364" lon="-92.094660">
        <ele>2702.3743586191185</ele>
        <time>2019-11-30T16:48:57Z</time>
      </trkpt>
      <trkpt lat="15.113357" lon="-92.094662">
        <ele>2701.7682227235114</ele>
        <time>2019-11-30T16:49:08Z</time>
      </trkpt>
      <trkpt lat="15.113340" lon="-92.094669">
        <ele>2701.4185550361694</ele>
        <time>2019-11-30T16:49:13Z</time>
      </trkpt>
      <trkpt lat="15.113324" lon="-92.094676">
        <ele>2701.381617942029</ele>
        <time>2019-11-30T16:49:17Z</time>
      </trkpt>
      <trkpt lat="15.113288" lon="-92.094693">
        <ele>2700.907891658927</ele>
        <time>2019-11-30T16:49:21Z</time>
      </trkpt>
      <trkpt lat="15.113253" lon="-92.094714">
        <ele>2700.9161376245593</ele>
        <time>2019-11-30T16:49:25Z</time>
      </trkpt>
      <trkpt lat="15.113247" lon="-92.094728">
        <ele>2700.6848655977433</ele>
        <time>2019-11-30T16:49:30Z</time>
      </trkpt>
      <trkpt lat="15.113292" lon="-92.094739">
        <ele>2699.9053906547824</ele>
        <time>2019-11-30T16:49:35Z</time>
      </trkpt>
      <trkpt lat="15.113377" lon="-92.094722">
        <ele>2701.2847975038417</ele>
        <time>2019-11-30T16:49:39Z</time>
      </trkpt>
      <trkpt lat="15.113438" lon="-92.094709">
        <ele>2708.1355927172276</ele>
        <time>2019-11-30T16:49:43Z</time>
      </trkpt>
      <trkpt lat="15.113491" lon="-92.094689">
        <ele>2714.0527799531055</ele>
        <time>2019-11-30T16:49:48Z</time>
      </trkpt>
      <trkpt lat="15.113578" lon="-92.094657">
        <ele>2718.2086303896926</ele>
        <time>2019-11-30T16:49:52Z</time>
      </trkpt>
      <trkpt lat="15.113657" lon="-92.094635">
        <ele>2718.53750070967</ele>
        <time>2019-11-30T16:49:56Z</time>
      </trkpt>
      <trkpt lat="15.113765" lon="-92.094597">
        <ele>2714.977094065855</ele>
        <time>2019-11-30T16:50:01Z</time>
      </trkpt>
      <trkpt lat="15.113866" lon="-92.094573">
        <ele>2713.796268464586</ele>
        <time>2019-11-30T16:50:05Z</time>
      </trkpt>
      <trkpt lat="15.113892" lon="-92.094564">
        <ele>2714.1014361242496</ele>
        <time>2019-11-30T16:50:10Z</time>
      </trkpt>
      <trkpt lat="15.113903" lon="-92.094545">
        <ele>2713.3045484264476</ele>
        <time>2019-11-30T16:50:14Z</time>
      </trkpt>
      <trkpt lat="15.113920" lon="-92.094505">
        <ele>2713.459324432282</ele>
        <time>2019-11-30T16:50:18Z</time>
      </trkpt>
      <trkpt lat="15.114012" lon="-92.094412">
        <ele>2710.474896656259</ele>
        <time>2019-11-30T16:50:22Z</time>
      </trkpt>
      <trkpt lat="15.114058" lon="-92.094343">
        <ele>2711.1020911012374</ele>
        <time>2019-11-30T16:50:26Z</time>
      </trkpt>
      <trkpt lat="15.114053" lon="-92.094330">
        <ele>2712.2746069663</ele>
        <time>2019-11-30T16:50:31Z</time>
      </trkpt>
      <trkpt lat="15.114041" lon="-92.094324">
        <ele>2713.1103151821985</ele>
        <time>2019-11-30T16:50:35Z</time>
      </trkpt>
      <trkpt lat="15.114016" lon="-92.094280">
        <ele>2710.8607813674917</ele>
        <time>2019-11-30T16:50:40Z</time>
      </trkpt>
      <trkpt lat="15.114016" lon="-92.094267">
        <ele>2710.4734479129734</ele>
        <time>2019-11-30T16:50:44Z</time>
      </trkpt>
      <trkpt lat="15.114016" lon="-92.094267">
        <ele>2708.2857037723484</ele>
        <time>2019-11-30T16:50:58Z</time>
      </trkpt>
      <trkpt lat="15.113936" lon="-92.094430">
        <ele>2706.71336436362</ele>
        <time>2019-11-30T16:51:02Z</time>
      </trkpt>
      <trkpt lat="15.113856" lon="-92.094543">
        <ele>2703.048241427338</ele>
        <time>2019-11-30T16:51:06Z</time>
      </trkpt>
      <trkpt lat="15.113834" lon="-92.094551">
        <ele>2696.8895237359225</ele>
        <time>2019-11-30T16:51:11Z</time>
      </trkpt>
      <trkpt lat="15.113793" lon="-92.094550">
        <ele>2693.2337834480945</ele>
        <time>2019-11-30T16:51:15Z</time>
      </trkpt>
      <trkpt lat="15.113797" lon="-92.094539">
        <ele>2688.961425452559</ele>
        <time>2019-11-30T16:51:20Z</time>
      </trkpt>
      <trkpt lat="15.113803" lon="-92.094530">
        <ele>2684.5469882805137</ele>
        <time>2019-11-30T16:51:24Z</time>
      </trkpt>
      <trkpt lat="15.113801" lon="-92.094504">
        <ele>2681.3585131989944</ele>
        <time>2019-11-30T16:51:29Z</time>
      </trkpt>
      <trkpt lat="15.113790" lon="-92.094482">
        <ele>2678.4662876012417</ele>
        <time>2019-11-30T16:51:33Z</time>
      </trkpt>
      <trkpt lat="15.113779" lon="-92.094466">
        <ele>2676.9498389640244</ele>
        <time>2019-11-30T16:51:37Z</time>
      </trkpt>
      <trkpt lat="15.113739" lon="-92.094465">
        <ele>2673.8233800882153</ele>
        <time>2019-11-30T16:51:41Z</time>
      </trkpt>
      <trkpt lat="15.113600" lon="-92.094541">
        <ele>2669.5982178867457</ele>
        <time>2019-11-30T16:51:46Z</time>
      </trkpt>
      <trkpt lat="15.113510" lon="-92.094620">
        <ele>2668.7314196525213</ele>
        <time>2019-11-30T16:51:51Z</time>
      </trkpt>
      <trkpt lat="15.113502" lon="-92.094658">
        <ele>2671.685943436429</ele>
        <time>2019-11-30T16:51:55Z</time>
      </trkpt>
      <trkpt lat="15.113502" lon="-92.094658">
        <ele>2677.316558670804</ele>
        <time>2019-11-30T16:52:00Z</time>
      </trkpt>
      <trkpt lat="15.113502" lon="-92.094682">
        <ele>2681.598040776725</ele>
        <time>2019-11-30T16:52:04Z</time>
      </trkpt>
      <trkpt lat="15.113499" lon="-92.094671">
        <ele>2681.597953908677</ele>
        <time>2019-11-30T16:52:09Z</time>
      </trkpt>
      <trkpt lat="15.113496" lon="-92.094678">
        <ele>2683.660788587211</ele>
        <time>2019-11-30T16:52:32Z</time>
      </trkpt>
      <trkpt lat="15.113489" lon="-92.094700">
        <ele>2686.179845523493</ele>
        <time>2019-11-30T16:52:37Z</time>
      </trkpt>
      <trkpt lat="15.113479" lon="-92.094715">
        <ele>2687.652714059563</ele>
        <time>2019-11-30T16:52:41Z</time>
      </trkpt>
      <trkpt lat="15.113467" lon="-92.094729">
        <ele>2687.652936726186</ele>
        <time>2019-11-30T16:52:46Z</time>
      </trkpt>
      <trkpt lat="15.113462" lon="-92.094737">
        <ele>2687.6530439462886</ele>
        <time>2019-11-30T16:53:00Z</time>
      </trkpt>
      <trkpt lat="15.113459" lon="-92.094744">
        <ele>2687.9111906691746</ele>
        <time>2019-11-30T16:53:21Z</time>
      </trkpt>
      <trkpt lat="15.113450" lon="-92.094756">
        <ele>2689.8820690351095</ele>
        <time>2019-11-30T16:53:25Z</time>
      </trkpt>
      <trkpt lat="15.113444" lon="-92.094763">
        <ele>2689.8821798587232</ele>
        <time>2019-11-30T16:53:29Z</time>
      </trkpt>
      <trkpt lat="15.113438" lon="-92.094770">
        <ele>2692.3317522445827</ele>
        <time>2019-11-30T16:53:33Z</time>
      </trkpt>
      <trkpt lat="15.113427" lon="-92.094768">
        <ele>2694.8657402431118</ele>
        <time>2019-11-30T16:53:37Z</time>
      </trkpt>
      <trkpt lat="15.113419" lon="-92.094766">
        <ele>2694.865766252673</ele>
        <time>2019-11-30T16:53:47Z</time>
      </trkpt>
      <trkpt lat="15.113411" lon="-92.094763">
        <ele>2694.86579496708</ele>
        <time>2019-11-30T16:53:53Z</time>
      </trkpt>
      <trkpt lat="15.113408" lon="-92.094769">
        <ele>2695.4569252677616</ele>
        <time>2019-11-30T16:54:00Z</time>
      </trkpt>
      <trkpt lat="15.113417" lon="-92.094788">
        <ele>2697.4761039561918</ele>
        <time>2019-11-30T16:54:04Z</time>
      </trkpt>
      <trkpt lat="15.113427" lon="-92.094799">
        <ele>2697.4761493629426</ele>
        <time>2019-11-30T16:54:08Z</time>
      </trkpt>
      <trkpt lat="15.113433" lon="-92.094806">
        <ele>2697.4761774747294</ele>
        <time>2019-11-30T16:54:13Z</time>
      </trkpt>
      <trkpt lat="15.113438" lon="-92.094813">
        <ele>2698.2525760272893</ele>
        <time>2019-11-30T16:54:51Z</time>
      </trkpt>
      <trkpt lat="15.113442" lon="-92.094825">
        <ele>2698.865460575472</ele>
        <time>2019-11-30T16:54:55Z</time>
      </trkpt>
      <trkpt lat="15.113443" lon="-92.094832">
        <ele>2698.865526491692</ele>
        <time>2019-11-30T16:54:59Z</time>
      </trkpt>
      <trkpt lat="15.113444" lon="-92.094841">
        <ele>2699.0570154676802</ele>
        <time>2019-11-30T16:55:11Z</time>
      </trkpt>
      <trkpt lat="15.113448" lon="-92.094848">
        <ele>2699.5265385640123</ele>
        <time>2019-11-30T16:55:15Z</time>
      </trkpt>
      <trkpt lat="15.113455" lon="-92.094855">
        <ele>2699.5265609047888</ele>
        <time>2019-11-30T16:55:25Z</time>
      </trkpt>
      <trkpt lat="15.113457" lon="-92.094856">
        <ele>2699.9057037630005</ele>
        <time>2019-11-30T16:55:49Z</time>
      </trkpt>
      <trkpt lat="15.113477" lon="-92.094885">
        <ele>2699.637308556028</ele>
        <time>2019-11-30T16:55:53Z</time>
      </trkpt>
      <trkpt lat="15.113489" lon="-92.094897">
        <ele>2699.637349028367</ele>
        <time>2019-11-30T16:55:58Z</time>
      </trkpt>
      <trkpt lat="15.113495" lon="-92.094904">
        <ele>2699.637379496917</ele>
        <time>2019-11-30T16:56:05Z</time>
      </trkpt>
      <trkpt lat="15.113499" lon="-92.094908">
        <ele>2700.485297775506</ele>
        <time>2019-11-30T16:56:10Z</time>
      </trkpt>
      <trkpt lat="15.113513" lon="-92.094916">
        <ele>2700.895435309944</ele>
        <time>2019-11-30T16:56:15Z</time>
      </trkpt>
      <trkpt lat="15.113521" lon="-92.094918">
        <ele>2700.895404173331</ele>
        <time>2019-11-30T16:56:21Z</time>
      </trkpt>
      <trkpt lat="15.113526" lon="-92.094921">
        <ele>2701.192761975909</ele>
        <time>2019-11-30T16:56:31Z</time>
      </trkpt>
      <trkpt lat="15.113535" lon="-92.094936">
        <ele>2702.2299669541603</ele>
        <time>2019-11-30T16:56:35Z</time>
      </trkpt>
      <trkpt lat="15.113540" lon="-92.094942">
        <ele>2702.2299910173174</ele>
        <time>2019-11-30T16:56:39Z</time>
      </trkpt>
      <trkpt lat="15.113544" lon="-92.094949">
        <ele>2702.2300367193684</ele>
        <time>2019-11-30T16:57:15Z</time>
      </trkpt>
      <trkpt lat="15.113555" lon="-92.094956">
        <ele>2702.7451689354402</ele>
        <time>2019-11-30T16:57:19Z</time>
      </trkpt>
      <trkpt lat="15.113562" lon="-92.094961">
        <ele>2702.745172428917</ele>
        <time>2019-11-30T16:57:25Z</time>
      </trkpt>
      <trkpt lat="15.113569" lon="-92.094964">
        <ele>2702.9607345337927</ele>
        <time>2019-11-30T16:58:07Z</time>
      </trkpt>
      <trkpt lat="15.113574" lon="-92.094982">
        <ele>2702.977474727423</ele>
        <time>2019-11-30T16:58:12Z</time>
      </trkpt>
      <trkpt lat="15.113578" lon="-92.094991">
        <ele>2702.9775369861068</ele>
        <time>2019-11-30T16:58:17Z</time>
      </trkpt>
      <trkpt lat="15.113581" lon="-92.094999">
        <ele>2703.133358849342</ele>
        <time>2019-11-30T16:59:02Z</time>
      </trkpt>
      <trkpt lat="15.113599" lon="-92.095027">
        <ele>2703.48459992873</ele>
        <time>2019-11-30T16:59:06Z</time>
      </trkpt>
      <trkpt lat="15.113607" lon="-92.095049">
        <ele>2703.4847506997953</ele>
        <time>2019-11-30T16:59:11Z</time>
      </trkpt>
      <trkpt lat="15.113611" lon="-92.095057">
        <ele>2703.484807779469</ele>
        <time>2019-11-30T16:59:15Z</time>
      </trkpt>
      <trkpt lat="15.113615" lon="-92.095061">
        <ele>2705.0995714322653</ele>
        <time>2019-11-30T16:59:34Z</time>
      </trkpt>
      <trkpt lat="15.113660" lon="-92.095083">
        <ele>2705.755014414169</ele>
        <time>2019-11-30T16:59:39Z</time>
      </trkpt>
      <trkpt lat="15.113688" lon="-92.095092">
        <ele>2705.754917711893</ele>
        <time>2019-11-30T16:59:43Z</time>
      </trkpt>
      <trkpt lat="15.113704" lon="-92.095099">
        <ele>2705.754886594833</ele>
        <time>2019-11-30T16:59:47Z</time>
      </trkpt>
      <trkpt lat="15.113712" lon="-92.095103">
        <ele>2705.754867178752</ele>
        <time>2019-11-30T16:59:51Z</time>
      </trkpt>
      <trkpt lat="15.113717" lon="-92.095108">
        <ele>2706.505129700551</ele>
        <time>2019-11-30T16:59:56Z</time>
      </trkpt>
      <trkpt lat="15.113726" lon="-92.095122">
        <ele>2707.8452943917828</ele>
        <time>2019-11-30T17:00:00Z</time>
      </trkpt>
      <trkpt lat="15.113739" lon="-92.095146">
        <ele>2708.5725068773886</ele>
        <time>2019-11-30T17:00:05Z</time>
      </trkpt>
      <trkpt lat="15.113749" lon="-92.095160">
        <ele>2710.294260425645</ele>
        <time>2019-11-30T17:00:09Z</time>
      </trkpt>
      <trkpt lat="15.113768" lon="-92.095188">
        <ele>2710.3803362511844</ele>
        <time>2019-11-30T17:00:14Z</time>
      </trkpt>
      <trkpt lat="15.113776" lon="-92.095214">
        <ele>2711.5382628143075</ele>
        <time>2019-11-30T17:00:18Z</time>
      </trkpt>
      <trkpt lat="15.113787" lon="-92.095232">
        <ele>2711.5383663861226</ele>
        <time>2019-11-30T17:00:22Z</time>
      </trkpt>
      <trkpt lat="15.113793" lon="-92.095240">
        <ele>2711.5384030142777</ele>
        <time>2019-11-30T17:00:26Z</time>
      </trkpt>
      <trkpt lat="15.113794" lon="-92.095247">
        <ele>2711.5384655903185</ele>
        <time>2019-11-30T17:01:12Z</time>
      </trkpt>
      <trkpt lat="15.113800" lon="-92.095262">
        <ele>2712.507088968935</ele>
        <time>2019-11-30T17:01:16Z</time>
      </trkpt>
      <trkpt lat="15.113805" lon="-92.095283">
        <ele>2712.5072563770927</ele>
        <time>2019-11-30T17:01:20Z</time>
      </trkpt>
      <trkpt lat="15.113807" lon="-92.095295">
        <ele>2712.507360431708</ele>
        <time>2019-11-30T17:01:25Z</time>
      </trkpt>
      <trkpt lat="15.113808" lon="-92.095304">
        <ele>2712.507446037905</ele>
        <time>2019-11-30T17:01:53Z</time>
      </trkpt>
      <trkpt lat="15.113812" lon="-92.095312">
        <ele>2714.6073507062792</ele>
        <time>2019-11-30T17:01:58Z</time>
      </trkpt>
      <trkpt lat="15.113824" lon="-92.095354">
        <ele>2714.8916165707774</ele>
        <time>2019-11-30T17:02:03Z</time>
      </trkpt>
      <trkpt lat="15.113829" lon="-92.095383">
        <ele>2714.891865060962</ele>
        <time>2019-11-30T17:02:08Z</time>
      </trkpt>
      <trkpt lat="15.113832" lon="-92.095391">
        <ele>2714.8919301880373</ele>
        <time>2019-11-30T17:02:12Z</time>
      </trkpt>
      <trkpt lat="15.113838" lon="-92.095393">
        <ele>2715.4951887824673</ele>
        <time>2019-11-30T17:02:19Z</time>
      </trkpt>
      <trkpt lat="15.113850" lon="-92.095411">
        <ele>2718.1561744110722</ele>
        <time>2019-11-30T17:02:23Z</time>
      </trkpt>
      <trkpt lat="15.113857" lon="-92.095427">
        <ele>2719.6223480308495</ele>
        <time>2019-11-30T17:02:28Z</time>
      </trkpt>
      <trkpt lat="15.113861" lon="-92.095434">
        <ele>2719.622394741458</ele>
        <time>2019-11-30T17:02:32Z</time>
      </trkpt>
      <trkpt lat="15.113866" lon="-92.095442">
        <ele>2719.6224357814317</ele>
        <time>2019-11-30T17:02:43Z</time>
      </trkpt>
      <trkpt lat="15.113870" lon="-92.095444">
        <ele>2719.98693648147</ele>
        <time>2019-11-30T17:03:04Z</time>
      </trkpt>
      <trkpt lat="15.113883" lon="-92.095450">
        <ele>2720.4275859210975</ele>
        <time>2019-11-30T17:03:08Z</time>
      </trkpt>
      <trkpt lat="15.113884" lon="-92.095452">
        <ele>2720.427587280108</ele>
        <time>2019-11-30T17:03:25Z</time>
      </trkpt>
      <trkpt lat="15.113891" lon="-92.095458">
        <ele>2720.4276118654657</ele>
        <time>2019-11-30T17:03:33Z</time>
      </trkpt>
      <trkpt lat="15.113893" lon="-92.095464">
        <ele>2720.880780857118</ele>
        <time>2019-11-30T17:04:04Z</time>
      </trkpt>
      <trkpt lat="15.113907" lon="-92.095470">
        <ele>2721.161268698428</ele>
        <time>2019-11-30T17:04:08Z</time>
      </trkpt>
      <trkpt lat="15.113926" lon="-92.095492">
        <ele>2721.0414790026307</ele>
        <time>2019-11-30T17:04:12Z</time>
      </trkpt>
      <trkpt lat="15.113953" lon="-92.095528">
        <ele>2720.921542554917</ele>
        <time>2019-11-30T17:04:16Z</time>
      </trkpt>
      <trkpt lat="15.113976" lon="-92.095557">
        <ele>2721.332816903749</ele>
        <time>2019-11-30T17:04:20Z</time>
      </trkpt>
      <trkpt lat="15.114016" lon="-92.095608">
        <ele>2722.6252887289083</ele>
        <time>2019-11-30T17:04:25Z</time>
      </trkpt>
      <trkpt lat="15.114031" lon="-92.095630">
        <ele>2722.625419771095</ele>
        <time>2019-11-30T17:04:29Z</time>
      </trkpt>
      <trkpt lat="15.114039" lon="-92.095642">
        <ele>2722.6254758957957</ele>
        <time>2019-11-30T17:04:33Z</time>
      </trkpt>
      <trkpt lat="15.114047" lon="-92.095646">
        <ele>2722.6254720064035</ele>
        <time>2019-11-30T17:04:38Z</time>
      </trkpt>
      <trkpt lat="15.114051" lon="-92.095650">
        <ele>2723.1303649750166</ele>
        <time>2019-11-30T17:04:42Z</time>
      </trkpt>
      <trkpt lat="15.114067" lon="-92.095678">
        <ele>2725.467938236042</ele>
        <time>2019-11-30T17:04:46Z</time>
      </trkpt>
      <trkpt lat="15.114080" lon="-92.095706">
        <ele>2725.8184650067687</ele>
        <time>2019-11-30T17:04:50Z</time>
      </trkpt>
      <trkpt lat="15.114090" lon="-92.095726">
        <ele>2726.6889575103355</ele>
        <time>2019-11-30T17:04:54Z</time>
      </trkpt>
      <trkpt lat="15.114097" lon="-92.095751">
        <ele>2728.518998220257</ele>
        <time>2019-11-30T17:04:58Z</time>
      </trkpt>
      <trkpt lat="15.114109" lon="-92.095786">
        <ele>2728.8183370638726</ele>
        <time>2019-11-30T17:05:03Z</time>
      </trkpt>
      <trkpt lat="15.114116" lon="-92.095788">
        <ele>2734.2062513830706</ele>
        <time>2019-11-30T17:06:16Z</time>
      </trkpt>
      <trkpt lat="15.114135" lon="-92.095807">
        <ele>2736.725844564879</ele>
        <time>2019-11-30T17:06:21Z</time>
      </trkpt>
      <trkpt lat="15.114135" lon="-92.095807">
        <ele>2740.876723471129</ele>
        <time>2019-11-30T17:06:31Z</time>
      </trkpt>
      <trkpt lat="15.114230" lon="-92.095978">
        <ele>2740.877788841518</ele>
        <time>2019-11-30T17:06:35Z</time>
      </trkpt>
      <trkpt lat="15.114237" lon="-92.095990">
        <ele>2740.8778587415786</ele>
        <time>2019-11-30T17:06:40Z</time>
      </trkpt>
      <trkpt lat="15.114240" lon="-92.095998">
        <ele>2740.877915734872</ele>
        <time>2019-11-30T17:06:53Z</time>
      </trkpt>
      <trkpt lat="15.114242" lon="-92.095991">
        <ele>2752.3981039677087</ele>
        <time>2019-11-30T17:07:05Z</time>
      </trkpt>
      <trkpt lat="15.114246" lon="-92.095974">
        <ele>2752.397905073193</ele>
        <time>2019-11-30T17:07:09Z</time>
      </trkpt>
      <trkpt lat="15.114249" lon="-92.095965">
        <ele>2757.6509824131736</ele>
        <time>2019-11-30T17:07:32Z</time>
      </trkpt>
      <trkpt lat="15.114250" lon="-92.095955">
        <ele>2757.6508739844758</ele>
        <time>2019-11-30T17:07:36Z</time>
      </trkpt>
      <trkpt lat="15.114255" lon="-92.095957">
        <ele>2765.6330419415763</ele>
        <time>2019-11-30T17:08:12Z</time>
      </trkpt>
      <trkpt lat="15.114260" lon="-92.095971">
        <ele>2765.633144568411</ele>
        <time>2019-11-30T17:08:17Z</time>
      </trkpt>
      <trkpt lat="15.114273" lon="-92.095981">
        <ele>2766.6045892398765</ele>
        <time>2019-11-30T17:08:21Z</time>
      </trkpt>
      <trkpt lat="15.114277" lon="-92.096015">
        <ele>2767.1124673802747</ele>
        <time>2019-11-30T17:08:26Z</time>
      </trkpt>
      <trkpt lat="15.114279" lon="-92.096040">
        <ele>2767.1126988568876</ele>
        <time>2019-11-30T17:08:30Z</time>
      </trkpt>
      <trkpt lat="15.114279" lon="-92.096043">
        <ele>2767.1127293549316</ele>
        <time>2019-11-30T17:08:36Z</time>
      </trkpt>
      <trkpt lat="15.114285" lon="-92.096056">
        <ele>2768.9067628453395</ele>
        <time>2019-11-30T17:08:41Z</time>
      </trkpt>
      <trkpt lat="15.114293" lon="-92.096060">
        <ele>2768.906752871398</ele>
        <time>2019-11-30T17:08:47Z</time>
      </trkpt>
      <trkpt lat="15.114297" lon="-92.096065">
        <ele>2779.682655487426</ele>
        <time>2019-11-30T17:09:11Z</time>
      </trkpt>
      <trkpt lat="15.114266" lon="-92.096032">
        <ele>2786.45230547889</ele>
        <time>2019-11-30T17:09:16Z</time>
      </trkpt>
      <trkpt lat="15.114258" lon="-92.096027">
        <ele>2786.452310882664</ele>
        <time>2019-11-30T17:09:20Z</time>
      </trkpt>
      <trkpt lat="15.114261" lon="-92.096020">
        <ele>2789.33625109707</ele>
        <time>2019-11-30T17:09:52Z</time>
      </trkpt>
      <trkpt lat="15.114259" lon="-92.096027">
        <ele>2790.830477173211</ele>
        <time>2019-11-30T17:09:59Z</time>
      </trkpt>
      <trkpt lat="15.114267" lon="-92.096037">
        <ele>2791.38984676842</ele>
        <time>2019-11-30T17:10:04Z</time>
      </trkpt>
      <trkpt lat="15.114269" lon="-92.096045">
        <ele>2791.389916405796</ele>
        <time>2019-11-30T17:10:12Z</time>
      </trkpt>
      <trkpt lat="15.114276" lon="-92.096050">
        <ele>2791.3899218392858</ele>
        <time>2019-11-30T17:10:35Z</time>
      </trkpt>
      <trkpt lat="15.114302" lon="-92.096058">
        <ele>2794.7467608299144</ele>
        <time>2019-11-30T17:10:39Z</time>
      </trkpt>
      <trkpt lat="15.114323" lon="-92.096073">
        <ele>2796.3781244836405</ele>
        <time>2019-11-30T17:10:43Z</time>
      </trkpt>
      <trkpt lat="15.114331" lon="-92.096084">
        <ele>2796.3781801416144</ele>
        <time>2019-11-30T17:10:47Z</time>
      </trkpt>
      <trkpt lat="15.114335" lon="-92.096089">
        <ele>2796.724633569782</ele>
        <time>2019-11-30T17:11:16Z</time>
      </trkpt>
      <trkpt lat="15.114347" lon="-92.096107">
        <ele>2798.1807882960507</ele>
        <time>2019-11-30T17:11:21Z</time>
      </trkpt>
      <trkpt lat="15.114357" lon="-92.096136">
        <ele>2799.8289638631736</ele>
        <time>2019-11-30T17:11:25Z</time>
      </trkpt>
      <trkpt lat="15.114377" lon="-92.096170">
        <ele>2801.9729658186207</ele>
        <time>2019-11-30T17:11:29Z</time>
      </trkpt>
      <trkpt lat="15.114398" lon="-92.096187">
        <ele>2802.3384731164274</ele>
        <time>2019-11-30T17:11:34Z</time>
      </trkpt>
      <trkpt lat="15.114407" lon="-92.096192">
        <ele>2802.338465301316</ele>
        <time>2019-11-30T17:11:38Z</time>
      </trkpt>
      <trkpt lat="15.114414" lon="-92.096195">
        <ele>2803.0303418873623</ele>
        <time>2019-11-30T17:11:43Z</time>
      </trkpt>
      <trkpt lat="15.114430" lon="-92.096195">
        <ele>2804.7035849887234</ele>
        <time>2019-11-30T17:11:47Z</time>
      </trkpt>
      <trkpt lat="15.114433" lon="-92.096195">
        <ele>2805.0719763467305</ele>
        <time>2019-11-30T17:12:03Z</time>
      </trkpt>
      <trkpt lat="15.114463" lon="-92.096211">
        <ele>2805.840490794686</ele>
        <time>2019-11-30T17:12:08Z</time>
      </trkpt>
      <trkpt lat="15.114469" lon="-92.096216">
        <ele>2805.8404968892896</ele>
        <time>2019-11-30T17:12:13Z</time>
      </trkpt>
      <trkpt lat="15.114479" lon="-92.096225">
        <ele>2806.690138965374</ele>
        <time>2019-11-30T17:12:17Z</time>
      </trkpt>
      <trkpt lat="15.114498" lon="-92.096248">
        <ele>2808.347463652034</ele>
        <time>2019-11-30T17:12:21Z</time>
      </trkpt>
      <trkpt lat="15.114509" lon="-92.096259">
        <ele>2808.3475036152613</ele>
        <time>2019-11-30T17:12:25Z</time>
      </trkpt>
      <trkpt lat="15.114527" lon="-92.096286">
        <ele>2808.5707982109816</ele>
        <time>2019-11-30T17:12:30Z</time>
      </trkpt>
      <trkpt lat="15.114529" lon="-92.096295">
        <ele>2808.5708665451266</ele>
        <time>2019-11-30T17:12:40Z</time>
      </trkpt>
      <trkpt lat="15.114529" lon="-92.096311">
        <ele>2808.57102158279</ele>
        <time>2019-11-30T17:12:44Z</time>
      </trkpt>
      <trkpt lat="15.114530" lon="-92.096319">
        <ele>2809.7290560730107</ele>
        <time>2019-11-30T17:14:06Z</time>
      </trkpt>
      <trkpt lat="15.114541" lon="-92.096350">
        <ele>2811.091596715225</ele>
        <time>2019-11-30T17:14:11Z</time>
      </trkpt>
      <trkpt lat="15.114546" lon="-92.096368">
        <ele>2811.5292344018594</ele>
        <time>2019-11-30T17:14:15Z</time>
      </trkpt>
      <trkpt lat="15.114548" lon="-92.096382">
        <ele>2813.2625186197347</ele>
        <time>2019-11-30T17:14:19Z</time>
      </trkpt>
      <trkpt lat="15.114548" lon="-92.096393">
        <ele>2813.2626274699965</ele>
        <time>2019-11-30T17:14:23Z</time>
      </trkpt>
      <trkpt lat="15.114547" lon="-92.096402">
        <ele>2813.2627206483908</ele>
        <time>2019-11-30T17:14:34Z</time>
      </trkpt>
      <trkpt lat="15.114547" lon="-92.096411">
        <ele>2814.6324324190723</ele>
        <time>2019-11-30T17:14:39Z</time>
      </trkpt>
      <trkpt lat="15.114544" lon="-92.096428">
        <ele>2815.7168491829443</ele>
        <time>2019-11-30T17:14:44Z</time>
      </trkpt>
      <trkpt lat="15.114542" lon="-92.096436">
        <ele>2815.716949686926</ele>
        <time>2019-11-30T17:14:49Z</time>
      </trkpt>
      <trkpt lat="15.114540" lon="-92.096444">
        <ele>2818.9064883423825</ele>
        <time>2019-11-30T17:14:56Z</time>
      </trkpt>
      <trkpt lat="15.114539" lon="-92.096454">
        <ele>2818.9065955122187</ele>
        <time>2019-11-30T17:15:01Z</time>
      </trkpt>
      <trkpt lat="15.114543" lon="-92.096460">
        <ele>2820.689344996541</ele>
        <time>2019-11-30T17:15:10Z</time>
      </trkpt>
      <trkpt lat="15.114553" lon="-92.096474">
        <ele>2825.570769941199</ele>
        <time>2019-11-30T17:15:15Z</time>
      </trkpt>
      <trkpt lat="15.114561" lon="-92.096479">
        <ele>2826.4933728936485</ele>
        <time>2019-11-30T17:15:19Z</time>
      </trkpt>
      <trkpt lat="15.114569" lon="-92.096483">
        <ele>2827.414504306703</ele>
        <time>2019-11-30T17:16:13Z</time>
      </trkpt>
      <trkpt lat="15.114579" lon="-92.096499">
        <ele>2827.9858785921338</ele>
        <time>2019-11-30T17:16:18Z</time>
      </trkpt>
      <trkpt lat="15.114580" lon="-92.096501">
        <ele>2830.8855497226123</ele>
        <time>2019-11-30T17:16:29Z</time>
      </trkpt>
      <trkpt lat="15.114604" lon="-92.096528">
        <ele>2830.885666061849</ele>
        <time>2019-11-30T17:16:33Z</time>
      </trkpt>
      <trkpt lat="15.114612" lon="-92.096531">
        <ele>2831.1893554050725</ele>
        <time>2019-11-30T17:16:44Z</time>
      </trkpt>
      <trkpt lat="15.114620" lon="-92.096528">
        <ele>2831.417300458036</ele>
        <time>2019-11-30T17:16:49Z</time>
      </trkpt>
      <trkpt lat="15.114628" lon="-92.096528">
        <ele>2832.435069774391</ele>
        <time>2019-11-30T17:17:02Z</time>
      </trkpt>
      <trkpt lat="15.114654" lon="-92.096537">
        <ele>2835.541923887857</ele>
        <time>2019-11-30T17:17:06Z</time>
      </trkpt>
      <trkpt lat="15.114669" lon="-92.096556">
        <ele>2838.572528256084</ele>
        <time>2019-11-30T17:17:11Z</time>
      </trkpt>
      <trkpt lat="15.114669" lon="-92.096563">
        <ele>2838.996425235006</ele>
        <time>2019-11-30T17:17:20Z</time>
      </trkpt>
      <trkpt lat="15.114678" lon="-92.096569">
        <ele>2839.82308673585</ele>
        <time>2019-11-30T17:17:24Z</time>
      </trkpt>
      <trkpt lat="15.114688" lon="-92.096573">
        <ele>2841.370425344065</ele>
        <time>2019-11-30T17:17:28Z</time>
      </trkpt>
      <trkpt lat="15.114703" lon="-92.096576">
        <ele>2843.490966606552</ele>
        <time>2019-11-30T17:17:33Z</time>
      </trkpt>
      <trkpt lat="15.114713" lon="-92.096577">
        <ele>2843.4909150966632</ele>
        <time>2019-11-30T17:17:38Z</time>
      </trkpt>
      <trkpt lat="15.114721" lon="-92.096578">
        <ele>2844.4698675458217</ele>
        <time>2019-11-30T17:17:43Z</time>
      </trkpt>
      <trkpt lat="15.114730" lon="-92.096577">
        <ele>2844.4698096961433</ele>
        <time>2019-11-30T17:17:49Z</time>
      </trkpt>
      <trkpt lat="15.114732" lon="-92.096585">
        <ele>2845.333157388919</ele>
        <time>2019-11-30T17:17:54Z</time>
      </trkpt>
      <trkpt lat="15.114733" lon="-92.096593">
        <ele>2845.477269184595</ele>
        <time>2019-11-30T17:18:03Z</time>
      </trkpt>
      <trkpt lat="15.114743" lon="-92.096601">
        <ele>2847.3063844076482</ele>
        <time>2019-11-30T17:18:08Z</time>
      </trkpt>
      <trkpt lat="15.114750" lon="-92.096606">
        <ele>2847.517562264691</ele>
        <time>2019-11-30T17:18:18Z</time>
      </trkpt>
      <trkpt lat="15.114751" lon="-92.096613">
        <ele>2847.7935123354864</ele>
        <time>2019-11-30T17:18:22Z</time>
      </trkpt>
      <trkpt lat="15.114745" lon="-92.096658">
        <ele>2847.938524817144</ele>
        <time>2019-11-30T17:18:27Z</time>
      </trkpt>
      <trkpt lat="15.114747" lon="-92.096673">
        <ele>2847.938653127523</ele>
        <time>2019-11-30T17:18:31Z</time>
      </trkpt>
      <trkpt lat="15.114752" lon="-92.096684">
        <ele>2848.4909790015095</ele>
        <time>2019-11-30T17:18:36Z</time>
      </trkpt>
      <trkpt lat="15.114754" lon="-92.096700">
        <ele>2849.474035128502</ele>
        <time>2019-11-30T17:18:41Z</time>
      </trkpt>
      <trkpt lat="15.114746" lon="-92.096700">
        <ele>2850.7978148021743</ele>
        <time>2019-11-30T17:18:50Z</time>
      </trkpt>
      <trkpt lat="15.114728" lon="-92.096738">
        <ele>2850.572715193913</ele>
        <time>2019-11-30T17:18:55Z</time>
      </trkpt>
      <trkpt lat="15.114720" lon="-92.096753">
        <ele>2850.6327313236307</ele>
        <time>2019-11-30T17:18:59Z</time>
      </trkpt>
      <trkpt lat="15.114707" lon="-92.096755">
        <ele>2851.6750726958917</ele>
        <time>2019-11-30T17:19:04Z</time>
      </trkpt>
      <trkpt lat="15.114697" lon="-92.096758">
        <ele>2851.675168548861</ele>
        <time>2019-11-30T17:19:08Z</time>
      </trkpt>
      <trkpt lat="15.114689" lon="-92.096759">
        <ele>2857.443543230691</ele>
        <time>2019-11-30T17:19:22Z</time>
      </trkpt>
      <trkpt lat="15.114679" lon="-92.096767">
        <ele>2857.4436819106813</ele>
        <time>2019-11-30T17:19:26Z</time>
      </trkpt>
      <trkpt lat="15.114673" lon="-92.096773">
        <ele>2857.7262504732503</ele>
        <time>2019-11-30T17:19:32Z</time>
      </trkpt>
      <trkpt lat="15.114665" lon="-92.096777">
        <ele>2857.726343948819</ele>
        <time>2019-11-30T17:19:39Z</time>
      </trkpt>
      <trkpt lat="15.114671" lon="-92.096784">
        <ele>2858.680472774092</ele>
        <time>2019-11-30T17:19:55Z</time>
      </trkpt>
      <trkpt lat="15.114678" lon="-92.096787">
        <ele>2859.106728606079</ele>
        <time>2019-11-30T17:20:01Z</time>
      </trkpt>
      <trkpt lat="15.114686" lon="-92.096788">
        <ele>2859.3876873690524</ele>
        <time>2019-11-30T17:20:05Z</time>
      </trkpt>
      <trkpt lat="15.114694" lon="-92.096788">
        <ele>2859.3876391901968</ele>
        <time>2019-11-30T17:20:22Z</time>
      </trkpt>
      <trkpt lat="15.114695" lon="-92.096796">
        <ele>2860.4326382226136</ele>
        <time>2019-11-30T17:20:50Z</time>
      </trkpt>
      <trkpt lat="15.114694" lon="-92.096798">
        <ele>2860.435833772395</ele>
        <time>2019-11-30T17:21:01Z</time>
      </trkpt>
      <trkpt lat="15.114670" lon="-92.096852">
        <ele>2860.8195728779756</ele>
        <time>2019-11-30T17:21:05Z</time>
      </trkpt>
      <trkpt lat="15.114667" lon="-92.096866">
        <ele>2861.253811740342</ele>
        <time>2019-11-30T17:21:10Z</time>
      </trkpt>
      <trkpt lat="15.114666" lon="-92.096873">
        <ele>2861.808087395751</ele>
        <time>2019-11-30T17:21:14Z</time>
      </trkpt>
      <trkpt lat="15.114666" lon="-92.096881">
        <ele>2863.235660995374</ele>
        <time>2019-11-30T17:21:18Z</time>
      </trkpt>
      <trkpt lat="15.114662" lon="-92.096890">
        <ele>2863.235772666356</ele>
        <time>2019-11-30T17:21:23Z</time>
      </trkpt>
      <trkpt lat="15.114664" lon="-92.096899">
        <ele>2863.2358460357755</ele>
        <time>2019-11-30T17:21:39Z</time>
      </trkpt>
      <trkpt lat="15.114662" lon="-92.096908">
        <ele>2864.0548015266927</ele>
        <time>2019-11-30T17:21:43Z</time>
      </trkpt>
      <trkpt lat="15.114649" lon="-92.096924">
        <ele>2865.6505035245227</ele>
        <time>2019-11-30T17:21:47Z</time>
      </trkpt>
      <trkpt lat="15.114641" lon="-92.096940">
        <ele>2866.337471444806</ele>
        <time>2019-11-30T17:21:52Z</time>
      </trkpt>
      <trkpt lat="15.114633" lon="-92.096950">
        <ele>2866.890603477513</ele>
        <time>2019-11-30T17:21:56Z</time>
      </trkpt>
      <trkpt lat="15.114620" lon="-92.096966">
        <ele>2866.8908445365164</ele>
        <time>2019-11-30T17:22:01Z</time>
      </trkpt>
      <trkpt lat="15.114616" lon="-92.096973">
        <ele>2866.90387518423</ele>
        <time>2019-11-30T17:22:07Z</time>
      </trkpt>
      <trkpt lat="15.114604" lon="-92.096998">
        <ele>2868.0792505156046</ele>
        <time>2019-11-30T17:22:12Z</time>
      </trkpt>
      <trkpt lat="15.114595" lon="-92.097013">
        <ele>2868.079461288082</ele>
        <time>2019-11-30T17:22:16Z</time>
      </trkpt>
      <trkpt lat="15.114589" lon="-92.097025">
        <ele>2868.3093470054414</ele>
        <time>2019-11-30T17:22:21Z</time>
      </trkpt>
      <trkpt lat="15.114584" lon="-92.097035">
        <ele>2868.4242183339793</ele>
        <time>2019-11-30T17:22:25Z</time>
      </trkpt>
      <trkpt lat="15.114582" lon="-92.097042">
        <ele>2868.4243014376793</ele>
        <time>2019-11-30T17:22:36Z</time>
      </trkpt>
      <trkpt lat="15.114584" lon="-92.097045">
        <ele>2870.6794476462524</ele>
        <time>2019-11-30T17:23:46Z</time>
      </trkpt>
      <trkpt lat="15.114616" lon="-92.097062">
        <ele>2870.6794143907214</ele>
        <time>2019-11-30T17:23:51Z</time>
      </trkpt>
      <trkpt lat="15.114618" lon="-92.097064">
        <ele>2872.5546624716794</ele>
        <time>2019-11-30T17:24:08Z</time>
      </trkpt>
      <trkpt lat="15.114624" lon="-92.097094">
        <ele>2872.5549207016747</ele>
        <time>2019-11-30T17:24:12Z</time>
      </trkpt>
      <trkpt lat="15.114630" lon="-92.097106">
        <ele>2873.7988918513124</ele>
        <time>2019-11-30T17:24:16Z</time>
      </trkpt>
      <trkpt lat="15.114642" lon="-92.097124">
        <ele>2874.975266097057</ele>
        <time>2019-11-30T17:24:21Z</time>
      </trkpt>
      <trkpt lat="15.114646" lon="-92.097131">
        <ele>2874.9753107267397</ele>
        <time>2019-11-30T17:24:26Z</time>
      </trkpt>
      <trkpt lat="15.114651" lon="-92.097137">
        <ele>2877.299800626689</ele>
        <time>2019-11-30T17:24:39Z</time>
      </trkpt>
      <trkpt lat="15.114654" lon="-92.097156">
        <ele>2879.6053876833003</ele>
        <time>2019-11-30T17:24:44Z</time>
      </trkpt>
      <trkpt lat="15.114651" lon="-92.097176">
        <ele>2880.669812044053</ele>
        <time>2019-11-30T17:24:49Z</time>
      </trkpt>
      <trkpt lat="15.114649" lon="-92.097195">
        <ele>2880.525967018753</ele>
        <time>2019-11-30T17:24:54Z</time>
      </trkpt>
      <trkpt lat="15.114648" lon="-92.097204">
        <ele>2880.5260628156557</ele>
        <time>2019-11-30T17:24:58Z</time>
      </trkpt>
      <trkpt lat="15.114647" lon="-92.097213">
        <ele>2880.526157278899</ele>
        <time>2019-11-30T17:25:12Z</time>
      </trkpt>
      <trkpt lat="15.114651" lon="-92.097221">
        <ele>2880.991046891222</ele>
        <time>2019-11-30T17:25:19Z</time>
      </trkpt>
      <trkpt lat="15.114657" lon="-92.097236">
        <ele>2883.8253932732773</ele>
        <time>2019-11-30T17:25:23Z</time>
      </trkpt>
      <trkpt lat="15.114660" lon="-92.097246">
        <ele>2884.262483986609</ele>
        <time>2019-11-30T17:25:27Z</time>
      </trkpt>
      <trkpt lat="15.114663" lon="-92.097254">
        <ele>2884.26253982965</ele>
        <time>2019-11-30T17:25:34Z</time>
      </trkpt>
      <trkpt lat="15.114666" lon="-92.097259">
        <ele>2884.4066107413323</ele>
        <time>2019-11-30T17:25:38Z</time>
      </trkpt>
      <trkpt lat="15.114676" lon="-92.097271">
        <ele>2884.7426033120128</ele>
        <time>2019-11-30T17:25:43Z</time>
      </trkpt>
      <trkpt lat="15.114681" lon="-92.097278">
        <ele>2884.742639288062</ele>
        <time>2019-11-30T17:25:51Z</time>
      </trkpt>
      <trkpt lat="15.114683" lon="-92.097285">
        <ele>2885.4939204262328</ele>
        <time>2019-11-30T17:25:56Z</time>
      </trkpt>
      <trkpt lat="15.114688" lon="-92.097294">
        <ele>2887.0371873720355</ele>
        <time>2019-11-30T17:26:01Z</time>
      </trkpt>
      <trkpt lat="15.114690" lon="-92.097297">
        <ele>2887.6648851146742</ele>
        <time>2019-11-30T17:26:12Z</time>
      </trkpt>
      <trkpt lat="15.114698" lon="-92.097328">
        <ele>2888.080183361348</ele>
        <time>2019-11-30T17:26:16Z</time>
      </trkpt>
      <trkpt lat="15.114699" lon="-92.097337">
        <ele>2888.0802665334168</ele>
        <time>2019-11-30T17:26:21Z</time>
      </trkpt>
      <trkpt lat="15.114696" lon="-92.097345">
        <ele>2888.225870114978</ele>
        <time>2019-11-30T17:26:28Z</time>
      </trkpt>
      <trkpt lat="15.114701" lon="-92.097362">
        <ele>2888.6542259813277</ele>
        <time>2019-11-30T17:26:33Z</time>
      </trkpt>
      <trkpt lat="15.114709" lon="-92.097389">
        <ele>2888.718403921184</ele>
        <time>2019-11-30T17:26:37Z</time>
      </trkpt>
      <trkpt lat="15.114710" lon="-92.097408">
        <ele>2888.6582757320043</ele>
        <time>2019-11-30T17:26:41Z</time>
      </trkpt>
      <trkpt lat="15.114711" lon="-92.097419">
        <ele>2888.757022530088</ele>
        <time>2019-11-30T17:26:46Z</time>
      </trkpt>
      <trkpt lat="15.114717" lon="-92.097443">
        <ele>2889.4068746431712</ele>
        <time>2019-11-30T17:26:50Z</time>
      </trkpt>
      <trkpt lat="15.114725" lon="-92.097462">
        <ele>2889.407009599998</ele>
        <time>2019-11-30T17:26:54Z</time>
      </trkpt>
      <trkpt lat="15.114729" lon="-92.097473">
        <ele>2889.4070868260296</ele>
        <time>2019-11-30T17:26:59Z</time>
      </trkpt>
      <trkpt lat="15.114732" lon="-92.097481">
        <ele>2889.6422559204157</ele>
        <time>2019-11-30T17:27:03Z</time>
      </trkpt>
      <trkpt lat="15.114750" lon="-92.097514">
        <ele>2890.0213704752073</ele>
        <time>2019-11-30T17:27:08Z</time>
      </trkpt>
      <trkpt lat="15.114754" lon="-92.097526">
        <ele>2890.0214628808994</ele>
        <time>2019-11-30T17:27:12Z</time>
      </trkpt>
      <trkpt lat="15.114757" lon="-92.097534">
        <ele>2890.021527673979</ele>
        <time>2019-11-30T17:27:17Z</time>
      </trkpt>
      <trkpt lat="15.114764" lon="-92.097546">
        <ele>2891.00059980806</ele>
        <time>2019-11-30T17:27:22Z</time>
      </trkpt>
      <trkpt lat="15.114771" lon="-92.097554">
        <ele>2891.000638325344</ele>
        <time>2019-11-30T17:27:27Z</time>
      </trkpt>
      <trkpt lat="15.114775" lon="-92.097559">
        <ele>2892.6488530359834</ele>
        <time>2019-11-30T17:27:48Z</time>
      </trkpt>
      <trkpt lat="15.114785" lon="-92.097627">
        <ele>2892.6494559060448</ele>
        <time>2019-11-30T17:27:53Z</time>
      </trkpt>
      <trkpt lat="15.114785" lon="-92.097627">
        <ele>2892.6494559060448</ele>
        <time>2019-11-30T17:27:57Z</time>
      </trkpt>
      <trkpt lat="15.114794" lon="-92.097647">
        <ele>2892.649591077772</ele>
        <time>2019-11-30T17:28:02Z</time>
      </trkpt>
      <trkpt lat="15.114798" lon="-92.097653">
        <ele>2892.6496288959324</ele>
        <time>2019-11-30T17:28:34Z</time>
      </trkpt>
      <trkpt lat="15.114813" lon="-92.097661">
        <ele>2893.5751425917006</ele>
        <time>2019-11-30T17:28:39Z</time>
      </trkpt>
      <trkpt lat="15.114821" lon="-92.097665">
        <ele>2893.5751321374523</ele>
        <time>2019-11-30T17:28:44Z</time>
      </trkpt>
      <trkpt lat="15.114828" lon="-92.097669">
        <ele>2894.105153209378</ele>
        <time>2019-11-30T17:29:07Z</time>
      </trkpt>
      <trkpt lat="15.114867" lon="-92.097702">
        <ele>2895.0080683729207</ele>
        <time>2019-11-30T17:29:12Z</time>
      </trkpt>
      <trkpt lat="15.114891" lon="-92.097720">
        <ele>2895.8012984448796</ele>
        <time>2019-11-30T17:29:16Z</time>
      </trkpt>
      <trkpt lat="15.114924" lon="-92.097741">
        <ele>2898.737817533056</ele>
        <time>2019-11-30T17:29:20Z</time>
      </trkpt>
      <trkpt lat="15.114939" lon="-92.097751">
        <ele>2899.6252669233727</ele>
        <time>2019-11-30T17:29:24Z</time>
      </trkpt>
      <trkpt lat="15.114939" lon="-92.097751">
        <ele>2899.6252669233727</ele>
        <time>2019-11-30T17:29:30Z</time>
      </trkpt>
      <trkpt lat="15.114967" lon="-92.097766">
        <ele>2899.625236461676</ele>
        <time>2019-11-30T17:29:35Z</time>
      </trkpt>
      <trkpt lat="15.114973" lon="-92.097772">
        <ele>2900.969740001678</ele>
        <time>2019-11-30T17:29:46Z</time>
      </trkpt>
      <trkpt lat="15.114982" lon="-92.097789">
        <ele>2905.9036861973163</ele>
        <time>2019-11-30T17:29:51Z</time>
      </trkpt>
      <trkpt lat="15.114991" lon="-92.097787">
        <ele>2906.2356419562825</ele>
        <time>2019-11-30T17:29:58Z</time>
      </trkpt>
      <trkpt lat="15.114997" lon="-92.097787">
        <ele>2907.6008448939892</ele>
        <time>2019-11-30T17:30:03Z</time>
      </trkpt>
      <trkpt lat="15.115009" lon="-92.097791">
        <ele>2908.219450490408</ele>
        <time>2019-11-30T17:30:08Z</time>
      </trkpt>
      <trkpt lat="15.115017" lon="-92.097794">
        <ele>2908.219429881943</ele>
        <time>2019-11-30T17:30:49Z</time>
      </trkpt>
      <trkpt lat="15.115033" lon="-92.097816">
        <ele>2911.158020495027</ele>
        <time>2019-11-30T17:30:54Z</time>
      </trkpt>
      <trkpt lat="15.115060" lon="-92.097846">
        <ele>2914.4325598767523</ele>
        <time>2019-11-30T17:30:58Z</time>
      </trkpt>
      <trkpt lat="15.115068" lon="-92.097858">
        <ele>2916.202155779653</ele>
        <time>2019-11-30T17:31:03Z</time>
      </trkpt>
      <trkpt lat="15.115078" lon="-92.097868">
        <ele>2918.296912261825</ele>
        <time>2019-11-30T17:31:07Z</time>
      </trkpt>
      <trkpt lat="15.115107" lon="-92.097889">
        <ele>2921.975649175395</ele>
        <time>2019-11-30T17:31:12Z</time>
      </trkpt>
      <trkpt lat="15.115116" lon="-92.097899">
        <ele>2922.4212472984577</ele>
        <time>2019-11-30T17:31:16Z</time>
      </trkpt>
      <trkpt lat="15.115123" lon="-92.097906">
        <ele>2922.8905065056088</ele>
        <time>2019-11-30T17:31:20Z</time>
      </trkpt>
      <trkpt lat="15.115133" lon="-92.097910">
        <ele>2922.8904839639913</ele>
        <time>2019-11-30T17:31:25Z</time>
      </trkpt>
      <trkpt lat="15.115139" lon="-92.097915">
        <ele>2922.856069534701</ele>
        <time>2019-11-30T17:31:30Z</time>
      </trkpt>
      <trkpt lat="15.115147" lon="-92.097924">
        <ele>2922.905419165038</ele>
        <time>2019-11-30T17:31:35Z</time>
      </trkpt>
      <trkpt lat="15.115155" lon="-92.097924">
        <ele>2923.727633783651</ele>
        <time>2019-11-30T17:31:52Z</time>
      </trkpt>
      <trkpt lat="15.115166" lon="-92.097931">
        <ele>2924.1766038460714</ele>
        <time>2019-11-30T17:31:56Z</time>
      </trkpt>
      <trkpt lat="15.115187" lon="-92.097947">
        <ele>2925.8614463965387</ele>
        <time>2019-11-30T17:32:01Z</time>
      </trkpt>
      <trkpt lat="15.115208" lon="-92.097953">
        <ele>2926.945102950429</ele>
        <time>2019-11-30T17:32:05Z</time>
      </trkpt>
      <trkpt lat="15.115221" lon="-92.097955">
        <ele>2927.8505597612793</ele>
        <time>2019-11-30T17:32:09Z</time>
      </trkpt>
      <trkpt lat="15.115240" lon="-92.097958">
        <ele>2929.8084787175944</ele>
        <time>2019-11-30T17:32:13Z</time>
      </trkpt>
      <trkpt lat="15.115251" lon="-92.097957">
        <ele>2929.8083985884773</ele>
        <time>2019-11-30T17:32:17Z</time>
      </trkpt>
      <trkpt lat="15.115261" lon="-92.097963">
        <ele>2930.063027633467</ele>
        <time>2019-11-30T17:32:22Z</time>
      </trkpt>
      <trkpt lat="15.115265" lon="-92.097973">
        <ele>2930.188346411845</ele>
        <time>2019-11-30T17:32:27Z</time>
      </trkpt>
      <trkpt lat="15.115268" lon="-92.097982">
        <ele>2930.5321655127364</ele>
        <time>2019-11-30T17:32:46Z</time>
      </trkpt>
      <trkpt lat="15.115264" lon="-92.098005">
        <ele>2930.655217387506</ele>
        <time>2019-11-30T17:32:50Z</time>
      </trkpt>
      <trkpt lat="15.115266" lon="-92.098038">
        <ele>2931.00880404224</ele>
        <time>2019-11-30T17:32:54Z</time>
      </trkpt>
      <trkpt lat="15.115277" lon="-92.098068">
        <ele>2931.8893962757215</ele>
        <time>2019-11-30T17:32:59Z</time>
      </trkpt>
      <trkpt lat="15.115280" lon="-92.098103">
        <ele>2931.83089185697</ele>
        <time>2019-11-30T17:33:03Z</time>
      </trkpt>
      <trkpt lat="15.115269" lon="-92.098183">
        <ele>2932.19307442381</ele>
        <time>2019-11-30T17:33:08Z</time>
      </trkpt>
      <trkpt lat="15.115259" lon="-92.098237">
        <ele>2932.1011411123263</ele>
        <time>2019-11-30T17:33:13Z</time>
      </trkpt>
      <trkpt lat="15.115255" lon="-92.098269">
        <ele>2932.1962011493983</ele>
        <time>2019-11-30T17:33:17Z</time>
      </trkpt>
      <trkpt lat="15.115255" lon="-92.098280">
        <ele>2932.196314200839</ele>
        <time>2019-11-30T17:33:21Z</time>
      </trkpt>
      <trkpt lat="15.115255" lon="-92.098292">
        <ele>2932.19643304976</ele>
        <time>2019-11-30T17:33:26Z</time>
      </trkpt>
      <trkpt lat="15.115253" lon="-92.098308">
        <ele>2932.6514432991153</ele>
        <time>2019-11-30T17:33:31Z</time>
      </trkpt>
      <trkpt lat="15.115249" lon="-92.098329">
        <ele>2932.1960987978596</ele>
        <time>2019-11-30T17:33:36Z</time>
      </trkpt>
      <trkpt lat="15.115250" lon="-92.098348">
        <ele>2933.1174207739796</ele>
        <time>2019-11-30T17:33:40Z</time>
      </trkpt>
      <trkpt lat="15.115259" lon="-92.098363">
        <ele>2933.528401488602</ele>
        <time>2019-11-30T17:33:44Z</time>
      </trkpt>
      <trkpt lat="15.115259" lon="-92.098363">
        <ele>2933.528401488602</ele>
        <time>2019-11-30T17:33:51Z</time>
      </trkpt>
      <trkpt lat="15.115269" lon="-92.098380">
        <ele>2933.5285035884526</ele>
        <time>2019-11-30T17:33:55Z</time>
      </trkpt>
      <trkpt lat="15.115268" lon="-92.098384">
        <ele>2933.528556275368</ele>
        <time>2019-11-30T17:34:04Z</time>
      </trkpt>
      <trkpt lat="15.115268" lon="-92.098384">
        <ele>2933.528556275368</ele>
        <time>2019-11-30T17:34:05Z</time>
      </trkpt>
      <trkpt lat="15.115239" lon="-92.098342">
        <ele>2936.2864130178946</ele>
        <time>2019-11-30T18:14:37Z</time>
      </trkpt>
      <trkpt lat="15.115152" lon="-92.098357">
        <ele>2944.8873023811107</ele>
        <time>2019-11-30T18:14:42Z</time>
      </trkpt>
      <trkpt lat="15.115341" lon="-92.098449">
        <ele>2937.2042673141063</ele>
        <time>2019-11-30T18:14:46Z</time>
      </trkpt>
      <trkpt lat="15.115332" lon="-92.098451">
        <ele>2936.451897447408</ele>
        <time>2019-11-30T18:14:56Z</time>
      </trkpt>
      <trkpt lat="15.115313" lon="-92.098457">
        <ele>2937.001148108294</ele>
        <time>2019-11-30T18:15:00Z</time>
      </trkpt>
      <trkpt lat="15.115301" lon="-92.098458">
        <ele>2937.642591119616</ele>
        <time>2019-11-30T18:15:04Z</time>
      </trkpt>
      <trkpt lat="15.115307" lon="-92.098456">
        <ele>2938.71699898681</ele>
        <time>2019-11-30T18:15:32Z</time>
      </trkpt>
      <trkpt lat="15.115320" lon="-92.098465">
        <ele>2939.0607543688698</ele>
        <time>2019-11-30T18:15:36Z</time>
      </trkpt>
      <trkpt lat="15.115324" lon="-92.098461">
        <ele>2941.049455150242</ele>
        <time>2019-11-30T18:15:43Z</time>
      </trkpt>
      <trkpt lat="15.115334" lon="-92.098444">
        <ele>2941.064117812004</ele>
        <time>2019-11-30T18:15:47Z</time>
      </trkpt>
      <trkpt lat="15.115347" lon="-92.098414">
        <ele>2941.3755123513465</ele>
        <time>2019-11-30T18:15:52Z</time>
      </trkpt>
      <trkpt lat="15.115351" lon="-92.098404">
        <ele>2941.1595677325818</ele>
        <time>2019-11-30T18:15:56Z</time>
      </trkpt>
      <trkpt lat="15.115359" lon="-92.098397">
        <ele>2941.2285340857848</ele>
        <time>2019-11-30T18:16:01Z</time>
      </trkpt>
      <trkpt lat="15.115364" lon="-92.098389">
        <ele>2941.1246689272416</ele>
        <time>2019-11-30T18:16:06Z</time>
      </trkpt>
      <trkpt lat="15.115376" lon="-92.098378">
        <ele>2940.950890598277</ele>
        <time>2019-11-30T18:16:10Z</time>
      </trkpt>
      <trkpt lat="15.115397" lon="-92.098368">
        <ele>2940.63522800028</ele>
        <time>2019-11-30T18:16:15Z</time>
      </trkpt>
      <trkpt lat="15.115406" lon="-92.098364">
        <ele>2940.635137767404</ele>
        <time>2019-11-30T18:16:21Z</time>
      </trkpt>
      <trkpt lat="15.115412" lon="-92.098359">
        <ele>2940.8364648862084</ele>
        <time>2019-11-30T18:16:27Z</time>
      </trkpt>
      <trkpt lat="15.115425" lon="-92.098346">
        <ele>2942.0515909361707</ele>
        <time>2019-11-30T18:16:31Z</time>
      </trkpt>
      <trkpt lat="15.115437" lon="-92.098334">
        <ele>2942.7193547212773</ele>
        <time>2019-11-30T18:16:35Z</time>
      </trkpt>
      <trkpt lat="15.115439" lon="-92.098331">
        <ele>2944.3926596167626</ele>
        <time>2019-11-30T18:16:48Z</time>
      </trkpt>
      <trkpt lat="15.115473" lon="-92.098319">
        <ele>2944.4914441064425</ele>
        <time>2019-11-30T18:16:52Z</time>
      </trkpt>
      <trkpt lat="15.115493" lon="-92.098320">
        <ele>2945.3614422674614</ele>
        <time>2019-11-30T18:16:57Z</time>
      </trkpt>
      <trkpt lat="15.115518" lon="-92.098321">
        <ele>2945.9023097042227</ele>
        <time>2019-11-30T18:17:01Z</time>
      </trkpt>
      <trkpt lat="15.115537" lon="-92.098316">
        <ele>2946.8120379377774</ele>
        <time>2019-11-30T18:17:05Z</time>
      </trkpt>
      <trkpt lat="15.115556" lon="-92.098313">
        <ele>2947.0665270510945</ele>
        <time>2019-11-30T18:17:10Z</time>
      </trkpt>
      <trkpt lat="15.115570" lon="-92.098317">
        <ele>2947.0664769094774</ele>
        <time>2019-11-30T18:17:15Z</time>
      </trkpt>
      <trkpt lat="15.115577" lon="-92.098319">
        <ele>2947.066452079095</ele>
        <time>2019-11-30T18:17:35Z</time>
      </trkpt>
      <trkpt lat="15.115591" lon="-92.098321">
        <ele>2947.0641936534425</ele>
        <time>2019-11-30T18:17:39Z</time>
      </trkpt>
      <trkpt lat="15.115605" lon="-92.098328">
        <ele>2946.874474734882</ele>
        <time>2019-11-30T18:17:44Z</time>
      </trkpt>
      <trkpt lat="15.115616" lon="-92.098338">
        <ele>2947.0195208728746</ele>
        <time>2019-11-30T18:17:48Z</time>
      </trkpt>
      <trkpt lat="15.115626" lon="-92.098347">
        <ele>2947.019547918995</ele>
        <time>2019-11-30T18:17:52Z</time>
      </trkpt>
      <trkpt lat="15.115640" lon="-92.098356">
        <ele>2947.226330303075</ele>
        <time>2019-11-30T18:17:57Z</time>
      </trkpt>
      <trkpt lat="15.115652" lon="-92.098365">
        <ele>2947.7500201406065</ele>
        <time>2019-11-30T18:18:02Z</time>
      </trkpt>
      <trkpt lat="15.115666" lon="-92.098379">
        <ele>2947.5877131856078</ele>
        <time>2019-11-30T18:18:07Z</time>
      </trkpt>
      <trkpt lat="15.115674" lon="-92.098390">
        <ele>2948.130492853884</ele>
        <time>2019-11-30T18:18:11Z</time>
      </trkpt>
      <trkpt lat="15.115667" lon="-92.098422">
        <ele>2949.186762302763</ele>
        <time>2019-11-30T18:18:16Z</time>
      </trkpt>
      <trkpt lat="15.115667" lon="-92.098456">
        <ele>2949.526458149923</ele>
        <time>2019-11-30T18:18:21Z</time>
      </trkpt>
      <trkpt lat="15.115677" lon="-92.098487">
        <ele>2950.0984750714165</ele>
        <time>2019-11-30T18:18:25Z</time>
      </trkpt>
      <trkpt lat="15.115681" lon="-92.098504">
        <ele>2950.405746718305</ele>
        <time>2019-11-30T18:18:30Z</time>
      </trkpt>
      <trkpt lat="15.115680" lon="-92.098513">
        <ele>2950.4058354212275</ele>
        <time>2019-11-30T18:18:38Z</time>
      </trkpt>
      <trkpt lat="15.115682" lon="-92.098530">
        <ele>2951.3564343723124</ele>
        <time>2019-11-30T18:18:42Z</time>
      </trkpt>
      <trkpt lat="15.115690" lon="-92.098552">
        <ele>2951.764313077256</ele>
        <time>2019-11-30T18:18:47Z</time>
      </trkpt>
      <trkpt lat="15.115699" lon="-92.098566">
        <ele>2952.3066344366366</ele>
        <time>2019-11-30T18:18:52Z</time>
      </trkpt>
      <trkpt lat="15.115702" lon="-92.098585">
        <ele>2952.6529918885353</ele>
        <time>2019-11-30T18:18:56Z</time>
      </trkpt>
      <trkpt lat="15.115699" lon="-92.098611">
        <ele>2953.41913788293</ele>
        <time>2019-11-30T18:19:01Z</time>
      </trkpt>
      <trkpt lat="15.115695" lon="-92.098634">
        <ele>2956.1574195372323</ele>
        <time>2019-11-30T18:19:05Z</time>
      </trkpt>
      <trkpt lat="15.115696" lon="-92.098651">
        <ele>2956.4246738750717</ele>
        <time>2019-11-30T18:19:09Z</time>
      </trkpt>
      <trkpt lat="15.115706" lon="-92.098672">
        <ele>2956.1367320923464</ele>
        <time>2019-11-30T18:19:14Z</time>
      </trkpt>
      <trkpt lat="15.115716" lon="-92.098687">
        <ele>2956.09921727747</ele>
        <time>2019-11-30T18:19:18Z</time>
      </trkpt>
      <trkpt lat="15.115726" lon="-92.098714">
        <ele>2955.737605132015</ele>
        <time>2019-11-30T18:19:22Z</time>
      </trkpt>
      <trkpt lat="15.115731" lon="-92.098727">
        <ele>2955.460839604926</ele>
        <time>2019-11-30T18:19:27Z</time>
      </trkpt>
      <trkpt lat="15.115739" lon="-92.098742">
        <ele>2955.7932172935944</ele>
        <time>2019-11-30T18:19:31Z</time>
      </trkpt>
      <trkpt lat="15.115742" lon="-92.098761">
        <ele>2956.262134889731</ele>
        <time>2019-11-30T18:19:35Z</time>
      </trkpt>
      <trkpt lat="15.115741" lon="-92.098774">
        <ele>2956.428773698422</ele>
        <time>2019-11-30T18:19:39Z</time>
      </trkpt>
      <trkpt lat="15.115739" lon="-92.098782">
        <ele>2956.440827658887</ele>
        <time>2019-11-30T18:19:43Z</time>
      </trkpt>
      <trkpt lat="15.115739" lon="-92.098797">
        <ele>2957.151176452455</ele>
        <time>2019-11-30T18:19:47Z</time>
      </trkpt>
      <trkpt lat="15.115744" lon="-92.098818">
        <ele>2957.9565279052345</ele>
        <time>2019-11-30T18:19:51Z</time>
      </trkpt>
      <trkpt lat="15.115745" lon="-92.098827">
        <ele>2957.956612018898</ele>
        <time>2019-11-30T18:19:56Z</time>
      </trkpt>
      <trkpt lat="15.115745" lon="-92.098836">
        <ele>2958.289460621969</ele>
        <time>2019-11-30T18:20:01Z</time>
      </trkpt>
      <trkpt lat="15.115753" lon="-92.098856">
        <ele>2958.883362338533</ele>
        <time>2019-11-30T18:20:06Z</time>
      </trkpt>
      <trkpt lat="15.115762" lon="-92.098875">
        <ele>2959.4862715497493</ele>
        <time>2019-11-30T18:20:11Z</time>
      </trkpt>
      <trkpt lat="15.115765" lon="-92.098883">
        <ele>2959.4863375077684</ele>
        <time>2019-11-30T18:20:17Z</time>
      </trkpt>
      <trkpt lat="15.115766" lon="-92.098891">
        <ele>2959.661945933796</ele>
        <time>2019-11-30T18:20:22Z</time>
      </trkpt>
      <trkpt lat="15.115771" lon="-92.098900">
        <ele>2959.871227783653</ele>
        <time>2019-11-30T18:20:27Z</time>
      </trkpt>
      <trkpt lat="15.115785" lon="-92.098909">
        <ele>2961.4222528845817</ele>
        <time>2019-11-30T18:20:32Z</time>
      </trkpt>
      <trkpt lat="15.115804" lon="-92.098922">
        <ele>2962.4810870846572</ele>
        <time>2019-11-30T18:20:37Z</time>
      </trkpt>
      <trkpt lat="15.115821" lon="-92.098927">
        <ele>2962.347247663217</ele>
        <time>2019-11-30T18:20:42Z</time>
      </trkpt>
      <trkpt lat="15.115828" lon="-92.098931">
        <ele>2962.347238902804</ele>
        <time>2019-11-30T18:20:48Z</time>
      </trkpt>
      <trkpt lat="15.115829" lon="-92.098932">
        <ele>2962.750804904565</ele>
        <time>2019-11-30T18:20:55Z</time>
      </trkpt>
      <trkpt lat="15.115861" lon="-92.098977">
        <ele>2963.405100957401</ele>
        <time>2019-11-30T18:20:59Z</time>
      </trkpt>
      <trkpt lat="15.115878" lon="-92.099002">
        <ele>2964.0023990799837</ele>
        <time>2019-11-30T18:21:03Z</time>
      </trkpt>
      <trkpt lat="15.115884" lon="-92.099015">
        <ele>2964.085991386627</ele>
        <time>2019-11-30T18:21:07Z</time>
      </trkpt>
      <trkpt lat="15.115898" lon="-92.099032">
        <ele>2964.487681695168</ele>
        <time>2019-11-30T18:21:11Z</time>
      </trkpt>
      <trkpt lat="15.115905" lon="-92.099041">
        <ele>2964.487726030557</ele>
        <time>2019-11-30T18:21:16Z</time>
      </trkpt>
      <trkpt lat="15.115910" lon="-92.099047">
        <ele>2964.8339444955527</ele>
        <time>2019-11-30T18:21:22Z</time>
      </trkpt>
      <trkpt lat="15.115927" lon="-92.099059">
        <ele>2965.5004555261717</ele>
        <time>2019-11-30T18:21:26Z</time>
      </trkpt>
      <trkpt lat="15.115933" lon="-92.099064">
        <ele>2965.5004584074295</ele>
        <time>2019-11-30T18:21:30Z</time>
      </trkpt>
      <trkpt lat="15.115940" lon="-92.099067">
        <ele>2966.237267644021</ele>
        <time>2019-11-30T18:21:35Z</time>
      </trkpt>
      <trkpt lat="15.115952" lon="-92.099077">
        <ele>2967.318579144665</ele>
        <time>2019-11-30T18:21:40Z</time>
      </trkpt>
      <trkpt lat="15.115966" lon="-92.099090">
        <ele>2967.445092040167</ele>
        <time>2019-11-30T18:21:45Z</time>
      </trkpt>
      <trkpt lat="15.115982" lon="-92.099111">
        <ele>2968.0675135918</ele>
        <time>2019-11-30T18:21:49Z</time>
      </trkpt>
      <trkpt lat="15.115992" lon="-92.099135">
        <ele>2968.3860337638794</ele>
        <time>2019-11-30T18:21:53Z</time>
      </trkpt>
      <trkpt lat="15.115995" lon="-92.099142">
        <ele>2968.386085542633</ele>
        <time>2019-11-30T18:21:57Z</time>
      </trkpt>
      <trkpt lat="15.116000" lon="-92.099147">
        <ele>2969.832891010679</ele>
        <time>2019-11-30T18:22:01Z</time>
      </trkpt>
      <trkpt lat="15.116017" lon="-92.099152">
        <ele>2970.6404429091394</ele>
        <time>2019-11-30T18:22:06Z</time>
      </trkpt>
      <trkpt lat="15.116028" lon="-92.099161">
        <ele>2970.9900688605485</ele>
        <time>2019-11-30T18:22:10Z</time>
      </trkpt>
      <trkpt lat="15.116035" lon="-92.099168">
        <ele>2970.990097310076</ele>
        <time>2019-11-30T18:22:15Z</time>
      </trkpt>
      <trkpt lat="15.116041" lon="-92.099180">
        <ele>2971.7120994614456</ele>
        <time>2019-11-30T18:22:19Z</time>
      </trkpt>
      <trkpt lat="15.116045" lon="-92.099203">
        <ele>2972.6707956786145</ele>
        <time>2019-11-30T18:22:23Z</time>
      </trkpt>
      <trkpt lat="15.116055" lon="-92.099223">
        <ele>2973.1052542897105</ele>
        <time>2019-11-30T18:22:27Z</time>
      </trkpt>
      <trkpt lat="15.116063" lon="-92.099237">
        <ele>2973.4937660635246</ele>
        <time>2019-11-30T18:22:31Z</time>
      </trkpt>
      <trkpt lat="15.116071" lon="-92.099256">
        <ele>2973.713384494886</ele>
        <time>2019-11-30T18:22:36Z</time>
      </trkpt>
      <trkpt lat="15.116074" lon="-92.099265">
        <ele>2974.426831594503</ele>
        <time>2019-11-30T18:22:42Z</time>
      </trkpt>
      <trkpt lat="15.116080" lon="-92.099275">
        <ele>2974.975965263253</ele>
        <time>2019-11-30T18:22:46Z</time>
      </trkpt>
      <trkpt lat="15.116095" lon="-92.099297">
        <ele>2975.034683114641</ele>
        <time>2019-11-30T18:22:51Z</time>
      </trkpt>
      <trkpt lat="15.116103" lon="-92.099312">
        <ele>2975.2271598030534</ele>
        <time>2019-11-30T18:22:55Z</time>
      </trkpt>
      <trkpt lat="15.116106" lon="-92.099330">
        <ele>2975.5771731243135</ele>
        <time>2019-11-30T18:22:59Z</time>
      </trkpt>
      <trkpt lat="15.116116" lon="-92.099348">
        <ele>2976.6961783365264</ele>
        <time>2019-11-30T18:23:04Z</time>
      </trkpt>
      <trkpt lat="15.116139" lon="-92.099368">
        <ele>2977.096137679487</ele>
        <time>2019-11-30T18:23:09Z</time>
      </trkpt>
      <trkpt lat="15.116156" lon="-92.099387">
        <ele>2977.5800929259576</ele>
        <time>2019-11-30T18:23:13Z</time>
      </trkpt>
      <trkpt lat="15.116202" lon="-92.099417">
        <ele>2979.36012984163</ele>
        <time>2019-11-30T18:23:18Z</time>
      </trkpt>
      <trkpt lat="15.116214" lon="-92.099420">
        <ele>2980.0619844735456</ele>
        <time>2019-11-30T18:23:23Z</time>
      </trkpt>
      <trkpt lat="15.116233" lon="-92.099423">
        <ele>2980.7784543337293</ele>
        <time>2019-11-30T18:23:27Z</time>
      </trkpt>
      <trkpt lat="15.116244" lon="-92.099426">
        <ele>2980.7784105533096</ele>
        <time>2019-11-30T18:23:31Z</time>
      </trkpt>
      <trkpt lat="15.116252" lon="-92.099428">
        <ele>2980.7783773620713</ele>
        <time>2019-11-30T18:23:37Z</time>
      </trkpt>
      <trkpt lat="15.116259" lon="-92.099431">
        <ele>2981.169224304332</ele>
        <time>2019-11-30T18:23:47Z</time>
      </trkpt>
      <trkpt lat="15.116268" lon="-92.099435">
        <ele>2981.368914529599</ele>
        <time>2019-11-30T18:23:51Z</time>
      </trkpt>
      <trkpt lat="15.116275" lon="-92.099438">
        <ele>2981.435060528807</ele>
        <time>2019-11-30T18:23:57Z</time>
      </trkpt>
      <trkpt lat="15.116291" lon="-92.099442">
        <ele>2981.350527402705</ele>
        <time>2019-11-30T18:24:01Z</time>
      </trkpt>
      <trkpt lat="15.116300" lon="-92.099444">
        <ele>2982.08681686579</ele>
        <time>2019-11-30T18:24:05Z</time>
      </trkpt>
      <trkpt lat="15.116332" lon="-92.099458">
        <ele>2982.0757671135393</ele>
        <time>2019-11-30T18:24:10Z</time>
      </trkpt>
      <trkpt lat="15.116366" lon="-92.099471">
        <ele>2982.3222598330112</ele>
        <time>2019-11-30T18:24:14Z</time>
      </trkpt>
      <trkpt lat="15.116374" lon="-92.099474">
        <ele>2982.3222408570546</ele>
        <time>2019-11-30T18:24:18Z</time>
      </trkpt>
      <trkpt lat="15.116395" lon="-92.099484">
        <ele>2982.659358773571</ele>
        <time>2019-11-30T18:24:23Z</time>
      </trkpt>
      <trkpt lat="15.116425" lon="-92.099492">
        <ele>2982.8296532324157</ele>
        <time>2019-11-30T18:24:28Z</time>
      </trkpt>
      <trkpt lat="15.116437" lon="-92.099496">
        <ele>2982.8296127546737</ele>
        <time>2019-11-30T18:24:32Z</time>
      </trkpt>
      <trkpt lat="15.116453" lon="-92.099504">
        <ele>2983.20630542197</ele>
        <time>2019-11-30T18:24:36Z</time>
      </trkpt>
      <trkpt lat="15.116477" lon="-92.099515">
        <ele>2983.388389788089</ele>
        <time>2019-11-30T18:24:40Z</time>
      </trkpt>
      <trkpt lat="15.116496" lon="-92.099519">
        <ele>2984.072139456483</ele>
        <time>2019-11-30T18:24:44Z</time>
      </trkpt>
      <trkpt lat="15.116526" lon="-92.099525">
        <ele>2984.146227012496</ele>
        <time>2019-11-30T18:24:49Z</time>
      </trkpt>
      <trkpt lat="15.116544" lon="-92.099530">
        <ele>2984.8080219318563</ele>
        <time>2019-11-30T18:24:54Z</time>
      </trkpt>
      <trkpt lat="15.116573" lon="-92.099538">
        <ele>2985.0295980686583</ele>
        <time>2019-11-30T18:24:58Z</time>
      </trkpt>
      <trkpt lat="15.116592" lon="-92.099542">
        <ele>2985.6869908651165</ele>
        <time>2019-11-30T18:25:03Z</time>
      </trkpt>
      <trkpt lat="15.116617" lon="-92.099570">
        <ele>2986.6028777456922</ele>
        <time>2019-11-30T18:25:07Z</time>
      </trkpt>
      <trkpt lat="15.116652" lon="-92.099613">
        <ele>2988.2498088627804</ele>
        <time>2019-11-30T18:25:12Z</time>
      </trkpt>
      <trkpt lat="15.116664" lon="-92.099621">
        <ele>2988.312313653682</ele>
        <time>2019-11-30T18:25:16Z</time>
      </trkpt>
      <trkpt lat="15.116672" lon="-92.099626">
        <ele>2988.5586384103503</ele>
        <time>2019-11-30T18:25:20Z</time>
      </trkpt>
      <trkpt lat="15.116713" lon="-92.099631">
        <ele>2989.1487627615147</ele>
        <time>2019-11-30T18:25:25Z</time>
      </trkpt>
      <trkpt lat="15.116743" lon="-92.099631">
        <ele>2989.8992977231155</ele>
        <time>2019-11-30T18:25:29Z</time>
      </trkpt>
      <trkpt lat="15.116754" lon="-92.099629">
        <ele>2990.7065800191117</ele>
        <time>2019-11-30T18:25:34Z</time>
      </trkpt>
      <trkpt lat="15.116784" lon="-92.099635">
        <ele>2991.881747615331</ele>
        <time>2019-11-30T18:25:38Z</time>
      </trkpt>
      <trkpt lat="15.116816" lon="-92.099646">
        <ele>2993.2127085121933</ele>
        <time>2019-11-30T18:25:43Z</time>
      </trkpt>
      <trkpt lat="15.116835" lon="-92.099657">
        <ele>2994.1311423047446</ele>
        <time>2019-11-30T18:25:47Z</time>
      </trkpt>
      <trkpt lat="15.116846" lon="-92.099662">
        <ele>2995.235860575547</ele>
        <time>2019-11-30T18:25:52Z</time>
      </trkpt>
      <trkpt lat="15.116871" lon="-92.099675">
        <ele>2996.09764754609</ele>
        <time>2019-11-30T18:25:56Z</time>
      </trkpt>
      <trkpt lat="15.116898" lon="-92.099685">
        <ele>2996.3033877110743</ele>
        <time>2019-11-30T18:26:01Z</time>
      </trkpt>
      <trkpt lat="15.116907" lon="-92.099688">
        <ele>2996.3033600341037</ele>
        <time>2019-11-30T18:26:05Z</time>
      </trkpt>
      <trkpt lat="15.116915" lon="-92.099691">
        <ele>2996.3221295077487</ele>
        <time>2019-11-30T18:26:11Z</time>
      </trkpt>
      <trkpt lat="15.116924" lon="-92.099695">
        <ele>2998.193202081282</ele>
        <time>2019-11-30T18:26:16Z</time>
      </trkpt>
      <trkpt lat="15.116943" lon="-92.099704">
        <ele>2999.6929328293627</ele>
        <time>2019-11-30T18:26:20Z</time>
      </trkpt>
      <trkpt lat="15.116972" lon="-92.099715">
        <ele>3001.1891891092464</ele>
        <time>2019-11-30T18:26:24Z</time>
      </trkpt>
      <trkpt lat="15.116990" lon="-92.099725">
        <ele>3002.250209423772</ele>
        <time>2019-11-30T18:26:28Z</time>
      </trkpt>
      <trkpt lat="15.117013" lon="-92.099742">
        <ele>3002.250230638438</ele>
        <time>2019-11-30T18:26:33Z</time>
      </trkpt>
      <trkpt lat="15.117024" lon="-92.099750">
        <ele>3002.2502382982307</ele>
        <time>2019-11-30T18:26:38Z</time>
      </trkpt>
      <trkpt lat="15.117031" lon="-92.099756">
        <ele>3002.333746278725</ele>
        <time>2019-11-30T18:26:44Z</time>
      </trkpt>
      <trkpt lat="15.117040" lon="-92.099766">
        <ele>3002.594046060529</ele>
        <time>2019-11-30T18:26:48Z</time>
      </trkpt>
      <trkpt lat="15.117051" lon="-92.099774">
        <ele>3002.594056935547</ele>
        <time>2019-11-30T18:26:52Z</time>
      </trkpt>
      <trkpt lat="15.117057" lon="-92.099779">
        <ele>3002.922431021375</ele>
        <time>2019-11-30T18:26:57Z</time>
      </trkpt>
      <trkpt lat="15.117069" lon="-92.099793">
        <ele>3005.0782553060053</ele>
        <time>2019-11-30T18:27:02Z</time>
      </trkpt>
      <trkpt lat="15.117091" lon="-92.099817">
        <ele>3005.295154580152</ele>
        <time>2019-11-30T18:27:06Z</time>
      </trkpt>
      <trkpt lat="15.117104" lon="-92.099827">
        <ele>3005.2951675615145</ele>
        <time>2019-11-30T18:27:10Z</time>
      </trkpt>
      <trkpt lat="15.117112" lon="-92.099834">
        <ele>3006.2890753920915</ele>
        <time>2019-11-30T18:27:14Z</time>
      </trkpt>
      <trkpt lat="15.117126" lon="-92.099846">
        <ele>3006.7839832606905</ele>
        <time>2019-11-30T18:27:18Z</time>
      </trkpt>
      <trkpt lat="15.117152" lon="-92.099866">
        <ele>3006.882155484983</ele>
        <time>2019-11-30T18:27:22Z</time>
      </trkpt>
      <trkpt lat="15.117176" lon="-92.099891">
        <ele>3009.1896184721995</ele>
        <time>2019-11-30T18:27:27Z</time>
      </trkpt>
      <trkpt lat="15.117190" lon="-92.099918">
        <ele>3010.9427260265916</ele>
        <time>2019-11-30T18:27:31Z</time>
      </trkpt>
      <trkpt lat="15.117198" lon="-92.099934">
        <ele>3010.9428377925947</ele>
        <time>2019-11-30T18:27:35Z</time>
      </trkpt>
      <trkpt lat="15.117203" lon="-92.099943">
        <ele>3011.3508506936396</ele>
        <time>2019-11-30T18:27:39Z</time>
      </trkpt>
      <trkpt lat="15.117211" lon="-92.099953">
        <ele>3011.489330216433</ele>
        <time>2019-11-30T18:27:43Z</time>
      </trkpt>
      <trkpt lat="15.117216" lon="-92.099960">
        <ele>3011.4893638825833</ele>
        <time>2019-11-30T18:27:47Z</time>
      </trkpt>
      <trkpt lat="15.117219" lon="-92.099968">
        <ele>3010.757004733297</ele>
        <time>2019-11-30T18:27:53Z</time>
      </trkpt>
      <trkpt lat="15.117251" lon="-92.099969">
        <ele>3010.3168656569965</ele>
        <time>2019-11-30T18:27:57Z</time>
      </trkpt>
      <trkpt lat="15.117266" lon="-92.099982">
        <ele>3010.0556644362637</ele>
        <time>2019-11-30T18:28:02Z</time>
      </trkpt>
      <trkpt lat="15.117275" lon="-92.100002">
        <ele>3008.802879348594</ele>
        <time>2019-11-30T18:28:06Z</time>
      </trkpt>
      <trkpt lat="15.117283" lon="-92.100011">
        <ele>3008.802910298342</ele>
        <time>2019-11-30T18:28:10Z</time>
      </trkpt>
      <trkpt lat="15.117291" lon="-92.100015">
        <ele>3008.8029036146845</ele>
        <time>2019-11-30T18:28:18Z</time>
      </trkpt>
      <trkpt lat="15.117302" lon="-92.100019">
        <ele>3008.1649346236313</ele>
        <time>2019-11-30T18:28:22Z</time>
      </trkpt>
      <trkpt lat="15.117323" lon="-92.100032">
        <ele>3008.643445081602</ele>
        <time>2019-11-30T18:28:26Z</time>
      </trkpt>
      <trkpt lat="15.117354" lon="-92.100055">
        <ele>3009.457439884499</ele>
        <time>2019-11-30T18:28:30Z</time>
      </trkpt>
      <trkpt lat="15.117384" lon="-92.100079">
        <ele>3010.1554775678874</ele>
        <time>2019-11-30T18:28:35Z</time>
      </trkpt>
      <trkpt lat="15.117392" lon="-92.100086">
        <ele>3010.155498618371</ele>
        <time>2019-11-30T18:28:39Z</time>
      </trkpt>
      <trkpt lat="15.117398" lon="-92.100093">
        <ele>3010.6115836048357</ele>
        <time>2019-11-30T18:28:43Z</time>
      </trkpt>
      <trkpt lat="15.117433" lon="-92.100127">
        <ele>3013.867798759094</ele>
        <time>2019-11-30T18:28:48Z</time>
      </trkpt>
      <trkpt lat="15.117451" lon="-92.100152">
        <ele>3016.3149534716363</ele>
        <time>2019-11-30T18:28:52Z</time>
      </trkpt>
      <trkpt lat="15.117466" lon="-92.100167">
        <ele>3017.4258451041947</ele>
        <time>2019-11-30T18:28:56Z</time>
      </trkpt>
      <trkpt lat="15.117471" lon="-92.100177">
        <ele>3018.639774388005</ele>
        <time>2019-11-30T18:29:00Z</time>
      </trkpt>
      <trkpt lat="15.117480" lon="-92.100192">
        <ele>3018.713104470609</ele>
        <time>2019-11-30T18:29:04Z</time>
      </trkpt>
      <trkpt lat="15.117490" lon="-92.100208">
        <ele>3018.679024640698</ele>
        <time>2019-11-30T18:29:08Z</time>
      </trkpt>
      <trkpt lat="15.117509" lon="-92.100240">
        <ele>3018.4052935188215</ele>
        <time>2019-11-30T18:29:13Z</time>
      </trkpt>
      <trkpt lat="15.117527" lon="-92.100269">
        <ele>3019.2333438878395</ele>
        <time>2019-11-30T18:29:18Z</time>
      </trkpt>
      <trkpt lat="15.117565" lon="-92.100312">
        <ele>3019.3311817879817</ele>
        <time>2019-11-30T18:29:22Z</time>
      </trkpt>
      <trkpt lat="15.117579" lon="-92.100329">
        <ele>3019.533900054722</ele>
        <time>2019-11-30T18:29:26Z</time>
      </trkpt>
      <trkpt lat="15.117602" lon="-92.100353">
        <ele>3020.3367280555676</ele>
        <time>2019-11-30T18:29:31Z</time>
      </trkpt>
      <trkpt lat="15.117610" lon="-92.100372">
        <ele>3020.9955589741744</ele>
        <time>2019-11-30T18:29:35Z</time>
      </trkpt>
      <trkpt lat="15.117612" lon="-92.100398">
        <ele>3021.5199696730224</ele>
        <time>2019-11-30T18:29:39Z</time>
      </trkpt>
      <trkpt lat="15.117615" lon="-92.100423">
        <ele>3021.389088181813</ele>
        <time>2019-11-30T18:29:43Z</time>
      </trkpt>
      <trkpt lat="15.117617" lon="-92.100440">
        <ele>3021.389243680903</ele>
        <time>2019-11-30T18:29:47Z</time>
      </trkpt>
      <trkpt lat="15.117626" lon="-92.100456">
        <ele>3022.489686156632</ele>
        <time>2019-11-30T18:29:52Z</time>
      </trkpt>
      <trkpt lat="15.117644" lon="-92.100483">
        <ele>3022.48983660978</ele>
        <time>2019-11-30T18:29:57Z</time>
      </trkpt>
      <trkpt lat="15.117653" lon="-92.100499">
        <ele>3021.646190083577</ele>
        <time>2019-11-30T18:30:02Z</time>
      </trkpt>
      <trkpt lat="15.117666" lon="-92.100524">
        <ele>3019.407097089357</ele>
        <time>2019-11-30T18:30:06Z</time>
      </trkpt>
      <trkpt lat="15.117691" lon="-92.100569">
        <ele>3019.407379342229</ele>
        <time>2019-11-30T18:30:11Z</time>
      </trkpt>
      <trkpt lat="15.117699" lon="-92.100584">
        <ele>3019.407479876315</ele>
        <time>2019-11-30T18:30:15Z</time>
      </trkpt>
      <trkpt lat="15.117700" lon="-92.100592">
        <ele>3019.44197576824</ele>
        <time>2019-11-30T18:30:20Z</time>
      </trkpt>
      <trkpt lat="15.117698" lon="-92.100602">
        <ele>3019.442082667173</ele>
        <time>2019-11-30T18:30:25Z</time>
      </trkpt>
      <trkpt lat="15.117695" lon="-92.100610">
        <ele>3019.8115726211236</ele>
        <time>2019-11-30T18:30:34Z</time>
      </trkpt>
      <trkpt lat="15.117688" lon="-92.100617">
        <ele>3020.268473342114</ele>
        <time>2019-11-30T18:30:39Z</time>
      </trkpt>
      <trkpt lat="15.117688" lon="-92.100617">
        <ele>3020.268473342114</ele>
        <time>2019-11-30T18:32:06Z</time>
      </trkpt>
      <trkpt lat="15.117678" lon="-92.100625">
        <ele>3020.26861382512</ele>
        <time>2019-11-30T18:32:10Z</time>
      </trkpt>
      <trkpt lat="15.117671" lon="-92.100627">
        <ele>3021.509648391831</ele>
        <time>2019-11-30T18:32:31Z</time>
      </trkpt>
      <trkpt lat="15.117662" lon="-92.100628">
        <ele>3021.5097121805384</ele>
        <time>2019-11-30T18:32:36Z</time>
      </trkpt>
      <trkpt lat="15.117659" lon="-92.100637">
        <ele>3021.8333125671934</ele>
        <time>2019-11-30T18:32:41Z</time>
      </trkpt>
      <trkpt lat="15.117654" lon="-92.100649">
        <ele>3021.8334592834017</ele>
        <time>2019-11-30T18:32:45Z</time>
      </trkpt>
      <trkpt lat="15.117650" lon="-92.100657">
        <ele>3021.833565480985</ele>
        <time>2019-11-30T18:32:51Z</time>
      </trkpt>
      <trkpt lat="15.117660" lon="-92.100662">
        <ele>3022.813281763806</ele>
        <time>2019-11-30T18:32:56Z</time>
      </trkpt>
      <trkpt lat="15.117671" lon="-92.100661">
        <ele>3022.8583716407593</ele>
        <time>2019-11-30T18:33:00Z</time>
      </trkpt>
      <trkpt lat="15.117677" lon="-92.100655">
        <ele>3023.0657926437084</ele>
        <time>2019-11-30T18:33:12Z</time>
      </trkpt>
      <trkpt lat="15.117673" lon="-92.100650">
        <ele>3023.9873937332277</ele>
        <time>2019-11-30T18:33:17Z</time>
      </trkpt>
      <trkpt lat="15.117646" lon="-92.100667">
        <ele>3023.987741879383</ele>
        <time>2019-11-30T18:33:21Z</time>
      </trkpt>
      <trkpt lat="15.117636" lon="-92.100672">
        <ele>3023.698054422169</ele>
        <time>2019-11-30T18:33:25Z</time>
      </trkpt>
      <trkpt lat="15.117631" lon="-92.100679">
        <ele>3022.248937519892</ele>
        <time>2019-11-30T18:33:29Z</time>
      </trkpt>
      <trkpt lat="15.117607" lon="-92.100711">
        <ele>3021.4759724294636</ele>
        <time>2019-11-30T18:33:34Z</time>
      </trkpt>
      <trkpt lat="15.117573" lon="-92.100753">
        <ele>3021.711469991819</ele>
        <time>2019-11-30T18:33:38Z</time>
      </trkpt>
      <trkpt lat="15.117564" lon="-92.100770">
        <ele>3021.7116952897677</ele>
        <time>2019-11-30T18:33:43Z</time>
      </trkpt>
      <trkpt lat="15.117557" lon="-92.100773">
        <ele>3022.278902105723</ele>
        <time>2019-11-30T18:33:47Z</time>
      </trkpt>
      <trkpt lat="15.117544" lon="-92.100773">
        <ele>3022.307552113866</ele>
        <time>2019-11-30T18:33:51Z</time>
      </trkpt>
      <trkpt lat="15.117524" lon="-92.100772">
        <ele>3022.961728370831</ele>
        <time>2019-11-30T18:33:55Z</time>
      </trkpt>
      <trkpt lat="15.117508" lon="-92.100772">
        <ele>3023.6034282903533</ele>
        <time>2019-11-30T18:33:59Z</time>
      </trkpt>
      <trkpt lat="15.117492" lon="-92.100761">
        <ele>3024.431303813552</ele>
        <time>2019-11-30T18:34:03Z</time>
      </trkpt>
      <trkpt lat="15.117454" lon="-92.100769">
        <ele>3023.5041367211898</ele>
        <time>2019-11-30T18:34:08Z</time>
      </trkpt>
      <trkpt lat="15.117434" lon="-92.100785">
        <ele>3024.8874794064573</ele>
        <time>2019-11-30T18:34:12Z</time>
      </trkpt>
      <trkpt lat="15.117422" lon="-92.100800">
        <ele>3028.0603126273627</ele>
        <time>2019-11-30T18:34:16Z</time>
      </trkpt>
      <trkpt lat="15.117411" lon="-92.100813">
        <ele>3028.779250595138</ele>
        <time>2019-11-30T18:34:20Z</time>
      </trkpt>
      <trkpt lat="15.117405" lon="-92.100818">
        <ele>3028.647992841996</ele>
        <time>2019-11-30T18:34:28Z</time>
      </trkpt>
      <trkpt lat="15.117404" lon="-92.100826">
        <ele>3029.173475524087</ele>
        <time>2019-11-30T18:34:32Z</time>
      </trkpt>
      <trkpt lat="15.117400" lon="-92.100834">
        <ele>3029.5783663821326</ele>
        <time>2019-11-30T18:34:43Z</time>
      </trkpt>
      <trkpt lat="15.117415" lon="-92.100874">
        <ele>3029.760303885636</ele>
        <time>2019-11-30T18:34:48Z</time>
      </trkpt>
      <trkpt lat="15.117420" lon="-92.100882">
        <ele>3029.760353000671</ele>
        <time>2019-11-30T18:34:54Z</time>
      </trkpt>
      <trkpt lat="15.117426" lon="-92.100897">
        <ele>3031.3549421721773</ele>
        <time>2019-11-30T18:34:59Z</time>
      </trkpt>
      <trkpt lat="15.117426" lon="-92.100906">
        <ele>3031.355032468939</ele>
        <time>2019-11-30T18:35:04Z</time>
      </trkpt>
      <trkpt lat="15.117427" lon="-92.100914">
        <ele>3031.2376697463783</ele>
        <time>2019-11-30T18:35:13Z</time>
      </trkpt>
      <trkpt lat="15.117437" lon="-92.100916">
        <ele>3031.6726815848533</ele>
        <time>2019-11-30T18:35:17Z</time>
      </trkpt>
      <trkpt lat="15.117445" lon="-92.100920">
        <ele>3031.7373681356867</ele>
        <time>2019-11-30T18:35:21Z</time>
      </trkpt>
      <trkpt lat="15.117459" lon="-92.100935">
        <ele>3031.5870378718937</ele>
        <time>2019-11-30T18:35:26Z</time>
      </trkpt>
      <trkpt lat="15.117471" lon="-92.100954">
        <ele>3031.9147918722465</ele>
        <time>2019-11-30T18:35:30Z</time>
      </trkpt>
      <trkpt lat="15.117478" lon="-92.100976">
        <ele>3032.331711381019</ele>
        <time>2019-11-30T18:35:35Z</time>
      </trkpt>
      <trkpt lat="15.117484" lon="-92.100991">
        <ele>3032.814974486852</ele>
        <time>2019-11-30T18:35:39Z</time>
      </trkpt>
      <trkpt lat="15.117489" lon="-92.101001">
        <ele>3033.137795793989</ele>
        <time>2019-11-30T18:35:43Z</time>
      </trkpt>
      <trkpt lat="15.117503" lon="-92.101020">
        <ele>3034.0509791150876</ele>
        <time>2019-11-30T18:35:47Z</time>
      </trkpt>
      <trkpt lat="15.117507" lon="-92.101033">
        <ele>3034.051080774941</ele>
        <time>2019-11-30T18:35:52Z</time>
      </trkpt>
      <trkpt lat="15.117513" lon="-92.101040">
        <ele>3034.051111619663</ele>
        <time>2019-11-30T18:36:02Z</time>
      </trkpt>
      <trkpt lat="15.117521" lon="-92.101041">
        <ele>3033.608447477265</ele>
        <time>2019-11-30T18:36:16Z</time>
      </trkpt>
      <trkpt lat="15.117541" lon="-92.101061">
        <ele>3033.6978678367154</ele>
        <time>2019-11-30T18:36:20Z</time>
      </trkpt>
      <trkpt lat="15.117557" lon="-92.101088">
        <ele>3035.1015960597488</ele>
        <time>2019-11-30T18:36:24Z</time>
      </trkpt>
      <trkpt lat="15.117565" lon="-92.101109">
        <ele>3036.3119600376804</ele>
        <time>2019-11-30T18:36:28Z</time>
      </trkpt>
      <trkpt lat="15.117569" lon="-92.101123">
        <ele>3038.2605603938505</ele>
        <time>2019-11-30T18:36:33Z</time>
      </trkpt>
      <trkpt lat="15.117574" lon="-92.101132">
        <ele>3038.260616238203</ele>
        <time>2019-11-30T18:36:37Z</time>
      </trkpt>
      <trkpt lat="15.117580" lon="-92.101140">
        <ele>3039.1910790493216</ele>
        <time>2019-11-30T18:36:41Z</time>
      </trkpt>
      <trkpt lat="15.117595" lon="-92.101141">
        <ele>3040.4456287842536</ele>
        <time>2019-11-30T18:36:46Z</time>
      </trkpt>
      <trkpt lat="15.117603" lon="-92.101139">
        <ele>3040.8933155563363</ele>
        <time>2019-11-30T18:36:50Z</time>
      </trkpt>
      <trkpt lat="15.117614" lon="-92.101134">
        <ele>3041.8416853816243</ele>
        <time>2019-11-30T18:36:54Z</time>
      </trkpt>
      <trkpt lat="15.117628" lon="-92.101129">
        <ele>3042.2997935001404</ele>
        <time>2019-11-30T18:36:58Z</time>
      </trkpt>
      <trkpt lat="15.117641" lon="-92.101124">
        <ele>3042.1097191202907</ele>
        <time>2019-11-30T18:37:02Z</time>
      </trkpt>
      <trkpt lat="15.117652" lon="-92.101125">
        <ele>3041.938024507218</ele>
        <time>2019-11-30T18:37:06Z</time>
      </trkpt>
      <trkpt lat="15.117657" lon="-92.101130">
        <ele>3042.1638738325046</ele>
        <time>2019-11-30T18:37:11Z</time>
      </trkpt>
      <trkpt lat="15.117658" lon="-92.101174">
        <ele>3042.879391271356</ele>
        <time>2019-11-30T18:37:16Z</time>
      </trkpt>
      <trkpt lat="15.117660" lon="-92.101190">
        <ele>3043.8373010868804</ele>
        <time>2019-11-30T18:37:20Z</time>
      </trkpt>
      <trkpt lat="15.117665" lon="-92.101205">
        <ele>3044.064466881219</ele>
        <time>2019-11-30T18:37:25Z</time>
      </trkpt>
      <trkpt lat="15.117668" lon="-92.101213">
        <ele>3044.2202911798045</ele>
        <time>2019-11-30T18:37:29Z</time>
      </trkpt>
      <trkpt lat="15.117686" lon="-92.101228">
        <ele>3045.9881495421196</ele>
        <time>2019-11-30T18:37:34Z</time>
      </trkpt>
      <trkpt lat="15.117692" lon="-92.101232">
        <ele>3047.326771811655</ele>
        <time>2019-11-30T18:37:38Z</time>
      </trkpt>
      <trkpt lat="15.117700" lon="-92.101232">
        <ele>3049.5569405578094</ele>
        <time>2019-11-30T18:37:46Z</time>
      </trkpt>
      <trkpt lat="15.117705" lon="-92.101226">
        <ele>3049.931853813506</ele>
        <time>2019-11-30T18:37:56Z</time>
      </trkpt>
      <trkpt lat="15.117711" lon="-92.101211">
        <ele>3050.1057349255952</ele>
        <time>2019-11-30T18:38:01Z</time>
      </trkpt>
      <trkpt lat="15.117716" lon="-92.101204">
        <ele>3050.171306934196</ele>
        <time>2019-11-30T18:38:15Z</time>
      </trkpt>
      <trkpt lat="15.117728" lon="-92.101196">
        <ele>3051.002460455875</ele>
        <time>2019-11-30T18:38:19Z</time>
      </trkpt>
      <trkpt lat="15.117760" lon="-92.101175">
        <ele>3052.9478405919863</ele>
        <time>2019-11-30T18:38:24Z</time>
      </trkpt>
      <trkpt lat="15.117801" lon="-92.101153">
        <ele>3053.4197692892526</ele>
        <time>2019-11-30T18:38:28Z</time>
      </trkpt>
      <trkpt lat="15.117839" lon="-92.101154">
        <ele>3053.722522705182</ele>
        <time>2019-11-30T18:38:33Z</time>
      </trkpt>
      <trkpt lat="15.117865" lon="-92.101169">
        <ele>3054.3052684203453</ele>
        <time>2019-11-30T18:38:38Z</time>
      </trkpt>
      <trkpt lat="15.117881" lon="-92.101177">
        <ele>3054.3052483264514</ele>
        <time>2019-11-30T18:38:42Z</time>
      </trkpt>
      <trkpt lat="15.117890" lon="-92.101183">
        <ele>3054.3052498099455</ele>
        <time>2019-11-30T18:38:46Z</time>
      </trkpt>
      <trkpt lat="15.117897" lon="-92.101187">
        <ele>3054.305241419398</ele>
        <time>2019-11-30T18:38:53Z</time>
      </trkpt>
      <trkpt lat="15.117904" lon="-92.101191">
        <ele>3054.309388442022</ele>
        <time>2019-11-30T18:39:09Z</time>
      </trkpt>
      <trkpt lat="15.117925" lon="-92.101188">
        <ele>3055.0304125584616</ele>
        <time>2019-11-30T18:39:14Z</time>
      </trkpt>
      <trkpt lat="15.117944" lon="-92.101182">
        <ele>3055.500453163996</ele>
        <time>2019-11-30T18:39:18Z</time>
      </trkpt>
      <trkpt lat="15.117963" lon="-92.101170">
        <ele>3055.675253721143</ele>
        <time>2019-11-30T18:39:22Z</time>
      </trkpt>
      <trkpt lat="15.117987" lon="-92.101156">
        <ele>3055.8585601765235</ele>
        <time>2019-11-30T18:39:27Z</time>
      </trkpt>
      <trkpt lat="15.117992" lon="-92.101153">
        <ele>3055.8584974270007</ele>
        <time>2019-11-30T18:39:31Z</time>
      </trkpt>
      <trkpt lat="15.118008" lon="-92.101157">
        <ele>3056.925823302616</ele>
        <time>2019-11-30T18:39:35Z</time>
      </trkpt>
      <trkpt lat="15.118036" lon="-92.101182">
        <ele>3059.1092356983627</ele>
        <time>2019-11-30T18:39:40Z</time>
      </trkpt>
      <trkpt lat="15.118055" lon="-92.101213">
        <ele>3060.452190406237</ele>
        <time>2019-11-30T18:39:45Z</time>
      </trkpt>
      <trkpt lat="15.118066" lon="-92.101231">
        <ele>3061.198145119077</ele>
        <time>2019-11-30T18:39:49Z</time>
      </trkpt>
      <trkpt lat="15.118074" lon="-92.101250">
        <ele>3062.6611797936907</ele>
        <time>2019-11-30T18:39:53Z</time>
      </trkpt>
      <trkpt lat="15.118077" lon="-92.101276">
        <ele>3063.475382840453</ele>
        <time>2019-11-30T18:39:57Z</time>
      </trkpt>
      <trkpt lat="15.118078" lon="-92.101290">
        <ele>3063.830003282492</ele>
        <time>2019-11-30T18:40:01Z</time>
      </trkpt>
      <trkpt lat="15.118080" lon="-92.101314">
        <ele>3064.930818774776</ele>
        <time>2019-11-30T18:40:06Z</time>
      </trkpt>
      <trkpt lat="15.118084" lon="-92.101335">
        <ele>3064.9310050653053</ele>
        <time>2019-11-30T18:40:10Z</time>
      </trkpt>
      <trkpt lat="15.118091" lon="-92.101341">
        <ele>3067.5440580077134</ele>
        <time>2019-11-30T18:40:15Z</time>
      </trkpt>
      <trkpt lat="15.118106" lon="-92.101342">
        <ele>3067.876243956232</ele>
        <time>2019-11-30T18:40:19Z</time>
      </trkpt>
      <trkpt lat="15.118119" lon="-92.101336">
        <ele>3068.3104251899326</ele>
        <time>2019-11-30T18:40:23Z</time>
      </trkpt>
      <trkpt lat="15.118124" lon="-92.101326">
        <ele>3068.3273835992313</ele>
        <time>2019-11-30T18:40:27Z</time>
      </trkpt>
      <trkpt lat="15.118125" lon="-92.101318">
        <ele>3068.902245089784</ele>
        <time>2019-11-30T18:40:31Z</time>
      </trkpt>
      <trkpt lat="15.118130" lon="-92.101303">
        <ele>3070.844692579111</ele>
        <time>2019-11-30T18:40:36Z</time>
      </trkpt>
      <trkpt lat="15.118138" lon="-92.101304">
        <ele>3070.6742476230284</ele>
        <time>2019-11-30T18:40:41Z</time>
      </trkpt>
      <trkpt lat="15.118148" lon="-92.101311">
        <ele>3070.2452993343322</ele>
        <time>2019-11-30T18:40:46Z</time>
      </trkpt>
      <trkpt lat="15.118153" lon="-92.101318">
        <ele>3070.2453357351064</ele>
        <time>2019-11-30T18:40:58Z</time>
      </trkpt>
      <trkpt lat="15.118162" lon="-92.101328">
        <ele>3071.1098715942435</ele>
        <time>2019-11-30T18:41:02Z</time>
      </trkpt>
      <trkpt lat="15.118168" lon="-92.101343">
        <ele>3070.5653066488185</ele>
        <time>2019-11-30T18:41:06Z</time>
      </trkpt>
      <trkpt lat="15.118174" lon="-92.101370">
        <ele>3072.4715461043006</ele>
        <time>2019-11-30T18:41:11Z</time>
      </trkpt>
      <trkpt lat="15.118182" lon="-92.101414">
        <ele>3074.1762742747137</ele>
        <time>2019-11-30T18:41:16Z</time>
      </trkpt>
      <trkpt lat="15.118196" lon="-92.101455">
        <ele>3074.1240953331703</ele>
        <time>2019-11-30T18:41:20Z</time>
      </trkpt>
      <trkpt lat="15.118220" lon="-92.101504">
        <ele>3073.861979561085</ele>
        <time>2019-11-30T18:41:25Z</time>
      </trkpt>
      <trkpt lat="15.118232" lon="-92.101517">
        <ele>3073.677951140961</ele>
        <time>2019-11-30T18:41:29Z</time>
      </trkpt>
      <trkpt lat="15.118244" lon="-92.101527">
        <ele>3073.677967928883</ele>
        <time>2019-11-30T18:41:33Z</time>
      </trkpt>
      <trkpt lat="15.118251" lon="-92.101533">
        <ele>3073.6779913972296</ele>
        <time>2019-11-30T18:41:37Z</time>
      </trkpt>
      <trkpt lat="15.118261" lon="-92.101556">
        <ele>3074.8231692192735</ele>
        <time>2019-11-30T18:41:42Z</time>
      </trkpt>
      <trkpt lat="15.118276" lon="-92.101557">
        <ele>3075.8619077337185</ele>
        <time>2019-11-30T18:41:47Z</time>
      </trkpt>
      <trkpt lat="15.118284" lon="-92.101544">
        <ele>3075.7301373098953</ele>
        <time>2019-11-30T18:41:51Z</time>
      </trkpt>
      <trkpt lat="15.118292" lon="-92.101540">
        <ele>3076.8120771109925</ele>
        <time>2019-11-30T18:41:56Z</time>
      </trkpt>
      <trkpt lat="15.118300" lon="-92.101536">
        <ele>3076.41818878169</ele>
        <time>2019-11-30T18:42:02Z</time>
      </trkpt>
      <trkpt lat="15.118310" lon="-92.101523">
        <ele>3076.5888868683437</ele>
        <time>2019-11-30T18:42:07Z</time>
      </trkpt>
      <trkpt lat="15.118320" lon="-92.101503">
        <ele>3077.6140212291957</ele>
        <time>2019-11-30T18:42:11Z</time>
      </trkpt>
      <trkpt lat="15.118330" lon="-92.101485">
        <ele>3079.0207584856385</ele>
        <time>2019-11-30T18:42:16Z</time>
      </trkpt>
      <trkpt lat="15.118339" lon="-92.101462">
        <ele>3080.100800396443</ele>
        <time>2019-11-30T18:42:20Z</time>
      </trkpt>
      <trkpt lat="15.118347" lon="-92.101438">
        <ele>3080.3392755807395</ele>
        <time>2019-11-30T18:42:24Z</time>
      </trkpt>
      <trkpt lat="15.118355" lon="-92.101426">
        <ele>3080.326902297481</ele>
        <time>2019-11-30T18:42:28Z</time>
      </trkpt>
      <trkpt lat="15.118372" lon="-92.101421">
        <ele>3080.790607799406</ele>
        <time>2019-11-30T18:42:32Z</time>
      </trkpt>
      <trkpt lat="15.118400" lon="-92.101413">
        <ele>3080.746889204246</ele>
        <time>2019-11-30T18:42:37Z</time>
      </trkpt>
      <trkpt lat="15.118419" lon="-92.101436">
        <ele>3081.2199007971167</ele>
        <time>2019-11-30T18:42:42Z</time>
      </trkpt>
      <trkpt lat="15.118431" lon="-92.101468">
        <ele>3081.9750245911378</ele>
        <time>2019-11-30T18:42:46Z</time>
      </trkpt>
      <trkpt lat="15.118450" lon="-92.101503">
        <ele>3082.2481965763586</ele>
        <time>2019-11-30T18:42:51Z</time>
      </trkpt>
      <trkpt lat="15.118462" lon="-92.101523">
        <ele>3082.557643312706</ele>
        <time>2019-11-30T18:42:55Z</time>
      </trkpt>
      <trkpt lat="15.118476" lon="-92.101561">
        <ele>3084.1436321272686</ele>
        <time>2019-11-30T18:43:00Z</time>
      </trkpt>
      <trkpt lat="15.118481" lon="-92.101601">
        <ele>3084.8205042114264</ele>
        <time>2019-11-30T18:43:05Z</time>
      </trkpt>
      <trkpt lat="15.118483" lon="-92.101619">
        <ele>3085.0906885161194</ele>
        <time>2019-11-30T18:43:09Z</time>
      </trkpt>
      <trkpt lat="15.118491" lon="-92.101636">
        <ele>3084.8549693612704</ele>
        <time>2019-11-30T18:43:13Z</time>
      </trkpt>
      <trkpt lat="15.118502" lon="-92.101655">
        <ele>3083.985701496293</ele>
        <time>2019-11-30T18:43:17Z</time>
      </trkpt>
      <trkpt lat="15.118508" lon="-92.101669">
        <ele>3083.9857959938204</ele>
        <time>2019-11-30T18:43:22Z</time>
      </trkpt>
      <trkpt lat="15.118511" lon="-92.101675">
        <ele>3083.9858403417556</ele>
        <time>2019-11-30T18:43:43Z</time>
      </trkpt>
      <trkpt lat="15.118515" lon="-92.101683">
        <ele>3084.589898300128</ele>
        <time>2019-11-30T18:44:15Z</time>
      </trkpt>
      <trkpt lat="15.118505" lon="-92.101740">
        <ele>3086.5185030035113</ele>
        <time>2019-11-30T18:44:19Z</time>
      </trkpt>
      <trkpt lat="15.118484" lon="-92.101775">
        <ele>3088.306826292964</ele>
        <time>2019-11-30T18:44:24Z</time>
      </trkpt>
      <trkpt lat="15.118490" lon="-92.101774">
        <ele>3089.0179565732824</ele>
        <time>2019-11-30T18:44:28Z</time>
      </trkpt>
      <trkpt lat="15.118501" lon="-92.101756">
        <ele>3089.4620458194418</ele>
        <time>2019-11-30T18:44:32Z</time>
      </trkpt>
      <trkpt lat="15.118516" lon="-92.101720">
        <ele>3090.1720418741193</ele>
        <time>2019-11-30T18:44:36Z</time>
      </trkpt>
      <trkpt lat="15.118529" lon="-92.101697">
        <ele>3091.69760652918</ele>
        <time>2019-11-30T18:44:41Z</time>
      </trkpt>
      <trkpt lat="15.118532" lon="-92.101686">
        <ele>3091.6974855348967</ele>
        <time>2019-11-30T18:44:46Z</time>
      </trkpt>
      <trkpt lat="15.118535" lon="-92.101665">
        <ele>3093.31981179775</ele>
        <time>2019-11-30T18:44:50Z</time>
      </trkpt>
      <trkpt lat="15.118537" lon="-92.101648">
        <ele>3094.7383393223986</ele>
        <time>2019-11-30T18:44:54Z</time>
      </trkpt>
      <trkpt lat="15.118538" lon="-92.101637">
        <ele>3094.738219628691</ele>
        <time>2019-11-30T18:44:58Z</time>
      </trkpt>
      <trkpt lat="15.118537" lon="-92.101628">
        <ele>3094.7381403893805</ele>
        <time>2019-11-30T18:45:02Z</time>
      </trkpt>
      <trkpt lat="15.118545" lon="-92.101627">
        <ele>3095.2825122598556</ele>
        <time>2019-11-30T18:45:06Z</time>
      </trkpt>
      <trkpt lat="15.118562" lon="-92.101639">
        <ele>3095.2664066586945</ele>
        <time>2019-11-30T18:45:10Z</time>
      </trkpt>
      <trkpt lat="15.118584" lon="-92.101652">
        <ele>3094.543250937518</ele>
        <time>2019-11-30T18:45:14Z</time>
      </trkpt>
      <trkpt lat="15.118604" lon="-92.101682">
        <ele>3094.2714509471275</ele>
        <time>2019-11-30T18:45:18Z</time>
      </trkpt>
      <trkpt lat="15.118619" lon="-92.101710">
        <ele>3094.335593180768</ele>
        <time>2019-11-30T18:45:22Z</time>
      </trkpt>
      <trkpt lat="15.118630" lon="-92.101731">
        <ele>3094.3357338049964</ele>
        <time>2019-11-30T18:45:26Z</time>
      </trkpt>
      <trkpt lat="15.118647" lon="-92.101753">
        <ele>3094.0995174606783</ele>
        <time>2019-11-30T18:45:31Z</time>
      </trkpt>
      <trkpt lat="15.118660" lon="-92.101774">
        <ele>3094.099636323369</ele>
        <time>2019-11-30T18:45:35Z</time>
      </trkpt>
      <trkpt lat="15.118667" lon="-92.101784">
        <ele>3094.099696729802</ele>
        <time>2019-11-30T18:45:40Z</time>
      </trkpt>
      <trkpt lat="15.118673" lon="-92.101796">
        <ele>3094.3397612887866</ele>
        <time>2019-11-30T18:45:45Z</time>
      </trkpt>
      <trkpt lat="15.118679" lon="-92.101813">
        <ele>3094.339897952085</ele>
        <time>2019-11-30T18:45:49Z</time>
      </trkpt>
      <trkpt lat="15.118688" lon="-92.101833">
        <ele>3095.5101956647873</ele>
        <time>2019-11-30T18:45:53Z</time>
      </trkpt>
      <trkpt lat="15.118698" lon="-92.101863">
        <ele>3096.109071804643</ele>
        <time>2019-11-30T18:45:57Z</time>
      </trkpt>
      <trkpt lat="15.118704" lon="-92.101893">
        <ele>3096.831985340387</ele>
        <time>2019-11-30T18:46:01Z</time>
      </trkpt>
      <trkpt lat="15.118708" lon="-92.101920">
        <ele>3097.2943766169224</ele>
        <time>2019-11-30T18:46:06Z</time>
      </trkpt>
      <trkpt lat="15.118712" lon="-92.101942">
        <ele>3097.725480093242</ele>
        <time>2019-11-30T18:46:10Z</time>
      </trkpt>
      <trkpt lat="15.118717" lon="-92.101964">
        <ele>3097.7212693353895</ele>
        <time>2019-11-30T18:46:15Z</time>
      </trkpt>
      <trkpt lat="15.118723" lon="-92.101999">
        <ele>3097.0819339754316</ele>
        <time>2019-11-30T18:46:20Z</time>
      </trkpt>
      <trkpt lat="15.118719" lon="-92.102029">
        <ele>3098.179426709627</ele>
        <time>2019-11-30T18:46:24Z</time>
      </trkpt>
      <trkpt lat="15.118715" lon="-92.102050">
        <ele>3099.4482103985047</ele>
        <time>2019-11-30T18:46:28Z</time>
      </trkpt>
      <trkpt lat="15.118717" lon="-92.102079">
        <ele>3100.0310098526916</ele>
        <time>2019-11-30T18:46:32Z</time>
      </trkpt>
      <trkpt lat="15.118718" lon="-92.102113">
        <ele>3100.3619025240146</ele>
        <time>2019-11-30T18:46:37Z</time>
      </trkpt>
      <trkpt lat="15.118719" lon="-92.102125">
        <ele>3100.6078626953354</ele>
        <time>2019-11-30T18:46:41Z</time>
      </trkpt>
      <trkpt lat="15.118740" lon="-92.102136">
        <ele>3102.084402743329</ele>
        <time>2019-11-30T18:46:45Z</time>
      </trkpt>
      <trkpt lat="15.118771" lon="-92.102149">
        <ele>3102.7193444051272</ele>
        <time>2019-11-30T18:46:50Z</time>
      </trkpt>
      <trkpt lat="15.118783" lon="-92.102161">
        <ele>3102.9903855496545</ele>
        <time>2019-11-30T18:46:54Z</time>
      </trkpt>
      <trkpt lat="15.118794" lon="-92.102171">
        <ele>3102.1554495570826</ele>
        <time>2019-11-30T18:46:59Z</time>
      </trkpt>
      <trkpt lat="15.118803" lon="-92.102199">
        <ele>3103.048737353153</ele>
        <time>2019-11-30T18:47:03Z</time>
      </trkpt>
      <trkpt lat="15.118805" lon="-92.102214">
        <ele>3103.2886151559783</ele>
        <time>2019-11-30T18:47:08Z</time>
      </trkpt>
      <trkpt lat="15.118806" lon="-92.102222">
        <ele>3104.6170610948084</ele>
        <time>2019-11-30T18:47:28Z</time>
      </trkpt>
      <trkpt lat="15.118812" lon="-92.102236">
        <ele>3104.9489422197043</ele>
        <time>2019-11-30T18:47:33Z</time>
      </trkpt>
      <trkpt lat="15.118820" lon="-92.102240">
        <ele>3106.1720786562864</ele>
        <time>2019-11-30T18:47:44Z</time>
      </trkpt>
      <trkpt lat="15.118833" lon="-92.102248">
        <ele>3106.704552798789</ele>
        <time>2019-11-30T18:47:49Z</time>
      </trkpt>
      <trkpt lat="15.118843" lon="-92.102257">
        <ele>3106.1752743712545</ele>
        <time>2019-11-30T18:47:54Z</time>
      </trkpt>
      <trkpt lat="15.118852" lon="-92.102266">
        <ele>3106.2163272278813</ele>
        <time>2019-11-30T18:47:58Z</time>
      </trkpt>
      <trkpt lat="15.118871" lon="-92.102271">
        <ele>3106.2660650399253</ele>
        <time>2019-11-30T18:48:03Z</time>
      </trkpt>
      <trkpt lat="15.118893" lon="-92.102279">
        <ele>3106.793824867744</ele>
        <time>2019-11-30T18:48:07Z</time>
      </trkpt>
      <trkpt lat="15.118901" lon="-92.102281">
        <ele>3106.793794546513</ele>
        <time>2019-11-30T18:48:13Z</time>
      </trkpt>
      <trkpt lat="15.118909" lon="-92.102284">
        <ele>3106.5222859382793</ele>
        <time>2019-11-30T18:48:24Z</time>
      </trkpt>
      <trkpt lat="15.118925" lon="-92.102295">
        <ele>3106.409263274895</ele>
        <time>2019-11-30T18:48:29Z</time>
      </trkpt>
      <trkpt lat="15.118945" lon="-92.102312">
        <ele>3106.402963300844</ele>
        <time>2019-11-30T18:48:33Z</time>
      </trkpt>
      <trkpt lat="15.118974" lon="-92.102331">
        <ele>3107.530155092508</ele>
        <time>2019-11-30T18:48:37Z</time>
      </trkpt>
      <trkpt lat="15.119007" lon="-92.102362">
        <ele>3109.8608249451527</ele>
        <time>2019-11-30T18:48:41Z</time>
      </trkpt>
      <trkpt lat="15.119036" lon="-92.102352">
        <ele>3112.05731607304</ele>
        <time>2019-11-30T18:48:46Z</time>
      </trkpt>
      <trkpt lat="15.119052" lon="-92.102340">
        <ele>3112.0570916409333</ele>
        <time>2019-11-30T18:48:51Z</time>
      </trkpt>
      <trkpt lat="15.119054" lon="-92.102331">
        <ele>3114.3223772596994</ele>
        <time>2019-11-30T18:48:56Z</time>
      </trkpt>
      <trkpt lat="15.119053" lon="-92.102301">
        <ele>3115.424624682233</ele>
        <time>2019-11-30T18:49:01Z</time>
      </trkpt>
      <trkpt lat="15.119053" lon="-92.102281">
        <ele>3115.4654440146055</ele>
        <time>2019-11-30T18:49:05Z</time>
      </trkpt>
      <trkpt lat="15.119053" lon="-92.102272">
        <ele>3115.4653494495255</ele>
        <time>2019-11-30T18:49:10Z</time>
      </trkpt>
      <trkpt lat="15.119057" lon="-92.102255">
        <ele>3117.1338622779163</ele>
        <time>2019-11-30T18:49:15Z</time>
      </trkpt>
      <trkpt lat="15.119060" lon="-92.102239">
        <ele>3118.027475583622</ele>
        <time>2019-11-30T18:49:19Z</time>
      </trkpt>
      <trkpt lat="15.119061" lon="-92.102210">
        <ele>3118.3958391883766</ele>
        <time>2019-11-30T18:49:24Z</time>
      </trkpt>
      <trkpt lat="15.119061" lon="-92.102206">
        <ele>3118.3957941551175</ele>
        <time>2019-11-30T18:49:28Z</time>
      </trkpt>
      <trkpt lat="15.119062" lon="-92.102187">
        <ele>3118.3956062616817</ele>
        <time>2019-11-30T18:49:33Z</time>
      </trkpt>
      <trkpt lat="15.119063" lon="-92.102179">
        <ele>3118.448745926133</ele>
        <time>2019-11-30T18:49:53Z</time>
      </trkpt>
      <trkpt lat="15.119081" lon="-92.102156">
        <ele>3119.067788365966</ele>
        <time>2019-11-30T18:49:57Z</time>
      </trkpt>
      <trkpt lat="15.119095" lon="-92.102137">
        <ele>3119.2655040831646</ele>
        <time>2019-11-30T18:50:01Z</time>
      </trkpt>
      <trkpt lat="15.119113" lon="-92.102114">
        <ele>3120.827905527588</ele>
        <time>2019-11-30T18:50:05Z</time>
      </trkpt>
      <trkpt lat="15.119125" lon="-92.102101">
        <ele>3120.731752794907</ele>
        <time>2019-11-30T18:50:09Z</time>
      </trkpt>
      <trkpt lat="15.119139" lon="-92.102085">
        <ele>3122.295960495909</ele>
        <time>2019-11-30T18:50:14Z</time>
      </trkpt>
      <trkpt lat="15.119144" lon="-92.102078">
        <ele>3123.210412351276</ele>
        <time>2019-11-30T18:50:25Z</time>
      </trkpt>
      <trkpt lat="15.119154" lon="-92.102049">
        <ele>3123.210061652632</ele>
        <time>2019-11-30T18:50:29Z</time>
      </trkpt>
      <trkpt lat="15.119154" lon="-92.102046">
        <ele>3123.21002486637</ele>
        <time>2019-11-30T18:50:51Z</time>
      </trkpt>
      <trkpt lat="15.119156" lon="-92.102037">
        <ele>3123.209926957184</ele>
        <time>2019-11-30T18:50:59Z</time>
      </trkpt>
      <trkpt lat="15.119164" lon="-92.102028">
        <ele>3123.1504631923667</ele>
        <time>2019-11-30T18:51:03Z</time>
      </trkpt>
      <trkpt lat="15.119176" lon="-92.102024">
        <ele>3123.150339961496</ele>
        <time>2019-11-30T18:51:07Z</time>
      </trkpt>
      <trkpt lat="15.119202" lon="-92.102019">
        <ele>3123.0207271535</ele>
        <time>2019-11-30T18:51:12Z</time>
      </trkpt>
      <trkpt lat="15.119223" lon="-92.102034">
        <ele>3122.9489659932606</ele>
        <time>2019-11-30T18:51:16Z</time>
      </trkpt>
      <trkpt lat="15.119239" lon="-92.102049">
        <ele>3122.9490165022644</ele>
        <time>2019-11-30T18:51:20Z</time>
      </trkpt>
      <trkpt lat="15.119246" lon="-92.102055">
        <ele>3122.9490337431553</ele>
        <time>2019-11-30T18:51:24Z</time>
      </trkpt>
      <trkpt lat="15.119252" lon="-92.102059">
        <ele>3123.0552308111337</ele>
        <time>2019-11-30T18:51:29Z</time>
      </trkpt>
      <trkpt lat="15.119268" lon="-92.102080">
        <ele>3125.910076441759</ele>
        <time>2019-11-30T18:51:34Z</time>
      </trkpt>
      <trkpt lat="15.119281" lon="-92.102095">
        <ele>3126.6721135380576</ele>
        <time>2019-11-30T18:51:39Z</time>
      </trkpt>
      <trkpt lat="15.119288" lon="-92.102104">
        <ele>3126.672156234841</ele>
        <time>2019-11-30T18:51:44Z</time>
      </trkpt>
      <trkpt lat="15.119293" lon="-92.102112">
        <ele>3126.672195273076</ele>
        <time>2019-11-30T18:51:59Z</time>
      </trkpt>
      <trkpt lat="15.119301" lon="-92.102111">
        <ele>3129.2925019492614</ele>
        <time>2019-11-30T18:52:06Z</time>
      </trkpt>
      <trkpt lat="15.119307" lon="-92.102104">
        <ele>3129.292391837724</ele>
        <time>2019-11-30T18:52:11Z</time>
      </trkpt>
      <trkpt lat="15.119312" lon="-92.102099">
        <ele>3129.7632547939347</ele>
        <time>2019-11-30T18:52:23Z</time>
      </trkpt>
      <trkpt lat="15.119322" lon="-92.102090">
        <ele>3132.286291122362</ele>
        <time>2019-11-30T18:52:28Z</time>
      </trkpt>
      <trkpt lat="15.119330" lon="-92.102066">
        <ele>3133.8243445084186</ele>
        <time>2019-11-30T18:52:32Z</time>
      </trkpt>
      <trkpt lat="15.119332" lon="-92.102047">
        <ele>3133.8241353381923</ele>
        <time>2019-11-30T18:52:36Z</time>
      </trkpt>
      <trkpt lat="15.119333" lon="-92.102038">
        <ele>3133.824038058946</ele>
        <time>2019-11-30T18:52:41Z</time>
      </trkpt>
      <trkpt lat="15.119336" lon="-92.102030">
        <ele>3133.5343942682307</ele>
        <time>2019-11-30T18:53:00Z</time>
      </trkpt>
      <trkpt lat="15.119360" lon="-92.102045">
        <ele>3132.928192113683</ele>
        <time>2019-11-30T18:53:04Z</time>
      </trkpt>
      <trkpt lat="15.119405" lon="-92.102088">
        <ele>3133.937113503186</ele>
        <time>2019-11-30T18:53:08Z</time>
      </trkpt>
      <trkpt lat="15.119437" lon="-92.102119">
        <ele>3134.1654877938677</ele>
        <time>2019-11-30T18:53:12Z</time>
      </trkpt>
      <trkpt lat="15.119462" lon="-92.102138">
        <ele>3135.083974244125</ele>
        <time>2019-11-30T18:53:17Z</time>
      </trkpt>
      <trkpt lat="15.119474" lon="-92.102141">
        <ele>3135.083932585581</ele>
        <time>2019-11-30T18:53:22Z</time>
      </trkpt>
      <trkpt lat="15.119480" lon="-92.102139">
        <ele>3135.791152978606</ele>
        <time>2019-11-30T18:53:28Z</time>
      </trkpt>
      <trkpt lat="15.119495" lon="-92.102133">
        <ele>3136.6254686202033</ele>
        <time>2019-11-30T18:53:32Z</time>
      </trkpt>
      <trkpt lat="15.119514" lon="-92.102124">
        <ele>3136.6252499663947</ele>
        <time>2019-11-30T18:53:37Z</time>
      </trkpt>
      <trkpt lat="15.119523" lon="-92.102120">
        <ele>3136.6251538403694</ele>
        <time>2019-11-30T18:53:41Z</time>
      </trkpt>
      <trkpt lat="15.119533" lon="-92.102133">
        <ele>3137.8024715219494</ele>
        <time>2019-11-30T18:53:46Z</time>
      </trkpt>
      <trkpt lat="15.119547" lon="-92.102158">
        <ele>3138.623669517612</ele>
        <time>2019-11-30T18:53:50Z</time>
      </trkpt>
      <trkpt lat="15.119580" lon="-92.102190">
        <ele>3139.0727607612966</ele>
        <time>2019-11-30T18:53:55Z</time>
      </trkpt>
      <trkpt lat="15.119602" lon="-92.102208">
        <ele>3139.731977282986</ele>
        <time>2019-11-30T18:53:59Z</time>
      </trkpt>
      <trkpt lat="15.119618" lon="-92.102232">
        <ele>3139.9044743685795</ele>
        <time>2019-11-30T18:54:04Z</time>
      </trkpt>
      <trkpt lat="15.119627" lon="-92.102251">
        <ele>3139.904601641375</ele>
        <time>2019-11-30T18:54:09Z</time>
      </trkpt>
      <trkpt lat="15.119635" lon="-92.102256">
        <ele>3140.831842501795</ele>
        <time>2019-11-30T18:54:14Z</time>
      </trkpt>
      <trkpt lat="15.119641" lon="-92.102250">
        <ele>3141.3642202035267</ele>
        <time>2019-11-30T18:54:18Z</time>
      </trkpt>
      <trkpt lat="15.119646" lon="-92.102242">
        <ele>3141.3641129753855</ele>
        <time>2019-11-30T18:54:30Z</time>
      </trkpt>
      <trkpt lat="15.119647" lon="-92.102250">
        <ele>3143.0924553880072</ele>
        <time>2019-11-30T18:54:51Z</time>
      </trkpt>
      <trkpt lat="15.119657" lon="-92.102269">
        <ele>3143.586473877566</ele>
        <time>2019-11-30T18:54:56Z</time>
      </trkpt>
      <trkpt lat="15.119660" lon="-92.102275">
        <ele>3144.4087785025786</ele>
        <time>2019-11-30T18:55:04Z</time>
      </trkpt>
      <trkpt lat="15.119682" lon="-92.102243">
        <ele>3143.3580366681554</ele>
        <time>2019-11-30T18:55:08Z</time>
      </trkpt>
      <trkpt lat="15.119694" lon="-92.102233">
        <ele>3143.357856309575</ele>
        <time>2019-11-30T18:55:13Z</time>
      </trkpt>
      <trkpt lat="15.119695" lon="-92.102241">
        <ele>3144.5815664455326</ele>
        <time>2019-11-30T18:55:23Z</time>
      </trkpt>
      <trkpt lat="15.119695" lon="-92.102252">
        <ele>3144.3851407512448</ele>
        <time>2019-11-30T18:55:27Z</time>
      </trkpt>
      <trkpt lat="15.119711" lon="-92.102295">
        <ele>3144.2826841272854</ele>
        <time>2019-11-30T18:55:32Z</time>
      </trkpt>
      <trkpt lat="15.119713" lon="-92.102323">
        <ele>3145.4719097693137</ele>
        <time>2019-11-30T18:55:36Z</time>
      </trkpt>
      <trkpt lat="15.119723" lon="-92.102368">
        <ele>3145.994997369203</ele>
        <time>2019-11-30T18:55:40Z</time>
      </trkpt>
      <trkpt lat="15.119726" lon="-92.102385">
        <ele>3145.9951458896307</ele>
        <time>2019-11-30T18:55:44Z</time>
      </trkpt>
      <trkpt lat="15.119731" lon="-92.102380">
        <ele>3150.1510702701808</ele>
        <time>2019-11-30T18:55:56Z</time>
      </trkpt>
      <trkpt lat="15.119733" lon="-92.102364">
        <ele>3151.7182827025795</ele>
        <time>2019-11-30T18:56:01Z</time>
      </trkpt>
      <trkpt lat="15.119741" lon="-92.102347">
        <ele>3153.492231933289</ele>
        <time>2019-11-30T18:56:06Z</time>
      </trkpt>
      <trkpt lat="15.119734" lon="-92.102328">
        <ele>3154.4281266307516</ele>
        <time>2019-11-30T18:56:10Z</time>
      </trkpt>
      <trkpt lat="15.119723" lon="-92.102304">
        <ele>3154.471665162745</ele>
        <time>2019-11-30T18:56:15Z</time>
      </trkpt>
      <trkpt lat="15.119720" lon="-92.102297">
        <ele>3154.202564757008</ele>
        <time>2019-11-30T18:56:19Z</time>
      </trkpt>
      <trkpt lat="15.119715" lon="-92.102289">
        <ele>3154.202516219542</ele>
        <time>2019-11-30T18:56:40Z</time>
      </trkpt>
      <trkpt lat="15.119722" lon="-92.102276">
        <ele>3154.400834892725</ele>
        <time>2019-11-30T18:56:44Z</time>
      </trkpt>
      <trkpt lat="15.119746" lon="-92.102261">
        <ele>3154.3014060708488</ele>
        <time>2019-11-30T18:56:48Z</time>
      </trkpt>
      <trkpt lat="15.119764" lon="-92.102244">
        <ele>3154.2105492930173</ele>
        <time>2019-11-30T18:56:52Z</time>
      </trkpt>
      <trkpt lat="15.119782" lon="-92.102232">
        <ele>3154.0911699242793</ele>
        <time>2019-11-30T18:56:56Z</time>
      </trkpt>
      <trkpt lat="15.119799" lon="-92.102219">
        <ele>3154.090936913683</ele>
        <time>2019-11-30T18:57:00Z</time>
      </trkpt>
      <trkpt lat="15.119805" lon="-92.102213">
        <ele>3154.090834201029</ele>
        <time>2019-11-30T18:57:04Z</time>
      </trkpt>
      <trkpt lat="15.119814" lon="-92.102204">
        <ele>3153.0819103592444</ele>
        <time>2019-11-30T18:57:08Z</time>
      </trkpt>
      <trkpt lat="15.119843" lon="-92.102189">
        <ele>3152.363799740187</ele>
        <time>2019-11-30T18:57:12Z</time>
      </trkpt>
      <trkpt lat="15.119874" lon="-92.102171">
        <ele>3153.3702542305045</ele>
        <time>2019-11-30T18:57:17Z</time>
      </trkpt>
      <trkpt lat="15.119890" lon="-92.102160">
        <ele>3153.3700401682636</ele>
        <time>2019-11-30T18:57:22Z</time>
      </trkpt>
      <trkpt lat="15.119898" lon="-92.102156">
        <ele>3153.4405078785794</ele>
        <time>2019-11-30T18:57:27Z</time>
      </trkpt>
      <trkpt lat="15.119905" lon="-92.102160">
        <ele>3154.285721894974</ele>
        <time>2019-11-30T18:57:31Z</time>
      </trkpt>
      <trkpt lat="15.119933" lon="-92.102178">
        <ele>3154.724443157059</ele>
        <time>2019-11-30T18:57:35Z</time>
      </trkpt>
      <trkpt lat="15.119942" lon="-92.102195">
        <ele>3154.7245580011117</ele>
        <time>2019-11-30T18:57:40Z</time>
      </trkpt>
      <trkpt lat="15.119944" lon="-92.102204">
        <ele>3154.724632019963</ele>
        <time>2019-11-30T18:57:53Z</time>
      </trkpt>
      <trkpt lat="15.119945" lon="-92.102212">
        <ele>3157.0005773441303</ele>
        <time>2019-11-30T18:58:01Z</time>
      </trkpt>
      <trkpt lat="15.119947" lon="-92.102206">
        <ele>3159.46169339037</ele>
        <time>2019-11-30T18:58:07Z</time>
      </trkpt>
      <trkpt lat="15.119943" lon="-92.102160">
        <ele>3160.5142398429216</ele>
        <time>2019-11-30T18:58:12Z</time>
      </trkpt>
      <trkpt lat="15.119950" lon="-92.102143">
        <ele>3160.526478016777</ele>
        <time>2019-11-30T18:58:17Z</time>
      </trkpt>
      <trkpt lat="15.119954" lon="-92.102135">
        <ele>3160.5263768074296</ele>
        <time>2019-11-30T18:58:23Z</time>
      </trkpt>
      <trkpt lat="15.119974" lon="-92.102133">
        <ele>3159.4292971759123</ele>
        <time>2019-11-30T18:58:27Z</time>
      </trkpt>
      <trkpt lat="15.120021" lon="-92.102121">
        <ele>3159.0553545449625</ele>
        <time>2019-11-30T18:58:32Z</time>
      </trkpt>
      <trkpt lat="15.120046" lon="-92.102116">
        <ele>3159.9259904048477</ele>
        <time>2019-11-30T18:58:36Z</time>
      </trkpt>
      <trkpt lat="15.120062" lon="-92.102120">
        <ele>3160.6114763442583</ele>
        <time>2019-11-30T18:58:40Z</time>
      </trkpt>
      <trkpt lat="15.120086" lon="-92.102158">
        <ele>3161.7110615210145</ele>
        <time>2019-11-30T18:58:45Z</time>
      </trkpt>
      <trkpt lat="15.120102" lon="-92.102195">
        <ele>3162.256733630901</ele>
        <time>2019-11-30T18:58:49Z</time>
      </trkpt>
      <trkpt lat="15.120105" lon="-92.102266">
        <ele>3161.7015164387676</ele>
        <time>2019-11-30T18:58:53Z</time>
      </trkpt>
      <trkpt lat="15.120110" lon="-92.102302">
        <ele>3161.877864840136</ele>
        <time>2019-11-30T18:58:57Z</time>
      </trkpt>
      <trkpt lat="15.120114" lon="-92.102320">
        <ele>3161.8780202625207</ele>
        <time>2019-11-30T18:59:01Z</time>
      </trkpt>
      <trkpt lat="15.120115" lon="-92.102334">
        <ele>3161.7636532369993</ele>
        <time>2019-11-30T18:59:05Z</time>
      </trkpt>
      <trkpt lat="15.120117" lon="-92.102344">
        <ele>3161.7637366481936</ele>
        <time>2019-11-30T18:59:09Z</time>
      </trkpt>
      <trkpt lat="15.120118" lon="-92.102351">
        <ele>3161.8116491790565</ele>
        <time>2019-11-30T18:59:14Z</time>
      </trkpt>
      <trkpt lat="15.120113" lon="-92.102366">
        <ele>3161.9763867631646</ele>
        <time>2019-11-30T18:59:18Z</time>
      </trkpt>
      <trkpt lat="15.120106" lon="-92.102385">
        <ele>3162.3706528990374</ele>
        <time>2019-11-30T18:59:23Z</time>
      </trkpt>
      <trkpt lat="15.120103" lon="-92.102393">
        <ele>3162.3707620485457</ele>
        <time>2019-11-30T18:59:27Z</time>
      </trkpt>
      <trkpt lat="15.120101" lon="-92.102400">
        <ele>3162.255602862203</ele>
        <time>2019-11-30T18:59:32Z</time>
      </trkpt>
      <trkpt lat="15.120105" lon="-92.102414">
        <ele>3163.1622133143906</ele>
        <time>2019-11-30T18:59:36Z</time>
      </trkpt>
      <trkpt lat="15.120117" lon="-92.102436">
        <ele>3163.979738411883</ele>
        <time>2019-11-30T18:59:40Z</time>
      </trkpt>
      <trkpt lat="15.120128" lon="-92.102447">
        <ele>3164.1389554465277</ele>
        <time>2019-11-30T18:59:45Z</time>
      </trkpt>
      <trkpt lat="15.120135" lon="-92.102441">
        <ele>3165.134455721831</ele>
        <time>2019-11-30T18:59:53Z</time>
      </trkpt>
      <trkpt lat="15.120135" lon="-92.102425">
        <ele>3165.687764631442</ele>
        <time>2019-11-30T18:59:58Z</time>
      </trkpt>
      <trkpt lat="15.120135" lon="-92.102408">
        <ele>3166.1219256081567</ele>
        <time>2019-11-30T19:00:03Z</time>
      </trkpt>
      <trkpt lat="15.120140" lon="-92.102388">
        <ele>3166.489609511353</ele>
        <time>2019-11-30T19:00:07Z</time>
      </trkpt>
      <trkpt lat="15.120151" lon="-92.102364">
        <ele>3166.6936508777158</ele>
        <time>2019-11-30T19:00:11Z</time>
      </trkpt>
      <trkpt lat="15.120156" lon="-92.102349">
        <ele>3166.6934669907846</ele>
        <time>2019-11-30T19:00:15Z</time>
      </trkpt>
      <trkpt lat="15.120160" lon="-92.102340">
        <ele>3166.693358552587</ele>
        <time>2019-11-30T19:00:19Z</time>
      </trkpt>
      <trkpt lat="15.120164" lon="-92.102331">
        <ele>3166.130980651554</ele>
        <time>2019-11-30T19:00:24Z</time>
      </trkpt>
      <trkpt lat="15.120175" lon="-92.102315">
        <ele>3165.608781047082</ele>
        <time>2019-11-30T19:00:29Z</time>
      </trkpt>
      <trkpt lat="15.120182" lon="-92.102318">
        <ele>3164.971077269266</ele>
        <time>2019-11-30T19:00:35Z</time>
      </trkpt>
      <trkpt lat="15.120189" lon="-92.102344">
        <ele>3165.479583275792</ele>
        <time>2019-11-30T19:00:40Z</time>
      </trkpt>
      <trkpt lat="15.120204" lon="-92.102367">
        <ele>3165.4797229739934</ele>
        <time>2019-11-30T19:00:44Z</time>
      </trkpt>
      <trkpt lat="15.120208" lon="-92.102378">
        <ele>3165.0789223787647</ele>
        <time>2019-11-30T19:00:48Z</time>
      </trkpt>
      <trkpt lat="15.120208" lon="-92.102396">
        <ele>3164.223142206593</ele>
        <time>2019-11-30T19:00:53Z</time>
      </trkpt>
      <trkpt lat="15.120207" lon="-92.102430">
        <ele>3164.1849219475025</ele>
        <time>2019-11-30T19:00:57Z</time>
      </trkpt>
      <trkpt lat="15.120206" lon="-92.102499">
        <ele>3164.4375562349423</ele>
        <time>2019-11-30T19:01:02Z</time>
      </trkpt>
      <trkpt lat="15.120220" lon="-92.102589">
        <ele>3165.116588808887</ele>
        <time>2019-11-30T19:01:07Z</time>
      </trkpt>
      <trkpt lat="15.120231" lon="-92.102628">
        <ele>3166.548786971281</ele>
        <time>2019-11-30T19:01:11Z</time>
      </trkpt>
      <trkpt lat="15.120238" lon="-92.102623">
        <ele>3170.6182802386015</ele>
        <time>2019-11-30T19:01:18Z</time>
      </trkpt>
      <trkpt lat="15.120240" lon="-92.102573">
        <ele>3172.0606357100473</ele>
        <time>2019-11-30T19:01:22Z</time>
      </trkpt>
      <trkpt lat="15.120248" lon="-92.102545">
        <ele>3174.165043119636</ele>
        <time>2019-11-30T19:01:27Z</time>
      </trkpt>
      <trkpt lat="15.120247" lon="-92.102515">
        <ele>3176.182332854528</ele>
        <time>2019-11-30T19:01:32Z</time>
      </trkpt>
      <trkpt lat="15.120250" lon="-92.102484">
        <ele>3176.1820047795622</ele>
        <time>2019-11-30T19:01:37Z</time>
      </trkpt>
      <trkpt lat="15.120252" lon="-92.102477">
        <ele>3176.1819175027917</ele>
        <time>2019-11-30T19:01:46Z</time>
      </trkpt>
      <trkpt lat="15.120264" lon="-92.102466">
        <ele>3174.267670463842</ele>
        <time>2019-11-30T19:01:50Z</time>
      </trkpt>
      <trkpt lat="15.120283" lon="-92.102451">
        <ele>3174.2674035220675</ele>
        <time>2019-11-30T19:01:55Z</time>
      </trkpt>
      <trkpt lat="15.120290" lon="-92.102445">
        <ele>3174.267305808639</ele>
        <time>2019-11-30T19:02:00Z</time>
      </trkpt>
      <trkpt lat="15.120294" lon="-92.102449">
        <ele>3174.593973349282</ele>
        <time>2019-11-30T19:02:15Z</time>
      </trkpt>
      <trkpt lat="15.120282" lon="-92.102497">
        <ele>3174.5745041871023</ele>
        <time>2019-11-30T19:02:19Z</time>
      </trkpt>
      <trkpt lat="15.120282" lon="-92.102530">
        <ele>3174.1219493975477</ele>
        <time>2019-11-30T19:02:23Z</time>
      </trkpt>
      <trkpt lat="15.120286" lon="-92.102545">
        <ele>3174.1220756178927</ele>
        <time>2019-11-30T19:02:28Z</time>
      </trkpt>
      <trkpt lat="15.120290" lon="-92.102558">
        <ele>3174.6514784992632</ele>
        <time>2019-11-30T19:02:33Z</time>
      </trkpt>
      <trkpt lat="15.120292" lon="-92.102575">
        <ele>3174.9631518804717</ele>
        <time>2019-11-30T19:02:37Z</time>
      </trkpt>
      <trkpt lat="15.120294" lon="-92.102593">
        <ele>3175.4166882395643</ele>
        <time>2019-11-30T19:02:41Z</time>
      </trkpt>
      <trkpt lat="15.120282" lon="-92.102621">
        <ele>3177.2920523757193</ele>
        <time>2019-11-30T19:02:46Z</time>
      </trkpt>
      <trkpt lat="15.120272" lon="-92.102636">
        <ele>3179.758569128685</ele>
        <time>2019-11-30T19:02:50Z</time>
      </trkpt>
      <trkpt lat="15.120272" lon="-92.102645">
        <ele>3181.130729604745</ele>
        <time>2019-11-30T19:02:55Z</time>
      </trkpt>
      <trkpt lat="15.120279" lon="-92.102641">
        <ele>3182.5307869626827</ele>
        <time>2019-11-30T19:03:04Z</time>
      </trkpt>
      <trkpt lat="15.120280" lon="-92.102638">
        <ele>3182.530751828594</ele>
        <time>2019-11-30T19:03:09Z</time>
      </trkpt>
      <trkpt lat="15.120290" lon="-92.102629">
        <ele>3182.671957892227</ele>
        <time>2019-11-30T19:03:13Z</time>
      </trkpt>
      <trkpt lat="15.120302" lon="-92.102612">
        <ele>3182.7378749133904</ele>
        <time>2019-11-30T19:03:18Z</time>
      </trkpt>
      <trkpt lat="15.120307" lon="-92.102605">
        <ele>3182.7377786184034</ele>
        <time>2019-11-30T19:03:24Z</time>
      </trkpt>
      <trkpt lat="15.120316" lon="-92.102597">
        <ele>3184.3555564290036</ele>
        <time>2019-11-30T19:03:28Z</time>
      </trkpt>
      <trkpt lat="15.120328" lon="-92.102585">
        <ele>3184.3553609441237</ele>
        <time>2019-11-30T19:03:32Z</time>
      </trkpt>
      <trkpt lat="15.120334" lon="-92.102580">
        <ele>3184.355277855408</ele>
        <time>2019-11-30T19:03:37Z</time>
      </trkpt>
      <trkpt lat="15.120361" lon="-92.102573">
        <ele>3184.6404339578485</ele>
        <time>2019-11-30T19:03:41Z</time>
      </trkpt>
      <trkpt lat="15.120382" lon="-92.102579">
        <ele>3184.450904520096</ele>
        <time>2019-11-30T19:03:46Z</time>
      </trkpt>
      <trkpt lat="15.120390" lon="-92.102582">
        <ele>3184.450890429079</ele>
        <time>2019-11-30T19:03:50Z</time>
      </trkpt>
      <trkpt lat="15.120403" lon="-92.102595">
        <ele>3184.3806210735547</ele>
        <time>2019-11-30T19:03:55Z</time>
      </trkpt>
      <trkpt lat="15.120413" lon="-92.102607">
        <ele>3184.667541322027</ele>
        <time>2019-11-30T19:03:59Z</time>
      </trkpt>
      <trkpt lat="15.120417" lon="-92.102614">
        <ele>3184.6675847505758</ele>
        <time>2019-11-30T19:04:03Z</time>
      </trkpt>
      <trkpt lat="15.120419" lon="-92.102622">
        <ele>3184.6925527316785</ele>
        <time>2019-11-30T19:04:14Z</time>
      </trkpt>
      <trkpt lat="15.120404" lon="-92.102656">
        <ele>3186.0782433566983</ele>
        <time>2019-11-30T19:04:19Z</time>
      </trkpt>
      <trkpt lat="15.120389" lon="-92.102690">
        <ele>3186.364076208803</ele>
        <time>2019-11-30T19:04:24Z</time>
      </trkpt>
      <trkpt lat="15.120384" lon="-92.102703">
        <ele>3186.364232011271</ele>
        <time>2019-11-30T19:04:28Z</time>
      </trkpt>
      <trkpt lat="15.120381" lon="-92.102711">
        <ele>3186.3643369911924</ele>
        <time>2019-11-30T19:04:34Z</time>
      </trkpt>
      <trkpt lat="15.120381" lon="-92.102720">
        <ele>3185.6083183037013</ele>
        <time>2019-11-30T19:04:39Z</time>
      </trkpt>
      <trkpt lat="15.120387" lon="-92.102740">
        <ele>3185.489093599658</ele>
        <time>2019-11-30T19:04:43Z</time>
      </trkpt>
      <trkpt lat="15.120390" lon="-92.102751">
        <ele>3185.4891844624754</ele>
        <time>2019-11-30T19:04:47Z</time>
      </trkpt>
      <trkpt lat="15.120392" lon="-92.102758">
        <ele>3185.844462552097</ele>
        <time>2019-11-30T19:04:51Z</time>
      </trkpt>
      <trkpt lat="15.120398" lon="-92.102766">
        <ele>3186.7761482432925</ele>
        <time>2019-11-30T19:04:55Z</time>
      </trkpt>
      <trkpt lat="15.120401" lon="-92.102778">
        <ele>3187.2034923977767</ele>
        <time>2019-11-30T19:04:59Z</time>
      </trkpt>
      <trkpt lat="15.120403" lon="-92.102787">
        <ele>3187.2035728664137</ele>
        <time>2019-11-30T19:05:04Z</time>
      </trkpt>
      <trkpt lat="15.120410" lon="-92.102791">
        <ele>3187.3041481975156</ele>
        <time>2019-11-30T19:05:08Z</time>
      </trkpt>
      <trkpt lat="15.120416" lon="-92.102790">
        <ele>3187.304107208716</ele>
        <time>2019-11-30T19:05:14Z</time>
      </trkpt>
      <trkpt lat="15.120425" lon="-92.102791">
        <ele>3187.3040541519053</ele>
        <time>2019-11-30T19:05:25Z</time>
      </trkpt>
      <trkpt lat="15.120433" lon="-92.102793">
        <ele>3189.0676936288</ele>
        <time>2019-11-30T19:06:01Z</time>
      </trkpt>
      <trkpt lat="15.120451" lon="-92.102811">
        <ele>3191.7237691469027</ele>
        <time>2019-11-30T19:06:06Z</time>
      </trkpt>
      <trkpt lat="15.120463" lon="-92.102826">
        <ele>3191.723841262594</ele>
        <time>2019-11-30T19:06:11Z</time>
      </trkpt>
      <trkpt lat="15.120473" lon="-92.102824">
        <ele>3194.9952427260355</ele>
        <time>2019-11-30T19:06:16Z</time>
      </trkpt>
      <trkpt lat="15.120488" lon="-92.102805">
        <ele>3196.6868531354507</ele>
        <time>2019-11-30T19:06:20Z</time>
      </trkpt>
      <trkpt lat="15.120502" lon="-92.102796">
        <ele>3196.686678515134</ele>
        <time>2019-11-30T19:06:25Z</time>
      </trkpt>
      <trkpt lat="15.120508" lon="-92.102793">
        <ele>3196.7908507774036</ele>
        <time>2019-11-30T19:06:49Z</time>
      </trkpt>
      <trkpt lat="15.120535" lon="-92.102820">
        <ele>3197.546563356603</ele>
        <time>2019-11-30T19:06:54Z</time>
      </trkpt>
      <trkpt lat="15.120549" lon="-92.102833">
        <ele>3197.5466028192604</ele>
        <time>2019-11-30T19:06:58Z</time>
      </trkpt>
      <trkpt lat="15.120573" lon="-92.102854">
        <ele>3199.4299563366103</ele>
        <time>2019-11-30T19:07:02Z</time>
      </trkpt>
      <trkpt lat="15.120597" lon="-92.102872">
        <ele>3200.683160270348</ele>
        <time>2019-11-30T19:07:06Z</time>
      </trkpt>
      <trkpt lat="15.120627" lon="-92.102894">
        <ele>3201.3589723287478</ele>
        <time>2019-11-30T19:07:10Z</time>
      </trkpt>
      <trkpt lat="15.120647" lon="-92.102925">
        <ele>3201.5002620084483</ele>
        <time>2019-11-30T19:07:15Z</time>
      </trkpt>
      <trkpt lat="15.120654" lon="-92.102934">
        <ele>3201.500310872278</ele>
        <time>2019-11-30T19:07:19Z</time>
      </trkpt>
      <trkpt lat="15.120659" lon="-92.102942">
        <ele>3201.500354271917</ele>
        <time>2019-11-30T19:07:26Z</time>
      </trkpt>
      <trkpt lat="15.120660" lon="-92.102967">
        <ele>3202.7601186973843</ele>
        <time>2019-11-30T19:07:31Z</time>
      </trkpt>
      <trkpt lat="15.120663" lon="-92.102987">
        <ele>3203.2336841979486</ele>
        <time>2019-11-30T19:07:36Z</time>
      </trkpt>
      <trkpt lat="15.120665" lon="-92.102995">
        <ele>3203.233758709602</ele>
        <time>2019-11-30T19:07:41Z</time>
      </trkpt>
      <trkpt lat="15.120669" lon="-92.103003">
        <ele>3203.3778561096447</ele>
        <time>2019-11-30T19:07:45Z</time>
      </trkpt>
      <trkpt lat="15.120674" lon="-92.103013">
        <ele>3203.4992574372845</ele>
        <time>2019-11-30T19:07:49Z</time>
      </trkpt>
      <trkpt lat="15.120678" lon="-92.103021">
        <ele>3203.4993102506933</ele>
        <time>2019-11-30T19:07:55Z</time>
      </trkpt>
      <trkpt lat="15.120681" lon="-92.103026">
        <ele>3203.4993442878226</ele>
        <time>2019-11-30T19:07:59Z</time>
      </trkpt>
      <trkpt lat="15.120688" lon="-92.103038">
        <ele>3206.534571280154</ele>
        <time>2019-11-30T19:08:04Z</time>
      </trkpt>
      <trkpt lat="15.120694" lon="-92.103036">
        <ele>3206.6673287098783</ele>
        <time>2019-11-30T19:08:25Z</time>
      </trkpt>
      <trkpt lat="15.120711" lon="-92.103026">
        <ele>3207.8956419194856</ele>
        <time>2019-11-30T19:08:29Z</time>
      </trkpt>
      <trkpt lat="15.120741" lon="-92.102999">
        <ele>3208.757965891004</ele>
        <time>2019-11-30T19:08:34Z</time>
      </trkpt>
      <trkpt lat="15.120755" lon="-92.102987">
        <ele>3208.7577643242926</ele>
        <time>2019-11-30T19:08:38Z</time>
      </trkpt>
      <trkpt lat="15.120773" lon="-92.102967">
        <ele>3208.923707400248</ele>
        <time>2019-11-30T19:08:42Z</time>
      </trkpt>
      <trkpt lat="15.120794" lon="-92.102948">
        <ele>3209.803274711474</ele>
        <time>2019-11-30T19:08:46Z</time>
      </trkpt>
      <trkpt lat="15.120803" lon="-92.102949">
        <ele>3210.768798875865</ele>
        <time>2019-11-30T19:08:51Z</time>
      </trkpt>
      <trkpt lat="15.120822" lon="-92.102953">
        <ele>3210.702802493354</ele>
        <time>2019-11-30T19:08:55Z</time>
      </trkpt>
      <trkpt lat="15.120832" lon="-92.102956">
        <ele>3210.7027675068794</ele>
        <time>2019-11-30T19:08:59Z</time>
      </trkpt>
      <trkpt lat="15.120838" lon="-92.102962">
        <ele>3210.7867707661785</ele>
        <time>2019-11-30T19:09:10Z</time>
      </trkpt>
      <trkpt lat="15.120839" lon="-92.102978">
        <ele>3211.7446846418247</ele>
        <time>2019-11-30T19:09:15Z</time>
      </trkpt>
      <trkpt lat="15.120847" lon="-92.103005">
        <ele>3212.340604721969</ele>
        <time>2019-11-30T19:09:19Z</time>
      </trkpt>
      <trkpt lat="15.120857" lon="-92.103031">
        <ele>3212.340804396815</ele>
        <time>2019-11-30T19:09:24Z</time>
      </trkpt>
      <trkpt lat="15.120860" lon="-92.103039">
        <ele>3212.340864444872</ele>
        <time>2019-11-30T19:09:29Z</time>
      </trkpt>
      <trkpt lat="15.120863" lon="-92.103045">
        <ele>3212.9261160496685</ele>
        <time>2019-11-30T19:09:47Z</time>
      </trkpt>
      <trkpt lat="15.120867" lon="-92.103059">
        <ele>3214.120556591081</ele>
        <time>2019-11-30T19:09:51Z</time>
      </trkpt>
      <trkpt lat="15.120872" lon="-92.103073">
        <ele>3215.2532347345254</ele>
        <time>2019-11-30T19:09:55Z</time>
      </trkpt>
      <trkpt lat="15.120878" lon="-92.103103">
        <ele>3216.3675091009877</ele>
        <time>2019-11-30T19:10:00Z</time>
      </trkpt>
      <trkpt lat="15.120886" lon="-92.103133">
        <ele>3216.367758101834</ele>
        <time>2019-11-30T19:10:04Z</time>
      </trkpt>
      <trkpt lat="15.120892" lon="-92.103150">
        <ele>3216.0370720350925</ele>
        <time>2019-11-30T19:10:08Z</time>
      </trkpt>
      <trkpt lat="15.120921" lon="-92.103199">
        <ele>3215.546661367382</ele>
        <time>2019-11-30T19:10:12Z</time>
      </trkpt>
      <trkpt lat="15.120936" lon="-92.103239">
        <ele>3215.444416639879</ele>
        <time>2019-11-30T19:10:16Z</time>
      </trkpt>
      <trkpt lat="15.120926" lon="-92.103271">
        <ele>3215.3901136633144</ele>
        <time>2019-11-30T19:10:20Z</time>
      </trkpt>
      <trkpt lat="15.120922" lon="-92.103290">
        <ele>3215.390327808754</ele>
        <time>2019-11-30T19:10:24Z</time>
      </trkpt>
      <trkpt lat="15.120915" lon="-92.103307">
        <ele>3216.106600895104</ele>
        <time>2019-11-30T19:10:28Z</time>
      </trkpt>
      <trkpt lat="15.120911" lon="-92.103323">
        <ele>3216.1067929923274</ele>
        <time>2019-11-30T19:10:32Z</time>
      </trkpt>
      <trkpt lat="15.120910" lon="-92.103329">
        <ele>3216.106853768315</ele>
        <time>2019-11-30T19:10:39Z</time>
      </trkpt>
      <trkpt lat="15.120907" lon="-92.103340">
        <ele>3216.4944324386893</ele>
        <time>2019-11-30T19:10:43Z</time>
      </trkpt>
      <trkpt lat="15.120903" lon="-92.103352">
        <ele>3216.687208849443</ele>
        <time>2019-11-30T19:10:47Z</time>
      </trkpt>
      <trkpt lat="15.120902" lon="-92.103367">
        <ele>3216.311137842625</ele>
        <time>2019-11-30T19:10:52Z</time>
      </trkpt>
      <trkpt lat="15.120896" lon="-92.103382">
        <ele>3215.269090463564</ele>
        <time>2019-11-30T19:10:56Z</time>
      </trkpt>
      <trkpt lat="15.120877" lon="-92.103396">
        <ele>3214.903875824134</ele>
        <time>2019-11-30T19:11:00Z</time>
      </trkpt>
      <trkpt lat="15.120844" lon="-92.103415">
        <ele>3214.9042772123275</ele>
        <time>2019-11-30T19:11:05Z</time>
      </trkpt>
      <trkpt lat="15.120829" lon="-92.103424">
        <ele>3214.904447917051</ele>
        <time>2019-11-30T19:11:10Z</time>
      </trkpt>
      <trkpt lat="15.120822" lon="-92.103428">
        <ele>3214.9045393769143</ele>
        <time>2019-11-30T19:11:19Z</time>
      </trkpt>
      <trkpt lat="15.120820" lon="-92.103434">
        <ele>3215.3858144387127</ele>
        <time>2019-11-30T19:11:24Z</time>
      </trkpt>
      <trkpt lat="15.120818" lon="-92.103449">
        <ele>3216.2575567225235</ele>
        <time>2019-11-30T19:11:28Z</time>
      </trkpt>
      <trkpt lat="15.120817" lon="-92.103458">
        <ele>3216.2576523946213</ele>
        <time>2019-11-30T19:11:34Z</time>
      </trkpt>
      <trkpt lat="15.120816" lon="-92.103467">
        <ele>3217.8566270068973</ele>
        <time>2019-11-30T19:11:46Z</time>
      </trkpt>
      <trkpt lat="15.120814" lon="-92.103476">
        <ele>3221.1758255935324</ele>
        <time>2019-11-30T19:11:50Z</time>
      </trkpt>
      <trkpt lat="15.120826" lon="-92.103479">
        <ele>3224.8659626001395</ele>
        <time>2019-11-30T19:11:55Z</time>
      </trkpt>
      <trkpt lat="15.120835" lon="-92.103476">
        <ele>3224.865878229608</ele>
        <time>2019-11-30T19:11:59Z</time>
      </trkpt>
      <trkpt lat="15.120836" lon="-92.103485">
        <ele>3225.1152246714732</ele>
        <time>2019-11-30T19:12:04Z</time>
      </trkpt>
      <trkpt lat="15.120835" lon="-92.103484">
        <ele>3225.776355864471</ele>
        <time>2019-11-30T19:12:48Z</time>
      </trkpt>
      <trkpt lat="15.120835" lon="-92.103484">
        <ele>3225.776355864471</ele>
        <time>2019-11-30T19:12:49Z</time>
      </trkpt>
      <trkpt lat="15.120788" lon="-92.103371">
        <ele>3142.9500448843073</ele>
        <time>2019-11-30T20:36:04Z</time>
      </trkpt>
      <trkpt lat="15.120788" lon="-92.103371">
        <ele>3142.9500448843073</ele>
        <time>2019-11-30T20:36:09Z</time>
      </trkpt>
      <trkpt lat="15.120813" lon="-92.103552">
        <ele>3242.3423489164693</ele>
        <time>2019-11-30T20:36:14Z</time>
      </trkpt>
      <trkpt lat="15.120818" lon="-92.103549">
        <ele>3242.27808599525</ele>
        <time>2019-11-30T20:36:56Z</time>
      </trkpt>
      <trkpt lat="15.120847" lon="-92.103546">
        <ele>3241.904096492968</ele>
        <time>2019-11-30T20:37:00Z</time>
      </trkpt>
      <trkpt lat="15.120864" lon="-92.103552">
        <ele>3241.9157611151677</ele>
        <time>2019-11-30T20:37:04Z</time>
      </trkpt>
      <trkpt lat="15.120864" lon="-92.103552">
        <ele>3237.3981829901677</ele>
        <time>2019-11-30T20:38:04Z</time>
      </trkpt>
      <trkpt lat="15.120917" lon="-92.103571">
        <ele>3237.321620606592</ele>
        <time>2019-11-30T20:38:09Z</time>
      </trkpt>
      <trkpt lat="15.120917" lon="-92.103571">
        <ele>3237.960536622217</ele>
        <time>2019-11-30T20:38:57Z</time>
      </trkpt>
      <trkpt lat="15.120923" lon="-92.103583">
        <ele>3238.0699895473736</ele>
        <time>2019-11-30T20:39:01Z</time>
      </trkpt>
      <trkpt lat="15.120924" lon="-92.103583">
        <ele>3238.0699819335055</ele>
        <time>2019-11-30T20:39:08Z</time>
      </trkpt>
      <trkpt lat="15.120924" lon="-92.103583">
        <ele>3238.0699819335055</ele>
        <time>2019-11-30T20:39:09Z</time>
      </trkpt>
      <trkpt lat="15.120905" lon="-92.103515">
        <ele>3237.0429144401437</ele>
        <time>2019-11-30T20:39:53Z</time>
      </trkpt>
      <trkpt lat="15.120782" lon="-92.103825">
        <ele>3237.3503930991255</ele>
        <time>2019-11-30T20:39:57Z</time>
      </trkpt>
      <trkpt lat="15.120965" lon="-92.103316">
        <ele>3260.3441722665625</ele>
        <time>2019-11-30T20:40:02Z</time>
      </trkpt>
      <trkpt lat="15.120965" lon="-92.103316">
        <ele>3247.8226878915625</ele>
        <time>2019-11-30T20:40:30Z</time>
      </trkpt>
      <trkpt lat="15.120957" lon="-92.103504">
        <ele>3247.824598531184</ele>
        <time>2019-11-30T20:40:34Z</time>
      </trkpt>
      <trkpt lat="15.120959" lon="-92.103525">
        <ele>3245.4654189144676</ele>
        <time>2019-11-30T20:40:39Z</time>
      </trkpt>
      <trkpt lat="15.120967" lon="-92.103554">
        <ele>3244.8931488542935</ele>
        <time>2019-11-30T20:40:44Z</time>
      </trkpt>
      <trkpt lat="15.120962" lon="-92.103581">
        <ele>3244.8934540880505</ele>
        <time>2019-11-30T20:40:48Z</time>
      </trkpt>
      <trkpt lat="15.120954" lon="-92.103594">
        <ele>3246.4812800001487</ele>
        <time>2019-11-30T20:40:52Z</time>
      </trkpt>
      <trkpt lat="15.120950" lon="-92.103606">
        <ele>3247.2577903336564</ele>
        <time>2019-11-30T20:40:56Z</time>
      </trkpt>
      <trkpt lat="15.120943" lon="-92.103623">
        <ele>3246.3637186944425</ele>
        <time>2019-11-30T20:41:01Z</time>
      </trkpt>
      <trkpt lat="15.120941" lon="-92.103650">
        <ele>3245.9492062708773</ele>
        <time>2019-11-30T20:41:05Z</time>
      </trkpt>
      <trkpt lat="15.120941" lon="-92.103673">
        <ele>3245.949424465998</ele>
        <time>2019-11-30T20:41:10Z</time>
      </trkpt>
      <trkpt lat="15.120942" lon="-92.103682">
        <ele>3245.9495143532276</ele>
        <time>2019-11-30T20:41:16Z</time>
      </trkpt>
      <trkpt lat="15.120942" lon="-92.103689">
        <ele>3245.4454370359517</ele>
        <time>2019-11-30T20:41:23Z</time>
      </trkpt>
      <trkpt lat="15.120944" lon="-92.103699">
        <ele>3245.235076790759</ele>
        <time>2019-11-30T20:41:27Z</time>
      </trkpt>
      <trkpt lat="15.120941" lon="-92.103722">
        <ele>3244.355187923989</ele>
        <time>2019-11-30T20:41:31Z</time>
      </trkpt>
      <trkpt lat="15.120942" lon="-92.103748">
        <ele>3243.7753653358554</ele>
        <time>2019-11-30T20:41:35Z</time>
      </trkpt>
      <trkpt lat="15.120950" lon="-92.103771">
        <ele>3242.2049853214457</ele>
        <time>2019-11-30T20:41:39Z</time>
      </trkpt>
      <trkpt lat="15.120960" lon="-92.103779">
        <ele>3241.9752628383594</ele>
        <time>2019-11-30T20:41:44Z</time>
      </trkpt>
      <trkpt lat="15.120971" lon="-92.103773">
        <ele>3241.0532631314945</ele>
        <time>2019-11-30T20:41:48Z</time>
      </trkpt>
      <trkpt lat="15.120983" lon="-92.103767">
        <ele>3241.0082039850686</ele>
        <time>2019-11-30T20:41:53Z</time>
      </trkpt>
      <trkpt lat="15.120990" lon="-92.103763">
        <ele>3241.057680935367</ele>
        <time>2019-11-30T20:41:59Z</time>
      </trkpt>
      <trkpt lat="15.121005" lon="-92.103766">
        <ele>3242.0632364602898</ele>
        <time>2019-11-30T20:42:03Z</time>
      </trkpt>
      <trkpt lat="15.121017" lon="-92.103772">
        <ele>3242.0632124604444</ele>
        <time>2019-11-30T20:42:07Z</time>
      </trkpt>
      <trkpt lat="15.121026" lon="-92.103778">
        <ele>3241.1496427351485</ele>
        <time>2019-11-30T20:42:11Z</time>
      </trkpt>
      <trkpt lat="15.121027" lon="-92.103794">
        <ele>3241.0113683617815</ele>
        <time>2019-11-30T20:42:15Z</time>
      </trkpt>
      <trkpt lat="15.121029" lon="-92.103804">
        <ele>3241.0114581533426</ele>
        <time>2019-11-30T20:42:20Z</time>
      </trkpt>
      <trkpt lat="15.121032" lon="-92.103813">
        <ele>3241.4936962952843</ele>
        <time>2019-11-30T20:42:35Z</time>
      </trkpt>
      <trkpt lat="15.121042" lon="-92.103815">
        <ele>3243.155524599312</ele>
        <time>2019-11-30T20:42:39Z</time>
      </trkpt>
      <trkpt lat="15.121054" lon="-92.103815">
        <ele>3243.5448542656345</ele>
        <time>2019-11-30T20:42:43Z</time>
      </trkpt>
      <trkpt lat="15.121068" lon="-92.103812">
        <ele>3244.577202314477</ele>
        <time>2019-11-30T20:42:47Z</time>
      </trkpt>
      <trkpt lat="15.121081" lon="-92.103807">
        <ele>3245.1378591739062</ele>
        <time>2019-11-30T20:42:52Z</time>
      </trkpt>
      <trkpt lat="15.121095" lon="-92.103810">
        <ele>3245.1158353291266</ele>
        <time>2019-11-30T20:42:56Z</time>
      </trkpt>
      <trkpt lat="15.121111" lon="-92.103823">
        <ele>3245.926410617285</ele>
        <time>2019-11-30T20:43:01Z</time>
      </trkpt>
      <trkpt lat="15.121118" lon="-92.103840">
        <ele>3246.1035281157638</ele>
        <time>2019-11-30T20:43:05Z</time>
      </trkpt>
      <trkpt lat="15.121127" lon="-92.103859">
        <ele>3246.618067493127</ele>
        <time>2019-11-30T20:43:09Z</time>
      </trkpt>
      <trkpt lat="15.121131" lon="-92.103868">
        <ele>3247.2975832466195</ele>
        <time>2019-11-30T20:43:14Z</time>
      </trkpt>
      <trkpt lat="15.121134" lon="-92.103878">
        <ele>3248.9773435128686</ele>
        <time>2019-11-30T20:43:18Z</time>
      </trkpt>
      <trkpt lat="15.121145" lon="-92.103902">
        <ele>3250.5693072341646</ele>
        <time>2019-11-30T20:43:22Z</time>
      </trkpt>
      <trkpt lat="15.121152" lon="-92.103916">
        <ele>3251.4160805074</ele>
        <time>2019-11-30T20:43:26Z</time>
      </trkpt>
      <trkpt lat="15.121152" lon="-92.103925">
        <ele>3251.021642915678</ele>
        <time>2019-11-30T20:43:32Z</time>
      </trkpt>
      <trkpt lat="15.121156" lon="-92.103934">
        <ele>3251.3615526545927</ele>
        <time>2019-11-30T20:43:36Z</time>
      </trkpt>
      <trkpt lat="15.121166" lon="-92.103944">
        <ele>3252.159437619833</ele>
        <time>2019-11-30T20:43:41Z</time>
      </trkpt>
      <trkpt lat="15.121189" lon="-92.103962">
        <ele>3251.739061182543</ele>
        <time>2019-11-30T20:43:46Z</time>
      </trkpt>
      <trkpt lat="15.121195" lon="-92.103966">
        <ele>3251.7390601028605</ele>
        <time>2019-11-30T20:43:54Z</time>
      </trkpt>
      <trkpt lat="15.121192" lon="-92.103990">
        <ele>3252.4236468970075</ele>
        <time>2019-11-30T20:43:58Z</time>
      </trkpt>
      <trkpt lat="15.121194" lon="-92.104012">
        <ele>3253.690206502133</ele>
        <time>2019-11-30T20:44:02Z</time>
      </trkpt>
      <trkpt lat="15.121204" lon="-92.104021">
        <ele>3253.879200919715</ele>
        <time>2019-11-30T20:44:06Z</time>
      </trkpt>
      <trkpt lat="15.121211" lon="-92.104027">
        <ele>3253.8792213027396</ele>
        <time>2019-11-30T20:44:11Z</time>
      </trkpt>
      <trkpt lat="15.121218" lon="-92.104032">
        <ele>3253.8604232767116</ele>
        <time>2019-11-30T20:44:23Z</time>
      </trkpt>
      <trkpt lat="15.121236" lon="-92.104027">
        <ele>3255.742098158042</ele>
        <time>2019-11-30T20:44:28Z</time>
      </trkpt>
      <trkpt lat="15.121242" lon="-92.104013">
        <ele>3256.294165190478</ele>
        <time>2019-11-30T20:44:32Z</time>
      </trkpt>
      <trkpt lat="15.121257" lon="-92.104011">
        <ele>3256.892434508804</ele>
        <time>2019-11-30T20:44:36Z</time>
      </trkpt>
      <trkpt lat="15.121282" lon="-92.104032">
        <ele>3256.9977136981893</ele>
        <time>2019-11-30T20:44:40Z</time>
      </trkpt>
      <trkpt lat="15.121289" lon="-92.104041">
        <ele>3257.6549870059093</ele>
        <time>2019-11-30T20:44:44Z</time>
      </trkpt>
      <trkpt lat="15.121293" lon="-92.104052">
        <ele>3257.9092227321003</ele>
        <time>2019-11-30T20:44:49Z</time>
      </trkpt>
      <trkpt lat="15.121304" lon="-92.104059">
        <ele>3258.437546230475</ele>
        <time>2019-11-30T20:44:54Z</time>
      </trkpt>
      <trkpt lat="15.121312" lon="-92.104059">
        <ele>3258.4374927506374</ele>
        <time>2019-11-30T20:44:58Z</time>
      </trkpt>
      <trkpt lat="15.121322" lon="-92.104071">
        <ele>3258.7644495631125</ele>
        <time>2019-11-30T20:45:02Z</time>
      </trkpt>
      <trkpt lat="15.121339" lon="-92.104091">
        <ele>3258.846810091063</ele>
        <time>2019-11-30T20:45:06Z</time>
      </trkpt>
      <trkpt lat="15.121348" lon="-92.104099">
        <ele>3258.8468355758246</ele>
        <time>2019-11-30T20:45:11Z</time>
      </trkpt>
      <trkpt lat="15.121354" lon="-92.104104">
        <ele>3258.8468513132484</ele>
        <time>2019-11-30T20:45:16Z</time>
      </trkpt>
      <trkpt lat="15.121359" lon="-92.104112">
        <ele>3258.8469009094233</ele>
        <time>2019-11-30T20:45:34Z</time>
      </trkpt>
      <trkpt lat="15.121360" lon="-92.104105">
        <ele>3259.739394181131</ele>
        <time>2019-11-30T20:45:40Z</time>
      </trkpt>
      <trkpt lat="15.121365" lon="-92.104097">
        <ele>3259.7392897339787</ele>
        <time>2019-11-30T20:45:49Z</time>
      </trkpt>
      <trkpt lat="15.121369" lon="-92.104100">
        <ele>3259.7983736399856</ele>
        <time>2019-11-30T20:45:59Z</time>
      </trkpt>
      <trkpt lat="15.121384" lon="-92.104110">
        <ele>3260.0168793105304</ele>
        <time>2019-11-30T20:46:03Z</time>
      </trkpt>
      <trkpt lat="15.121398" lon="-92.104116">
        <ele>3260.0168538975927</ele>
        <time>2019-11-30T20:46:07Z</time>
      </trkpt>
      <trkpt lat="15.121406" lon="-92.104119">
        <ele>3260.0168360189823</ele>
        <time>2019-11-30T20:46:11Z</time>
      </trkpt>
      <trkpt lat="15.121414" lon="-92.104122">
        <ele>3260.016818794634</ele>
        <time>2019-11-30T20:46:30Z</time>
      </trkpt>
      <trkpt lat="15.121427" lon="-92.104112">
        <ele>3261.8723437007225</ele>
        <time>2019-11-30T20:46:35Z</time>
      </trkpt>
      <trkpt lat="15.121445" lon="-92.104101">
        <ele>3262.54619594894</ele>
        <time>2019-11-30T20:46:40Z</time>
      </trkpt>
      <trkpt lat="15.121450" lon="-92.104094">
        <ele>3262.546093083018</ele>
        <time>2019-11-30T20:46:49Z</time>
      </trkpt>
      <trkpt lat="15.121465" lon="-92.104102">
        <ele>3262.7443131280047</ele>
        <time>2019-11-30T20:46:53Z</time>
      </trkpt>
      <trkpt lat="15.121481" lon="-92.104112">
        <ele>3262.942311365506</ele>
        <time>2019-11-30T20:46:58Z</time>
      </trkpt>
      <trkpt lat="15.121490" lon="-92.104116">
        <ele>3262.942296587014</ele>
        <time>2019-11-30T20:47:02Z</time>
      </trkpt>
      <trkpt lat="15.121509" lon="-92.104121">
        <ele>3264.1014040069253</ele>
        <time>2019-11-30T20:47:07Z</time>
      </trkpt>
      <trkpt lat="15.121522" lon="-92.104122">
        <ele>3265.214862821254</ele>
        <time>2019-11-30T20:47:11Z</time>
      </trkpt>
      <trkpt lat="15.121543" lon="-92.104137">
        <ele>3265.5891423648613</ele>
        <time>2019-11-30T20:47:16Z</time>
      </trkpt>
      <trkpt lat="15.121554" lon="-92.104156">
        <ele>3267.125153929945</ele>
        <time>2019-11-30T20:47:21Z</time>
      </trkpt>
      <trkpt lat="15.121564" lon="-92.104170">
        <ele>3268.0004789336044</ele>
        <time>2019-11-30T20:47:25Z</time>
      </trkpt>
      <trkpt lat="15.121570" lon="-92.104176">
        <ele>3268.000498836969</ele>
        <time>2019-11-30T20:47:29Z</time>
      </trkpt>
      <trkpt lat="15.121578" lon="-92.104179">
        <ele>3269.6913974087565</ele>
        <time>2019-11-30T20:47:43Z</time>
      </trkpt>
      <trkpt lat="15.121584" lon="-92.104172">
        <ele>3270.5889865578465</ele>
        <time>2019-11-30T20:47:47Z</time>
      </trkpt>
      <trkpt lat="15.121591" lon="-92.104167">
        <ele>3272.7456273274815</ele>
        <time>2019-11-30T20:47:53Z</time>
      </trkpt>
      <trkpt lat="15.121602" lon="-92.104167">
        <ele>3273.6911232051907</ele>
        <time>2019-11-30T20:47:58Z</time>
      </trkpt>
      <trkpt lat="15.121616" lon="-92.104177">
        <ele>3273.739476421793</ele>
        <time>2019-11-30T20:48:02Z</time>
      </trkpt>
      <trkpt lat="15.121625" lon="-92.104193">
        <ele>3273.86725855016</ele>
        <time>2019-11-30T20:48:07Z</time>
      </trkpt>
      <trkpt lat="15.121637" lon="-92.104219">
        <ele>3274.0861876959184</ele>
        <time>2019-11-30T20:48:11Z</time>
      </trkpt>
      <trkpt lat="15.121647" lon="-92.104247">
        <ele>3274.070539645398</ele>
        <time>2019-11-30T20:48:15Z</time>
      </trkpt>
      <trkpt lat="15.121654" lon="-92.104278">
        <ele>3274.212159007313</ele>
        <time>2019-11-30T20:48:19Z</time>
      </trkpt>
      <trkpt lat="15.121660" lon="-92.104297">
        <ele>3274.2123113203083</ele>
        <time>2019-11-30T20:48:24Z</time>
      </trkpt>
      <trkpt lat="15.121663" lon="-92.104305">
        <ele>3274.2123773365943</ele>
        <time>2019-11-30T20:48:29Z</time>
      </trkpt>
      <trkpt lat="15.121670" lon="-92.104314">
        <ele>3275.635270904939</ele>
        <time>2019-11-30T20:48:33Z</time>
      </trkpt>
      <trkpt lat="15.121676" lon="-92.104321">
        <ele>3275.6353004150437</ele>
        <time>2019-11-30T20:48:40Z</time>
      </trkpt>
      <trkpt lat="15.121682" lon="-92.104338">
        <ele>3276.6288335756</ele>
        <time>2019-11-30T20:48:45Z</time>
      </trkpt>
      <trkpt lat="15.121684" lon="-92.104351">
        <ele>3276.6289523383175</ele>
        <time>2019-11-30T20:48:49Z</time>
      </trkpt>
      <trkpt lat="15.121689" lon="-92.104358">
        <ele>3276.772059107721</ele>
        <time>2019-11-30T20:48:55Z</time>
      </trkpt>
      <trkpt lat="15.121702" lon="-92.104363">
        <ele>3277.062559654735</ele>
        <time>2019-11-30T20:48:59Z</time>
      </trkpt>
      <trkpt lat="15.121710" lon="-92.104367">
        <ele>3277.0625446829613</ele>
        <time>2019-11-30T20:49:03Z</time>
      </trkpt>
      <trkpt lat="15.121716" lon="-92.104367">
        <ele>3277.203371402108</ele>
        <time>2019-11-30T20:49:09Z</time>
      </trkpt>
      <trkpt lat="15.121716" lon="-92.104348">
        <ele>3277.7896041688496</ele>
        <time>2019-11-30T20:49:13Z</time>
      </trkpt>
      <trkpt lat="15.121724" lon="-92.104345">
        <ele>3278.6711256895283</ele>
        <time>2019-11-30T20:49:29Z</time>
      </trkpt>
      <trkpt lat="15.121732" lon="-92.104349">
        <ele>3278.96042035258</ele>
        <time>2019-11-30T20:49:33Z</time>
      </trkpt>
      <trkpt lat="15.121746" lon="-92.104367">
        <ele>3279.753716139304</ele>
        <time>2019-11-30T20:49:38Z</time>
      </trkpt>
      <trkpt lat="15.121765" lon="-92.104389">
        <ele>3279.753814693525</ele>
        <time>2019-11-30T20:49:43Z</time>
      </trkpt>
      <trkpt lat="15.121773" lon="-92.104394">
        <ele>3279.753819471973</ele>
        <time>2019-11-30T20:49:47Z</time>
      </trkpt>
      <trkpt lat="15.121781" lon="-92.104395">
        <ele>3280.7242359709526</ele>
        <time>2019-11-30T20:49:51Z</time>
      </trkpt>
      <trkpt lat="15.121804" lon="-92.104404">
        <ele>3284.0542597324907</ele>
        <time>2019-11-30T20:49:56Z</time>
      </trkpt>
      <trkpt lat="15.121826" lon="-92.104422">
        <ele>3285.336030990738</ele>
        <time>2019-11-30T20:50:00Z</time>
      </trkpt>
      <trkpt lat="15.121841" lon="-92.104432">
        <ele>3285.3360409078164</ele>
        <time>2019-11-30T20:50:05Z</time>
      </trkpt>
      <trkpt lat="15.121849" lon="-92.104433">
        <ele>3286.150213115108</ele>
        <time>2019-11-30T20:50:39Z</time>
      </trkpt>
      <trkpt lat="15.121857" lon="-92.104427">
        <ele>3286.81465041988</ele>
        <time>2019-11-30T20:50:43Z</time>
      </trkpt>
      <trkpt lat="15.121867" lon="-92.104419">
        <ele>3286.814506476281</ele>
        <time>2019-11-30T20:50:48Z</time>
      </trkpt>
      <trkpt lat="15.121875" lon="-92.104414">
        <ele>3287.7101599449948</ele>
        <time>2019-11-30T20:51:04Z</time>
      </trkpt>
      <trkpt lat="15.121884" lon="-92.104414">
        <ele>3287.7101026126984</ele>
        <time>2019-11-30T20:51:19Z</time>
      </trkpt>
      <trkpt lat="15.121890" lon="-92.104408">
        <ele>3289.8462341303557</ele>
        <time>2019-11-30T20:51:28Z</time>
      </trkpt>
      <trkpt lat="15.121912" lon="-92.104381">
        <ele>3290.863407249188</ele>
        <time>2019-11-30T20:51:33Z</time>
      </trkpt>
      <trkpt lat="15.121921" lon="-92.104374">
        <ele>3290.8632858598426</ele>
        <time>2019-11-30T20:51:37Z</time>
      </trkpt>
      <trkpt lat="15.121928" lon="-92.104371">
        <ele>3291.827075965172</ele>
        <time>2019-11-30T20:51:50Z</time>
      </trkpt>
      <trkpt lat="15.121935" lon="-92.104364">
        <ele>3292.105033517726</ele>
        <time>2019-11-30T20:51:55Z</time>
      </trkpt>
      <trkpt lat="15.121952" lon="-92.104355">
        <ele>3292.8453191967046</ele>
        <time>2019-11-30T20:52:00Z</time>
      </trkpt>
      <trkpt lat="15.121973" lon="-92.104341">
        <ele>3293.4129164903215</ele>
        <time>2019-11-30T20:52:04Z</time>
      </trkpt>
      <trkpt lat="15.121979" lon="-92.104331">
        <ele>3293.4127728435155</ele>
        <time>2019-11-30T20:52:08Z</time>
      </trkpt>
      <trkpt lat="15.121990" lon="-92.104325">
        <ele>3294.6685082519202</ele>
        <time>2019-11-30T20:52:12Z</time>
      </trkpt>
      <trkpt lat="15.122039" lon="-92.104316">
        <ele>3296.6505309143317</ele>
        <time>2019-11-30T20:52:17Z</time>
      </trkpt>
      <trkpt lat="15.122085" lon="-92.104297">
        <ele>3296.650047387554</ele>
        <time>2019-11-30T20:52:21Z</time>
      </trkpt>
      <trkpt lat="15.122111" lon="-92.104271">
        <ele>3297.5612500742727</ele>
        <time>2019-11-30T20:52:26Z</time>
      </trkpt>
      <trkpt lat="15.122134" lon="-92.104248">
        <ele>3297.560867612597</ele>
        <time>2019-11-30T20:52:31Z</time>
      </trkpt>
      <trkpt lat="15.122144" lon="-92.104241">
        <ele>3297.6749942379824</ele>
        <time>2019-11-30T20:52:35Z</time>
      </trkpt>
      <trkpt lat="15.122160" lon="-92.104245">
        <ele>3297.9718065697593</ele>
        <time>2019-11-30T20:52:39Z</time>
      </trkpt>
      <trkpt lat="15.122168" lon="-92.104255">
        <ele>3297.971855081701</ele>
        <time>2019-11-30T20:52:43Z</time>
      </trkpt>
      <trkpt lat="15.122173" lon="-92.104262">
        <ele>3297.971895424447</ele>
        <time>2019-11-30T20:52:51Z</time>
      </trkpt>
      <trkpt lat="15.122180" lon="-92.104258">
        <ele>3299.807752903697</ele>
        <time>2019-11-30T20:53:04Z</time>
      </trkpt>
      <trkpt lat="15.122186" lon="-92.104252">
        <ele>3299.8076597800905</ele>
        <time>2019-11-30T20:53:09Z</time>
      </trkpt>
      <trkpt lat="15.122194" lon="-92.104248">
        <ele>3299.504340004949</ele>
        <time>2019-11-30T20:53:14Z</time>
      </trkpt>
      <trkpt lat="15.122204" lon="-92.104244">
        <ele>3299.5042355559253</ele>
        <time>2019-11-30T20:53:18Z</time>
      </trkpt>
      <trkpt lat="15.122212" lon="-92.104240">
        <ele>3299.5041438499948</ele>
        <time>2019-11-30T20:53:30Z</time>
      </trkpt>
      <trkpt lat="15.122220" lon="-92.104238">
        <ele>3301.6305401679297</ele>
        <time>2019-11-30T20:53:52Z</time>
      </trkpt>
      <trkpt lat="15.122235" lon="-92.104232">
        <ele>3302.3562155333902</ele>
        <time>2019-11-30T20:53:56Z</time>
      </trkpt>
      <trkpt lat="15.122246" lon="-92.104219">
        <ele>3302.253965506506</ele>
        <time>2019-11-30T20:54:01Z</time>
      </trkpt>
      <trkpt lat="15.122262" lon="-92.104199">
        <ele>3304.3605996878773</ele>
        <time>2019-11-30T20:54:05Z</time>
      </trkpt>
      <trkpt lat="15.122276" lon="-92.104182">
        <ele>3304.360340282915</ele>
        <time>2019-11-30T20:54:10Z</time>
      </trkpt>
      <trkpt lat="15.122282" lon="-92.104175">
        <ele>3304.3602356695505</ele>
        <time>2019-11-30T20:54:15Z</time>
      </trkpt>
      <trkpt lat="15.122288" lon="-92.104170">
        <ele>3304.3601489620874</ele>
        <time>2019-11-30T20:54:52Z</time>
      </trkpt>
      <trkpt lat="15.122298" lon="-92.104158">
        <ele>3307.2142107537848</ele>
        <time>2019-11-30T20:54:57Z</time>
      </trkpt>
      <trkpt lat="15.122303" lon="-92.104151">
        <ele>3307.214107202492</ele>
        <time>2019-11-30T20:55:01Z</time>
      </trkpt>
      <trkpt lat="15.122307" lon="-92.104144">
        <ele>3307.2140152607963</ele>
        <time>2019-11-30T20:55:23Z</time>
      </trkpt>
      <trkpt lat="15.122340" lon="-92.104158">
        <ele>3310.876785188895</ele>
        <time>2019-11-30T20:55:27Z</time>
      </trkpt>
      <trkpt lat="15.122366" lon="-92.104182">
        <ele>3310.876861024726</ele>
        <time>2019-11-30T20:55:32Z</time>
      </trkpt>
      <trkpt lat="15.122373" lon="-92.104188">
        <ele>3311.189131692466</ele>
        <time>2019-11-30T20:55:36Z</time>
      </trkpt>
      <trkpt lat="15.122382" lon="-92.104206">
        <ele>3312.0537501138715</ele>
        <time>2019-11-30T20:55:40Z</time>
      </trkpt>
      <trkpt lat="15.122407" lon="-92.104221">
        <ele>3312.4045763752024</ele>
        <time>2019-11-30T20:55:44Z</time>
      </trkpt>
      <trkpt lat="15.122431" lon="-92.104233">
        <ele>3312.3669464577115</ele>
        <time>2019-11-30T20:55:48Z</time>
      </trkpt>
      <trkpt lat="15.122461" lon="-92.104237">
        <ele>3312.4563951973487</ele>
        <time>2019-11-30T20:55:53Z</time>
      </trkpt>
      <trkpt lat="15.122477" lon="-92.104240">
        <ele>3312.456320395333</ele>
        <time>2019-11-30T20:55:57Z</time>
      </trkpt>
      <trkpt lat="15.122487" lon="-92.104240">
        <ele>3314.2580216096694</ele>
        <time>2019-11-30T20:56:02Z</time>
      </trkpt>
      <trkpt lat="15.122507" lon="-92.104237">
        <ele>3317.0620663718523</ele>
        <time>2019-11-30T20:56:07Z</time>
      </trkpt>
      <trkpt lat="15.122522" lon="-92.104235">
        <ele>3317.0619448730586</ele>
        <time>2019-11-30T20:56:11Z</time>
      </trkpt>
      <trkpt lat="15.122534" lon="-92.104233">
        <ele>3317.0618497976475</ele>
        <time>2019-11-30T20:56:15Z</time>
      </trkpt>
      <trkpt lat="15.122538" lon="-92.104225">
        <ele>3320.011939502536</ele>
        <time>2019-11-30T20:56:21Z</time>
      </trkpt>
      <trkpt lat="15.122544" lon="-92.104211">
        <ele>3322.1135705185848</ele>
        <time>2019-11-30T20:56:26Z</time>
      </trkpt>
      <trkpt lat="15.122548" lon="-92.104204">
        <ele>3322.113468709125</ele>
        <time>2019-11-30T20:56:33Z</time>
      </trkpt>
      <trkpt lat="15.122553" lon="-92.104198">
        <ele>3322.06919844502</ele>
        <time>2019-11-30T20:56:39Z</time>
      </trkpt>
      <trkpt lat="15.122566" lon="-92.104182">
        <ele>3322.093851654384</ele>
        <time>2019-11-30T20:56:44Z</time>
      </trkpt>
      <trkpt lat="15.122572" lon="-92.104175">
        <ele>3322.0937465989305</ele>
        <time>2019-11-30T20:56:48Z</time>
      </trkpt>
      <trkpt lat="15.122578" lon="-92.104168">
        <ele>3322.9620504643462</ele>
        <time>2019-11-30T20:56:53Z</time>
      </trkpt>
      <trkpt lat="15.122595" lon="-92.104155">
        <ele>3325.291651775374</ele>
        <time>2019-11-30T20:56:57Z</time>
      </trkpt>
      <trkpt lat="15.122598" lon="-92.104135">
        <ele>3326.451820575034</ele>
        <time>2019-11-30T20:57:01Z</time>
      </trkpt>
      <trkpt lat="15.122608" lon="-92.104113">
        <ele>3326.612430780492</ele>
        <time>2019-11-30T20:57:06Z</time>
      </trkpt>
      <trkpt lat="15.122612" lon="-92.104100">
        <ele>3326.612279914858</ele>
        <time>2019-11-30T20:57:11Z</time>
      </trkpt>
      <trkpt lat="15.122615" lon="-92.104092">
        <ele>3326.612176910108</ele>
        <time>2019-11-30T20:57:20Z</time>
      </trkpt>
      <trkpt lat="15.122621" lon="-92.104092">
        <ele>3327.65926360313</ele>
        <time>2019-11-30T20:57:26Z</time>
      </trkpt>
      <trkpt lat="15.122635" lon="-92.104098">
        <ele>3327.65923081845</ele>
        <time>2019-11-30T20:57:30Z</time>
      </trkpt>
      <trkpt lat="15.122643" lon="-92.104101">
        <ele>3327.659208885128</ele>
        <time>2019-11-30T20:57:39Z</time>
      </trkpt>
      <trkpt lat="15.122651" lon="-92.104098">
        <ele>3330.5319356688724</ele>
        <time>2019-11-30T20:57:49Z</time>
      </trkpt>
      <trkpt lat="15.122692" lon="-92.104076">
        <ele>3332.6510863050135</ele>
        <time>2019-11-30T20:57:53Z</time>
      </trkpt>
      <trkpt lat="15.122726" lon="-92.104061">
        <ele>3333.7417860455603</ele>
        <time>2019-11-30T20:57:57Z</time>
      </trkpt>
      <trkpt lat="15.122748" lon="-92.104053">
        <ele>3335.783307998952</ele>
        <time>2019-11-30T20:58:01Z</time>
      </trkpt>
      <trkpt lat="15.122778" lon="-92.104035">
        <ele>3336.870589471004</ele>
        <time>2019-11-30T20:58:06Z</time>
      </trkpt>
      <trkpt lat="15.122800" lon="-92.104020">
        <ele>3338.3136590111353</ele>
        <time>2019-11-30T20:58:11Z</time>
      </trkpt>
      <trkpt lat="15.122819" lon="-92.104020">
        <ele>3339.031067614042</ele>
        <time>2019-11-30T20:58:15Z</time>
      </trkpt>
      <trkpt lat="15.122839" lon="-92.104038">
        <ele>3339.5042628712017</ele>
        <time>2019-11-30T20:58:19Z</time>
      </trkpt>
      <trkpt lat="15.122851" lon="-92.104048">
        <ele>3339.8453537817413</ele>
        <time>2019-11-30T20:58:23Z</time>
      </trkpt>
      <trkpt lat="15.122860" lon="-92.104055">
        <ele>3339.845367654635</ele>
        <time>2019-11-30T20:58:28Z</time>
      </trkpt>
      <trkpt lat="15.122870" lon="-92.104059">
        <ele>3341.058230181329</ele>
        <time>2019-11-30T20:58:33Z</time>
      </trkpt>
      <trkpt lat="15.122881" lon="-92.104060">
        <ele>3341.91461636016</ele>
        <time>2019-11-30T20:58:37Z</time>
      </trkpt>
      <trkpt lat="15.122886" lon="-92.104053">
        <ele>3344.0951755398564</ele>
        <time>2019-11-30T20:59:37Z</time>
      </trkpt>
      <trkpt lat="15.122894" lon="-92.104051">
        <ele>3344.095110703959</ele>
        <time>2019-11-30T20:59:42Z</time>
      </trkpt>
      <trkpt lat="15.122908" lon="-92.104057">
        <ele>3344.59361559849</ele>
        <time>2019-11-30T20:59:46Z</time>
      </trkpt>
      <trkpt lat="15.122921" lon="-92.104065">
        <ele>3344.154162608058</ele>
        <time>2019-11-30T20:59:51Z</time>
      </trkpt>
      <trkpt lat="15.122925" lon="-92.104073">
        <ele>3344.8226752783257</ele>
        <time>2019-11-30T20:59:56Z</time>
      </trkpt>
      <trkpt lat="15.122941" lon="-92.104101">
        <ele>3346.72250776972</ele>
        <time>2019-11-30T21:00:01Z</time>
      </trkpt>
      <trkpt lat="15.122949" lon="-92.104117">
        <ele>3346.8881485617394</ele>
        <time>2019-11-30T21:00:05Z</time>
      </trkpt>
      <trkpt lat="15.122950" lon="-92.104127">
        <ele>3346.8882413845004</ele>
        <time>2019-11-30T21:00:10Z</time>
      </trkpt>
      <trkpt lat="15.122955" lon="-92.104134">
        <ele>3347.4285576048437</ele>
        <time>2019-11-30T21:00:35Z</time>
      </trkpt>
      <trkpt lat="15.122957" lon="-92.104135">
        <ele>3347.838224597516</ele>
        <time>2019-11-30T21:00:48Z</time>
      </trkpt>
      <trkpt lat="15.122969" lon="-92.104145">
        <ele>3347.8382504764663</ele>
        <time>2019-11-30T21:00:52Z</time>
      </trkpt>
      <trkpt lat="15.122971" lon="-92.104152">
        <ele>3348.7101333091723</ele>
        <time>2019-11-30T21:01:08Z</time>
      </trkpt>
      <trkpt lat="15.122972" lon="-92.104204">
        <ele>3348.862258451823</ele>
        <time>2019-11-30T21:01:13Z</time>
      </trkpt>
      <trkpt lat="15.122979" lon="-92.104220">
        <ele>3348.8623731055854</ele>
        <time>2019-11-30T21:01:17Z</time>
      </trkpt>
      <trkpt lat="15.122988" lon="-92.104244">
        <ele>3349.6525864529895</ele>
        <time>2019-11-30T21:01:21Z</time>
      </trkpt>
      <trkpt lat="15.123000" lon="-92.104271">
        <ele>3349.8541995357373</ele>
        <time>2019-11-30T21:01:25Z</time>
      </trkpt>
      <trkpt lat="15.123007" lon="-92.104287">
        <ele>3349.8543143546735</ele>
        <time>2019-11-30T21:01:30Z</time>
      </trkpt>
      <trkpt lat="15.123011" lon="-92.104295">
        <ele>3349.85437469886</ele>
        <time>2019-11-30T21:01:36Z</time>
      </trkpt>
      <trkpt lat="15.123014" lon="-92.104292">
        <ele>3352.904373611634</ele>
        <time>2019-11-30T21:02:14Z</time>
      </trkpt>
      <trkpt lat="15.123032" lon="-92.104277">
        <ele>3356.4204633283057</ele>
        <time>2019-11-30T21:02:18Z</time>
      </trkpt>
      <trkpt lat="15.123038" lon="-92.104240">
        <ele>3360.870250799232</ele>
        <time>2019-11-30T21:02:22Z</time>
      </trkpt>
      <trkpt lat="15.123043" lon="-92.104218">
        <ele>3360.8699985805365</ele>
        <time>2019-11-30T21:02:27Z</time>
      </trkpt>
      <trkpt lat="15.123046" lon="-92.104208">
        <ele>3360.869885355833</ele>
        <time>2019-11-30T21:02:32Z</time>
      </trkpt>
      <trkpt lat="15.123050" lon="-92.104200">
        <ele>3360.8854034602464</ele>
        <time>2019-11-30T21:02:40Z</time>
      </trkpt>
      <trkpt lat="15.123060" lon="-92.104200">
        <ele>3361.2571646144606</ele>
        <time>2019-11-30T21:02:45Z</time>
      </trkpt>
      <trkpt lat="15.123071" lon="-92.104202">
        <ele>3361.3750337788424</ele>
        <time>2019-11-30T21:02:50Z</time>
      </trkpt>
      <trkpt lat="15.123082" lon="-92.104213">
        <ele>3361.2488531589793</ele>
        <time>2019-11-30T21:02:54Z</time>
      </trkpt>
      <trkpt lat="15.123078" lon="-92.104232">
        <ele>3361.249066445947</ele>
        <time>2019-11-30T21:02:59Z</time>
      </trkpt>
      <trkpt lat="15.123080" lon="-92.104241">
        <ele>3361.249147550016</ele>
        <time>2019-11-30T21:03:13Z</time>
      </trkpt>
      <trkpt lat="15.123082" lon="-92.104245">
        <ele>3362.5736359681305</ele>
        <time>2019-11-30T21:03:33Z</time>
      </trkpt>
      <trkpt lat="15.123107" lon="-92.104271">
        <ele>3364.542969958108</ele>
        <time>2019-11-30T21:03:38Z</time>
      </trkpt>
      <trkpt lat="15.123132" lon="-92.104292">
        <ele>3364.5430301180922</ele>
        <time>2019-11-30T21:03:42Z</time>
      </trkpt>
      <trkpt lat="15.123146" lon="-92.104301">
        <ele>3364.543033171869</ele>
        <time>2019-11-30T21:03:47Z</time>
      </trkpt>
      <trkpt lat="15.123154" lon="-92.104306">
        <ele>3364.543028378851</ele>
        <time>2019-11-30T21:03:59Z</time>
      </trkpt>
      <trkpt lat="15.123162" lon="-92.104304">
        <ele>3365.334466139927</ele>
        <time>2019-11-30T21:05:00Z</time>
      </trkpt>
      <trkpt lat="15.123175" lon="-92.104314">
        <ele>3366.6809164655215</ele>
        <time>2019-11-30T21:05:05Z</time>
      </trkpt>
      <trkpt lat="15.123181" lon="-92.104322">
        <ele>3366.6809610015353</ele>
        <time>2019-11-30T21:05:10Z</time>
      </trkpt>
      <trkpt lat="15.123189" lon="-92.104326">
        <ele>3366.555699136996</ele>
        <time>2019-11-30T21:05:37Z</time>
      </trkpt>
      <trkpt lat="15.123214" lon="-92.104332">
        <ele>3367.108337829986</ele>
        <time>2019-11-30T21:05:41Z</time>
      </trkpt>
      <trkpt lat="15.123253" lon="-92.104352">
        <ele>3367.108290215812</ele>
        <time>2019-11-30T21:05:45Z</time>
      </trkpt>
      <trkpt lat="15.123291" lon="-92.104372">
        <ele>3367.9947242934004</ele>
        <time>2019-11-30T21:05:50Z</time>
      </trkpt>
      <trkpt lat="15.123316" lon="-92.104398">
        <ele>3369.1127465786294</ele>
        <time>2019-11-30T21:05:55Z</time>
      </trkpt>
      <trkpt lat="15.123322" lon="-92.104416">
        <ele>3369.11288540074</ele>
        <time>2019-11-30T21:05:59Z</time>
      </trkpt>
      <trkpt lat="15.123337" lon="-92.104415">
        <ele>3375.3937814637475</ele>
        <time>2019-11-30T21:06:03Z</time>
      </trkpt>
      <trkpt lat="15.123351" lon="-92.104409">
        <ele>3376.4541884423597</ele>
        <time>2019-11-30T21:06:07Z</time>
      </trkpt>
      <trkpt lat="15.123369" lon="-92.104406">
        <ele>3377.1434956846538</ele>
        <time>2019-11-30T21:06:12Z</time>
      </trkpt>
      <trkpt lat="15.123378" lon="-92.104405">
        <ele>3377.143428746764</ele>
        <time>2019-11-30T21:06:18Z</time>
      </trkpt>
      <trkpt lat="15.123384" lon="-92.104408">
        <ele>3377.7610938807798</ele>
        <time>2019-11-30T21:06:23Z</time>
      </trkpt>
      <trkpt lat="15.123413" lon="-92.104414">
        <ele>3377.9963257543395</ele>
        <time>2019-11-30T21:06:28Z</time>
      </trkpt>
      <trkpt lat="15.123427" lon="-92.104421">
        <ele>3377.9962989339856</ele>
        <time>2019-11-30T21:06:32Z</time>
      </trkpt>
      <trkpt lat="15.123433" lon="-92.104431">
        <ele>3378.0622796404377</ele>
        <time>2019-11-30T21:06:36Z</time>
      </trkpt>
      <trkpt lat="15.123439" lon="-92.104445">
        <ele>3378.20960582183</ele>
        <time>2019-11-30T21:06:41Z</time>
      </trkpt>
      <trkpt lat="15.123439" lon="-92.104454">
        <ele>3378.209692428111</ele>
        <time>2019-11-30T21:06:52Z</time>
      </trkpt>
      <trkpt lat="15.123444" lon="-92.104460">
        <ele>3378.9245615737136</ele>
        <time>2019-11-30T21:07:13Z</time>
      </trkpt>
      <trkpt lat="15.123449" lon="-92.104469">
        <ele>3379.245907841979</ele>
        <time>2019-11-30T21:07:18Z</time>
      </trkpt>
      <trkpt lat="15.123452" lon="-92.104475">
        <ele>3380.474952429754</ele>
        <time>2019-11-30T21:07:31Z</time>
      </trkpt>
      <trkpt lat="15.123461" lon="-92.104483">
        <ele>3382.4344518424678</ele>
        <time>2019-11-30T21:07:35Z</time>
      </trkpt>
      <trkpt lat="15.123464" lon="-92.104486">
        <ele>3385.823132884398</ele>
        <time>2019-11-30T21:07:42Z</time>
      </trkpt>
      <trkpt lat="15.123489" lon="-92.104502">
        <ele>3387.0924287132284</ele>
        <time>2019-11-30T21:07:47Z</time>
      </trkpt>
      <trkpt lat="15.123495" lon="-92.104508">
        <ele>3387.092443329621</ele>
        <time>2019-11-30T21:07:52Z</time>
      </trkpt>
      <trkpt lat="15.123501" lon="-92.104513">
        <ele>3389.5216526520358</ele>
        <time>2019-11-30T21:08:13Z</time>
      </trkpt>
      <trkpt lat="15.123516" lon="-92.104520">
        <ele>3389.521629381037</ele>
        <time>2019-11-30T21:08:18Z</time>
      </trkpt>
      <trkpt lat="15.123523" lon="-92.104523">
        <ele>3390.2437873341814</ele>
        <time>2019-11-30T21:08:29Z</time>
      </trkpt>
      <trkpt lat="15.123542" lon="-92.104526">
        <ele>3391.166786697801</ele>
        <time>2019-11-30T21:08:34Z</time>
      </trkpt>
      <trkpt lat="15.123563" lon="-92.104536">
        <ele>3392.162849972672</ele>
        <time>2019-11-30T21:08:38Z</time>
      </trkpt>
      <trkpt lat="15.123579" lon="-92.104532">
        <ele>3393.425157124233</ele>
        <time>2019-11-30T21:08:42Z</time>
      </trkpt>
      <trkpt lat="15.123598" lon="-92.104529">
        <ele>3394.434774145639</ele>
        <time>2019-11-30T21:08:47Z</time>
      </trkpt>
      <trkpt lat="15.123611" lon="-92.104520">
        <ele>3394.3806470833424</ele>
        <time>2019-11-30T21:08:51Z</time>
      </trkpt>
      <trkpt lat="15.123617" lon="-92.104540">
        <ele>3395.083931672951</ele>
        <time>2019-11-30T21:08:56Z</time>
      </trkpt>
      <trkpt lat="15.123625" lon="-92.104552">
        <ele>3395.168971015179</ele>
        <time>2019-11-30T21:09:01Z</time>
      </trkpt>
      <trkpt lat="15.123634" lon="-92.104559">
        <ele>3396.1186899537947</ele>
        <time>2019-11-30T21:09:05Z</time>
      </trkpt>
      <trkpt lat="15.123640" lon="-92.104565">
        <ele>3396.1187044116923</ele>
        <time>2019-11-30T21:09:09Z</time>
      </trkpt>
      <trkpt lat="15.123647" lon="-92.104571">
        <ele>3396.118721709717</ele>
        <time>2019-11-30T21:09:24Z</time>
      </trkpt>
      <trkpt lat="15.123655" lon="-92.104579">
        <ele>3396.8916996523735</ele>
        <time>2019-11-30T21:09:29Z</time>
      </trkpt>
      <trkpt lat="15.123657" lon="-92.104588">
        <ele>3396.8917747229657</ele>
        <time>2019-11-30T21:09:53Z</time>
      </trkpt>
      <trkpt lat="15.123662" lon="-92.104591">
        <ele>3397.171810135697</ele>
        <time>2019-11-30T21:10:35Z</time>
      </trkpt>
      <trkpt lat="15.123667" lon="-92.104600">
        <ele>3397.3430129031285</ele>
        <time>2019-11-30T21:10:40Z</time>
      </trkpt>
      <trkpt lat="15.123670" lon="-92.104611">
        <ele>3397.343093245172</ele>
        <time>2019-11-30T21:10:44Z</time>
      </trkpt>
      <trkpt lat="15.123679" lon="-92.104622">
        <ele>3398.8314308254376</ele>
        <time>2019-11-30T21:10:48Z</time>
      </trkpt>
      <trkpt lat="15.123704" lon="-92.104640">
        <ele>3399.7001033971596</ele>
        <time>2019-11-30T21:10:52Z</time>
      </trkpt>
      <trkpt lat="15.123713" lon="-92.104652">
        <ele>3399.7001713973</ele>
        <time>2019-11-30T21:10:56Z</time>
      </trkpt>
      <trkpt lat="15.123717" lon="-92.104660">
        <ele>3399.7002242150925</ele>
        <time>2019-11-30T21:11:02Z</time>
      </trkpt>
      <trkpt lat="15.123723" lon="-92.104667">
        <ele>3399.7002507228517</ele>
        <time>2019-11-30T21:12:56Z</time>
      </trkpt>
      <trkpt lat="15.123724" lon="-92.104673">
        <ele>3402.805534291918</ele>
        <time>2019-11-30T21:13:22Z</time>
      </trkpt>
      <trkpt lat="15.123731" lon="-92.104683">
        <ele>3402.8055913534317</ele>
        <time>2019-11-30T21:13:26Z</time>
      </trkpt>
      <trkpt lat="15.123738" lon="-92.104689">
        <ele>3402.8056061297357</ele>
        <time>2019-11-30T21:13:43Z</time>
      </trkpt>
      <trkpt lat="15.123769" lon="-92.104698">
        <ele>3405.302079081243</ele>
        <time>2019-11-30T21:13:48Z</time>
      </trkpt>
      <trkpt lat="15.123792" lon="-92.104712">
        <ele>3407.324536068846</ele>
        <time>2019-11-30T21:13:52Z</time>
      </trkpt>
      <trkpt lat="15.123813" lon="-92.104721">
        <ele>3407.324488785109</ele>
        <time>2019-11-30T21:13:57Z</time>
      </trkpt>
      <trkpt lat="15.123822" lon="-92.104725">
        <ele>3407.324473010041</ele>
        <time>2019-11-30T21:14:02Z</time>
      </trkpt>
      <trkpt lat="15.123830" lon="-92.104727">
        <ele>3407.324447707623</ele>
        <time>2019-11-30T21:14:42Z</time>
      </trkpt>
      <trkpt lat="15.123851" lon="-92.104743">
        <ele>3411.8781779036954</ele>
        <time>2019-11-30T21:14:46Z</time>
      </trkpt>
      <trkpt lat="15.123895" lon="-92.104761">
        <ele>3411.8780795540792</ele>
        <time>2019-11-30T21:14:50Z</time>
      </trkpt>
      <trkpt lat="15.123909" lon="-92.104783">
        <ele>3414.140426260381</ele>
        <time>2019-11-30T21:14:55Z</time>
      </trkpt>
      <trkpt lat="15.123920" lon="-92.104789">
        <ele>3414.1404136770198</ele>
        <time>2019-11-30T21:14:59Z</time>
      </trkpt>
      <trkpt lat="15.123927" lon="-92.104795">
        <ele>3414.1404258307775</ele>
        <time>2019-11-30T21:15:06Z</time>
      </trkpt>
      <trkpt lat="15.123934" lon="-92.104798">
        <ele>3414.9187313316215</ele>
        <time>2019-11-30T21:15:19Z</time>
      </trkpt>
      <trkpt lat="15.123946" lon="-92.104801">
        <ele>3415.273911302152</ele>
        <time>2019-11-30T21:15:23Z</time>
      </trkpt>
      <trkpt lat="15.123955" lon="-92.104802">
        <ele>3415.273868854726</ele>
        <time>2019-11-30T21:15:29Z</time>
      </trkpt>
      <trkpt lat="15.123960" lon="-92.104797">
        <ele>3418.2791609060923</ele>
        <time>2019-11-30T21:15:39Z</time>
      </trkpt>
      <trkpt lat="15.123973" lon="-92.104783">
        <ele>3420.7200918007925</ele>
        <time>2019-11-30T21:15:44Z</time>
      </trkpt>
      <trkpt lat="15.123984" lon="-92.104772">
        <ele>3420.719909129865</ele>
        <time>2019-11-30T21:15:49Z</time>
      </trkpt>
      <trkpt lat="15.123990" lon="-92.104767">
        <ele>3421.1902937798304</ele>
        <time>2019-11-30T21:15:53Z</time>
      </trkpt>
      <trkpt lat="15.124010" lon="-92.104764">
        <ele>3421.6998937661106</ele>
        <time>2019-11-30T21:15:58Z</time>
      </trkpt>
      <trkpt lat="15.124020" lon="-92.104763">
        <ele>3421.699824151273</ele>
        <time>2019-11-30T21:16:02Z</time>
      </trkpt>
      <trkpt lat="15.124029" lon="-92.104762">
        <ele>3421.699760865756</ele>
        <time>2019-11-30T21:16:09Z</time>
      </trkpt>
      <trkpt lat="15.124033" lon="-92.104764">
        <ele>3422.1938906522273</ele>
        <time>2019-11-30T21:16:32Z</time>
      </trkpt>
      <trkpt lat="15.124040" lon="-92.104787">
        <ele>3423.8630230437248</ele>
        <time>2019-11-30T21:16:36Z</time>
      </trkpt>
      <trkpt lat="15.124059" lon="-92.104819">
        <ele>3427.2186962433634</ele>
        <time>2019-11-30T21:16:41Z</time>
      </trkpt>
      <trkpt lat="15.124084" lon="-92.104837">
        <ele>3429.7392187981586</ele>
        <time>2019-11-30T21:16:45Z</time>
      </trkpt>
      <trkpt lat="15.124101" lon="-92.104845">
        <ele>3429.7391945273953</ele>
        <time>2019-11-30T21:16:50Z</time>
      </trkpt>
      <trkpt lat="15.124110" lon="-92.104850">
        <ele>3429.7391889159508</ele>
        <time>2019-11-30T21:16:55Z</time>
      </trkpt>
      <trkpt lat="15.124118" lon="-92.104855">
        <ele>3429.739182737373</ele>
        <time>2019-11-30T21:17:10Z</time>
      </trkpt>
      <trkpt lat="15.124121" lon="-92.104862">
        <ele>3429.457011848613</ele>
        <time>2019-11-30T21:17:24Z</time>
      </trkpt>
      <trkpt lat="15.124142" lon="-92.104868">
        <ele>3428.8546430051883</ele>
        <time>2019-11-30T21:17:28Z</time>
      </trkpt>
      <trkpt lat="15.124161" lon="-92.104873">
        <ele>3428.854566406391</ele>
        <time>2019-11-30T21:17:32Z</time>
      </trkpt>
      <trkpt lat="15.124168" lon="-92.104878">
        <ele>3428.8545746842033</ele>
        <time>2019-11-30T21:17:39Z</time>
      </trkpt>
      <trkpt lat="15.124169" lon="-92.104884">
        <ele>3429.089982861773</ele>
        <time>2019-11-30T21:17:46Z</time>
      </trkpt>
      <trkpt lat="15.124190" lon="-92.104893">
        <ele>3429.594334077849</ele>
        <time>2019-11-30T21:17:50Z</time>
      </trkpt>
      <trkpt lat="15.124202" lon="-92.104902">
        <ele>3429.5943433165394</ele>
        <time>2019-11-30T21:17:55Z</time>
      </trkpt>
      <trkpt lat="15.124206" lon="-92.104910">
        <ele>3429.594406974464</ele>
        <time>2019-11-30T21:18:03Z</time>
      </trkpt>
      <trkpt lat="15.124214" lon="-92.104909">
        <ele>3429.927348999996</ele>
        <time>2019-11-30T21:19:11Z</time>
      </trkpt>
      <trkpt lat="15.124233" lon="-92.104939">
        <ele>3430.7922760769666</ele>
        <time>2019-11-30T21:19:15Z</time>
      </trkpt>
      <trkpt lat="15.124261" lon="-92.104978">
        <ele>3430.7924906045555</ele>
        <time>2019-11-30T21:19:19Z</time>
      </trkpt>
      <trkpt lat="15.124276" lon="-92.104997">
        <ele>3430.7925763199837</ele>
        <time>2019-11-30T21:19:23Z</time>
      </trkpt>
      <trkpt lat="15.124283" lon="-92.105004">
        <ele>3430.792605581231</ele>
        <time>2019-11-30T21:19:27Z</time>
      </trkpt>
      <trkpt lat="15.124288" lon="-92.105011">
        <ele>3430.792647868379</ele>
        <time>2019-11-30T21:19:41Z</time>
      </trkpt>
      <trkpt lat="15.124292" lon="-92.105018">
        <ele>3431.678190109111</ele>
        <time>2019-11-30T21:20:08Z</time>
      </trkpt>
      <trkpt lat="15.124307" lon="-92.105048">
        <ele>3433.602957732644</ele>
        <time>2019-11-30T21:20:12Z</time>
      </trkpt>
      <trkpt lat="15.124326" lon="-92.105067">
        <ele>3434.841304910074</ele>
        <time>2019-11-30T21:20:16Z</time>
      </trkpt>
      <trkpt lat="15.124346" lon="-92.105091">
        <ele>3436.690294021492</ele>
        <time>2019-11-30T21:20:20Z</time>
      </trkpt>
      <trkpt lat="15.124359" lon="-92.105102">
        <ele>3436.6903303334543</ele>
        <time>2019-11-30T21:20:24Z</time>
      </trkpt>
      <trkpt lat="15.124367" lon="-92.105106">
        <ele>3436.690314007911</ele>
        <time>2019-11-30T21:20:30Z</time>
      </trkpt>
      <trkpt lat="15.124374" lon="-92.105108">
        <ele>3439.5091334456</ele>
        <time>2019-11-30T21:20:53Z</time>
      </trkpt>
      <trkpt lat="15.124382" lon="-92.105112">
        <ele>3441.6819768168266</ele>
        <time>2019-11-30T21:20:59Z</time>
      </trkpt>
      <trkpt lat="15.124390" lon="-92.105113">
        <ele>3442.2556646674666</ele>
        <time>2019-11-30T21:21:03Z</time>
      </trkpt>
      <trkpt lat="15.124398" lon="-92.105115">
        <ele>3445.028345141658</ele>
        <time>2019-11-30T21:21:13Z</time>
      </trkpt>
      <trkpt lat="15.124403" lon="-92.105113">
        <ele>3446.4318536622404</ele>
        <time>2019-11-30T21:21:20Z</time>
      </trkpt>
      <trkpt lat="15.124416" lon="-92.105106">
        <ele>3446.4317017270187</ele>
        <time>2019-11-30T21:21:24Z</time>
      </trkpt>
      <trkpt lat="15.124424" lon="-92.105108">
        <ele>3448.3257167649654</ele>
        <time>2019-11-30T21:21:31Z</time>
      </trkpt>
      <trkpt lat="15.124432" lon="-92.105110">
        <ele>3448.068600710486</ele>
        <time>2019-11-30T21:21:37Z</time>
      </trkpt>
      <trkpt lat="15.124445" lon="-92.105119">
        <ele>3447.60181282896</ele>
        <time>2019-11-30T21:21:42Z</time>
      </trkpt>
      <trkpt lat="15.124452" lon="-92.105122">
        <ele>3447.453360596002</ele>
        <time>2019-11-30T21:21:48Z</time>
      </trkpt>
      <trkpt lat="15.124460" lon="-92.105134">
        <ele>3448.055001876561</ele>
        <time>2019-11-30T21:21:53Z</time>
      </trkpt>
      <trkpt lat="15.124463" lon="-92.105143">
        <ele>3448.0550634942224</ele>
        <time>2019-11-30T21:22:00Z</time>
      </trkpt>
      <trkpt lat="15.124469" lon="-92.105144">
        <ele>3448.2413238489203</ele>
        <time>2019-11-30T21:22:37Z</time>
      </trkpt>
      <trkpt lat="15.124501" lon="-92.105142">
        <ele>3449.0831396792855</ele>
        <time>2019-11-30T21:22:42Z</time>
      </trkpt>
      <trkpt lat="15.124528" lon="-92.105149">
        <ele>3450.501490608082</ele>
        <time>2019-11-30T21:22:46Z</time>
      </trkpt>
      <trkpt lat="15.124547" lon="-92.105152">
        <ele>3450.7460367665026</ele>
        <time>2019-11-30T21:22:50Z</time>
      </trkpt>
      <trkpt lat="15.124556" lon="-92.105163">
        <ele>3451.3759698994763</ele>
        <time>2019-11-30T21:22:55Z</time>
      </trkpt>
      <trkpt lat="15.124563" lon="-92.105175">
        <ele>3452.0276550449053</ele>
        <time>2019-11-30T21:22:59Z</time>
      </trkpt>
      <trkpt lat="15.124569" lon="-92.105180">
        <ele>3452.027670516466</ele>
        <time>2019-11-30T21:23:04Z</time>
      </trkpt>
      <trkpt lat="15.124575" lon="-92.105185">
        <ele>3452.027676096641</ele>
        <time>2019-11-30T21:23:20Z</time>
      </trkpt>
      <trkpt lat="15.124583" lon="-92.105199">
        <ele>3452.3788467886056</ele>
        <time>2019-11-30T21:23:25Z</time>
      </trkpt>
      <trkpt lat="15.124587" lon="-92.105207">
        <ele>3452.378897425197</ele>
        <time>2019-11-30T21:23:36Z</time>
      </trkpt>
      <trkpt lat="15.124589" lon="-92.105213">
        <ele>3452.5911009353003</ele>
        <time>2019-11-30T21:24:25Z</time>
      </trkpt>
      <trkpt lat="15.124581" lon="-92.105250">
        <ele>3453.368867598011</ele>
        <time>2019-11-30T21:24:30Z</time>
      </trkpt>
      <trkpt lat="15.124573" lon="-92.105266">
        <ele>3453.6432434394233</ele>
        <time>2019-11-30T21:24:34Z</time>
      </trkpt>
      <trkpt lat="15.124568" lon="-92.105272">
        <ele>3453.6433406158008</ele>
        <time>2019-11-30T21:24:38Z</time>
      </trkpt>
      <trkpt lat="15.124564" lon="-92.105280">
        <ele>3453.6434477027246</ele>
        <time>2019-11-30T21:24:49Z</time>
      </trkpt>
      <trkpt lat="15.124564" lon="-92.105289">
        <ele>3453.6435341711785</ele>
        <time>2019-11-30T21:25:34Z</time>
      </trkpt>
      <trkpt lat="15.124564" lon="-92.105334">
        <ele>3457.5761111662605</ele>
        <time>2019-11-30T21:25:38Z</time>
      </trkpt>
      <trkpt lat="15.124554" lon="-92.105379">
        <ele>3458.795867580342</ele>
        <time>2019-11-30T21:25:43Z</time>
      </trkpt>
      <trkpt lat="15.124553" lon="-92.105391">
        <ele>3458.7959920243875</ele>
        <time>2019-11-30T21:25:48Z</time>
      </trkpt>
      <trkpt lat="15.124555" lon="-92.105400">
        <ele>3458.7960676574544</ele>
        <time>2019-11-30T21:26:01Z</time>
      </trkpt>
      <trkpt lat="15.124556" lon="-92.105406">
        <ele>3461.111065412241</ele>
        <time>2019-11-30T21:26:50Z</time>
      </trkpt>
      <trkpt lat="15.124583" lon="-92.105434">
        <ele>3462.301849674117</ele>
        <time>2019-11-30T21:26:55Z</time>
      </trkpt>
      <trkpt lat="15.124596" lon="-92.105450">
        <ele>3462.301923905499</ele>
        <time>2019-11-30T21:26:59Z</time>
      </trkpt>
      <trkpt lat="15.124600" lon="-92.105459">
        <ele>3462.301984183355</ele>
        <time>2019-11-30T21:27:04Z</time>
      </trkpt>
      <trkpt lat="15.124602" lon="-92.105464">
        <ele>3462.556664882017</ele>
        <time>2019-11-30T21:27:12Z</time>
      </trkpt>
      <trkpt lat="15.124605" lon="-92.105481">
        <ele>3463.612962513066</ele>
        <time>2019-11-30T21:27:16Z</time>
      </trkpt>
      <trkpt lat="15.124608" lon="-92.105494">
        <ele>3463.6130794715423</ele>
        <time>2019-11-30T21:27:21Z</time>
      </trkpt>
      <trkpt lat="15.124610" lon="-92.105503">
        <ele>3463.6131510821306</ele>
        <time>2019-11-30T21:27:31Z</time>
      </trkpt>
      <trkpt lat="15.124612" lon="-92.105509">
        <ele>3464.9479221112947</ele>
        <time>2019-11-30T21:27:53Z</time>
      </trkpt>
      <trkpt lat="15.124623" lon="-92.105553">
        <ele>3467.850396067767</ele>
        <time>2019-11-30T21:27:58Z</time>
      </trkpt>
      <trkpt lat="15.124628" lon="-92.105582">
        <ele>3467.850650407509</ele>
        <time>2019-11-30T21:28:02Z</time>
      </trkpt>
      <trkpt lat="15.124631" lon="-92.105609">
        <ele>3470.629956546177</ele>
        <time>2019-11-30T21:28:06Z</time>
      </trkpt>
      <trkpt lat="15.124638" lon="-92.105647">
        <ele>3470.630287154577</ele>
        <time>2019-11-30T21:28:10Z</time>
      </trkpt>
      <trkpt lat="15.124645" lon="-92.105674">
        <ele>3470.630511002779</ele>
        <time>2019-11-30T21:28:15Z</time>
      </trkpt>
      <trkpt lat="15.124648" lon="-92.105683">
        <ele>3470.6305895010123</ele>
        <time>2019-11-30T21:28:19Z</time>
      </trkpt>
      <trkpt lat="15.124651" lon="-92.105692">
        <ele>3470.6306594707257</ele>
        <time>2019-11-30T21:28:34Z</time>
      </trkpt>
      <trkpt lat="15.124653" lon="-92.105696">
        <ele>3470.630678539191</ele>
        <time>2019-11-30T21:28:47Z</time>
      </trkpt>
      <trkpt lat="15.124667" lon="-92.105711">
        <ele>3472.7799157287245</ele>
        <time>2019-11-30T21:28:52Z</time>
      </trkpt>
      <trkpt lat="15.124676" lon="-92.105723">
        <ele>3474.9337814209625</ele>
        <time>2019-11-30T21:28:56Z</time>
      </trkpt>
      <trkpt lat="15.124685" lon="-92.105722">
        <ele>3478.0438268728562</ele>
        <time>2019-11-30T21:29:00Z</time>
      </trkpt>
      <trkpt lat="15.124691" lon="-92.105715">
        <ele>3478.0437233673306</ele>
        <time>2019-11-30T21:29:20Z</time>
      </trkpt>
      <trkpt lat="15.124695" lon="-92.105717">
        <ele>3478.6369719082772</ele>
        <time>2019-11-30T21:29:36Z</time>
      </trkpt>
      <trkpt lat="15.124716" lon="-92.105739">
        <ele>3479.9637228110064</ele>
        <time>2019-11-30T21:29:41Z</time>
      </trkpt>
      <trkpt lat="15.124725" lon="-92.105743">
        <ele>3479.9637122462327</ele>
        <time>2019-11-30T21:29:45Z</time>
      </trkpt>
      <trkpt lat="15.124732" lon="-92.105745">
        <ele>3480.7363918295714</ele>
        <time>2019-11-30T21:29:58Z</time>
      </trkpt>
      <trkpt lat="15.124743" lon="-92.105760">
        <ele>3481.10707949364</ele>
        <time>2019-11-30T21:30:03Z</time>
      </trkpt>
      <trkpt lat="15.124746" lon="-92.105766">
        <ele>3481.842948442001</ele>
        <time>2019-11-30T21:30:08Z</time>
      </trkpt>
      <trkpt lat="15.124756" lon="-92.105784">
        <ele>3482.3052217913987</ele>
        <time>2019-11-30T21:30:13Z</time>
      </trkpt>
      <trkpt lat="15.124760" lon="-92.105792">
        <ele>3482.305281734669</ele>
        <time>2019-11-30T21:30:18Z</time>
      </trkpt>
      <trkpt lat="15.124765" lon="-92.105803">
        <ele>3483.870061365576</ele>
        <time>2019-11-30T21:30:22Z</time>
      </trkpt>
      <trkpt lat="15.124771" lon="-92.105815">
        <ele>3483.870143664319</ele>
        <time>2019-11-30T21:30:27Z</time>
      </trkpt>
      <trkpt lat="15.124774" lon="-92.105824">
        <ele>3483.870211006038</ele>
        <time>2019-11-30T21:30:43Z</time>
      </trkpt>
      <trkpt lat="15.124778" lon="-92.105830">
        <ele>3484.332157590534</ele>
        <time>2019-11-30T21:30:50Z</time>
      </trkpt>
      <trkpt lat="15.124788" lon="-92.105849">
        <ele>3484.8183662217025</ele>
        <time>2019-11-30T21:30:55Z</time>
      </trkpt>
      <trkpt lat="15.124792" lon="-92.105856">
        <ele>3484.818419527029</ele>
        <time>2019-11-30T21:31:00Z</time>
      </trkpt>
      <trkpt lat="15.124797" lon="-92.105864">
        <ele>3484.8184626256416</ele>
        <time>2019-11-30T21:31:50Z</time>
      </trkpt>
      <trkpt lat="15.124794" lon="-92.105871">
        <ele>3485.0556129147753</ele>
        <time>2019-11-30T21:32:15Z</time>
      </trkpt>
      <trkpt lat="15.124802" lon="-92.105913">
        <ele>3487.1541254859185</ele>
        <time>2019-11-30T21:32:19Z</time>
      </trkpt>
      <trkpt lat="15.124834" lon="-92.105947">
        <ele>3489.312228171701</ele>
        <time>2019-11-30T21:32:24Z</time>
      </trkpt>
      <trkpt lat="15.124848" lon="-92.105954">
        <ele>3489.312200166618</ele>
        <time>2019-11-30T21:32:28Z</time>
      </trkpt>
      <trkpt lat="15.124855" lon="-92.105959">
        <ele>3489.3122159227596</ele>
        <time>2019-11-30T21:32:33Z</time>
      </trkpt>
      <trkpt lat="15.124860" lon="-92.105965">
        <ele>3489.518290367721</ele>
        <time>2019-11-30T21:33:18Z</time>
      </trkpt>
      <trkpt lat="15.124891" lon="-92.105942">
        <ele>3494.058879834456</ele>
        <time>2019-11-30T21:33:22Z</time>
      </trkpt>
      <trkpt lat="15.124923" lon="-92.105917">
        <ele>3494.058433551114</ele>
        <time>2019-11-30T21:33:26Z</time>
      </trkpt>
      <trkpt lat="15.124945" lon="-92.105902">
        <ele>3494.05814877912</ele>
        <time>2019-11-30T21:33:30Z</time>
      </trkpt>
      <trkpt lat="15.124956" lon="-92.105893">
        <ele>3494.057988426073</ele>
        <time>2019-11-30T21:33:35Z</time>
      </trkpt>
      <trkpt lat="15.124963" lon="-92.105888">
        <ele>3494.0578871202174</ele>
        <time>2019-11-30T21:33:46Z</time>
      </trkpt>
      <trkpt lat="15.124968" lon="-92.105894">
        <ele>3495.4661227277666</ele>
        <time>2019-11-30T21:34:08Z</time>
      </trkpt>
      <trkpt lat="15.125005" lon="-92.105909">
        <ele>3500.8864514518514</ele>
        <time>2019-11-30T21:34:13Z</time>
      </trkpt>
      <trkpt lat="15.125043" lon="-92.105910">
        <ele>3502.9384713315458</ele>
        <time>2019-11-30T21:34:17Z</time>
      </trkpt>
      <trkpt lat="15.125069" lon="-92.105911">
        <ele>3503.916828745762</ele>
        <time>2019-11-30T21:34:21Z</time>
      </trkpt>
      <trkpt lat="15.125086" lon="-92.105909">
        <ele>3505.768019169044</ele>
        <time>2019-11-30T21:34:25Z</time>
      </trkpt>
      <trkpt lat="15.125105" lon="-92.105901">
        <ele>3507.8889135774025</ele>
        <time>2019-11-30T21:34:29Z</time>
      </trkpt>
      <trkpt lat="15.125116" lon="-92.105896">
        <ele>3507.888794293714</ele>
        <time>2019-11-30T21:34:33Z</time>
      </trkpt>
      <trkpt lat="15.125130" lon="-92.105884">
        <ele>3509.7001113224237</ele>
        <time>2019-11-30T21:34:37Z</time>
      </trkpt>
      <trkpt lat="15.125152" lon="-92.105867">
        <ele>3511.958591427242</ele>
        <time>2019-11-30T21:34:41Z</time>
      </trkpt>
      <trkpt lat="15.125165" lon="-92.105860">
        <ele>3513.412785709647</ele>
        <time>2019-11-30T21:34:45Z</time>
      </trkpt>
      <trkpt lat="15.125173" lon="-92.105857">
        <ele>3513.412706996413</ele>
        <time>2019-11-30T21:34:49Z</time>
      </trkpt>
      <trkpt lat="15.125181" lon="-92.105856">
        <ele>3513.412642951924</ele>
        <time>2019-11-30T21:34:55Z</time>
      </trkpt>
      <trkpt lat="15.125188" lon="-92.105860">
        <ele>3514.38114717844</ele>
        <time>2019-11-30T21:35:10Z</time>
      </trkpt>
      <trkpt lat="15.125193" lon="-92.105866">
        <ele>3515.683419195442</ele>
        <time>2019-11-30T21:35:16Z</time>
      </trkpt>
      <trkpt lat="15.125204" lon="-92.105866">
        <ele>3517.432856930757</ele>
        <time>2019-11-30T21:35:20Z</time>
      </trkpt>
      <trkpt lat="15.125214" lon="-92.105863">
        <ele>3517.9835454435865</ele>
        <time>2019-11-30T21:35:25Z</time>
      </trkpt>
      <trkpt lat="15.125223" lon="-92.105861">
        <ele>3517.983476405691</ele>
        <time>2019-11-30T21:35:32Z</time>
      </trkpt>
      <trkpt lat="15.125227" lon="-92.105865">
        <ele>3517.855074316518</ele>
        <time>2019-11-30T21:35:46Z</time>
      </trkpt>
      <trkpt lat="15.125237" lon="-92.105872">
        <ele>3517.8697282243943</ele>
        <time>2019-11-30T21:35:51Z</time>
      </trkpt>
      <trkpt lat="15.125260" lon="-92.105858">
        <ele>3518.005672414284</ele>
        <time>2019-11-30T21:35:56Z</time>
      </trkpt>
      <trkpt lat="15.125277" lon="-92.105851">
        <ele>3517.8194572620996</ele>
        <time>2019-11-30T21:36:00Z</time>
      </trkpt>
      <trkpt lat="15.125288" lon="-92.105848">
        <ele>3517.8193566106424</ele>
        <time>2019-11-30T21:36:04Z</time>
      </trkpt>
      <trkpt lat="15.125297" lon="-92.105851">
        <ele>3518.0466270881184</ele>
        <time>2019-11-30T21:36:10Z</time>
      </trkpt>
      <trkpt lat="15.125295" lon="-92.105872">
        <ele>3518.289282936997</ele>
        <time>2019-11-30T21:36:14Z</time>
      </trkpt>
      <trkpt lat="15.125290" lon="-92.105905">
        <ele>3518.097754173744</ele>
        <time>2019-11-30T21:36:18Z</time>
      </trkpt>
      <trkpt lat="15.125288" lon="-92.105922">
        <ele>3518.0979248288777</ele>
        <time>2019-11-30T21:36:22Z</time>
      </trkpt>
      <trkpt lat="15.125290" lon="-92.105930">
        <ele>3518.0980046627824</ele>
        <time>2019-11-30T21:36:28Z</time>
      </trkpt>
      <trkpt lat="15.125289" lon="-92.105936">
        <ele>3518.0980634138577</ele>
        <time>2019-11-30T21:37:00Z</time>
      </trkpt>
      <trkpt lat="15.125288" lon="-92.105969">
        <ele>3520.039810983345</ele>
        <time>2019-11-30T21:37:05Z</time>
      </trkpt>
      <trkpt lat="15.125289" lon="-92.105996">
        <ele>3521.2121908838394</ele>
        <time>2019-11-30T21:37:09Z</time>
      </trkpt>
      <trkpt lat="15.125297" lon="-92.106030">
        <ele>3522.0493966333906</ele>
        <time>2019-11-30T21:37:14Z</time>
      </trkpt>
      <trkpt lat="15.125299" lon="-92.106044">
        <ele>3522.0495231176587</ele>
        <time>2019-11-30T21:37:18Z</time>
      </trkpt>
      <trkpt lat="15.125300" lon="-92.106053">
        <ele>3522.0496053586858</ele>
        <time>2019-11-30T21:37:23Z</time>
      </trkpt>
      <trkpt lat="15.125307" lon="-92.106056">
        <ele>3523.975862464507</ele>
        <time>2019-11-30T21:37:31Z</time>
      </trkpt>
      <trkpt lat="15.125309" lon="-92.106079">
        <ele>3525.820068799798</ele>
        <time>2019-11-30T21:37:36Z</time>
      </trkpt>
      <trkpt lat="15.125312" lon="-92.106098">
        <ele>3526.5055515211725</ele>
        <time>2019-11-30T21:37:40Z</time>
      </trkpt>
      <trkpt lat="15.125314" lon="-92.106115">
        <ele>3526.50570585558</ele>
        <time>2019-11-30T21:37:45Z</time>
      </trkpt>
      <trkpt lat="15.125316" lon="-92.106126">
        <ele>3527.846622001528</ele>
        <time>2019-11-30T21:37:49Z</time>
      </trkpt>
      <trkpt lat="15.125322" lon="-92.106143">
        <ele>3529.5813768240323</ele>
        <time>2019-11-30T21:37:53Z</time>
      </trkpt>
      <trkpt lat="15.125328" lon="-92.106154">
        <ele>3529.581445737959</ele>
        <time>2019-11-30T21:37:57Z</time>
      </trkpt>
      <trkpt lat="15.125332" lon="-92.106161">
        <ele>3529.5814896926136</ele>
        <time>2019-11-30T21:38:05Z</time>
      </trkpt>
      <trkpt lat="15.125335" lon="-92.106169">
        <ele>3530.592045206429</ele>
        <time>2019-11-30T21:38:13Z</time>
      </trkpt>
      <trkpt lat="15.125334" lon="-92.106183">
        <ele>3531.3512303355833</ele>
        <time>2019-11-30T21:38:18Z</time>
      </trkpt>
      <trkpt lat="15.125332" lon="-92.106191">
        <ele>3531.840332838476</ele>
        <time>2019-11-30T21:38:30Z</time>
      </trkpt>
      <trkpt lat="15.125338" lon="-92.106207">
        <ele>3531.878545289962</ele>
        <time>2019-11-30T21:38:34Z</time>
      </trkpt>
      <trkpt lat="15.125341" lon="-92.106216">
        <ele>3532.1688967164096</ele>
        <time>2019-11-30T21:38:40Z</time>
      </trkpt>
      <trkpt lat="15.125355" lon="-92.106248">
        <ele>3533.1705959747933</ele>
        <time>2019-11-30T21:38:44Z</time>
      </trkpt>
      <trkpt lat="15.125369" lon="-92.106278">
        <ele>3533.4733015604384</ele>
        <time>2019-11-30T21:38:49Z</time>
      </trkpt>
      <trkpt lat="15.125369" lon="-92.106290">
        <ele>3533.473415412193</ele>
        <time>2019-11-30T21:38:53Z</time>
      </trkpt>
      <trkpt lat="15.125372" lon="-92.106298">
        <ele>3533.473477631508</ele>
        <time>2019-11-30T21:39:00Z</time>
      </trkpt>
      <trkpt lat="15.125381" lon="-92.106301">
        <ele>3534.5652559082823</ele>
        <time>2019-11-30T21:39:10Z</time>
      </trkpt>
      <trkpt lat="15.125388" lon="-92.106309">
        <ele>3534.565281780047</ele>
        <time>2019-11-30T21:39:14Z</time>
      </trkpt>
      <trkpt lat="15.125393" lon="-92.106315">
        <ele>3534.5653141942576</ele>
        <time>2019-11-30T21:39:23Z</time>
      </trkpt>
      <trkpt lat="15.125401" lon="-92.106319">
        <ele>3535.0223359510856</ele>
        <time>2019-11-30T21:39:37Z</time>
      </trkpt>
      <trkpt lat="15.125404" lon="-92.106318">
        <ele>3535.022303502771</ele>
        <time>2019-11-30T21:40:03Z</time>
      </trkpt>
      <trkpt lat="15.125404" lon="-92.106318">
        <ele>3535.022303502771</ele>
        <time>2019-11-30T21:40:03Z</time>
      </trkpt>
      <trkpt lat="15.125586" lon="-92.106526">
        <ele>3536.01255380272</ele>
        <time>2019-11-30T21:51:11Z</time>
      </trkpt>
      <trkpt lat="15.125683" lon="-92.106504">
        <ele>3536.439854847546</ele>
        <time>2019-11-30T21:51:15Z</time>
      </trkpt>
      <trkpt lat="15.125590" lon="-92.106325">
        <ele>3541.506804383783</ele>
        <time>2019-11-30T21:51:20Z</time>
      </trkpt>
      <trkpt lat="15.125590" lon="-92.106325">
        <ele>3550.598112977533</ele>
        <time>2019-11-30T21:54:39Z</time>
      </trkpt>
      <trkpt lat="15.125604" lon="-92.106219">
        <ele>3551.3235273117834</ele>
        <time>2019-11-30T21:54:43Z</time>
      </trkpt>
      <trkpt lat="15.125607" lon="-92.106238">
        <ele>3551.671838203148</ele>
        <time>2019-11-30T21:54:48Z</time>
      </trkpt>
      <trkpt lat="15.125610" lon="-92.106248">
        <ele>3551.67192006307</ele>
        <time>2019-11-30T21:54:52Z</time>
      </trkpt>
      <trkpt lat="15.125615" lon="-92.106256">
        <ele>3552.1065342053657</ele>
        <time>2019-11-30T21:54:56Z</time>
      </trkpt>
      <trkpt lat="15.125636" lon="-92.106282">
        <ele>3553.717742132686</ele>
        <time>2019-11-30T21:55:01Z</time>
      </trkpt>
      <trkpt lat="15.125648" lon="-92.106304">
        <ele>3555.0162388074696</ele>
        <time>2019-11-30T21:55:05Z</time>
      </trkpt>
      <trkpt lat="15.125675" lon="-92.106349">
        <ele>3555.9471799476873</ele>
        <time>2019-11-30T21:55:10Z</time>
      </trkpt>
      <trkpt lat="15.125688" lon="-92.106370">
        <ele>3557.1377366656784</ele>
        <time>2019-11-30T21:55:14Z</time>
      </trkpt>
      <trkpt lat="15.125694" lon="-92.106380">
        <ele>3557.1378031802897</ele>
        <time>2019-11-30T21:55:18Z</time>
      </trkpt>
      <trkpt lat="15.125701" lon="-92.106395">
        <ele>3557.7431233656407</ele>
        <time>2019-11-30T21:55:23Z</time>
      </trkpt>
      <trkpt lat="15.125706" lon="-92.106408">
        <ele>3557.7432240007447</ele>
        <time>2019-11-30T21:55:28Z</time>
      </trkpt>
      <trkpt lat="15.125709" lon="-92.106415">
        <ele>3557.743274279882</ele>
        <time>2019-11-30T21:55:34Z</time>
      </trkpt>
      <trkpt lat="15.125717" lon="-92.106411">
        <ele>3558.068143213732</ele>
        <time>2019-11-30T21:55:43Z</time>
      </trkpt>
      <trkpt lat="15.125724" lon="-92.106408">
        <ele>3558.603473301253</ele>
        <time>2019-11-30T21:55:48Z</time>
      </trkpt>
      <trkpt lat="15.125722" lon="-92.106397">
        <ele>3559.7737791214113</ele>
        <time>2019-11-30T21:55:52Z</time>
      </trkpt>
      <trkpt lat="15.125715" lon="-92.106386">
        <ele>3559.7737138690636</ele>
        <time>2019-11-30T21:55:57Z</time>
      </trkpt>
      <trkpt lat="15.125722" lon="-92.106385">
        <ele>3561.3825492262026</ele>
        <time>2019-11-30T21:56:04Z</time>
      </trkpt>
      <trkpt lat="15.125731" lon="-92.106386">
        <ele>3561.712334046773</ele>
        <time>2019-11-30T21:56:09Z</time>
      </trkpt>
      <trkpt lat="15.125738" lon="-92.106383">
        <ele>3562.7288584311573</ele>
        <time>2019-11-30T21:56:20Z</time>
      </trkpt>
      <trkpt lat="15.125741" lon="-92.106376">
        <ele>3563.077889967256</ele>
        <time>2019-11-30T21:56:24Z</time>
      </trkpt>
      <trkpt lat="15.125744" lon="-92.106368">
        <ele>3563.3075300282176</ele>
        <time>2019-11-30T21:56:29Z</time>
      </trkpt>
      <trkpt lat="15.125754" lon="-92.106363">
        <ele>3564.3284089386007</ele>
        <time>2019-11-30T21:56:33Z</time>
      </trkpt>
      <trkpt lat="15.125765" lon="-92.106358">
        <ele>3564.396903386179</ele>
        <time>2019-11-30T21:56:37Z</time>
      </trkpt>
      <trkpt lat="15.125774" lon="-92.106350">
        <ele>3564.8911407530213</ele>
        <time>2019-11-30T21:56:42Z</time>
      </trkpt>
      <trkpt lat="15.125787" lon="-92.106328">
        <ele>3565.931861009865</ele>
        <time>2019-11-30T21:56:47Z</time>
      </trkpt>
      <trkpt lat="15.125795" lon="-92.106312">
        <ele>3565.9316488732657</ele>
        <time>2019-11-30T21:56:51Z</time>
      </trkpt>
      <trkpt lat="15.125801" lon="-92.106305">
        <ele>3566.6346646267634</ele>
        <time>2019-11-30T21:56:55Z</time>
      </trkpt>
      <trkpt lat="15.125808" lon="-92.106310">
        <ele>3567.585352871203</ele>
        <time>2019-11-30T21:57:05Z</time>
      </trkpt>
      <trkpt lat="15.125816" lon="-92.106309">
        <ele>3568.203207635732</ele>
        <time>2019-11-30T21:57:15Z</time>
      </trkpt>
      <trkpt lat="15.125826" lon="-92.106303">
        <ele>3568.7445967241647</ele>
        <time>2019-11-30T21:57:20Z</time>
      </trkpt>
      <trkpt lat="15.125833" lon="-92.106297">
        <ele>3570.054302160418</ele>
        <time>2019-11-30T21:57:24Z</time>
      </trkpt>
      <trkpt lat="15.125841" lon="-92.106289">
        <ele>3570.145719731621</ele>
        <time>2019-11-30T21:57:28Z</time>
      </trkpt>
      <trkpt lat="15.125847" lon="-92.106283">
        <ele>3570.1080375782503</ele>
        <time>2019-11-30T21:57:35Z</time>
      </trkpt>
      <trkpt lat="15.125869" lon="-92.106283">
        <ele>3570.6740503997926</ele>
        <time>2019-11-30T21:57:40Z</time>
      </trkpt>
      <trkpt lat="15.125892" lon="-92.106275">
        <ele>3571.690432169794</ele>
        <time>2019-11-30T21:57:45Z</time>
      </trkpt>
      <trkpt lat="15.125903" lon="-92.106266">
        <ele>3572.0030235974064</ele>
        <time>2019-11-30T21:57:49Z</time>
      </trkpt>
      <trkpt lat="15.125910" lon="-92.106271">
        <ele>3572.7627828623176</ele>
        <time>2019-11-30T21:58:00Z</time>
      </trkpt>
      <trkpt lat="15.125913" lon="-92.106279">
        <ele>3573.4015186163533</ele>
        <time>2019-11-30T21:58:12Z</time>
      </trkpt>
      <trkpt lat="15.125916" lon="-92.106287">
        <ele>3573.4015836106937</ele>
        <time>2019-11-30T21:58:16Z</time>
      </trkpt>
      <trkpt lat="15.125924" lon="-92.106291">
        <ele>3573.811485413365</ele>
        <time>2019-11-30T21:58:30Z</time>
      </trkpt>
      <trkpt lat="15.125949" lon="-92.106289">
        <ele>3572.810329456509</ele>
        <time>2019-11-30T21:58:34Z</time>
      </trkpt>
      <trkpt lat="15.125970" lon="-92.106286">
        <ele>3573.0572415114243</ele>
        <time>2019-11-30T21:58:39Z</time>
      </trkpt>
      <trkpt lat="15.125979" lon="-92.106284">
        <ele>3573.2576029940833</ele>
        <time>2019-11-30T21:58:43Z</time>
      </trkpt>
      <trkpt lat="15.126001" lon="-92.106281">
        <ele>3573.5106089175642</ele>
        <time>2019-11-30T21:58:47Z</time>
      </trkpt>
      <trkpt lat="15.126013" lon="-92.106277">
        <ele>3573.607899002376</ele>
        <time>2019-11-30T21:58:52Z</time>
      </trkpt>
      <trkpt lat="15.126017" lon="-92.106275">
        <ele>3572.7113749235114</ele>
        <time>2019-11-30T21:59:00Z</time>
      </trkpt>
      <trkpt lat="15.126046" lon="-92.106262">
        <ele>3571.3663384091365</ele>
        <time>2019-11-30T21:59:04Z</time>
      </trkpt>
      <trkpt lat="15.126075" lon="-92.106265">
        <ele>3570.5585602179053</ele>
        <time>2019-11-30T21:59:08Z</time>
      </trkpt>
      <trkpt lat="15.126102" lon="-92.106272">
        <ele>3570.7213014676818</ele>
        <time>2019-11-30T21:59:12Z</time>
      </trkpt>
      <trkpt lat="15.126123" lon="-92.106276">
        <ele>3571.0442167264473</ele>
        <time>2019-11-30T21:59:17Z</time>
      </trkpt>
      <trkpt lat="15.126137" lon="-92.106272">
        <ele>3571.8028703358254</ele>
        <time>2019-11-30T21:59:21Z</time>
      </trkpt>
      <trkpt lat="15.126145" lon="-92.106266">
        <ele>3573.3596471571927</ele>
        <time>2019-11-30T21:59:25Z</time>
      </trkpt>
      <trkpt lat="15.126153" lon="-92.106257">
        <ele>3573.7843124697106</ele>
        <time>2019-11-30T21:59:30Z</time>
      </trkpt>
      <trkpt lat="15.126160" lon="-92.106252">
        <ele>3573.777132847571</ele>
        <time>2019-11-30T21:59:35Z</time>
      </trkpt>
      <trkpt lat="15.126181" lon="-92.106231">
        <ele>3574.3429529053624</ele>
        <time>2019-11-30T21:59:40Z</time>
      </trkpt>
      <trkpt lat="15.126198" lon="-92.106219">
        <ele>3573.598582287945</ele>
        <time>2019-11-30T21:59:45Z</time>
      </trkpt>
      <trkpt lat="15.126226" lon="-92.106204">
        <ele>3573.7518270657297</ele>
        <time>2019-11-30T21:59:49Z</time>
      </trkpt>
      <trkpt lat="15.126253" lon="-92.106192">
        <ele>3575.4339050132826</ele>
        <time>2019-11-30T21:59:53Z</time>
      </trkpt>
      <trkpt lat="15.126275" lon="-92.106173">
        <ele>3577.041979208596</ele>
        <time>2019-11-30T21:59:57Z</time>
      </trkpt>
      <trkpt lat="15.126282" lon="-92.106164">
        <ele>3577.0418422335497</ele>
        <time>2019-11-30T22:00:02Z</time>
      </trkpt>
      <trkpt lat="15.126294" lon="-92.106159">
        <ele>3579.0024069644164</ele>
        <time>2019-11-30T22:00:06Z</time>
      </trkpt>
      <trkpt lat="15.126305" lon="-92.106157">
        <ele>3579.471071892208</ele>
        <time>2019-11-30T22:00:11Z</time>
      </trkpt>
      <trkpt lat="15.126322" lon="-92.106155">
        <ele>3580.5349079300368</ele>
        <time>2019-11-30T22:00:15Z</time>
      </trkpt>
      <trkpt lat="15.126341" lon="-92.106151">
        <ele>3582.2686337899963</ele>
        <time>2019-11-30T22:00:20Z</time>
      </trkpt>
      <trkpt lat="15.126351" lon="-92.106144">
        <ele>3583.3605416486025</ele>
        <time>2019-11-30T22:00:24Z</time>
      </trkpt>
      <trkpt lat="15.126362" lon="-92.106134">
        <ele>3584.0659458725568</ele>
        <time>2019-11-30T22:00:29Z</time>
      </trkpt>
      <trkpt lat="15.126371" lon="-92.106129">
        <ele>3584.757723831916</ele>
        <time>2019-11-30T22:00:33Z</time>
      </trkpt>
      <trkpt lat="15.126380" lon="-92.106123">
        <ele>3584.7576072753423</ele>
        <time>2019-11-30T22:00:38Z</time>
      </trkpt>
      <trkpt lat="15.126386" lon="-92.106118">
        <ele>3585.7526454829253</ele>
        <time>2019-11-30T22:00:54Z</time>
      </trkpt>
      <trkpt lat="15.126402" lon="-92.106104">
        <ele>3586.0063090267136</ele>
        <time>2019-11-30T22:00:58Z</time>
      </trkpt>
      <trkpt lat="15.126426" lon="-92.106086">
        <ele>3586.0008471568744</ele>
        <time>2019-11-30T22:01:03Z</time>
      </trkpt>
      <trkpt lat="15.126438" lon="-92.106067">
        <ele>3586.685397863424</ele>
        <time>2019-11-30T22:01:07Z</time>
      </trkpt>
      <trkpt lat="15.126451" lon="-92.106050">
        <ele>3586.770835174861</ele>
        <time>2019-11-30T22:01:11Z</time>
      </trkpt>
      <trkpt lat="15.126455" lon="-92.106043">
        <ele>3586.770742082869</ele>
        <time>2019-11-30T22:01:16Z</time>
      </trkpt>
      <trkpt lat="15.126464" lon="-92.106032">
        <ele>3587.2805846526603</ele>
        <time>2019-11-30T22:01:20Z</time>
      </trkpt>
      <trkpt lat="15.126468" lon="-92.106025">
        <ele>3587.280484094833</ele>
        <time>2019-11-30T22:01:25Z</time>
      </trkpt>
      <trkpt lat="15.126458" lon="-92.106014">
        <ele>3589.135176502906</ele>
        <time>2019-11-30T22:01:29Z</time>
      </trkpt>
      <trkpt lat="15.126450" lon="-92.105993">
        <ele>3591.463147416932</ele>
        <time>2019-11-30T22:01:33Z</time>
      </trkpt>
      <trkpt lat="15.126464" lon="-92.105988">
        <ele>3592.986686798233</ele>
        <time>2019-11-30T22:01:38Z</time>
      </trkpt>
      <trkpt lat="15.126470" lon="-92.105982">
        <ele>3593.23145828834</ele>
        <time>2019-11-30T22:01:42Z</time>
      </trkpt>
      <trkpt lat="15.126475" lon="-92.105974">
        <ele>3593.231351123641</ele>
        <time>2019-11-30T22:01:50Z</time>
      </trkpt>
      <trkpt lat="15.126482" lon="-92.105978">
        <ele>3594.878806229143</ele>
        <time>2019-11-30T22:02:01Z</time>
      </trkpt>
      <trkpt lat="15.126489" lon="-92.105979">
        <ele>3594.838980121784</ele>
        <time>2019-11-30T22:02:05Z</time>
      </trkpt>
      <trkpt lat="15.126504" lon="-92.105978">
        <ele>3594.2050804876117</ele>
        <time>2019-11-30T22:02:09Z</time>
      </trkpt>
      <trkpt lat="15.126526" lon="-92.105976">
        <ele>3594.6277753965014</ele>
        <time>2019-11-30T22:02:14Z</time>
      </trkpt>
      <trkpt lat="15.126534" lon="-92.105974">
        <ele>3594.93337236884</ele>
        <time>2019-11-30T22:02:21Z</time>
      </trkpt>
      <trkpt lat="15.126544" lon="-92.105974">
        <ele>3595.7355575094334</ele>
        <time>2019-11-30T22:02:25Z</time>
      </trkpt>
      <trkpt lat="15.126553" lon="-92.105975">
        <ele>3595.696926633103</ele>
        <time>2019-11-30T22:02:30Z</time>
      </trkpt>
      <trkpt lat="15.126563" lon="-92.105976">
        <ele>3596.0699267640784</ele>
        <time>2019-11-30T22:02:34Z</time>
      </trkpt>
      <trkpt lat="15.126570" lon="-92.105971">
        <ele>3597.089847545363</ele>
        <time>2019-11-30T22:03:06Z</time>
      </trkpt>
      <trkpt lat="15.126584" lon="-92.105964">
        <ele>3598.085539910885</ele>
        <time>2019-11-30T22:03:10Z</time>
      </trkpt>
      <trkpt lat="15.126592" lon="-92.105960">
        <ele>3598.085452105114</ele>
        <time>2019-11-30T22:03:15Z</time>
      </trkpt>
      <trkpt lat="15.126599" lon="-92.105962">
        <ele>3598.3508036977105</ele>
        <time>2019-11-30T22:04:03Z</time>
      </trkpt>
      <trkpt lat="15.126615" lon="-92.105967">
        <ele>3598.477461158498</ele>
        <time>2019-11-30T22:04:07Z</time>
      </trkpt>
      <trkpt lat="15.126624" lon="-92.105968">
        <ele>3598.47741631277</ele>
        <time>2019-11-30T22:04:12Z</time>
      </trkpt>
      <trkpt lat="15.126630" lon="-92.105971">
        <ele>3599.043572498372</ele>
        <time>2019-11-30T22:04:26Z</time>
      </trkpt>
      <trkpt lat="15.126644" lon="-92.105977">
        <ele>3600.288173982208</ele>
        <time>2019-11-30T22:04:31Z</time>
      </trkpt>
      <trkpt lat="15.126651" lon="-92.105979">
        <ele>3600.2881532219044</ele>
        <time>2019-11-30T22:04:44Z</time>
      </trkpt>
      <trkpt lat="15.126674" lon="-92.105994">
        <ele>3602.7798528093235</ele>
        <time>2019-11-30T22:04:49Z</time>
      </trkpt>
      <trkpt lat="15.126690" lon="-92.106008">
        <ele>3602.7798954983605</ele>
        <time>2019-11-30T22:04:54Z</time>
      </trkpt>
      <trkpt lat="15.126697" lon="-92.106017">
        <ele>3602.779936817105</ele>
        <time>2019-11-30T22:04:59Z</time>
      </trkpt>
      <trkpt lat="15.126703" lon="-92.106019">
        <ele>3604.3119046982565</ele>
        <time>2019-11-30T22:05:05Z</time>
      </trkpt>
      <trkpt lat="15.126724" lon="-92.106019">
        <ele>3605.9958625830914</ele>
        <time>2019-11-30T22:05:10Z</time>
      </trkpt>
      <trkpt lat="15.126734" lon="-92.106020">
        <ele>3606.219187205564</ele>
        <time>2019-11-30T22:05:14Z</time>
      </trkpt>
      <trkpt lat="15.126749" lon="-92.106026">
        <ele>3607.4527923728624</ele>
        <time>2019-11-30T22:05:18Z</time>
      </trkpt>
      <trkpt lat="15.126780" lon="-92.106052">
        <ele>3607.9460314465155</ele>
        <time>2019-11-30T22:05:22Z</time>
      </trkpt>
      <trkpt lat="15.126806" lon="-92.106074">
        <ele>3607.9460814616873</ele>
        <time>2019-11-30T22:05:27Z</time>
      </trkpt>
      <trkpt lat="15.126818" lon="-92.106084">
        <ele>3607.9461130771597</ele>
        <time>2019-11-30T22:05:31Z</time>
      </trkpt>
      <trkpt lat="15.126824" lon="-92.106091">
        <ele>3607.946140933262</ele>
        <time>2019-11-30T22:05:36Z</time>
      </trkpt>
      <trkpt lat="15.126830" lon="-92.106094">
        <ele>3607.8582423649164</ele>
        <time>2019-11-30T22:05:45Z</time>
      </trkpt>
      <trkpt lat="15.126855" lon="-92.106094">
        <ele>3608.134460962878</ele>
        <time>2019-11-30T22:05:49Z</time>
      </trkpt>
      <trkpt lat="15.126866" lon="-92.106099">
        <ele>3608.1344315283027</ele>
        <time>2019-11-30T22:05:54Z</time>
      </trkpt>
      <trkpt lat="15.126878" lon="-92.106106">
        <ele>3610.5162588280596</ele>
        <time>2019-11-30T22:05:58Z</time>
      </trkpt>
      <trkpt lat="15.126896" lon="-92.106096">
        <ele>3612.033874136178</ele>
        <time>2019-11-30T22:06:03Z</time>
      </trkpt>
      <trkpt lat="15.126905" lon="-92.106091">
        <ele>3612.0337716697745</ele>
        <time>2019-11-30T22:06:08Z</time>
      </trkpt>
      <trkpt lat="15.126913" lon="-92.106089">
        <ele>3612.4511798300205</ele>
        <time>2019-11-30T22:06:18Z</time>
      </trkpt>
      <trkpt lat="15.126923" lon="-92.106099">
        <ele>3613.0640068388566</ele>
        <time>2019-11-30T22:06:22Z</time>
      </trkpt>
      <trkpt lat="15.126929" lon="-92.106105">
        <ele>3613.064035519568</ele>
        <time>2019-11-30T22:06:26Z</time>
      </trkpt>
      <trkpt lat="15.126933" lon="-92.106114">
        <ele>3613.0640891532908</ele>
        <time>2019-11-30T22:06:34Z</time>
      </trkpt>
      <trkpt lat="15.126939" lon="-92.106113">
        <ele>3613.414880409434</ele>
        <time>2019-11-30T22:06:55Z</time>
      </trkpt>
      <trkpt lat="15.126952" lon="-92.106104">
        <ele>3614.102445346898</ele>
        <time>2019-11-30T22:06:59Z</time>
      </trkpt>
      <trkpt lat="15.126964" lon="-92.106098">
        <ele>3614.1023064354667</ele>
        <time>2019-11-30T22:07:04Z</time>
      </trkpt>
      <trkpt lat="15.126973" lon="-92.106096">
        <ele>3615.2177143697986</ele>
        <time>2019-11-30T22:07:44Z</time>
      </trkpt>
      <trkpt lat="15.126988" lon="-92.106085">
        <ele>3616.569799796956</ele>
        <time>2019-11-30T22:07:48Z</time>
      </trkpt>
      <trkpt lat="15.127001" lon="-92.106076">
        <ele>3616.5696352120804</ele>
        <time>2019-11-30T22:07:53Z</time>
      </trkpt>
      <trkpt lat="15.127009" lon="-92.106075">
        <ele>3616.569572080134</ele>
        <time>2019-11-30T22:08:04Z</time>
      </trkpt>
      <trkpt lat="15.127023" lon="-92.106081">
        <ele>3619.8349308781458</ele>
        <time>2019-11-30T22:08:08Z</time>
      </trkpt>
      <trkpt lat="15.127040" lon="-92.106094">
        <ele>3620.7397387453534</ele>
        <time>2019-11-30T22:08:12Z</time>
      </trkpt>
      <trkpt lat="15.127047" lon="-92.106107">
        <ele>3620.739815855853</ele>
        <time>2019-11-30T22:08:16Z</time>
      </trkpt>
      <trkpt lat="15.127050" lon="-92.106115">
        <ele>3621.4325130846896</ele>
        <time>2019-11-30T22:08:23Z</time>
      </trkpt>
      <trkpt lat="15.127055" lon="-92.106122">
        <ele>3621.9113106202494</ele>
        <time>2019-11-30T22:08:27Z</time>
      </trkpt>
      <trkpt lat="15.127059" lon="-92.106114">
        <ele>3626.9348894970612</ele>
        <time>2019-11-30T22:08:46Z</time>
      </trkpt>
      <trkpt lat="15.127056" lon="-92.106121">
        <ele>3627.529451989915</ele>
        <time>2019-11-30T22:09:12Z</time>
      </trkpt>
      <trkpt lat="15.127061" lon="-92.106128">
        <ele>3629.579053547317</ele>
        <time>2019-11-30T22:09:23Z</time>
      </trkpt>
      <trkpt lat="15.127085" lon="-92.106126">
        <ele>3630.6240499807277</ele>
        <time>2019-11-30T22:09:27Z</time>
      </trkpt>
      <trkpt lat="15.127096" lon="-92.106125">
        <ele>3630.6239650925963</ele>
        <time>2019-11-30T22:09:31Z</time>
      </trkpt>
      <trkpt lat="15.127104" lon="-92.106122">
        <ele>3630.6238840477286</ele>
        <time>2019-11-30T22:09:47Z</time>
      </trkpt>
      <trkpt lat="15.127105" lon="-92.106130">
        <ele>3630.7726432723875</ele>
        <time>2019-11-30T22:10:11Z</time>
      </trkpt>
      <trkpt lat="15.127122" lon="-92.106135">
        <ele>3630.957649212648</ele>
        <time>2019-11-30T22:10:15Z</time>
      </trkpt>
      <trkpt lat="15.127162" lon="-92.106134">
        <ele>3632.1597730428284</ele>
        <time>2019-11-30T22:10:19Z</time>
      </trkpt>
      <trkpt lat="15.127189" lon="-92.106133">
        <ele>3632.159594440699</ele>
        <time>2019-11-30T22:10:24Z</time>
      </trkpt>
      <trkpt lat="15.127195" lon="-92.106136">
        <ele>3632.5499666150104</ele>
        <time>2019-11-30T22:10:28Z</time>
      </trkpt>
      <trkpt lat="15.127206" lon="-92.106140">
        <ele>3633.2313383534274</ele>
        <time>2019-11-30T22:10:32Z</time>
      </trkpt>
      <trkpt lat="15.127213" lon="-92.106142">
        <ele>3633.231313922929</ele>
        <time>2019-11-30T22:10:36Z</time>
      </trkpt>
      <trkpt lat="15.127219" lon="-92.106145">
        <ele>3633.5980085870233</ele>
        <time>2019-11-30T22:10:40Z</time>
      </trkpt>
      <trkpt lat="15.127233" lon="-92.106169">
        <ele>3634.1325822800445</ele>
        <time>2019-11-30T22:10:45Z</time>
      </trkpt>
      <trkpt lat="15.127242" lon="-92.106181">
        <ele>3634.13264124777</ele>
        <time>2019-11-30T22:10:50Z</time>
      </trkpt>
      <trkpt lat="15.127250" lon="-92.106186">
        <ele>3636.9180391583895</ele>
        <time>2019-11-30T22:11:12Z</time>
      </trkpt>
      <trkpt lat="15.127255" lon="-92.106178">
        <ele>3638.040491123527</ele>
        <time>2019-11-30T22:11:21Z</time>
      </trkpt>
      <trkpt lat="15.127256" lon="-92.106186">
        <ele>3638.009566585734</ele>
        <time>2019-11-30T22:11:50Z</time>
      </trkpt>
      <trkpt lat="15.127292" lon="-92.106201">
        <ele>3638.4950802049107</ele>
        <time>2019-11-30T22:11:54Z</time>
      </trkpt>
      <trkpt lat="15.127365" lon="-92.106234">
        <ele>3638.389724526331</ele>
        <time>2019-11-30T22:11:59Z</time>
      </trkpt>
      <trkpt lat="15.127373" lon="-92.106238">
        <ele>3638.389716498324</ele>
        <time>2019-11-30T22:12:03Z</time>
      </trkpt>
      <trkpt lat="15.127397" lon="-92.106254">
        <ele>3638.389729928431</ele>
        <time>2019-11-30T22:12:08Z</time>
      </trkpt>
      <trkpt lat="15.127405" lon="-92.106257">
        <ele>3638.389704065756</ele>
        <time>2019-11-30T22:12:16Z</time>
      </trkpt>
      <trkpt lat="15.127411" lon="-92.106260">
        <ele>3639.5085972746015</ele>
        <time>2019-11-30T22:12:26Z</time>
      </trkpt>
      <trkpt lat="15.127420" lon="-92.106272">
        <ele>3642.8409309682247</ele>
        <time>2019-11-30T22:12:30Z</time>
      </trkpt>
      <trkpt lat="15.127429" lon="-92.106290">
        <ele>3642.841057727572</ele>
        <time>2019-11-30T22:12:34Z</time>
      </trkpt>
      <trkpt lat="15.127435" lon="-92.106300">
        <ele>3642.8411123934366</ele>
        <time>2019-11-30T22:12:38Z</time>
      </trkpt>
      <trkpt lat="15.127439" lon="-92.106308">
        <ele>3642.8411758117827</ele>
        <time>2019-11-30T22:12:48Z</time>
      </trkpt>
      <trkpt lat="15.127431" lon="-92.106311">
        <ele>3646.1644957436292</ele>
        <time>2019-11-30T22:13:02Z</time>
      </trkpt>
      <trkpt lat="15.127437" lon="-92.106316">
        <ele>3647.234576132194</ele>
        <time>2019-11-30T22:13:46Z</time>
      </trkpt>
      <trkpt lat="15.127475" lon="-92.106320">
        <ele>3649.294190623458</ele>
        <time>2019-11-30T22:13:50Z</time>
      </trkpt>
      <trkpt lat="15.127501" lon="-92.106321">
        <ele>3650.0313389877897</ele>
        <time>2019-11-30T22:13:54Z</time>
      </trkpt>
      <trkpt lat="15.127518" lon="-92.106325">
        <ele>3651.4292284069347</ele>
        <time>2019-11-30T22:13:58Z</time>
      </trkpt>
      <trkpt lat="15.127528" lon="-92.106328">
        <ele>3651.429194718879</ele>
        <time>2019-11-30T22:14:02Z</time>
      </trkpt>
      <trkpt lat="15.127537" lon="-92.106331">
        <ele>3651.4291692957395</ele>
        <time>2019-11-30T22:14:14Z</time>
      </trkpt>
      <trkpt lat="15.127542" lon="-92.106325">
        <ele>3652.8275056338266</ele>
        <time>2019-11-30T22:14:38Z</time>
      </trkpt>
      <trkpt lat="15.127554" lon="-92.106309">
        <ele>3653.157600840142</ele>
        <time>2019-11-30T22:14:42Z</time>
      </trkpt>
      <trkpt lat="15.127563" lon="-92.106298">
        <ele>3653.1574350475444</ele>
        <time>2019-11-30T22:14:47Z</time>
      </trkpt>
      <trkpt lat="15.127570" lon="-92.106294">
        <ele>3654.5086671035124</ele>
        <time>2019-11-30T22:15:14Z</time>
      </trkpt>
      <trkpt lat="15.127582" lon="-92.106300">
        <ele>3656.575782584246</ele>
        <time>2019-11-30T22:15:18Z</time>
      </trkpt>
      <trkpt lat="15.127592" lon="-92.106306">
        <ele>3656.575788194645</ele>
        <time>2019-11-30T22:15:22Z</time>
      </trkpt>
      <trkpt lat="15.127597" lon="-92.106312">
        <ele>3656.8929479369763</ele>
        <time>2019-11-30T22:15:29Z</time>
      </trkpt>
      <trkpt lat="15.127609" lon="-92.106321">
        <ele>3658.768699305495</ele>
        <time>2019-11-30T22:15:33Z</time>
      </trkpt>
      <trkpt lat="15.127623" lon="-92.106333">
        <ele>3658.768726793242</ele>
        <time>2019-11-30T22:15:37Z</time>
      </trkpt>
      <trkpt lat="15.127632" lon="-92.106337">
        <ele>3658.7687108623336</ele>
        <time>2019-11-30T22:15:42Z</time>
      </trkpt>
      <trkpt lat="15.127637" lon="-92.106344">
        <ele>3661.2294474073387</ele>
        <time>2019-11-30T22:15:48Z</time>
      </trkpt>
      <trkpt lat="15.127637" lon="-92.106354">
        <ele>3662.312803984779</ele>
        <time>2019-11-30T22:15:52Z</time>
      </trkpt>
      <trkpt lat="15.127646" lon="-92.106378">
        <ele>3662.6733364148545</ele>
        <time>2019-11-30T22:15:56Z</time>
      </trkpt>
      <trkpt lat="15.127650" lon="-92.106399">
        <ele>3662.6735244130255</ele>
        <time>2019-11-30T22:16:00Z</time>
      </trkpt>
      <trkpt lat="15.127650" lon="-92.106408">
        <ele>3662.673615217345</ele>
        <time>2019-11-30T22:16:04Z</time>
      </trkpt>
      <trkpt lat="15.127650" lon="-92.106416">
        <ele>3662.673696258849</ele>
        <time>2019-11-30T22:16:37Z</time>
      </trkpt>
      <trkpt lat="15.127663" lon="-92.106412">
        <ele>3663.576159145914</ele>
        <time>2019-11-30T22:16:41Z</time>
      </trkpt>
      <trkpt lat="15.127673" lon="-92.106393">
        <ele>3665.02829395552</ele>
        <time>2019-11-30T22:16:46Z</time>
      </trkpt>
      <trkpt lat="15.127685" lon="-92.106388">
        <ele>3666.9600562773076</ele>
        <time>2019-11-30T22:16:51Z</time>
      </trkpt>
      <trkpt lat="15.127693" lon="-92.106382">
        <ele>3667.9418819515417</ele>
        <time>2019-11-30T22:16:55Z</time>
      </trkpt>
      <trkpt lat="15.127702" lon="-92.106381">
        <ele>3667.941812303086</ele>
        <time>2019-11-30T22:17:01Z</time>
      </trkpt>
      <trkpt lat="15.127711" lon="-92.106384">
        <ele>3668.780403027715</ele>
        <time>2019-11-30T22:17:05Z</time>
      </trkpt>
      <trkpt lat="15.127722" lon="-92.106406">
        <ele>3670.708782481966</ele>
        <time>2019-11-30T22:17:10Z</time>
      </trkpt>
      <trkpt lat="15.127719" lon="-92.106426">
        <ele>3670.9643783112406</ele>
        <time>2019-11-30T22:17:14Z</time>
      </trkpt>
      <trkpt lat="15.127718" lon="-92.106438">
        <ele>3670.9644973013883</ele>
        <time>2019-11-30T22:17:19Z</time>
      </trkpt>
      <trkpt lat="15.127716" lon="-92.106445">
        <ele>3671.8356770080036</ele>
        <time>2019-11-30T22:17:26Z</time>
      </trkpt>
      <trkpt lat="15.127708" lon="-92.106457">
        <ele>3673.8180273022294</ele>
        <time>2019-11-30T22:17:30Z</time>
      </trkpt>
      <trkpt lat="15.127704" lon="-92.106470">
        <ele>3674.9431838430937</ele>
        <time>2019-11-30T22:17:34Z</time>
      </trkpt>
      <trkpt lat="15.127691" lon="-92.106488">
        <ele>3676.1568235678483</ele>
        <time>2019-11-30T22:17:39Z</time>
      </trkpt>
      <trkpt lat="15.127670" lon="-92.106510">
        <ele>3677.780709770709</ele>
        <time>2019-11-30T22:17:43Z</time>
      </trkpt>
      <trkpt lat="15.127615" lon="-92.106566">
        <ele>3679.5821617714046</ele>
        <time>2019-11-30T22:17:47Z</time>
      </trkpt>
      <trkpt lat="15.127598" lon="-92.106585">
        <ele>3681.2826574777646</ele>
        <time>2019-11-30T22:17:51Z</time>
      </trkpt>
      <trkpt lat="15.127588" lon="-92.106598">
        <ele>3681.8885527655357</ele>
        <time>2019-11-30T22:17:56Z</time>
      </trkpt>
      <trkpt lat="15.127583" lon="-92.106605">
        <ele>3681.888657996136</ele>
        <time>2019-11-30T22:18:02Z</time>
      </trkpt>
      <trkpt lat="15.127576" lon="-92.106611">
        <ele>3682.9226975652623</ele>
        <time>2019-11-30T22:18:30Z</time>
      </trkpt>
      <trkpt lat="15.127574" lon="-92.106616">
        <ele>3683.118561043916</ele>
        <time>2019-11-30T22:18:41Z</time>
      </trkpt>
      <trkpt lat="15.127548" lon="-92.106660">
        <ele>3683.5400645889085</ele>
        <time>2019-11-30T22:18:46Z</time>
      </trkpt>
      <trkpt lat="15.127538" lon="-92.106687">
        <ele>3684.2266794821494</ele>
        <time>2019-11-30T22:18:50Z</time>
      </trkpt>
      <trkpt lat="15.127531" lon="-92.106734">
        <ele>3685.652004004566</ele>
        <time>2019-11-30T22:18:55Z</time>
      </trkpt>
      <trkpt lat="15.127529" lon="-92.106764">
        <ele>3685.837615110181</ele>
        <time>2019-11-30T22:18:59Z</time>
      </trkpt>
      <trkpt lat="15.127528" lon="-92.106781">
        <ele>3685.8377914496577</ele>
        <time>2019-11-30T22:19:03Z</time>
      </trkpt>
      <trkpt lat="15.127527" lon="-92.106789">
        <ele>3685.8378833383067</ele>
        <time>2019-11-30T22:19:07Z</time>
      </trkpt>
      <trkpt lat="15.127526" lon="-92.106802">
        <ele>3687.472778939702</ele>
        <time>2019-11-30T22:19:12Z</time>
      </trkpt>
      <trkpt lat="15.127528" lon="-92.106817">
        <ele>3689.6394186157963</ele>
        <time>2019-11-30T22:19:17Z</time>
      </trkpt>
      <trkpt lat="15.127532" lon="-92.106828">
        <ele>3689.6395116880767</ele>
        <time>2019-11-30T22:19:21Z</time>
      </trkpt>
      <trkpt lat="15.127540" lon="-92.106825">
        <ele>3692.4514347805334</ele>
        <time>2019-11-30T22:19:47Z</time>
      </trkpt>
      <trkpt lat="15.127543" lon="-92.106817">
        <ele>3693.4325412727167</ele>
        <time>2019-11-30T22:20:14Z</time>
      </trkpt>
      <trkpt lat="15.127548" lon="-92.106815">
        <ele>3694.005729631586</ele>
        <time>2019-11-30T22:20:24Z</time>
      </trkpt>
      <trkpt lat="15.127562" lon="-92.106807">
        <ele>3694.497021835029</ele>
        <time>2019-11-30T22:20:28Z</time>
      </trkpt>
      <trkpt lat="15.127572" lon="-92.106797">
        <ele>3695.0410490360255</ele>
        <time>2019-11-30T22:20:32Z</time>
      </trkpt>
      <trkpt lat="15.127580" lon="-92.106790">
        <ele>3695.0409220064616</ele>
        <time>2019-11-30T22:20:36Z</time>
      </trkpt>
      <trkpt lat="15.127584" lon="-92.106783">
        <ele>3695.899955140563</ele>
        <time>2019-11-30T22:20:41Z</time>
      </trkpt>
      <trkpt lat="15.127596" lon="-92.106769">
        <ele>3695.3792337220766</ele>
        <time>2019-11-30T22:20:45Z</time>
      </trkpt>
      <trkpt lat="15.127607" lon="-92.106755">
        <ele>3695.3790319356003</ele>
        <time>2019-11-30T22:20:49Z</time>
      </trkpt>
      <trkpt lat="15.127610" lon="-92.106747">
        <ele>3695.3789308907562</ele>
        <time>2019-11-30T22:20:54Z</time>
      </trkpt>
      <trkpt lat="15.127616" lon="-92.106742">
        <ele>3695.3788439485197</ele>
        <time>2019-11-30T22:21:05Z</time>
      </trkpt>
      <trkpt lat="15.127624" lon="-92.106751">
        <ele>3696.9093998185444</ele>
        <time>2019-11-30T22:21:10Z</time>
      </trkpt>
      <trkpt lat="15.127629" lon="-92.106755">
        <ele>3696.909408710775</ele>
        <time>2019-11-30T22:21:21Z</time>
      </trkpt>
      <trkpt lat="15.127639" lon="-92.106770">
        <ele>3697.648748500896</ele>
        <time>2019-11-30T22:21:25Z</time>
      </trkpt>
      <trkpt lat="15.127651" lon="-92.106771">
        <ele>3698.42481209361</ele>
        <time>2019-11-30T22:21:30Z</time>
      </trkpt>
      <trkpt lat="15.127656" lon="-92.106763">
        <ele>3698.4247057275747</ele>
        <time>2019-11-30T22:21:40Z</time>
      </trkpt>
      <trkpt lat="15.127659" lon="-92.106769">
        <ele>3699.291686745498</ele>
        <time>2019-11-30T22:21:49Z</time>
      </trkpt>
      <trkpt lat="15.127671" lon="-92.106776">
        <ele>3702.60613406824</ele>
        <time>2019-11-30T22:21:54Z</time>
      </trkpt>
      <trkpt lat="15.127679" lon="-92.106773">
        <ele>3702.606054167018</ele>
        <time>2019-11-30T22:21:58Z</time>
      </trkpt>
      <trkpt lat="15.127689" lon="-92.106777">
        <ele>3703.2049070993157</ele>
        <time>2019-11-30T22:22:02Z</time>
      </trkpt>
      <trkpt lat="15.127702" lon="-92.106798">
        <ele>3704.1960032267443</ele>
        <time>2019-11-30T22:22:06Z</time>
      </trkpt>
      <trkpt lat="15.127707" lon="-92.106811">
        <ele>3704.196097432262</ele>
        <time>2019-11-30T22:22:11Z</time>
      </trkpt>
      <trkpt lat="15.127709" lon="-92.106821">
        <ele>3705.15224083146</ele>
        <time>2019-11-30T22:22:16Z</time>
      </trkpt>
      <trkpt lat="15.127713" lon="-92.106845">
        <ele>3706.7454755019817</ele>
        <time>2019-11-30T22:22:20Z</time>
      </trkpt>
      <trkpt lat="15.127713" lon="-92.106858">
        <ele>3706.7456131019644</ele>
        <time>2019-11-30T22:22:25Z</time>
      </trkpt>
      <trkpt lat="15.127713" lon="-92.106867">
        <ele>3706.745697343765</ele>
        <time>2019-11-30T22:22:33Z</time>
      </trkpt>
      <trkpt lat="15.127715" lon="-92.106874">
        <ele>3707.7123117138303</ele>
        <time>2019-11-30T22:22:44Z</time>
      </trkpt>
      <trkpt lat="15.127715" lon="-92.106900">
        <ele>3709.5736474473</ele>
        <time>2019-11-30T22:22:49Z</time>
      </trkpt>
      <trkpt lat="15.127716" lon="-92.106908">
        <ele>3709.5737299917496</ele>
        <time>2019-11-30T22:22:54Z</time>
      </trkpt>
      <trkpt lat="15.127718" lon="-92.106917">
        <ele>3709.5737997512283</ele>
        <time>2019-11-30T22:23:17Z</time>
      </trkpt>
      <trkpt lat="15.127725" lon="-92.106938">
        <ele>3710.240963643879</ele>
        <time>2019-11-30T22:23:21Z</time>
      </trkpt>
      <trkpt lat="15.127739" lon="-92.106966">
        <ele>3711.9230426622103</ele>
        <time>2019-11-30T22:23:25Z</time>
      </trkpt>
      <trkpt lat="15.127742" lon="-92.106970">
        <ele>3711.92305722835</ele>
        <time>2019-11-30T22:23:35Z</time>
      </trkpt>
      <trkpt lat="15.127757" lon="-92.106991">
        <ele>3711.923174947506</ele>
        <time>2019-11-30T22:23:40Z</time>
      </trkpt>
      <trkpt lat="15.127762" lon="-92.107000">
        <ele>3712.7066816189144</ele>
        <time>2019-11-30T22:23:44Z</time>
      </trkpt>
      <trkpt lat="15.127781" lon="-92.107023">
        <ele>3713.512947407419</ele>
        <time>2019-11-30T22:23:49Z</time>
      </trkpt>
      <trkpt lat="15.127789" lon="-92.107031">
        <ele>3713.512981522067</ele>
        <time>2019-11-30T22:23:54Z</time>
      </trkpt>
      <trkpt lat="15.127797" lon="-92.107035">
        <ele>3713.5129714432423</ele>
        <time>2019-11-30T22:24:02Z</time>
      </trkpt>
      <trkpt lat="15.127805" lon="-92.107033">
        <ele>3715.7587464966205</ele>
        <time>2019-11-30T22:24:17Z</time>
      </trkpt>
      <trkpt lat="15.127810" lon="-92.107025">
        <ele>3715.7586422458266</ele>
        <time>2019-11-30T22:24:23Z</time>
      </trkpt>
      <trkpt lat="15.127814" lon="-92.107019">
        <ele>3716.2846747447034</ele>
        <time>2019-11-30T22:24:41Z</time>
      </trkpt>
      <trkpt lat="15.127821" lon="-92.107011">
        <ele>3716.600714570718</ele>
        <time>2019-11-30T22:24:45Z</time>
      </trkpt>
      <trkpt lat="15.127826" lon="-92.107005">
        <ele>3716.600619658536</ele>
        <time>2019-11-30T22:24:52Z</time>
      </trkpt>
      <trkpt lat="15.127835" lon="-92.106992">
        <ele>3716.856292784152</ele>
        <time>2019-11-30T22:24:56Z</time>
      </trkpt>
      <trkpt lat="15.127845" lon="-92.106976">
        <ele>3718.3924496772065</ele>
        <time>2019-11-30T22:25:01Z</time>
      </trkpt>
      <trkpt lat="15.127853" lon="-92.106975">
        <ele>3719.245660456377</ele>
        <time>2019-11-30T22:25:25Z</time>
      </trkpt>
      <trkpt lat="15.127869" lon="-92.106987">
        <ele>3720.0134977771772</ele>
        <time>2019-11-30T22:25:29Z</time>
      </trkpt>
      <trkpt lat="15.127882" lon="-92.106989">
        <ele>3720.353284688291</ele>
        <time>2019-11-30T22:25:33Z</time>
      </trkpt>
      <trkpt lat="15.127909" lon="-92.106989">
        <ele>3720.8450535511024</ele>
        <time>2019-11-30T22:25:38Z</time>
      </trkpt>
      <trkpt lat="15.127920" lon="-92.106989">
        <ele>3720.8449828711855</ele>
        <time>2019-11-30T22:25:42Z</time>
      </trkpt>
      <trkpt lat="15.127927" lon="-92.106986">
        <ele>3723.603945714584</ele>
        <time>2019-11-30T22:25:46Z</time>
      </trkpt>
      <trkpt lat="15.127931" lon="-92.106978">
        <ele>3723.6038361417745</ele>
        <time>2019-11-30T22:25:50Z</time>
      </trkpt>
      <trkpt lat="15.127932" lon="-92.106974">
        <ele>3723.9866115225764</ele>
        <time>2019-11-30T22:25:59Z</time>
      </trkpt>
      <trkpt lat="15.127941" lon="-92.106965">
        <ele>3726.404909575386</ele>
        <time>2019-11-30T22:26:04Z</time>
      </trkpt>
      <trkpt lat="15.127946" lon="-92.106958">
        <ele>3727.2947061701025</ele>
        <time>2019-11-30T22:26:19Z</time>
      </trkpt>
      <trkpt lat="15.127954" lon="-92.106954">
        <ele>3727.2389503755358</ele>
        <time>2019-11-30T22:26:26Z</time>
      </trkpt>
      <trkpt lat="15.127958" lon="-92.106949">
        <ele>3728.4583511461256</ele>
        <time>2019-11-30T22:26:32Z</time>
      </trkpt>
      <trkpt lat="15.127963" lon="-92.106941">
        <ele>3728.441646807809</ele>
        <time>2019-11-30T22:26:37Z</time>
      </trkpt>
      <trkpt lat="15.127975" lon="-92.106931">
        <ele>3728.7180847150507</ele>
        <time>2019-11-30T22:26:42Z</time>
      </trkpt>
      <trkpt lat="15.127981" lon="-92.106926">
        <ele>3728.7179896979806</ele>
        <time>2019-11-30T22:26:48Z</time>
      </trkpt>
      <trkpt lat="15.127987" lon="-92.106919">
        <ele>3729.620473993823</ele>
        <time>2019-11-30T22:27:01Z</time>
      </trkpt>
      <trkpt lat="15.127995" lon="-92.106911">
        <ele>3729.9440787521708</ele>
        <time>2019-11-30T22:27:05Z</time>
      </trkpt>
      <trkpt lat="15.128002" lon="-92.106907">
        <ele>3729.9439827621873</ele>
        <time>2019-11-30T22:27:29Z</time>
      </trkpt>
      <trkpt lat="15.128008" lon="-92.106906">
        <ele>3730.7766979015414</ele>
        <time>2019-11-30T22:27:50Z</time>
      </trkpt>
      <trkpt lat="15.128032" lon="-92.106893">
        <ele>3732.315233223625</ele>
        <time>2019-11-30T22:27:54Z</time>
      </trkpt>
      <trkpt lat="15.128078" lon="-92.106869">
        <ele>3735.9086979679023</ele>
        <time>2019-11-30T22:27:58Z</time>
      </trkpt>
      <trkpt lat="15.128141" lon="-92.106826">
        <ele>3737.3177880433577</ele>
        <time>2019-11-30T22:28:03Z</time>
      </trkpt>
      <trkpt lat="15.128164" lon="-92.106802">
        <ele>3738.019064530895</ele>
        <time>2019-11-30T22:28:07Z</time>
      </trkpt>
      <trkpt lat="15.128201" lon="-92.106780">
        <ele>3736.8669985994147</ele>
        <time>2019-11-30T22:28:12Z</time>
      </trkpt>
      <trkpt lat="15.128217" lon="-92.106771">
        <ele>3736.8668046259572</ele>
        <time>2019-11-30T22:28:17Z</time>
      </trkpt>
      <trkpt lat="15.128223" lon="-92.106765">
        <ele>3736.866709449268</ele>
        <time>2019-11-30T22:28:22Z</time>
      </trkpt>
      <trkpt lat="15.128230" lon="-92.106770">
        <ele>3737.9267671128528</ele>
        <time>2019-11-30T22:29:01Z</time>
      </trkpt>
      <trkpt lat="15.128233" lon="-92.106793">
        <ele>3738.57957357357</ele>
        <time>2019-11-30T22:29:05Z</time>
      </trkpt>
      <trkpt lat="15.128234" lon="-92.106811">
        <ele>3738.8578205877243</ele>
        <time>2019-11-30T22:29:09Z</time>
      </trkpt>
      <trkpt lat="15.128236" lon="-92.106820">
        <ele>3738.8578995046814</ele>
        <time>2019-11-30T22:29:17Z</time>
      </trkpt>
      <trkpt lat="15.128236" lon="-92.106829">
        <ele>3738.857987775688</ele>
        <time>2019-11-30T22:29:27Z</time>
      </trkpt>
      <trkpt lat="15.128237" lon="-92.106837">
        <ele>3740.357578497988</ele>
        <time>2019-11-30T22:30:10Z</time>
      </trkpt>
      <trkpt lat="15.128247" lon="-92.106834">
        <ele>3742.302800616872</ele>
        <time>2019-11-30T22:30:15Z</time>
      </trkpt>
      <trkpt lat="15.128255" lon="-92.106831">
        <ele>3742.743152920806</ele>
        <time>2019-11-30T22:30:20Z</time>
      </trkpt>
      <trkpt lat="15.128262" lon="-92.106835">
        <ele>3743.8720461910507</ele>
        <time>2019-11-30T22:30:24Z</time>
      </trkpt>
      <trkpt lat="15.128271" lon="-92.106845">
        <ele>3744.887720164226</ele>
        <time>2019-11-30T22:30:28Z</time>
      </trkpt>
      <trkpt lat="15.128278" lon="-92.106865">
        <ele>3746.7313864517237</ele>
        <time>2019-11-30T22:30:33Z</time>
      </trkpt>
      <trkpt lat="15.128280" lon="-92.106878">
        <ele>3746.7314988571493</ele>
        <time>2019-11-30T22:30:37Z</time>
      </trkpt>
      <trkpt lat="15.128282" lon="-92.106887">
        <ele>3746.7315767488335</ele>
        <time>2019-11-30T22:30:44Z</time>
      </trkpt>
      <trkpt lat="15.128288" lon="-92.106889">
        <ele>3748.116564927863</ele>
        <time>2019-11-30T22:32:13Z</time>
      </trkpt>
      <trkpt lat="15.128308" lon="-92.106904">
        <ele>3749.883439256439</ele>
        <time>2019-11-30T22:32:18Z</time>
      </trkpt>
      <trkpt lat="15.128322" lon="-92.106916">
        <ele>3752.3888427198667</ele>
        <time>2019-11-30T22:32:22Z</time>
      </trkpt>
      <trkpt lat="15.128336" lon="-92.106932">
        <ele>3752.38891757026</ele>
        <time>2019-11-30T22:32:27Z</time>
      </trkpt>
      <trkpt lat="15.128344" lon="-92.106941">
        <ele>3752.388956612937</ele>
        <time>2019-11-30T22:32:32Z</time>
      </trkpt>
      <trkpt lat="15.128352" lon="-92.106944">
        <ele>3752.5322523760356</ele>
        <time>2019-11-30T22:32:36Z</time>
      </trkpt>
      <trkpt lat="15.128367" lon="-92.106966">
        <ele>3753.6290585798642</ele>
        <time>2019-11-30T22:32:41Z</time>
      </trkpt>
      <trkpt lat="15.128370" lon="-92.106979">
        <ele>3753.6291606986224</ele>
        <time>2019-11-30T22:32:45Z</time>
      </trkpt>
      <trkpt lat="15.128374" lon="-92.106986">
        <ele>3753.7883874851486</ele>
        <time>2019-11-30T22:32:53Z</time>
      </trkpt>
      <trkpt lat="15.128387" lon="-92.106991">
        <ele>3754.051301711232</ele>
        <time>2019-11-30T22:32:57Z</time>
      </trkpt>
      <trkpt lat="15.128395" lon="-92.106995">
        <ele>3754.051293019006</ele>
        <time>2019-11-30T22:33:04Z</time>
      </trkpt>
      <trkpt lat="15.128402" lon="-92.106994">
        <ele>3755.001185038496</ele>
        <time>2019-11-30T22:33:13Z</time>
      </trkpt>
      <trkpt lat="15.128411" lon="-92.106995">
        <ele>3755.0011374333067</ele>
        <time>2019-11-30T22:33:23Z</time>
      </trkpt>
      <trkpt lat="15.128415" lon="-92.106998">
        <ele>3756.1788729276714</ele>
        <time>2019-11-30T22:33:34Z</time>
      </trkpt>
      <trkpt lat="15.128443" lon="-92.107004">
        <ele>3757.7842287981175</ele>
        <time>2019-11-30T22:33:39Z</time>
      </trkpt>
      <trkpt lat="15.128463" lon="-92.107011">
        <ele>3757.923578708514</ele>
        <time>2019-11-30T22:33:43Z</time>
      </trkpt>
      <trkpt lat="15.128463" lon="-92.107011">
        <ele>3757.923578708514</ele>
        <time>2019-11-30T22:33:48Z</time>
      </trkpt>
      <trkpt lat="15.128483" lon="-92.107024">
        <ele>3757.9235900073813</ele>
        <time>2019-11-30T22:33:52Z</time>
      </trkpt>
      <trkpt lat="15.128486" lon="-92.107018">
        <ele>3761.6556809457056</ele>
        <time>2019-11-30T22:34:31Z</time>
      </trkpt>
      <trkpt lat="15.128490" lon="-92.107007">
        <ele>3763.1765457937395</ele>
        <time>2019-11-30T22:34:35Z</time>
      </trkpt>
      <trkpt lat="15.128489" lon="-92.106998">
        <ele>3765.3373504761325</ele>
        <time>2019-11-30T22:34:39Z</time>
      </trkpt>
      <trkpt lat="15.128489" lon="-92.106990">
        <ele>3765.3372631644106</ele>
        <time>2019-11-30T22:34:44Z</time>
      </trkpt>
      <trkpt lat="15.128496" lon="-92.106987">
        <ele>3767.0034457420325</ele>
        <time>2019-11-30T22:34:49Z</time>
      </trkpt>
      <trkpt lat="15.128503" lon="-92.106984">
        <ele>3767.00337627793</ele>
        <time>2019-11-30T22:35:09Z</time>
      </trkpt>
      <trkpt lat="15.128511" lon="-92.106961">
        <ele>3771.0741400873726</ele>
        <time>2019-11-30T22:35:14Z</time>
      </trkpt>
      <trkpt lat="15.128521" lon="-92.106949">
        <ele>3772.6428100969497</ele>
        <time>2019-11-30T22:35:18Z</time>
      </trkpt>
      <trkpt lat="15.128538" lon="-92.106957">
        <ele>3772.9789650533626</ele>
        <time>2019-11-30T22:35:22Z</time>
      </trkpt>
      <trkpt lat="15.128586" lon="-92.106962">
        <ele>3772.8729943551875</ele>
        <time>2019-11-30T22:35:27Z</time>
      </trkpt>
      <trkpt lat="15.128617" lon="-92.106952">
        <ele>3773.021137518636</ele>
        <time>2019-11-30T22:35:31Z</time>
      </trkpt>
      <trkpt lat="15.128627" lon="-92.106943">
        <ele>3773.020988248123</ele>
        <time>2019-11-30T22:35:35Z</time>
      </trkpt>
      <trkpt lat="15.128628" lon="-92.106942">
        <ele>3773.2758491239833</ele>
        <time>2019-11-30T22:35:43Z</time>
      </trkpt>
      <trkpt lat="15.128659" lon="-92.106928">
        <ele>3773.275514821094</ele>
        <time>2019-11-30T22:35:48Z</time>
      </trkpt>
      <trkpt lat="15.128667" lon="-92.106927">
        <ele>3773.514225902065</ele>
        <time>2019-11-30T22:35:52Z</time>
      </trkpt>
      <trkpt lat="15.128675" lon="-92.106925">
        <ele>3777.975578941707</ele>
        <time>2019-11-30T22:36:06Z</time>
      </trkpt>
      <trkpt lat="15.128686" lon="-92.106907">
        <ele>3778.6432940023114</ele>
        <time>2019-11-30T22:36:11Z</time>
      </trkpt>
      <trkpt lat="15.128689" lon="-92.106898">
        <ele>3778.64319245132</ele>
        <time>2019-11-30T22:36:28Z</time>
      </trkpt>
      <trkpt lat="15.128700" lon="-92.106882">
        <ele>3779.983776694293</ele>
        <time>2019-11-30T22:36:33Z</time>
      </trkpt>
      <trkpt lat="15.128714" lon="-92.106852">
        <ele>3781.251700960892</ele>
        <time>2019-11-30T22:36:38Z</time>
      </trkpt>
      <trkpt lat="15.128718" lon="-92.106832">
        <ele>3781.957035424953</ele>
        <time>2019-11-30T22:36:42Z</time>
      </trkpt>
      <trkpt lat="15.128721" lon="-92.106819">
        <ele>3781.9568883092734</ele>
        <time>2019-11-30T22:36:46Z</time>
      </trkpt>
      <trkpt lat="15.128723" lon="-92.106810">
        <ele>3781.956789091701</ele>
        <time>2019-11-30T22:36:53Z</time>
      </trkpt>
      <trkpt lat="15.128731" lon="-92.106807">
        <ele>3782.4850295779597</ele>
        <time>2019-11-30T22:36:58Z</time>
      </trkpt>
      <trkpt lat="15.128741" lon="-92.106806">
        <ele>3782.4849589623677</ele>
        <time>2019-11-30T22:37:03Z</time>
      </trkpt>
      <trkpt lat="15.128748" lon="-92.106809">
        <ele>3782.943193999462</ele>
        <time>2019-11-30T22:37:30Z</time>
      </trkpt>
      <trkpt lat="15.128765" lon="-92.106839">
        <ele>3787.7939740063275</ele>
        <time>2019-11-30T22:37:35Z</time>
      </trkpt>
      <trkpt lat="15.128783" lon="-92.106856">
        <ele>3789.2969684047875</ele>
        <time>2019-11-30T22:37:40Z</time>
      </trkpt>
      <trkpt lat="15.128787" lon="-92.106863">
        <ele>3789.2970055961437</ele>
        <time>2019-11-30T22:37:44Z</time>
      </trkpt>
      <trkpt lat="15.128788" lon="-92.106872">
        <ele>3789.2970971710597</ele>
        <time>2019-11-30T22:37:56Z</time>
      </trkpt>
      <trkpt lat="15.128794" lon="-92.106878">
        <ele>3790.5095130867458</ele>
        <time>2019-11-30T22:38:50Z</time>
      </trkpt>
      <trkpt lat="15.128814" lon="-92.106900">
        <ele>3790.458829413918</ele>
        <time>2019-11-30T22:38:54Z</time>
      </trkpt>
      <trkpt lat="15.128829" lon="-92.106913">
        <ele>3790.4588635693576</ele>
        <time>2019-11-30T22:38:59Z</time>
      </trkpt>
      <trkpt lat="15.128829" lon="-92.106913">
        <ele>3790.4588635693576</ele>
        <time>2019-11-30T22:39:21Z</time>
      </trkpt>
      <trkpt lat="15.128855" lon="-92.106924">
        <ele>3790.458813405469</ele>
        <time>2019-11-30T22:39:25Z</time>
      </trkpt>
      <trkpt lat="15.128855" lon="-92.106924">
        <ele>3790.884840347192</ele>
        <time>2019-11-30T22:39:56Z</time>
      </trkpt>
      <trkpt lat="15.128865" lon="-92.106930">
        <ele>3790.884838818596</ele>
        <time>2019-11-30T22:40:01Z</time>
      </trkpt>
      <trkpt lat="15.128872" lon="-92.106931">
        <ele>3790.7886053501106</ele>
        <time>2019-11-30T22:40:27Z</time>
      </trkpt>
      <trkpt lat="15.128889" lon="-92.106939">
        <ele>3790.9438548388366</ele>
        <time>2019-11-30T22:40:32Z</time>
      </trkpt>
      <trkpt lat="15.128911" lon="-92.106945">
        <ele>3791.5753720711455</ele>
        <time>2019-11-30T22:40:36Z</time>
      </trkpt>
      <trkpt lat="15.128928" lon="-92.106938">
        <ele>3792.862062960764</ele>
        <time>2019-11-30T22:40:40Z</time>
      </trkpt>
      <trkpt lat="15.128940" lon="-92.106931">
        <ele>3792.861920507048</ele>
        <time>2019-11-30T22:40:44Z</time>
      </trkpt>
      <trkpt lat="15.128948" lon="-92.106930">
        <ele>3794.639688095992</ele>
        <time>2019-11-30T22:40:48Z</time>
      </trkpt>
      <trkpt lat="15.128958" lon="-92.106934">
        <ele>3794.8547469201376</ele>
        <time>2019-11-30T22:40:52Z</time>
      </trkpt>
      <trkpt lat="15.128967" lon="-92.106936">
        <ele>3794.854716835988</ele>
        <time>2019-11-30T22:41:16Z</time>
      </trkpt>
      <trkpt lat="15.128975" lon="-92.106938">
        <ele>3795.3903292872237</ele>
        <time>2019-11-30T22:41:44Z</time>
      </trkpt>
      <trkpt lat="15.128997" lon="-92.106931">
        <ele>3795.7741559352066</ele>
        <time>2019-11-30T22:41:48Z</time>
      </trkpt>
      <trkpt lat="15.129005" lon="-92.106929">
        <ele>3795.7740856314786</ele>
        <time>2019-11-30T22:41:57Z</time>
      </trkpt>
      <trkpt lat="15.129033" lon="-92.106922">
        <ele>3797.1952242437546</ele>
        <time>2019-11-30T22:42:01Z</time>
      </trkpt>
      <trkpt lat="15.129054" lon="-92.106905">
        <ele>3797.843845235709</ele>
        <time>2019-11-30T22:42:05Z</time>
      </trkpt>
      <trkpt lat="15.129064" lon="-92.106898">
        <ele>3797.8437099739645</ele>
        <time>2019-11-30T22:42:09Z</time>
      </trkpt>
      <trkpt lat="15.129073" lon="-92.106895">
        <ele>3797.843625183601</ele>
        <time>2019-11-30T22:42:25Z</time>
      </trkpt>
      <trkpt lat="15.129078" lon="-92.106902">
        <ele>3798.955973507993</ele>
        <time>2019-11-30T22:42:49Z</time>
      </trkpt>
      <trkpt lat="15.129080" lon="-92.106909">
        <ele>3799.0268266782746</ele>
        <time>2019-11-30T22:42:55Z</time>
      </trkpt>
      <trkpt lat="15.129094" lon="-92.106923">
        <ele>3800.616486188699</ele>
        <time>2019-11-30T22:42:59Z</time>
      </trkpt>
      <trkpt lat="15.129099" lon="-92.106933">
        <ele>3800.6165489824684</ele>
        <time>2019-11-30T22:43:03Z</time>
      </trkpt>
      <trkpt lat="15.129102" lon="-92.106942">
        <ele>3800.948894948315</ele>
        <time>2019-11-30T22:43:09Z</time>
      </trkpt>
      <trkpt lat="15.129111" lon="-92.106945">
        <ele>3801.2992150650653</ele>
        <time>2019-11-30T22:43:14Z</time>
      </trkpt>
      <trkpt lat="15.129119" lon="-92.106948">
        <ele>3803.9576376744953</ele>
        <time>2019-11-30T22:43:22Z</time>
      </trkpt>
      <trkpt lat="15.129120" lon="-92.106944">
        <ele>3806.0908937427703</ele>
        <time>2019-11-30T22:43:31Z</time>
      </trkpt>
      <trkpt lat="15.129120" lon="-92.106934">
        <ele>3806.0907970722765</ele>
        <time>2019-11-30T22:43:35Z</time>
      </trkpt>
      <trkpt lat="15.129125" lon="-92.106936">
        <ele>3807.583218519628</ele>
        <time>2019-11-30T22:43:53Z</time>
      </trkpt>
      <trkpt lat="15.129136" lon="-92.106944">
        <ele>3807.5832231657146</ele>
        <time>2019-11-30T22:43:57Z</time>
      </trkpt>
      <trkpt lat="15.129145" lon="-92.106948">
        <ele>3807.583206304844</ele>
        <time>2019-11-30T22:44:06Z</time>
      </trkpt>
      <trkpt lat="15.129150" lon="-92.106948">
        <ele>3808.2716585780818</ele>
        <time>2019-11-30T22:44:20Z</time>
      </trkpt>
      <trkpt lat="15.129165" lon="-92.106955">
        <ele>3809.582908369877</ele>
        <time>2019-11-30T22:44:25Z</time>
      </trkpt>
      <trkpt lat="15.129167" lon="-92.106956">
        <ele>3809.582906811931</ele>
        <time>2019-11-30T22:44:31Z</time>
      </trkpt>
      <trkpt lat="15.129177" lon="-92.106962">
        <ele>3809.582901845104</ele>
        <time>2019-11-30T22:44:35Z</time>
      </trkpt>
      <trkpt lat="15.129183" lon="-92.106960">
        <ele>3809.629472455035</ele>
        <time>2019-11-30T22:44:50Z</time>
      </trkpt>
      <trkpt lat="15.129222" lon="-92.106947">
        <ele>3810.1947815584067</ele>
        <time>2019-11-30T22:44:55Z</time>
      </trkpt>
      <trkpt lat="15.129242" lon="-92.106938">
        <ele>3810.194560953976</ele>
        <time>2019-11-30T22:44:59Z</time>
      </trkpt>
      <trkpt lat="15.129249" lon="-92.106933">
        <ele>3810.194458597524</ele>
        <time>2019-11-30T22:45:03Z</time>
      </trkpt>
      <trkpt lat="15.129255" lon="-92.106928">
        <ele>3810.6477470275217</ele>
        <time>2019-11-30T22:45:10Z</time>
      </trkpt>
      <trkpt lat="15.129268" lon="-92.106919">
        <ele>3811.711049447941</ele>
        <time>2019-11-30T22:45:15Z</time>
      </trkpt>
      <trkpt lat="15.129275" lon="-92.106916">
        <ele>3813.1875365896176</ele>
        <time>2019-11-30T22:45:21Z</time>
      </trkpt>
      <trkpt lat="15.129283" lon="-92.106919">
        <ele>3813.022721344504</ele>
        <time>2019-11-30T22:45:29Z</time>
      </trkpt>
      <trkpt lat="15.129291" lon="-92.106922">
        <ele>3813.3376457527734</ele>
        <time>2019-11-30T22:45:34Z</time>
      </trkpt>
      <trkpt lat="15.129312" lon="-92.106930">
        <ele>3813.6718246376686</ele>
        <time>2019-11-30T22:45:39Z</time>
      </trkpt>
      <trkpt lat="15.129320" lon="-92.106933">
        <ele>3813.6717996678353</ele>
        <time>2019-11-30T22:45:49Z</time>
      </trkpt>
      <trkpt lat="15.129329" lon="-92.106936">
        <ele>3813.671776830058</ele>
        <time>2019-11-30T22:45:59Z</time>
      </trkpt>
      <trkpt lat="15.129331" lon="-92.106932">
        <ele>3814.516199592549</ele>
        <time>2019-11-30T22:46:52Z</time>
      </trkpt>
      <trkpt lat="15.129352" lon="-92.106923">
        <ele>3815.112177671762</ele>
        <time>2019-11-30T22:46:57Z</time>
      </trkpt>
      <trkpt lat="15.129362" lon="-92.106920">
        <ele>3815.112076850374</ele>
        <time>2019-11-30T22:47:01Z</time>
      </trkpt>
      <trkpt lat="15.129370" lon="-92.106916">
        <ele>3815.111988390561</ele>
        <time>2019-11-30T22:47:59Z</time>
      </trkpt>
      <trkpt lat="15.129373" lon="-92.106916">
        <ele>3815.928863647282</ele>
        <time>2019-11-30T22:51:57Z</time>
      </trkpt>
      <trkpt lat="15.129405" lon="-92.106907">
        <ele>3819.93174143347</ele>
        <time>2019-11-30T22:52:01Z</time>
      </trkpt>
      <trkpt lat="15.129405" lon="-92.106907">
        <ele>3819.93174143347</ele>
        <time>2019-11-30T22:52:05Z</time>
      </trkpt>
      <trkpt lat="15.129446" lon="-92.106910">
        <ele>3819.931517804909</ele>
        <time>2019-11-30T22:52:10Z</time>
      </trkpt>
      <trkpt lat="15.129453" lon="-92.106908">
        <ele>3820.7256458236625</ele>
        <time>2019-11-30T22:52:25Z</time>
      </trkpt>
      <trkpt lat="15.129482" lon="-92.106922">
        <ele>3821.713148299918</ele>
        <time>2019-11-30T22:52:29Z</time>
      </trkpt>
      <trkpt lat="15.129506" lon="-92.106928">
        <ele>3821.7130621004394</ele>
        <time>2019-11-30T22:52:33Z</time>
      </trkpt>
      <trkpt lat="15.129519" lon="-92.106931">
        <ele>3821.7130059088827</ele>
        <time>2019-11-30T22:52:38Z</time>
      </trkpt>
      <trkpt lat="15.129528" lon="-92.106933">
        <ele>3823.9742026800413</ele>
        <time>2019-11-30T22:52:46Z</time>
      </trkpt>
      <trkpt lat="15.129559" lon="-92.106942">
        <ele>3824.922825899628</ele>
        <time>2019-11-30T22:52:50Z</time>
      </trkpt>
      <trkpt lat="15.129575" lon="-92.106946">
        <ele>3824.9227751108792</ele>
        <time>2019-11-30T22:52:55Z</time>
      </trkpt>
      <trkpt lat="15.129602" lon="-92.106953">
        <ele>3824.922672209905</ele>
        <time>2019-11-30T22:53:00Z</time>
      </trkpt>
      <trkpt lat="15.129606" lon="-92.106954">
        <ele>3824.922657908481</ele>
        <time>2019-11-30T22:53:20Z</time>
      </trkpt>
      <trkpt lat="15.129612" lon="-92.106960">
        <ele>3824.922677074025</ele>
        <time>2019-11-30T22:53:37Z</time>
      </trkpt>
      <trkpt lat="15.129621" lon="-92.106958">
        <ele>3827.894038920168</ele>
        <time>2019-11-30T22:53:55Z</time>
      </trkpt>
      <trkpt lat="15.129628" lon="-92.106953">
        <ele>3827.893943601311</ele>
        <time>2019-11-30T22:54:13Z</time>
      </trkpt>
      <trkpt lat="15.129633" lon="-92.106954">
        <ele>3829.3477831043656</ele>
        <time>2019-11-30T22:54:29Z</time>
      </trkpt>
      <trkpt lat="15.129658" lon="-92.106958">
        <ele>3832.851810321628</ele>
        <time>2019-11-30T22:54:33Z</time>
      </trkpt>
      <trkpt lat="15.129681" lon="-92.106962">
        <ele>3832.851708089993</ele>
        <time>2019-11-30T22:54:38Z</time>
      </trkpt>
      <trkpt lat="15.129692" lon="-92.106968">
        <ele>3833.8795278031407</ele>
        <time>2019-11-30T22:54:42Z</time>
      </trkpt>
      <trkpt lat="15.129716" lon="-92.106982">
        <ele>3835.244024561084</ele>
        <time>2019-11-30T22:54:47Z</time>
      </trkpt>
      <trkpt lat="15.129738" lon="-92.106991">
        <ele>3835.2439716844474</ele>
        <time>2019-11-30T22:54:51Z</time>
      </trkpt>
      <trkpt lat="15.129746" lon="-92.106996">
        <ele>3835.243968939007</ele>
        <time>2019-11-30T22:54:56Z</time>
      </trkpt>
      <trkpt lat="15.129752" lon="-92.106999">
        <ele>3835.830155034452</ele>
        <time>2019-11-30T22:55:02Z</time>
      </trkpt>
      <trkpt lat="15.129766" lon="-92.107004">
        <ele>3838.1372408148627</ele>
        <time>2019-11-30T22:55:06Z</time>
      </trkpt>
      <trkpt lat="15.129774" lon="-92.107007">
        <ele>3838.1372227983034</ele>
        <time>2019-11-30T22:55:11Z</time>
      </trkpt>
      <trkpt lat="15.129777" lon="-92.107013">
        <ele>3840.4282749429563</ele>
        <time>2019-11-30T22:55:46Z</time>
      </trkpt>
      <trkpt lat="15.129813" lon="-92.107022">
        <ele>3840.4281438302855</ele>
        <time>2019-11-30T22:55:51Z</time>
      </trkpt>
      <trkpt lat="15.129815" lon="-92.107015">
        <ele>3846.9410011192117</ele>
        <time>2019-11-30T22:56:11Z</time>
      </trkpt>
      <trkpt lat="15.129814" lon="-92.107005">
        <ele>3846.940898919114</ele>
        <time>2019-11-30T22:56:16Z</time>
      </trkpt>
      <trkpt lat="15.129813" lon="-92.107000">
        <ele>3846.940850946065</ele>
        <time>2019-11-30T22:56:38Z</time>
      </trkpt>
      <trkpt lat="15.129820" lon="-92.106993">
        <ele>3849.3958236807416</ele>
        <time>2019-11-30T22:57:06Z</time>
      </trkpt>
      <trkpt lat="15.129827" lon="-92.106989">
        <ele>3850.8115123561397</ele>
        <time>2019-11-30T22:57:31Z</time>
      </trkpt>
      <trkpt lat="15.129834" lon="-92.106990">
        <ele>3852.34492202122</ele>
        <time>2019-11-30T22:57:37Z</time>
      </trkpt>
      <trkpt lat="15.129874" lon="-92.106981">
        <ele>3854.833355326376</ele>
        <time>2019-11-30T22:57:42Z</time>
      </trkpt>
      <trkpt lat="15.129892" lon="-92.106992">
        <ele>3856.2915983348</ele>
        <time>2019-11-30T22:57:46Z</time>
      </trkpt>
      <trkpt lat="15.129904" lon="-92.106999">
        <ele>3856.291591735387</ele>
        <time>2019-11-30T22:57:51Z</time>
      </trkpt>
      <trkpt lat="15.129912" lon="-92.107002">
        <ele>3856.2915708609175</ele>
        <time>2019-11-30T22:57:56Z</time>
      </trkpt>
      <trkpt lat="15.129915" lon="-92.106994">
        <ele>3859.8063671183522</ele>
        <time>2019-11-30T22:58:25Z</time>
      </trkpt>
      <trkpt lat="15.129909" lon="-92.106980">
        <ele>3859.806258601476</ele>
        <time>2019-11-30T22:58:30Z</time>
      </trkpt>
      <trkpt lat="15.129906" lon="-92.106972">
        <ele>3859.8062003358214</ele>
        <time>2019-11-30T22:58:44Z</time>
      </trkpt>
      <trkpt lat="15.129911" lon="-92.106970">
        <ele>3861.1127896144862</ele>
        <time>2019-11-30T22:59:01Z</time>
      </trkpt>
      <trkpt lat="15.129927" lon="-92.106971">
        <ele>3861.7997113551837</ele>
        <time>2019-11-30T22:59:06Z</time>
      </trkpt>
      <trkpt lat="15.129932" lon="-92.106971">
        <ele>3861.7996791545092</ele>
        <time>2019-11-30T22:59:15Z</time>
      </trkpt>
      <trkpt lat="15.129941" lon="-92.106971">
        <ele>3861.7996234098405</ele>
        <time>2019-11-30T22:59:25Z</time>
      </trkpt>
      <trkpt lat="15.129948" lon="-92.106972">
        <ele>3862.9848905117547</ele>
        <time>2019-11-30T23:00:30Z</time>
      </trkpt>
      <trkpt lat="15.129972" lon="-92.106973">
        <ele>3863.929092887425</ele>
        <time>2019-11-30T23:00:34Z</time>
      </trkpt>
      <trkpt lat="15.129989" lon="-92.106975">
        <ele>3863.928997171209</ele>
        <time>2019-11-30T23:00:39Z</time>
      </trkpt>
      <trkpt lat="15.129997" lon="-92.106978">
        <ele>3864.121367963192</ele>
        <time>2019-11-30T23:00:45Z</time>
      </trkpt>
      <trkpt lat="15.130013" lon="-92.106996">
        <ele>3864.7957667038786</ele>
        <time>2019-11-30T23:00:50Z</time>
      </trkpt>
      <trkpt lat="15.130022" lon="-92.107010">
        <ele>3864.795846815336</ele>
        <time>2019-11-30T23:00:54Z</time>
      </trkpt>
      <trkpt lat="15.130027" lon="-92.107018">
        <ele>3864.795894184542</ele>
        <time>2019-11-30T23:01:00Z</time>
      </trkpt>
      <trkpt lat="15.130033" lon="-92.107015">
        <ele>3871.8954348297134</ele>
        <time>2019-11-30T23:01:16Z</time>
      </trkpt>
      <trkpt lat="15.130037" lon="-92.107006">
        <ele>3873.386293264807</ele>
        <time>2019-11-30T23:01:44Z</time>
      </trkpt>
      <trkpt lat="15.130045" lon="-92.107004">
        <ele>3877.206280643169</ele>
        <time>2019-11-30T23:02:06Z</time>
      </trkpt>
      <trkpt lat="15.130052" lon="-92.107000">
        <ele>3878.9132353117675</ele>
        <time>2019-11-30T23:04:01Z</time>
      </trkpt>
      <trkpt lat="15.130067" lon="-92.107009">
        <ele>3880.1280699154418</ele>
        <time>2019-11-30T23:04:05Z</time>
      </trkpt>
      <trkpt lat="15.130080" lon="-92.107014">
        <ele>3881.6868866216137</ele>
        <time>2019-11-30T23:04:10Z</time>
      </trkpt>
      <trkpt lat="15.130093" lon="-92.107023">
        <ele>3884.7957772599734</ele>
        <time>2019-11-30T23:04:14Z</time>
      </trkpt>
      <trkpt lat="15.130100" lon="-92.107028">
        <ele>3884.795780008294</ele>
        <time>2019-11-30T23:04:18Z</time>
      </trkpt>
      <trkpt lat="15.130108" lon="-92.107032">
        <ele>3884.7957683824598</ele>
        <time>2019-11-30T23:04:50Z</time>
      </trkpt>
      <trkpt lat="15.130129" lon="-92.107045">
        <ele>3885.6192599691235</ele>
        <time>2019-11-30T23:04:54Z</time>
      </trkpt>
      <trkpt lat="15.130153" lon="-92.107063">
        <ele>3886.826563393102</ele>
        <time>2019-11-30T23:04:58Z</time>
      </trkpt>
      <trkpt lat="15.130189" lon="-92.107099">
        <ele>3889.7666400452163</ele>
        <time>2019-11-30T23:05:03Z</time>
      </trkpt>
      <trkpt lat="15.130189" lon="-92.107099">
        <ele>3890.6357806702163</ele>
        <time>2019-11-30T23:05:10Z</time>
      </trkpt>
      <trkpt lat="15.130220" lon="-92.107140">
        <ele>3890.635994208968</ele>
        <time>2019-11-30T23:05:14Z</time>
      </trkpt>
      <trkpt lat="15.130225" lon="-92.107147">
        <ele>3890.63604364563</ele>
        <time>2019-11-30T23:05:23Z</time>
      </trkpt>
      <trkpt lat="15.130233" lon="-92.107144">
        <ele>3892.2743857967444</ele>
        <time>2019-11-30T23:06:10Z</time>
      </trkpt>
      <trkpt lat="15.130242" lon="-92.107142">
        <ele>3892.274313880478</ele>
        <time>2019-11-30T23:06:15Z</time>
      </trkpt>
      <trkpt lat="15.130249" lon="-92.107139">
        <ele>3893.59356984915</ele>
        <time>2019-11-30T23:06:26Z</time>
      </trkpt>
      <trkpt lat="15.130262" lon="-92.107136">
        <ele>3896.557321352087</ele>
        <time>2019-11-30T23:06:31Z</time>
      </trkpt>
      <trkpt lat="15.130284" lon="-92.107114">
        <ele>3900.4170759720746</ele>
        <time>2019-11-30T23:06:36Z</time>
      </trkpt>
      <trkpt lat="15.130300" lon="-92.107096">
        <ele>3901.079630677074</ele>
        <time>2019-11-30T23:06:40Z</time>
      </trkpt>
      <trkpt lat="15.130307" lon="-92.107091">
        <ele>3901.0795366600864</ele>
        <time>2019-11-30T23:06:45Z</time>
      </trkpt>
      <trkpt lat="15.130316" lon="-92.107082">
        <ele>3902.752001666508</ele>
        <time>2019-11-30T23:06:49Z</time>
      </trkpt>
      <trkpt lat="15.130320" lon="-92.107074">
        <ele>3902.742374685746</ele>
        <time>2019-11-30T23:07:02Z</time>
      </trkpt>
      <trkpt lat="15.130320" lon="-92.107068">
        <ele>3904.5745887452485</ele>
        <time>2019-11-30T23:07:32Z</time>
      </trkpt>
      <trkpt lat="15.130319" lon="-92.107047">
        <ele>3905.5568025846483</ele>
        <time>2019-11-30T23:07:36Z</time>
      </trkpt>
      <trkpt lat="15.130319" lon="-92.107031">
        <ele>3905.55664639198</ele>
        <time>2019-11-30T23:07:40Z</time>
      </trkpt>
      <trkpt lat="15.130320" lon="-92.107022">
        <ele>3905.5565436340776</ele>
        <time>2019-11-30T23:07:44Z</time>
      </trkpt>
      <trkpt lat="15.130330" lon="-92.107027">
        <ele>3906.6966693981813</ele>
        <time>2019-11-30T23:07:49Z</time>
      </trkpt>
      <trkpt lat="15.130344" lon="-92.107035">
        <ele>3906.696654986224</ele>
        <time>2019-11-30T23:07:53Z</time>
      </trkpt>
      <trkpt lat="15.130353" lon="-92.107036">
        <ele>3906.696614765634</ele>
        <time>2019-11-30T23:07:58Z</time>
      </trkpt>
      <trkpt lat="15.130361" lon="-92.107037">
        <ele>3906.8918919537473</ele>
        <time>2019-11-30T23:08:14Z</time>
      </trkpt>
      <trkpt lat="15.130379" lon="-92.107044">
        <ele>3906.809811170674</ele>
        <time>2019-11-30T23:08:19Z</time>
      </trkpt>
      <trkpt lat="15.130393" lon="-92.107051">
        <ele>3906.80979544873</ele>
        <time>2019-11-30T23:08:24Z</time>
      </trkpt>
      <trkpt lat="15.130400" lon="-92.107054">
        <ele>3908.519501232812</ele>
        <time>2019-11-30T23:08:30Z</time>
      </trkpt>
      <trkpt lat="15.130405" lon="-92.107061">
        <ele>3911.2280299937324</ele>
        <time>2019-11-30T23:08:40Z</time>
      </trkpt>
      <trkpt lat="15.130420" lon="-92.107084">
        <ele>3911.228172908477</ele>
        <time>2019-11-30T23:08:45Z</time>
      </trkpt>
      <trkpt lat="15.130423" lon="-92.107088">
        <ele>3911.9840559635913</ele>
        <time>2019-11-30T23:08:51Z</time>
      </trkpt>
      <trkpt lat="15.130436" lon="-92.107105">
        <ele>3912.2329235828984</ele>
        <time>2019-11-30T23:08:55Z</time>
      </trkpt>
      <trkpt lat="15.130443" lon="-92.107111">
        <ele>3912.2329388507605</ele>
        <time>2019-11-30T23:08:59Z</time>
      </trkpt>
      <trkpt lat="15.130447" lon="-92.107119">
        <ele>3916.0533138414544</ele>
        <time>2019-11-30T23:09:08Z</time>
      </trkpt>
      <trkpt lat="15.130441" lon="-92.107137">
        <ele>3916.975399518286</ele>
        <time>2019-11-30T23:09:12Z</time>
      </trkpt>
      <trkpt lat="15.130435" lon="-92.107146">
        <ele>3916.9755321755047</ele>
        <time>2019-11-30T23:09:17Z</time>
      </trkpt>
      <trkpt lat="15.130429" lon="-92.107152">
        <ele>3920.194136805741</ele>
        <time>2019-11-30T23:09:29Z</time>
      </trkpt>
      <trkpt lat="15.130425" lon="-92.107160">
        <ele>3920.29360437771</ele>
        <time>2019-11-30T23:10:07Z</time>
      </trkpt>
      <trkpt lat="15.130418" lon="-92.107175">
        <ele>3921.996443385714</ele>
        <time>2019-11-30T23:10:12Z</time>
      </trkpt>
      <trkpt lat="15.130410" lon="-92.107193">
        <ele>3921.996665317201</ele>
        <time>2019-11-30T23:10:16Z</time>
      </trkpt>
      <trkpt lat="15.130405" lon="-92.107202">
        <ele>3921.9967903297957</ele>
        <time>2019-11-30T23:10:21Z</time>
      </trkpt>
      <trkpt lat="15.130402" lon="-92.107211">
        <ele>3923.0659905100188</ele>
        <time>2019-11-30T23:10:27Z</time>
      </trkpt>
      <trkpt lat="15.130400" lon="-92.107226">
        <ele>3923.2338779277475</ele>
        <time>2019-11-30T23:10:32Z</time>
      </trkpt>
      <trkpt lat="15.130398" lon="-92.107234">
        <ele>3923.2339759196575</ele>
        <time>2019-11-30T23:10:38Z</time>
      </trkpt>
      <trkpt lat="15.130397" lon="-92.107243">
        <ele>3924.2843639572416</ele>
        <time>2019-11-30T23:10:49Z</time>
      </trkpt>
      <trkpt lat="15.130397" lon="-92.107256">
        <ele>3924.4622264674854</ele>
        <time>2019-11-30T23:10:53Z</time>
      </trkpt>
      <trkpt lat="15.130397" lon="-92.107259">
        <ele>3924.462255582014</ele>
        <time>2019-11-30T23:10:59Z</time>
      </trkpt>
      <trkpt lat="15.130396" lon="-92.107271">
        <ele>3925.047101665098</ele>
        <time>2019-11-30T23:11:03Z</time>
      </trkpt>
      <trkpt lat="15.130397" lon="-92.107290">
        <ele>3927.3346389614926</ele>
        <time>2019-11-30T23:11:07Z</time>
      </trkpt>
      <trkpt lat="15.130399" lon="-92.107311">
        <ele>3928.972298154444</ele>
        <time>2019-11-30T23:11:11Z</time>
      </trkpt>
      <trkpt lat="15.130399" lon="-92.107324">
        <ele>3928.972420559441</ele>
        <time>2019-11-30T23:11:16Z</time>
      </trkpt>
      <trkpt lat="15.130400" lon="-92.107332">
        <ele>3928.658774475694</ele>
        <time>2019-11-30T23:11:31Z</time>
      </trkpt>
      <trkpt lat="15.130409" lon="-92.107341">
        <ele>3928.733512471597</ele>
        <time>2019-11-30T23:11:36Z</time>
      </trkpt>
      <trkpt lat="15.130418" lon="-92.107342">
        <ele>3932.582845649567</ele>
        <time>2019-11-30T23:12:03Z</time>
      </trkpt>
      <trkpt lat="15.130426" lon="-92.107344">
        <ele>3933.3442817241034</ele>
        <time>2019-11-30T23:12:24Z</time>
      </trkpt>
      <trkpt lat="15.130432" lon="-92.107350">
        <ele>3933.3442988941</ele>
        <time>2019-11-30T23:12:37Z</time>
      </trkpt>
      <trkpt lat="15.130436" lon="-92.107352">
        <ele>3933.6013742553273</ele>
        <time>2019-11-30T23:12:49Z</time>
      </trkpt>
      <trkpt lat="15.130461" lon="-92.107354">
        <ele>3933.803632415194</ele>
        <time>2019-11-30T23:12:54Z</time>
      </trkpt>
      <trkpt lat="15.130472" lon="-92.107354">
        <ele>3933.8035685570358</ele>
        <time>2019-11-30T23:12:59Z</time>
      </trkpt>
      <trkpt lat="15.130477" lon="-92.107359">
        <ele>3933.876825095217</ele>
        <time>2019-11-30T23:13:18Z</time>
      </trkpt>
      <trkpt lat="15.130485" lon="-92.107370">
        <ele>3933.876888592853</ele>
        <time>2019-11-30T23:13:23Z</time>
      </trkpt>
      <trkpt lat="15.130491" lon="-92.107376">
        <ele>3933.876920115719</ele>
        <time>2019-11-30T23:13:31Z</time>
      </trkpt>
      <trkpt lat="15.130497" lon="-92.107373">
        <ele>3934.0831429530567</ele>
        <time>2019-11-30T23:14:21Z</time>
      </trkpt>
      <trkpt lat="15.130507" lon="-92.107372">
        <ele>3934.0830756769847</ele>
        <time>2019-11-30T23:14:25Z</time>
      </trkpt>
      <trkpt lat="15.130515" lon="-92.107373">
        <ele>3934.0830316324373</ele>
        <time>2019-11-30T23:14:32Z</time>
      </trkpt>
      <trkpt lat="15.130522" lon="-92.107375">
        <ele>3934.8693792793333</ele>
        <time>2019-11-30T23:14:46Z</time>
      </trkpt>
      <trkpt lat="15.130541" lon="-92.107375">
        <ele>3936.484494269543</ele>
        <time>2019-11-30T23:14:51Z</time>
      </trkpt>
      <trkpt lat="15.130549" lon="-92.107372">
        <ele>3936.4844126386893</ele>
        <time>2019-11-30T23:14:55Z</time>
      </trkpt>
      <trkpt lat="15.130557" lon="-92.107371">
        <ele>3936.619609677139</ele>
        <time>2019-11-30T23:15:01Z</time>
      </trkpt>
      <trkpt lat="15.130571" lon="-92.107375">
        <ele>3937.8344102817036</ele>
        <time>2019-11-30T23:15:05Z</time>
      </trkpt>
      <trkpt lat="15.130591" lon="-92.107377">
        <ele>3938.491768974169</ele>
        <time>2019-11-30T23:15:10Z</time>
      </trkpt>
      <trkpt lat="15.130618" lon="-92.107389">
        <ele>3940.313256834259</ele>
        <time>2019-11-30T23:15:14Z</time>
      </trkpt>
      <trkpt lat="15.130668" lon="-92.107415">
        <ele>3943.307103729934</ele>
        <time>2019-11-30T23:15:18Z</time>
      </trkpt>
      <trkpt lat="15.130706" lon="-92.107414">
        <ele>3946.2841492782472</ele>
        <time>2019-11-30T23:15:22Z</time>
      </trkpt>
      <trkpt lat="15.130745" lon="-92.107416">
        <ele>3949.4894906112045</ele>
        <time>2019-11-30T23:15:27Z</time>
      </trkpt>
      <trkpt lat="15.130772" lon="-92.107412">
        <ele>3951.0561723708347</ele>
        <time>2019-11-30T23:15:31Z</time>
      </trkpt>
      <trkpt lat="15.130772" lon="-92.107412">
        <ele>3951.0561723708347</ele>
        <time>2019-11-30T23:15:31Z</time>
      </trkpt>
      <trkpt lat="15.130837" lon="-92.107324">
        <ele>3967.9034751738404</ele>
        <time>2019-12-01T03:21:13Z</time>
      </trkpt>
      <trkpt lat="15.130838" lon="-92.107365">
        <ele>3954.1869477752957</ele>
        <time>2019-12-01T03:21:18Z</time>
      </trkpt>
      <trkpt lat="15.130901" lon="-92.107446">
        <ele>3951.265912765827</ele>
        <time>2019-12-01T03:21:22Z</time>
      </trkpt>
      <trkpt lat="15.130901" lon="-92.107446">
        <ele>3951.265912765827</ele>
        <time>2019-12-01T03:21:35Z</time>
      </trkpt>
      <trkpt lat="15.130901" lon="-92.107446">
        <ele>3951.265912765827</ele>
        <time>2019-12-01T03:21:35Z</time>
      </trkpt>
      <trkpt lat="15.130840" lon="-92.107359">
        <ele>3960.868493627434</ele>
        <time>2019-12-01T03:23:44Z</time>
      </trkpt>
      <trkpt lat="15.130791" lon="-92.107367">
        <ele>3964.1266414098704</ele>
        <time>2019-12-01T03:23:49Z</time>
      </trkpt>
      <trkpt lat="15.130791" lon="-92.107367">
        <ele>3965.8512507848704</ele>
        <time>2019-12-01T03:23:53Z</time>
      </trkpt>
      <trkpt lat="15.130791" lon="-92.107367">
        <ele>3965.8512507848704</ele>
        <time>2019-12-01T03:23:53Z</time>
      </trkpt>
      <trkpt lat="15.130651" lon="-92.107434">
        <ele>3981.9559154623594</ele>
        <time>2019-12-01T10:50:32Z</time>
      </trkpt>
      <trkpt lat="15.130651" lon="-92.107434">
        <ele>3981.9559154623594</ele>
        <time>2019-12-01T10:50:37Z</time>
      </trkpt>
      <trkpt lat="15.130647" lon="-92.107444">
        <ele>3983.129550995827</ele>
        <time>2019-12-01T10:50:41Z</time>
      </trkpt>
      <trkpt lat="15.130647" lon="-92.107444">
        <ele>3970.122959198952</ele>
        <time>2019-12-01T10:50:52Z</time>
      </trkpt>
      <trkpt lat="15.130677" lon="-92.107534">
        <ele>3972.363179538431</ele>
        <time>2019-12-01T10:50:57Z</time>
      </trkpt>
      <trkpt lat="15.130663" lon="-92.107554">
        <ele>3972.9877341887836</ele>
        <time>2019-12-01T10:51:01Z</time>
      </trkpt>
      <trkpt lat="15.130653" lon="-92.107575">
        <ele>3973.042209407303</ele>
        <time>2019-12-01T10:51:05Z</time>
      </trkpt>
      <trkpt lat="15.130649" lon="-92.107584">
        <ele>3973.0423197320097</ele>
        <time>2019-12-01T10:51:09Z</time>
      </trkpt>
      <trkpt lat="15.130648" lon="-92.107589">
        <ele>3972.942044612684</ele>
        <time>2019-12-01T10:51:14Z</time>
      </trkpt>
      <trkpt lat="15.130646" lon="-92.107613">
        <ele>3972.334879003645</ele>
        <time>2019-12-01T10:51:18Z</time>
      </trkpt>
      <trkpt lat="15.130641" lon="-92.107646">
        <ele>3972.326690898521</ele>
        <time>2019-12-01T10:51:22Z</time>
      </trkpt>
      <trkpt lat="15.130638" lon="-92.107661">
        <ele>3972.3268580789713</ele>
        <time>2019-12-01T10:51:26Z</time>
      </trkpt>
      <trkpt lat="15.130633" lon="-92.107684">
        <ele>3971.2878202855463</ele>
        <time>2019-12-01T10:51:30Z</time>
      </trkpt>
      <trkpt lat="15.130616" lon="-92.107755">
        <ele>3970.4571012081915</ele>
        <time>2019-12-01T10:51:35Z</time>
      </trkpt>
      <trkpt lat="15.130601" lon="-92.107825">
        <ele>3969.7367074125136</ele>
        <time>2019-12-01T10:51:40Z</time>
      </trkpt>
      <trkpt lat="15.130597" lon="-92.107855">
        <ele>3969.920385735953</ele>
        <time>2019-12-01T10:51:44Z</time>
      </trkpt>
      <trkpt lat="15.130596" lon="-92.107866">
        <ele>3969.9205021308567</ele>
        <time>2019-12-01T10:51:48Z</time>
      </trkpt>
      <trkpt lat="15.130596" lon="-92.107866">
        <ele>3969.9205021308567</ele>
        <time>2019-12-01T10:53:24Z</time>
      </trkpt>
      <trkpt lat="15.130595" lon="-92.107891">
        <ele>3970.204451957748</ele>
        <time>2019-12-01T10:53:29Z</time>
      </trkpt>
      <trkpt lat="15.130599" lon="-92.107902">
        <ele>3969.8402854761566</ele>
        <time>2019-12-01T10:53:33Z</time>
      </trkpt>
      <trkpt lat="15.130599" lon="-92.107915">
        <ele>3969.3655585769056</ele>
        <time>2019-12-01T10:53:37Z</time>
      </trkpt>
      <trkpt lat="15.130594" lon="-92.107941">
        <ele>3968.2567203200933</ele>
        <time>2019-12-01T10:53:42Z</time>
      </trkpt>
      <trkpt lat="15.130592" lon="-92.107964">
        <ele>3967.748172106552</ele>
        <time>2019-12-01T10:53:46Z</time>
      </trkpt>
      <trkpt lat="15.130595" lon="-92.107993">
        <ele>3967.404943271456</ele>
        <time>2019-12-01T10:53:50Z</time>
      </trkpt>
      <trkpt lat="15.130596" lon="-92.108008">
        <ele>3967.4050874649106</ele>
        <time>2019-12-01T10:53:54Z</time>
      </trkpt>
      <trkpt lat="15.130596" lon="-92.108020">
        <ele>3965.994567137588</ele>
        <time>2019-12-01T10:53:58Z</time>
      </trkpt>
      <trkpt lat="15.130588" lon="-92.108064">
        <ele>3966.0822181006865</ele>
        <time>2019-12-01T10:54:03Z</time>
      </trkpt>
      <trkpt lat="15.130579" lon="-92.108104">
        <ele>3966.134686254587</ele>
        <time>2019-12-01T10:54:08Z</time>
      </trkpt>
      <trkpt lat="15.130574" lon="-92.108130">
        <ele>3965.9782373669063</ele>
        <time>2019-12-01T10:54:13Z</time>
      </trkpt>
      <trkpt lat="15.130574" lon="-92.108149">
        <ele>3965.9291128591817</ele>
        <time>2019-12-01T10:54:17Z</time>
      </trkpt>
      <trkpt lat="15.130573" lon="-92.108163">
        <ele>3965.929251502392</ele>
        <time>2019-12-01T10:54:22Z</time>
      </trkpt>
      <trkpt lat="15.130570" lon="-92.108171">
        <ele>3966.485753781176</ele>
        <time>2019-12-01T10:54:31Z</time>
      </trkpt>
      <trkpt lat="15.130556" lon="-92.108179">
        <ele>3967.521325725616</ele>
        <time>2019-12-01T10:54:35Z</time>
      </trkpt>
      <trkpt lat="15.130532" lon="-92.108204">
        <ele>3966.8334984325147</ele>
        <time>2019-12-01T10:54:40Z</time>
      </trkpt>
      <trkpt lat="15.130516" lon="-92.108238">
        <ele>3966.3053719304403</ele>
        <time>2019-12-01T10:54:44Z</time>
      </trkpt>
      <trkpt lat="15.130515" lon="-92.108267">
        <ele>3966.7683208375606</ele>
        <time>2019-12-01T10:54:48Z</time>
      </trkpt>
      <trkpt lat="15.130520" lon="-92.108299">
        <ele>3966.5759814959215</ele>
        <time>2019-12-01T10:54:53Z</time>
      </trkpt>
      <trkpt lat="15.130522" lon="-92.108312">
        <ele>3966.57610612609</ele>
        <time>2019-12-01T10:54:57Z</time>
      </trkpt>
      <trkpt lat="15.130523" lon="-92.108321">
        <ele>3966.5761854993852</ele>
        <time>2019-12-01T10:55:02Z</time>
      </trkpt>
      <trkpt lat="15.130524" lon="-92.108328">
        <ele>3966.5762512581623</ele>
        <time>2019-12-01T10:55:28Z</time>
      </trkpt>
      <trkpt lat="15.130534" lon="-92.108349">
        <ele>3968.4943658225325</ele>
        <time>2019-12-01T10:55:32Z</time>
      </trkpt>
      <trkpt lat="15.130551" lon="-92.108392">
        <ele>3969.2498187256742</ele>
        <time>2019-12-01T10:55:36Z</time>
      </trkpt>
      <trkpt lat="15.130572" lon="-92.108454">
        <ele>3969.7302960894826</ele>
        <time>2019-12-01T10:55:41Z</time>
      </trkpt>
      <trkpt lat="15.130585" lon="-92.108490">
        <ele>3969.7305792739176</ele>
        <time>2019-12-01T10:55:46Z</time>
      </trkpt>
      <trkpt lat="15.130589" lon="-92.108503">
        <ele>3969.7306870110683</ele>
        <time>2019-12-01T10:55:51Z</time>
      </trkpt>
      <trkpt lat="15.130592" lon="-92.108511">
        <ele>3969.730750169599</ele>
        <time>2019-12-01T10:56:00Z</time>
      </trkpt>
      <trkpt lat="15.130601" lon="-92.108531">
        <ele>3971.459169316527</ele>
        <time>2019-12-01T10:56:04Z</time>
      </trkpt>
      <trkpt lat="15.130611" lon="-92.108565">
        <ele>3972.292946182157</ele>
        <time>2019-12-01T10:56:09Z</time>
      </trkpt>
      <trkpt lat="15.130615" lon="-92.108580">
        <ele>3972.2930645534852</ele>
        <time>2019-12-01T10:56:13Z</time>
      </trkpt>
      <trkpt lat="15.130617" lon="-92.108588">
        <ele>3972.2931338190247</ele>
        <time>2019-12-01T10:56:18Z</time>
      </trkpt>
      <trkpt lat="15.130619" lon="-92.108595">
        <ele>3972.2931881841373</ele>
        <time>2019-12-01T10:56:48Z</time>
      </trkpt>
      <trkpt lat="15.130635" lon="-92.108629">
        <ele>3974.3862022137864</ele>
        <time>2019-12-01T10:56:53Z</time>
      </trkpt>
      <trkpt lat="15.130660" lon="-92.108683">
        <ele>3975.503540900043</ele>
        <time>2019-12-01T10:56:58Z</time>
      </trkpt>
      <trkpt lat="15.130678" lon="-92.108726">
        <ele>3976.515340967515</ele>
        <time>2019-12-01T10:57:02Z</time>
      </trkpt>
      <trkpt lat="15.130691" lon="-92.108759">
        <ele>3976.515591429188</ele>
        <time>2019-12-01T10:57:07Z</time>
      </trkpt>
      <trkpt lat="15.130696" lon="-92.108773">
        <ele>3977.234209336797</ele>
        <time>2019-12-01T10:57:11Z</time>
      </trkpt>
      <trkpt lat="15.130700" lon="-92.108796">
        <ele>3978.561802920102</ele>
        <time>2019-12-01T10:57:15Z</time>
      </trkpt>
      <trkpt lat="15.130704" lon="-92.108812">
        <ele>3978.5619451171774</ele>
        <time>2019-12-01T10:57:19Z</time>
      </trkpt>
      <trkpt lat="15.130706" lon="-92.108822">
        <ele>3978.5620264522595</ele>
        <time>2019-12-01T10:57:24Z</time>
      </trkpt>
      <trkpt lat="15.130707" lon="-92.108829">
        <ele>3978.5620904931643</ele>
        <time>2019-12-01T10:57:51Z</time>
      </trkpt>
      <trkpt lat="15.130702" lon="-92.108872">
        <ele>3981.1726646794996</ele>
        <time>2019-12-01T10:57:55Z</time>
      </trkpt>
      <trkpt lat="15.130710" lon="-92.108951">
        <ele>3983.7691176225</ele>
        <time>2019-12-01T10:57:59Z</time>
      </trkpt>
      <trkpt lat="15.130716" lon="-92.108974">
        <ele>3984.0906028114646</ele>
        <time>2019-12-01T10:58:04Z</time>
      </trkpt>
      <trkpt lat="15.130717" lon="-92.108983">
        <ele>3984.0906831795455</ele>
        <time>2019-12-01T10:58:08Z</time>
      </trkpt>
      <trkpt lat="15.130719" lon="-92.108991">
        <ele>3984.0907517382643</ele>
        <time>2019-12-01T10:58:13Z</time>
      </trkpt>
      <trkpt lat="15.130723" lon="-92.108999">
        <ele>3984.090805852615</ele>
        <time>2019-12-01T10:58:25Z</time>
      </trkpt>
      <trkpt lat="15.130733" lon="-92.109003">
        <ele>3984.7460514636236</ele>
        <time>2019-12-01T10:58:30Z</time>
      </trkpt>
      <trkpt lat="15.130741" lon="-92.108999">
        <ele>3985.7003146072234</ele>
        <time>2019-12-01T10:58:34Z</time>
      </trkpt>
      <trkpt lat="15.130750" lon="-92.108999">
        <ele>3986.1243358760926</ele>
        <time>2019-12-01T10:58:54Z</time>
      </trkpt>
      <trkpt lat="15.130763" lon="-92.109002">
        <ele>3987.336925768203</ele>
        <time>2019-12-01T10:58:58Z</time>
      </trkpt>
      <trkpt lat="15.130772" lon="-92.109005">
        <ele>3987.3368945787342</ele>
        <time>2019-12-01T10:59:03Z</time>
      </trkpt>
      <trkpt lat="15.130780" lon="-92.109009">
        <ele>3987.8515415086003</ele>
        <time>2019-12-01T10:59:07Z</time>
      </trkpt>
      <trkpt lat="15.130796" lon="-92.109007">
        <ele>3988.4117257915623</ele>
        <time>2019-12-01T10:59:12Z</time>
      </trkpt>
      <trkpt lat="15.130804" lon="-92.109006">
        <ele>3988.4116585981374</ele>
        <time>2019-12-01T10:59:18Z</time>
      </trkpt>
      <trkpt lat="15.130810" lon="-92.109005">
        <ele>3988.9164967735705</ele>
        <time>2019-12-01T10:59:30Z</time>
      </trkpt>
      <trkpt lat="15.130840" lon="-92.108997">
        <ele>3990.391325651462</ele>
        <time>2019-12-01T10:59:35Z</time>
      </trkpt>
      <trkpt lat="15.130862" lon="-92.108988">
        <ele>3990.3910951106304</ele>
        <time>2019-12-01T10:59:39Z</time>
      </trkpt>
      <trkpt lat="15.130877" lon="-92.108982">
        <ele>3990.3909444484557</ele>
        <time>2019-12-01T10:59:44Z</time>
      </trkpt>
      <trkpt lat="15.130885" lon="-92.108979">
        <ele>3990.3908578155415</ele>
        <time>2019-12-01T10:59:51Z</time>
      </trkpt>
      <trkpt lat="15.130893" lon="-92.108981">
        <ele>3991.0199795601916</ele>
        <time>2019-12-01T11:00:42Z</time>
      </trkpt>
      <trkpt lat="15.130918" lon="-92.108977">
        <ele>3992.2929794509437</ele>
        <time>2019-12-01T11:00:46Z</time>
      </trkpt>
      <trkpt lat="15.130940" lon="-92.108972">
        <ele>3992.2927952101813</ele>
        <time>2019-12-01T11:00:51Z</time>
      </trkpt>
      <trkpt lat="15.130948" lon="-92.108970">
        <ele>3992.292721008295</ele>
        <time>2019-12-01T11:00:56Z</time>
      </trkpt>
      <trkpt lat="15.130956" lon="-92.108968">
        <ele>3992.29264755067</ele>
        <time>2019-12-01T11:01:32Z</time>
      </trkpt>
      <trkpt lat="15.131005" lon="-92.108961">
        <ele>3998.4912514957787</ele>
        <time>2019-12-01T11:01:37Z</time>
      </trkpt>
      <trkpt lat="15.131067" lon="-92.108944">
        <ele>4000.8854647224252</ele>
        <time>2019-12-01T11:01:41Z</time>
      </trkpt>
      <trkpt lat="15.131100" lon="-92.108933">
        <ele>4000.8851468153985</ele>
        <time>2019-12-01T11:01:45Z</time>
      </trkpt>
      <trkpt lat="15.131115" lon="-92.108930">
        <ele>4000.8850218072193</ele>
        <time>2019-12-01T11:01:49Z</time>
      </trkpt>
      <trkpt lat="15.131123" lon="-92.108930">
        <ele>4000.88496876524</ele>
        <time>2019-12-01T11:01:53Z</time>
      </trkpt>
      <trkpt lat="15.131130" lon="-92.108927">
        <ele>4000.884899843973</ele>
        <time>2019-12-01T11:02:01Z</time>
      </trkpt>
      <trkpt lat="15.131158" lon="-92.108937">
        <ele>4002.5027442633914</ele>
        <time>2019-12-01T11:02:05Z</time>
      </trkpt>
      <trkpt lat="15.131180" lon="-92.108948">
        <ele>4002.5027106537927</ele>
        <time>2019-12-01T11:02:09Z</time>
      </trkpt>
      <trkpt lat="15.131189" lon="-92.108958">
        <ele>4002.502756844054</ele>
        <time>2019-12-01T11:02:13Z</time>
      </trkpt>
      <trkpt lat="15.131196" lon="-92.108963">
        <ele>4002.502768677646</ele>
        <time>2019-12-01T11:02:19Z</time>
      </trkpt>
      <trkpt lat="15.131203" lon="-92.108963">
        <ele>4002.566690514889</ele>
        <time>2019-12-01T11:03:32Z</time>
      </trkpt>
      <trkpt lat="15.131237" lon="-92.108956">
        <ele>4005.731444784473</ele>
        <time>2019-12-01T11:03:36Z</time>
      </trkpt>
      <trkpt lat="15.131274" lon="-92.108944">
        <ele>4005.7310905197915</ele>
        <time>2019-12-01T11:03:41Z</time>
      </trkpt>
      <trkpt lat="15.131292" lon="-92.108939">
        <ele>4005.7309333383096</ele>
        <time>2019-12-01T11:03:46Z</time>
      </trkpt>
      <trkpt lat="15.131335" lon="-92.108934">
        <ele>4009.8246039412925</ele>
        <time>2019-12-01T11:03:51Z</time>
      </trkpt>
      <trkpt lat="15.131374" lon="-92.108924">
        <ele>4013.4377837569587</ele>
        <time>2019-12-01T11:03:55Z</time>
      </trkpt>
      <trkpt lat="15.131398" lon="-92.108908">
        <ele>4014.1703761301924</ele>
        <time>2019-12-01T11:03:59Z</time>
      </trkpt>
      <trkpt lat="15.131411" lon="-92.108897">
        <ele>4014.17018541358</ele>
        <time>2019-12-01T11:04:03Z</time>
      </trkpt>
      <trkpt lat="15.131420" lon="-92.108890">
        <ele>4014.170059544448</ele>
        <time>2019-12-01T11:04:07Z</time>
      </trkpt>
      <trkpt lat="15.131426" lon="-92.108884">
        <ele>4014.169960971621</ele>
        <time>2019-12-01T11:04:13Z</time>
      </trkpt>
      <trkpt lat="15.131433" lon="-92.108879">
        <ele>4015.7421371576756</ele>
        <time>2019-12-01T11:04:46Z</time>
      </trkpt>
      <trkpt lat="15.131450" lon="-92.108873">
        <ele>4016.7314643137097</ele>
        <time>2019-12-01T11:04:51Z</time>
      </trkpt>
      <trkpt lat="15.131460" lon="-92.108870">
        <ele>4016.731380031602</ele>
        <time>2019-12-01T11:04:55Z</time>
      </trkpt>
      <trkpt lat="15.131468" lon="-92.108868">
        <ele>4016.731304948144</ele>
        <time>2019-12-01T11:05:00Z</time>
      </trkpt>
      <trkpt lat="15.131475" lon="-92.108863">
        <ele>4017.0515232014654</ele>
        <time>2019-12-01T11:05:10Z</time>
      </trkpt>
      <trkpt lat="15.131499" lon="-92.108841">
        <ele>4019.9788822268565</ele>
        <time>2019-12-01T11:05:14Z</time>
      </trkpt>
      <trkpt lat="15.131527" lon="-92.108815">
        <ele>4023.8004727979646</ele>
        <time>2019-12-01T11:05:19Z</time>
      </trkpt>
      <trkpt lat="15.131550" lon="-92.108799">
        <ele>4024.7752690273796</ele>
        <time>2019-12-01T11:05:24Z</time>
      </trkpt>
      <trkpt lat="15.131558" lon="-92.108790">
        <ele>4024.7751256169163</ele>
        <time>2019-12-01T11:05:28Z</time>
      </trkpt>
      <trkpt lat="15.131569" lon="-92.108790">
        <ele>4025.650540304459</ele>
        <time>2019-12-01T11:05:33Z</time>
      </trkpt>
      <trkpt lat="15.131613" lon="-92.108778">
        <ele>4031.412598111452</ele>
        <time>2019-12-01T11:05:37Z</time>
      </trkpt>
      <trkpt lat="15.131639" lon="-92.108761">
        <ele>4031.412258517379</ele>
        <time>2019-12-01T11:05:42Z</time>
      </trkpt>
      <trkpt lat="15.131649" lon="-92.108754">
        <ele>4031.412124667336</ele>
        <time>2019-12-01T11:05:46Z</time>
      </trkpt>
      <trkpt lat="15.131656" lon="-92.108748">
        <ele>4031.4120259664605</ele>
        <time>2019-12-01T11:05:53Z</time>
      </trkpt>
      <trkpt lat="15.131662" lon="-92.108748">
        <ele>4032.2618443680294</ele>
        <time>2019-12-01T11:06:14Z</time>
      </trkpt>
      <trkpt lat="15.131686" lon="-92.108750">
        <ele>4033.581534212226</ele>
        <time>2019-12-01T11:06:18Z</time>
      </trkpt>
      <trkpt lat="15.131707" lon="-92.108754">
        <ele>4033.5814424321834</ele>
        <time>2019-12-01T11:06:23Z</time>
      </trkpt>
      <trkpt lat="15.131716" lon="-92.108754">
        <ele>4033.5813858989263</ele>
        <time>2019-12-01T11:06:27Z</time>
      </trkpt>
      <trkpt lat="15.131728" lon="-92.108755">
        <ele>4035.0844943390985</ele>
        <time>2019-12-01T11:06:32Z</time>
      </trkpt>
      <trkpt lat="15.131762" lon="-92.108746">
        <ele>4035.7213945423846</ele>
        <time>2019-12-01T11:06:36Z</time>
      </trkpt>
      <trkpt lat="15.131795" lon="-92.108739">
        <ele>4035.721122419921</ele>
        <time>2019-12-01T11:06:41Z</time>
      </trkpt>
      <trkpt lat="15.131804" lon="-92.108739">
        <ele>4035.721067319884</ele>
        <time>2019-12-01T11:06:45Z</time>
      </trkpt>
      <trkpt lat="15.131811" lon="-92.108740">
        <ele>4037.2615637974604</ele>
        <time>2019-12-01T11:06:49Z</time>
      </trkpt>
      <trkpt lat="15.131850" lon="-92.108754">
        <ele>4043.4467595170777</ele>
        <time>2019-12-01T11:06:53Z</time>
      </trkpt>
      <trkpt lat="15.131887" lon="-92.108766">
        <ele>4043.4466469846648</ele>
        <time>2019-12-01T11:06:57Z</time>
      </trkpt>
      <trkpt lat="15.131913" lon="-92.108778">
        <ele>4043.966874012012</ele>
        <time>2019-12-01T11:07:02Z</time>
      </trkpt>
      <trkpt lat="15.131941" lon="-92.108781">
        <ele>4045.5336191206666</ele>
        <time>2019-12-01T11:07:06Z</time>
      </trkpt>
      <trkpt lat="15.131956" lon="-92.108785">
        <ele>4046.2286351128346</ele>
        <time>2019-12-01T11:07:10Z</time>
      </trkpt>
      <trkpt lat="15.131984" lon="-92.108785">
        <ele>4048.326358670962</ele>
        <time>2019-12-01T11:07:14Z</time>
      </trkpt>
      <trkpt lat="15.132007" lon="-92.108782">
        <ele>4048.3261879002876</ele>
        <time>2019-12-01T11:07:19Z</time>
      </trkpt>
      <trkpt lat="15.132017" lon="-92.108781">
        <ele>4048.3261074696798</ele>
        <time>2019-12-01T11:07:24Z</time>
      </trkpt>
      <trkpt lat="15.132026" lon="-92.108780">
        <ele>4048.3260430913074</ele>
        <time>2019-12-01T11:07:40Z</time>
      </trkpt>
      <trkpt lat="15.132032" lon="-92.108781">
        <ele>4048.313566540601</ele>
        <time>2019-12-01T11:07:49Z</time>
      </trkpt>
      <trkpt lat="15.132044" lon="-92.108770">
        <ele>4048.4413117021495</ele>
        <time>2019-12-01T11:07:53Z</time>
      </trkpt>
      <trkpt lat="15.132050" lon="-92.108762">
        <ele>4048.441188674828</ele>
        <time>2019-12-01T11:07:58Z</time>
      </trkpt>
      <trkpt lat="15.132054" lon="-92.108756">
        <ele>4048.4411091420857</ele>
        <time>2019-12-01T11:08:06Z</time>
      </trkpt>
      <trkpt lat="15.132087" lon="-92.108709">
        <ele>4051.365481371794</ele>
        <time>2019-12-01T11:08:11Z</time>
      </trkpt>
      <trkpt lat="15.132119" lon="-92.108674">
        <ele>4052.6334700405146</ele>
        <time>2019-12-01T11:08:15Z</time>
      </trkpt>
      <trkpt lat="15.132128" lon="-92.108656">
        <ele>4052.6332340379035</ele>
        <time>2019-12-01T11:08:19Z</time>
      </trkpt>
      <trkpt lat="15.132133" lon="-92.108642">
        <ele>4052.6330609969405</ele>
        <time>2019-12-01T11:08:24Z</time>
      </trkpt>
      <trkpt lat="15.132137" lon="-92.108634">
        <ele>4052.6329581500218</ele>
        <time>2019-12-01T11:08:31Z</time>
      </trkpt>
      <trkpt lat="15.132138" lon="-92.108627">
        <ele>4052.6328800485526</ele>
        <time>2019-12-01T11:09:12Z</time>
      </trkpt>
      <trkpt lat="15.132145" lon="-92.108614">
        <ele>4055.92616687799</ele>
        <time>2019-12-01T11:09:16Z</time>
      </trkpt>
      <trkpt lat="15.132151" lon="-92.108604">
        <ele>4056.4091724246646</ele>
        <time>2019-12-01T11:09:20Z</time>
      </trkpt>
      <trkpt lat="15.132153" lon="-92.108597">
        <ele>4056.4090933097937</ele>
        <time>2019-12-01T11:10:03Z</time>
      </trkpt>
      <trkpt lat="15.132155" lon="-92.108549">
        <ele>4059.380026934724</ele>
        <time>2019-12-01T11:10:08Z</time>
      </trkpt>
      <trkpt lat="15.132173" lon="-92.108488">
        <ele>4065.086577350447</ele>
        <time>2019-12-01T11:10:12Z</time>
      </trkpt>
      <trkpt lat="15.132205" lon="-92.108452">
        <ele>4069.189042905372</ele>
        <time>2019-12-01T11:10:16Z</time>
      </trkpt>
      <trkpt lat="15.132231" lon="-92.108436">
        <ele>4069.678458671207</ele>
        <time>2019-12-01T11:10:21Z</time>
      </trkpt>
      <trkpt lat="15.132241" lon="-92.108429">
        <ele>4069.678321277494</ele>
        <time>2019-12-01T11:10:25Z</time>
      </trkpt>
      <trkpt lat="15.132248" lon="-92.108424">
        <ele>4069.678236868189</ele>
        <time>2019-12-01T11:10:32Z</time>
      </trkpt>
      <trkpt lat="15.132265" lon="-92.108413">
        <ele>4070.62211114752</ele>
        <time>2019-12-01T11:10:37Z</time>
      </trkpt>
      <trkpt lat="15.132279" lon="-92.108409">
        <ele>4070.6219747124665</ele>
        <time>2019-12-01T11:10:42Z</time>
      </trkpt>
      <trkpt lat="15.132302" lon="-92.108406">
        <ele>4071.5549082538546</ele>
        <time>2019-12-01T11:10:47Z</time>
      </trkpt>
      <trkpt lat="15.132320" lon="-92.108410">
        <ele>4071.554841156479</ele>
        <time>2019-12-01T11:10:51Z</time>
      </trkpt>
      <trkpt lat="15.132331" lon="-92.108409">
        <ele>4071.960769378563</ele>
        <time>2019-12-01T11:10:55Z</time>
      </trkpt>
      <trkpt lat="15.132344" lon="-92.108420">
        <ele>4073.1963937962137</ele>
        <time>2019-12-01T11:10:59Z</time>
      </trkpt>
      <trkpt lat="15.132352" lon="-92.108433">
        <ele>4073.1964765310154</ele>
        <time>2019-12-01T11:11:04Z</time>
      </trkpt>
      <trkpt lat="15.132359" lon="-92.108437">
        <ele>4074.3868944376636</ele>
        <time>2019-12-01T11:11:08Z</time>
      </trkpt>
      <trkpt lat="15.132371" lon="-92.108441">
        <ele>4074.669088873518</ele>
        <time>2019-12-01T11:11:13Z</time>
      </trkpt>
      <trkpt lat="15.132379" lon="-92.108443">
        <ele>4074.669060767387</ele>
        <time>2019-12-01T11:11:20Z</time>
      </trkpt>
      <trkpt lat="15.132386" lon="-92.108444">
        <ele>4076.5677028327545</ele>
        <time>2019-12-01T11:11:26Z</time>
      </trkpt>
      <trkpt lat="15.132402" lon="-92.108454">
        <ele>4077.3733750098468</ele>
        <time>2019-12-01T11:11:30Z</time>
      </trkpt>
      <trkpt lat="15.132415" lon="-92.108460">
        <ele>4077.3733525926687</ele>
        <time>2019-12-01T11:11:35Z</time>
      </trkpt>
      <trkpt lat="15.132419" lon="-92.108461">
        <ele>4078.8154715170626</ele>
        <time>2019-12-01T11:11:50Z</time>
      </trkpt>
      <trkpt lat="15.132428" lon="-92.108460">
        <ele>4079.6391442649656</ele>
        <time>2019-12-01T11:12:17Z</time>
      </trkpt>
      <trkpt lat="15.132435" lon="-92.108464">
        <ele>4079.6930978193686</ele>
        <time>2019-12-01T11:12:25Z</time>
      </trkpt>
      <trkpt lat="15.132446" lon="-92.108470">
        <ele>4079.693088907485</ele>
        <time>2019-12-01T11:12:30Z</time>
      </trkpt>
      <trkpt lat="15.132446" lon="-92.108470">
        <ele>4079.693088907485</ele>
        <time>2019-12-01T11:12:54Z</time>
      </trkpt>
      <trkpt lat="15.132446" lon="-92.108470">
        <ele>4079.693088907485</ele>
        <time>2019-12-01T11:12:55Z</time>
      </trkpt>
      <trkpt lat="15.132418" lon="-92.108396">
        <ele>4091.488428573629</ele>
        <time>2019-12-01T12:50:04Z</time>
      </trkpt>
      <trkpt lat="15.132463" lon="-92.108418">
        <ele>4092.538570643852</ele>
        <time>2019-12-01T12:50:08Z</time>
      </trkpt>
      <trkpt lat="15.132478" lon="-92.108402">
        <ele>4089.900935444806</ele>
        <time>2019-12-01T12:50:13Z</time>
      </trkpt>
      <trkpt lat="15.132472" lon="-92.108402">
        <ele>4089.9825126377646</ele>
        <time>2019-12-01T12:50:50Z</time>
      </trkpt>
      <trkpt lat="15.132447" lon="-92.108393">
        <ele>4088.1398031205836</ele>
        <time>2019-12-01T12:50:55Z</time>
      </trkpt>
      <trkpt lat="15.132425" lon="-92.108372">
        <ele>4088.1509635608345</ele>
        <time>2019-12-01T12:50:59Z</time>
      </trkpt>
      <trkpt lat="15.132398" lon="-92.108360">
        <ele>4087.861708991186</ele>
        <time>2019-12-01T12:51:03Z</time>
      </trkpt>
      <trkpt lat="15.132384" lon="-92.108359">
        <ele>4087.8617808412487</ele>
        <time>2019-12-01T12:51:07Z</time>
      </trkpt>
      <trkpt lat="15.132378" lon="-92.108360">
        <ele>4087.767100867933</ele>
        <time>2019-12-01T12:51:17Z</time>
      </trkpt>
      <trkpt lat="15.132350" lon="-92.108370">
        <ele>4086.299608473022</ele>
        <time>2019-12-01T12:51:22Z</time>
      </trkpt>
      <trkpt lat="15.132329" lon="-92.108375">
        <ele>4086.2248440653907</ele>
        <time>2019-12-01T12:51:26Z</time>
      </trkpt>
      <trkpt lat="15.132306" lon="-92.108383">
        <ele>4086.010951572183</ele>
        <time>2019-12-01T12:51:31Z</time>
      </trkpt>
      <trkpt lat="15.132298" lon="-92.108387">
        <ele>4086.0110407859456</ele>
        <time>2019-12-01T12:51:35Z</time>
      </trkpt>
      <trkpt lat="15.132293" lon="-92.108395">
        <ele>4086.2145280104505</ele>
        <time>2019-12-01T12:51:39Z</time>
      </trkpt>
      <trkpt lat="15.132289" lon="-92.108403">
        <ele>4086.214633218138</ele>
        <time>2019-12-01T12:51:44Z</time>
      </trkpt>
      <trkpt lat="15.132285" lon="-92.108409">
        <ele>4086.084835049367</ele>
        <time>2019-12-01T12:51:56Z</time>
      </trkpt>
      <trkpt lat="15.132275" lon="-92.108416">
        <ele>4085.3596246742095</ele>
        <time>2019-12-01T12:52:00Z</time>
      </trkpt>
      <trkpt lat="15.132268" lon="-92.108421">
        <ele>4085.3597169192644</ele>
        <time>2019-12-01T12:52:04Z</time>
      </trkpt>
      <trkpt lat="15.132261" lon="-92.108426">
        <ele>4085.3598153145867</ele>
        <time>2019-12-01T12:52:26Z</time>
      </trkpt>
      <trkpt lat="15.132256" lon="-92.108429">
        <ele>4084.639896811575</ele>
        <time>2019-12-01T12:52:36Z</time>
      </trkpt>
      <trkpt lat="15.132237" lon="-92.108458">
        <ele>4084.358088395536</ele>
        <time>2019-12-01T12:52:40Z</time>
      </trkpt>
      <trkpt lat="15.132211" lon="-92.108487">
        <ele>4084.3585439567755</ele>
        <time>2019-12-01T12:52:44Z</time>
      </trkpt>
      <trkpt lat="15.132190" lon="-92.108502">
        <ele>4084.3588302933504</ele>
        <time>2019-12-01T12:52:49Z</time>
      </trkpt>
      <trkpt lat="15.132186" lon="-92.108510">
        <ele>4084.3589427813176</ele>
        <time>2019-12-01T12:52:53Z</time>
      </trkpt>
      <trkpt lat="15.132182" lon="-92.108530">
        <ele>4082.3240097215275</ele>
        <time>2019-12-01T12:52:57Z</time>
      </trkpt>
      <trkpt lat="15.132180" lon="-92.108548">
        <ele>4081.2192200831164</ele>
        <time>2019-12-01T12:53:01Z</time>
      </trkpt>
      <trkpt lat="15.132174" lon="-92.108577">
        <ele>4079.388247586913</ele>
        <time>2019-12-01T12:53:06Z</time>
      </trkpt>
      <trkpt lat="15.132173" lon="-92.108584">
        <ele>4079.3883336725385</ele>
        <time>2019-12-01T12:53:11Z</time>
      </trkpt>
      <trkpt lat="15.132163" lon="-92.108614">
        <ele>4077.609155937729</ele>
        <time>2019-12-01T12:53:16Z</time>
      </trkpt>
      <trkpt lat="15.132154" lon="-92.108634">
        <ele>4075.4231303234224</ele>
        <time>2019-12-01T12:53:20Z</time>
      </trkpt>
      <trkpt lat="15.132142" lon="-92.108651">
        <ele>4073.1997471420277</ele>
        <time>2019-12-01T12:53:24Z</time>
      </trkpt>
      <trkpt lat="15.132138" lon="-92.108668">
        <ele>4072.6545386060907</ele>
        <time>2019-12-01T12:53:29Z</time>
      </trkpt>
      <trkpt lat="15.132137" lon="-92.108672">
        <ele>4072.279096822655</ele>
        <time>2019-12-01T12:54:07Z</time>
      </trkpt>
      <trkpt lat="15.132116" lon="-92.108686">
        <ele>4070.955387778832</ele>
        <time>2019-12-01T12:54:12Z</time>
      </trkpt>
      <trkpt lat="15.132107" lon="-92.108685">
        <ele>4070.955437395656</ele>
        <time>2019-12-01T12:54:17Z</time>
      </trkpt>
      <trkpt lat="15.132100" lon="-92.108689">
        <ele>4070.2731481671026</ele>
        <time>2019-12-01T12:54:30Z</time>
      </trkpt>
      <trkpt lat="15.132079" lon="-92.108702">
        <ele>4067.4931388672617</ele>
        <time>2019-12-01T12:54:35Z</time>
      </trkpt>
      <trkpt lat="15.132067" lon="-92.108710">
        <ele>4066.3519422945924</ele>
        <time>2019-12-01T12:54:39Z</time>
      </trkpt>
      <trkpt lat="15.132047" lon="-92.108718">
        <ele>4065.4246520867437</ele>
        <time>2019-12-01T12:54:44Z</time>
      </trkpt>
      <trkpt lat="15.132038" lon="-92.108722">
        <ele>4065.42474660539</ele>
        <time>2019-12-01T12:54:48Z</time>
      </trkpt>
      <trkpt lat="15.132021" lon="-92.108730">
        <ele>4064.826550202595</ele>
        <time>2019-12-01T12:54:53Z</time>
      </trkpt>
      <trkpt lat="15.132011" lon="-92.108737">
        <ele>4064.8266807132354</ele>
        <time>2019-12-01T12:54:57Z</time>
      </trkpt>
      <trkpt lat="15.132003" lon="-92.108741">
        <ele>4064.826773161209</ele>
        <time>2019-12-01T12:55:03Z</time>
      </trkpt>
      <trkpt lat="15.131980" lon="-92.108741">
        <ele>4063.799823954331</ele>
        <time>2019-12-01T12:55:08Z</time>
      </trkpt>
      <trkpt lat="15.131972" lon="-92.108742">
        <ele>4063.7998763488326</ele>
        <time>2019-12-01T12:55:12Z</time>
      </trkpt>
      <trkpt lat="15.131965" lon="-92.108741">
        <ele>4063.519885276162</ele>
        <time>2019-12-01T12:55:16Z</time>
      </trkpt>
      <trkpt lat="15.131906" lon="-92.108742">
        <ele>4062.442136663138</ele>
        <time>2019-12-01T12:55:20Z</time>
      </trkpt>
      <trkpt lat="15.131876" lon="-92.108741">
        <ele>4059.8041290700316</ele>
        <time>2019-12-01T12:55:24Z</time>
      </trkpt>
      <trkpt lat="15.131846" lon="-92.108739">
        <ele>4058.783546895296</ele>
        <time>2019-12-01T12:55:29Z</time>
      </trkpt>
      <trkpt lat="15.131823" lon="-92.108744">
        <ele>4056.8318424154336</ele>
        <time>2019-12-01T12:55:33Z</time>
      </trkpt>
      <trkpt lat="15.131799" lon="-92.108749">
        <ele>4056.4541088499354</ele>
        <time>2019-12-01T12:55:38Z</time>
      </trkpt>
      <trkpt lat="15.131781" lon="-92.108748">
        <ele>4055.8411710621263</ele>
        <time>2019-12-01T12:55:42Z</time>
      </trkpt>
      <trkpt lat="15.131762" lon="-92.108744">
        <ele>4054.5551210544763</ele>
        <time>2019-12-01T12:55:47Z</time>
      </trkpt>
      <trkpt lat="15.131732" lon="-92.108741">
        <ele>4053.012792433136</ele>
        <time>2019-12-01T12:55:52Z</time>
      </trkpt>
      <trkpt lat="15.131715" lon="-92.108743">
        <ele>4053.012922173177</ele>
        <time>2019-12-01T12:55:56Z</time>
      </trkpt>
      <trkpt lat="15.131704" lon="-92.108745">
        <ele>4053.013011494116</ele>
        <time>2019-12-01T12:56:01Z</time>
      </trkpt>
      <trkpt lat="15.131692" lon="-92.108745">
        <ele>4053.2640583396883</ele>
        <time>2019-12-01T12:56:05Z</time>
      </trkpt>
      <trkpt lat="15.131672" lon="-92.108756">
        <ele>4053.0394467573287</ele>
        <time>2019-12-01T12:56:10Z</time>
      </trkpt>
      <trkpt lat="15.131664" lon="-92.108761">
        <ele>4053.0395485734834</ele>
        <time>2019-12-01T12:56:14Z</time>
      </trkpt>
      <trkpt lat="15.131657" lon="-92.108766">
        <ele>4053.0396444903686</ele>
        <time>2019-12-01T12:56:24Z</time>
      </trkpt>
      <trkpt lat="15.131652" lon="-92.108769">
        <ele>4052.4982027978494</ele>
        <time>2019-12-01T12:57:14Z</time>
      </trkpt>
      <trkpt lat="15.131620" lon="-92.108767">
        <ele>4051.537200431866</ele>
        <time>2019-12-01T12:57:19Z</time>
      </trkpt>
      <trkpt lat="15.131607" lon="-92.108767">
        <ele>4051.5372731982193</ele>
        <time>2019-12-01T12:57:23Z</time>
      </trkpt>
      <trkpt lat="15.131600" lon="-92.108766">
        <ele>4050.7055220855414</ele>
        <time>2019-12-01T12:57:27Z</time>
      </trkpt>
      <trkpt lat="15.131583" lon="-92.108769">
        <ele>4049.2093185665003</ele>
        <time>2019-12-01T12:57:31Z</time>
      </trkpt>
      <trkpt lat="15.131566" lon="-92.108768">
        <ele>4048.2331052719674</ele>
        <time>2019-12-01T12:57:36Z</time>
      </trkpt>
      <trkpt lat="15.131542" lon="-92.108755">
        <ele>4046.821255353988</ele>
        <time>2019-12-01T12:57:40Z</time>
      </trkpt>
      <trkpt lat="15.131510" lon="-92.108747">
        <ele>4044.291592634029</ele>
        <time>2019-12-01T12:57:45Z</time>
      </trkpt>
      <trkpt lat="15.131482" lon="-92.108736">
        <ele>4042.5665556362214</ele>
        <time>2019-12-01T12:57:49Z</time>
      </trkpt>
      <trkpt lat="15.131442" lon="-92.108736">
        <ele>4042.0931708373673</ele>
        <time>2019-12-01T12:57:54Z</time>
      </trkpt>
      <trkpt lat="15.131422" lon="-92.108742">
        <ele>4041.9703129610193</ele>
        <time>2019-12-01T12:57:58Z</time>
      </trkpt>
      <trkpt lat="15.131411" lon="-92.108748">
        <ele>4041.633775388221</ele>
        <time>2019-12-01T12:58:03Z</time>
      </trkpt>
      <trkpt lat="15.131388" lon="-92.108767">
        <ele>4040.1890404497385</ele>
        <time>2019-12-01T12:58:08Z</time>
      </trkpt>
      <trkpt lat="15.131363" lon="-92.108787">
        <ele>4038.9745520629713</ele>
        <time>2019-12-01T12:58:12Z</time>
      </trkpt>
      <trkpt lat="15.131351" lon="-92.108792">
        <ele>4036.8030515123414</ele>
        <time>2019-12-01T12:58:16Z</time>
      </trkpt>
      <trkpt lat="15.131336" lon="-92.108787">
        <ele>4035.0560215108762</ele>
        <time>2019-12-01T12:58:21Z</time>
      </trkpt>
      <trkpt lat="15.131328" lon="-92.108783">
        <ele>4035.056037177382</ele>
        <time>2019-12-01T12:58:25Z</time>
      </trkpt>
      <trkpt lat="15.131318" lon="-92.108786">
        <ele>4034.459935862021</ele>
        <time>2019-12-01T12:58:30Z</time>
      </trkpt>
      <trkpt lat="15.131312" lon="-92.108789">
        <ele>4034.292521872483</ele>
        <time>2019-12-01T12:58:44Z</time>
      </trkpt>
      <trkpt lat="15.131291" lon="-92.108814">
        <ele>4033.489926653302</ele>
        <time>2019-12-01T12:58:48Z</time>
      </trkpt>
      <trkpt lat="15.131286" lon="-92.108818">
        <ele>4032.9736474062624</ele>
        <time>2019-12-01T12:58:54Z</time>
      </trkpt>
      <trkpt lat="15.131258" lon="-92.108845">
        <ele>4031.5136440689857</ele>
        <time>2019-12-01T12:58:58Z</time>
      </trkpt>
      <trkpt lat="15.131248" lon="-92.108858">
        <ele>4031.0023527171925</ele>
        <time>2019-12-01T12:59:02Z</time>
      </trkpt>
      <trkpt lat="15.131240" lon="-92.108865">
        <ele>4030.927530299167</ele>
        <time>2019-12-01T12:59:06Z</time>
      </trkpt>
      <trkpt lat="15.131233" lon="-92.108870">
        <ele>4030.9276253080534</ele>
        <time>2019-12-01T12:59:10Z</time>
      </trkpt>
      <trkpt lat="15.131226" lon="-92.108875">
        <ele>4030.927718805839</ele>
        <time>2019-12-01T12:59:16Z</time>
      </trkpt>
      <trkpt lat="15.131219" lon="-92.108880">
        <ele>4030.109214394082</ele>
        <time>2019-12-01T12:59:26Z</time>
      </trkpt>
      <trkpt lat="15.131213" lon="-92.108875">
        <ele>4028.9585555339913</ele>
        <time>2019-12-01T13:00:04Z</time>
      </trkpt>
      <trkpt lat="15.131132" lon="-92.108896">
        <ele>4026.487846430202</ele>
        <time>2019-12-01T13:00:09Z</time>
      </trkpt>
      <trkpt lat="15.131116" lon="-92.108904">
        <ele>4026.4880264565454</ele>
        <time>2019-12-01T13:00:14Z</time>
      </trkpt>
      <trkpt lat="15.131105" lon="-92.108908">
        <ele>4026.488127682412</ele>
        <time>2019-12-01T13:00:18Z</time>
      </trkpt>
      <trkpt lat="15.131093" lon="-92.108905">
        <ele>4026.0274851295944</ele>
        <time>2019-12-01T13:00:23Z</time>
      </trkpt>
      <trkpt lat="15.131078" lon="-92.108901">
        <ele>4026.027535119541</ele>
        <time>2019-12-01T13:00:27Z</time>
      </trkpt>
      <trkpt lat="15.131068" lon="-92.108900">
        <ele>4026.0275896227527</ele>
        <time>2019-12-01T13:00:32Z</time>
      </trkpt>
      <trkpt lat="15.131059" lon="-92.108898">
        <ele>4026.0276323841713</ele>
        <time>2019-12-01T13:00:41Z</time>
      </trkpt>
      <trkpt lat="15.131052" lon="-92.108895">
        <ele>4026.0703595658583</ele>
        <time>2019-12-01T13:00:59Z</time>
      </trkpt>
      <trkpt lat="15.131031" lon="-92.108870">
        <ele>4027.8165811206813</ele>
        <time>2019-12-01T13:01:03Z</time>
      </trkpt>
      <trkpt lat="15.130974" lon="-92.108806">
        <ele>4027.8162883382925</ele>
        <time>2019-12-01T13:01:07Z</time>
      </trkpt>
      <trkpt lat="15.130934" lon="-92.108764">
        <ele>4026.876667928364</ele>
        <time>2019-12-01T13:01:11Z</time>
      </trkpt>
      <trkpt lat="15.130901" lon="-92.108761">
        <ele>4025.0301673395</ele>
        <time>2019-12-01T13:01:16Z</time>
      </trkpt>
      <trkpt lat="15.130881" lon="-92.108778">
        <ele>4022.302927573595</ele>
        <time>2019-12-01T13:01:21Z</time>
      </trkpt>
      <trkpt lat="15.130858" lon="-92.108797">
        <ele>4019.816195048159</ele>
        <time>2019-12-01T13:01:25Z</time>
      </trkpt>
      <trkpt lat="15.130849" lon="-92.108807">
        <ele>4019.81635314103</ele>
        <time>2019-12-01T13:01:29Z</time>
      </trkpt>
      <trkpt lat="15.130837" lon="-92.108820">
        <ele>4017.2721237674004</ele>
        <time>2019-12-01T13:01:33Z</time>
      </trkpt>
      <trkpt lat="15.130815" lon="-92.108838">
        <ele>4016.4909527144496</ele>
        <time>2019-12-01T13:01:38Z</time>
      </trkpt>
      <trkpt lat="15.130807" lon="-92.108845">
        <ele>4016.4910718829215</ele>
        <time>2019-12-01T13:01:42Z</time>
      </trkpt>
      <trkpt lat="15.130801" lon="-92.108851">
        <ele>4016.491166176354</ele>
        <time>2019-12-01T13:01:47Z</time>
      </trkpt>
      <trkpt lat="15.130795" lon="-92.108856">
        <ele>4016.4912598524124</ele>
        <time>2019-12-01T13:02:42Z</time>
      </trkpt>
      <trkpt lat="15.130787" lon="-92.108854">
        <ele>4016.0181452671213</ele>
        <time>2019-12-01T13:02:57Z</time>
      </trkpt>
      <trkpt lat="15.130758" lon="-92.108811">
        <ele>4013.8770206141867</ele>
        <time>2019-12-01T13:03:01Z</time>
      </trkpt>
      <trkpt lat="15.130695" lon="-92.108724">
        <ele>4011.6277566321</ele>
        <time>2019-12-01T13:03:06Z</time>
      </trkpt>
      <trkpt lat="15.130651" lon="-92.108645">
        <ele>4007.960005579505</ele>
        <time>2019-12-01T13:03:10Z</time>
      </trkpt>
      <trkpt lat="15.130630" lon="-92.108601">
        <ele>4007.9596889935397</ele>
        <time>2019-12-01T13:03:15Z</time>
      </trkpt>
      <trkpt lat="15.130628" lon="-92.108597">
        <ele>4007.959660313101</ele>
        <time>2019-12-01T13:03:23Z</time>
      </trkpt>
      <trkpt lat="15.130619" lon="-92.108579">
        <ele>4007.959533594678</ele>
        <time>2019-12-01T13:03:28Z</time>
      </trkpt>
      <trkpt lat="15.130621" lon="-92.108571">
        <ele>4005.722866180776</ele>
        <time>2019-12-01T13:03:33Z</time>
      </trkpt>
      <trkpt lat="15.130639" lon="-92.108546">
        <ele>4003.9749479730017</ele>
        <time>2019-12-01T13:03:38Z</time>
      </trkpt>
      <trkpt lat="15.130646" lon="-92.108521">
        <ele>4002.288374119171</ele>
        <time>2019-12-01T13:03:42Z</time>
      </trkpt>
      <trkpt lat="15.130651" lon="-92.108477">
        <ele>4002.2564078863174</ele>
        <time>2019-12-01T13:03:46Z</time>
      </trkpt>
      <trkpt lat="15.130664" lon="-92.108419">
        <ele>4001.0308745969405</ele>
        <time>2019-12-01T13:03:51Z</time>
      </trkpt>
      <trkpt lat="15.130668" lon="-92.108377">
        <ele>3999.957921474202</ele>
        <time>2019-12-01T13:03:55Z</time>
      </trkpt>
      <trkpt lat="15.130671" lon="-92.108336">
        <ele>3998.6239998178644</ele>
        <time>2019-12-01T13:03:59Z</time>
      </trkpt>
      <trkpt lat="15.130672" lon="-92.108310">
        <ele>3998.623727873416</ele>
        <time>2019-12-01T13:04:03Z</time>
      </trkpt>
      <trkpt lat="15.130674" lon="-92.108295">
        <ele>3998.62356283795</ele>
        <time>2019-12-01T13:04:08Z</time>
      </trkpt>
      <trkpt lat="15.130669" lon="-92.108285">
        <ele>3996.3710514157865</ele>
        <time>2019-12-01T13:04:13Z</time>
      </trkpt>
      <trkpt lat="15.130641" lon="-92.108247">
        <ele>3993.6374424180467</ele>
        <time>2019-12-01T13:04:17Z</time>
      </trkpt>
      <trkpt lat="15.130627" lon="-92.108207">
        <ele>3993.463059029653</ele>
        <time>2019-12-01T13:04:21Z</time>
      </trkpt>
      <trkpt lat="15.130619" lon="-92.108180">
        <ele>3993.4628353562157</ele>
        <time>2019-12-01T13:04:25Z</time>
      </trkpt>
      <trkpt lat="15.130614" lon="-92.108166">
        <ele>3993.2361616115263</ele>
        <time>2019-12-01T13:04:29Z</time>
      </trkpt>
      <trkpt lat="15.130587" lon="-92.108186">
        <ele>3990.8454150996454</ele>
        <time>2019-12-01T13:04:33Z</time>
      </trkpt>
      <trkpt lat="15.130567" lon="-92.108194">
        <ele>3988.780443747541</ele>
        <time>2019-12-01T13:04:38Z</time>
      </trkpt>
      <trkpt lat="15.130560" lon="-92.108173">
        <ele>3987.3947763235333</ele>
        <time>2019-12-01T13:04:43Z</time>
      </trkpt>
      <trkpt lat="15.130555" lon="-92.108159">
        <ele>3987.3946607495263</ele>
        <time>2019-12-01T13:04:47Z</time>
      </trkpt>
      <trkpt lat="15.130551" lon="-92.108149">
        <ele>3987.394583001874</ele>
        <time>2019-12-01T13:04:51Z</time>
      </trkpt>
      <trkpt lat="15.130556" lon="-92.108111">
        <ele>3984.635869762486</ele>
        <time>2019-12-01T13:04:56Z</time>
      </trkpt>
      <trkpt lat="15.130588" lon="-92.108049">
        <ele>3983.359654475645</ele>
        <time>2019-12-01T13:05:01Z</time>
      </trkpt>
      <trkpt lat="15.130617" lon="-92.108024">
        <ele>3983.3511725881544</ele>
        <time>2019-12-01T13:05:05Z</time>
      </trkpt>
      <trkpt lat="15.130657" lon="-92.107981">
        <ele>3984.1558977990544</ele>
        <time>2019-12-01T13:05:10Z</time>
      </trkpt>
      <trkpt lat="15.130697" lon="-92.107930">
        <ele>3984.5552827958168</ele>
        <time>2019-12-01T13:05:14Z</time>
      </trkpt>
      <trkpt lat="15.130712" lon="-92.107898">
        <ele>3983.537779181881</ele>
        <time>2019-12-01T13:05:18Z</time>
      </trkpt>
      <trkpt lat="15.130716" lon="-92.107874">
        <ele>3982.933990329107</ele>
        <time>2019-12-01T13:05:22Z</time>
      </trkpt>
      <trkpt lat="15.130715" lon="-92.107850">
        <ele>3980.2591968739453</ele>
        <time>2019-12-01T13:05:27Z</time>
      </trkpt>
      <trkpt lat="15.130713" lon="-92.107818">
        <ele>3980.043304617376</ele>
        <time>2019-12-01T13:05:31Z</time>
      </trkpt>
      <trkpt lat="15.130679" lon="-92.107754">
        <ele>3979.804595805878</ele>
        <time>2019-12-01T13:05:36Z</time>
      </trkpt>
      <trkpt lat="15.130661" lon="-92.107664">
        <ele>3979.9065849131766</ele>
        <time>2019-12-01T13:05:40Z</time>
      </trkpt>
      <trkpt lat="15.130679" lon="-92.107610">
        <ele>3978.3605145049887</ele>
        <time>2019-12-01T13:05:45Z</time>
      </trkpt>
      <trkpt lat="15.130707" lon="-92.107585">
        <ele>3978.340310746902</ele>
        <time>2019-12-01T13:05:49Z</time>
      </trkpt>
      <trkpt lat="15.130749" lon="-92.107536">
        <ele>3979.4086399701027</ele>
        <time>2019-12-01T13:05:54Z</time>
      </trkpt>
      <trkpt lat="15.130776" lon="-92.107489">
        <ele>3981.115514875987</ele>
        <time>2019-12-01T13:05:58Z</time>
      </trkpt>
      <trkpt lat="15.130799" lon="-92.107454">
        <ele>3981.1199085295257</ele>
        <time>2019-12-01T13:06:02Z</time>
      </trkpt>
      <trkpt lat="15.130823" lon="-92.107427">
        <ele>3980.324811489416</ele>
        <time>2019-12-01T13:06:06Z</time>
      </trkpt>
      <trkpt lat="15.130845" lon="-92.107401">
        <ele>3979.192817124922</ele>
        <time>2019-12-01T13:06:10Z</time>
      </trkpt>
      <trkpt lat="15.130865" lon="-92.107369">
        <ele>3978.6178996199556</ele>
        <time>2019-12-01T13:06:15Z</time>
      </trkpt>
      <trkpt lat="15.130874" lon="-92.107359">
        <ele>3978.07575008722</ele>
        <time>2019-12-01T13:06:19Z</time>
      </trkpt>
      <trkpt lat="15.130868" lon="-92.107366">
        <ele>3975.2509082282704</ele>
        <time>2019-12-01T13:06:23Z</time>
      </trkpt>
      <trkpt lat="15.130855" lon="-92.107371">
        <ele>3974.8035280550844</ele>
        <time>2019-12-01T13:06:27Z</time>
      </trkpt>
      <trkpt lat="15.130855" lon="-92.107371">
        <ele>3974.8779909457094</ele>
        <time>2019-12-01T13:06:33Z</time>
      </trkpt>
      <trkpt lat="15.130814" lon="-92.107369">
        <ele>3974.395078965819</ele>
        <time>2019-12-01T13:06:37Z</time>
      </trkpt>
      <trkpt lat="15.130802" lon="-92.107360">
        <ele>3974.251757733969</ele>
        <time>2019-12-01T13:06:41Z</time>
      </trkpt>
      <trkpt lat="15.130794" lon="-92.107356">
        <ele>3974.251759124818</ele>
        <time>2019-12-01T13:06:46Z</time>
      </trkpt>
      <trkpt lat="15.130800" lon="-92.107351">
        <ele>3974.031704688351</ele>
        <time>2019-12-01T13:06:52Z</time>
      </trkpt>
      <trkpt lat="15.130805" lon="-92.107350">
        <ele>3973.531171937407</ele>
        <time>2019-12-01T13:07:00Z</time>
      </trkpt>
      <trkpt lat="15.130815" lon="-92.107347">
        <ele>3973.5310779525857</ele>
        <time>2019-12-01T13:07:04Z</time>
      </trkpt>
      <trkpt lat="15.130820" lon="-92.107347">
        <ele>3972.833778516239</ele>
        <time>2019-12-01T13:09:01Z</time>
      </trkpt>
      <trkpt lat="15.130820" lon="-92.107347">
        <ele>3972.833778516239</ele>
        <time>2019-12-01T13:09:01Z</time>
      </trkpt>
      <trkpt lat="15.130903" lon="-92.107175">
        <ele>3994.561437994392</ele>
        <time>2019-12-01T14:34:53Z</time>
      </trkpt>
      <trkpt lat="15.130965" lon="-92.107374">
        <ele>3985.26482543041</ele>
        <time>2019-12-01T14:34:57Z</time>
      </trkpt>
      <trkpt lat="15.131009" lon="-92.107462">
        <ele>3964.2439180667398</ele>
        <time>2019-12-01T14:35:02Z</time>
      </trkpt>
      <trkpt lat="15.131009" lon="-92.107462">
        <ele>3964.5808321292398</ele>
        <time>2019-12-01T14:35:48Z</time>
      </trkpt>
      <trkpt lat="15.130904" lon="-92.107342">
        <ele>3964.534647323621</ele>
        <time>2019-12-01T14:35:53Z</time>
      </trkpt>
      <trkpt lat="15.130908" lon="-92.107335">
        <ele>3965.4263737174183</ele>
        <time>2019-12-01T14:36:01Z</time>
      </trkpt>
      <trkpt lat="15.130937" lon="-92.107286">
        <ele>3966.713038141924</ele>
        <time>2019-12-01T14:36:06Z</time>
      </trkpt>
      <trkpt lat="15.130949" lon="-92.107261">
        <ele>3966.699784315211</ele>
        <time>2019-12-01T14:36:10Z</time>
      </trkpt>
      <trkpt lat="15.130958" lon="-92.107241">
        <ele>3966.454643358163</ele>
        <time>2019-12-01T14:36:14Z</time>
      </trkpt>
      <trkpt lat="15.130982" lon="-92.107218">
        <ele>3966.6825358472443</ele>
        <time>2019-12-01T14:36:19Z</time>
      </trkpt>
      <trkpt lat="15.131000" lon="-92.107174">
        <ele>3966.8509255153226</ele>
        <time>2019-12-01T14:36:23Z</time>
      </trkpt>
      <trkpt lat="15.131016" lon="-92.107153">
        <ele>3967.204377130669</ele>
        <time>2019-12-01T14:36:27Z</time>
      </trkpt>
      <trkpt lat="15.131052" lon="-92.107103">
        <ele>3967.8843088717776</ele>
        <time>2019-12-01T14:36:32Z</time>
      </trkpt>
      <trkpt lat="15.131087" lon="-92.107081">
        <ele>3967.671454784367</ele>
        <time>2019-12-01T14:36:37Z</time>
      </trkpt>
      <trkpt lat="15.131135" lon="-92.107040">
        <ele>3967.0423216019244</ele>
        <time>2019-12-01T14:36:42Z</time>
      </trkpt>
      <trkpt lat="15.131188" lon="-92.106975">
        <ele>3965.4190233593345</ele>
        <time>2019-12-01T14:36:46Z</time>
      </trkpt>
      <trkpt lat="15.131237" lon="-92.106933">
        <ele>3964.0642833122365</ele>
        <time>2019-12-01T14:36:51Z</time>
      </trkpt>
      <trkpt lat="15.131268" lon="-92.106889">
        <ele>3963.6647188184807</ele>
        <time>2019-12-01T14:36:55Z</time>
      </trkpt>
      <trkpt lat="15.131298" lon="-92.106847">
        <ele>3963.773481344086</ele>
        <time>2019-12-01T14:37:00Z</time>
      </trkpt>
      <trkpt lat="15.131329" lon="-92.106829">
        <ele>3963.4779359198847</ele>
        <time>2019-12-01T14:37:04Z</time>
      </trkpt>
      <trkpt lat="15.131368" lon="-92.106821">
        <ele>3963.94002246121</ele>
        <time>2019-12-01T14:37:08Z</time>
      </trkpt>
      <trkpt lat="15.131362" lon="-92.106784">
        <ele>3963.8068650654104</ele>
        <time>2019-12-01T14:37:13Z</time>
      </trkpt>
      <trkpt lat="15.131367" lon="-92.106781">
        <ele>3965.8124251648337</ele>
        <time>2019-12-01T14:37:21Z</time>
      </trkpt>
      <trkpt lat="15.131376" lon="-92.106768">
        <ele>3967.617407923289</ele>
        <time>2019-12-01T14:37:25Z</time>
      </trkpt>
      <trkpt lat="15.131369" lon="-92.106760">
        <ele>3968.7499420321024</ele>
        <time>2019-12-01T14:37:30Z</time>
      </trkpt>
      <trkpt lat="15.131364" lon="-92.106752">
        <ele>3968.7498908066577</ele>
        <time>2019-12-01T14:37:39Z</time>
      </trkpt>
      <trkpt lat="15.131368" lon="-92.106745">
        <ele>3968.735141042522</ele>
        <time>2019-12-01T14:38:36Z</time>
      </trkpt>
      <trkpt lat="15.131385" lon="-92.106727">
        <ele>3969.1435523654163</ele>
        <time>2019-12-01T14:38:40Z</time>
      </trkpt>
      <trkpt lat="15.131411" lon="-92.106700">
        <ele>3969.143110494106</ele>
        <time>2019-12-01T14:38:45Z</time>
      </trkpt>
      <trkpt lat="15.131420" lon="-92.106689">
        <ele>3969.1429383566096</ele>
        <time>2019-12-01T14:38:49Z</time>
      </trkpt>
      <trkpt lat="15.131423" lon="-92.106685">
        <ele>3969.1428872173765</ele>
        <time>2019-12-01T14:39:17Z</time>
      </trkpt>
      <trkpt lat="15.131432" lon="-92.106677">
        <ele>3969.142746941786</ele>
        <time>2019-12-01T14:39:22Z</time>
      </trkpt>
      <trkpt lat="15.131439" lon="-92.106672">
        <ele>3972.0708708734956</ele>
        <time>2019-12-01T14:39:29Z</time>
      </trkpt>
      <trkpt lat="15.131476" lon="-92.106648">
        <ele>3972.7603418006142</ele>
        <time>2019-12-01T14:39:34Z</time>
      </trkpt>
      <trkpt lat="15.131488" lon="-92.106638">
        <ele>3972.7601601915467</ele>
        <time>2019-12-01T14:39:38Z</time>
      </trkpt>
      <trkpt lat="15.131492" lon="-92.106630">
        <ele>3972.760060335768</ele>
        <time>2019-12-01T14:40:14Z</time>
      </trkpt>
      <trkpt lat="15.131499" lon="-92.106614">
        <ele>3972.7115163192448</ele>
        <time>2019-12-01T14:40:18Z</time>
      </trkpt>
      <trkpt lat="15.131521" lon="-92.106590">
        <ele>3973.7750943144056</ele>
        <time>2019-12-01T14:40:23Z</time>
      </trkpt>
      <trkpt lat="15.131533" lon="-92.106571">
        <ele>3974.400565945347</ele>
        <time>2019-12-01T14:40:27Z</time>
      </trkpt>
      <trkpt lat="15.131545" lon="-92.106545">
        <ele>3974.6094460316976</ele>
        <time>2019-12-01T14:40:32Z</time>
      </trkpt>
      <trkpt lat="15.131550" lon="-92.106536">
        <ele>3974.6093292639034</ele>
        <time>2019-12-01T14:40:36Z</time>
      </trkpt>
      <trkpt lat="15.131554" lon="-92.106528">
        <ele>3974.609226011978</ele>
        <time>2019-12-01T14:40:56Z</time>
      </trkpt>
      <trkpt lat="15.131556" lon="-92.106525">
        <ele>3974.11235250681</ele>
        <time>2019-12-01T14:41:21Z</time>
      </trkpt>
      <trkpt lat="15.131574" lon="-92.106476">
        <ele>3973.9884546415287</ele>
        <time>2019-12-01T14:41:26Z</time>
      </trkpt>
      <trkpt lat="15.131592" lon="-92.106433">
        <ele>3973.987907667016</ele>
        <time>2019-12-01T14:41:30Z</time>
      </trkpt>
      <trkpt lat="15.131601" lon="-92.106412">
        <ele>3973.987644252753</ele>
        <time>2019-12-01T14:41:34Z</time>
      </trkpt>
      <trkpt lat="15.131604" lon="-92.106404">
        <ele>3973.987543716176</ele>
        <time>2019-12-01T14:42:01Z</time>
      </trkpt>
      <trkpt lat="15.131610" lon="-92.106393">
        <ele>3973.9873928402094</ele>
        <time>2019-12-01T14:42:06Z</time>
      </trkpt>
      <trkpt lat="15.131611" lon="-92.106392">
        <ele>3970.9636895997087</ele>
        <time>2019-12-01T14:42:41Z</time>
      </trkpt>
      <trkpt lat="15.131626" lon="-92.106359">
        <ele>3970.963256455731</ele>
        <time>2019-12-01T14:42:46Z</time>
      </trkpt>
      <trkpt lat="15.131628" lon="-92.106351">
        <ele>3969.5996419689486</ele>
        <time>2019-12-01T14:42:54Z</time>
      </trkpt>
      <trkpt lat="15.131634" lon="-92.106324">
        <ele>3968.229216404152</ele>
        <time>2019-12-01T14:42:58Z</time>
      </trkpt>
      <trkpt lat="15.131634" lon="-92.106278">
        <ele>3968.4467681481574</ele>
        <time>2019-12-01T14:43:03Z</time>
      </trkpt>
      <trkpt lat="15.131638" lon="-92.106231">
        <ele>3968.4462644598807</ele>
        <time>2019-12-01T14:43:08Z</time>
      </trkpt>
      <trkpt lat="15.131642" lon="-92.106216">
        <ele>3968.446094396564</ele>
        <time>2019-12-01T14:43:12Z</time>
      </trkpt>
      <trkpt lat="15.131644" lon="-92.106208">
        <ele>3968.445995465609</ele>
        <time>2019-12-01T14:43:17Z</time>
      </trkpt>
      <trkpt lat="15.131647" lon="-92.106200">
        <ele>3968.629003245748</ele>
        <time>2019-12-01T14:43:27Z</time>
      </trkpt>
      <trkpt lat="15.131665" lon="-92.106182">
        <ele>3967.951463565784</ele>
        <time>2019-12-01T14:43:31Z</time>
      </trkpt>
      <trkpt lat="15.131681" lon="-92.106164">
        <ele>3967.9511875535113</ele>
        <time>2019-12-01T14:43:36Z</time>
      </trkpt>
      <trkpt lat="15.131686" lon="-92.106157">
        <ele>3967.9510818674094</ele>
        <time>2019-12-01T14:43:41Z</time>
      </trkpt>
      <trkpt lat="15.131691" lon="-92.106150">
        <ele>3967.558644430373</ele>
        <time>2019-12-01T14:44:31Z</time>
      </trkpt>
      <trkpt lat="15.131703" lon="-92.106124">
        <ele>3963.8932674676194</ele>
        <time>2019-12-01T14:44:36Z</time>
      </trkpt>
      <trkpt lat="15.131721" lon="-92.106089">
        <ele>3963.4487015980835</ele>
        <time>2019-12-01T14:44:40Z</time>
      </trkpt>
      <trkpt lat="15.131732" lon="-92.106062">
        <ele>3962.150025079932</ele>
        <time>2019-12-01T14:44:44Z</time>
      </trkpt>
      <trkpt lat="15.131758" lon="-92.106005">
        <ele>3962.149282205567</ele>
        <time>2019-12-01T14:44:49Z</time>
      </trkpt>
      <trkpt lat="15.131766" lon="-92.105984">
        <ele>3962.1490196224304</ele>
        <time>2019-12-01T14:44:53Z</time>
      </trkpt>
      <trkpt lat="15.131773" lon="-92.105966">
        <ele>3961.5103648493964</ele>
        <time>2019-12-01T14:44:58Z</time>
      </trkpt>
      <trkpt lat="15.131784" lon="-92.105922">
        <ele>3959.059665647136</ele>
        <time>2019-12-01T14:45:02Z</time>
      </trkpt>
      <trkpt lat="15.131805" lon="-92.105843">
        <ele>3959.0587271859226</ele>
        <time>2019-12-01T14:45:06Z</time>
      </trkpt>
      <trkpt lat="15.131820" lon="-92.105802">
        <ele>3957.4732586361665</ele>
        <time>2019-12-01T14:45:11Z</time>
      </trkpt>
      <trkpt lat="15.131838" lon="-92.105767">
        <ele>3956.39955005564</ele>
        <time>2019-12-01T14:45:16Z</time>
      </trkpt>
      <trkpt lat="15.131851" lon="-92.105745">
        <ele>3955.63557140966</ele>
        <time>2019-12-01T14:45:21Z</time>
      </trkpt>
      <trkpt lat="15.131865" lon="-92.105730">
        <ele>3954.0628244890518</ele>
        <time>2019-12-01T14:45:25Z</time>
      </trkpt>
      <trkpt lat="15.131906" lon="-92.105671">
        <ele>3953.967244271033</ele>
        <time>2019-12-01T14:45:29Z</time>
      </trkpt>
      <trkpt lat="15.131928" lon="-92.105640">
        <ele>3953.525624190414</ele>
        <time>2019-12-01T14:45:33Z</time>
      </trkpt>
      <trkpt lat="15.131947" lon="-92.105614">
        <ele>3952.1614734106315</ele>
        <time>2019-12-01T14:45:37Z</time>
      </trkpt>
      <trkpt lat="15.131972" lon="-92.105572">
        <ele>3951.112546149787</ele>
        <time>2019-12-01T14:45:42Z</time>
      </trkpt>
      <trkpt lat="15.131996" lon="-92.105542">
        <ele>3950.026163088353</ele>
        <time>2019-12-01T14:45:46Z</time>
      </trkpt>
      <trkpt lat="15.132016" lon="-92.105517">
        <ele>3950.02577802179</ele>
        <time>2019-12-01T14:45:50Z</time>
      </trkpt>
      <trkpt lat="15.132029" lon="-92.105502">
        <ele>3950.0255527361014</ele>
        <time>2019-12-01T14:45:55Z</time>
      </trkpt>
      <trkpt lat="15.132048" lon="-92.105487">
        <ele>3949.6951926094794</ele>
        <time>2019-12-01T14:46:00Z</time>
      </trkpt>
      <trkpt lat="15.132060" lon="-92.105477">
        <ele>3949.6950209579204</ele>
        <time>2019-12-01T14:46:04Z</time>
      </trkpt>
      <trkpt lat="15.132069" lon="-92.105472">
        <ele>3949.694915588281</ele>
        <time>2019-12-01T14:46:09Z</time>
      </trkpt>
      <trkpt lat="15.132075" lon="-92.105466">
        <ele>3949.6948132978832</ele>
        <time>2019-12-01T14:46:20Z</time>
      </trkpt>
      <trkpt lat="15.132078" lon="-92.105464">
        <ele>3943.03534975377</ele>
        <time>2019-12-01T14:48:19Z</time>
      </trkpt>
      <trkpt lat="15.132103" lon="-92.105394">
        <ele>3943.034482817294</ele>
        <time>2019-12-01T14:48:24Z</time>
      </trkpt>
      <trkpt lat="15.132108" lon="-92.105389">
        <ele>3941.6284003763203</ele>
        <time>2019-12-01T14:48:38Z</time>
      </trkpt>
      <trkpt lat="15.132123" lon="-92.105385">
        <ele>3941.628254538575</ele>
        <time>2019-12-01T14:48:42Z</time>
      </trkpt>
      <trkpt lat="15.132156" lon="-92.105365">
        <ele>3939.5536367286672</ele>
        <time>2019-12-01T14:48:47Z</time>
      </trkpt>
      <trkpt lat="15.132197" lon="-92.105353">
        <ele>3939.349640621034</ele>
        <time>2019-12-01T14:48:51Z</time>
      </trkpt>
      <trkpt lat="15.132223" lon="-92.105345">
        <ele>3939.349391808861</ele>
        <time>2019-12-01T14:48:55Z</time>
      </trkpt>
      <trkpt lat="15.132237" lon="-92.105336">
        <ele>3938.6775864380056</ele>
        <time>2019-12-01T14:49:00Z</time>
      </trkpt>
      <trkpt lat="15.132261" lon="-92.105316">
        <ele>3937.719214548977</ele>
        <time>2019-12-01T14:49:04Z</time>
      </trkpt>
      <trkpt lat="15.132294" lon="-92.105293">
        <ele>3938.0246921175676</ele>
        <time>2019-12-01T14:49:08Z</time>
      </trkpt>
      <trkpt lat="15.132329" lon="-92.105271">
        <ele>3938.024243478461</ele>
        <time>2019-12-01T14:49:12Z</time>
      </trkpt>
      <trkpt lat="15.132342" lon="-92.105263">
        <ele>3938.0240870441353</ele>
        <time>2019-12-01T14:49:16Z</time>
      </trkpt>
      <trkpt lat="15.132349" lon="-92.105259">
        <ele>3938.023995897625</ele>
        <time>2019-12-01T14:49:24Z</time>
      </trkpt>
      <trkpt lat="15.132352" lon="-92.105253">
        <ele>3937.9872983070527</ele>
        <time>2019-12-01T14:49:31Z</time>
      </trkpt>
      <trkpt lat="15.132365" lon="-92.105233">
        <ele>3940.2401804647056</ele>
        <time>2019-12-01T14:49:36Z</time>
      </trkpt>
      <trkpt lat="15.132387" lon="-92.105204">
        <ele>3940.1765221376463</ele>
        <time>2019-12-01T14:49:40Z</time>
      </trkpt>
      <trkpt lat="15.132401" lon="-92.105179">
        <ele>3939.0150463253167</ele>
        <time>2019-12-01T14:49:44Z</time>
      </trkpt>
      <trkpt lat="15.132419" lon="-92.105142">
        <ele>3935.7460046900433</ele>
        <time>2019-12-01T14:49:49Z</time>
      </trkpt>
      <trkpt lat="15.132444" lon="-92.105099">
        <ele>3933.5684127770483</ele>
        <time>2019-12-01T14:49:53Z</time>
      </trkpt>
      <trkpt lat="15.132487" lon="-92.105041">
        <ele>3929.5514358719233</ele>
        <time>2019-12-01T14:49:58Z</time>
      </trkpt>
      <trkpt lat="15.132544" lon="-92.104992">
        <ele>3926.7212335014483</ele>
        <time>2019-12-01T14:50:03Z</time>
      </trkpt>
      <trkpt lat="15.132582" lon="-92.104962">
        <ele>3923.865223801527</ele>
        <time>2019-12-01T14:50:07Z</time>
      </trkpt>
      <trkpt lat="15.132603" lon="-92.104945">
        <ele>3923.8649131860993</ele>
        <time>2019-12-01T14:50:11Z</time>
      </trkpt>
      <trkpt lat="15.132614" lon="-92.104935">
        <ele>3923.8647496542867</ele>
        <time>2019-12-01T14:50:15Z</time>
      </trkpt>
      <trkpt lat="15.132620" lon="-92.104929">
        <ele>3923.86465168357</ele>
        <time>2019-12-01T14:50:19Z</time>
      </trkpt>
      <trkpt lat="15.132626" lon="-92.104931">
        <ele>3923.262823578485</ele>
        <time>2019-12-01T14:50:25Z</time>
      </trkpt>
      <trkpt lat="15.132643" lon="-92.104935">
        <ele>3922.7507913805284</ele>
        <time>2019-12-01T14:50:30Z</time>
      </trkpt>
      <trkpt lat="15.132668" lon="-92.104943">
        <ele>3922.4684892326723</ele>
        <time>2019-12-01T14:50:34Z</time>
      </trkpt>
      <trkpt lat="15.132690" lon="-92.104943">
        <ele>3922.913664072654</ele>
        <time>2019-12-01T14:50:39Z</time>
      </trkpt>
      <trkpt lat="15.132706" lon="-92.104931">
        <ele>3924.2830698732846</ele>
        <time>2019-12-01T14:50:43Z</time>
      </trkpt>
      <trkpt lat="15.132724" lon="-92.104902">
        <ele>3924.9481944693766</ele>
        <time>2019-12-01T14:50:48Z</time>
      </trkpt>
      <trkpt lat="15.132752" lon="-92.104843">
        <ele>3923.347807204292</ele>
        <time>2019-12-01T14:50:52Z</time>
      </trkpt>
      <trkpt lat="15.132762" lon="-92.104812">
        <ele>3923.347434626226</ele>
        <time>2019-12-01T14:50:56Z</time>
      </trkpt>
      <trkpt lat="15.132763" lon="-92.104804">
        <ele>3921.928147612058</ele>
        <time>2019-12-01T14:51:00Z</time>
      </trkpt>
      <trkpt lat="15.132771" lon="-92.104798">
        <ele>3919.710994548033</ele>
        <time>2019-12-01T14:51:04Z</time>
      </trkpt>
      <trkpt lat="15.132792" lon="-92.104786">
        <ele>3916.9841795396983</ele>
        <time>2019-12-01T14:51:09Z</time>
      </trkpt>
      <trkpt lat="15.132814" lon="-92.104765">
        <ele>3915.854685890285</ele>
        <time>2019-12-01T14:51:14Z</time>
      </trkpt>
      <trkpt lat="15.132848" lon="-92.104742">
        <ele>3915.0116993399865</ele>
        <time>2019-12-01T14:51:18Z</time>
      </trkpt>
      <trkpt lat="15.132874" lon="-92.104737">
        <ele>3915.4763345336505</ele>
        <time>2019-12-01T14:51:22Z</time>
      </trkpt>
      <trkpt lat="15.132910" lon="-92.104734">
        <ele>3916.5346727105184</ele>
        <time>2019-12-01T14:51:26Z</time>
      </trkpt>
      <trkpt lat="15.132964" lon="-92.104723">
        <ele>3915.35550680257</ele>
        <time>2019-12-01T14:51:31Z</time>
      </trkpt>
      <trkpt lat="15.132990" lon="-92.104718">
        <ele>3914.405093204892</ele>
        <time>2019-12-01T14:51:35Z</time>
      </trkpt>
      <trkpt lat="15.133027" lon="-92.104723">
        <ele>3914.712529554912</ele>
        <time>2019-12-01T14:51:40Z</time>
      </trkpt>
      <trkpt lat="15.133042" lon="-92.104725">
        <ele>3914.5530326311496</ele>
        <time>2019-12-01T14:51:44Z</time>
      </trkpt>
      <trkpt lat="15.133060" lon="-92.104727">
        <ele>3914.80073984467</ele>
        <time>2019-12-01T14:51:49Z</time>
      </trkpt>
      <trkpt lat="15.133075" lon="-92.104738">
        <ele>3912.8737496373424</ele>
        <time>2019-12-01T14:51:53Z</time>
      </trkpt>
      <trkpt lat="15.133097" lon="-92.104755">
        <ele>3911.0617702454724</ele>
        <time>2019-12-01T14:51:57Z</time>
      </trkpt>
      <trkpt lat="15.133121" lon="-92.104765">
        <ele>3908.804397370517</ele>
        <time>2019-12-01T14:52:01Z</time>
      </trkpt>
      <trkpt lat="15.133132" lon="-92.104769">
        <ele>3908.8043757339847</ele>
        <time>2019-12-01T14:52:05Z</time>
      </trkpt>
      <trkpt lat="15.133141" lon="-92.104772">
        <ele>3908.2328085447098</ele>
        <time>2019-12-01T14:52:10Z</time>
      </trkpt>
      <trkpt lat="15.133156" lon="-92.104756">
        <ele>3905.669071798133</ele>
        <time>2019-12-01T14:52:14Z</time>
      </trkpt>
      <trkpt lat="15.133186" lon="-92.104721">
        <ele>3905.668529725694</ele>
        <time>2019-12-01T14:52:18Z</time>
      </trkpt>
      <trkpt lat="15.133205" lon="-92.104700">
        <ele>3905.6682016242758</ele>
        <time>2019-12-01T14:52:22Z</time>
      </trkpt>
      <trkpt lat="15.133213" lon="-92.104690">
        <ele>3904.629472213864</ele>
        <time>2019-12-01T14:52:26Z</time>
      </trkpt>
      <trkpt lat="15.133206" lon="-92.104671">
        <ele>3903.14421823571</ele>
        <time>2019-12-01T14:52:31Z</time>
      </trkpt>
      <trkpt lat="15.133198" lon="-92.104658">
        <ele>3901.485934835394</ele>
        <time>2019-12-01T14:52:36Z</time>
      </trkpt>
      <trkpt lat="15.133176" lon="-92.104633">
        <ele>3900.8410428703037</ele>
        <time>2019-12-01T14:52:40Z</time>
      </trkpt>
      <trkpt lat="15.133163" lon="-92.104620">
        <ele>3900.8409996866044</ele>
        <time>2019-12-01T14:52:44Z</time>
      </trkpt>
      <trkpt lat="15.133155" lon="-92.104614">
        <ele>3900.8409779981785</ele>
        <time>2019-12-01T14:52:49Z</time>
      </trkpt>
      <trkpt lat="15.133148" lon="-92.104609">
        <ele>3900.840978064276</ele>
        <time>2019-12-01T14:53:08Z</time>
      </trkpt>
      <trkpt lat="15.133136" lon="-92.104600">
        <ele>3901.516505408516</ele>
        <time>2019-12-01T14:53:13Z</time>
      </trkpt>
      <trkpt lat="15.133136" lon="-92.104594">
        <ele>3900.7351908754613</ele>
        <time>2019-12-01T14:54:47Z</time>
      </trkpt>
      <trkpt lat="15.133145" lon="-92.104547">
        <ele>3899.1199085644316</ele>
        <time>2019-12-01T14:54:51Z</time>
      </trkpt>
      <trkpt lat="15.133152" lon="-92.104510">
        <ele>3899.1194872710803</ele>
        <time>2019-12-01T14:54:56Z</time>
      </trkpt>
      <trkpt lat="15.133155" lon="-92.104495">
        <ele>3899.1193245971876</ele>
        <time>2019-12-01T14:55:01Z</time>
      </trkpt>
      <trkpt lat="15.133157" lon="-92.104487">
        <ele>3899.119224506988</ele>
        <time>2019-12-01T14:55:12Z</time>
      </trkpt>
      <trkpt lat="15.133161" lon="-92.104456">
        <ele>3897.2419317658973</ele>
        <time>2019-12-01T14:55:16Z</time>
      </trkpt>
      <trkpt lat="15.133174" lon="-92.104404">
        <ele>3897.0728676000226</ele>
        <time>2019-12-01T14:55:21Z</time>
      </trkpt>
      <trkpt lat="15.133175" lon="-92.104354">
        <ele>3891.284764828139</ele>
        <time>2019-12-01T14:55:26Z</time>
      </trkpt>
      <trkpt lat="15.133175" lon="-92.104322">
        <ele>3891.284433260543</ele>
        <time>2019-12-01T14:55:30Z</time>
      </trkpt>
      <trkpt lat="15.133175" lon="-92.104305">
        <ele>3891.2842621068935</ele>
        <time>2019-12-01T14:55:34Z</time>
      </trkpt>
      <trkpt lat="15.133174" lon="-92.104295">
        <ele>3891.2841657327776</ele>
        <time>2019-12-01T14:55:39Z</time>
      </trkpt>
      <trkpt lat="15.133173" lon="-92.104286">
        <ele>3891.284081319826</ele>
        <time>2019-12-01T14:56:21Z</time>
      </trkpt>
      <trkpt lat="15.133179" lon="-92.104263">
        <ele>3890.0333233605043</ele>
        <time>2019-12-01T14:56:25Z</time>
      </trkpt>
      <trkpt lat="15.133189" lon="-92.104224">
        <ele>3889.48232212555</ele>
        <time>2019-12-01T14:56:30Z</time>
      </trkpt>
      <trkpt lat="15.133198" lon="-92.104196">
        <ele>3889.420709024005</ele>
        <time>2019-12-01T14:56:34Z</time>
      </trkpt>
      <trkpt lat="15.133204" lon="-92.104180">
        <ele>3889.420505475873</ele>
        <time>2019-12-01T14:56:39Z</time>
      </trkpt>
      <trkpt lat="15.133205" lon="-92.104171">
        <ele>3889.420409294841</ele>
        <time>2019-12-01T14:56:45Z</time>
      </trkpt>
      <trkpt lat="15.133206" lon="-92.104165">
        <ele>3889.24309791478</ele>
        <time>2019-12-01T14:56:51Z</time>
      </trkpt>
      <trkpt lat="15.133208" lon="-92.104140">
        <ele>3887.621980133963</ele>
        <time>2019-12-01T14:56:55Z</time>
      </trkpt>
      <trkpt lat="15.133210" lon="-92.104114">
        <ele>3887.6217029687364</ele>
        <time>2019-12-01T14:56:59Z</time>
      </trkpt>
      <trkpt lat="15.133222" lon="-92.104092">
        <ele>3884.1499729607326</ele>
        <time>2019-12-01T14:57:04Z</time>
      </trkpt>
      <trkpt lat="15.133235" lon="-92.104082">
        <ele>3884.1497830835856</ele>
        <time>2019-12-01T14:57:08Z</time>
      </trkpt>
      <trkpt lat="15.133242" lon="-92.104076">
        <ele>3884.1496799463366</ele>
        <time>2019-12-01T14:57:13Z</time>
      </trkpt>
      <trkpt lat="15.133246" lon="-92.104068">
        <ele>3883.379557337647</ele>
        <time>2019-12-01T14:57:23Z</time>
      </trkpt>
      <trkpt lat="15.133247" lon="-92.104022">
        <ele>3877.3849472655224</ele>
        <time>2019-12-01T14:57:27Z</time>
      </trkpt>
      <trkpt lat="15.133225" lon="-92.103940">
        <ele>3876.425996680615</ele>
        <time>2019-12-01T14:57:31Z</time>
      </trkpt>
      <trkpt lat="15.133200" lon="-92.103907">
        <ele>3876.4258204766666</ele>
        <time>2019-12-01T14:57:35Z</time>
      </trkpt>
      <trkpt lat="15.133191" lon="-92.103880">
        <ele>3873.714179753249</ele>
        <time>2019-12-01T14:57:39Z</time>
      </trkpt>
      <trkpt lat="15.133196" lon="-92.103866">
        <ele>3866.480118979218</ele>
        <time>2019-12-01T14:57:44Z</time>
      </trkpt>
      <trkpt lat="15.133198" lon="-92.103858">
        <ele>3860.787158697908</ele>
        <time>2019-12-01T14:57:49Z</time>
      </trkpt>
      <trkpt lat="15.133207" lon="-92.103852">
        <ele>3858.0697509275774</ele>
        <time>2019-12-01T14:57:53Z</time>
      </trkpt>
      <trkpt lat="15.133217" lon="-92.103846">
        <ele>3858.0696277516518</ele>
        <time>2019-12-01T14:57:57Z</time>
      </trkpt>
      <trkpt lat="15.133224" lon="-92.103842">
        <ele>3856.367390491766</ele>
        <time>2019-12-01T14:58:05Z</time>
      </trkpt>
      <trkpt lat="15.133232" lon="-92.103836">
        <ele>3855.143168807034</ele>
        <time>2019-12-01T14:58:09Z</time>
      </trkpt>
      <trkpt lat="15.133241" lon="-92.103831">
        <ele>3855.143055546166</ele>
        <time>2019-12-01T14:58:13Z</time>
      </trkpt>
      <trkpt lat="15.133244" lon="-92.103823">
        <ele>3852.422012708684</ele>
        <time>2019-12-01T14:58:32Z</time>
      </trkpt>
      <trkpt lat="15.133250" lon="-92.103794">
        <ele>3847.595501604353</ele>
        <time>2019-12-01T14:58:36Z</time>
      </trkpt>
      <trkpt lat="15.133234" lon="-92.103745">
        <ele>3845.2115583050463</ele>
        <time>2019-12-01T14:58:41Z</time>
      </trkpt>
      <trkpt lat="15.133222" lon="-92.103730">
        <ele>3844.8545547524327</ele>
        <time>2019-12-01T14:58:45Z</time>
      </trkpt>
      <trkpt lat="15.133216" lon="-92.103723">
        <ele>3844.854525723939</ele>
        <time>2019-12-01T14:58:51Z</time>
      </trkpt>
      <trkpt lat="15.133209" lon="-92.103719">
        <ele>3843.683869152003</ele>
        <time>2019-12-01T14:59:13Z</time>
      </trkpt>
      <trkpt lat="15.133201" lon="-92.103717">
        <ele>3843.247866675369</ele>
        <time>2019-12-01T14:59:21Z</time>
      </trkpt>
      <trkpt lat="15.133196" lon="-92.103709">
        <ele>3842.5991343674923</ele>
        <time>2019-12-01T14:59:32Z</time>
      </trkpt>
      <trkpt lat="15.133196" lon="-92.103701">
        <ele>3840.7238081206892</ele>
        <time>2019-12-01T14:59:40Z</time>
      </trkpt>
      <trkpt lat="15.133193" lon="-92.103693">
        <ele>3840.7237480021645</ele>
        <time>2019-12-01T14:59:46Z</time>
      </trkpt>
      <trkpt lat="15.133194" lon="-92.103685">
        <ele>3840.396755962434</ele>
        <time>2019-12-01T15:00:34Z</time>
      </trkpt>
      <trkpt lat="15.133208" lon="-92.103641">
        <ele>3839.6135061928017</ele>
        <time>2019-12-01T15:00:39Z</time>
      </trkpt>
      <trkpt lat="15.133207" lon="-92.103622">
        <ele>3839.613324199822</ele>
        <time>2019-12-01T15:00:43Z</time>
      </trkpt>
      <trkpt lat="15.133203" lon="-92.103614">
        <ele>3839.613268270724</ele>
        <time>2019-12-01T15:00:48Z</time>
      </trkpt>
      <trkpt lat="15.133201" lon="-92.103607">
        <ele>3839.6132101726143</ele>
        <time>2019-12-01T15:00:59Z</time>
      </trkpt>
      <trkpt lat="15.133200" lon="-92.103583">
        <ele>3834.5551151409086</ele>
        <time>2019-12-01T15:01:03Z</time>
      </trkpt>
      <trkpt lat="15.133197" lon="-92.103521">
        <ele>3830.860410668459</ele>
        <time>2019-12-01T15:01:08Z</time>
      </trkpt>
      <trkpt lat="15.133200" lon="-92.103468">
        <ele>3826.4257703512067</ele>
        <time>2019-12-01T15:01:13Z</time>
      </trkpt>
      <trkpt lat="15.133203" lon="-92.103445">
        <ele>3826.4255126799617</ele>
        <time>2019-12-01T15:01:17Z</time>
      </trkpt>
      <trkpt lat="15.133204" lon="-92.103431">
        <ele>3826.42537399586</ele>
        <time>2019-12-01T15:01:22Z</time>
      </trkpt>
      <trkpt lat="15.133201" lon="-92.103417">
        <ele>3824.1215368063495</ele>
        <time>2019-12-01T15:01:27Z</time>
      </trkpt>
      <trkpt lat="15.133196" lon="-92.103406">
        <ele>3822.4295678237854</ele>
        <time>2019-12-01T15:01:31Z</time>
      </trkpt>
      <trkpt lat="15.133193" lon="-92.103398">
        <ele>3822.42950133608</ele>
        <time>2019-12-01T15:01:37Z</time>
      </trkpt>
      <trkpt lat="15.133196" lon="-92.103391">
        <ele>3822.7731662066662</ele>
        <time>2019-12-01T15:02:32Z</time>
      </trkpt>
      <trkpt lat="15.133213" lon="-92.103367">
        <ele>3823.024522489698</ele>
        <time>2019-12-01T15:02:36Z</time>
      </trkpt>
      <trkpt lat="15.133221" lon="-92.103325">
        <ele>3820.5535887701935</ele>
        <time>2019-12-01T15:02:41Z</time>
      </trkpt>
      <trkpt lat="15.133236" lon="-92.103293">
        <ele>3819.4418273069227</ele>
        <time>2019-12-01T15:02:45Z</time>
      </trkpt>
      <trkpt lat="15.133245" lon="-92.103270">
        <ele>3819.4495991128756</ele>
        <time>2019-12-01T15:02:49Z</time>
      </trkpt>
      <trkpt lat="15.133264" lon="-92.103236">
        <ele>3819.923503065341</ele>
        <time>2019-12-01T15:02:53Z</time>
      </trkpt>
      <trkpt lat="15.133272" lon="-92.103174">
        <ele>3818.034152899313</ele>
        <time>2019-12-01T15:02:57Z</time>
      </trkpt>
      <trkpt lat="15.133251" lon="-92.103094">
        <ele>3814.5718040634465</ele>
        <time>2019-12-01T15:03:02Z</time>
      </trkpt>
      <trkpt lat="15.133239" lon="-92.103067">
        <ele>3813.3914296723888</ele>
        <time>2019-12-01T15:03:06Z</time>
      </trkpt>
      <trkpt lat="15.133228" lon="-92.103037">
        <ele>3810.965176949387</ele>
        <time>2019-12-01T15:03:10Z</time>
      </trkpt>
      <trkpt lat="15.133219" lon="-92.103007">
        <ele>3810.96492474924</ele>
        <time>2019-12-01T15:03:14Z</time>
      </trkpt>
      <trkpt lat="15.133223" lon="-92.102971">
        <ele>3810.861995393777</ele>
        <time>2019-12-01T15:03:19Z</time>
      </trkpt>
      <trkpt lat="15.133228" lon="-92.102941">
        <ele>3806.546724474571</ele>
        <time>2019-12-01T15:03:23Z</time>
      </trkpt>
      <trkpt lat="15.133228" lon="-92.102922">
        <ele>3806.221574239137</ele>
        <time>2019-12-01T15:03:27Z</time>
      </trkpt>
      <trkpt lat="15.133217" lon="-92.102909">
        <ele>3801.5769866361447</ele>
        <time>2019-12-01T15:03:32Z</time>
      </trkpt>
      <trkpt lat="15.133208" lon="-92.102906">
        <ele>3801.5770109616465</ele>
        <time>2019-12-01T15:03:37Z</time>
      </trkpt>
      <trkpt lat="15.133200" lon="-92.102903">
        <ele>3801.5770290890277</ele>
        <time>2019-12-01T15:04:06Z</time>
      </trkpt>
      <trkpt lat="15.133195" lon="-92.102899">
        <ele>3800.287714602805</ele>
        <time>2019-12-01T15:04:12Z</time>
      </trkpt>
      <trkpt lat="15.133181" lon="-92.102888">
        <ele>3799.2071252812157</ele>
        <time>2019-12-01T15:04:16Z</time>
      </trkpt>
      <trkpt lat="15.133162" lon="-92.102872">
        <ele>3797.3640645012065</ele>
        <time>2019-12-01T15:04:20Z</time>
      </trkpt>
      <trkpt lat="15.133141" lon="-92.102827">
        <ele>3795.2792641983046</ele>
        <time>2019-12-01T15:04:24Z</time>
      </trkpt>
      <trkpt lat="15.133128" lon="-92.102781">
        <ele>3793.0701411795185</ele>
        <time>2019-12-01T15:04:28Z</time>
      </trkpt>
      <trkpt lat="15.133109" lon="-92.102733">
        <ele>3788.7401844068872</ele>
        <time>2019-12-01T15:04:32Z</time>
      </trkpt>
      <trkpt lat="15.133094" lon="-92.102717">
        <ele>3788.335826938008</ele>
        <time>2019-12-01T15:04:37Z</time>
      </trkpt>
      <trkpt lat="15.133079" lon="-92.102685">
        <ele>3786.5023452596356</ele>
        <time>2019-12-01T15:04:41Z</time>
      </trkpt>
      <trkpt lat="15.133042" lon="-92.102616">
        <ele>3781.612967493734</ele>
        <time>2019-12-01T15:04:46Z</time>
      </trkpt>
      <trkpt lat="15.133021" lon="-92.102573">
        <ele>3779.6090010670405</ele>
        <time>2019-12-01T15:04:50Z</time>
      </trkpt>
      <trkpt lat="15.133014" lon="-92.102555">
        <ele>3777.993636601564</ele>
        <time>2019-12-01T15:04:54Z</time>
      </trkpt>
      <trkpt lat="15.132998" lon="-92.102525">
        <ele>3777.475607362366</ele>
        <time>2019-12-01T15:04:59Z</time>
      </trkpt>
      <trkpt lat="15.132990" lon="-92.102508">
        <ele>3777.4754916908573</ele>
        <time>2019-12-01T15:05:03Z</time>
      </trkpt>
      <trkpt lat="15.132981" lon="-92.102491">
        <ele>3776.3923614004752</ele>
        <time>2019-12-01T15:05:08Z</time>
      </trkpt>
      <trkpt lat="15.132969" lon="-92.102469">
        <ele>3775.6146289076682</ele>
        <time>2019-12-01T15:05:13Z</time>
      </trkpt>
      <trkpt lat="15.132960" lon="-92.102428">
        <ele>3774.586435545416</ele>
        <time>2019-12-01T15:05:17Z</time>
      </trkpt>
      <trkpt lat="15.132966" lon="-92.102392">
        <ele>3773.272556259067</ele>
        <time>2019-12-01T15:05:21Z</time>
      </trkpt>
      <trkpt lat="15.132973" lon="-92.102358">
        <ele>3771.2387240631056</ele>
        <time>2019-12-01T15:05:25Z</time>
      </trkpt>
      <trkpt lat="15.132978" lon="-92.102322">
        <ele>3768.7769017510536</ele>
        <time>2019-12-01T15:05:29Z</time>
      </trkpt>
      <trkpt lat="15.132984" lon="-92.102301">
        <ele>3766.006632406</ele>
        <time>2019-12-01T15:05:34Z</time>
      </trkpt>
      <trkpt lat="15.132997" lon="-92.102286">
        <ele>3764.0842771818907</ele>
        <time>2019-12-01T15:05:38Z</time>
      </trkpt>
      <trkpt lat="15.133023" lon="-92.102270">
        <ele>3762.929413042312</ele>
        <time>2019-12-01T15:05:43Z</time>
      </trkpt>
      <trkpt lat="15.133048" lon="-92.102246">
        <ele>3761.5945319646667</ele>
        <time>2019-12-01T15:05:47Z</time>
      </trkpt>
      <trkpt lat="15.133073" lon="-92.102215">
        <ele>3760.8450370929204</ele>
        <time>2019-12-01T15:05:52Z</time>
      </trkpt>
      <trkpt lat="15.133114" lon="-92.102183">
        <ele>3760.293429837718</ele>
        <time>2019-12-01T15:05:57Z</time>
      </trkpt>
      <trkpt lat="15.133156" lon="-92.102148">
        <ele>3759.7830368710574</ele>
        <time>2019-12-01T15:06:01Z</time>
      </trkpt>
      <trkpt lat="15.133199" lon="-92.102110">
        <ele>3759.1927779634825</ele>
        <time>2019-12-01T15:06:06Z</time>
      </trkpt>
      <trkpt lat="15.133233" lon="-92.102070">
        <ele>3759.0105120802036</ele>
        <time>2019-12-01T15:06:11Z</time>
      </trkpt>
      <trkpt lat="15.133276" lon="-92.102029">
        <ele>3759.35357584721</ele>
        <time>2019-12-01T15:06:16Z</time>
      </trkpt>
      <trkpt lat="15.133308" lon="-92.101998">
        <ele>3759.9682935541236</ele>
        <time>2019-12-01T15:06:20Z</time>
      </trkpt>
      <trkpt lat="15.133353" lon="-92.101953">
        <ele>3760.4690161902845</ele>
        <time>2019-12-01T15:06:24Z</time>
      </trkpt>
      <trkpt lat="15.133380" lon="-92.101903">
        <ele>3760.790853825191</ele>
        <time>2019-12-01T15:06:28Z</time>
      </trkpt>
      <trkpt lat="15.133409" lon="-92.101854">
        <ele>3762.464967792755</ele>
        <time>2019-12-01T15:06:32Z</time>
      </trkpt>
      <trkpt lat="15.133431" lon="-92.101820">
        <ele>3761.983041164939</ele>
        <time>2019-12-01T15:06:36Z</time>
      </trkpt>
      <trkpt lat="15.133459" lon="-92.101754">
        <ele>3760.0188142133297</ele>
        <time>2019-12-01T15:06:40Z</time>
      </trkpt>
      <trkpt lat="15.133476" lon="-92.101693">
        <ele>3757.8244850285905</ele>
        <time>2019-12-01T15:06:44Z</time>
      </trkpt>
      <trkpt lat="15.133492" lon="-92.101632">
        <ele>3755.57327753497</ele>
        <time>2019-12-01T15:06:48Z</time>
      </trkpt>
      <trkpt lat="15.133463" lon="-92.101573">
        <ele>3752.5904426827456</ele>
        <time>2019-12-01T15:06:53Z</time>
      </trkpt>
      <trkpt lat="15.133488" lon="-92.101544">
        <ele>3752.0938965783484</ele>
        <time>2019-12-01T15:06:57Z</time>
      </trkpt>
      <trkpt lat="15.133514" lon="-92.101544">
        <ele>3752.310283935579</ele>
        <time>2019-12-01T15:07:02Z</time>
      </trkpt>
      <trkpt lat="15.133519" lon="-92.101558">
        <ele>3752.3103923391623</ele>
        <time>2019-12-01T15:07:06Z</time>
      </trkpt>
      <trkpt lat="15.133516" lon="-92.101567">
        <ele>3752.134226753436</ele>
        <time>2019-12-01T15:07:32Z</time>
      </trkpt>
      <trkpt lat="15.133500" lon="-92.101577">
        <ele>3752.038976014618</ele>
        <time>2019-12-01T15:07:37Z</time>
      </trkpt>
      <trkpt lat="15.133514" lon="-92.101562">
        <ele>3752.5043121153444</ele>
        <time>2019-12-01T15:07:41Z</time>
      </trkpt>
      <trkpt lat="15.133532" lon="-92.101544">
        <ele>3752.9693453649593</ele>
        <time>2019-12-01T15:07:45Z</time>
      </trkpt>
      <trkpt lat="15.133545" lon="-92.101536">
        <ele>3752.4826145213724</ele>
        <time>2019-12-01T15:07:50Z</time>
      </trkpt>
      <trkpt lat="15.133545" lon="-92.101536">
        <ele>3752.4826145213724</ele>
        <time>2019-12-01T15:07:55Z</time>
      </trkpt>
      <trkpt lat="15.133570" lon="-92.101527">
        <ele>3747.6283562191516</ele>
        <time>2019-12-01T15:08:00Z</time>
      </trkpt>
      <trkpt lat="15.133572" lon="-92.101524">
        <ele>3748.0199199134177</ele>
        <time>2019-12-01T15:08:11Z</time>
      </trkpt>
      <trkpt lat="15.133580" lon="-92.101504">
        <ele>3748.317756337243</ele>
        <time>2019-12-01T15:08:15Z</time>
      </trkpt>
      <trkpt lat="15.133565" lon="-92.101507">
        <ele>3748.534922060424</ele>
        <time>2019-12-01T15:08:19Z</time>
      </trkpt>
      <trkpt lat="15.133555" lon="-92.101508">
        <ele>3748.5349994382564</ele>
        <time>2019-12-01T15:08:23Z</time>
      </trkpt>
      <trkpt lat="15.133536" lon="-92.101530">
        <ele>3749.0497466390607</ele>
        <time>2019-12-01T15:08:28Z</time>
      </trkpt>
      <trkpt lat="15.133490" lon="-92.101544">
        <ele>3748.4439837942873</ele>
        <time>2019-12-01T15:08:33Z</time>
      </trkpt>
      <trkpt lat="15.133468" lon="-92.101531">
        <ele>3746.8900320948287</ele>
        <time>2019-12-01T15:08:37Z</time>
      </trkpt>
      <trkpt lat="15.133427" lon="-92.101511">
        <ele>3745.821491349563</ele>
        <time>2019-12-01T15:08:42Z</time>
      </trkpt>
      <trkpt lat="15.133381" lon="-92.101511">
        <ele>3744.4426346905416</ele>
        <time>2019-12-01T15:08:47Z</time>
      </trkpt>
      <trkpt lat="15.133356" lon="-92.101530">
        <ele>3742.2386445178186</ele>
        <time>2019-12-01T15:08:51Z</time>
      </trkpt>
      <trkpt lat="15.133319" lon="-92.101541">
        <ele>3741.6193586579398</ele>
        <time>2019-12-01T15:08:55Z</time>
      </trkpt>
      <trkpt lat="15.133282" lon="-92.101553">
        <ele>3740.597988312347</ele>
        <time>2019-12-01T15:09:00Z</time>
      </trkpt>
      <trkpt lat="15.133222" lon="-92.101564">
        <ele>3740.0589301142063</ele>
        <time>2019-12-01T15:09:04Z</time>
      </trkpt>
      <trkpt lat="15.133177" lon="-92.101566">
        <ele>3739.1971729338866</ele>
        <time>2019-12-01T15:09:08Z</time>
      </trkpt>
      <trkpt lat="15.133142" lon="-92.101572">
        <ele>3737.2733895592514</ele>
        <time>2019-12-01T15:09:12Z</time>
      </trkpt>
      <trkpt lat="15.133130" lon="-92.101581">
        <ele>3736.8248190511945</ele>
        <time>2019-12-01T15:09:16Z</time>
      </trkpt>
      <trkpt lat="15.133113" lon="-92.101588">
        <ele>3736.6116281012237</ele>
        <time>2019-12-01T15:09:21Z</time>
      </trkpt>
      <trkpt lat="15.133076" lon="-92.101593">
        <ele>3736.7823191608404</ele>
        <time>2019-12-01T15:09:25Z</time>
      </trkpt>
      <trkpt lat="15.133025" lon="-92.101582">
        <ele>3736.0691602767397</ele>
        <time>2019-12-01T15:09:30Z</time>
      </trkpt>
      <trkpt lat="15.133001" lon="-92.101564">
        <ele>3735.613798565079</ele>
        <time>2019-12-01T15:09:35Z</time>
      </trkpt>
      <trkpt lat="15.132985" lon="-92.101555">
        <ele>3736.2529818759313</ele>
        <time>2019-12-01T15:09:39Z</time>
      </trkpt>
      <trkpt lat="15.132961" lon="-92.101552">
        <ele>3736.487473286975</ele>
        <time>2019-12-01T15:09:43Z</time>
      </trkpt>
      <trkpt lat="15.132927" lon="-92.101552">
        <ele>3735.2955522039006</ele>
        <time>2019-12-01T15:09:47Z</time>
      </trkpt>
      <trkpt lat="15.132868" lon="-92.101550">
        <ele>3732.0737369404533</ele>
        <time>2019-12-01T15:09:52Z</time>
      </trkpt>
      <trkpt lat="15.132842" lon="-92.101554">
        <ele>3729.1069056988295</ele>
        <time>2019-12-01T15:09:56Z</time>
      </trkpt>
      <trkpt lat="15.132802" lon="-92.101568">
        <ele>3726.751341861387</ele>
        <time>2019-12-01T15:10:01Z</time>
      </trkpt>
      <trkpt lat="15.132770" lon="-92.101562">
        <ele>3725.714377921306</ele>
        <time>2019-12-01T15:10:05Z</time>
      </trkpt>
      <trkpt lat="15.132726" lon="-92.101545">
        <ele>3724.4732711162965</ele>
        <time>2019-12-01T15:10:10Z</time>
      </trkpt>
      <trkpt lat="15.132695" lon="-92.101538">
        <ele>3722.0251600371125</ele>
        <time>2019-12-01T15:10:14Z</time>
      </trkpt>
      <trkpt lat="15.132675" lon="-92.101543">
        <ele>3720.1142056409312</ele>
        <time>2019-12-01T15:10:18Z</time>
      </trkpt>
      <trkpt lat="15.132643" lon="-92.101553">
        <ele>3718.8225158804134</ele>
        <time>2019-12-01T15:10:22Z</time>
      </trkpt>
      <trkpt lat="15.132588" lon="-92.101565">
        <ele>3718.244869710062</ele>
        <time>2019-12-01T15:10:27Z</time>
      </trkpt>
      <trkpt lat="15.132555" lon="-92.101570">
        <ele>3718.5441947315862</ele>
        <time>2019-12-01T15:10:31Z</time>
      </trkpt>
      <trkpt lat="15.132498" lon="-92.101574">
        <ele>3719.2960692064175</ele>
        <time>2019-12-01T15:10:36Z</time>
      </trkpt>
      <trkpt lat="15.132459" lon="-92.101578">
        <ele>3717.8420081168038</ele>
        <time>2019-12-01T15:10:40Z</time>
      </trkpt>
      <trkpt lat="15.132423" lon="-92.101586">
        <ele>3717.1013536260093</ele>
        <time>2019-12-01T15:10:45Z</time>
      </trkpt>
      <trkpt lat="15.132407" lon="-92.101591">
        <ele>3717.1015037974685</ele>
        <time>2019-12-01T15:10:49Z</time>
      </trkpt>
      <trkpt lat="15.132392" lon="-92.101586">
        <ele>3716.9785005351596</ele>
        <time>2019-12-01T15:10:54Z</time>
      </trkpt>
      <trkpt lat="15.132373" lon="-92.101571">
        <ele>3717.038531599651</ele>
        <time>2019-12-01T15:10:59Z</time>
      </trkpt>
      <trkpt lat="15.132369" lon="-92.101554">
        <ele>3718.6885298048246</ele>
        <time>2019-12-01T15:11:03Z</time>
      </trkpt>
      <trkpt lat="15.132342" lon="-92.101530">
        <ele>3717.61375049923</ele>
        <time>2019-12-01T15:11:08Z</time>
      </trkpt>
      <trkpt lat="15.132299" lon="-92.101523">
        <ele>3718.632514498875</ele>
        <time>2019-12-01T15:11:12Z</time>
      </trkpt>
      <trkpt lat="15.132260" lon="-92.101524">
        <ele>3719.019244418371</ele>
        <time>2019-12-01T15:11:16Z</time>
      </trkpt>
      <trkpt lat="15.132232" lon="-92.101528">
        <ele>3720.3268406768993</ele>
        <time>2019-12-01T15:11:20Z</time>
      </trkpt>
      <trkpt lat="15.132207" lon="-92.101525">
        <ele>3720.815249825865</ele>
        <time>2019-12-01T15:11:24Z</time>
      </trkpt>
      <trkpt lat="15.132186" lon="-92.101520">
        <ele>3720.698625262269</ele>
        <time>2019-12-01T15:11:29Z</time>
      </trkpt>
      <trkpt lat="15.132164" lon="-92.101509">
        <ele>3720.6310331614045</ele>
        <time>2019-12-01T15:11:33Z</time>
      </trkpt>
      <trkpt lat="15.132127" lon="-92.101494">
        <ele>3721.8310727200414</ele>
        <time>2019-12-01T15:11:37Z</time>
      </trkpt>
      <trkpt lat="15.132090" lon="-92.101483">
        <ele>3721.9842639650446</ele>
        <time>2019-12-01T15:11:41Z</time>
      </trkpt>
      <trkpt lat="15.132023" lon="-92.101476">
        <ele>3721.8374086924805</ele>
        <time>2019-12-01T15:11:46Z</time>
      </trkpt>
      <trkpt lat="15.131978" lon="-92.101485">
        <ele>3721.4488721794755</ele>
        <time>2019-12-01T15:11:50Z</time>
      </trkpt>
      <trkpt lat="15.131934" lon="-92.101498">
        <ele>3721.574284875116</ele>
        <time>2019-12-01T15:11:54Z</time>
      </trkpt>
      <trkpt lat="15.131910" lon="-92.101500">
        <ele>3719.9479928920177</ele>
        <time>2019-12-01T15:11:58Z</time>
      </trkpt>
      <trkpt lat="15.131887" lon="-92.101504">
        <ele>3718.919856312282</ele>
        <time>2019-12-01T15:12:02Z</time>
      </trkpt>
      <trkpt lat="15.131839" lon="-92.101512">
        <ele>3717.6878284314294</ele>
        <time>2019-12-01T15:12:06Z</time>
      </trkpt>
      <trkpt lat="15.131803" lon="-92.101511">
        <ele>3716.127735809868</ele>
        <time>2019-12-01T15:12:11Z</time>
      </trkpt>
      <trkpt lat="15.131779" lon="-92.101505">
        <ele>3715.2977533588964</ele>
        <time>2019-12-01T15:12:15Z</time>
      </trkpt>
      <trkpt lat="15.131754" lon="-92.101502">
        <ele>3713.125280997453</ele>
        <time>2019-12-01T15:12:19Z</time>
      </trkpt>
      <trkpt lat="15.131727" lon="-92.101492">
        <ele>3712.109479344182</ele>
        <time>2019-12-01T15:12:24Z</time>
      </trkpt>
      <trkpt lat="15.131706" lon="-92.101481">
        <ele>3711.2157005482736</ele>
        <time>2019-12-01T15:12:28Z</time>
      </trkpt>
      <trkpt lat="15.131675" lon="-92.101470">
        <ele>3711.3703324714124</ele>
        <time>2019-12-01T15:12:32Z</time>
      </trkpt>
      <trkpt lat="15.131635" lon="-92.101465">
        <ele>3712.7660472518955</ele>
        <time>2019-12-01T15:12:37Z</time>
      </trkpt>
      <trkpt lat="15.131606" lon="-92.101468">
        <ele>3713.566067789919</ele>
        <time>2019-12-01T15:12:41Z</time>
      </trkpt>
      <trkpt lat="15.131570" lon="-92.101479">
        <ele>3714.3862281974443</ele>
        <time>2019-12-01T15:12:45Z</time>
      </trkpt>
      <trkpt lat="15.131516" lon="-92.101497">
        <ele>3714.3926146752947</ele>
        <time>2019-12-01T15:12:50Z</time>
      </trkpt>
      <trkpt lat="15.131490" lon="-92.101506">
        <ele>3713.8816331655025</ele>
        <time>2019-12-01T15:12:54Z</time>
      </trkpt>
      <trkpt lat="15.131460" lon="-92.101516">
        <ele>3713.0162084554236</ele>
        <time>2019-12-01T15:12:59Z</time>
      </trkpt>
      <trkpt lat="15.131419" lon="-92.101516">
        <ele>3712.0933753107824</ele>
        <time>2019-12-01T15:13:03Z</time>
      </trkpt>
      <trkpt lat="15.131358" lon="-92.101490">
        <ele>3711.4343187632153</ele>
        <time>2019-12-01T15:13:08Z</time>
      </trkpt>
      <trkpt lat="15.131319" lon="-92.101458">
        <ele>3708.848064764008</ele>
        <time>2019-12-01T15:13:12Z</time>
      </trkpt>
      <trkpt lat="15.131271" lon="-92.101428">
        <ele>3707.42692501919</ele>
        <time>2019-12-01T15:13:17Z</time>
      </trkpt>
      <trkpt lat="15.131233" lon="-92.101404">
        <ele>3707.3663822560356</ele>
        <time>2019-12-01T15:13:21Z</time>
      </trkpt>
      <trkpt lat="15.131185" lon="-92.101374">
        <ele>3706.150068586626</ele>
        <time>2019-12-01T15:13:26Z</time>
      </trkpt>
      <trkpt lat="15.131135" lon="-92.101339">
        <ele>3706.103158794469</ele>
        <time>2019-12-01T15:13:31Z</time>
      </trkpt>
      <trkpt lat="15.131100" lon="-92.101308">
        <ele>3705.7637242255764</ele>
        <time>2019-12-01T15:13:35Z</time>
      </trkpt>
      <trkpt lat="15.131060" lon="-92.101277">
        <ele>3704.933333566754</ele>
        <time>2019-12-01T15:13:39Z</time>
      </trkpt>
      <trkpt lat="15.131022" lon="-92.101248">
        <ele>3703.6764533859377</ele>
        <time>2019-12-01T15:13:43Z</time>
      </trkpt>
      <trkpt lat="15.130987" lon="-92.101223">
        <ele>3702.9776918139487</ele>
        <time>2019-12-01T15:13:47Z</time>
      </trkpt>
      <trkpt lat="15.130963" lon="-92.101199">
        <ele>3701.86921174775</ele>
        <time>2019-12-01T15:13:51Z</time>
      </trkpt>
      <trkpt lat="15.130950" lon="-92.101190">
        <ele>3701.869198296593</ele>
        <time>2019-12-01T15:13:55Z</time>
      </trkpt>
      <trkpt lat="15.130933" lon="-92.101173">
        <ele>3702.391355723307</ele>
        <time>2019-12-01T15:14:00Z</time>
      </trkpt>
      <trkpt lat="15.130911" lon="-92.101155">
        <ele>3703.1940491019104</ele>
        <time>2019-12-01T15:14:04Z</time>
      </trkpt>
      <trkpt lat="15.130880" lon="-92.101137">
        <ele>3703.9093935647197</ele>
        <time>2019-12-01T15:14:08Z</time>
      </trkpt>
      <trkpt lat="15.130852" lon="-92.101118">
        <ele>3702.6620604134528</ele>
        <time>2019-12-01T15:14:13Z</time>
      </trkpt>
      <trkpt lat="15.130814" lon="-92.101099">
        <ele>3702.2946815131245</ele>
        <time>2019-12-01T15:14:17Z</time>
      </trkpt>
      <trkpt lat="15.130755" lon="-92.101073">
        <ele>3701.9837583672006</ele>
        <time>2019-12-01T15:14:22Z</time>
      </trkpt>
      <trkpt lat="15.130707" lon="-92.101050">
        <ele>3700.4901782011357</ele>
        <time>2019-12-01T15:14:26Z</time>
      </trkpt>
      <trkpt lat="15.130654" lon="-92.101018">
        <ele>3699.4550450541824</ele>
        <time>2019-12-01T15:14:30Z</time>
      </trkpt>
      <trkpt lat="15.130612" lon="-92.100988">
        <ele>3700.6054003265567</ele>
        <time>2019-12-01T15:14:35Z</time>
      </trkpt>
      <trkpt lat="15.130585" lon="-92.100973">
        <ele>3700.8451679269056</ele>
        <time>2019-12-01T15:14:39Z</time>
      </trkpt>
      <trkpt lat="15.130547" lon="-92.100959">
        <ele>3699.8596705382924</ele>
        <time>2019-12-01T15:14:44Z</time>
      </trkpt>
      <trkpt lat="15.130538" lon="-92.100957">
        <ele>3699.8597047019057</ele>
        <time>2019-12-01T15:14:48Z</time>
      </trkpt>
      <trkpt lat="15.130538" lon="-92.100957">
        <ele>3699.2935425925307</ele>
        <time>2019-12-01T15:15:00Z</time>
      </trkpt>
      <trkpt lat="15.130510" lon="-92.100953">
        <ele>3699.0800606886237</ele>
        <time>2019-12-01T15:15:04Z</time>
      </trkpt>
      <trkpt lat="15.130500" lon="-92.100950">
        <ele>3699.2990907929384</ele>
        <time>2019-12-01T15:15:09Z</time>
      </trkpt>
      <trkpt lat="15.130500" lon="-92.100950">
        <ele>3699.5710634491884</ele>
        <time>2019-12-01T15:15:18Z</time>
      </trkpt>
      <trkpt lat="15.130470" lon="-92.100942">
        <ele>3700.4483711539838</ele>
        <time>2019-12-01T15:15:22Z</time>
      </trkpt>
      <trkpt lat="15.130457" lon="-92.100954">
        <ele>3700.9456435880547</ele>
        <time>2019-12-01T15:15:27Z</time>
      </trkpt>
      <trkpt lat="15.130454" lon="-92.100956">
        <ele>3700.9456881849355</ele>
        <time>2019-12-01T15:15:39Z</time>
      </trkpt>
      <trkpt lat="15.130440" lon="-92.100960">
        <ele>3701.4484973811104</ele>
        <time>2019-12-01T15:15:43Z</time>
      </trkpt>
      <trkpt lat="15.130411" lon="-92.100958">
        <ele>3701.2929047394614</ele>
        <time>2019-12-01T15:15:47Z</time>
      </trkpt>
      <trkpt lat="15.130375" lon="-92.100960">
        <ele>3701.3756775850943</ele>
        <time>2019-12-01T15:15:51Z</time>
      </trkpt>
      <trkpt lat="15.130315" lon="-92.100946">
        <ele>3700.9035088149117</ele>
        <time>2019-12-01T15:15:56Z</time>
      </trkpt>
      <trkpt lat="15.130285" lon="-92.100941">
        <ele>3700.2076016714436</ele>
        <time>2019-12-01T15:16:00Z</time>
      </trkpt>
      <trkpt lat="15.130227" lon="-92.100916">
        <ele>3697.780226756617</ele>
        <time>2019-12-01T15:16:04Z</time>
      </trkpt>
      <trkpt lat="15.130177" lon="-92.100883">
        <ele>3695.9581975937595</ele>
        <time>2019-12-01T15:16:08Z</time>
      </trkpt>
      <trkpt lat="15.130135" lon="-92.100856">
        <ele>3694.8966640760536</ele>
        <time>2019-12-01T15:16:12Z</time>
      </trkpt>
      <trkpt lat="15.130111" lon="-92.100832">
        <ele>3694.767666318366</ele>
        <time>2019-12-01T15:16:17Z</time>
      </trkpt>
      <trkpt lat="15.130102" lon="-92.100780">
        <ele>3694.4222321352886</ele>
        <time>2019-12-01T15:16:21Z</time>
      </trkpt>
      <trkpt lat="15.130062" lon="-92.100732">
        <ele>3693.365846344806</ele>
        <time>2019-12-01T15:16:25Z</time>
      </trkpt>
      <trkpt lat="15.130051" lon="-92.100719">
        <ele>3694.672434756474</ele>
        <time>2019-12-01T15:16:30Z</time>
      </trkpt>
      <trkpt lat="15.130065" lon="-92.100703">
        <ele>3694.5164160713416</ele>
        <time>2019-12-01T15:16:35Z</time>
      </trkpt>
      <trkpt lat="15.130057" lon="-92.100685">
        <ele>3692.31146015114</ele>
        <time>2019-12-01T15:16:40Z</time>
      </trkpt>
      <trkpt lat="15.130059" lon="-92.100658">
        <ele>3691.2423158061415</ele>
        <time>2019-12-01T15:16:44Z</time>
      </trkpt>
      <trkpt lat="15.130040" lon="-92.100614">
        <ele>3690.7544519851763</ele>
        <time>2019-12-01T15:16:49Z</time>
      </trkpt>
      <trkpt lat="15.130014" lon="-92.100569">
        <ele>3689.5168599804174</ele>
        <time>2019-12-01T15:16:53Z</time>
      </trkpt>
      <trkpt lat="15.129966" lon="-92.100498">
        <ele>3687.084322825378</ele>
        <time>2019-12-01T15:16:58Z</time>
      </trkpt>
      <trkpt lat="15.129932" lon="-92.100444">
        <ele>3685.2578224870003</ele>
        <time>2019-12-01T15:17:02Z</time>
      </trkpt>
      <trkpt lat="15.129890" lon="-92.100363">
        <ele>3683.936233962779</ele>
        <time>2019-12-01T15:17:06Z</time>
      </trkpt>
      <trkpt lat="15.129848" lon="-92.100266">
        <ele>3681.088839904503</ele>
        <time>2019-12-01T15:17:11Z</time>
      </trkpt>
      <trkpt lat="15.129836" lon="-92.100210">
        <ele>3679.81687433805</ele>
        <time>2019-12-01T15:17:15Z</time>
      </trkpt>
      <trkpt lat="15.129826" lon="-92.100141">
        <ele>3678.4580869759084</ele>
        <time>2019-12-01T15:17:20Z</time>
      </trkpt>
      <trkpt lat="15.129805" lon="-92.100089">
        <ele>3678.2892391263044</ele>
        <time>2019-12-01T15:17:24Z</time>
      </trkpt>
      <trkpt lat="15.129781" lon="-92.100039">
        <ele>3678.710271833057</ele>
        <time>2019-12-01T15:17:28Z</time>
      </trkpt>
      <trkpt lat="15.129741" lon="-92.099987">
        <ele>3678.6221154873556</ele>
        <time>2019-12-01T15:17:32Z</time>
      </trkpt>
      <trkpt lat="15.129703" lon="-92.099936">
        <ele>3679.128194862313</ele>
        <time>2019-12-01T15:17:37Z</time>
      </trkpt>
      <trkpt lat="15.129676" lon="-92.099874">
        <ele>3678.437550132855</ele>
        <time>2019-12-01T15:17:41Z</time>
      </trkpt>
      <trkpt lat="15.129653" lon="-92.099811">
        <ele>3678.2031770181643</ele>
        <time>2019-12-01T15:17:45Z</time>
      </trkpt>
      <trkpt lat="15.129632" lon="-92.099762">
        <ele>3677.4772332009884</ele>
        <time>2019-12-01T15:17:49Z</time>
      </trkpt>
      <trkpt lat="15.129616" lon="-92.099706">
        <ele>3676.230679037581</ele>
        <time>2019-12-01T15:17:54Z</time>
      </trkpt>
      <trkpt lat="15.129618" lon="-92.099647">
        <ele>3676.5398848453297</ele>
        <time>2019-12-01T15:17:58Z</time>
      </trkpt>
      <trkpt lat="15.129624" lon="-92.099574">
        <ele>3676.533981610914</ele>
        <time>2019-12-01T15:18:03Z</time>
      </trkpt>
      <trkpt lat="15.129640" lon="-92.099561">
        <ele>3676.714654770029</ele>
        <time>2019-12-01T15:18:08Z</time>
      </trkpt>
      <trkpt lat="15.129626" lon="-92.099537">
        <ele>3676.8927349863457</ele>
        <time>2019-12-01T15:18:12Z</time>
      </trkpt>
      <trkpt lat="15.129622" lon="-92.099493">
        <ele>3677.805645942291</ele>
        <time>2019-12-01T15:18:17Z</time>
      </trkpt>
      <trkpt lat="15.129628" lon="-92.099447">
        <ele>3678.923058813807</ele>
        <time>2019-12-01T15:18:21Z</time>
      </trkpt>
      <trkpt lat="15.129679" lon="-92.099364">
        <ele>3679.6892341909934</ele>
        <time>2019-12-01T15:18:25Z</time>
      </trkpt>
      <trkpt lat="15.129730" lon="-92.099277">
        <ele>3681.7156120749746</ele>
        <time>2019-12-01T15:18:30Z</time>
      </trkpt>
      <trkpt lat="15.129754" lon="-92.099235">
        <ele>3682.419630498808</ele>
        <time>2019-12-01T15:18:34Z</time>
      </trkpt>
      <trkpt lat="15.129798" lon="-92.099199">
        <ele>3682.6770410322765</ele>
        <time>2019-12-01T15:18:39Z</time>
      </trkpt>
      <trkpt lat="15.129790" lon="-92.099164">
        <ele>3681.8486196992417</ele>
        <time>2019-12-01T15:18:43Z</time>
      </trkpt>
      <trkpt lat="15.129809" lon="-92.099130">
        <ele>3681.3750052761284</ele>
        <time>2019-12-01T15:18:47Z</time>
      </trkpt>
      <trkpt lat="15.129808" lon="-92.099085">
        <ele>3683.7717809098003</ele>
        <time>2019-12-01T15:18:51Z</time>
      </trkpt>
      <trkpt lat="15.129769" lon="-92.099025">
        <ele>3682.3336805047616</ele>
        <time>2019-12-01T15:18:56Z</time>
      </trkpt>
      <trkpt lat="15.129734" lon="-92.098968">
        <ele>3680.7896210970002</ele>
        <time>2019-12-01T15:19:00Z</time>
      </trkpt>
      <trkpt lat="15.129712" lon="-92.098904">
        <ele>3679.707336351191</ele>
        <time>2019-12-01T15:19:04Z</time>
      </trkpt>
      <trkpt lat="15.129694" lon="-92.098836">
        <ele>3676.2787842492917</ele>
        <time>2019-12-01T15:19:08Z</time>
      </trkpt>
      <trkpt lat="15.129671" lon="-92.098773">
        <ele>3674.2590125902925</ele>
        <time>2019-12-01T15:19:12Z</time>
      </trkpt>
      <trkpt lat="15.129660" lon="-92.098693">
        <ele>3671.1393894955686</ele>
        <time>2019-12-01T15:19:17Z</time>
      </trkpt>
      <trkpt lat="15.129639" lon="-92.098644">
        <ele>3669.8299347538864</ele>
        <time>2019-12-01T15:19:21Z</time>
      </trkpt>
      <trkpt lat="15.129613" lon="-92.098593">
        <ele>3668.5766640720713</ele>
        <time>2019-12-01T15:19:25Z</time>
      </trkpt>
      <trkpt lat="15.129598" lon="-92.098507">
        <ele>3666.3991360273935</ele>
        <time>2019-12-01T15:19:30Z</time>
      </trkpt>
      <trkpt lat="15.129582" lon="-92.098444">
        <ele>3663.8104677525926</ele>
        <time>2019-12-01T15:19:34Z</time>
      </trkpt>
      <trkpt lat="15.129546" lon="-92.098401">
        <ele>3662.5341451721156</ele>
        <time>2019-12-01T15:19:38Z</time>
      </trkpt>
      <trkpt lat="15.129532" lon="-92.098330">
        <ele>3660.307202966967</ele>
        <time>2019-12-01T15:19:43Z</time>
      </trkpt>
      <trkpt lat="15.129506" lon="-92.098289">
        <ele>3657.852856953765</ele>
        <time>2019-12-01T15:19:47Z</time>
      </trkpt>
      <trkpt lat="15.129499" lon="-92.098239">
        <ele>3655.366799905542</ele>
        <time>2019-12-01T15:19:51Z</time>
      </trkpt>
      <trkpt lat="15.129503" lon="-92.098174">
        <ele>3654.8834528070433</ele>
        <time>2019-12-01T15:19:55Z</time>
      </trkpt>
      <trkpt lat="15.129522" lon="-92.098113">
        <ele>3654.2135332836847</ele>
        <time>2019-12-01T15:19:59Z</time>
      </trkpt>
      <trkpt lat="15.129527" lon="-92.098048">
        <ele>3654.088822342687</ele>
        <time>2019-12-01T15:20:03Z</time>
      </trkpt>
      <trkpt lat="15.129525" lon="-92.097993">
        <ele>3652.5728928538074</ele>
        <time>2019-12-01T15:20:07Z</time>
      </trkpt>
      <trkpt lat="15.129503" lon="-92.097934">
        <ele>3652.573173335328</ele>
        <time>2019-12-01T15:20:11Z</time>
      </trkpt>
      <trkpt lat="15.129501" lon="-92.097878">
        <ele>3652.023802797669</ele>
        <time>2019-12-01T15:20:15Z</time>
      </trkpt>
      <trkpt lat="15.129520" lon="-92.097818">
        <ele>3651.0645742568504</ele>
        <time>2019-12-01T15:20:19Z</time>
      </trkpt>
      <trkpt lat="15.129562" lon="-92.097764">
        <ele>3649.1702039864304</ele>
        <time>2019-12-01T15:20:23Z</time>
      </trkpt>
      <trkpt lat="15.129576" lon="-92.097743">
        <ele>3648.163307949693</ele>
        <time>2019-12-01T15:20:27Z</time>
      </trkpt>
      <trkpt lat="15.129593" lon="-92.097713">
        <ele>3647.1912142800393</ele>
        <time>2019-12-01T15:20:31Z</time>
      </trkpt>
      <trkpt lat="15.129613" lon="-92.097665">
        <ele>3646.173511045468</ele>
        <time>2019-12-01T15:20:36Z</time>
      </trkpt>
      <trkpt lat="15.129632" lon="-92.097604">
        <ele>3647.217708139912</ele>
        <time>2019-12-01T15:20:41Z</time>
      </trkpt>
      <trkpt lat="15.129656" lon="-92.097514">
        <ele>3649.47665653902</ele>
        <time>2019-12-01T15:20:45Z</time>
      </trkpt>
      <trkpt lat="15.129667" lon="-92.097444">
        <ele>3650.451210021185</ele>
        <time>2019-12-01T15:20:50Z</time>
      </trkpt>
      <trkpt lat="15.129666" lon="-92.097441">
        <ele>3650.451194589127</ele>
        <time>2019-12-01T15:21:03Z</time>
      </trkpt>
      <trkpt lat="15.129650" lon="-92.097458">
        <ele>3648.4160667018696</ele>
        <time>2019-12-01T15:21:08Z</time>
      </trkpt>
      <trkpt lat="15.129649" lon="-92.097426">
        <ele>3649.7917259162878</ele>
        <time>2019-12-01T15:21:12Z</time>
      </trkpt>
      <trkpt lat="15.129647" lon="-92.097384">
        <ele>3649.3657848574085</ele>
        <time>2019-12-01T15:21:16Z</time>
      </trkpt>
      <trkpt lat="15.129652" lon="-92.097337">
        <ele>3648.3923756440868</ele>
        <time>2019-12-01T15:21:20Z</time>
      </trkpt>
      <trkpt lat="15.129650" lon="-92.097277">
        <ele>3649.21477918046</ele>
        <time>2019-12-01T15:21:25Z</time>
      </trkpt>
      <trkpt lat="15.129648" lon="-92.097252">
        <ele>3650.4015515376987</ele>
        <time>2019-12-01T15:21:29Z</time>
      </trkpt>
      <trkpt lat="15.129648" lon="-92.097238">
        <ele>3650.401412946222</ele>
        <time>2019-12-01T15:21:33Z</time>
      </trkpt>
      <trkpt lat="15.129644" lon="-92.097209">
        <ele>3648.3750249834434</ele>
        <time>2019-12-01T15:21:37Z</time>
      </trkpt>
      <trkpt lat="15.129639" lon="-92.097183">
        <ele>3647.9685451566247</ele>
        <time>2019-12-01T15:21:41Z</time>
      </trkpt>
      <trkpt lat="15.129647" lon="-92.097135">
        <ele>3647.8754740927097</ele>
        <time>2019-12-01T15:21:46Z</time>
      </trkpt>
      <trkpt lat="15.129654" lon="-92.097120">
        <ele>3647.9780699662556</ele>
        <time>2019-12-01T15:21:51Z</time>
      </trkpt>
      <trkpt lat="15.129655" lon="-92.097111">
        <ele>3647.9779672376576</ele>
        <time>2019-12-01T15:21:55Z</time>
      </trkpt>
      <trkpt lat="15.129654" lon="-92.097104">
        <ele>3647.9742397675927</ele>
        <time>2019-12-01T15:22:01Z</time>
      </trkpt>
      <trkpt lat="15.129636" lon="-92.097085">
        <ele>3647.720989456112</ele>
        <time>2019-12-01T15:22:06Z</time>
      </trkpt>
      <trkpt lat="15.129627" lon="-92.097080">
        <ele>3647.7210004135723</ele>
        <time>2019-12-01T15:22:10Z</time>
      </trkpt>
      <trkpt lat="15.129615" lon="-92.097073">
        <ele>3647.0896636950224</ele>
        <time>2019-12-01T15:22:15Z</time>
      </trkpt>
      <trkpt lat="15.129603" lon="-92.097064">
        <ele>3646.808155469808</ele>
        <time>2019-12-01T15:22:19Z</time>
      </trkpt>
      <trkpt lat="15.129591" lon="-92.097051">
        <ele>3646.30785718818</ele>
        <time>2019-12-01T15:22:24Z</time>
      </trkpt>
      <trkpt lat="15.129584" lon="-92.097035">
        <ele>3646.0469953460006</ele>
        <time>2019-12-01T15:22:28Z</time>
      </trkpt>
      <trkpt lat="15.129575" lon="-92.097021">
        <ele>3645.301797205023</ele>
        <time>2019-12-01T15:22:33Z</time>
      </trkpt>
      <trkpt lat="15.129565" lon="-92.097010">
        <ele>3645.301747009155</ele>
        <time>2019-12-01T15:22:37Z</time>
      </trkpt>
      <trkpt lat="15.129559" lon="-92.097002">
        <ele>3645.3017102436165</ele>
        <time>2019-12-01T15:22:41Z</time>
      </trkpt>
      <trkpt lat="15.129554" lon="-92.096996">
        <ele>3645.3016768027937</ele>
        <time>2019-12-01T15:22:52Z</time>
      </trkpt>
      <trkpt lat="15.129534" lon="-92.096944">
        <ele>3644.3691566858074</ele>
        <time>2019-12-01T15:22:57Z</time>
      </trkpt>
      <trkpt lat="15.129495" lon="-92.096911">
        <ele>3644.233326869195</ele>
        <time>2019-12-01T15:23:01Z</time>
      </trkpt>
      <trkpt lat="15.129458" lon="-92.096901">
        <ele>3644.736642131152</ele>
        <time>2019-12-01T15:23:06Z</time>
      </trkpt>
      <trkpt lat="15.129440" lon="-92.096889">
        <ele>3645.01373990441</ele>
        <time>2019-12-01T15:23:10Z</time>
      </trkpt>
      <trkpt lat="15.129433" lon="-92.096874">
        <ele>3645.3229536165386</ele>
        <time>2019-12-01T15:23:15Z</time>
      </trkpt>
      <trkpt lat="15.129421" lon="-92.096854">
        <ele>3645.813556235192</ele>
        <time>2019-12-01T15:23:20Z</time>
      </trkpt>
      <trkpt lat="15.129412" lon="-92.096844">
        <ele>3645.8135163791535</ele>
        <time>2019-12-01T15:23:24Z</time>
      </trkpt>
      <trkpt lat="15.129396" lon="-92.096817">
        <ele>3645.7291205527463</ele>
        <time>2019-12-01T15:23:29Z</time>
      </trkpt>
      <trkpt lat="15.129395" lon="-92.096800">
        <ele>3645.456000293775</ele>
        <time>2019-12-01T15:23:33Z</time>
      </trkpt>
      <trkpt lat="15.129383" lon="-92.096787">
        <ele>3644.933000000909</ele>
        <time>2019-12-01T15:23:37Z</time>
      </trkpt>
      <trkpt lat="15.129369" lon="-92.096771">
        <ele>3644.3570055002174</ele>
        <time>2019-12-01T15:23:41Z</time>
      </trkpt>
      <trkpt lat="15.129344" lon="-92.096745">
        <ele>3642.7751151698526</ele>
        <time>2019-12-01T15:23:46Z</time>
      </trkpt>
      <trkpt lat="15.129328" lon="-92.096730">
        <ele>3641.7162318612036</ele>
        <time>2019-12-01T15:23:51Z</time>
      </trkpt>
      <trkpt lat="15.129320" lon="-92.096721">
        <ele>3641.7161885090936</ele>
        <time>2019-12-01T15:23:55Z</time>
      </trkpt>
      <trkpt lat="15.129314" lon="-92.096714">
        <ele>3641.71615700943</ele>
        <time>2019-12-01T15:24:07Z</time>
      </trkpt>
      <trkpt lat="15.129309" lon="-92.096708">
        <ele>3639.4514773626915</ele>
        <time>2019-12-01T15:24:34Z</time>
      </trkpt>
      <trkpt lat="15.129292" lon="-92.096677">
        <ele>3639.2930771467677</ele>
        <time>2019-12-01T15:24:39Z</time>
      </trkpt>
      <trkpt lat="15.129268" lon="-92.096656">
        <ele>3637.3865290885688</ele>
        <time>2019-12-01T15:24:43Z</time>
      </trkpt>
      <trkpt lat="15.129259" lon="-92.096642">
        <ele>3636.0116847250065</ele>
        <time>2019-12-01T15:24:47Z</time>
      </trkpt>
      <trkpt lat="15.129255" lon="-92.096622">
        <ele>3636.0115123893193</ele>
        <time>2019-12-01T15:24:52Z</time>
      </trkpt>
      <trkpt lat="15.129255" lon="-92.096619">
        <ele>3634.191900074279</ele>
        <time>2019-12-01T15:25:11Z</time>
      </trkpt>
      <trkpt lat="15.129251" lon="-92.096596">
        <ele>3630.1177193456415</ele>
        <time>2019-12-01T15:25:16Z</time>
      </trkpt>
      <trkpt lat="15.129248" lon="-92.096585">
        <ele>3630.1176261966602</ele>
        <time>2019-12-01T15:25:21Z</time>
      </trkpt>
      <trkpt lat="15.129246" lon="-92.096578">
        <ele>3629.218891521465</ele>
        <time>2019-12-01T15:25:26Z</time>
      </trkpt>
      <trkpt lat="15.129232" lon="-92.096564">
        <ele>3627.5245033401056</ele>
        <time>2019-12-01T15:25:30Z</time>
      </trkpt>
      <trkpt lat="15.129225" lon="-92.096551">
        <ele>3626.860850951673</ele>
        <time>2019-12-01T15:25:34Z</time>
      </trkpt>
      <trkpt lat="15.129216" lon="-92.096539">
        <ele>3626.3810460476634</ele>
        <time>2019-12-01T15:25:38Z</time>
      </trkpt>
      <trkpt lat="15.129215" lon="-92.096531">
        <ele>3626.380966427364</ele>
        <time>2019-12-01T15:25:46Z</time>
      </trkpt>
      <trkpt lat="15.129208" lon="-92.096525">
        <ele>3626.936138317382</ele>
        <time>2019-12-01T15:26:01Z</time>
      </trkpt>
      <trkpt lat="15.129202" lon="-92.096522">
        <ele>3625.9278434219063</ele>
        <time>2019-12-01T15:26:19Z</time>
      </trkpt>
      <trkpt lat="15.129182" lon="-92.096519">
        <ele>3624.455281073743</ele>
        <time>2019-12-01T15:26:24Z</time>
      </trkpt>
      <trkpt lat="15.129170" lon="-92.096519">
        <ele>3623.0095576636304</ele>
        <time>2019-12-01T15:26:28Z</time>
      </trkpt>
      <trkpt lat="15.129168" lon="-92.096511">
        <ele>3620.7467959403098</ele>
        <time>2019-12-01T15:26:33Z</time>
      </trkpt>
      <trkpt lat="15.129158" lon="-92.096506">
        <ele>3619.697981501962</ele>
        <time>2019-12-01T15:26:38Z</time>
      </trkpt>
      <trkpt lat="15.129149" lon="-92.096504">
        <ele>3619.698013930987</ele>
        <time>2019-12-01T15:26:45Z</time>
      </trkpt>
      <trkpt lat="15.129144" lon="-92.096499">
        <ele>3619.1362349731585</ele>
        <time>2019-12-01T15:26:50Z</time>
      </trkpt>
      <trkpt lat="15.129120" lon="-92.096482">
        <ele>3618.7390021403994</ele>
        <time>2019-12-01T15:26:54Z</time>
      </trkpt>
      <trkpt lat="15.129103" lon="-92.096474">
        <ele>3618.526377934526</ele>
        <time>2019-12-01T15:26:58Z</time>
      </trkpt>
      <trkpt lat="15.129095" lon="-92.096471">
        <ele>3618.5264004014502</ele>
        <time>2019-12-01T15:27:03Z</time>
      </trkpt>
      <trkpt lat="15.129088" lon="-92.096468">
        <ele>3616.8508786486095</ele>
        <time>2019-12-01T15:27:07Z</time>
      </trkpt>
      <trkpt lat="15.129063" lon="-92.096457">
        <ele>3613.8953631850104</ele>
        <time>2019-12-01T15:27:11Z</time>
      </trkpt>
      <trkpt lat="15.129047" lon="-92.096446">
        <ele>3612.487402037987</ele>
        <time>2019-12-01T15:27:15Z</time>
      </trkpt>
      <trkpt lat="15.129057" lon="-92.096441">
        <ele>3608.090801583558</ele>
        <time>2019-12-01T15:27:19Z</time>
      </trkpt>
      <trkpt lat="15.129056" lon="-92.096437">
        <ele>3606.3878826564196</ele>
        <time>2019-12-01T15:27:24Z</time>
      </trkpt>
      <trkpt lat="15.129033" lon="-92.096403">
        <ele>3605.791254338861</ele>
        <time>2019-12-01T15:27:29Z</time>
      </trkpt>
      <trkpt lat="15.129023" lon="-92.096394">
        <ele>3605.791232690225</ele>
        <time>2019-12-01T15:27:34Z</time>
      </trkpt>
      <trkpt lat="15.129023" lon="-92.096394">
        <ele>3604.9042697996</ele>
        <time>2019-12-01T15:27:39Z</time>
      </trkpt>
      <trkpt lat="15.129036" lon="-92.096381">
        <ele>3602.5749530654834</ele>
        <time>2019-12-01T15:27:44Z</time>
      </trkpt>
      <trkpt lat="15.129087" lon="-92.096382">
        <ele>3600.8636960963663</ele>
        <time>2019-12-01T15:27:48Z</time>
      </trkpt>
      <trkpt lat="15.129110" lon="-92.096370">
        <ele>3599.578515090697</ele>
        <time>2019-12-01T15:27:53Z</time>
      </trkpt>
      <trkpt lat="15.129104" lon="-92.096358">
        <ele>3599.2691066986517</ele>
        <time>2019-12-01T15:27:57Z</time>
      </trkpt>
      <trkpt lat="15.129083" lon="-92.096339">
        <ele>3598.277596017648</ele>
        <time>2019-12-01T15:28:01Z</time>
      </trkpt>
      <trkpt lat="15.129083" lon="-92.096316">
        <ele>3597.6499222859975</ele>
        <time>2019-12-01T15:28:06Z</time>
      </trkpt>
      <trkpt lat="15.129084" lon="-92.096305">
        <ele>3597.6498029623313</ele>
        <time>2019-12-01T15:28:10Z</time>
      </trkpt>
      <trkpt lat="15.129084" lon="-92.096296">
        <ele>3596.914847528478</ele>
        <time>2019-12-01T15:28:15Z</time>
      </trkpt>
      <trkpt lat="15.129076" lon="-92.096278">
        <ele>3594.714525934086</ele>
        <time>2019-12-01T15:28:20Z</time>
      </trkpt>
      <trkpt lat="15.129080" lon="-92.096257">
        <ele>3592.8016898395563</ele>
        <time>2019-12-01T15:28:24Z</time>
      </trkpt>
      <trkpt lat="15.129088" lon="-92.096238">
        <ele>3591.059990124095</ele>
        <time>2019-12-01T15:28:28Z</time>
      </trkpt>
      <trkpt lat="15.129097" lon="-92.096214">
        <ele>3591.05969205821</ele>
        <time>2019-12-01T15:28:32Z</time>
      </trkpt>
      <trkpt lat="15.129097" lon="-92.096204">
        <ele>3589.8235116086576</ele>
        <time>2019-12-01T15:28:36Z</time>
      </trkpt>
      <trkpt lat="15.129093" lon="-92.096197">
        <ele>3589.8234696373984</ele>
        <time>2019-12-01T15:28:41Z</time>
      </trkpt>
      <trkpt lat="15.129095" lon="-92.096189">
        <ele>3587.460340382575</ele>
        <time>2019-12-01T15:28:51Z</time>
      </trkpt>
      <trkpt lat="15.129102" lon="-92.096182">
        <ele>3586.427506029098</ele>
        <time>2019-12-01T15:28:56Z</time>
      </trkpt>
      <trkpt lat="15.129109" lon="-92.096171">
        <ele>3585.754734404491</ele>
        <time>2019-12-01T15:29:00Z</time>
      </trkpt>
      <trkpt lat="15.129112" lon="-92.096147">
        <ele>3585.568933548661</ele>
        <time>2019-12-01T15:29:05Z</time>
      </trkpt>
      <trkpt lat="15.129114" lon="-92.096138">
        <ele>3585.568832038994</ele>
        <time>2019-12-01T15:29:15Z</time>
      </trkpt>
      <trkpt lat="15.129108" lon="-92.096134">
        <ele>3585.447001044197</ele>
        <time>2019-12-01T15:29:20Z</time>
      </trkpt>
      <trkpt lat="15.129095" lon="-92.096127">
        <ele>3585.526849997886</ele>
        <time>2019-12-01T15:29:24Z</time>
      </trkpt>
      <trkpt lat="15.129084" lon="-92.096122">
        <ele>3584.987809479482</ele>
        <time>2019-12-01T15:29:28Z</time>
      </trkpt>
      <trkpt lat="15.129091" lon="-92.096107">
        <ele>3583.3662732467396</ele>
        <time>2019-12-01T15:29:32Z</time>
      </trkpt>
      <trkpt lat="15.129094" lon="-92.096093">
        <ele>3581.6542005085284</ele>
        <time>2019-12-01T15:29:36Z</time>
      </trkpt>
      <trkpt lat="15.129098" lon="-92.096061">
        <ele>3579.0476472465843</ele>
        <time>2019-12-01T15:29:41Z</time>
      </trkpt>
      <trkpt lat="15.129094" lon="-92.096038">
        <ele>3577.623852849104</ele>
        <time>2019-12-01T15:29:45Z</time>
      </trkpt>
      <trkpt lat="15.129083" lon="-92.096019">
        <ele>3575.930868334442</ele>
        <time>2019-12-01T15:29:49Z</time>
      </trkpt>
      <trkpt lat="15.129065" lon="-92.096017">
        <ele>3575.5981945833028</ele>
        <time>2019-12-01T15:29:53Z</time>
      </trkpt>
      <trkpt lat="15.129057" lon="-92.096016">
        <ele>3575.5389121805647</ele>
        <time>2019-12-01T15:29:57Z</time>
      </trkpt>
      <trkpt lat="15.129055" lon="-92.096005">
        <ele>3574.951175103568</ele>
        <time>2019-12-01T15:30:01Z</time>
      </trkpt>
      <trkpt lat="15.129050" lon="-92.095996">
        <ele>3574.2914444940407</ele>
        <time>2019-12-01T15:30:06Z</time>
      </trkpt>
      <trkpt lat="15.129028" lon="-92.095986">
        <ele>3572.9684857401517</ele>
        <time>2019-12-01T15:30:11Z</time>
      </trkpt>
      <trkpt lat="15.129011" lon="-92.095983">
        <ele>3572.968567597559</ele>
        <time>2019-12-01T15:30:15Z</time>
      </trkpt>
      <trkpt lat="15.129002" lon="-92.095985">
        <ele>3572.0741197686666</ele>
        <time>2019-12-01T15:30:20Z</time>
      </trkpt>
      <trkpt lat="15.128997" lon="-92.095990">
        <ele>3571.3073551641137</ele>
        <time>2019-12-01T15:30:56Z</time>
      </trkpt>
      <trkpt lat="15.128994" lon="-92.095976">
        <ele>3569.926863642193</ele>
        <time>2019-12-01T15:31:00Z</time>
      </trkpt>
      <trkpt lat="15.129002" lon="-92.095973">
        <ele>3568.775411153844</ele>
        <time>2019-12-01T15:31:28Z</time>
      </trkpt>
      <trkpt lat="15.128995" lon="-92.095975">
        <ele>3568.0645376042776</ele>
        <time>2019-12-01T15:31:32Z</time>
      </trkpt>
      <trkpt lat="15.128972" lon="-92.095974">
        <ele>3565.0778613685097</ele>
        <time>2019-12-01T15:31:36Z</time>
      </trkpt>
      <trkpt lat="15.128970" lon="-92.095967">
        <ele>3562.5546034985236</ele>
        <time>2019-12-01T15:31:41Z</time>
      </trkpt>
      <trkpt lat="15.128969" lon="-92.095939">
        <ele>3559.982803294841</ele>
        <time>2019-12-01T15:31:45Z</time>
      </trkpt>
      <trkpt lat="15.128974" lon="-92.095897">
        <ele>3557.898850871153</ele>
        <time>2019-12-01T15:31:50Z</time>
      </trkpt>
      <trkpt lat="15.128978" lon="-92.095877">
        <ele>3557.898627080791</ele>
        <time>2019-12-01T15:31:54Z</time>
      </trkpt>
      <trkpt lat="15.128980" lon="-92.095866">
        <ele>3557.9422007234925</ele>
        <time>2019-12-01T15:31:59Z</time>
      </trkpt>
      <trkpt lat="15.128974" lon="-92.095861">
        <ele>3557.5056669164637</ele>
        <time>2019-12-01T15:32:05Z</time>
      </trkpt>
      <trkpt lat="15.128958" lon="-92.095854">
        <ele>3556.665120288879</ele>
        <time>2019-12-01T15:32:09Z</time>
      </trkpt>
      <trkpt lat="15.128943" lon="-92.095854">
        <ele>3556.431819409071</ele>
        <time>2019-12-01T15:32:14Z</time>
      </trkpt>
      <trkpt lat="15.128934" lon="-92.095854">
        <ele>3556.4318815459233</ele>
        <time>2019-12-01T15:32:18Z</time>
      </trkpt>
      <trkpt lat="15.128926" lon="-92.095853">
        <ele>3554.9875838071753</ele>
        <time>2019-12-01T15:32:40Z</time>
      </trkpt>
      <trkpt lat="15.128913" lon="-92.095833">
        <ele>3552.7843425229753</ele>
        <time>2019-12-01T15:32:44Z</time>
      </trkpt>
      <trkpt lat="15.128910" lon="-92.095825">
        <ele>3551.133647852105</ele>
        <time>2019-12-01T15:32:53Z</time>
      </trkpt>
      <trkpt lat="15.128872" lon="-92.095837">
        <ele>3550.2411956563383</ele>
        <time>2019-12-01T15:32:57Z</time>
      </trkpt>
      <trkpt lat="15.128842" lon="-92.095846">
        <ele>3549.9905037429667</ele>
        <time>2019-12-01T15:33:01Z</time>
      </trkpt>
      <trkpt lat="15.128827" lon="-92.095854">
        <ele>3549.4186556018553</ele>
        <time>2019-12-01T15:33:05Z</time>
      </trkpt>
      <trkpt lat="15.128815" lon="-92.095860">
        <ele>3549.208105408371</ele>
        <time>2019-12-01T15:33:10Z</time>
      </trkpt>
      <trkpt lat="15.128807" lon="-92.095861">
        <ele>3549.3829662161825</ele>
        <time>2019-12-01T15:33:15Z</time>
      </trkpt>
      <trkpt lat="15.128793" lon="-92.095858">
        <ele>3546.341523036087</ele>
        <time>2019-12-01T15:33:20Z</time>
      </trkpt>
      <trkpt lat="15.128787" lon="-92.095827">
        <ele>3546.138859790213</ele>
        <time>2019-12-01T15:33:24Z</time>
      </trkpt>
      <trkpt lat="15.128773" lon="-92.095808">
        <ele>3546.1868511582625</ele>
        <time>2019-12-01T15:33:29Z</time>
      </trkpt>
      <trkpt lat="15.128760" lon="-92.095800">
        <ele>3545.837986223216</ele>
        <time>2019-12-01T15:33:33Z</time>
      </trkpt>
      <trkpt lat="15.128755" lon="-92.095799">
        <ele>3545.8380011125323</ele>
        <time>2019-12-01T15:33:39Z</time>
      </trkpt>
      <trkpt lat="15.128738" lon="-92.095796">
        <ele>3545.865181465626</ele>
        <time>2019-12-01T15:33:43Z</time>
      </trkpt>
      <trkpt lat="15.128717" lon="-92.095790">
        <ele>3545.8305888591676</ele>
        <time>2019-12-01T15:33:47Z</time>
      </trkpt>
      <trkpt lat="15.128702" lon="-92.095782">
        <ele>3544.8787038453206</ele>
        <time>2019-12-01T15:33:51Z</time>
      </trkpt>
      <trkpt lat="15.128689" lon="-92.095771">
        <ele>3544.721210563467</ele>
        <time>2019-12-01T15:33:56Z</time>
      </trkpt>
      <trkpt lat="15.128686" lon="-92.095753">
        <ele>3542.9224606053663</ele>
        <time>2019-12-01T15:34:00Z</time>
      </trkpt>
      <trkpt lat="15.128692" lon="-92.095736">
        <ele>3541.3026230405876</ele>
        <time>2019-12-01T15:34:04Z</time>
      </trkpt>
      <trkpt lat="15.128695" lon="-92.095720">
        <ele>3539.5165546183907</ele>
        <time>2019-12-01T15:34:08Z</time>
      </trkpt>
      <trkpt lat="15.128695" lon="-92.095702">
        <ele>3539.5163670201246</ele>
        <time>2019-12-01T15:34:13Z</time>
      </trkpt>
      <trkpt lat="15.128691" lon="-92.095694">
        <ele>3539.1466872592455</ele>
        <time>2019-12-01T15:34:24Z</time>
      </trkpt>
      <trkpt lat="15.128685" lon="-92.095688">
        <ele>3537.708671975868</ele>
        <time>2019-12-01T15:34:28Z</time>
      </trkpt>
      <trkpt lat="15.128672" lon="-92.095663">
        <ele>3535.798598983124</ele>
        <time>2019-12-01T15:34:33Z</time>
      </trkpt>
      <trkpt lat="15.128668" lon="-92.095648">
        <ele>3535.6961779199614</ele>
        <time>2019-12-01T15:34:37Z</time>
      </trkpt>
      <trkpt lat="15.128666" lon="-92.095640">
        <ele>3535.6961144999063</ele>
        <time>2019-12-01T15:34:42Z</time>
      </trkpt>
      <trkpt lat="15.128666" lon="-92.095629">
        <ele>3534.3827643056443</ele>
        <time>2019-12-01T15:34:47Z</time>
      </trkpt>
      <trkpt lat="15.128667" lon="-92.095621">
        <ele>3534.3255495476487</ele>
        <time>2019-12-01T15:34:52Z</time>
      </trkpt>
      <trkpt lat="15.128662" lon="-92.095610">
        <ele>3533.700476209033</ele>
        <time>2019-12-01T15:34:56Z</time>
      </trkpt>
      <trkpt lat="15.128652" lon="-92.095590">
        <ele>3533.503072537508</ele>
        <time>2019-12-01T15:35:00Z</time>
      </trkpt>
      <trkpt lat="15.128649" lon="-92.095571">
        <ele>3532.70969129632</ele>
        <time>2019-12-01T15:35:05Z</time>
      </trkpt>
      <trkpt lat="15.128649" lon="-92.095556">
        <ele>3532.709538198121</ele>
        <time>2019-12-01T15:35:10Z</time>
      </trkpt>
      <trkpt lat="15.128646" lon="-92.095548">
        <ele>3532.0244152661166</ele>
        <time>2019-12-01T15:35:18Z</time>
      </trkpt>
      <trkpt lat="15.128645" lon="-92.095539">
        <ele>3530.847087962449</ele>
        <time>2019-12-01T15:35:24Z</time>
      </trkpt>
      <trkpt lat="15.128645" lon="-92.095529">
        <ele>3530.8469822457087</ele>
        <time>2019-12-01T15:35:29Z</time>
      </trkpt>
      <trkpt lat="15.128648" lon="-92.095520">
        <ele>3528.838821529929</ele>
        <time>2019-12-01T15:35:36Z</time>
      </trkpt>
      <trkpt lat="15.128650" lon="-92.095511">
        <ele>3528.654876774897</ele>
        <time>2019-12-01T15:35:41Z</time>
      </trkpt>
      <trkpt lat="15.128645" lon="-92.095505">
        <ele>3527.4226698505054</ele>
        <time>2019-12-01T15:35:46Z</time>
      </trkpt>
      <trkpt lat="15.128638" lon="-92.095499">
        <ele>3526.6819391147064</ele>
        <time>2019-12-01T15:35:50Z</time>
      </trkpt>
      <trkpt lat="15.128629" lon="-92.095494">
        <ele>3525.945117867289</ele>
        <time>2019-12-01T15:35:55Z</time>
      </trkpt>
      <trkpt lat="15.128619" lon="-92.095492">
        <ele>3524.7034681959813</ele>
        <time>2019-12-01T15:35:59Z</time>
      </trkpt>
      <trkpt lat="15.128602" lon="-92.095477">
        <ele>3521.1787766459497</ele>
        <time>2019-12-01T15:36:04Z</time>
      </trkpt>
      <trkpt lat="15.128595" lon="-92.095444">
        <ele>3518.738298406622</ele>
        <time>2019-12-01T15:36:09Z</time>
      </trkpt>
      <trkpt lat="15.128589" lon="-92.095418">
        <ele>3517.3410996234015</ele>
        <time>2019-12-01T15:36:13Z</time>
      </trkpt>
      <trkpt lat="15.128576" lon="-92.095379">
        <ele>3515.6445086160547</ele>
        <time>2019-12-01T15:36:18Z</time>
      </trkpt>
      <trkpt lat="15.128567" lon="-92.095356">
        <ele>3512.5185973474245</ele>
        <time>2019-12-01T15:36:22Z</time>
      </trkpt>
      <trkpt lat="15.128565" lon="-92.095333">
        <ele>3511.1245802770827</ele>
        <time>2019-12-01T15:36:26Z</time>
      </trkpt>
      <trkpt lat="15.128559" lon="-92.095319">
        <ele>3510.836392651665</ele>
        <time>2019-12-01T15:36:30Z</time>
      </trkpt>
      <trkpt lat="15.128557" lon="-92.095300">
        <ele>3510.58010975109</ele>
        <time>2019-12-01T15:36:34Z</time>
      </trkpt>
      <trkpt lat="15.128532" lon="-92.095264">
        <ele>3507.8526177181466</ele>
        <time>2019-12-01T15:36:39Z</time>
      </trkpt>
      <trkpt lat="15.128515" lon="-92.095238">
        <ele>3506.4550020870497</ele>
        <time>2019-12-01T15:36:43Z</time>
      </trkpt>
      <trkpt lat="15.128498" lon="-92.095211">
        <ele>3506.421398244232</ele>
        <time>2019-12-01T15:36:48Z</time>
      </trkpt>
      <trkpt lat="15.128486" lon="-92.095207">
        <ele>3506.4617179819606</ele>
        <time>2019-12-01T15:36:52Z</time>
      </trkpt>
      <trkpt lat="15.128472" lon="-92.095208">
        <ele>3506.550197893333</ele>
        <time>2019-12-01T15:36:56Z</time>
      </trkpt>
      <trkpt lat="15.128467" lon="-92.095210">
        <ele>3507.592728074417</ele>
        <time>2019-12-01T15:37:04Z</time>
      </trkpt>
      <trkpt lat="15.128465" lon="-92.095225">
        <ele>3507.592901007386</ele>
        <time>2019-12-01T15:37:08Z</time>
      </trkpt>
      <trkpt lat="15.128466" lon="-92.095229">
        <ele>3507.756752070913</ele>
        <time>2019-12-01T15:38:47Z</time>
      </trkpt>
      <trkpt lat="15.128448" lon="-92.095257">
        <ele>3507.20770134694</ele>
        <time>2019-12-01T15:38:52Z</time>
      </trkpt>
      <trkpt lat="15.128448" lon="-92.095258">
        <ele>3504.811840781205</ele>
        <time>2019-12-01T15:40:33Z</time>
      </trkpt>
      <trkpt lat="15.128438" lon="-92.095200">
        <ele>3504.1526377089644</ele>
        <time>2019-12-01T15:40:37Z</time>
      </trkpt>
      <trkpt lat="15.128414" lon="-92.095218">
        <ele>3501.293345441979</ele>
        <time>2019-12-01T15:40:42Z</time>
      </trkpt>
      <trkpt lat="15.128393" lon="-92.095224">
        <ele>3499.657316861958</ele>
        <time>2019-12-01T15:40:47Z</time>
      </trkpt>
      <trkpt lat="15.128380" lon="-92.095225">
        <ele>3496.951598573062</ele>
        <time>2019-12-01T15:40:51Z</time>
      </trkpt>
      <trkpt lat="15.128372" lon="-92.095224">
        <ele>3496.82713694206</ele>
        <time>2019-12-01T15:40:56Z</time>
      </trkpt>
      <trkpt lat="15.128350" lon="-92.095229">
        <ele>3496.083671200087</ele>
        <time>2019-12-01T15:41:01Z</time>
      </trkpt>
      <trkpt lat="15.128325" lon="-92.095229">
        <ele>3496.116786494212</ele>
        <time>2019-12-01T15:41:06Z</time>
      </trkpt>
      <trkpt lat="15.128317" lon="-92.095229">
        <ele>3496.1168479749513</ele>
        <time>2019-12-01T15:41:10Z</time>
      </trkpt>
      <trkpt lat="15.128310" lon="-92.095229">
        <ele>3496.116886618747</ele>
        <time>2019-12-01T15:41:20Z</time>
      </trkpt>
      <trkpt lat="15.128289" lon="-92.095247">
        <ele>3494.7160887684677</ele>
        <time>2019-12-01T15:41:24Z</time>
      </trkpt>
      <trkpt lat="15.128223" lon="-92.095299">
        <ele>3493.8740111330644</ele>
        <time>2019-12-01T15:41:29Z</time>
      </trkpt>
      <trkpt lat="15.128201" lon="-92.095314">
        <ele>3494.198524479303</ele>
        <time>2019-12-01T15:41:33Z</time>
      </trkpt>
      <trkpt lat="15.128169" lon="-92.095333">
        <ele>3494.013865604576</ele>
        <time>2019-12-01T15:41:38Z</time>
      </trkpt>
      <trkpt lat="15.128155" lon="-92.095341">
        <ele>3494.0140335400865</ele>
        <time>2019-12-01T15:41:42Z</time>
      </trkpt>
      <trkpt lat="15.128147" lon="-92.095344">
        <ele>3494.014114733929</ele>
        <time>2019-12-01T15:41:46Z</time>
      </trkpt>
      <trkpt lat="15.128139" lon="-92.095347">
        <ele>3494.092574869546</ele>
        <time>2019-12-01T15:42:12Z</time>
      </trkpt>
      <trkpt lat="15.128119" lon="-92.095339">
        <ele>3494.5718635581843</ele>
        <time>2019-12-01T15:42:17Z</time>
      </trkpt>
      <trkpt lat="15.128112" lon="-92.095332">
        <ele>3494.571847488209</ele>
        <time>2019-12-01T15:42:21Z</time>
      </trkpt>
      <trkpt lat="15.128104" lon="-92.095327">
        <ele>3494.571847735558</ele>
        <time>2019-12-01T15:42:29Z</time>
      </trkpt>
      <trkpt lat="15.128095" lon="-92.095323">
        <ele>3494.2915878540175</ele>
        <time>2019-12-01T15:42:34Z</time>
      </trkpt>
      <trkpt lat="15.128074" lon="-92.095322">
        <ele>3493.9799509967825</ele>
        <time>2019-12-01T15:42:38Z</time>
      </trkpt>
      <trkpt lat="15.128046" lon="-92.095328">
        <ele>3493.3285811205133</ele>
        <time>2019-12-01T15:42:42Z</time>
      </trkpt>
      <trkpt lat="15.128023" lon="-92.095337">
        <ele>3493.060261666219</ele>
        <time>2019-12-01T15:42:47Z</time>
      </trkpt>
      <trkpt lat="15.128010" lon="-92.095343">
        <ele>3493.060406809618</ele>
        <time>2019-12-01T15:42:52Z</time>
      </trkpt>
      <trkpt lat="15.127998" lon="-92.095344">
        <ele>3493.482369193067</ele>
        <time>2019-12-01T15:42:57Z</time>
      </trkpt>
      <trkpt lat="15.127991" lon="-92.095344">
        <ele>3493.1230434193803</ele>
        <time>2019-12-01T15:43:01Z</time>
      </trkpt>
      <trkpt lat="15.127974" lon="-92.095339">
        <ele>3492.197073356248</ele>
        <time>2019-12-01T15:43:06Z</time>
      </trkpt>
      <trkpt lat="15.127956" lon="-92.095334">
        <ele>3490.9730198851043</ele>
        <time>2019-12-01T15:43:10Z</time>
      </trkpt>
      <trkpt lat="15.127909" lon="-92.095324">
        <ele>3489.488604855052</ele>
        <time>2019-12-01T15:43:14Z</time>
      </trkpt>
      <trkpt lat="15.127889" lon="-92.095321">
        <ele>3489.4886999580594</ele>
        <time>2019-12-01T15:43:19Z</time>
      </trkpt>
      <trkpt lat="15.127880" lon="-92.095319">
        <ele>3489.4887418863595</ele>
        <time>2019-12-01T15:43:25Z</time>
      </trkpt>
      <trkpt lat="15.127875" lon="-92.095319">
        <ele>3489.26465273383</ele>
        <time>2019-12-01T15:43:34Z</time>
      </trkpt>
      <trkpt lat="15.127850" lon="-92.095324">
        <ele>3489.1466954510147</ele>
        <time>2019-12-01T15:43:39Z</time>
      </trkpt>
      <trkpt lat="15.127841" lon="-92.095326">
        <ele>3489.146780978069</ele>
        <time>2019-12-01T15:43:43Z</time>
      </trkpt>
      <trkpt lat="15.127825" lon="-92.095323">
        <ele>3489.2144811370486</ele>
        <time>2019-12-01T15:43:47Z</time>
      </trkpt>
      <trkpt lat="15.127803" lon="-92.095304">
        <ele>3488.625569298625</ele>
        <time>2019-12-01T15:43:52Z</time>
      </trkpt>
      <trkpt lat="15.127785" lon="-92.095287">
        <ele>3488.5249258724452</ele>
        <time>2019-12-01T15:43:56Z</time>
      </trkpt>
      <trkpt lat="15.127766" lon="-92.095269">
        <ele>3487.7130994301756</ele>
        <time>2019-12-01T15:44:00Z</time>
      </trkpt>
      <trkpt lat="15.127751" lon="-92.095249">
        <ele>3485.596790710706</ele>
        <time>2019-12-01T15:44:04Z</time>
      </trkpt>
      <trkpt lat="15.127733" lon="-92.095222">
        <ele>3484.3295423301347</ele>
        <time>2019-12-01T15:44:08Z</time>
      </trkpt>
      <trkpt lat="15.127715" lon="-92.095203">
        <ele>3484.0311203635983</ele>
        <time>2019-12-01T15:44:12Z</time>
      </trkpt>
      <trkpt lat="15.127706" lon="-92.095194">
        <ele>3484.0310877914662</ele>
        <time>2019-12-01T15:44:16Z</time>
      </trkpt>
      <trkpt lat="15.127701" lon="-92.095187">
        <ele>3484.031057668518</ele>
        <time>2019-12-01T15:44:24Z</time>
      </trkpt>
      <trkpt lat="15.127694" lon="-92.095182">
        <ele>3481.8245035943164</ele>
        <time>2019-12-01T15:44:37Z</time>
      </trkpt>
      <trkpt lat="15.127675" lon="-92.095144">
        <ele>3476.3742961560133</ele>
        <time>2019-12-01T15:44:42Z</time>
      </trkpt>
      <trkpt lat="15.127665" lon="-92.095118">
        <ele>3473.364827421923</ele>
        <time>2019-12-01T15:44:46Z</time>
      </trkpt>
      <trkpt lat="15.127649" lon="-92.095105">
        <ele>3472.998580845963</ele>
        <time>2019-12-01T15:44:50Z</time>
      </trkpt>
      <trkpt lat="15.127625" lon="-92.095102">
        <ele>3470.6434803617226</ele>
        <time>2019-12-01T15:44:54Z</time>
      </trkpt>
      <trkpt lat="15.127608" lon="-92.095109">
        <ele>3468.0301472563815</ele>
        <time>2019-12-01T15:44:59Z</time>
      </trkpt>
      <trkpt lat="15.127591" lon="-92.095120">
        <ele>3467.8372489162643</ele>
        <time>2019-12-01T15:45:04Z</time>
      </trkpt>
      <trkpt lat="15.127560" lon="-92.095123">
        <ele>3467.9397725623753</ele>
        <time>2019-12-01T15:45:09Z</time>
      </trkpt>
      <trkpt lat="15.127527" lon="-92.095128">
        <ele>3467.5076597790835</ele>
        <time>2019-12-01T15:45:13Z</time>
      </trkpt>
      <trkpt lat="15.127514" lon="-92.095125">
        <ele>3467.08267533298</ele>
        <time>2019-12-01T15:45:17Z</time>
      </trkpt>
      <trkpt lat="15.127489" lon="-92.095124">
        <ele>3467.078181256955</ele>
        <time>2019-12-01T15:45:22Z</time>
      </trkpt>
      <trkpt lat="15.127475" lon="-92.095135">
        <ele>3467.031269990151</ele>
        <time>2019-12-01T15:45:26Z</time>
      </trkpt>
      <trkpt lat="15.127459" lon="-92.095137">
        <ele>3466.541642542649</ele>
        <time>2019-12-01T15:45:31Z</time>
      </trkpt>
      <trkpt lat="15.127429" lon="-92.095123">
        <ele>3466.5001920351892</ele>
        <time>2019-12-01T15:45:36Z</time>
      </trkpt>
      <trkpt lat="15.127404" lon="-92.095117">
        <ele>3465.059866580524</ele>
        <time>2019-12-01T15:45:40Z</time>
      </trkpt>
      <trkpt lat="15.127361" lon="-92.095121">
        <ele>3464.4515388990117</ele>
        <time>2019-12-01T15:45:45Z</time>
      </trkpt>
      <trkpt lat="15.127329" lon="-92.095130">
        <ele>3464.397639103556</ele>
        <time>2019-12-01T15:45:49Z</time>
      </trkpt>
      <trkpt lat="15.127313" lon="-92.095135">
        <ele>3464.397795210673</ele>
        <time>2019-12-01T15:45:54Z</time>
      </trkpt>
      <trkpt lat="15.127305" lon="-92.095137">
        <ele>3464.3080247945754</ele>
        <time>2019-12-01T15:46:00Z</time>
      </trkpt>
      <trkpt lat="15.127287" lon="-92.095142">
        <ele>3464.133623218848</ele>
        <time>2019-12-01T15:46:05Z</time>
      </trkpt>
      <trkpt lat="15.127275" lon="-92.095145">
        <ele>3464.133728395295</ele>
        <time>2019-12-01T15:46:10Z</time>
      </trkpt>
      <trkpt lat="15.127268" lon="-92.095146">
        <ele>3464.1337891948024</ele>
        <time>2019-12-01T15:46:19Z</time>
      </trkpt>
      <trkpt lat="15.127224" lon="-92.095145">
        <ele>3460.1494470889984</ele>
        <time>2019-12-01T15:46:24Z</time>
      </trkpt>
      <trkpt lat="15.127163" lon="-92.095154">
        <ele>3459.8113080695816</ele>
        <time>2019-12-01T15:46:28Z</time>
      </trkpt>
      <trkpt lat="15.127091" lon="-92.095167">
        <ele>3458.4832888790284</ele>
        <time>2019-12-01T15:46:32Z</time>
      </trkpt>
      <trkpt lat="15.127029" lon="-92.095176">
        <ele>3456.721086273033</ele>
        <time>2019-12-01T15:46:36Z</time>
      </trkpt>
      <trkpt lat="15.126991" lon="-92.095182">
        <ele>3455.4096254427996</ele>
        <time>2019-12-01T15:46:40Z</time>
      </trkpt>
      <trkpt lat="15.126954" lon="-92.095185">
        <ele>3453.3461764083895</ele>
        <time>2019-12-01T15:46:44Z</time>
      </trkpt>
      <trkpt lat="15.126900" lon="-92.095208">
        <ele>3451.0994380907437</ele>
        <time>2019-12-01T15:46:49Z</time>
      </trkpt>
      <trkpt lat="15.126865" lon="-92.095231">
        <ele>3449.8223114251027</ele>
        <time>2019-12-01T15:46:53Z</time>
      </trkpt>
      <trkpt lat="15.126819" lon="-92.095270">
        <ele>3448.9592323723446</ele>
        <time>2019-12-01T15:46:58Z</time>
      </trkpt>
      <trkpt lat="15.126804" lon="-92.095284">
        <ele>3448.959471939538</ele>
        <time>2019-12-01T15:47:02Z</time>
      </trkpt>
      <trkpt lat="15.126796" lon="-92.095292">
        <ele>3448.9595984494013</ele>
        <time>2019-12-01T15:47:06Z</time>
      </trkpt>
      <trkpt lat="15.126791" lon="-92.095297">
        <ele>3449.2172568207893</ele>
        <time>2019-12-01T15:47:11Z</time>
      </trkpt>
      <trkpt lat="15.126782" lon="-92.095297">
        <ele>3450.2048602132863</ele>
        <time>2019-12-01T15:47:16Z</time>
      </trkpt>
      <trkpt lat="15.126768" lon="-92.095288">
        <ele>3450.359401325674</ele>
        <time>2019-12-01T15:47:21Z</time>
      </trkpt>
      <trkpt lat="15.126760" lon="-92.095286">
        <ele>3450.4107020655165</ele>
        <time>2019-12-01T15:47:25Z</time>
      </trkpt>
      <trkpt lat="15.126746" lon="-92.095285">
        <ele>3450.410776777795</ele>
        <time>2019-12-01T15:47:29Z</time>
      </trkpt>
      <trkpt lat="15.126738" lon="-92.095284">
        <ele>3450.4108252575775</ele>
        <time>2019-12-01T15:47:33Z</time>
      </trkpt>
      <trkpt lat="15.126730" lon="-92.095284">
        <ele>3450.1638068902043</ele>
        <time>2019-12-01T15:47:41Z</time>
      </trkpt>
      <trkpt lat="15.126716" lon="-92.095293">
        <ele>3449.3199913061126</ele>
        <time>2019-12-01T15:47:46Z</time>
      </trkpt>
      <trkpt lat="15.126690" lon="-92.095310">
        <ele>3447.8969921627954</ele>
        <time>2019-12-01T15:47:51Z</time>
      </trkpt>
      <trkpt lat="15.126668" lon="-92.095330">
        <ele>3447.451288405523</ele>
        <time>2019-12-01T15:47:55Z</time>
      </trkpt>
      <trkpt lat="15.126655" lon="-92.095343">
        <ele>3447.451499736247</ele>
        <time>2019-12-01T15:48:00Z</time>
      </trkpt>
      <trkpt lat="15.126643" lon="-92.095352">
        <ele>3445.0483501046606</ele>
        <time>2019-12-01T15:48:04Z</time>
      </trkpt>
      <trkpt lat="15.126598" lon="-92.095427">
        <ele>3443.856278281702</ele>
        <time>2019-12-01T15:48:09Z</time>
      </trkpt>
      <trkpt lat="15.126559" lon="-92.095467">
        <ele>3442.9318823195854</ele>
        <time>2019-12-01T15:48:14Z</time>
      </trkpt>
      <trkpt lat="15.126501" lon="-92.095512">
        <ele>3442.324065684523</ele>
        <time>2019-12-01T15:48:19Z</time>
      </trkpt>
      <trkpt lat="15.126476" lon="-92.095530">
        <ele>3441.537547700653</ele>
        <time>2019-12-01T15:48:23Z</time>
      </trkpt>
      <trkpt lat="15.126459" lon="-92.095545">
        <ele>3440.020717424594</ele>
        <time>2019-12-01T15:48:28Z</time>
      </trkpt>
      <trkpt lat="15.126445" lon="-92.095549">
        <ele>3436.7435049129735</ele>
        <time>2019-12-01T15:48:33Z</time>
      </trkpt>
      <trkpt lat="15.126427" lon="-92.095535">
        <ele>3436.36433272048</ele>
        <time>2019-12-01T15:48:38Z</time>
      </trkpt>
      <trkpt lat="15.126413" lon="-92.095530">
        <ele>3435.465685997463</ele>
        <time>2019-12-01T15:48:42Z</time>
      </trkpt>
      <trkpt lat="15.126402" lon="-92.095530">
        <ele>3435.465756407608</ele>
        <time>2019-12-01T15:48:46Z</time>
      </trkpt>
      <trkpt lat="15.126392" lon="-92.095533">
        <ele>3434.7768916104765</ele>
        <time>2019-12-01T15:48:51Z</time>
      </trkpt>
      <trkpt lat="15.126384" lon="-92.095541">
        <ele>3434.1210122256057</ele>
        <time>2019-12-01T15:48:55Z</time>
      </trkpt>
      <trkpt lat="15.126378" lon="-92.095546">
        <ele>3434.1211019468115</ele>
        <time>2019-12-01T15:49:00Z</time>
      </trkpt>
      <trkpt lat="15.126355" lon="-92.095564">
        <ele>3433.148282697712</ele>
        <time>2019-12-01T15:49:05Z</time>
      </trkpt>
      <trkpt lat="15.126315" lon="-92.095604">
        <ele>3433.023950646597</ele>
        <time>2019-12-01T15:49:09Z</time>
      </trkpt>
      <trkpt lat="15.126283" lon="-92.095634">
        <ele>3432.5657094968724</ele>
        <time>2019-12-01T15:49:13Z</time>
      </trkpt>
      <trkpt lat="15.126266" lon="-92.095647">
        <ele>3431.417033243698</ele>
        <time>2019-12-01T15:49:18Z</time>
      </trkpt>
      <trkpt lat="15.126252" lon="-92.095657">
        <ele>3429.8129711633055</ele>
        <time>2019-12-01T15:49:22Z</time>
      </trkpt>
      <trkpt lat="15.126228" lon="-92.095669">
        <ele>3424.7402494858543</ele>
        <time>2019-12-01T15:49:27Z</time>
      </trkpt>
      <trkpt lat="15.126199" lon="-92.095687">
        <ele>3422.0653275713344</ele>
        <time>2019-12-01T15:49:31Z</time>
      </trkpt>
      <trkpt lat="15.126181" lon="-92.095708">
        <ele>3419.330539125145</ele>
        <time>2019-12-01T15:49:36Z</time>
      </trkpt>
      <trkpt lat="15.126163" lon="-92.095704">
        <ele>3413.2681246407133</ele>
        <time>2019-12-01T15:49:41Z</time>
      </trkpt>
      <trkpt lat="15.126150" lon="-92.095693">
        <ele>3411.8764911395792</ele>
        <time>2019-12-01T15:49:45Z</time>
      </trkpt>
      <trkpt lat="15.126138" lon="-92.095677">
        <ele>3411.4059524380427</ele>
        <time>2019-12-01T15:49:49Z</time>
      </trkpt>
      <trkpt lat="15.126132" lon="-92.095663">
        <ele>3410.031098288416</ele>
        <time>2019-12-01T15:49:53Z</time>
      </trkpt>
      <trkpt lat="15.126124" lon="-92.095631">
        <ele>3408.154357182549</ele>
        <time>2019-12-01T15:49:58Z</time>
      </trkpt>
      <trkpt lat="15.126122" lon="-92.095618">
        <ele>3408.154239712894</ele>
        <time>2019-12-01T15:50:02Z</time>
      </trkpt>
      <trkpt lat="15.126121" lon="-92.095609">
        <ele>3408.154160539048</ele>
        <time>2019-12-01T15:50:10Z</time>
      </trkpt>
      <trkpt lat="15.126114" lon="-92.095607">
        <ele>3407.056525763915</ele>
        <time>2019-12-01T15:50:15Z</time>
      </trkpt>
      <trkpt lat="15.126094" lon="-92.095614">
        <ele>3406.5740666276342</ele>
        <time>2019-12-01T15:50:20Z</time>
      </trkpt>
      <trkpt lat="15.126073" lon="-92.095624">
        <ele>3405.8521326792397</ele>
        <time>2019-12-01T15:50:24Z</time>
      </trkpt>
      <trkpt lat="15.126050" lon="-92.095632">
        <ele>3405.2639833865587</ele>
        <time>2019-12-01T15:50:28Z</time>
      </trkpt>
      <trkpt lat="15.126031" lon="-92.095643">
        <ele>3403.7056168742165</ele>
        <time>2019-12-01T15:50:32Z</time>
      </trkpt>
      <trkpt lat="15.126015" lon="-92.095655">
        <ele>3402.187292962634</ele>
        <time>2019-12-01T15:50:36Z</time>
      </trkpt>
      <trkpt lat="15.126002" lon="-92.095666">
        <ele>3402.1874862721074</ele>
        <time>2019-12-01T15:50:41Z</time>
      </trkpt>
      <trkpt lat="15.125988" lon="-92.095669">
        <ele>3402.346780525142</ele>
        <time>2019-12-01T15:50:45Z</time>
      </trkpt>
      <trkpt lat="15.125971" lon="-92.095667">
        <ele>3401.691841447815</ele>
        <time>2019-12-01T15:50:49Z</time>
      </trkpt>
      <trkpt lat="15.125957" lon="-92.095651">
        <ele>3399.131223754817</ele>
        <time>2019-12-01T15:50:54Z</time>
      </trkpt>
      <trkpt lat="15.125944" lon="-92.095626">
        <ele>3396.3107475994925</ele>
        <time>2019-12-01T15:50:59Z</time>
      </trkpt>
      <trkpt lat="15.125925" lon="-92.095603">
        <ele>3394.114111869147</ele>
        <time>2019-12-01T15:51:03Z</time>
      </trkpt>
      <trkpt lat="15.125905" lon="-92.095597">
        <ele>3392.1127109534996</ele>
        <time>2019-12-01T15:51:07Z</time>
      </trkpt>
      <trkpt lat="15.125897" lon="-92.095604">
        <ele>3391.26810339411</ele>
        <time>2019-12-01T15:51:11Z</time>
      </trkpt>
      <trkpt lat="15.125888" lon="-92.095614">
        <ele>3391.6637750377304</ele>
        <time>2019-12-01T15:51:15Z</time>
      </trkpt>
      <trkpt lat="15.125868" lon="-92.095615">
        <ele>3391.211280126965</ele>
        <time>2019-12-01T15:51:20Z</time>
      </trkpt>
      <trkpt lat="15.125845" lon="-92.095603">
        <ele>3388.4605687857807</ele>
        <time>2019-12-01T15:51:25Z</time>
      </trkpt>
      <trkpt lat="15.125834" lon="-92.095584">
        <ele>3388.686774372132</ele>
        <time>2019-12-01T15:51:29Z</time>
      </trkpt>
      <trkpt lat="15.125826" lon="-92.095577">
        <ele>3387.716292039712</ele>
        <time>2019-12-01T15:51:34Z</time>
      </trkpt>
      <trkpt lat="15.125821" lon="-92.095574">
        <ele>3387.3940347023195</ele>
        <time>2019-12-01T15:51:39Z</time>
      </trkpt>
      <trkpt lat="15.125803" lon="-92.095579">
        <ele>3386.863192225123</ele>
        <time>2019-12-01T15:51:44Z</time>
      </trkpt>
      <trkpt lat="15.125790" lon="-92.095581">
        <ele>3386.775896718912</ele>
        <time>2019-12-01T15:51:48Z</time>
      </trkpt>
      <trkpt lat="15.125771" lon="-92.095586">
        <ele>3386.226264242879</ele>
        <time>2019-12-01T15:51:52Z</time>
      </trkpt>
      <trkpt lat="15.125751" lon="-92.095595">
        <ele>3385.8102244687575</ele>
        <time>2019-12-01T15:51:56Z</time>
      </trkpt>
      <trkpt lat="15.125743" lon="-92.095598">
        <ele>3384.6542991652764</ele>
        <time>2019-12-01T15:52:01Z</time>
      </trkpt>
      <trkpt lat="15.125729" lon="-92.095594">
        <ele>3384.6870682610866</ele>
        <time>2019-12-01T15:52:06Z</time>
      </trkpt>
      <trkpt lat="15.125709" lon="-92.095599">
        <ele>3384.210440520874</ele>
        <time>2019-12-01T15:52:10Z</time>
      </trkpt>
      <trkpt lat="15.125690" lon="-92.095606">
        <ele>3383.7028104797237</ele>
        <time>2019-12-01T15:52:14Z</time>
      </trkpt>
      <trkpt lat="15.125671" lon="-92.095606">
        <ele>3383.755913481537</ele>
        <time>2019-12-01T15:52:18Z</time>
      </trkpt>
      <trkpt lat="15.125660" lon="-92.095606">
        <ele>3383.755985021163</ele>
        <time>2019-12-01T15:52:22Z</time>
      </trkpt>
      <trkpt lat="15.125653" lon="-92.095603">
        <ele>3382.4500984500114</ele>
        <time>2019-12-01T15:52:26Z</time>
      </trkpt>
      <trkpt lat="15.125642" lon="-92.095571">
        <ele>3376.3084900729223</ele>
        <time>2019-12-01T15:52:31Z</time>
      </trkpt>
      <trkpt lat="15.125637" lon="-92.095539">
        <ele>3373.0252396386377</ele>
        <time>2019-12-01T15:52:35Z</time>
      </trkpt>
      <trkpt lat="15.125620" lon="-92.095505">
        <ele>3372.339218541131</ele>
        <time>2019-12-01T15:52:39Z</time>
      </trkpt>
      <trkpt lat="15.125607" lon="-92.095477">
        <ele>3370.4554810229574</ele>
        <time>2019-12-01T15:52:44Z</time>
      </trkpt>
      <trkpt lat="15.125601" lon="-92.095457">
        <ele>3370.0480965558245</ele>
        <time>2019-12-01T15:52:48Z</time>
      </trkpt>
      <trkpt lat="15.125598" lon="-92.095447">
        <ele>3370.048015043622</ele>
        <time>2019-12-01T15:52:53Z</time>
      </trkpt>
      <trkpt lat="15.125592" lon="-92.095437">
        <ele>3369.972268983482</ele>
        <time>2019-12-01T15:52:57Z</time>
      </trkpt>
      <trkpt lat="15.125578" lon="-92.095424">
        <ele>3370.078427644963</ele>
        <time>2019-12-01T15:53:01Z</time>
      </trkpt>
      <trkpt lat="15.125547" lon="-92.095424">
        <ele>3370.535906370353</ele>
        <time>2019-12-01T15:53:06Z</time>
      </trkpt>
      <trkpt lat="15.125522" lon="-92.095437">
        <ele>3370.947566458823</ele>
        <time>2019-12-01T15:53:10Z</time>
      </trkpt>
      <trkpt lat="15.125511" lon="-92.095445">
        <ele>3371.0195071323383</ele>
        <time>2019-12-01T15:53:14Z</time>
      </trkpt>
      <trkpt lat="15.125484" lon="-92.095453">
        <ele>3369.9360125139337</ele>
        <time>2019-12-01T15:53:19Z</time>
      </trkpt>
      <trkpt lat="15.125462" lon="-92.095457">
        <ele>3368.5345846816626</ele>
        <time>2019-12-01T15:53:23Z</time>
      </trkpt>
      <trkpt lat="15.125437" lon="-92.095440">
        <ele>3367.510167812913</ele>
        <time>2019-12-01T15:53:28Z</time>
      </trkpt>
      <trkpt lat="15.125419" lon="-92.095420">
        <ele>3365.2708281176533</ele>
        <time>2019-12-01T15:53:32Z</time>
      </trkpt>
      <trkpt lat="15.125407" lon="-92.095398">
        <ele>3362.204518774538</ele>
        <time>2019-12-01T15:53:36Z</time>
      </trkpt>
      <trkpt lat="15.125400" lon="-92.095369">
        <ele>3361.346120650631</ele>
        <time>2019-12-01T15:53:41Z</time>
      </trkpt>
      <trkpt lat="15.125394" lon="-92.095355">
        <ele>3361.4893240418946</ele>
        <time>2019-12-01T15:53:45Z</time>
      </trkpt>
      <trkpt lat="15.125379" lon="-92.095354">
        <ele>3361.546058085342</ele>
        <time>2019-12-01T15:53:50Z</time>
      </trkpt>
      <trkpt lat="15.125363" lon="-92.095352">
        <ele>3359.8940368360263</ele>
        <time>2019-12-01T15:53:54Z</time>
      </trkpt>
      <trkpt lat="15.125355" lon="-92.095349">
        <ele>3359.8940650805876</ele>
        <time>2019-12-01T15:53:58Z</time>
      </trkpt>
      <trkpt lat="15.125344" lon="-92.095344">
        <ele>3360.2288069053866</ele>
        <time>2019-12-01T15:54:02Z</time>
      </trkpt>
      <trkpt lat="15.125329" lon="-92.095344">
        <ele>3360.161265532353</ele>
        <time>2019-12-01T15:54:06Z</time>
      </trkpt>
      <trkpt lat="15.125319" lon="-92.095348">
        <ele>3359.8015133463523</ele>
        <time>2019-12-01T15:54:10Z</time>
      </trkpt>
      <trkpt lat="15.125313" lon="-92.095351">
        <ele>3359.592111506749</ele>
        <time>2019-12-01T15:54:14Z</time>
      </trkpt>
      <trkpt lat="15.125300" lon="-92.095357">
        <ele>3358.3588563384665</ele>
        <time>2019-12-01T15:54:19Z</time>
      </trkpt>
      <trkpt lat="15.125282" lon="-92.095352">
        <ele>3357.3088674043092</ele>
        <time>2019-12-01T15:54:23Z</time>
      </trkpt>
      <trkpt lat="15.125268" lon="-92.095344">
        <ele>3357.308889051277</ele>
        <time>2019-12-01T15:54:28Z</time>
      </trkpt>
      <trkpt lat="15.125259" lon="-92.095341">
        <ele>3356.289136369007</ele>
        <time>2019-12-01T15:54:32Z</time>
      </trkpt>
      <trkpt lat="15.125246" lon="-92.095336">
        <ele>3354.341658577272</ele>
        <time>2019-12-01T15:54:36Z</time>
      </trkpt>
      <trkpt lat="15.125233" lon="-92.095325">
        <ele>3352.7818239201797</ele>
        <time>2019-12-01T15:54:40Z</time>
      </trkpt>
      <trkpt lat="15.125221" lon="-92.095311">
        <ele>3351.5493336425516</ele>
        <time>2019-12-01T15:54:44Z</time>
      </trkpt>
      <trkpt lat="15.125207" lon="-92.095289">
        <ele>3350.615610797344</ele>
        <time>2019-12-01T15:54:48Z</time>
      </trkpt>
      <trkpt lat="15.125200" lon="-92.095277">
        <ele>3350.615539803831</ele>
        <time>2019-12-01T15:54:52Z</time>
      </trkpt>
      <trkpt lat="15.125194" lon="-92.095271">
        <ele>3351.985631220804</ele>
        <time>2019-12-01T15:54:59Z</time>
      </trkpt>
      <trkpt lat="15.125180" lon="-92.095272">
        <ele>3352.402722393832</ele>
        <time>2019-12-01T15:55:04Z</time>
      </trkpt>
      <trkpt lat="15.125155" lon="-92.095276">
        <ele>3352.6988301686906</ele>
        <time>2019-12-01T15:55:09Z</time>
      </trkpt>
      <trkpt lat="15.125145" lon="-92.095284">
        <ele>3352.754874960539</ele>
        <time>2019-12-01T15:55:13Z</time>
      </trkpt>
      <trkpt lat="15.125139" lon="-92.095291">
        <ele>3352.7549926734087</ele>
        <time>2019-12-01T15:55:18Z</time>
      </trkpt>
      <trkpt lat="15.125130" lon="-92.095296">
        <ele>3352.044647815264</ele>
        <time>2019-12-01T15:55:22Z</time>
      </trkpt>
      <trkpt lat="15.125113" lon="-92.095309">
        <ele>3351.870326725707</ele>
        <time>2019-12-01T15:55:26Z</time>
      </trkpt>
      <trkpt lat="15.125101" lon="-92.095320">
        <ele>3351.870520390754</ele>
        <time>2019-12-01T15:55:30Z</time>
      </trkpt>
      <trkpt lat="15.125094" lon="-92.095326">
        <ele>3351.8706236055673</ele>
        <time>2019-12-01T15:55:35Z</time>
      </trkpt>
      <trkpt lat="15.125082" lon="-92.095331">
        <ele>3351.0558088551934</ele>
        <time>2019-12-01T15:55:40Z</time>
      </trkpt>
      <trkpt lat="15.125058" lon="-92.095339">
        <ele>3349.927376021404</ele>
        <time>2019-12-01T15:55:44Z</time>
      </trkpt>
      <trkpt lat="15.124978" lon="-92.095358">
        <ele>3348.5687096943843</ele>
        <time>2019-12-01T15:55:49Z</time>
      </trkpt>
      <trkpt lat="15.124938" lon="-92.095369">
        <ele>3348.652821362791</ele>
        <time>2019-12-01T15:55:53Z</time>
      </trkpt>
      <trkpt lat="15.124919" lon="-92.095375">
        <ele>3348.6530096965134</ele>
        <time>2019-12-01T15:55:57Z</time>
      </trkpt>
      <trkpt lat="15.124885" lon="-92.095380">
        <ele>3349.8144024053113</ele>
        <time>2019-12-01T15:56:02Z</time>
      </trkpt>
      <trkpt lat="15.124844" lon="-92.095384">
        <ele>3349.7866421211193</ele>
        <time>2019-12-01T15:56:07Z</time>
      </trkpt>
      <trkpt lat="15.124820" lon="-92.095388">
        <ele>3349.490205540509</ele>
        <time>2019-12-01T15:56:11Z</time>
      </trkpt>
      <trkpt lat="15.124804" lon="-92.095391">
        <ele>3349.226176515031</ele>
        <time>2019-12-01T15:56:15Z</time>
      </trkpt>
      <trkpt lat="15.124783" lon="-92.095400">
        <ele>3348.8291772584935</ele>
        <time>2019-12-01T15:56:20Z</time>
      </trkpt>
      <trkpt lat="15.124775" lon="-92.095403">
        <ele>3348.8292601058824</ele>
        <time>2019-12-01T15:56:24Z</time>
      </trkpt>
      <trkpt lat="15.124769" lon="-92.095405">
        <ele>3348.8344497848543</ele>
        <time>2019-12-01T15:56:30Z</time>
      </trkpt>
      <trkpt lat="15.124741" lon="-92.095409">
        <ele>3347.7206580666657</ele>
        <time>2019-12-01T15:56:35Z</time>
      </trkpt>
      <trkpt lat="15.124689" lon="-92.095416">
        <ele>3346.6832255478403</ele>
        <time>2019-12-01T15:56:40Z</time>
      </trkpt>
      <trkpt lat="15.124664" lon="-92.095418">
        <ele>3346.9710035406556</ele>
        <time>2019-12-01T15:56:44Z</time>
      </trkpt>
      <trkpt lat="15.124636" lon="-92.095417">
        <ele>3347.160623355763</ele>
        <time>2019-12-01T15:56:49Z</time>
      </trkpt>
      <trkpt lat="15.124626" lon="-92.095416">
        <ele>3347.1606860442803</ele>
        <time>2019-12-01T15:56:53Z</time>
      </trkpt>
      <trkpt lat="15.124617" lon="-92.095416">
        <ele>3347.160735469012</ele>
        <time>2019-12-01T15:57:01Z</time>
      </trkpt>
      <trkpt lat="15.124569" lon="-92.095413">
        <ele>3346.626357013405</ele>
        <time>2019-12-01T15:57:06Z</time>
      </trkpt>
      <trkpt lat="15.124502" lon="-92.095416">
        <ele>3346.4388270059517</ele>
        <time>2019-12-01T15:57:11Z</time>
      </trkpt>
      <trkpt lat="15.124478" lon="-92.095418">
        <ele>3346.439004402815</ele>
        <time>2019-12-01T15:57:15Z</time>
      </trkpt>
      <trkpt lat="15.124464" lon="-92.095419">
        <ele>3346.439099908937</ele>
        <time>2019-12-01T15:57:19Z</time>
      </trkpt>
      <trkpt lat="15.124452" lon="-92.095422">
        <ele>3343.909179771995</ele>
        <time>2019-12-01T15:57:23Z</time>
      </trkpt>
      <trkpt lat="15.124428" lon="-92.095433">
        <ele>3341.9961200360335</ele>
        <time>2019-12-01T15:57:27Z</time>
      </trkpt>
      <trkpt lat="15.124412" lon="-92.095443">
        <ele>3340.193343710706</ele>
        <time>2019-12-01T15:57:31Z</time>
      </trkpt>
      <trkpt lat="15.124383" lon="-92.095473">
        <ele>3339.5903108432553</ele>
        <time>2019-12-01T15:57:36Z</time>
      </trkpt>
      <trkpt lat="15.124369" lon="-92.095488">
        <ele>3339.590551027856</ele>
        <time>2019-12-01T15:57:40Z</time>
      </trkpt>
      <trkpt lat="15.124363" lon="-92.095495">
        <ele>3339.5906633802065</ele>
        <time>2019-12-01T15:57:44Z</time>
      </trkpt>
      <trkpt lat="15.124352" lon="-92.095504">
        <ele>3339.134282570867</ele>
        <time>2019-12-01T15:57:49Z</time>
      </trkpt>
      <trkpt lat="15.124328" lon="-92.095517">
        <ele>3338.3210916982025</ele>
        <time>2019-12-01T15:57:53Z</time>
      </trkpt>
      <trkpt lat="15.124295" lon="-92.095526">
        <ele>3337.81699837096</ele>
        <time>2019-12-01T15:57:58Z</time>
      </trkpt>
      <trkpt lat="15.124271" lon="-92.095536">
        <ele>3336.4642270369864</ele>
        <time>2019-12-01T15:58:03Z</time>
      </trkpt>
      <trkpt lat="15.124227" lon="-92.095566">
        <ele>3334.572478758935</ele>
        <time>2019-12-01T15:58:08Z</time>
      </trkpt>
      <trkpt lat="15.124198" lon="-92.095572">
        <ele>3334.5727282020484</ele>
        <time>2019-12-01T15:58:12Z</time>
      </trkpt>
      <trkpt lat="15.124182" lon="-92.095576">
        <ele>3333.833609042921</ele>
        <time>2019-12-01T15:58:16Z</time>
      </trkpt>
      <trkpt lat="15.124151" lon="-92.095579">
        <ele>3332.244001059566</ele>
        <time>2019-12-01T15:58:20Z</time>
      </trkpt>
      <trkpt lat="15.124126" lon="-92.095584">
        <ele>3331.44635374079</ele>
        <time>2019-12-01T15:58:24Z</time>
      </trkpt>
      <trkpt lat="15.124101" lon="-92.095586">
        <ele>3329.7995655458312</ele>
        <time>2019-12-01T15:58:28Z</time>
      </trkpt>
      <trkpt lat="15.124068" lon="-92.095600">
        <ele>3327.5330726645825</ele>
        <time>2019-12-01T15:58:32Z</time>
      </trkpt>
      <trkpt lat="15.124041" lon="-92.095618">
        <ele>3325.3039328942778</ele>
        <time>2019-12-01T15:58:36Z</time>
      </trkpt>
      <trkpt lat="15.124022" lon="-92.095642">
        <ele>3321.66440488816</ele>
        <time>2019-12-01T15:58:40Z</time>
      </trkpt>
      <trkpt lat="15.124002" lon="-92.095667">
        <ele>3321.6647859703576</ele>
        <time>2019-12-01T15:58:44Z</time>
      </trkpt>
      <trkpt lat="15.123992" lon="-92.095677">
        <ele>3321.664950426652</ele>
        <time>2019-12-01T15:58:49Z</time>
      </trkpt>
      <trkpt lat="15.123985" lon="-92.095683">
        <ele>3321.665052956137</ele>
        <time>2019-12-01T15:59:03Z</time>
      </trkpt>
      <trkpt lat="15.123978" lon="-92.095686">
        <ele>3320.9056124779063</ele>
        <time>2019-12-01T15:59:10Z</time>
      </trkpt>
      <trkpt lat="15.123943" lon="-92.095704">
        <ele>3319.7075302455946</ele>
        <time>2019-12-01T15:59:14Z</time>
      </trkpt>
      <trkpt lat="15.123905" lon="-92.095722">
        <ele>3318.249208920017</ele>
        <time>2019-12-01T15:59:18Z</time>
      </trkpt>
      <trkpt lat="15.123866" lon="-92.095751">
        <ele>3317.1284119931565</ele>
        <time>2019-12-01T15:59:23Z</time>
      </trkpt>
      <trkpt lat="15.123841" lon="-92.095778">
        <ele>3314.8212388335196</ele>
        <time>2019-12-01T15:59:28Z</time>
      </trkpt>
      <trkpt lat="15.123827" lon="-92.095794">
        <ele>3314.8214852442175</ele>
        <time>2019-12-01T15:59:32Z</time>
      </trkpt>
      <trkpt lat="15.123821" lon="-92.095803">
        <ele>3314.433423500907</ele>
        <time>2019-12-01T15:59:36Z</time>
      </trkpt>
      <trkpt lat="15.123809" lon="-92.095814">
        <ele>3314.2387976611085</ele>
        <time>2019-12-01T15:59:40Z</time>
      </trkpt>
      <trkpt lat="15.123777" lon="-92.095839">
        <ele>3313.3974508374454</ele>
        <time>2019-12-01T15:59:44Z</time>
      </trkpt>
      <trkpt lat="15.123738" lon="-92.095872">
        <ele>3312.2056496061623</ele>
        <time>2019-12-01T15:59:49Z</time>
      </trkpt>
      <trkpt lat="15.123707" lon="-92.095902">
        <ele>3311.4124483084493</ele>
        <time>2019-12-01T15:59:53Z</time>
      </trkpt>
      <trkpt lat="15.123673" lon="-92.095944">
        <ele>3310.7670869517524</ele>
        <time>2019-12-01T15:59:58Z</time>
      </trkpt>
      <trkpt lat="15.123660" lon="-92.095967">
        <ele>3310.4380575035057</ele>
        <time>2019-12-01T16:00:02Z</time>
      </trkpt>
      <trkpt lat="15.123643" lon="-92.095991">
        <ele>3307.9493941481555</ele>
        <time>2019-12-01T16:00:07Z</time>
      </trkpt>
      <trkpt lat="15.123627" lon="-92.096002">
        <ele>3306.5965801042707</ele>
        <time>2019-12-01T16:00:11Z</time>
      </trkpt>
      <trkpt lat="15.123600" lon="-92.096020">
        <ele>3305.6770119911316</ele>
        <time>2019-12-01T16:00:16Z</time>
      </trkpt>
      <trkpt lat="15.123588" lon="-92.096029">
        <ele>3305.6290812584457</ele>
        <time>2019-12-01T16:00:20Z</time>
      </trkpt>
      <trkpt lat="15.123559" lon="-92.096049">
        <ele>3304.668043625722</ele>
        <time>2019-12-01T16:00:24Z</time>
      </trkpt>
      <trkpt lat="15.123536" lon="-92.096070">
        <ele>3306.381784676341</ele>
        <time>2019-12-01T16:00:28Z</time>
      </trkpt>
      <trkpt lat="15.123500" lon="-92.096117">
        <ele>3306.5585147718803</ele>
        <time>2019-12-01T16:00:32Z</time>
      </trkpt>
      <trkpt lat="15.123479" lon="-92.096143">
        <ele>3306.5633022767524</ele>
        <time>2019-12-01T16:00:36Z</time>
      </trkpt>
      <trkpt lat="15.123465" lon="-92.096160">
        <ele>3306.4529633626025</ele>
        <time>2019-12-01T16:00:40Z</time>
      </trkpt>
      <trkpt lat="15.123457" lon="-92.096180">
        <ele>3303.123373077601</ele>
        <time>2019-12-01T16:00:44Z</time>
      </trkpt>
      <trkpt lat="15.123445" lon="-92.096216">
        <ele>3302.5456949489494</ele>
        <time>2019-12-01T16:00:48Z</time>
      </trkpt>
      <trkpt lat="15.123432" lon="-92.096254">
        <ele>3299.790786072722</ele>
        <time>2019-12-01T16:00:53Z</time>
      </trkpt>
      <trkpt lat="15.123426" lon="-92.096273">
        <ele>3299.0085443677426</ele>
        <time>2019-12-01T16:00:57Z</time>
      </trkpt>
      <trkpt lat="15.123422" lon="-92.096284">
        <ele>3299.0086739156714</ele>
        <time>2019-12-01T16:01:02Z</time>
      </trkpt>
      <trkpt lat="15.123410" lon="-92.096278">
        <ele>3296.2240337818844</ele>
        <time>2019-12-01T16:01:07Z</time>
      </trkpt>
      <trkpt lat="15.123397" lon="-92.096265">
        <ele>3296.223985000457</ele>
        <time>2019-12-01T16:01:12Z</time>
      </trkpt>
      <trkpt lat="15.123390" lon="-92.096261">
        <ele>3295.752302234202</ele>
        <time>2019-12-01T16:01:18Z</time>
      </trkpt>
      <trkpt lat="15.123379" lon="-92.096268">
        <ele>3294.774176826049</ele>
        <time>2019-12-01T16:01:22Z</time>
      </trkpt>
      <trkpt lat="15.123370" lon="-92.096274">
        <ele>3294.7513445688155</ele>
        <time>2019-12-01T16:01:26Z</time>
      </trkpt>
      <trkpt lat="15.123362" lon="-92.096279">
        <ele>3294.9340586351736</ele>
        <time>2019-12-01T16:01:32Z</time>
      </trkpt>
      <trkpt lat="15.123339" lon="-92.096302">
        <ele>3295.074088999228</ele>
        <time>2019-12-01T16:01:37Z</time>
      </trkpt>
      <trkpt lat="15.123325" lon="-92.096321">
        <ele>3294.1283307671683</ele>
        <time>2019-12-01T16:01:41Z</time>
      </trkpt>
      <trkpt lat="15.123317" lon="-92.096332">
        <ele>3294.1284798240354</ele>
        <time>2019-12-01T16:01:45Z</time>
      </trkpt>
      <trkpt lat="15.123311" lon="-92.096341">
        <ele>3294.280719862028</ele>
        <time>2019-12-01T16:01:49Z</time>
      </trkpt>
      <trkpt lat="15.123303" lon="-92.096349">
        <ele>3294.566247701892</ele>
        <time>2019-12-01T16:01:53Z</time>
      </trkpt>
      <trkpt lat="15.123284" lon="-92.096354">
        <ele>3294.0351733689226</ele>
        <time>2019-12-01T16:01:57Z</time>
      </trkpt>
      <trkpt lat="15.123261" lon="-92.096363">
        <ele>3293.9108941629424</ele>
        <time>2019-12-01T16:02:01Z</time>
      </trkpt>
      <trkpt lat="15.123233" lon="-92.096382">
        <ele>3293.172494279999</ele>
        <time>2019-12-01T16:02:05Z</time>
      </trkpt>
      <trkpt lat="15.123208" lon="-92.096403">
        <ele>3291.2329286349004</ele>
        <time>2019-12-01T16:02:09Z</time>
      </trkpt>
      <trkpt lat="15.123187" lon="-92.096422">
        <ele>3288.489599670219</ele>
        <time>2019-12-01T16:02:14Z</time>
      </trkpt>
      <trkpt lat="15.123167" lon="-92.096399">
        <ele>3287.316398940245</ele>
        <time>2019-12-01T16:02:19Z</time>
      </trkpt>
      <trkpt lat="15.123159" lon="-92.096395">
        <ele>3287.3164189348427</ele>
        <time>2019-12-01T16:02:24Z</time>
      </trkpt>
      <trkpt lat="15.123151" lon="-92.096394">
        <ele>3286.5920836825235</ele>
        <time>2019-12-01T16:02:34Z</time>
      </trkpt>
      <trkpt lat="15.123139" lon="-92.096382">
        <ele>3284.84791340204</ele>
        <time>2019-12-01T16:02:38Z</time>
      </trkpt>
      <trkpt lat="15.123108" lon="-92.096366">
        <ele>3282.2817836085</ele>
        <time>2019-12-01T16:02:42Z</time>
      </trkpt>
      <trkpt lat="15.123084" lon="-92.096354">
        <ele>3280.936856388675</ele>
        <time>2019-12-01T16:02:47Z</time>
      </trkpt>
      <trkpt lat="15.123073" lon="-92.096349">
        <ele>3280.4835060458486</ele>
        <time>2019-12-01T16:02:51Z</time>
      </trkpt>
      <trkpt lat="15.123040" lon="-92.096336">
        <ele>3279.7321266813865</ele>
        <time>2019-12-01T16:02:56Z</time>
      </trkpt>
      <trkpt lat="15.123022" lon="-92.096327">
        <ele>3279.2089588165923</ele>
        <time>2019-12-01T16:03:00Z</time>
      </trkpt>
      <trkpt lat="15.123012" lon="-92.096322">
        <ele>3278.9726409543528</ele>
        <time>2019-12-01T16:03:04Z</time>
      </trkpt>
      <trkpt lat="15.122998" lon="-92.096315">
        <ele>3278.329354315543</ele>
        <time>2019-12-01T16:03:09Z</time>
      </trkpt>
      <trkpt lat="15.122986" lon="-92.096302">
        <ele>3278.000688245198</ele>
        <time>2019-12-01T16:03:13Z</time>
      </trkpt>
      <trkpt lat="15.122965" lon="-92.096263">
        <ele>3277.233593470958</ele>
        <time>2019-12-01T16:03:18Z</time>
      </trkpt>
      <trkpt lat="15.122952" lon="-92.096238">
        <ele>3277.233422592195</ele>
        <time>2019-12-01T16:03:22Z</time>
      </trkpt>
      <trkpt lat="15.122946" lon="-92.096226">
        <ele>3277.2333383580594</ele>
        <time>2019-12-01T16:03:26Z</time>
      </trkpt>
      <trkpt lat="15.122943" lon="-92.096218">
        <ele>3277.233288012582</ele>
        <time>2019-12-01T16:03:35Z</time>
      </trkpt>
      <trkpt lat="15.122933" lon="-92.096210">
        <ele>3276.5870285918027</ele>
        <time>2019-12-01T16:03:40Z</time>
      </trkpt>
      <trkpt lat="15.122926" lon="-92.096204">
        <ele>3274.9654270990604</ele>
        <time>2019-12-01T16:03:44Z</time>
      </trkpt>
      <trkpt lat="15.122909" lon="-92.096200">
        <ele>3274.748696273774</ele>
        <time>2019-12-01T16:03:49Z</time>
      </trkpt>
      <trkpt lat="15.122897" lon="-92.096198">
        <ele>3274.7487584919686</ele>
        <time>2019-12-01T16:03:53Z</time>
      </trkpt>
      <trkpt lat="15.122889" lon="-92.096197">
        <ele>3274.7487998791007</ele>
        <time>2019-12-01T16:03:58Z</time>
      </trkpt>
      <trkpt lat="15.122881" lon="-92.096195">
        <ele>3274.5776878437314</ele>
        <time>2019-12-01T16:04:11Z</time>
      </trkpt>
      <trkpt lat="15.122873" lon="-92.096197">
        <ele>3272.4730264384816</ele>
        <time>2019-12-01T16:04:15Z</time>
      </trkpt>
      <trkpt lat="15.122857" lon="-92.096203">
        <ele>3271.2583498665085</ele>
        <time>2019-12-01T16:04:20Z</time>
      </trkpt>
      <trkpt lat="15.122846" lon="-92.096208">
        <ele>3271.2584623934695</ele>
        <time>2019-12-01T16:04:24Z</time>
      </trkpt>
      <trkpt lat="15.122838" lon="-92.096212">
        <ele>3271.258556401493</ele>
        <time>2019-12-01T16:04:29Z</time>
      </trkpt>
      <trkpt lat="15.122827" lon="-92.096216">
        <ele>3269.7105776976487</ele>
        <time>2019-12-01T16:04:34Z</time>
      </trkpt>
      <trkpt lat="15.122798" lon="-92.096202">
        <ele>3269.2557846219165</ele>
        <time>2019-12-01T16:04:39Z</time>
      </trkpt>
      <trkpt lat="15.122774" lon="-92.096190">
        <ele>3268.303682223426</ele>
        <time>2019-12-01T16:04:43Z</time>
      </trkpt>
      <trkpt lat="15.122752" lon="-92.096187">
        <ele>3267.299881571032</ele>
        <time>2019-12-01T16:04:48Z</time>
      </trkpt>
      <trkpt lat="15.122744" lon="-92.096188">
        <ele>3267.299943084538</ele>
        <time>2019-12-01T16:04:52Z</time>
      </trkpt>
      <trkpt lat="15.122735" lon="-92.096189">
        <ele>3267.3000086219813</ele>
        <time>2019-12-01T16:05:05Z</time>
      </trkpt>
      <trkpt lat="15.122731" lon="-92.096182">
        <ele>3263.6083163849785</ele>
        <time>2019-12-01T16:05:26Z</time>
      </trkpt>
      <trkpt lat="15.122733" lon="-92.096176">
        <ele>3263.608247614859</ele>
        <time>2019-12-01T16:07:06Z</time>
      </trkpt>
      <trkpt lat="15.122749" lon="-92.096163">
        <ele>3263.6080095896655</ele>
        <time>2019-12-01T16:07:10Z</time>
      </trkpt>
      <trkpt lat="15.122749" lon="-92.096170">
        <ele>3262.8807820733236</ele>
        <time>2019-12-01T16:10:58Z</time>
      </trkpt>
      <trkpt lat="15.122845" lon="-92.096141">
        <ele>3262.65881882542</ele>
        <time>2019-12-01T16:12:00Z</time>
      </trkpt>
      <trkpt lat="15.122755" lon="-92.096220">
        <ele>3258.967913136929</ele>
        <time>2019-12-01T16:12:05Z</time>
      </trkpt>
      <trkpt lat="15.122755" lon="-92.096220">
        <ele>3260.173967824429</ele>
        <time>2019-12-01T16:13:07Z</time>
      </trkpt>
      <trkpt lat="15.122788" lon="-92.096220">
        <ele>3259.3102255301187</ele>
        <time>2019-12-01T16:13:12Z</time>
      </trkpt>
      <trkpt lat="15.122766" lon="-92.096252">
        <ele>3259.310684945772</ele>
        <time>2019-12-01T16:13:16Z</time>
      </trkpt>
      <trkpt lat="15.122752" lon="-92.096269">
        <ele>3258.538243488355</ele>
        <time>2019-12-01T16:13:21Z</time>
      </trkpt>
      <trkpt lat="15.122742" lon="-92.096286">
        <ele>3257.7213417027074</ele>
        <time>2019-12-01T16:13:25Z</time>
      </trkpt>
      <trkpt lat="15.122724" lon="-92.096320">
        <ele>3257.3521707906043</ele>
        <time>2019-12-01T16:13:29Z</time>
      </trkpt>
      <trkpt lat="15.122701" lon="-92.096369">
        <ele>3257.3149666642994</ele>
        <time>2019-12-01T16:13:34Z</time>
      </trkpt>
      <trkpt lat="15.122692" lon="-92.096390">
        <ele>3257.3152361758794</ele>
        <time>2019-12-01T16:13:38Z</time>
      </trkpt>
      <trkpt lat="15.122688" lon="-92.096398">
        <ele>3257.3153380514423</ele>
        <time>2019-12-01T16:13:42Z</time>
      </trkpt>
      <trkpt lat="15.122687" lon="-92.096411">
        <ele>3255.8704073188887</ele>
        <time>2019-12-01T16:13:46Z</time>
      </trkpt>
      <trkpt lat="15.122684" lon="-92.096427">
        <ele>3255.8705876604154</ele>
        <time>2019-12-01T16:13:50Z</time>
      </trkpt>
      <trkpt lat="15.122682" lon="-92.096438">
        <ele>3255.8707025155986</ele>
        <time>2019-12-01T16:13:55Z</time>
      </trkpt>
      <trkpt lat="15.122674" lon="-92.096458">
        <ele>3254.491077360373</ele>
        <time>2019-12-01T16:14:00Z</time>
      </trkpt>
      <trkpt lat="15.122655" lon="-92.096506">
        <ele>3253.8285932280637</ele>
        <time>2019-12-01T16:14:04Z</time>
      </trkpt>
      <trkpt lat="15.122648" lon="-92.096522">
        <ele>3253.5873367737736</ele>
        <time>2019-12-01T16:14:09Z</time>
      </trkpt>
      <trkpt lat="15.122626" lon="-92.096540">
        <ele>3252.0180787962963</ele>
        <time>2019-12-01T16:14:13Z</time>
      </trkpt>
      <trkpt lat="15.122615" lon="-92.096543">
        <ele>3248.6092452282414</ele>
        <time>2019-12-01T16:14:17Z</time>
      </trkpt>
      <trkpt lat="15.122607" lon="-92.096546">
        <ele>3247.1354526005184</ele>
        <time>2019-12-01T16:14:21Z</time>
      </trkpt>
      <trkpt lat="15.122598" lon="-92.096549">
        <ele>3246.158002640484</ele>
        <time>2019-12-01T16:14:25Z</time>
      </trkpt>
      <trkpt lat="15.122590" lon="-92.096552">
        <ele>3245.8594922309603</ele>
        <time>2019-12-01T16:14:29Z</time>
      </trkpt>
      <trkpt lat="15.122581" lon="-92.096557">
        <ele>3245.508038742488</ele>
        <time>2019-12-01T16:14:33Z</time>
      </trkpt>
      <trkpt lat="15.122570" lon="-92.096566">
        <ele>3244.4913512703906</ele>
        <time>2019-12-01T16:14:38Z</time>
      </trkpt>
      <trkpt lat="15.122563" lon="-92.096579">
        <ele>3244.0313251110474</ele>
        <time>2019-12-01T16:14:43Z</time>
      </trkpt>
      <trkpt lat="15.122547" lon="-92.096589">
        <ele>3243.437290847861</ele>
        <time>2019-12-01T16:14:47Z</time>
      </trkpt>
      <trkpt lat="15.122507" lon="-92.096614">
        <ele>3242.5845236272066</ele>
        <time>2019-12-01T16:14:51Z</time>
      </trkpt>
      <trkpt lat="15.122478" lon="-92.096631">
        <ele>3241.019694170705</ele>
        <time>2019-12-01T16:14:55Z</time>
      </trkpt>
      <trkpt lat="15.122460" lon="-92.096647">
        <ele>3238.596385552439</ele>
        <time>2019-12-01T16:14:59Z</time>
      </trkpt>
      <trkpt lat="15.122449" lon="-92.096660">
        <ele>3238.59658198719</ele>
        <time>2019-12-01T16:15:03Z</time>
      </trkpt>
      <trkpt lat="15.122433" lon="-92.096663">
        <ele>3238.8523360735903</ele>
        <time>2019-12-01T16:15:07Z</time>
      </trkpt>
      <trkpt lat="15.122418" lon="-92.096662">
        <ele>3238.5802058987306</ele>
        <time>2019-12-01T16:15:11Z</time>
      </trkpt>
      <trkpt lat="15.122397" lon="-92.096662">
        <ele>3237.9631512916617</ele>
        <time>2019-12-01T16:15:16Z</time>
      </trkpt>
      <trkpt lat="15.122372" lon="-92.096669">
        <ele>3237.8947792591835</ele>
        <time>2019-12-01T16:15:20Z</time>
      </trkpt>
      <trkpt lat="15.122350" lon="-92.096673">
        <ele>3235.6112715009294</ele>
        <time>2019-12-01T16:15:25Z</time>
      </trkpt>
      <trkpt lat="15.122330" lon="-92.096673">
        <ele>3234.7686247247116</ele>
        <time>2019-12-01T16:15:29Z</time>
      </trkpt>
      <trkpt lat="15.122306" lon="-92.096679">
        <ele>3233.938280090469</ele>
        <time>2019-12-01T16:15:34Z</time>
      </trkpt>
      <trkpt lat="15.122284" lon="-92.096689">
        <ele>3232.8010704145936</ele>
        <time>2019-12-01T16:15:38Z</time>
      </trkpt>
      <trkpt lat="15.122265" lon="-92.096704">
        <ele>3232.3079308294546</ele>
        <time>2019-12-01T16:15:42Z</time>
      </trkpt>
      <trkpt lat="15.122249" lon="-92.096729">
        <ele>3232.439139395173</ele>
        <time>2019-12-01T16:15:46Z</time>
      </trkpt>
      <trkpt lat="15.122230" lon="-92.096757">
        <ele>3231.5762656074344</ele>
        <time>2019-12-01T16:15:50Z</time>
      </trkpt>
      <trkpt lat="15.122209" lon="-92.096767">
        <ele>3229.820882496239</ele>
        <time>2019-12-01T16:15:55Z</time>
      </trkpt>
      <trkpt lat="15.122182" lon="-92.096770">
        <ele>3228.917034396649</ele>
        <time>2019-12-01T16:16:00Z</time>
      </trkpt>
      <trkpt lat="15.122163" lon="-92.096767">
        <ele>3228.540906599446</ele>
        <time>2019-12-01T16:16:04Z</time>
      </trkpt>
      <trkpt lat="15.122139" lon="-92.096760">
        <ele>3228.540991016877</ele>
        <time>2019-12-01T16:16:09Z</time>
      </trkpt>
      <trkpt lat="15.122130" lon="-92.096758">
        <ele>3228.5410241781406</ele>
        <time>2019-12-01T16:16:14Z</time>
      </trkpt>
      <trkpt lat="15.122122" lon="-92.096759">
        <ele>3225.561839860449</ele>
        <time>2019-12-01T16:16:19Z</time>
      </trkpt>
      <trkpt lat="15.122110" lon="-92.096763">
        <ele>3222.288027622048</ele>
        <time>2019-12-01T16:16:23Z</time>
      </trkpt>
      <trkpt lat="15.122090" lon="-92.096762">
        <ele>3220.4507457520162</ele>
        <time>2019-12-01T16:16:27Z</time>
      </trkpt>
      <trkpt lat="15.122065" lon="-92.096757">
        <ele>3219.840993390992</ele>
        <time>2019-12-01T16:16:31Z</time>
      </trkpt>
      <trkpt lat="15.122041" lon="-92.096754">
        <ele>3219.4592905932104</ele>
        <time>2019-12-01T16:16:35Z</time>
      </trkpt>
      <trkpt lat="15.122011" lon="-92.096753">
        <ele>3219.398919119297</ele>
        <time>2019-12-01T16:16:39Z</time>
      </trkpt>
      <trkpt lat="15.121970" lon="-92.096737">
        <ele>3218.0806720760684</ele>
        <time>2019-12-01T16:16:44Z</time>
      </trkpt>
      <trkpt lat="15.121936" lon="-92.096713">
        <ele>3217.558675336421</ele>
        <time>2019-12-01T16:16:49Z</time>
      </trkpt>
      <trkpt lat="15.121916" lon="-92.096707">
        <ele>3217.9837927646245</ele>
        <time>2019-12-01T16:16:53Z</time>
      </trkpt>
      <trkpt lat="15.121870" lon="-92.096715">
        <ele>3217.0498475210043</ele>
        <time>2019-12-01T16:16:58Z</time>
      </trkpt>
      <trkpt lat="15.121852" lon="-92.096720">
        <ele>3215.4071892493366</ele>
        <time>2019-12-01T16:17:02Z</time>
      </trkpt>
      <trkpt lat="15.121820" lon="-92.096718">
        <ele>3214.231600439451</ele>
        <time>2019-12-01T16:17:07Z</time>
      </trkpt>
      <trkpt lat="15.121792" lon="-92.096687">
        <ele>3213.0954784637443</ele>
        <time>2019-12-01T16:17:12Z</time>
      </trkpt>
      <trkpt lat="15.121778" lon="-92.096660">
        <ele>3211.613851700735</ele>
        <time>2019-12-01T16:17:16Z</time>
      </trkpt>
      <trkpt lat="15.121760" lon="-92.096636">
        <ele>3210.018763971331</ele>
        <time>2019-12-01T16:17:20Z</time>
      </trkpt>
      <trkpt lat="15.121747" lon="-92.096603">
        <ele>3209.8471359569135</ele>
        <time>2019-12-01T16:17:25Z</time>
      </trkpt>
      <trkpt lat="15.121742" lon="-92.096592">
        <ele>3206.972784915806</ele>
        <time>2019-12-01T16:17:29Z</time>
      </trkpt>
      <trkpt lat="15.121735" lon="-92.096576">
        <ele>3205.454364503658</ele>
        <time>2019-12-01T16:17:34Z</time>
      </trkpt>
      <trkpt lat="15.121731" lon="-92.096563">
        <ele>3205.0697440032277</ele>
        <time>2019-12-01T16:17:39Z</time>
      </trkpt>
      <trkpt lat="15.121730" lon="-92.096539">
        <ele>3203.883723610794</ele>
        <time>2019-12-01T16:17:43Z</time>
      </trkpt>
      <trkpt lat="15.121731" lon="-92.096524">
        <ele>3203.5483520867892</ele>
        <time>2019-12-01T16:17:47Z</time>
      </trkpt>
      <trkpt lat="15.121742" lon="-92.096494">
        <ele>3202.21350922755</ele>
        <time>2019-12-01T16:17:52Z</time>
      </trkpt>
      <trkpt lat="15.121758" lon="-92.096475">
        <ele>3200.8858225162785</ele>
        <time>2019-12-01T16:17:56Z</time>
      </trkpt>
      <trkpt lat="15.121785" lon="-92.096440">
        <ele>3201.130176105443</ele>
        <time>2019-12-01T16:18:01Z</time>
      </trkpt>
      <trkpt lat="15.121798" lon="-92.096417">
        <ele>3200.7931914653072</ele>
        <time>2019-12-01T16:18:06Z</time>
      </trkpt>
      <trkpt lat="15.121801" lon="-92.096404">
        <ele>3198.9026645393096</ele>
        <time>2019-12-01T16:18:10Z</time>
      </trkpt>
      <trkpt lat="15.121798" lon="-92.096380">
        <ele>3198.5464893595613</ele>
        <time>2019-12-01T16:18:15Z</time>
      </trkpt>
      <trkpt lat="15.121789" lon="-92.096358">
        <ele>3198.546334186623</ele>
        <time>2019-12-01T16:18:20Z</time>
      </trkpt>
      <trkpt lat="15.121783" lon="-92.096346">
        <ele>3197.996686116282</ele>
        <time>2019-12-01T16:18:25Z</time>
      </trkpt>
      <trkpt lat="15.121773" lon="-92.096327">
        <ele>3196.405505147386</ele>
        <time>2019-12-01T16:18:29Z</time>
      </trkpt>
      <trkpt lat="15.121756" lon="-92.096292">
        <ele>3195.676989026227</ele>
        <time>2019-12-01T16:18:34Z</time>
      </trkpt>
      <trkpt lat="15.121747" lon="-92.096259">
        <ele>3195.6144703751884</ele>
        <time>2019-12-01T16:18:39Z</time>
      </trkpt>
      <trkpt lat="15.121735" lon="-92.096221">
        <ele>3195.0167528167817</ele>
        <time>2019-12-01T16:18:43Z</time>
      </trkpt>
      <trkpt lat="15.121714" lon="-92.096175">
        <ele>3194.7805865271157</ele>
        <time>2019-12-01T16:18:48Z</time>
      </trkpt>
      <trkpt lat="15.121687" lon="-92.096128">
        <ele>3194.3164304634442</ele>
        <time>2019-12-01T16:18:52Z</time>
      </trkpt>
      <trkpt lat="15.121663" lon="-92.096081">
        <ele>3193.177195381315</ele>
        <time>2019-12-01T16:18:56Z</time>
      </trkpt>
      <trkpt lat="15.121652" lon="-92.096048">
        <ele>3191.791932098793</ele>
        <time>2019-12-01T16:19:01Z</time>
      </trkpt>
      <trkpt lat="15.121645" lon="-92.096023">
        <ele>3190.315171389054</ele>
        <time>2019-12-01T16:19:05Z</time>
      </trkpt>
      <trkpt lat="15.121642" lon="-92.096005">
        <ele>3190.4341521229</ele>
        <time>2019-12-01T16:19:09Z</time>
      </trkpt>
      <trkpt lat="15.121641" lon="-92.095983">
        <ele>3189.8797377003725</ele>
        <time>2019-12-01T16:19:14Z</time>
      </trkpt>
      <trkpt lat="15.121638" lon="-92.095956">
        <ele>3188.2012642083732</ele>
        <time>2019-12-01T16:19:18Z</time>
      </trkpt>
      <trkpt lat="15.121632" lon="-92.095922">
        <ele>3185.7869052975366</ele>
        <time>2019-12-01T16:19:22Z</time>
      </trkpt>
      <trkpt lat="15.121629" lon="-92.095892">
        <ele>3182.760991904842</ele>
        <time>2019-12-01T16:19:27Z</time>
      </trkpt>
      <trkpt lat="15.121628" lon="-92.095870">
        <ele>3181.6955937535304</ele>
        <time>2019-12-01T16:19:31Z</time>
      </trkpt>
      <trkpt lat="15.121630" lon="-92.095837">
        <ele>3181.0336232631776</ele>
        <time>2019-12-01T16:19:36Z</time>
      </trkpt>
      <trkpt lat="15.121635" lon="-92.095815">
        <ele>3180.0834313949267</ele>
        <time>2019-12-01T16:19:40Z</time>
      </trkpt>
      <trkpt lat="15.121640" lon="-92.095780">
        <ele>3178.668494257247</ele>
        <time>2019-12-01T16:19:45Z</time>
      </trkpt>
      <trkpt lat="15.121651" lon="-92.095741">
        <ele>3177.4214484787376</ele>
        <time>2019-12-01T16:19:49Z</time>
      </trkpt>
      <trkpt lat="15.121660" lon="-92.095697">
        <ele>3176.6697371398586</ele>
        <time>2019-12-01T16:19:54Z</time>
      </trkpt>
      <trkpt lat="15.121662" lon="-92.095664">
        <ele>3176.553667422501</ele>
        <time>2019-12-01T16:19:58Z</time>
      </trkpt>
      <trkpt lat="15.121665" lon="-92.095645">
        <ele>3176.7741662895255</ele>
        <time>2019-12-01T16:20:02Z</time>
      </trkpt>
      <trkpt lat="15.121668" lon="-92.095621">
        <ele>3176.333723074226</ele>
        <time>2019-12-01T16:20:06Z</time>
      </trkpt>
      <trkpt lat="15.121670" lon="-92.095596">
        <ele>3176.3334617276196</ele>
        <time>2019-12-01T16:20:11Z</time>
      </trkpt>
      <trkpt lat="15.121671" lon="-92.095587">
        <ele>3176.0318517245723</ele>
        <time>2019-12-01T16:20:15Z</time>
      </trkpt>
      <trkpt lat="15.121677" lon="-92.095574">
        <ele>3174.29633243577</ele>
        <time>2019-12-01T16:20:19Z</time>
      </trkpt>
      <trkpt lat="15.121688" lon="-92.095548">
        <ele>3173.4976592472426</ele>
        <time>2019-12-01T16:20:23Z</time>
      </trkpt>
      <trkpt lat="15.121694" lon="-92.095535">
        <ele>3173.4974961485186</ele>
        <time>2019-12-01T16:20:28Z</time>
      </trkpt>
      <trkpt lat="15.121694" lon="-92.095527">
        <ele>3173.1277839859304</ele>
        <time>2019-12-01T16:20:36Z</time>
      </trkpt>
      <trkpt lat="15.121688" lon="-92.095519">
        <ele>3172.0650040353344</ele>
        <time>2019-12-01T16:20:41Z</time>
      </trkpt>
      <trkpt lat="15.121682" lon="-92.095526">
        <ele>3170.2696976639677</ele>
        <time>2019-12-01T16:20:56Z</time>
      </trkpt>
      <trkpt lat="15.121674" lon="-92.095531">
        <ele>3169.938747070818</ele>
        <time>2019-12-01T16:21:01Z</time>
      </trkpt>
      <trkpt lat="15.121668" lon="-92.095537">
        <ele>3169.9388511117754</ele>
        <time>2019-12-01T16:21:10Z</time>
      </trkpt>
      <trkpt lat="15.121660" lon="-92.095538">
        <ele>3169.434272090725</ele>
        <time>2019-12-01T16:21:37Z</time>
      </trkpt>
      <trkpt lat="15.121628" lon="-92.095518">
        <ele>3167.283399325919</ele>
        <time>2019-12-01T16:21:42Z</time>
      </trkpt>
      <trkpt lat="15.121579" lon="-92.095486">
        <ele>3167.1015088239824</ele>
        <time>2019-12-01T16:21:47Z</time>
      </trkpt>
      <trkpt lat="15.121554" lon="-92.095470">
        <ele>3167.1015136606898</ele>
        <time>2019-12-01T16:21:51Z</time>
      </trkpt>
      <trkpt lat="15.121542" lon="-92.095462">
        <ele>3167.1015168460726</ele>
        <time>2019-12-01T16:21:56Z</time>
      </trkpt>
      <trkpt lat="15.121534" lon="-92.095458">
        <ele>3166.9767746645493</ele>
        <time>2019-12-01T16:22:00Z</time>
      </trkpt>
      <trkpt lat="15.121502" lon="-92.095452">
        <ele>3165.991320718306</ele>
        <time>2019-12-01T16:22:04Z</time>
      </trkpt>
      <trkpt lat="15.121474" lon="-92.095448">
        <ele>3165.9914587294566</ele>
        <time>2019-12-01T16:22:09Z</time>
      </trkpt>
      <trkpt lat="15.121466" lon="-92.095447">
        <ele>3165.9915051633125</ele>
        <time>2019-12-01T16:22:13Z</time>
      </trkpt>
      <trkpt lat="15.121458" lon="-92.095445">
        <ele>3165.5008134854684</ele>
        <time>2019-12-01T16:22:20Z</time>
      </trkpt>
      <trkpt lat="15.121430" lon="-92.095407">
        <ele>3163.3084813972177</ele>
        <time>2019-12-01T16:22:25Z</time>
      </trkpt>
      <trkpt lat="15.121407" lon="-92.095374">
        <ele>3162.4091361374844</ele>
        <time>2019-12-01T16:22:29Z</time>
      </trkpt>
      <trkpt lat="15.121381" lon="-92.095341">
        <ele>3161.511262671997</ele>
        <time>2019-12-01T16:22:33Z</time>
      </trkpt>
      <trkpt lat="15.121364" lon="-92.095318">
        <ele>3158.687663010675</ele>
        <time>2019-12-01T16:22:38Z</time>
      </trkpt>
      <trkpt lat="15.121349" lon="-92.095306">
        <ele>3156.013079607618</ele>
        <time>2019-12-01T16:22:42Z</time>
      </trkpt>
      <trkpt lat="15.121330" lon="-92.095298">
        <ele>3152.1522751424277</ele>
        <time>2019-12-01T16:22:47Z</time>
      </trkpt>
      <trkpt lat="15.121308" lon="-92.095283">
        <ele>3151.2028074457644</ele>
        <time>2019-12-01T16:22:51Z</time>
      </trkpt>
      <trkpt lat="15.121286" lon="-92.095259">
        <ele>3150.4483190472356</ele>
        <time>2019-12-01T16:22:56Z</time>
      </trkpt>
      <trkpt lat="15.121276" lon="-92.095226">
        <ele>3149.931461725397</ele>
        <time>2019-12-01T16:23:00Z</time>
      </trkpt>
      <trkpt lat="15.121269" lon="-92.095202">
        <ele>3149.9312637843846</ele>
        <time>2019-12-01T16:23:05Z</time>
      </trkpt>
      <trkpt lat="15.121265" lon="-92.095193">
        <ele>3149.9312003786413</ele>
        <time>2019-12-01T16:23:10Z</time>
      </trkpt>
      <trkpt lat="15.121264" lon="-92.095187">
        <ele>3149.3161611095543</ele>
        <time>2019-12-01T16:23:18Z</time>
      </trkpt>
      <trkpt lat="15.121267" lon="-92.095159">
        <ele>3147.4486671361865</ele>
        <time>2019-12-01T16:23:23Z</time>
      </trkpt>
      <trkpt lat="15.121270" lon="-92.095138">
        <ele>3145.467239785666</ele>
        <time>2019-12-01T16:23:27Z</time>
      </trkpt>
      <trkpt lat="15.121271" lon="-92.095123">
        <ele>3144.2690917145796</ele>
        <time>2019-12-01T16:23:31Z</time>
      </trkpt>
      <trkpt lat="15.121269" lon="-92.095114">
        <ele>3142.2980638685112</ele>
        <time>2019-12-01T16:23:43Z</time>
      </trkpt>
      <trkpt lat="15.121264" lon="-92.095102">
        <ele>3141.5596959080412</ele>
        <time>2019-12-01T16:23:47Z</time>
      </trkpt>
      <trkpt lat="15.121257" lon="-92.095093">
        <ele>3140.737387324061</ele>
        <time>2019-12-01T16:23:51Z</time>
      </trkpt>
      <trkpt lat="15.121245" lon="-92.095094">
        <ele>3139.2711659881975</ele>
        <time>2019-12-01T16:23:55Z</time>
      </trkpt>
      <trkpt lat="15.121236" lon="-92.095096">
        <ele>3139.2712422427558</ele>
        <time>2019-12-01T16:23:59Z</time>
      </trkpt>
      <trkpt lat="15.121228" lon="-92.095098">
        <ele>3139.2713172915824</ele>
        <time>2019-12-01T16:24:05Z</time>
      </trkpt>
      <trkpt lat="15.121220" lon="-92.095103">
        <ele>3138.327319731074</ele>
        <time>2019-12-01T16:24:09Z</time>
      </trkpt>
      <trkpt lat="15.121186" lon="-92.095108">
        <ele>3136.747034952975</ele>
        <time>2019-12-01T16:24:14Z</time>
      </trkpt>
      <trkpt lat="15.121158" lon="-92.095113">
        <ele>3136.5099495041422</ele>
        <time>2019-12-01T16:24:18Z</time>
      </trkpt>
      <trkpt lat="15.121125" lon="-92.095111">
        <ele>3134.866101190457</ele>
        <time>2019-12-01T16:24:23Z</time>
      </trkpt>
      <trkpt lat="15.121105" lon="-92.095114">
        <ele>3133.6370164391665</ele>
        <time>2019-12-01T16:24:27Z</time>
      </trkpt>
      <trkpt lat="15.121091" lon="-92.095110">
        <ele>3132.2654800621704</ele>
        <time>2019-12-01T16:24:31Z</time>
      </trkpt>
      <trkpt lat="15.121077" lon="-92.095099">
        <ele>3131.475670872184</ele>
        <time>2019-12-01T16:24:35Z</time>
      </trkpt>
      <trkpt lat="15.121062" lon="-92.095075">
        <ele>3131.4564892269505</ele>
        <time>2019-12-01T16:24:39Z</time>
      </trkpt>
      <trkpt lat="15.121051" lon="-92.095053">
        <ele>3130.5918375620004</ele>
        <time>2019-12-01T16:24:43Z</time>
      </trkpt>
      <trkpt lat="15.121043" lon="-92.095023">
        <ele>3130.368197015509</ele>
        <time>2019-12-01T16:24:48Z</time>
      </trkpt>
      <trkpt lat="15.121043" lon="-92.095007">
        <ele>3129.743044178347</ele>
        <time>2019-12-01T16:24:52Z</time>
      </trkpt>
      <trkpt lat="15.121044" lon="-92.094990">
        <ele>3127.5311977495912</ele>
        <time>2019-12-01T16:24:56Z</time>
      </trkpt>
      <trkpt lat="15.121044" lon="-92.094968">
        <ele>3127.302467693947</ele>
        <time>2019-12-01T16:25:01Z</time>
      </trkpt>
      <trkpt lat="15.121044" lon="-92.094959">
        <ele>3127.3023791775213</ele>
        <time>2019-12-01T16:25:08Z</time>
      </trkpt>
      <trkpt lat="15.121040" lon="-92.094953">
        <ele>3126.900970718474</ele>
        <time>2019-12-01T16:25:14Z</time>
      </trkpt>
      <trkpt lat="15.121029" lon="-92.094946">
        <ele>3127.1553675350965</ele>
        <time>2019-12-01T16:25:18Z</time>
      </trkpt>
      <trkpt lat="15.121020" lon="-92.094941">
        <ele>3127.155378469569</ele>
        <time>2019-12-01T16:25:22Z</time>
      </trkpt>
      <trkpt lat="15.121012" lon="-92.094936">
        <ele>3127.1553790273565</ele>
        <time>2019-12-01T16:25:29Z</time>
      </trkpt>
      <trkpt lat="15.121008" lon="-92.094928">
        <ele>3126.6807193036966</ele>
        <time>2019-12-01T16:25:40Z</time>
      </trkpt>
      <trkpt lat="15.121003" lon="-92.094888">
        <ele>3125.5304519433075</ele>
        <time>2019-12-01T16:25:45Z</time>
      </trkpt>
      <trkpt lat="15.120999" lon="-92.094866">
        <ele>3125.5302561070284</ele>
        <time>2019-12-01T16:25:49Z</time>
      </trkpt>
      <trkpt lat="15.120999" lon="-92.094850">
        <ele>3124.039867215576</ele>
        <time>2019-12-01T16:25:54Z</time>
      </trkpt>
      <trkpt lat="15.121010" lon="-92.094829">
        <ele>3121.5993936342475</ele>
        <time>2019-12-01T16:25:59Z</time>
      </trkpt>
      <trkpt lat="15.121021" lon="-92.094811">
        <ele>3121.5991495663675</ele>
        <time>2019-12-01T16:26:04Z</time>
      </trkpt>
      <trkpt lat="15.121021" lon="-92.094802">
        <ele>3118.186708351656</ele>
        <time>2019-12-01T16:26:10Z</time>
      </trkpt>
      <trkpt lat="15.121012" lon="-92.094796">
        <ele>3116.0043305586223</ele>
        <time>2019-12-01T16:26:14Z</time>
      </trkpt>
      <trkpt lat="15.121012" lon="-92.094787">
        <ele>3113.4917923429007</ele>
        <time>2019-12-01T16:26:19Z</time>
      </trkpt>
      <trkpt lat="15.121014" lon="-92.094779">
        <ele>3113.491701428407</ele>
        <time>2019-12-01T16:26:27Z</time>
      </trkpt>
      <trkpt lat="15.121007" lon="-92.094766">
        <ele>3112.276279828195</ele>
        <time>2019-12-01T16:26:31Z</time>
      </trkpt>
      <trkpt lat="15.120992" lon="-92.094743">
        <ele>3111.7156058495575</ele>
        <time>2019-12-01T16:26:35Z</time>
      </trkpt>
      <trkpt lat="15.120981" lon="-92.094727">
        <ele>3111.715516261499</ele>
        <time>2019-12-01T16:26:39Z</time>
      </trkpt>
      <trkpt lat="15.120969" lon="-92.094707">
        <ele>3110.3516261873806</ele>
        <time>2019-12-01T16:26:44Z</time>
      </trkpt>
      <trkpt lat="15.120965" lon="-92.094698">
        <ele>3110.35156856988</ele>
        <time>2019-12-01T16:26:48Z</time>
      </trkpt>
      <trkpt lat="15.120954" lon="-92.094690">
        <ele>3109.4851045041996</ele>
        <time>2019-12-01T16:26:53Z</time>
      </trkpt>
      <trkpt lat="15.120939" lon="-92.094683">
        <ele>3108.2798054430914</ele>
        <time>2019-12-01T16:26:57Z</time>
      </trkpt>
      <trkpt lat="15.120916" lon="-92.094671">
        <ele>3107.7805697516123</ele>
        <time>2019-12-01T16:27:02Z</time>
      </trkpt>
      <trkpt lat="15.120897" lon="-92.094654">
        <ele>3108.0925354060532</ele>
        <time>2019-12-01T16:27:07Z</time>
      </trkpt>
      <trkpt lat="15.120891" lon="-92.094648">
        <ele>3108.092510799603</ele>
        <time>2019-12-01T16:27:11Z</time>
      </trkpt>
      <trkpt lat="15.120884" lon="-92.094633">
        <ele>3107.6204821183906</ele>
        <time>2019-12-01T16:27:16Z</time>
      </trkpt>
      <trkpt lat="15.120876" lon="-92.094621">
        <ele>3106.8828745755823</ele>
        <time>2019-12-01T16:27:21Z</time>
      </trkpt>
      <trkpt lat="15.120866" lon="-92.094616">
        <ele>3106.882893013168</ele>
        <time>2019-12-01T16:27:25Z</time>
      </trkpt>
      <trkpt lat="15.120856" lon="-92.094611">
        <ele>3106.6219194228934</ele>
        <time>2019-12-01T16:27:29Z</time>
      </trkpt>
      <trkpt lat="15.120845" lon="-92.094607">
        <ele>3106.1593002407285</ele>
        <time>2019-12-01T16:27:33Z</time>
      </trkpt>
      <trkpt lat="15.120837" lon="-92.094604">
        <ele>3106.15932120332</ele>
        <time>2019-12-01T16:27:39Z</time>
      </trkpt>
      <trkpt lat="15.120825" lon="-92.094603">
        <ele>3105.799283934193</ele>
        <time>2019-12-01T16:27:43Z</time>
      </trkpt>
      <trkpt lat="15.120798" lon="-92.094593">
        <ele>3105.6975484709947</ele>
        <time>2019-12-01T16:27:47Z</time>
      </trkpt>
      <trkpt lat="15.120790" lon="-92.094586">
        <ele>3105.6975331192816</ele>
        <time>2019-12-01T16:27:51Z</time>
      </trkpt>
      <trkpt lat="15.120778" lon="-92.094581">
        <ele>3104.0271480541724</ele>
        <time>2019-12-01T16:27:55Z</time>
      </trkpt>
      <trkpt lat="15.120766" lon="-92.094578">
        <ele>3101.405126417062</ele>
        <time>2019-12-01T16:27:59Z</time>
      </trkpt>
      <trkpt lat="15.120740" lon="-92.094581">
        <ele>3098.6843847216587</ele>
        <time>2019-12-01T16:28:04Z</time>
      </trkpt>
      <trkpt lat="15.120712" lon="-92.094597">
        <ele>3096.0287178495623</ele>
        <time>2019-12-01T16:28:09Z</time>
      </trkpt>
      <trkpt lat="15.120696" lon="-92.094608">
        <ele>3095.997685957101</ele>
        <time>2019-12-01T16:28:13Z</time>
      </trkpt>
      <trkpt lat="15.120672" lon="-92.094610">
        <ele>3096.1985361795196</ele>
        <time>2019-12-01T16:28:17Z</time>
      </trkpt>
      <trkpt lat="15.120650" lon="-92.094618">
        <ele>3096.4236141224865</ele>
        <time>2019-12-01T16:28:21Z</time>
      </trkpt>
      <trkpt lat="15.120641" lon="-92.094621">
        <ele>3096.4237004062184</ele>
        <time>2019-12-01T16:28:25Z</time>
      </trkpt>
      <trkpt lat="15.120627" lon="-92.094625">
        <ele>3096.481934701358</ele>
        <time>2019-12-01T16:28:30Z</time>
      </trkpt>
      <trkpt lat="15.120616" lon="-92.094616">
        <ele>3096.185047066033</ele>
        <time>2019-12-01T16:28:34Z</time>
      </trkpt>
      <trkpt lat="15.120598" lon="-92.094569">
        <ele>3095.325320097434</ele>
        <time>2019-12-01T16:28:39Z</time>
      </trkpt>
      <trkpt lat="15.120591" lon="-92.094547">
        <ele>3095.325146220685</ele>
        <time>2019-12-01T16:28:43Z</time>
      </trkpt>
      <trkpt lat="15.120588" lon="-92.094537">
        <ele>3095.325062913845</ele>
        <time>2019-12-01T16:28:48Z</time>
      </trkpt>
      <trkpt lat="15.120582" lon="-92.094531">
        <ele>3093.3580052890156</ele>
        <time>2019-12-01T16:28:54Z</time>
      </trkpt>
      <trkpt lat="15.120579" lon="-92.094520">
        <ele>3091.5468787960267</ele>
        <time>2019-12-01T16:28:59Z</time>
      </trkpt>
      <trkpt lat="15.120585" lon="-92.094500">
        <ele>3089.3686640809833</ele>
        <time>2019-12-01T16:29:03Z</time>
      </trkpt>
      <trkpt lat="15.120590" lon="-92.094484">
        <ele>3089.3684723135684</ele>
        <time>2019-12-01T16:29:08Z</time>
      </trkpt>
      <trkpt lat="15.120592" lon="-92.094480">
        <ele>3091.181405056893</ele>
        <time>2019-12-01T16:29:18Z</time>
      </trkpt>
      <trkpt lat="15.120600" lon="-92.094468">
        <ele>3090.3594607334835</ele>
        <time>2019-12-01T16:29:22Z</time>
      </trkpt>
      <trkpt lat="15.120604" lon="-92.094465">
        <ele>3090.359399270822</ele>
        <time>2019-12-01T16:29:37Z</time>
      </trkpt>
      <trkpt lat="15.120596" lon="-92.094462">
        <ele>3089.6274905236264</ele>
        <time>2019-12-01T16:29:52Z</time>
      </trkpt>
      <trkpt lat="15.120568" lon="-92.094462">
        <ele>3089.449449281072</ele>
        <time>2019-12-01T16:29:56Z</time>
      </trkpt>
      <trkpt lat="15.120552" lon="-92.094471">
        <ele>3088.3737143560083</ele>
        <time>2019-12-01T16:30:00Z</time>
      </trkpt>
      <trkpt lat="15.120524" lon="-92.094504">
        <ele>3087.5517221631426</ele>
        <time>2019-12-01T16:30:05Z</time>
      </trkpt>
      <trkpt lat="15.120503" lon="-92.094529">
        <ele>3087.230567676511</ele>
        <time>2019-12-01T16:30:09Z</time>
      </trkpt>
      <trkpt lat="15.120484" lon="-92.094546">
        <ele>3087.222558949084</ele>
        <time>2019-12-01T16:30:13Z</time>
      </trkpt>
      <trkpt lat="15.120451" lon="-92.094564">
        <ele>3086.493699167339</ele>
        <time>2019-12-01T16:30:18Z</time>
      </trkpt>
      <trkpt lat="15.120429" lon="-92.094568">
        <ele>3084.9135610359353</ele>
        <time>2019-12-01T16:30:22Z</time>
      </trkpt>
      <trkpt lat="15.120411" lon="-92.094566">
        <ele>3083.4710300368356</ele>
        <time>2019-12-01T16:30:26Z</time>
      </trkpt>
      <trkpt lat="15.120387" lon="-92.094558">
        <ele>3082.7413782649746</ele>
        <time>2019-12-01T16:30:31Z</time>
      </trkpt>
      <trkpt lat="15.120348" lon="-92.094538">
        <ele>3081.856660511403</ele>
        <time>2019-12-01T16:30:35Z</time>
      </trkpt>
      <trkpt lat="15.120332" lon="-92.094521">
        <ele>3080.171784676492</ele>
        <time>2019-12-01T16:30:39Z</time>
      </trkpt>
      <trkpt lat="15.120315" lon="-92.094504">
        <ele>3079.7144487381156</ele>
        <time>2019-12-01T16:30:44Z</time>
      </trkpt>
      <trkpt lat="15.120305" lon="-92.094498">
        <ele>3079.714451178175</ele>
        <time>2019-12-01T16:30:48Z</time>
      </trkpt>
      <trkpt lat="15.120299" lon="-92.094495">
        <ele>3079.284040717564</ele>
        <time>2019-12-01T16:30:52Z</time>
      </trkpt>
      <trkpt lat="15.120292" lon="-92.094487">
        <ele>3078.2510494748935</ele>
        <time>2019-12-01T16:30:57Z</time>
      </trkpt>
      <trkpt lat="15.120288" lon="-92.094473">
        <ele>3078.1139786470612</ele>
        <time>2019-12-01T16:31:01Z</time>
      </trkpt>
      <trkpt lat="15.120281" lon="-92.094459">
        <ele>3077.9627599543</ele>
        <time>2019-12-01T16:31:06Z</time>
      </trkpt>
      <trkpt lat="15.120272" lon="-92.094456">
        <ele>3076.9542386990247</ele>
        <time>2019-12-01T16:31:11Z</time>
      </trkpt>
      <trkpt lat="15.120258" lon="-92.094452">
        <ele>3077.5582989191817</ele>
        <time>2019-12-01T16:31:16Z</time>
      </trkpt>
      <trkpt lat="15.120242" lon="-92.094427">
        <ele>3077.139940745175</ele>
        <time>2019-12-01T16:31:20Z</time>
      </trkpt>
      <trkpt lat="15.120229" lon="-92.094404">
        <ele>3077.0760760688527</ele>
        <time>2019-12-01T16:31:25Z</time>
      </trkpt>
      <trkpt lat="15.120212" lon="-92.094379">
        <ele>3075.701177541703</ele>
        <time>2019-12-01T16:31:29Z</time>
      </trkpt>
      <trkpt lat="15.120199" lon="-92.094362">
        <ele>3075.153981207563</ele>
        <time>2019-12-01T16:31:33Z</time>
      </trkpt>
      <trkpt lat="15.120183" lon="-92.094346">
        <ele>3075.3411789361</ele>
        <time>2019-12-01T16:31:38Z</time>
      </trkpt>
      <trkpt lat="15.120171" lon="-92.094343">
        <ele>3076.696449275459</ele>
        <time>2019-12-01T16:31:42Z</time>
      </trkpt>
      <trkpt lat="15.120151" lon="-92.094354">
        <ele>3077.4381457005484</ele>
        <time>2019-12-01T16:31:47Z</time>
      </trkpt>
      <trkpt lat="15.120141" lon="-92.094361">
        <ele>3077.438283269849</ele>
        <time>2019-12-01T16:31:51Z</time>
      </trkpt>
      <trkpt lat="15.120133" lon="-92.094362">
        <ele>3077.438344400534</ele>
        <time>2019-12-01T16:31:57Z</time>
      </trkpt>
      <trkpt lat="15.120126" lon="-92.094364">
        <ele>3076.787528521276</ele>
        <time>2019-12-01T16:32:02Z</time>
      </trkpt>
      <trkpt lat="15.120102" lon="-92.094363">
        <ele>3075.856033647508</ele>
        <time>2019-12-01T16:32:06Z</time>
      </trkpt>
      <trkpt lat="15.120071" lon="-92.094347">
        <ele>3073.4488510297438</ele>
        <time>2019-12-01T16:32:10Z</time>
      </trkpt>
      <trkpt lat="15.120050" lon="-92.094311">
        <ele>3073.414697560377</ele>
        <time>2019-12-01T16:32:15Z</time>
      </trkpt>
      <trkpt lat="15.120047" lon="-92.094295">
        <ele>3072.086914921404</ele>
        <time>2019-12-01T16:32:19Z</time>
      </trkpt>
      <trkpt lat="15.120042" lon="-92.094282">
        <ele>3069.9061575229575</ele>
        <time>2019-12-01T16:32:24Z</time>
      </trkpt>
      <trkpt lat="15.120030" lon="-92.094269">
        <ele>3069.9061100280696</ele>
        <time>2019-12-01T16:32:28Z</time>
      </trkpt>
      <trkpt lat="15.120023" lon="-92.094263">
        <ele>3069.906093883923</ele>
        <time>2019-12-01T16:32:33Z</time>
      </trkpt>
      <trkpt lat="15.120016" lon="-92.094266">
        <ele>3067.891275145228</ele>
        <time>2019-12-01T16:32:45Z</time>
      </trkpt>
      <trkpt lat="15.120007" lon="-92.094274">
        <ele>3065.376762363573</ele>
        <time>2019-12-01T16:32:49Z</time>
      </trkpt>
      <trkpt lat="15.119991" lon="-92.094280">
        <ele>3063.194799998154</ele>
        <time>2019-12-01T16:32:53Z</time>
      </trkpt>
      <trkpt lat="15.119974" lon="-92.094275">
        <ele>3061.4324099144737</ele>
        <time>2019-12-01T16:32:57Z</time>
      </trkpt>
      <trkpt lat="15.119964" lon="-92.094270">
        <ele>3061.432429007094</ele>
        <time>2019-12-01T16:33:01Z</time>
      </trkpt>
      <trkpt lat="15.119956" lon="-92.094267">
        <ele>3060.5210734017423</ele>
        <time>2019-12-01T16:33:10Z</time>
      </trkpt>
      <trkpt lat="15.119948" lon="-92.094271">
        <ele>3058.6261392837932</ele>
        <time>2019-12-01T16:33:16Z</time>
      </trkpt>
      <trkpt lat="15.119933" lon="-92.094280">
        <ele>3057.0142665014505</ele>
        <time>2019-12-01T16:33:21Z</time>
      </trkpt>
      <trkpt lat="15.119916" lon="-92.094281">
        <ele>3054.1974961097226</ele>
        <time>2019-12-01T16:33:25Z</time>
      </trkpt>
      <trkpt lat="15.119895" lon="-92.094276">
        <ele>3053.111890654814</ele>
        <time>2019-12-01T16:33:29Z</time>
      </trkpt>
      <trkpt lat="15.119873" lon="-92.094263">
        <ele>3052.574787807562</ele>
        <time>2019-12-01T16:33:33Z</time>
      </trkpt>
      <trkpt lat="15.119854" lon="-92.094251">
        <ele>3052.574791985395</ele>
        <time>2019-12-01T16:33:37Z</time>
      </trkpt>
      <trkpt lat="15.119847" lon="-92.094246">
        <ele>3052.574789925894</ele>
        <time>2019-12-01T16:33:42Z</time>
      </trkpt>
      <trkpt lat="15.119838" lon="-92.094242">
        <ele>3051.804789476371</ele>
        <time>2019-12-01T16:33:47Z</time>
      </trkpt>
      <trkpt lat="15.119824" lon="-92.094238">
        <ele>3049.420322859836</ele>
        <time>2019-12-01T16:33:51Z</time>
      </trkpt>
      <trkpt lat="15.119811" lon="-92.094240">
        <ele>3048.6513818258086</ele>
        <time>2019-12-01T16:33:55Z</time>
      </trkpt>
      <trkpt lat="15.119802" lon="-92.094245">
        <ele>3045.418089039825</ele>
        <time>2019-12-01T16:33:59Z</time>
      </trkpt>
      <trkpt lat="15.119790" lon="-92.094248">
        <ele>3043.3639977691732</ele>
        <time>2019-12-01T16:34:03Z</time>
      </trkpt>
      <trkpt lat="15.119768" lon="-92.094254">
        <ele>3042.2960901855668</ele>
        <time>2019-12-01T16:34:08Z</time>
      </trkpt>
      <trkpt lat="15.119740" lon="-92.094257">
        <ele>3042.5804831333458</ele>
        <time>2019-12-01T16:34:13Z</time>
      </trkpt>
      <trkpt lat="15.119725" lon="-92.094256">
        <ele>3042.7028830938657</ele>
        <time>2019-12-01T16:34:17Z</time>
      </trkpt>
      <trkpt lat="15.119718" lon="-92.094243">
        <ele>3042.3153473847083</ele>
        <time>2019-12-01T16:34:21Z</time>
      </trkpt>
      <trkpt lat="15.119713" lon="-92.094227">
        <ele>3042.315216133938</ele>
        <time>2019-12-01T16:34:26Z</time>
      </trkpt>
      <trkpt lat="15.119706" lon="-92.094211">
        <ele>3040.1254111065086</ele>
        <time>2019-12-01T16:34:31Z</time>
      </trkpt>
      <trkpt lat="15.119699" lon="-92.094199">
        <ele>3040.1253304311617</ele>
        <time>2019-12-01T16:34:36Z</time>
      </trkpt>
      <trkpt lat="15.119694" lon="-92.094192">
        <ele>3040.1155333050424</ele>
        <time>2019-12-01T16:34:44Z</time>
      </trkpt>
      <trkpt lat="15.119673" lon="-92.094179">
        <ele>3040.962218220373</ele>
        <time>2019-12-01T16:34:49Z</time>
      </trkpt>
      <trkpt lat="15.119649" lon="-92.094156">
        <ele>3040.65843239245</ele>
        <time>2019-12-01T16:34:54Z</time>
      </trkpt>
      <trkpt lat="15.119640" lon="-92.094142">
        <ele>3040.658355763287</ele>
        <time>2019-12-01T16:34:59Z</time>
      </trkpt>
      <trkpt lat="15.119638" lon="-92.094134">
        <ele>3039.922210281024</ele>
        <time>2019-12-01T16:35:07Z</time>
      </trkpt>
      <trkpt lat="15.119634" lon="-92.094114">
        <ele>3036.7613910972423</ele>
        <time>2019-12-01T16:35:11Z</time>
      </trkpt>
      <trkpt lat="15.119629" lon="-92.094090">
        <ele>3036.7611839201836</ele>
        <time>2019-12-01T16:35:15Z</time>
      </trkpt>
      <trkpt lat="15.119617" lon="-92.094069">
        <ele>3032.551579673311</ele>
        <time>2019-12-01T16:35:19Z</time>
      </trkpt>
      <trkpt lat="15.119598" lon="-92.094049">
        <ele>3030.2289994327266</ele>
        <time>2019-12-01T16:35:24Z</time>
      </trkpt>
      <trkpt lat="15.119586" lon="-92.094039">
        <ele>3029.4723812225457</ele>
        <time>2019-12-01T16:35:29Z</time>
      </trkpt>
      <trkpt lat="15.119577" lon="-92.094032">
        <ele>3028.597128823633</ele>
        <time>2019-12-01T16:35:33Z</time>
      </trkpt>
      <trkpt lat="15.119571" lon="-92.094026">
        <ele>3028.5971136768503</ele>
        <time>2019-12-01T16:35:41Z</time>
      </trkpt>
      <trkpt lat="15.119566" lon="-92.094025">
        <ele>3028.292447194697</ele>
        <time>2019-12-01T16:35:47Z</time>
      </trkpt>
      <trkpt lat="15.119525" lon="-92.094031">
        <ele>3027.02054598661</ele>
        <time>2019-12-01T16:35:51Z</time>
      </trkpt>
      <trkpt lat="15.119488" lon="-92.094037">
        <ele>3024.074564322818</ele>
        <time>2019-12-01T16:35:55Z</time>
      </trkpt>
      <trkpt lat="15.119461" lon="-92.094035">
        <ele>3020.6897047914645</ele>
        <time>2019-12-01T16:35:59Z</time>
      </trkpt>
      <trkpt lat="15.119412" lon="-92.094021">
        <ele>3020.813670305252</ele>
        <time>2019-12-01T16:36:04Z</time>
      </trkpt>
      <trkpt lat="15.119391" lon="-92.094015">
        <ele>3020.813746628834</ele>
        <time>2019-12-01T16:36:08Z</time>
      </trkpt>
      <trkpt lat="15.119381" lon="-92.094012">
        <ele>3020.3291568094073</ele>
        <time>2019-12-01T16:36:12Z</time>
      </trkpt>
      <trkpt lat="15.119372" lon="-92.094002">
        <ele>3019.773943495287</ele>
        <time>2019-12-01T16:36:17Z</time>
      </trkpt>
      <trkpt lat="15.119362" lon="-92.093998">
        <ele>3018.53544153663</ele>
        <time>2019-12-01T16:36:21Z</time>
      </trkpt>
      <trkpt lat="15.119347" lon="-92.093994">
        <ele>3018.6016637486487</ele>
        <time>2019-12-01T16:36:26Z</time>
      </trkpt>
      <trkpt lat="15.119335" lon="-92.093988">
        <ele>3017.846797701897</ele>
        <time>2019-12-01T16:36:30Z</time>
      </trkpt>
      <trkpt lat="15.119318" lon="-92.093981">
        <ele>3016.5558237374225</ele>
        <time>2019-12-01T16:36:35Z</time>
      </trkpt>
      <trkpt lat="15.119305" lon="-92.093986">
        <ele>3016.024953999213</ele>
        <time>2019-12-01T16:36:40Z</time>
      </trkpt>
      <trkpt lat="15.119294" lon="-92.093995">
        <ele>3016.0251087811675</ele>
        <time>2019-12-01T16:36:44Z</time>
      </trkpt>
      <trkpt lat="15.119285" lon="-92.093998">
        <ele>3013.868705128572</ele>
        <time>2019-12-01T16:36:48Z</time>
      </trkpt>
      <trkpt lat="15.119280" lon="-92.093999">
        <ele>3011.8875413745886</ele>
        <time>2019-12-01T16:36:56Z</time>
      </trkpt>
      <trkpt lat="15.119255" lon="-92.093989">
        <ele>3010.2179341673836</ele>
        <time>2019-12-01T16:37:00Z</time>
      </trkpt>
      <trkpt lat="15.119218" lon="-92.093978">
        <ele>3009.554731110046</ele>
        <time>2019-12-01T16:37:05Z</time>
      </trkpt>
      <trkpt lat="15.119183" lon="-92.093968">
        <ele>3011.5096972189135</ele>
        <time>2019-12-01T16:37:09Z</time>
      </trkpt>
      <trkpt lat="15.119148" lon="-92.093953">
        <ele>3011.9707114335233</ele>
        <time>2019-12-01T16:37:13Z</time>
      </trkpt>
      <trkpt lat="15.119135" lon="-92.093946">
        <ele>3011.970727198306</ele>
        <time>2019-12-01T16:37:18Z</time>
      </trkpt>
      <trkpt lat="15.119128" lon="-92.093942">
        <ele>3011.970732469409</ele>
        <time>2019-12-01T16:37:23Z</time>
      </trkpt>
      <trkpt lat="15.119124" lon="-92.093937">
        <ele>3011.9707096117368</ele>
        <time>2019-12-01T16:37:30Z</time>
      </trkpt>
      <trkpt lat="15.119104" lon="-92.093910">
        <ele>3010.536495908095</ele>
        <time>2019-12-01T16:37:35Z</time>
      </trkpt>
      <trkpt lat="15.119086" lon="-92.093905">
        <ele>3010.6913433015206</ele>
        <time>2019-12-01T16:37:39Z</time>
      </trkpt>
      <trkpt lat="15.119076" lon="-92.093905">
        <ele>3010.691400745712</ele>
        <time>2019-12-01T16:37:43Z</time>
      </trkpt>
      <trkpt lat="15.119057" lon="-92.093894">
        <ele>3009.790049367649</ele>
        <time>2019-12-01T16:37:48Z</time>
      </trkpt>
      <trkpt lat="15.119025" lon="-92.093887">
        <ele>3009.4676871339334</ele>
        <time>2019-12-01T16:37:53Z</time>
      </trkpt>
      <trkpt lat="15.119004" lon="-92.093891">
        <ele>3008.7708406289053</ele>
        <time>2019-12-01T16:37:57Z</time>
      </trkpt>
      <trkpt lat="15.118988" lon="-92.093893">
        <ele>3006.0426915441562</ele>
        <time>2019-12-01T16:38:02Z</time>
      </trkpt>
      <trkpt lat="15.118975" lon="-92.093894">
        <ele>3005.225404787815</ele>
        <time>2019-12-01T16:38:07Z</time>
      </trkpt>
      <trkpt lat="15.118949" lon="-92.093892">
        <ele>3003.6005484251887</ele>
        <time>2019-12-01T16:38:11Z</time>
      </trkpt>
      <trkpt lat="15.118922" lon="-92.093891">
        <ele>2999.9510563527588</ele>
        <time>2019-12-01T16:38:15Z</time>
      </trkpt>
      <trkpt lat="15.118886" lon="-92.093885">
        <ele>2997.7063574884746</ele>
        <time>2019-12-01T16:38:19Z</time>
      </trkpt>
      <trkpt lat="15.118854" lon="-92.093865">
        <ele>2996.5957701545344</ele>
        <time>2019-12-01T16:38:23Z</time>
      </trkpt>
      <trkpt lat="15.118835" lon="-92.093851">
        <ele>2996.519096844888</ele>
        <time>2019-12-01T16:38:28Z</time>
      </trkpt>
      <trkpt lat="15.118828" lon="-92.093847">
        <ele>2996.5191008340385</ele>
        <time>2019-12-01T16:38:33Z</time>
      </trkpt>
      <trkpt lat="15.118821" lon="-92.093843">
        <ele>2996.519111376923</ele>
        <time>2019-12-01T16:38:41Z</time>
      </trkpt>
      <trkpt lat="15.118813" lon="-92.093838">
        <ele>2994.805977368147</ele>
        <time>2019-12-01T16:38:55Z</time>
      </trkpt>
      <trkpt lat="15.118801" lon="-92.093828">
        <ele>2994.65752163696</ele>
        <time>2019-12-01T16:38:59Z</time>
      </trkpt>
      <trkpt lat="15.118795" lon="-92.093822">
        <ele>2994.6575026130636</ele>
        <time>2019-12-01T16:39:03Z</time>
      </trkpt>
      <trkpt lat="15.118790" lon="-92.093816">
        <ele>2994.6574746175465</ele>
        <time>2019-12-01T16:39:10Z</time>
      </trkpt>
      <trkpt lat="15.118776" lon="-92.093799">
        <ele>2993.540451864305</ele>
        <time>2019-12-01T16:39:14Z</time>
      </trkpt>
      <trkpt lat="15.118750" lon="-92.093776">
        <ele>2991.601181756219</ele>
        <time>2019-12-01T16:39:18Z</time>
      </trkpt>
      <trkpt lat="15.118724" lon="-92.093758">
        <ele>2991.029156724733</ele>
        <time>2019-12-01T16:39:22Z</time>
      </trkpt>
      <trkpt lat="15.118710" lon="-92.093750">
        <ele>2991.029162354667</ele>
        <time>2019-12-01T16:39:27Z</time>
      </trkpt>
      <trkpt lat="15.118703" lon="-92.093748">
        <ele>2989.5208902732384</ele>
        <time>2019-12-01T16:39:31Z</time>
      </trkpt>
      <trkpt lat="15.118686" lon="-92.093750">
        <ele>2988.57400246091</ele>
        <time>2019-12-01T16:39:36Z</time>
      </trkpt>
      <trkpt lat="15.118678" lon="-92.093752">
        <ele>2988.5740655041163</ele>
        <time>2019-12-01T16:39:40Z</time>
      </trkpt>
      <trkpt lat="15.118669" lon="-92.093756">
        <ele>2987.469433343257</ele>
        <time>2019-12-01T16:39:45Z</time>
      </trkpt>
      <trkpt lat="15.118662" lon="-92.093763">
        <ele>2986.8106054858576</ele>
        <time>2019-12-01T16:39:49Z</time>
      </trkpt>
      <trkpt lat="15.118633" lon="-92.093757">
        <ele>2982.9899344421688</ele>
        <time>2019-12-01T16:39:54Z</time>
      </trkpt>
      <trkpt lat="15.118610" lon="-92.093751">
        <ele>2980.2993557397645</ele>
        <time>2019-12-01T16:39:59Z</time>
      </trkpt>
      <trkpt lat="15.118581" lon="-92.093746">
        <ele>2978.6137072523243</ele>
        <time>2019-12-01T16:40:03Z</time>
      </trkpt>
      <trkpt lat="15.118550" lon="-92.093739">
        <ele>2978.3623716200486</ele>
        <time>2019-12-01T16:40:07Z</time>
      </trkpt>
      <trkpt lat="15.118521" lon="-92.093734">
        <ele>2978.7419068115432</ele>
        <time>2019-12-01T16:40:11Z</time>
      </trkpt>
      <trkpt lat="15.118477" lon="-92.093730">
        <ele>2979.2482571195583</ele>
        <time>2019-12-01T16:40:16Z</time>
      </trkpt>
      <trkpt lat="15.118461" lon="-92.093729">
        <ele>2979.2483558742265</ele>
        <time>2019-12-01T16:40:20Z</time>
      </trkpt>
      <trkpt lat="15.118451" lon="-92.093729">
        <ele>2979.2484137824367</ele>
        <time>2019-12-01T16:40:25Z</time>
      </trkpt>
      <trkpt lat="15.118443" lon="-92.093714">
        <ele>2977.266868428079</ele>
        <time>2019-12-01T16:40:30Z</time>
      </trkpt>
      <trkpt lat="15.118439" lon="-92.093703">
        <ele>2976.6327535286746</ele>
        <time>2019-12-01T16:40:34Z</time>
      </trkpt>
      <trkpt lat="15.118436" lon="-92.093689">
        <ele>2976.2622785623603</ele>
        <time>2019-12-01T16:40:38Z</time>
      </trkpt>
      <trkpt lat="15.118431" lon="-92.093674">
        <ele>2975.2616761919267</ele>
        <time>2019-12-01T16:40:42Z</time>
      </trkpt>
      <trkpt lat="15.118429" lon="-92.093660">
        <ele>2974.952949162382</ele>
        <time>2019-12-01T16:40:47Z</time>
      </trkpt>
      <trkpt lat="15.118429" lon="-92.093651">
        <ele>2974.952865004818</ele>
        <time>2019-12-01T16:40:53Z</time>
      </trkpt>
      <trkpt lat="15.118428" lon="-92.093646">
        <ele>2974.136908519857</ele>
        <time>2019-12-01T16:41:32Z</time>
      </trkpt>
      <trkpt lat="15.118442" lon="-92.093637">
        <ele>2974.136724017508</ele>
        <time>2019-12-01T16:41:36Z</time>
      </trkpt>
      <trkpt lat="15.118446" lon="-92.093637">
        <ele>2974.1366957721802</ele>
        <time>2019-12-01T16:42:11Z</time>
      </trkpt>
      <trkpt lat="15.118458" lon="-92.093639">
        <ele>2974.1366377479253</ele>
        <time>2019-12-01T16:42:15Z</time>
      </trkpt>
      <trkpt lat="15.118452" lon="-92.093637">
        <ele>2970.8080387591367</ele>
        <time>2019-12-01T16:44:17Z</time>
      </trkpt>
      <trkpt lat="15.118438" lon="-92.093632">
        <ele>2966.0329397402916</ele>
        <time>2019-12-01T16:44:22Z</time>
      </trkpt>
      <trkpt lat="15.118425" lon="-92.093629">
        <ele>2963.28372349832</ele>
        <time>2019-12-01T16:44:26Z</time>
      </trkpt>
      <trkpt lat="15.118420" lon="-92.093622">
        <ele>2961.097168662191</ele>
        <time>2019-12-01T16:44:31Z</time>
      </trkpt>
      <trkpt lat="15.118417" lon="-92.093615">
        <ele>2960.6212877832304</ele>
        <time>2019-12-01T16:44:37Z</time>
      </trkpt>
      <trkpt lat="15.118401" lon="-92.093610">
        <ele>2959.2793000708575</ele>
        <time>2019-12-01T16:44:42Z</time>
      </trkpt>
      <trkpt lat="15.118384" lon="-92.093600">
        <ele>2959.7761447000303</ele>
        <time>2019-12-01T16:44:46Z</time>
      </trkpt>
      <trkpt lat="15.118366" lon="-92.093596">
        <ele>2959.4573651737574</ele>
        <time>2019-12-01T16:44:50Z</time>
      </trkpt>
      <trkpt lat="15.118338" lon="-92.093594">
        <ele>2958.0083113349256</ele>
        <time>2019-12-01T16:44:55Z</time>
      </trkpt>
      <trkpt lat="15.118318" lon="-92.093581">
        <ele>2957.5432304052433</ele>
        <time>2019-12-01T16:44:59Z</time>
      </trkpt>
      <trkpt lat="15.118298" lon="-92.093593">
        <ele>2956.1662846535432</ele>
        <time>2019-12-01T16:45:04Z</time>
      </trkpt>
      <trkpt lat="15.118272" lon="-92.093615">
        <ele>2955.036294772749</ele>
        <time>2019-12-01T16:45:08Z</time>
      </trkpt>
      <trkpt lat="15.118260" lon="-92.093621">
        <ele>2955.036435997543</ele>
        <time>2019-12-01T16:45:12Z</time>
      </trkpt>
      <trkpt lat="15.118248" lon="-92.093619">
        <ele>2953.065545911255</ele>
        <time>2019-12-01T16:45:16Z</time>
      </trkpt>
      <trkpt lat="15.118231" lon="-92.093590">
        <ele>2949.099306776844</ele>
        <time>2019-12-01T16:45:21Z</time>
      </trkpt>
      <trkpt lat="15.118230" lon="-92.093578">
        <ele>2947.8008505760404</ele>
        <time>2019-12-01T16:45:25Z</time>
      </trkpt>
      <trkpt lat="15.118226" lon="-92.093571">
        <ele>2946.0119803701673</ele>
        <time>2019-12-01T16:45:29Z</time>
      </trkpt>
      <trkpt lat="15.118219" lon="-92.093569">
        <ele>2944.3223126324547</ele>
        <time>2019-12-01T16:45:33Z</time>
      </trkpt>
      <trkpt lat="15.118207" lon="-92.093592">
        <ele>2943.5428356665097</ele>
        <time>2019-12-01T16:45:38Z</time>
      </trkpt>
      <trkpt lat="15.118195" lon="-92.093608">
        <ele>2942.5528382358066</ele>
        <time>2019-12-01T16:45:42Z</time>
      </trkpt>
      <trkpt lat="15.118175" lon="-92.093622">
        <ele>2941.013553911968</ele>
        <time>2019-12-01T16:45:46Z</time>
      </trkpt>
      <trkpt lat="15.118149" lon="-92.093620">
        <ele>2940.439244673241</ele>
        <time>2019-12-01T16:45:50Z</time>
      </trkpt>
      <trkpt lat="15.118124" lon="-92.093608">
        <ele>2940.4217049561303</ele>
        <time>2019-12-01T16:45:54Z</time>
      </trkpt>
      <trkpt lat="15.118105" lon="-92.093595">
        <ele>2940.421705273043</ele>
        <time>2019-12-01T16:45:59Z</time>
      </trkpt>
      <trkpt lat="15.118097" lon="-92.093594">
        <ele>2937.924185260266</ele>
        <time>2019-12-01T16:46:04Z</time>
      </trkpt>
      <trkpt lat="15.118073" lon="-92.093603">
        <ele>2936.8506964081707</ele>
        <time>2019-12-01T16:46:09Z</time>
      </trkpt>
      <trkpt lat="15.118055" lon="-92.093592">
        <ele>2935.846561761555</ele>
        <time>2019-12-01T16:46:14Z</time>
      </trkpt>
      <trkpt lat="15.118048" lon="-92.093585">
        <ele>2935.846536041859</ele>
        <time>2019-12-01T16:46:19Z</time>
      </trkpt>
      <trkpt lat="15.118044" lon="-92.093574">
        <ele>2935.2839519755034</ele>
        <time>2019-12-01T16:46:23Z</time>
      </trkpt>
      <trkpt lat="15.118039" lon="-92.093565">
        <ele>2933.750199505011</ele>
        <time>2019-12-01T16:46:27Z</time>
      </trkpt>
      <trkpt lat="15.118031" lon="-92.093557">
        <ele>2932.3397742359048</ele>
        <time>2019-12-01T16:46:31Z</time>
      </trkpt>
      <trkpt lat="15.118020" lon="-92.093552">
        <ele>2932.1891645648143</ele>
        <time>2019-12-01T16:46:35Z</time>
      </trkpt>
      <trkpt lat="15.118009" lon="-92.093551">
        <ele>2931.8408402595487</ele>
        <time>2019-12-01T16:46:39Z</time>
      </trkpt>
      <trkpt lat="15.117999" lon="-92.093551">
        <ele>2932.3191775846662</ele>
        <time>2019-12-01T16:46:43Z</time>
      </trkpt>
      <trkpt lat="15.117975" lon="-92.093556">
        <ele>2931.36917735519</ele>
        <time>2019-12-01T16:46:48Z</time>
      </trkpt>
      <trkpt lat="15.117955" lon="-92.093564">
        <ele>2931.0400444186967</ele>
        <time>2019-12-01T16:46:52Z</time>
      </trkpt>
      <trkpt lat="15.117943" lon="-92.093570">
        <ele>2931.0401801138196</ele>
        <time>2019-12-01T16:46:57Z</time>
      </trkpt>
      <trkpt lat="15.117935" lon="-92.093567">
        <ele>2928.4928394717126</ele>
        <time>2019-12-01T16:47:28Z</time>
      </trkpt>
      <trkpt lat="15.117932" lon="-92.093550">
        <ele>2928.8208246556333</ele>
        <time>2019-12-01T16:47:33Z</time>
      </trkpt>
      <trkpt lat="15.117924" lon="-92.093546">
        <ele>2928.1880202080633</ele>
        <time>2019-12-01T16:47:37Z</time>
      </trkpt>
      <trkpt lat="15.117914" lon="-92.093543">
        <ele>2928.0349793272753</ele>
        <time>2019-12-01T16:47:42Z</time>
      </trkpt>
      <trkpt lat="15.117900" lon="-92.093526">
        <ele>2928.850577665682</ele>
        <time>2019-12-01T16:47:47Z</time>
      </trkpt>
      <trkpt lat="15.117885" lon="-92.093510">
        <ele>2928.2174553974073</ele>
        <time>2019-12-01T16:47:51Z</time>
      </trkpt>
      <trkpt lat="15.117871" lon="-92.093462">
        <ele>2926.722203333612</ele>
        <time>2019-12-01T16:47:56Z</time>
      </trkpt>
      <trkpt lat="15.117850" lon="-92.093449">
        <ele>2925.2475957841316</ele>
        <time>2019-12-01T16:48:00Z</time>
      </trkpt>
      <trkpt lat="15.117829" lon="-92.093457">
        <ele>2923.8899139964983</ele>
        <time>2019-12-01T16:48:04Z</time>
      </trkpt>
      <trkpt lat="15.117800" lon="-92.093472">
        <ele>2921.917587540535</ele>
        <time>2019-12-01T16:48:08Z</time>
      </trkpt>
      <trkpt lat="15.117765" lon="-92.093481">
        <ele>2919.505544554518</ele>
        <time>2019-12-01T16:48:13Z</time>
      </trkpt>
      <trkpt lat="15.117743" lon="-92.093484">
        <ele>2916.6448879650447</ele>
        <time>2019-12-01T16:48:17Z</time>
      </trkpt>
      <trkpt lat="15.117721" lon="-92.093487">
        <ele>2913.798128945337</ele>
        <time>2019-12-01T16:48:21Z</time>
      </trkpt>
      <trkpt lat="15.117700" lon="-92.093476">
        <ele>2910.994932833095</ele>
        <time>2019-12-01T16:48:26Z</time>
      </trkpt>
      <trkpt lat="15.117683" lon="-92.093453">
        <ele>2909.501168297685</ele>
        <time>2019-12-01T16:48:31Z</time>
      </trkpt>
      <trkpt lat="15.117676" lon="-92.093433">
        <ele>2910.1284538009577</ele>
        <time>2019-12-01T16:48:35Z</time>
      </trkpt>
      <trkpt lat="15.117655" lon="-92.093418">
        <ele>2910.5100346100585</ele>
        <time>2019-12-01T16:48:39Z</time>
      </trkpt>
      <trkpt lat="15.117630" lon="-92.093416">
        <ele>2908.5184777268364</ele>
        <time>2019-12-01T16:48:43Z</time>
      </trkpt>
      <trkpt lat="15.117610" lon="-92.093416">
        <ele>2906.7725137851007</ele>
        <time>2019-12-01T16:48:48Z</time>
      </trkpt>
      <trkpt lat="15.117590" lon="-92.093404">
        <ele>2905.422922789928</ele>
        <time>2019-12-01T16:48:53Z</time>
      </trkpt>
      <trkpt lat="15.117557" lon="-92.093382">
        <ele>2904.481505771662</ele>
        <time>2019-12-01T16:48:57Z</time>
      </trkpt>
      <trkpt lat="15.117543" lon="-92.093342">
        <ele>2904.264162652112</ele>
        <time>2019-12-01T16:49:02Z</time>
      </trkpt>
      <trkpt lat="15.117542" lon="-92.093304">
        <ele>2904.5208819644104</ele>
        <time>2019-12-01T16:49:07Z</time>
      </trkpt>
      <trkpt lat="15.117553" lon="-92.093266">
        <ele>2904.8524586014096</ele>
        <time>2019-12-01T16:49:12Z</time>
      </trkpt>
      <trkpt lat="15.117550" lon="-92.093248">
        <ele>2903.7790632762376</ele>
        <time>2019-12-01T16:49:16Z</time>
      </trkpt>
      <trkpt lat="15.117535" lon="-92.093229">
        <ele>2902.4051895579055</ele>
        <time>2019-12-01T16:49:20Z</time>
      </trkpt>
      <trkpt lat="15.117535" lon="-92.093208">
        <ele>2900.8749497485496</ele>
        <time>2019-12-01T16:49:24Z</time>
      </trkpt>
      <trkpt lat="15.117544" lon="-92.093189">
        <ele>2899.084908152676</ele>
        <time>2019-12-01T16:49:29Z</time>
      </trkpt>
      <trkpt lat="15.117549" lon="-92.093181">
        <ele>2898.4473514359747</ele>
        <time>2019-12-01T16:49:33Z</time>
      </trkpt>
      <trkpt lat="15.117543" lon="-92.093175">
        <ele>2897.886292142193</ele>
        <time>2019-12-01T16:49:39Z</time>
      </trkpt>
      <trkpt lat="15.117535" lon="-92.093176">
        <ele>2897.2830859947812</ele>
        <time>2019-12-01T16:49:44Z</time>
      </trkpt>
      <trkpt lat="15.117518" lon="-92.093175">
        <ele>2895.83298735019</ele>
        <time>2019-12-01T16:49:49Z</time>
      </trkpt>
      <trkpt lat="15.117499" lon="-92.093170">
        <ele>2895.255668254204</ele>
        <time>2019-12-01T16:49:53Z</time>
      </trkpt>
      <trkpt lat="15.117487" lon="-92.093161">
        <ele>2894.558641445161</ele>
        <time>2019-12-01T16:49:57Z</time>
      </trkpt>
      <trkpt lat="15.117475" lon="-92.093152">
        <ele>2893.953892233201</ele>
        <time>2019-12-01T16:50:02Z</time>
      </trkpt>
      <trkpt lat="15.117458" lon="-92.093156">
        <ele>2892.4435507944463</ele>
        <time>2019-12-01T16:50:06Z</time>
      </trkpt>
      <trkpt lat="15.117439" lon="-92.093167">
        <ele>2891.639334700077</ele>
        <time>2019-12-01T16:50:11Z</time>
      </trkpt>
      <trkpt lat="15.117432" lon="-92.093171">
        <ele>2891.6394174081092</ele>
        <time>2019-12-01T16:50:16Z</time>
      </trkpt>
      <trkpt lat="15.117419" lon="-92.093171">
        <ele>2891.2869605836454</ele>
        <time>2019-12-01T16:50:20Z</time>
      </trkpt>
      <trkpt lat="15.117391" lon="-92.093153">
        <ele>2891.5880011910785</ele>
        <time>2019-12-01T16:50:25Z</time>
      </trkpt>
      <trkpt lat="15.117370" lon="-92.093135">
        <ele>2891.587951221135</ele>
        <time>2019-12-01T16:50:30Z</time>
      </trkpt>
      <trkpt lat="15.117361" lon="-92.093105">
        <ele>2890.5591516986124</ele>
        <time>2019-12-01T16:50:34Z</time>
      </trkpt>
      <trkpt lat="15.117366" lon="-92.093073">
        <ele>2890.2030959927956</ele>
        <time>2019-12-01T16:50:38Z</time>
      </trkpt>
      <trkpt lat="15.117369" lon="-92.093063">
        <ele>2890.2029733589848</ele>
        <time>2019-12-01T16:50:42Z</time>
      </trkpt>
      <trkpt lat="15.117371" lon="-92.093052">
        <ele>2890.202851627197</ele>
        <time>2019-12-01T16:50:47Z</time>
      </trkpt>
      <trkpt lat="15.117373" lon="-92.093044">
        <ele>2889.9366481870893</ele>
        <time>2019-12-01T16:50:54Z</time>
      </trkpt>
      <trkpt lat="15.117367" lon="-92.093035">
        <ele>2888.7283452856414</ele>
        <time>2019-12-01T16:50:58Z</time>
      </trkpt>
      <trkpt lat="15.117345" lon="-92.093014">
        <ele>2888.4885321592883</ele>
        <time>2019-12-01T16:51:03Z</time>
      </trkpt>
      <trkpt lat="15.117322" lon="-92.092988">
        <ele>2888.7032701941175</ele>
        <time>2019-12-01T16:51:07Z</time>
      </trkpt>
      <trkpt lat="15.117296" lon="-92.092965">
        <ele>2889.116053989946</ele>
        <time>2019-12-01T16:51:12Z</time>
      </trkpt>
      <trkpt lat="15.117279" lon="-92.092951">
        <ele>2888.8604145844597</ele>
        <time>2019-12-01T16:51:16Z</time>
      </trkpt>
      <trkpt lat="15.117268" lon="-92.092924">
        <ele>2888.429550727571</ele>
        <time>2019-12-01T16:51:20Z</time>
      </trkpt>
      <trkpt lat="15.117261" lon="-92.092898">
        <ele>2887.882953185209</ele>
        <time>2019-12-01T16:51:25Z</time>
      </trkpt>
      <trkpt lat="15.117260" lon="-92.092889">
        <ele>2886.5298464168523</ele>
        <time>2019-12-01T16:51:29Z</time>
      </trkpt>
      <trkpt lat="15.117262" lon="-92.092878">
        <ele>2885.395933209634</ele>
        <time>2019-12-01T16:51:33Z</time>
      </trkpt>
      <trkpt lat="15.117264" lon="-92.092871">
        <ele>2885.3958512627787</ele>
        <time>2019-12-01T16:51:38Z</time>
      </trkpt>
      <trkpt lat="15.117259" lon="-92.092860">
        <ele>2883.6980194950006</ele>
        <time>2019-12-01T16:51:42Z</time>
      </trkpt>
      <trkpt lat="15.117249" lon="-92.092847">
        <ele>2883.6979598090325</ele>
        <time>2019-12-01T16:51:46Z</time>
      </trkpt>
      <trkpt lat="15.117239" lon="-92.092830">
        <ele>2882.687106975507</ele>
        <time>2019-12-01T16:51:51Z</time>
      </trkpt>
      <trkpt lat="15.117234" lon="-92.092817">
        <ele>2882.451666848969</ele>
        <time>2019-12-01T16:51:55Z</time>
      </trkpt>
      <trkpt lat="15.117220" lon="-92.092802">
        <ele>2881.9093734296666</ele>
        <time>2019-12-01T16:51:59Z</time>
      </trkpt>
      <trkpt lat="15.117201" lon="-92.092784">
        <ele>2880.5304132376095</ele>
        <time>2019-12-01T16:52:04Z</time>
      </trkpt>
      <trkpt lat="15.117190" lon="-92.092773">
        <ele>2879.11337579366</ele>
        <time>2019-12-01T16:52:08Z</time>
      </trkpt>
      <trkpt lat="15.117176" lon="-92.092771">
        <ele>2878.203779977841</ele>
        <time>2019-12-01T16:52:12Z</time>
      </trkpt>
      <trkpt lat="15.117166" lon="-92.092768">
        <ele>2878.203824798955</ele>
        <time>2019-12-01T16:52:17Z</time>
      </trkpt>
      <trkpt lat="15.117150" lon="-92.092766">
        <ele>2876.5225022330255</ele>
        <time>2019-12-01T16:52:21Z</time>
      </trkpt>
      <trkpt lat="15.117132" lon="-92.092756">
        <ele>2875.5786741958045</ele>
        <time>2019-12-01T16:52:26Z</time>
      </trkpt>
      <trkpt lat="15.117127" lon="-92.092749">
        <ele>2875.5786488277504</ele>
        <time>2019-12-01T16:52:33Z</time>
      </trkpt>
      <trkpt lat="15.117120" lon="-92.092751">
        <ele>2874.785259309266</ele>
        <time>2019-12-01T16:53:50Z</time>
      </trkpt>
      <trkpt lat="15.117110" lon="-92.092755">
        <ele>2873.7907287459584</ele>
        <time>2019-12-01T16:53:55Z</time>
      </trkpt>
      <trkpt lat="15.117095" lon="-92.092755">
        <ele>2872.900204468337</ele>
        <time>2019-12-01T16:53:59Z</time>
      </trkpt>
      <trkpt lat="15.117072" lon="-92.092757">
        <ele>2872.2270255085673</ele>
        <time>2019-12-01T16:54:04Z</time>
      </trkpt>
      <trkpt lat="15.117054" lon="-92.092757">
        <ele>2872.227149421575</ele>
        <time>2019-12-01T16:54:08Z</time>
      </trkpt>
      <trkpt lat="15.117045" lon="-92.092756">
        <ele>2872.227194832666</ele>
        <time>2019-12-01T16:54:13Z</time>
      </trkpt>
      <trkpt lat="15.117041" lon="-92.092755">
        <ele>2872.2272114161906</ele>
        <time>2019-12-01T16:54:30Z</time>
      </trkpt>
      <trkpt lat="15.117022" lon="-92.092725">
        <ele>2870.674303829502</ele>
        <time>2019-12-01T16:54:35Z</time>
      </trkpt>
      <trkpt lat="15.117005" lon="-92.092696">
        <ele>2870.6741354697856</ele>
        <time>2019-12-01T16:54:39Z</time>
      </trkpt>
      <trkpt lat="15.116998" lon="-92.092682">
        <ele>2870.6740411865676</ele>
        <time>2019-12-01T16:54:44Z</time>
      </trkpt>
      <trkpt lat="15.116993" lon="-92.092674">
        <ele>2869.6405463604833</ele>
        <time>2019-12-01T16:54:49Z</time>
      </trkpt>
      <trkpt lat="15.116979" lon="-92.092666">
        <ele>2866.848316760396</ele>
        <time>2019-12-01T16:54:53Z</time>
      </trkpt>
      <trkpt lat="15.116959" lon="-92.092661">
        <ele>2864.7124205340833</ele>
        <time>2019-12-01T16:54:57Z</time>
      </trkpt>
      <trkpt lat="15.116939" lon="-92.092673">
        <ele>2863.547135758906</ele>
        <time>2019-12-01T16:55:01Z</time>
      </trkpt>
      <trkpt lat="15.116919" lon="-92.092678">
        <ele>2862.0573287704565</ele>
        <time>2019-12-01T16:55:06Z</time>
      </trkpt>
      <trkpt lat="15.116904" lon="-92.092675">
        <ele>2861.686785205787</ele>
        <time>2019-12-01T16:55:10Z</time>
      </trkpt>
      <trkpt lat="15.116894" lon="-92.092673">
        <ele>2861.686830770182</ele>
        <time>2019-12-01T16:55:14Z</time>
      </trkpt>
      <trkpt lat="15.116886" lon="-92.092671">
        <ele>2860.3968279710093</ele>
        <time>2019-12-01T16:55:19Z</time>
      </trkpt>
      <trkpt lat="15.116878" lon="-92.092662">
        <ele>2858.1702362226692</ele>
        <time>2019-12-01T16:55:23Z</time>
      </trkpt>
      <trkpt lat="15.116864" lon="-92.092635">
        <ele>2855.9793753117087</ele>
        <time>2019-12-01T16:55:28Z</time>
      </trkpt>
      <trkpt lat="15.116845" lon="-92.092578">
        <ele>2854.2233255061533</ele>
        <time>2019-12-01T16:55:32Z</time>
      </trkpt>
      <trkpt lat="15.116841" lon="-92.092551">
        <ele>2853.8988726627867</ele>
        <time>2019-12-01T16:55:37Z</time>
      </trkpt>
      <trkpt lat="15.116840" lon="-92.092541">
        <ele>2853.898777291958</ele>
        <time>2019-12-01T16:55:41Z</time>
      </trkpt>
      <trkpt lat="15.116839" lon="-92.092533">
        <ele>2853.898698536003</ele>
        <time>2019-12-01T16:55:47Z</time>
      </trkpt>
      <trkpt lat="15.116833" lon="-92.092530">
        <ele>2853.5783976537405</ele>
        <time>2019-12-01T16:55:52Z</time>
      </trkpt>
      <trkpt lat="15.116819" lon="-92.092531">
        <ele>2852.874644691011</ele>
        <time>2019-12-01T16:55:56Z</time>
      </trkpt>
      <trkpt lat="15.116799" lon="-92.092521">
        <ele>2851.4520624262645</ele>
        <time>2019-12-01T16:56:01Z</time>
      </trkpt>
      <trkpt lat="15.116781" lon="-92.092494">
        <ele>2850.8261865560617</ele>
        <time>2019-12-01T16:56:05Z</time>
      </trkpt>
      <trkpt lat="15.116757" lon="-92.092448">
        <ele>2849.186977299322</ele>
        <time>2019-12-01T16:56:10Z</time>
      </trkpt>
      <trkpt lat="15.116745" lon="-92.092421">
        <ele>2848.8628126080625</ele>
        <time>2019-12-01T16:56:14Z</time>
      </trkpt>
      <trkpt lat="15.116739" lon="-92.092400">
        <ele>2847.2896415547284</ele>
        <time>2019-12-01T16:56:18Z</time>
      </trkpt>
      <trkpt lat="15.116731" lon="-92.092391">
        <ele>2846.3635772165244</ele>
        <time>2019-12-01T16:56:23Z</time>
      </trkpt>
      <trkpt lat="15.116720" lon="-92.092392">
        <ele>2844.4486178839734</ele>
        <time>2019-12-01T16:56:27Z</time>
      </trkpt>
      <trkpt lat="15.116714" lon="-92.092399">
        <ele>2843.982904120846</ele>
        <time>2019-12-01T16:56:31Z</time>
      </trkpt>
      <trkpt lat="15.116709" lon="-92.092405">
        <ele>2843.9830061904727</ele>
        <time>2019-12-01T16:56:38Z</time>
      </trkpt>
      <trkpt lat="15.116701" lon="-92.092411">
        <ele>2842.523885485845</ele>
        <time>2019-12-01T16:56:42Z</time>
      </trkpt>
      <trkpt lat="15.116690" lon="-92.092414">
        <ele>2840.957098302911</ele>
        <time>2019-12-01T16:56:46Z</time>
      </trkpt>
      <trkpt lat="15.116681" lon="-92.092407">
        <ele>2839.809862618084</ele>
        <time>2019-12-01T16:56:50Z</time>
      </trkpt>
      <trkpt lat="15.116668" lon="-92.092391">
        <ele>2839.395480399142</ele>
        <time>2019-12-01T16:56:55Z</time>
      </trkpt>
      <trkpt lat="15.116656" lon="-92.092366">
        <ele>2838.9866218045004</ele>
        <time>2019-12-01T16:56:59Z</time>
      </trkpt>
      <trkpt lat="15.116647" lon="-92.092311">
        <ele>2838.5657292815877</ele>
        <time>2019-12-01T16:57:03Z</time>
      </trkpt>
      <trkpt lat="15.116646" lon="-92.092279">
        <ele>2836.9890077264513</ele>
        <time>2019-12-01T16:57:07Z</time>
      </trkpt>
      <trkpt lat="15.116649" lon="-92.092259">
        <ele>2836.5522656132607</ele>
        <time>2019-12-01T16:57:11Z</time>
      </trkpt>
      <trkpt lat="15.116653" lon="-92.092242">
        <ele>2836.552072873888</ele>
        <time>2019-12-01T16:57:16Z</time>
      </trkpt>
      <trkpt lat="15.116654" lon="-92.092233">
        <ele>2836.5519728102277</ele>
        <time>2019-12-01T16:57:22Z</time>
      </trkpt>
      <trkpt lat="15.116652" lon="-92.092225">
        <ele>2835.30654802305</ele>
        <time>2019-12-01T16:57:28Z</time>
      </trkpt>
      <trkpt lat="15.116640" lon="-92.092202">
        <ele>2833.274417850012</ele>
        <time>2019-12-01T16:57:33Z</time>
      </trkpt>
      <trkpt lat="15.116633" lon="-92.092188">
        <ele>2832.8190053291496</ele>
        <time>2019-12-01T16:57:37Z</time>
      </trkpt>
      <trkpt lat="15.116625" lon="-92.092179">
        <ele>2830.168822216958</ele>
        <time>2019-12-01T16:57:41Z</time>
      </trkpt>
      <trkpt lat="15.116616" lon="-92.092175">
        <ele>2827.855364089763</ele>
        <time>2019-12-01T16:57:45Z</time>
      </trkpt>
      <trkpt lat="15.116602" lon="-92.092171">
        <ele>2826.7047795718677</ele>
        <time>2019-12-01T16:57:49Z</time>
      </trkpt>
      <trkpt lat="15.116581" lon="-92.092166">
        <ele>2825.865265401963</ele>
        <time>2019-12-01T16:57:53Z</time>
      </trkpt>
      <trkpt lat="15.116542" lon="-92.092143">
        <ele>2824.7444407815838</ele>
        <time>2019-12-01T16:57:58Z</time>
      </trkpt>
      <trkpt lat="15.116526" lon="-92.092131">
        <ele>2824.7444300606285</ele>
        <time>2019-12-01T16:58:02Z</time>
      </trkpt>
      <trkpt lat="15.116519" lon="-92.092126">
        <ele>2824.7444269344383</ele>
        <time>2019-12-01T16:58:10Z</time>
      </trkpt>
      <trkpt lat="15.116521" lon="-92.092117">
        <ele>2823.040230632872</ele>
        <time>2019-12-01T16:58:15Z</time>
      </trkpt>
      <trkpt lat="15.116524" lon="-92.092093">
        <ele>2822.714043518279</ele>
        <time>2019-12-01T16:58:19Z</time>
      </trkpt>
      <trkpt lat="15.116519" lon="-92.092055">
        <ele>2821.5127710251545</ele>
        <time>2019-12-01T16:58:24Z</time>
      </trkpt>
      <trkpt lat="15.116497" lon="-92.092040">
        <ele>2820.90461588249</ele>
        <time>2019-12-01T16:58:28Z</time>
      </trkpt>
      <trkpt lat="15.116437" lon="-92.092023">
        <ele>2820.4077667233964</ele>
        <time>2019-12-01T16:58:32Z</time>
      </trkpt>
      <trkpt lat="15.116398" lon="-92.092014">
        <ele>2819.9877664028013</ele>
        <time>2019-12-01T16:58:36Z</time>
      </trkpt>
      <trkpt lat="15.116377" lon="-92.092016">
        <ele>2819.4303121577386</ele>
        <time>2019-12-01T16:58:40Z</time>
      </trkpt>
      <trkpt lat="15.116365" lon="-92.092019">
        <ele>2819.430412748499</ele>
        <time>2019-12-01T16:58:44Z</time>
      </trkpt>
      <trkpt lat="15.116357" lon="-92.092021">
        <ele>2818.11139723661</ele>
        <time>2019-12-01T16:58:48Z</time>
      </trkpt>
      <trkpt lat="15.116350" lon="-92.092023">
        <ele>2817.7806471848476</ele>
        <time>2019-12-01T16:58:53Z</time>
      </trkpt>
      <trkpt lat="15.116336" lon="-92.092022">
        <ele>2815.8322449203147</ele>
        <time>2019-12-01T16:58:57Z</time>
      </trkpt>
      <trkpt lat="15.116309" lon="-92.092022">
        <ele>2813.4081051684957</ele>
        <time>2019-12-01T16:59:02Z</time>
      </trkpt>
      <trkpt lat="15.116282" lon="-92.092022">
        <ele>2811.656811879425</ele>
        <time>2019-12-01T16:59:06Z</time>
      </trkpt>
      <trkpt lat="15.116250" lon="-92.091999">
        <ele>2809.642146757214</ele>
        <time>2019-12-01T16:59:11Z</time>
      </trkpt>
      <trkpt lat="15.116224" lon="-92.091966">
        <ele>2808.5187027672932</ele>
        <time>2019-12-01T16:59:15Z</time>
      </trkpt>
      <trkpt lat="15.116213" lon="-92.091950">
        <ele>2807.467840386713</ele>
        <time>2019-12-01T16:59:19Z</time>
      </trkpt>
      <trkpt lat="15.116197" lon="-92.091925">
        <ele>2806.3917649049336</ele>
        <time>2019-12-01T16:59:24Z</time>
      </trkpt>
      <trkpt lat="15.116168" lon="-92.091886">
        <ele>2805.637665295858</ele>
        <time>2019-12-01T16:59:29Z</time>
      </trkpt>
      <trkpt lat="15.116161" lon="-92.091881">
        <ele>2805.5602646242614</ele>
        <time>2019-12-01T16:59:34Z</time>
      </trkpt>
      <trkpt lat="15.116155" lon="-92.091887">
        <ele>2801.7659375565627</ele>
        <time>2019-12-01T16:59:40Z</time>
      </trkpt>
      <trkpt lat="15.116144" lon="-92.091908">
        <ele>2799.5230459522604</ele>
        <time>2019-12-01T16:59:44Z</time>
      </trkpt>
      <trkpt lat="15.116102" lon="-92.091947">
        <ele>2798.2861510598063</ele>
        <time>2019-12-01T16:59:49Z</time>
      </trkpt>
      <trkpt lat="15.116066" lon="-92.091963">
        <ele>2797.366140664129</ele>
        <time>2019-12-01T16:59:53Z</time>
      </trkpt>
      <trkpt lat="15.116025" lon="-92.091963">
        <ele>2796.0446261054894</ele>
        <time>2019-12-01T16:59:58Z</time>
      </trkpt>
      <trkpt lat="15.116005" lon="-92.091956">
        <ele>2795.5798550948225</ele>
        <time>2019-12-01T17:00:03Z</time>
      </trkpt>
      <trkpt lat="15.115995" lon="-92.091953">
        <ele>2795.579882663595</ele>
        <time>2019-12-01T17:00:07Z</time>
      </trkpt>
      <trkpt lat="15.115976" lon="-92.091941">
        <ele>2794.191706902045</ele>
        <time>2019-12-01T17:00:12Z</time>
      </trkpt>
      <trkpt lat="15.115944" lon="-92.091891">
        <ele>2792.3640319374626</ele>
        <time>2019-12-01T17:00:17Z</time>
      </trkpt>
      <trkpt lat="15.115940" lon="-92.091868">
        <ele>2791.6304233072474</ele>
        <time>2019-12-01T17:00:21Z</time>
      </trkpt>
      <trkpt lat="15.115934" lon="-92.091852">
        <ele>2790.991633539045</ele>
        <time>2019-12-01T17:00:25Z</time>
      </trkpt>
      <trkpt lat="15.115911" lon="-92.091819">
        <ele>2790.055431787715</ele>
        <time>2019-12-01T17:00:29Z</time>
      </trkpt>
      <trkpt lat="15.115880" lon="-92.091792">
        <ele>2787.9340262212545</ele>
        <time>2019-12-01T17:00:34Z</time>
      </trkpt>
      <trkpt lat="15.115854" lon="-92.091775">
        <ele>2786.9574719934253</ele>
        <time>2019-12-01T17:00:38Z</time>
      </trkpt>
      <trkpt lat="15.115836" lon="-92.091761">
        <ele>2786.470391656518</ele>
        <time>2019-12-01T17:00:42Z</time>
      </trkpt>
      <trkpt lat="15.115821" lon="-92.091748">
        <ele>2786.4703587008335</ele>
        <time>2019-12-01T17:00:46Z</time>
      </trkpt>
      <trkpt lat="15.115809" lon="-92.091738">
        <ele>2786.208369890391</ele>
        <time>2019-12-01T17:00:51Z</time>
      </trkpt>
      <trkpt lat="15.115795" lon="-92.091727">
        <ele>2784.8819475439473</ele>
        <time>2019-12-01T17:00:55Z</time>
      </trkpt>
      <trkpt lat="15.115758" lon="-92.091690">
        <ele>2782.7541371352727</ele>
        <time>2019-12-01T17:01:00Z</time>
      </trkpt>
      <trkpt lat="15.115751" lon="-92.091659">
        <ele>2780.8678834796065</ele>
        <time>2019-12-01T17:01:05Z</time>
      </trkpt>
      <trkpt lat="15.115751" lon="-92.091645">
        <ele>2780.1621891368636</ele>
        <time>2019-12-01T17:01:09Z</time>
      </trkpt>
      <trkpt lat="15.115744" lon="-92.091633">
        <ele>2779.9587459134086</ele>
        <time>2019-12-01T17:01:13Z</time>
      </trkpt>
      <trkpt lat="15.115705" lon="-92.091611">
        <ele>2779.892125112613</ele>
        <time>2019-12-01T17:01:18Z</time>
      </trkpt>
      <trkpt lat="15.115693" lon="-92.091605">
        <ele>2779.2940080339026</ele>
        <time>2019-12-01T17:01:23Z</time>
      </trkpt>
      <trkpt lat="15.115668" lon="-92.091597">
        <ele>2778.762834684907</ele>
        <time>2019-12-01T17:01:27Z</time>
      </trkpt>
      <trkpt lat="15.115637" lon="-92.091579">
        <ele>2777.8666197808802</ele>
        <time>2019-12-01T17:01:32Z</time>
      </trkpt>
      <trkpt lat="15.115624" lon="-92.091563">
        <ele>2778.0198734149426</ele>
        <time>2019-12-01T17:01:36Z</time>
      </trkpt>
      <trkpt lat="15.115618" lon="-92.091557">
        <ele>2778.01984380588</ele>
        <time>2019-12-01T17:01:41Z</time>
      </trkpt>
      <trkpt lat="15.115616" lon="-92.091554">
        <ele>2778.1902431499802</ele>
        <time>2019-12-01T17:01:46Z</time>
      </trkpt>
      <trkpt lat="15.115602" lon="-92.091534">
        <ele>2778.4008350121408</ele>
        <time>2019-12-01T17:01:51Z</time>
      </trkpt>
      <trkpt lat="15.115592" lon="-92.091523">
        <ele>2777.866365141112</ele>
        <time>2019-12-01T17:01:56Z</time>
      </trkpt>
      <trkpt lat="15.115584" lon="-92.091514">
        <ele>2777.9307825201627</ele>
        <time>2019-12-01T17:02:01Z</time>
      </trkpt>
      <trkpt lat="15.115578" lon="-92.091507">
        <ele>2777.679045711232</ele>
        <time>2019-12-01T17:02:10Z</time>
      </trkpt>
      <trkpt lat="15.115572" lon="-92.091508">
        <ele>2775.5228462105033</ele>
        <time>2019-12-01T17:02:44Z</time>
      </trkpt>
      <trkpt lat="15.115567" lon="-92.091496">
        <ele>2775.432185109483</ele>
        <time>2019-12-01T17:02:48Z</time>
      </trkpt>
      <trkpt lat="15.115557" lon="-92.091488">
        <ele>2774.8447694615243</ele>
        <time>2019-12-01T17:02:52Z</time>
      </trkpt>
      <trkpt lat="15.115542" lon="-92.091471">
        <ele>2774.5361002697828</ele>
        <time>2019-12-01T17:02:56Z</time>
      </trkpt>
      <trkpt lat="15.115512" lon="-92.091449">
        <ele>2773.9689406894313</ele>
        <time>2019-12-01T17:03:00Z</time>
      </trkpt>
      <trkpt lat="15.115480" lon="-92.091433">
        <ele>2773.52001927665</ele>
        <time>2019-12-01T17:03:05Z</time>
      </trkpt>
      <trkpt lat="15.115454" lon="-92.091418">
        <ele>2772.0705840146397</ele>
        <time>2019-12-01T17:03:09Z</time>
      </trkpt>
      <trkpt lat="15.115433" lon="-92.091403">
        <ele>2771.1901969694018</ele>
        <time>2019-12-01T17:03:13Z</time>
      </trkpt>
      <trkpt lat="15.115429" lon="-92.091388">
        <ele>2770.5689799204742</ele>
        <time>2019-12-01T17:03:17Z</time>
      </trkpt>
      <trkpt lat="15.115420" lon="-92.091375">
        <ele>2770.3303844413394</ele>
        <time>2019-12-01T17:03:21Z</time>
      </trkpt>
      <trkpt lat="15.115409" lon="-92.091364">
        <ele>2769.942413454475</ele>
        <time>2019-12-01T17:03:25Z</time>
      </trkpt>
      <trkpt lat="15.115376" lon="-92.091351">
        <ele>2768.312126689015</ele>
        <time>2019-12-01T17:03:29Z</time>
      </trkpt>
      <trkpt lat="15.115358" lon="-92.091345">
        <ele>2767.2535962986726</ele>
        <time>2019-12-01T17:03:33Z</time>
      </trkpt>
      <trkpt lat="15.115311" lon="-92.091324">
        <ele>2765.093052714736</ele>
        <time>2019-12-01T17:03:38Z</time>
      </trkpt>
      <trkpt lat="15.115290" lon="-92.091314">
        <ele>2763.2310284085547</ele>
        <time>2019-12-01T17:03:42Z</time>
      </trkpt>
      <trkpt lat="15.115276" lon="-92.091311">
        <ele>2762.6197562399075</ele>
        <time>2019-12-01T17:03:47Z</time>
      </trkpt>
      <trkpt lat="15.115246" lon="-92.091298">
        <ele>2762.158890375924</ele>
        <time>2019-12-01T17:03:51Z</time>
      </trkpt>
      <trkpt lat="15.115211" lon="-92.091278">
        <ele>2760.9716696259834</ele>
        <time>2019-12-01T17:03:56Z</time>
      </trkpt>
      <trkpt lat="15.115168" lon="-92.091266">
        <ele>2760.9496113160417</ele>
        <time>2019-12-01T17:04:00Z</time>
      </trkpt>
      <trkpt lat="15.115115" lon="-92.091240">
        <ele>2760.744383399895</ele>
        <time>2019-12-01T17:04:05Z</time>
      </trkpt>
      <trkpt lat="15.115074" lon="-92.091217">
        <ele>2760.5078543352774</ele>
        <time>2019-12-01T17:04:10Z</time>
      </trkpt>
      <trkpt lat="15.115046" lon="-92.091190">
        <ele>2760.638880338706</ele>
        <time>2019-12-01T17:04:14Z</time>
      </trkpt>
      <trkpt lat="15.115007" lon="-92.091162">
        <ele>2760.588317485831</ele>
        <time>2019-12-01T17:04:19Z</time>
      </trkpt>
      <trkpt lat="15.114981" lon="-92.091133">
        <ele>2760.110904168904</ele>
        <time>2019-12-01T17:04:23Z</time>
      </trkpt>
      <trkpt lat="15.114951" lon="-92.091103">
        <ele>2759.99532836884</ele>
        <time>2019-12-01T17:04:28Z</time>
      </trkpt>
      <trkpt lat="15.114927" lon="-92.091083">
        <ele>2759.338551246611</ele>
        <time>2019-12-01T17:04:32Z</time>
      </trkpt>
      <trkpt lat="15.114895" lon="-92.091060">
        <ele>2758.7328168423473</ele>
        <time>2019-12-01T17:04:36Z</time>
      </trkpt>
      <trkpt lat="15.114863" lon="-92.091035">
        <ele>2757.4488547147853</ele>
        <time>2019-12-01T17:04:40Z</time>
      </trkpt>
      <trkpt lat="15.114834" lon="-92.091016">
        <ele>2755.7789326951183</ele>
        <time>2019-12-01T17:04:44Z</time>
      </trkpt>
      <trkpt lat="15.114797" lon="-92.090989">
        <ele>2754.622408185003</ele>
        <time>2019-12-01T17:04:49Z</time>
      </trkpt>
      <trkpt lat="15.114754" lon="-92.090991">
        <ele>2753.8302316714885</ele>
        <time>2019-12-01T17:04:53Z</time>
      </trkpt>
      <trkpt lat="15.114717" lon="-92.090950">
        <ele>2752.5861725538985</ele>
        <time>2019-12-01T17:04:58Z</time>
      </trkpt>
      <trkpt lat="15.114694" lon="-92.090899">
        <ele>2750.220103315702</ele>
        <time>2019-12-01T17:05:03Z</time>
      </trkpt>
      <trkpt lat="15.114669" lon="-92.090856">
        <ele>2746.9097852813966</ele>
        <time>2019-12-01T17:05:07Z</time>
      </trkpt>
      <trkpt lat="15.114638" lon="-92.090824">
        <ele>2745.917730413584</ele>
        <time>2019-12-01T17:05:12Z</time>
      </trkpt>
      <trkpt lat="15.114620" lon="-92.090801">
        <ele>2744.939591339043</ele>
        <time>2019-12-01T17:05:16Z</time>
      </trkpt>
      <trkpt lat="15.114596" lon="-92.090764">
        <ele>2744.063658061611</ele>
        <time>2019-12-01T17:05:21Z</time>
      </trkpt>
      <trkpt lat="15.114585" lon="-92.090732">
        <ele>2743.5128729488347</ele>
        <time>2019-12-01T17:05:25Z</time>
      </trkpt>
      <trkpt lat="15.114540" lon="-92.090726">
        <ele>2743.6398130077982</ele>
        <time>2019-12-01T17:05:30Z</time>
      </trkpt>
      <trkpt lat="15.114525" lon="-92.090728">
        <ele>2743.6399324383847</ele>
        <time>2019-12-01T17:05:34Z</time>
      </trkpt>
      <trkpt lat="15.114503" lon="-92.090720">
        <ele>2743.53428629065</ele>
        <time>2019-12-01T17:05:39Z</time>
      </trkpt>
      <trkpt lat="15.114478" lon="-92.090699">
        <ele>2743.15875902999</ele>
        <time>2019-12-01T17:05:44Z</time>
      </trkpt>
      <trkpt lat="15.114455" lon="-92.090688">
        <ele>2742.20958770261</ele>
        <time>2019-12-01T17:05:48Z</time>
      </trkpt>
      <trkpt lat="15.114439" lon="-92.090663">
        <ele>2740.8669156401697</ele>
        <time>2019-12-01T17:05:53Z</time>
      </trkpt>
      <trkpt lat="15.114478" lon="-92.090631">
        <ele>2739.613900192908</ele>
        <time>2019-12-01T17:05:57Z</time>
      </trkpt>
      <trkpt lat="15.114527" lon="-92.090616">
        <ele>2740.1105012415223</ele>
        <time>2019-12-01T17:06:02Z</time>
      </trkpt>
      <trkpt lat="15.114564" lon="-92.090612">
        <ele>2739.4300432542022</ele>
        <time>2019-12-01T17:06:06Z</time>
      </trkpt>
      <trkpt lat="15.114600" lon="-92.090601">
        <ele>2738.719247272123</ele>
        <time>2019-12-01T17:06:10Z</time>
      </trkpt>
      <trkpt lat="15.114571" lon="-92.090563">
        <ele>2738.3767795826807</ele>
        <time>2019-12-01T17:06:14Z</time>
      </trkpt>
      <trkpt lat="15.114518" lon="-92.090538">
        <ele>2737.7548077661536</ele>
        <time>2019-12-01T17:06:19Z</time>
      </trkpt>
      <trkpt lat="15.114469" lon="-92.090520">
        <ele>2737.02107215576</ele>
        <time>2019-12-01T17:06:24Z</time>
      </trkpt>
      <trkpt lat="15.114439" lon="-92.090501">
        <ele>2736.001795047621</ele>
        <time>2019-12-01T17:06:29Z</time>
      </trkpt>
      <trkpt lat="15.114410" lon="-92.090483">
        <ele>2734.630467624345</ele>
        <time>2019-12-01T17:06:33Z</time>
      </trkpt>
      <trkpt lat="15.114388" lon="-92.090455">
        <ele>2732.9076843294224</ele>
        <time>2019-12-01T17:06:38Z</time>
      </trkpt>
      <trkpt lat="15.114362" lon="-92.090413">
        <ele>2730.8437176475786</ele>
        <time>2019-12-01T17:06:43Z</time>
      </trkpt>
      <trkpt lat="15.114336" lon="-92.090380">
        <ele>2728.4937102366207</ele>
        <time>2019-12-01T17:06:47Z</time>
      </trkpt>
      <trkpt lat="15.114310" lon="-92.090345">
        <ele>2726.5145314115216</ele>
        <time>2019-12-01T17:06:51Z</time>
      </trkpt>
      <trkpt lat="15.114274" lon="-92.090309">
        <ele>2724.0605535928757</ele>
        <time>2019-12-01T17:06:56Z</time>
      </trkpt>
      <trkpt lat="15.114229" lon="-92.090297">
        <ele>2722.49335297767</ele>
        <time>2019-12-01T17:07:00Z</time>
      </trkpt>
      <trkpt lat="15.114178" lon="-92.090299">
        <ele>2720.067678873468</ele>
        <time>2019-12-01T17:07:05Z</time>
      </trkpt>
      <trkpt lat="15.114141" lon="-92.090307">
        <ele>2718.8116594369776</ele>
        <time>2019-12-01T17:07:09Z</time>
      </trkpt>
      <trkpt lat="15.114107" lon="-92.090305">
        <ele>2718.2107792218435</ele>
        <time>2019-12-01T17:07:13Z</time>
      </trkpt>
      <trkpt lat="15.114078" lon="-92.090288">
        <ele>2718.2715925902244</ele>
        <time>2019-12-01T17:07:17Z</time>
      </trkpt>
      <trkpt lat="15.114055" lon="-92.090277">
        <ele>2718.3844326089047</ele>
        <time>2019-12-01T17:07:21Z</time>
      </trkpt>
      <trkpt lat="15.114037" lon="-92.090267">
        <ele>2718.2870428593164</ele>
        <time>2019-12-01T17:07:25Z</time>
      </trkpt>
      <trkpt lat="15.114015" lon="-92.090249">
        <ele>2718.6537070746067</ele>
        <time>2019-12-01T17:07:29Z</time>
      </trkpt>
      <trkpt lat="15.114015" lon="-92.090219">
        <ele>2718.8331057333744</ele>
        <time>2019-12-01T17:07:33Z</time>
      </trkpt>
      <trkpt lat="15.114046" lon="-92.090190">
        <ele>2718.801605389288</ele>
        <time>2019-12-01T17:07:38Z</time>
      </trkpt>
      <trkpt lat="15.114068" lon="-92.090169">
        <ele>2717.542708224903</ele>
        <time>2019-12-01T17:07:42Z</time>
      </trkpt>
      <trkpt lat="15.114082" lon="-92.090139">
        <ele>2716.3848575703137</ele>
        <time>2019-12-01T17:07:46Z</time>
      </trkpt>
      <trkpt lat="15.114047" lon="-92.090115">
        <ele>2715.6741548932378</ele>
        <time>2019-12-01T17:07:51Z</time>
      </trkpt>
      <trkpt lat="15.113997" lon="-92.090123">
        <ele>2715.712402796085</ele>
        <time>2019-12-01T17:07:55Z</time>
      </trkpt>
      <trkpt lat="15.113950" lon="-92.090133">
        <ele>2715.260414615773</ele>
        <time>2019-12-01T17:07:59Z</time>
      </trkpt>
      <trkpt lat="15.113894" lon="-92.090121">
        <ele>2713.0138459754025</ele>
        <time>2019-12-01T17:08:04Z</time>
      </trkpt>
      <trkpt lat="15.113862" lon="-92.090106">
        <ele>2712.228989634267</ele>
        <time>2019-12-01T17:08:08Z</time>
      </trkpt>
      <trkpt lat="15.113830" lon="-92.090086">
        <ele>2711.739020099823</ele>
        <time>2019-12-01T17:08:13Z</time>
      </trkpt>
      <trkpt lat="15.113817" lon="-92.090066">
        <ele>2711.677617311031</ele>
        <time>2019-12-01T17:08:17Z</time>
      </trkpt>
      <trkpt lat="15.113813" lon="-92.090023">
        <ele>2711.9020847333313</ele>
        <time>2019-12-01T17:08:21Z</time>
      </trkpt>
      <trkpt lat="15.113809" lon="-92.089986">
        <ele>2712.155891166145</ele>
        <time>2019-12-01T17:08:26Z</time>
      </trkpt>
      <trkpt lat="15.113808" lon="-92.089950">
        <ele>2712.495391276</ele>
        <time>2019-12-01T17:08:30Z</time>
      </trkpt>
      <trkpt lat="15.113806" lon="-92.089918">
        <ele>2711.983122299991</ele>
        <time>2019-12-01T17:08:34Z</time>
      </trkpt>
      <trkpt lat="15.113797" lon="-92.089883">
        <ele>2711.7218533065366</ele>
        <time>2019-12-01T17:08:39Z</time>
      </trkpt>
      <trkpt lat="15.113759" lon="-92.089863">
        <ele>2710.065417883131</ele>
        <time>2019-12-01T17:08:44Z</time>
      </trkpt>
      <trkpt lat="15.113732" lon="-92.089857">
        <ele>2710.0044974525385</ele>
        <time>2019-12-01T17:08:48Z</time>
      </trkpt>
      <trkpt lat="15.113710" lon="-92.089850">
        <ele>2710.0045769765056</ele>
        <time>2019-12-01T17:08:52Z</time>
      </trkpt>
      <trkpt lat="15.113717" lon="-92.089845">
        <ele>2709.6490107681198</ele>
        <time>2019-12-01T17:09:14Z</time>
      </trkpt>
      <trkpt lat="15.113718" lon="-92.089838">
        <ele>2709.648939275304</ele>
        <time>2019-12-01T17:09:19Z</time>
      </trkpt>
      <trkpt lat="15.113701" lon="-92.089821">
        <ele>2707.5961384515404</ele>
        <time>2019-12-01T17:09:24Z</time>
      </trkpt>
      <trkpt lat="15.113670" lon="-92.089801">
        <ele>2706.0832035485037</ele>
        <time>2019-12-01T17:09:28Z</time>
      </trkpt>
      <trkpt lat="15.113643" lon="-92.089758">
        <ele>2704.666221623358</ele>
        <time>2019-12-01T17:09:32Z</time>
      </trkpt>
      <trkpt lat="15.113604" lon="-92.089721">
        <ele>2704.4136624852927</ele>
        <time>2019-12-01T17:09:36Z</time>
      </trkpt>
      <trkpt lat="15.113575" lon="-92.089692">
        <ele>2703.9296877008082</ele>
        <time>2019-12-01T17:09:40Z</time>
      </trkpt>
      <trkpt lat="15.113553" lon="-92.089650">
        <ele>2702.5300079042972</ele>
        <time>2019-12-01T17:09:44Z</time>
      </trkpt>
      <trkpt lat="15.113521" lon="-92.089603">
        <ele>2701.3417624095127</ele>
        <time>2019-12-01T17:09:49Z</time>
      </trkpt>
      <trkpt lat="15.113520" lon="-92.089566">
        <ele>2700.589945917076</ele>
        <time>2019-12-01T17:09:53Z</time>
      </trkpt>
      <trkpt lat="15.113518" lon="-92.089528">
        <ele>2699.860332619724</ele>
        <time>2019-12-01T17:09:57Z</time>
      </trkpt>
      <trkpt lat="15.113498" lon="-92.089492">
        <ele>2699.6350225329124</ele>
        <time>2019-12-01T17:10:02Z</time>
      </trkpt>
      <trkpt lat="15.113483" lon="-92.089460">
        <ele>2699.1553071885655</ele>
        <time>2019-12-01T17:10:07Z</time>
      </trkpt>
      <trkpt lat="15.113480" lon="-92.089421">
        <ele>2698.208414886824</ele>
        <time>2019-12-01T17:10:11Z</time>
      </trkpt>
      <trkpt lat="15.113439" lon="-92.089392">
        <ele>2695.287256756408</ele>
        <time>2019-12-01T17:10:15Z</time>
      </trkpt>
      <trkpt lat="15.113416" lon="-92.089359">
        <ele>2692.5465995383497</ele>
        <time>2019-12-01T17:10:19Z</time>
      </trkpt>
      <trkpt lat="15.113402" lon="-92.089322">
        <ele>2690.955513019934</ele>
        <time>2019-12-01T17:10:23Z</time>
      </trkpt>
      <trkpt lat="15.113361" lon="-92.089298">
        <ele>2690.543196072396</ele>
        <time>2019-12-01T17:10:28Z</time>
      </trkpt>
      <trkpt lat="15.113343" lon="-92.089262">
        <ele>2690.320549462475</ele>
        <time>2019-12-01T17:10:32Z</time>
      </trkpt>
      <trkpt lat="15.113330" lon="-92.089229">
        <ele>2689.8620617859683</ele>
        <time>2019-12-01T17:10:36Z</time>
      </trkpt>
      <trkpt lat="15.113305" lon="-92.089182">
        <ele>2688.396668524597</ele>
        <time>2019-12-01T17:10:41Z</time>
      </trkpt>
      <trkpt lat="15.113272" lon="-92.089138">
        <ele>2687.1589040249373</ele>
        <time>2019-12-01T17:10:46Z</time>
      </trkpt>
      <trkpt lat="15.113241" lon="-92.089105">
        <ele>2685.6687915465836</ele>
        <time>2019-12-01T17:10:50Z</time>
      </trkpt>
      <trkpt lat="15.113201" lon="-92.089072">
        <ele>2683.4619423575527</ele>
        <time>2019-12-01T17:10:55Z</time>
      </trkpt>
      <trkpt lat="15.113158" lon="-92.089035">
        <ele>2681.852493292098</ele>
        <time>2019-12-01T17:11:00Z</time>
      </trkpt>
      <trkpt lat="15.113143" lon="-92.088986">
        <ele>2679.950981985634</ele>
        <time>2019-12-01T17:11:05Z</time>
      </trkpt>
      <trkpt lat="15.113105" lon="-92.088953">
        <ele>2678.039056066351</ele>
        <time>2019-12-01T17:11:09Z</time>
      </trkpt>
      <trkpt lat="15.113064" lon="-92.088930">
        <ele>2676.711699559837</ele>
        <time>2019-12-01T17:11:13Z</time>
      </trkpt>
      <trkpt lat="15.113021" lon="-92.088907">
        <ele>2676.232265408235</ele>
        <time>2019-12-01T17:11:18Z</time>
      </trkpt>
      <trkpt lat="15.113016" lon="-92.088880">
        <ele>2676.260843255897</ele>
        <time>2019-12-01T17:11:22Z</time>
      </trkpt>
      <trkpt lat="15.113042" lon="-92.088853">
        <ele>2676.3788110625974</ele>
        <time>2019-12-01T17:11:26Z</time>
      </trkpt>
      <trkpt lat="15.113038" lon="-92.088821">
        <ele>2676.0430788246445</ele>
        <time>2019-12-01T17:11:30Z</time>
      </trkpt>
      <trkpt lat="15.113006" lon="-92.088799">
        <ele>2675.8091918286004</ele>
        <time>2019-12-01T17:11:34Z</time>
      </trkpt>
      <trkpt lat="15.112971" lon="-92.088779">
        <ele>2675.402480702658</ele>
        <time>2019-12-01T17:11:38Z</time>
      </trkpt>
      <trkpt lat="15.112951" lon="-92.088764">
        <ele>2675.052610592845</ele>
        <time>2019-12-01T17:11:43Z</time>
      </trkpt>
      <trkpt lat="15.112948" lon="-92.088748">
        <ele>2673.7233739238904</ele>
        <time>2019-12-01T17:11:47Z</time>
      </trkpt>
      <trkpt lat="15.113006" lon="-92.088761">
        <ele>2673.436979547591</ele>
        <time>2019-12-01T17:11:52Z</time>
      </trkpt>
      <trkpt lat="15.113025" lon="-92.088753">
        <ele>2672.4487450019715</ele>
        <time>2019-12-01T17:11:57Z</time>
      </trkpt>
      <trkpt lat="15.113036" lon="-92.088745">
        <ele>2671.9810644699674</ele>
        <time>2019-12-01T17:12:01Z</time>
      </trkpt>
      <trkpt lat="15.113053" lon="-92.088736">
        <ele>2671.312408406861</ele>
        <time>2019-12-01T17:12:06Z</time>
      </trkpt>
      <trkpt lat="15.113087" lon="-92.088704">
        <ele>2670.4588431844636</ele>
        <time>2019-12-01T17:12:11Z</time>
      </trkpt>
      <trkpt lat="15.113078" lon="-92.088693">
        <ele>2669.20659778791</ele>
        <time>2019-12-01T17:12:16Z</time>
      </trkpt>
      <trkpt lat="15.113063" lon="-92.088688">
        <ele>2668.3228578941466</ele>
        <time>2019-12-01T17:12:20Z</time>
      </trkpt>
      <trkpt lat="15.113029" lon="-92.088690">
        <ele>2667.4410229749137</ele>
        <time>2019-12-01T17:12:24Z</time>
      </trkpt>
      <trkpt lat="15.112974" lon="-92.088686">
        <ele>2666.1845110304666</ele>
        <time>2019-12-01T17:12:29Z</time>
      </trkpt>
      <trkpt lat="15.112941" lon="-92.088681">
        <ele>2665.702257209841</ele>
        <time>2019-12-01T17:12:33Z</time>
      </trkpt>
      <trkpt lat="15.112903" lon="-92.088670">
        <ele>2665.485603545317</ele>
        <time>2019-12-01T17:12:37Z</time>
      </trkpt>
      <trkpt lat="15.112852" lon="-92.088664">
        <ele>2664.309853308937</ele>
        <time>2019-12-01T17:12:41Z</time>
      </trkpt>
      <trkpt lat="15.112754" lon="-92.088652">
        <ele>2662.456133707652</ele>
        <time>2019-12-01T17:12:46Z</time>
      </trkpt>
      <trkpt lat="15.112698" lon="-92.088638">
        <ele>2660.2205244499837</ele>
        <time>2019-12-01T17:12:50Z</time>
      </trkpt>
      <trkpt lat="15.112653" lon="-92.088626">
        <ele>2658.3466760405668</ele>
        <time>2019-12-01T17:12:55Z</time>
      </trkpt>
      <trkpt lat="15.112620" lon="-92.088617">
        <ele>2658.1917792157856</ele>
        <time>2019-12-01T17:12:59Z</time>
      </trkpt>
      <trkpt lat="15.112582" lon="-92.088604">
        <ele>2657.583744320487</ele>
        <time>2019-12-01T17:13:04Z</time>
      </trkpt>
      <trkpt lat="15.112524" lon="-92.088601">
        <ele>2657.5203769544664</ele>
        <time>2019-12-01T17:13:09Z</time>
      </trkpt>
      <trkpt lat="15.112491" lon="-92.088590">
        <ele>2657.7263047523325</ele>
        <time>2019-12-01T17:13:13Z</time>
      </trkpt>
      <trkpt lat="15.112457" lon="-92.088579">
        <ele>2656.622895806618</ele>
        <time>2019-12-01T17:13:17Z</time>
      </trkpt>
      <trkpt lat="15.112413" lon="-92.088566">
        <ele>2657.0595812353267</ele>
        <time>2019-12-01T17:13:22Z</time>
      </trkpt>
      <trkpt lat="15.112377" lon="-92.088541">
        <ele>2657.6350167114915</ele>
        <time>2019-12-01T17:13:27Z</time>
      </trkpt>
      <trkpt lat="15.112372" lon="-92.088504">
        <ele>2657.1017327100362</ele>
        <time>2019-12-01T17:13:31Z</time>
      </trkpt>
      <trkpt lat="15.112349" lon="-92.088480">
        <ele>2656.594567918897</ele>
        <time>2019-12-01T17:13:36Z</time>
      </trkpt>
      <trkpt lat="15.112324" lon="-92.088461">
        <ele>2655.533991303176</ele>
        <time>2019-12-01T17:13:40Z</time>
      </trkpt>
      <trkpt lat="15.112296" lon="-92.088444">
        <ele>2654.052080597827</ele>
        <time>2019-12-01T17:13:44Z</time>
      </trkpt>
      <trkpt lat="15.112271" lon="-92.088422">
        <ele>2652.658479799222</ele>
        <time>2019-12-01T17:13:49Z</time>
      </trkpt>
      <trkpt lat="15.112237" lon="-92.088403">
        <ele>2651.2764344502502</ele>
        <time>2019-12-01T17:13:54Z</time>
      </trkpt>
      <trkpt lat="15.112190" lon="-92.088396">
        <ele>2650.415586789448</ele>
        <time>2019-12-01T17:13:59Z</time>
      </trkpt>
      <trkpt lat="15.112159" lon="-92.088388">
        <ele>2650.520206021181</ele>
        <time>2019-12-01T17:14:03Z</time>
      </trkpt>
      <trkpt lat="15.112123" lon="-92.088379">
        <ele>2650.2864666075793</ele>
        <time>2019-12-01T17:14:08Z</time>
      </trkpt>
      <trkpt lat="15.112085" lon="-92.088362">
        <ele>2648.6913337916376</ele>
        <time>2019-12-01T17:14:13Z</time>
      </trkpt>
      <trkpt lat="15.112054" lon="-92.088332">
        <ele>2647.707115173632</ele>
        <time>2019-12-01T17:14:17Z</time>
      </trkpt>
      <trkpt lat="15.112016" lon="-92.088307">
        <ele>2643.4649318276684</ele>
        <time>2019-12-01T17:14:22Z</time>
      </trkpt>
      <trkpt lat="15.111996" lon="-92.088277">
        <ele>2641.210621893425</ele>
        <time>2019-12-01T17:14:26Z</time>
      </trkpt>
      <trkpt lat="15.111967" lon="-92.088262">
        <ele>2638.677708825711</ele>
        <time>2019-12-01T17:14:30Z</time>
      </trkpt>
      <trkpt lat="15.111940" lon="-92.088289">
        <ele>2636.3812781589627</ele>
        <time>2019-12-01T17:14:34Z</time>
      </trkpt>
      <trkpt lat="15.111911" lon="-92.088334">
        <ele>2634.857007689305</ele>
        <time>2019-12-01T17:14:39Z</time>
      </trkpt>
      <trkpt lat="15.111877" lon="-92.088380">
        <ele>2633.667737428239</ele>
        <time>2019-12-01T17:14:44Z</time>
      </trkpt>
      <trkpt lat="15.111841" lon="-92.088423">
        <ele>2632.8585822641435</ele>
        <time>2019-12-01T17:14:49Z</time>
      </trkpt>
      <trkpt lat="15.111812" lon="-92.088452">
        <ele>2632.5472907101293</ele>
        <time>2019-12-01T17:14:53Z</time>
      </trkpt>
      <trkpt lat="15.111779" lon="-92.088456">
        <ele>2632.899839666472</ele>
        <time>2019-12-01T17:14:58Z</time>
      </trkpt>
      <trkpt lat="15.111744" lon="-92.088465">
        <ele>2631.9553369920714</ele>
        <time>2019-12-01T17:15:03Z</time>
      </trkpt>
      <trkpt lat="15.111708" lon="-92.088482">
        <ele>2630.5677952185097</ele>
        <time>2019-12-01T17:15:07Z</time>
      </trkpt>
      <trkpt lat="15.111656" lon="-92.088501">
        <ele>2629.5541597819843</ele>
        <time>2019-12-01T17:15:12Z</time>
      </trkpt>
      <trkpt lat="15.111621" lon="-92.088519">
        <ele>2627.746217450754</ele>
        <time>2019-12-01T17:15:16Z</time>
      </trkpt>
      <trkpt lat="15.111597" lon="-92.088558">
        <ele>2624.5226445700664</ele>
        <time>2019-12-01T17:15:21Z</time>
      </trkpt>
      <trkpt lat="15.111572" lon="-92.088542">
        <ele>2622.9462340706673</ele>
        <time>2019-12-01T17:15:25Z</time>
      </trkpt>
      <trkpt lat="15.111569" lon="-92.088503">
        <ele>2620.904855635231</ele>
        <time>2019-12-01T17:15:29Z</time>
      </trkpt>
      <trkpt lat="15.111561" lon="-92.088459">
        <ele>2620.1117542613197</ele>
        <time>2019-12-01T17:15:33Z</time>
      </trkpt>
      <trkpt lat="15.111532" lon="-92.088409">
        <ele>2619.6456305393967</ele>
        <time>2019-12-01T17:15:38Z</time>
      </trkpt>
      <trkpt lat="15.111521" lon="-92.088362">
        <ele>2617.927475279504</ele>
        <time>2019-12-01T17:15:42Z</time>
      </trkpt>
      <trkpt lat="15.111502" lon="-92.088307">
        <ele>2617.601620502329</ele>
        <time>2019-12-01T17:15:47Z</time>
      </trkpt>
      <trkpt lat="15.111471" lon="-92.088286">
        <ele>2617.529595535207</ele>
        <time>2019-12-01T17:15:51Z</time>
      </trkpt>
      <trkpt lat="15.111419" lon="-92.088286">
        <ele>2618.0658316328722</ele>
        <time>2019-12-01T17:15:56Z</time>
      </trkpt>
      <trkpt lat="15.111385" lon="-92.088296">
        <ele>2618.473621964368</ele>
        <time>2019-12-01T17:16:00Z</time>
      </trkpt>
      <trkpt lat="15.111339" lon="-92.088319">
        <ele>2618.3481778087676</ele>
        <time>2019-12-01T17:16:05Z</time>
      </trkpt>
      <trkpt lat="15.111305" lon="-92.088324">
        <ele>2617.9729587050633</ele>
        <time>2019-12-01T17:16:09Z</time>
      </trkpt>
      <trkpt lat="15.111269" lon="-92.088321">
        <ele>2617.1501642818994</ele>
        <time>2019-12-01T17:16:13Z</time>
      </trkpt>
      <trkpt lat="15.111241" lon="-92.088284">
        <ele>2615.57699383936</ele>
        <time>2019-12-01T17:16:17Z</time>
      </trkpt>
      <trkpt lat="15.111237" lon="-92.088226">
        <ele>2614.008092885071</ele>
        <time>2019-12-01T17:16:22Z</time>
      </trkpt>
      <trkpt lat="15.111221" lon="-92.088192">
        <ele>2612.845999676186</ele>
        <time>2019-12-01T17:16:26Z</time>
      </trkpt>
      <trkpt lat="15.111162" lon="-92.088205">
        <ele>2613.4251275759493</ele>
        <time>2019-12-01T17:16:31Z</time>
      </trkpt>
      <trkpt lat="15.111113" lon="-92.088231">
        <ele>2612.9801516905795</ele>
        <time>2019-12-01T17:16:36Z</time>
      </trkpt>
      <trkpt lat="15.111074" lon="-92.088238">
        <ele>2611.7866227576446</ele>
        <time>2019-12-01T17:16:40Z</time>
      </trkpt>
      <trkpt lat="15.111067" lon="-92.088185">
        <ele>2609.0403104521106</ele>
        <time>2019-12-01T17:16:45Z</time>
      </trkpt>
      <trkpt lat="15.111076" lon="-92.088128">
        <ele>2606.7896885200935</ele>
        <time>2019-12-01T17:16:49Z</time>
      </trkpt>
      <trkpt lat="15.111057" lon="-92.088101">
        <ele>2605.257568842431</ele>
        <time>2019-12-01T17:16:53Z</time>
      </trkpt>
      <trkpt lat="15.111012" lon="-92.088111">
        <ele>2604.5763248625763</ele>
        <time>2019-12-01T17:16:57Z</time>
      </trkpt>
      <trkpt lat="15.110962" lon="-92.088145">
        <ele>2605.1616976677824</ele>
        <time>2019-12-01T17:17:02Z</time>
      </trkpt>
      <trkpt lat="15.110912" lon="-92.088138">
        <ele>2604.4869105045095</ele>
        <time>2019-12-01T17:17:07Z</time>
      </trkpt>
      <trkpt lat="15.110910" lon="-92.088100">
        <ele>2603.5778620945093</ele>
        <time>2019-12-01T17:17:11Z</time>
      </trkpt>
      <trkpt lat="15.110920" lon="-92.088062">
        <ele>2602.236846517784</ele>
        <time>2019-12-01T17:17:15Z</time>
      </trkpt>
      <trkpt lat="15.110901" lon="-92.088015">
        <ele>2600.4562455734626</ele>
        <time>2019-12-01T17:17:20Z</time>
      </trkpt>
      <trkpt lat="15.110854" lon="-92.088021">
        <ele>2598.4092511037607</ele>
        <time>2019-12-01T17:17:25Z</time>
      </trkpt>
      <trkpt lat="15.110822" lon="-92.088031">
        <ele>2596.235240981987</ele>
        <time>2019-12-01T17:17:29Z</time>
      </trkpt>
      <trkpt lat="15.110782" lon="-92.088043">
        <ele>2595.178733112324</ele>
        <time>2019-12-01T17:17:34Z</time>
      </trkpt>
      <trkpt lat="15.110756" lon="-92.088078">
        <ele>2594.686572397222</ele>
        <time>2019-12-01T17:17:39Z</time>
      </trkpt>
      <trkpt lat="15.110730" lon="-92.088085">
        <ele>2594.5486321673197</ele>
        <time>2019-12-01T17:17:43Z</time>
      </trkpt>
      <trkpt lat="15.110720" lon="-92.088046">
        <ele>2593.136210185027</ele>
        <time>2019-12-01T17:17:47Z</time>
      </trkpt>
      <trkpt lat="15.110728" lon="-92.088000">
        <ele>2591.688189159378</ele>
        <time>2019-12-01T17:17:51Z</time>
      </trkpt>
      <trkpt lat="15.110728" lon="-92.087938">
        <ele>2590.9978904821196</ele>
        <time>2019-12-01T17:17:56Z</time>
      </trkpt>
      <trkpt lat="15.110728" lon="-92.087894">
        <ele>2590.2943331627857</ele>
        <time>2019-12-01T17:18:00Z</time>
      </trkpt>
      <trkpt lat="15.110746" lon="-92.087853">
        <ele>2589.3770664500967</ele>
        <time>2019-12-01T17:18:04Z</time>
      </trkpt>
      <trkpt lat="15.110766" lon="-92.087805">
        <ele>2588.052738618845</ele>
        <time>2019-12-01T17:18:09Z</time>
      </trkpt>
      <trkpt lat="15.110775" lon="-92.087770">
        <ele>2586.973479880482</ele>
        <time>2019-12-01T17:18:13Z</time>
      </trkpt>
      <trkpt lat="15.110773" lon="-92.087741">
        <ele>2586.07794142155</ele>
        <time>2019-12-01T17:18:17Z</time>
      </trkpt>
      <trkpt lat="15.110766" lon="-92.087697">
        <ele>2585.548012690153</ele>
        <time>2019-12-01T17:18:22Z</time>
      </trkpt>
      <trkpt lat="15.110769" lon="-92.087649">
        <ele>2585.1356638292236</ele>
        <time>2019-12-01T17:18:27Z</time>
      </trkpt>
      <trkpt lat="15.110777" lon="-92.087606">
        <ele>2584.447934863321</ele>
        <time>2019-12-01T17:18:31Z</time>
      </trkpt>
      <trkpt lat="15.110785" lon="-92.087557">
        <ele>2583.099502997599</ele>
        <time>2019-12-01T17:18:36Z</time>
      </trkpt>
      <trkpt lat="15.110791" lon="-92.087515">
        <ele>2581.8151127119363</ele>
        <time>2019-12-01T17:18:40Z</time>
      </trkpt>
      <trkpt lat="15.110795" lon="-92.087470">
        <ele>2579.854204599391</ele>
        <time>2019-12-01T17:18:44Z</time>
      </trkpt>
      <trkpt lat="15.110804" lon="-92.087426">
        <ele>2578.2777850419125</ele>
        <time>2019-12-01T17:18:48Z</time>
      </trkpt>
      <trkpt lat="15.110817" lon="-92.087388">
        <ele>2576.6540378717677</ele>
        <time>2019-12-01T17:18:52Z</time>
      </trkpt>
      <trkpt lat="15.110838" lon="-92.087343">
        <ele>2574.605607426757</ele>
        <time>2019-12-01T17:18:57Z</time>
      </trkpt>
      <trkpt lat="15.110855" lon="-92.087297">
        <ele>2572.220030932282</ele>
        <time>2019-12-01T17:19:01Z</time>
      </trkpt>
      <trkpt lat="15.110868" lon="-92.087266">
        <ele>2570.51017466574</ele>
        <time>2019-12-01T17:19:05Z</time>
      </trkpt>
      <trkpt lat="15.110874" lon="-92.087228">
        <ele>2569.8803712301883</ele>
        <time>2019-12-01T17:19:09Z</time>
      </trkpt>
      <trkpt lat="15.110856" lon="-92.087191">
        <ele>2569.3542519812577</ele>
        <time>2019-12-01T17:19:14Z</time>
      </trkpt>
      <trkpt lat="15.110807" lon="-92.087185">
        <ele>2569.0244365408926</ele>
        <time>2019-12-01T17:19:19Z</time>
      </trkpt>
      <trkpt lat="15.110780" lon="-92.087182">
        <ele>2568.799731053552</ele>
        <time>2019-12-01T17:19:23Z</time>
      </trkpt>
      <trkpt lat="15.110756" lon="-92.087174">
        <ele>2568.7707530469847</ele>
        <time>2019-12-01T17:19:27Z</time>
      </trkpt>
      <trkpt lat="15.110763" lon="-92.087158">
        <ele>2568.967822003497</ele>
        <time>2019-12-01T17:19:31Z</time>
      </trkpt>
      <trkpt lat="15.110766" lon="-92.087134">
        <ele>2569.061317737966</ele>
        <time>2019-12-01T17:19:35Z</time>
      </trkpt>
      <trkpt lat="15.110786" lon="-92.087114">
        <ele>2568.9135273877223</ele>
        <time>2019-12-01T17:19:39Z</time>
      </trkpt>
      <trkpt lat="15.110831" lon="-92.087115">
        <ele>2568.1581079564266</ele>
        <time>2019-12-01T17:19:44Z</time>
      </trkpt>
      <trkpt lat="15.110802" lon="-92.087086">
        <ele>2567.3445447101785</ele>
        <time>2019-12-01T17:19:48Z</time>
      </trkpt>
      <trkpt lat="15.110742" lon="-92.087070">
        <ele>2566.6694937597254</ele>
        <time>2019-12-01T17:19:53Z</time>
      </trkpt>
      <trkpt lat="15.110683" lon="-92.087065">
        <ele>2566.044832489678</ele>
        <time>2019-12-01T17:19:58Z</time>
      </trkpt>
      <trkpt lat="15.110634" lon="-92.087068">
        <ele>2565.755388709368</ele>
        <time>2019-12-01T17:20:03Z</time>
      </trkpt>
      <trkpt lat="15.110592" lon="-92.087060">
        <ele>2564.651100578157</ele>
        <time>2019-12-01T17:20:08Z</time>
      </trkpt>
      <trkpt lat="15.110551" lon="-92.087059">
        <ele>2563.5766550504927</ele>
        <time>2019-12-01T17:20:12Z</time>
      </trkpt>
      <trkpt lat="15.110514" lon="-92.087076">
        <ele>2562.4530380032816</ele>
        <time>2019-12-01T17:20:16Z</time>
      </trkpt>
      <trkpt lat="15.110486" lon="-92.087107">
        <ele>2562.175450810593</ele>
        <time>2019-12-01T17:20:20Z</time>
      </trkpt>
      <trkpt lat="15.110444" lon="-92.087150">
        <ele>2562.2015338032884</ele>
        <time>2019-12-01T17:20:25Z</time>
      </trkpt>
      <trkpt lat="15.110414" lon="-92.087181">
        <ele>2561.7992043583995</ele>
        <time>2019-12-01T17:20:29Z</time>
      </trkpt>
      <trkpt lat="15.110372" lon="-92.087233">
        <ele>2561.088803489974</ele>
        <time>2019-12-01T17:20:34Z</time>
      </trkpt>
      <trkpt lat="15.110343" lon="-92.087272">
        <ele>2560.8403604254822</ele>
        <time>2019-12-01T17:20:38Z</time>
      </trkpt>
      <trkpt lat="15.110309" lon="-92.087306">
        <ele>2560.851660649794</ele>
        <time>2019-12-01T17:20:42Z</time>
      </trkpt>
      <trkpt lat="15.110271" lon="-92.087348">
        <ele>2560.807637161273</ele>
        <time>2019-12-01T17:20:47Z</time>
      </trkpt>
      <trkpt lat="15.110228" lon="-92.087386">
        <ele>2560.0031228309795</ele>
        <time>2019-12-01T17:20:52Z</time>
      </trkpt>
      <trkpt lat="15.110191" lon="-92.087381">
        <ele>2558.295310139264</ele>
        <time>2019-12-01T17:20:57Z</time>
      </trkpt>
      <trkpt lat="15.110178" lon="-92.087344">
        <ele>2558.598506516775</ele>
        <time>2019-12-01T17:21:01Z</time>
      </trkpt>
      <trkpt lat="15.110159" lon="-92.087305">
        <ele>2558.4932606275975</ele>
        <time>2019-12-01T17:21:06Z</time>
      </trkpt>
      <trkpt lat="15.110130" lon="-92.087289">
        <ele>2558.2869988122216</ele>
        <time>2019-12-01T17:21:10Z</time>
      </trkpt>
      <trkpt lat="15.110113" lon="-92.087268">
        <ele>2557.1841236523683</ele>
        <time>2019-12-01T17:21:15Z</time>
      </trkpt>
      <trkpt lat="15.110135" lon="-92.087237">
        <ele>2556.295003248303</ele>
        <time>2019-12-01T17:21:19Z</time>
      </trkpt>
      <trkpt lat="15.110120" lon="-92.087208">
        <ele>2556.382711181357</ele>
        <time>2019-12-01T17:21:24Z</time>
      </trkpt>
      <trkpt lat="15.110073" lon="-92.087217">
        <ele>2556.3433176158683</ele>
        <time>2019-12-01T17:21:28Z</time>
      </trkpt>
      <trkpt lat="15.110022" lon="-92.087223">
        <ele>2556.47579443267</ele>
        <time>2019-12-01T17:21:33Z</time>
      </trkpt>
      <trkpt lat="15.109993" lon="-92.087220">
        <ele>2556.5286883099325</ele>
        <time>2019-12-01T17:21:37Z</time>
      </trkpt>
      <trkpt lat="15.109970" lon="-92.087206">
        <ele>2554.7005807276855</ele>
        <time>2019-12-01T17:21:42Z</time>
      </trkpt>
      <trkpt lat="15.109950" lon="-92.087179">
        <ele>2554.4196842344163</ele>
        <time>2019-12-01T17:21:46Z</time>
      </trkpt>
      <trkpt lat="15.109932" lon="-92.087150">
        <ele>2554.174397980793</ele>
        <time>2019-12-01T17:21:50Z</time>
      </trkpt>
      <trkpt lat="15.109906" lon="-92.087162">
        <ele>2553.485237005485</ele>
        <time>2019-12-01T17:21:54Z</time>
      </trkpt>
      <trkpt lat="15.109876" lon="-92.087175">
        <ele>2553.1322947901385</ele>
        <time>2019-12-01T17:21:58Z</time>
      </trkpt>
      <trkpt lat="15.109845" lon="-92.087183">
        <ele>2553.13013774367</ele>
        <time>2019-12-01T17:22:02Z</time>
      </trkpt>
      <trkpt lat="15.109811" lon="-92.087183">
        <ele>2552.7458372426395</ele>
        <time>2019-12-01T17:22:07Z</time>
      </trkpt>
      <trkpt lat="15.109798" lon="-92.087153">
        <ele>2552.0251675632835</ele>
        <time>2019-12-01T17:22:11Z</time>
      </trkpt>
      <trkpt lat="15.109788" lon="-92.087106">
        <ele>2551.1187700044165</ele>
        <time>2019-12-01T17:22:16Z</time>
      </trkpt>
      <trkpt lat="15.109746" lon="-92.087110">
        <ele>2551.2797388794415</ele>
        <time>2019-12-01T17:22:20Z</time>
      </trkpt>
      <trkpt lat="15.109705" lon="-92.087129">
        <ele>2550.9667121616094</ele>
        <time>2019-12-01T17:22:24Z</time>
      </trkpt>
      <trkpt lat="15.109663" lon="-92.087153">
        <ele>2549.8956859323475</ele>
        <time>2019-12-01T17:22:29Z</time>
      </trkpt>
      <trkpt lat="15.109625" lon="-92.087147">
        <ele>2549.443489343378</ele>
        <time>2019-12-01T17:22:33Z</time>
      </trkpt>
      <trkpt lat="15.109626" lon="-92.087106">
        <ele>2547.8652086936563</ele>
        <time>2019-12-01T17:22:37Z</time>
      </trkpt>
      <trkpt lat="15.109654" lon="-92.087072">
        <ele>2544.3204918089746</ele>
        <time>2019-12-01T17:22:41Z</time>
      </trkpt>
      <trkpt lat="15.109685" lon="-92.087023">
        <ele>2542.4716725968715</ele>
        <time>2019-12-01T17:22:45Z</time>
      </trkpt>
      <trkpt lat="15.109700" lon="-92.086977">
        <ele>2541.5526722343916</ele>
        <time>2019-12-01T17:22:49Z</time>
      </trkpt>
      <trkpt lat="15.109644" lon="-92.086980">
        <ele>2541.6070220601964</ele>
        <time>2019-12-01T17:22:54Z</time>
      </trkpt>
      <trkpt lat="15.109600" lon="-92.087003">
        <ele>2541.7174055428504</ele>
        <time>2019-12-01T17:22:59Z</time>
      </trkpt>
      <trkpt lat="15.109562" lon="-92.087013">
        <ele>2541.461642870039</ele>
        <time>2019-12-01T17:23:03Z</time>
      </trkpt>
      <trkpt lat="15.109524" lon="-92.087029">
        <ele>2540.221322373316</ele>
        <time>2019-12-01T17:23:08Z</time>
      </trkpt>
      <trkpt lat="15.109487" lon="-92.087039">
        <ele>2539.083726750876</ele>
        <time>2019-12-01T17:23:12Z</time>
      </trkpt>
      <trkpt lat="15.109463" lon="-92.087059">
        <ele>2538.5977527104933</ele>
        <time>2019-12-01T17:23:17Z</time>
      </trkpt>
      <trkpt lat="15.109440" lon="-92.087102">
        <ele>2537.6891488827923</ele>
        <time>2019-12-01T17:23:22Z</time>
      </trkpt>
      <trkpt lat="15.109413" lon="-92.087073">
        <ele>2536.7261503659734</ele>
        <time>2019-12-01T17:23:27Z</time>
      </trkpt>
      <trkpt lat="15.109387" lon="-92.087021">
        <ele>2534.4272323035643</ele>
        <time>2019-12-01T17:23:32Z</time>
      </trkpt>
      <trkpt lat="15.109358" lon="-92.086989">
        <ele>2533.4063595123184</ele>
        <time>2019-12-01T17:23:36Z</time>
      </trkpt>
      <trkpt lat="15.109327" lon="-92.086962">
        <ele>2532.1165075543745</ele>
        <time>2019-12-01T17:23:40Z</time>
      </trkpt>
      <trkpt lat="15.109320" lon="-92.086912">
        <ele>2530.5369667077744</ele>
        <time>2019-12-01T17:23:45Z</time>
      </trkpt>
      <trkpt lat="15.109286" lon="-92.086912">
        <ele>2530.618245088504</ele>
        <time>2019-12-01T17:23:49Z</time>
      </trkpt>
      <trkpt lat="15.109259" lon="-92.086944">
        <ele>2529.338945511694</ele>
        <time>2019-12-01T17:23:53Z</time>
      </trkpt>
      <trkpt lat="15.109235" lon="-92.086963">
        <ele>2527.9237648740236</ele>
        <time>2019-12-01T17:23:57Z</time>
      </trkpt>
      <trkpt lat="15.109206" lon="-92.086950">
        <ele>2527.1384340281015</ele>
        <time>2019-12-01T17:24:02Z</time>
      </trkpt>
      <trkpt lat="15.109202" lon="-92.086925">
        <ele>2525.111361659554</ele>
        <time>2019-12-01T17:24:06Z</time>
      </trkpt>
      <trkpt lat="15.109193" lon="-92.086894">
        <ele>2523.643835776348</ele>
        <time>2019-12-01T17:24:10Z</time>
      </trkpt>
      <trkpt lat="15.109166" lon="-92.086913">
        <ele>2524.2350134639414</ele>
        <time>2019-12-01T17:24:14Z</time>
      </trkpt>
      <trkpt lat="15.109171" lon="-92.086950">
        <ele>2525.069807251588</ele>
        <time>2019-12-01T17:24:18Z</time>
      </trkpt>
      <trkpt lat="15.109197" lon="-92.086993">
        <ele>2525.5698136378605</ele>
        <time>2019-12-01T17:24:23Z</time>
      </trkpt>
      <trkpt lat="15.109222" lon="-92.087033">
        <ele>2525.596162711906</ele>
        <time>2019-12-01T17:24:28Z</time>
      </trkpt>
      <trkpt lat="15.109202" lon="-92.087053">
        <ele>2525.6465427624685</ele>
        <time>2019-12-01T17:24:32Z</time>
      </trkpt>
      <trkpt lat="15.109179" lon="-92.087017">
        <ele>2524.65292868995</ele>
        <time>2019-12-01T17:24:36Z</time>
      </trkpt>
      <trkpt lat="15.109162" lon="-92.086988">
        <ele>2523.5336225970855</ele>
        <time>2019-12-01T17:24:40Z</time>
      </trkpt>
      <trkpt lat="15.109129" lon="-92.086962">
        <ele>2524.0162487469793</ele>
        <time>2019-12-01T17:24:44Z</time>
      </trkpt>
      <trkpt lat="15.109099" lon="-92.086948">
        <ele>2522.9157298419777</ele>
        <time>2019-12-01T17:24:48Z</time>
      </trkpt>
      <trkpt lat="15.109085" lon="-92.086994">
        <ele>2522.0017183889654</ele>
        <time>2019-12-01T17:24:53Z</time>
      </trkpt>
      <trkpt lat="15.109115" lon="-92.087027">
        <ele>2522.3985724516283</ele>
        <time>2019-12-01T17:24:57Z</time>
      </trkpt>
      <trkpt lat="15.109146" lon="-92.087062">
        <ele>2520.8196036912846</ele>
        <time>2019-12-01T17:25:01Z</time>
      </trkpt>
      <trkpt lat="15.109175" lon="-92.087103">
        <ele>2519.714583422475</ele>
        <time>2019-12-01T17:25:06Z</time>
      </trkpt>
      <trkpt lat="15.109183" lon="-92.087131">
        <ele>2517.755091211957</ele>
        <time>2019-12-01T17:25:10Z</time>
      </trkpt>
      <trkpt lat="15.109193" lon="-92.087153">
        <ele>2516.3060192187895</ele>
        <time>2019-12-01T17:25:14Z</time>
      </trkpt>
      <trkpt lat="15.109201" lon="-92.087178">
        <ele>2514.693173292915</ele>
        <time>2019-12-01T17:25:18Z</time>
      </trkpt>
      <trkpt lat="15.109220" lon="-92.087204">
        <ele>2513.7863224424855</ele>
        <time>2019-12-01T17:25:22Z</time>
      </trkpt>
      <trkpt lat="15.109238" lon="-92.087224">
        <ele>2512.8713623973927</ele>
        <time>2019-12-01T17:25:26Z</time>
      </trkpt>
      <trkpt lat="15.109262" lon="-92.087258">
        <ele>2511.6068812418607</ele>
        <time>2019-12-01T17:25:31Z</time>
      </trkpt>
      <trkpt lat="15.109266" lon="-92.087287">
        <ele>2510.676477850962</ele>
        <time>2019-12-01T17:25:35Z</time>
      </trkpt>
      <trkpt lat="15.109256" lon="-92.087332">
        <ele>2509.368630333047</ele>
        <time>2019-12-01T17:25:40Z</time>
      </trkpt>
      <trkpt lat="15.109224" lon="-92.087334">
        <ele>2510.035119922356</ele>
        <time>2019-12-01T17:25:44Z</time>
      </trkpt>
      <trkpt lat="15.109177" lon="-92.087325">
        <ele>2510.722839355738</ele>
        <time>2019-12-01T17:25:49Z</time>
      </trkpt>
      <trkpt lat="15.109137" lon="-92.087319">
        <ele>2510.1671416883014</ele>
        <time>2019-12-01T17:25:53Z</time>
      </trkpt>
      <trkpt lat="15.109087" lon="-92.087314">
        <ele>2509.7601910579197</ele>
        <time>2019-12-01T17:25:58Z</time>
      </trkpt>
      <trkpt lat="15.109051" lon="-92.087307">
        <ele>2507.947872384001</ele>
        <time>2019-12-01T17:26:02Z</time>
      </trkpt>
      <trkpt lat="15.109007" lon="-92.087300">
        <ele>2506.490326911992</ele>
        <time>2019-12-01T17:26:06Z</time>
      </trkpt>
      <trkpt lat="15.108964" lon="-92.087301">
        <ele>2505.050673288432</ele>
        <time>2019-12-01T17:26:10Z</time>
      </trkpt>
      <trkpt lat="15.108902" lon="-92.087312">
        <ele>2504.8246336605107</ele>
        <time>2019-12-01T17:26:15Z</time>
      </trkpt>
      <trkpt lat="15.108855" lon="-92.087328">
        <ele>2504.721090731659</ele>
        <time>2019-12-01T17:26:19Z</time>
      </trkpt>
      <trkpt lat="15.108805" lon="-92.087345">
        <ele>2504.6659202365204</ele>
        <time>2019-12-01T17:26:23Z</time>
      </trkpt>
      <trkpt lat="15.108745" lon="-92.087368">
        <ele>2504.3684490474398</ele>
        <time>2019-12-01T17:26:28Z</time>
      </trkpt>
      <trkpt lat="15.108691" lon="-92.087381">
        <ele>2504.848666902091</ele>
        <time>2019-12-01T17:26:32Z</time>
      </trkpt>
      <trkpt lat="15.108645" lon="-92.087381">
        <ele>2505.7320298162945</ele>
        <time>2019-12-01T17:26:36Z</time>
      </trkpt>
      <trkpt lat="15.108590" lon="-92.087368">
        <ele>2506.1802630666557</ele>
        <time>2019-12-01T17:26:41Z</time>
      </trkpt>
      <trkpt lat="15.108551" lon="-92.087361">
        <ele>2506.595246286379</ele>
        <time>2019-12-01T17:26:45Z</time>
      </trkpt>
      <trkpt lat="15.108500" lon="-92.087339">
        <ele>2507.692291912525</ele>
        <time>2019-12-01T17:26:49Z</time>
      </trkpt>
      <trkpt lat="15.108451" lon="-92.087317">
        <ele>2507.7488002385703</ele>
        <time>2019-12-01T17:26:54Z</time>
      </trkpt>
      <trkpt lat="15.108419" lon="-92.087328">
        <ele>2507.5928647931837</ele>
        <time>2019-12-01T17:26:58Z</time>
      </trkpt>
      <trkpt lat="15.108416" lon="-92.087337">
        <ele>2507.2572843918606</ele>
        <time>2019-12-01T17:27:02Z</time>
      </trkpt>
      <trkpt lat="15.108442" lon="-92.087352">
        <ele>2506.5824484062487</ele>
        <time>2019-12-01T17:27:07Z</time>
      </trkpt>
      <trkpt lat="15.108461" lon="-92.087368">
        <ele>2506.893273620842</ele>
        <time>2019-12-01T17:27:11Z</time>
      </trkpt>
      <trkpt lat="15.108457" lon="-92.087381">
        <ele>2506.677848008789</ele>
        <time>2019-12-01T17:27:15Z</time>
      </trkpt>
      <trkpt lat="15.108448" lon="-92.087390">
        <ele>2507.6259974286713</ele>
        <time>2019-12-01T17:27:19Z</time>
      </trkpt>
      <trkpt lat="15.108457" lon="-92.087401">
        <ele>2507.687803625921</ele>
        <time>2019-12-01T17:27:24Z</time>
      </trkpt>
      <trkpt lat="15.108458" lon="-92.087403">
        <ele>2507.687816390657</ele>
        <time>2019-12-01T17:27:29Z</time>
      </trkpt>
      <trkpt lat="15.108454" lon="-92.087409">
        <ele>2508.193034744965</ele>
        <time>2019-12-01T17:28:47Z</time>
      </trkpt>
      <trkpt lat="15.108467" lon="-92.087379">
        <ele>2506.0561777496832</ele>
        <time>2019-12-01T17:28:52Z</time>
      </trkpt>
      <trkpt lat="15.108479" lon="-92.087354">
        <ele>2505.9872578202094</ele>
        <time>2019-12-01T17:28:56Z</time>
      </trkpt>
      <trkpt lat="15.108466" lon="-92.087325">
        <ele>2506.4340825653085</ele>
        <time>2019-12-01T17:29:01Z</time>
      </trkpt>
      <trkpt lat="15.108433" lon="-92.087307">
        <ele>2506.0508219328526</ele>
        <time>2019-12-01T17:29:05Z</time>
      </trkpt>
      <trkpt lat="15.108414" lon="-92.087300">
        <ele>2505.852637777235</ele>
        <time>2019-12-01T17:29:09Z</time>
      </trkpt>
      <trkpt lat="15.108402" lon="-92.087296">
        <ele>2505.9493580930407</ele>
        <time>2019-12-01T17:29:14Z</time>
      </trkpt>
      <trkpt lat="15.108367" lon="-92.087291">
        <ele>2505.8565251864766</ele>
        <time>2019-12-01T17:29:19Z</time>
      </trkpt>
      <trkpt lat="15.108337" lon="-92.087288">
        <ele>2505.00780950116</ele>
        <time>2019-12-01T17:29:23Z</time>
      </trkpt>
      <trkpt lat="15.108322" lon="-92.087284">
        <ele>2504.53228607602</ele>
        <time>2019-12-01T17:29:28Z</time>
      </trkpt>
      <trkpt lat="15.108317" lon="-92.087283">
        <ele>2504.5323084769793</ele>
        <time>2019-12-01T17:30:01Z</time>
      </trkpt>
      <trkpt lat="15.108307" lon="-92.087280">
        <ele>2504.53235383041</ele>
        <time>2019-12-01T17:30:06Z</time>
      </trkpt>
      <trkpt lat="15.108299" lon="-92.087280">
        <ele>2504.0675584339792</ele>
        <time>2019-12-01T17:30:17Z</time>
      </trkpt>
      <trkpt lat="15.108292" lon="-92.087279">
        <ele>2504.067594944074</ele>
        <time>2019-12-01T17:30:24Z</time>
      </trkpt>
      <trkpt lat="15.108272" lon="-92.087269">
        <ele>2502.697997543225</ele>
        <time>2019-12-01T17:30:29Z</time>
      </trkpt>
      <trkpt lat="15.108260" lon="-92.087258">
        <ele>2502.1860114636233</ele>
        <time>2019-12-01T17:30:33Z</time>
      </trkpt>
      <trkpt lat="15.108232" lon="-92.087235">
        <ele>2501.5675687442435</ele>
        <time>2019-12-01T17:30:37Z</time>
      </trkpt>
      <trkpt lat="15.108188" lon="-92.087198">
        <ele>2500.7681728696134</ele>
        <time>2019-12-01T17:30:42Z</time>
      </trkpt>
      <trkpt lat="15.108156" lon="-92.087183">
        <ele>2497.8029144172724</ele>
        <time>2019-12-01T17:30:47Z</time>
      </trkpt>
      <trkpt lat="15.108146" lon="-92.087180">
        <ele>2497.8029482319794</ele>
        <time>2019-12-01T17:30:52Z</time>
      </trkpt>
      <trkpt lat="15.108129" lon="-92.087185">
        <ele>2497.44763122858</ele>
        <time>2019-12-01T17:30:57Z</time>
      </trkpt>
      <trkpt lat="15.108114" lon="-92.087212">
        <ele>2497.2507364412454</ele>
        <time>2019-12-01T17:31:01Z</time>
      </trkpt>
      <trkpt lat="15.108102" lon="-92.087239">
        <ele>2496.260110776123</ele>
        <time>2019-12-01T17:31:05Z</time>
      </trkpt>
      <trkpt lat="15.108088" lon="-92.087264">
        <ele>2495.006297102466</ele>
        <time>2019-12-01T17:31:09Z</time>
      </trkpt>
      <trkpt lat="15.108077" lon="-92.087270">
        <ele>2493.5088684356565</ele>
        <time>2019-12-01T17:31:13Z</time>
      </trkpt>
      <trkpt lat="15.108031" lon="-92.087260">
        <ele>2490.9663491001966</ele>
        <time>2019-12-01T17:31:17Z</time>
      </trkpt>
      <trkpt lat="15.107984" lon="-92.087229">
        <ele>2489.6538579335515</ele>
        <time>2019-12-01T17:31:22Z</time>
      </trkpt>
      <trkpt lat="15.107967" lon="-92.087191">
        <ele>2487.6272314630005</ele>
        <time>2019-12-01T17:31:26Z</time>
      </trkpt>
      <trkpt lat="15.107964" lon="-92.087151">
        <ele>2486.005276048435</ele>
        <time>2019-12-01T17:31:31Z</time>
      </trkpt>
      <trkpt lat="15.107971" lon="-92.087100">
        <ele>2484.1104590029718</ele>
        <time>2019-12-01T17:31:35Z</time>
      </trkpt>
      <trkpt lat="15.108003" lon="-92.087075">
        <ele>2481.205207164534</ele>
        <time>2019-12-01T17:31:39Z</time>
      </trkpt>
      <trkpt lat="15.108020" lon="-92.087044">
        <ele>2480.10519343201</ele>
        <time>2019-12-01T17:31:44Z</time>
      </trkpt>
      <trkpt lat="15.107983" lon="-92.087040">
        <ele>2479.5409417489404</ele>
        <time>2019-12-01T17:31:48Z</time>
      </trkpt>
      <trkpt lat="15.107934" lon="-92.087065">
        <ele>2479.12549622544</ele>
        <time>2019-12-01T17:31:53Z</time>
      </trkpt>
      <trkpt lat="15.107900" lon="-92.087077">
        <ele>2478.7828174594474</ele>
        <time>2019-12-01T17:31:57Z</time>
      </trkpt>
      <trkpt lat="15.107863" lon="-92.087085">
        <ele>2478.7811851484093</ele>
        <time>2019-12-01T17:32:01Z</time>
      </trkpt>
      <trkpt lat="15.107827" lon="-92.087095">
        <ele>2478.4463132961328</ele>
        <time>2019-12-01T17:32:05Z</time>
      </trkpt>
      <trkpt lat="15.107804" lon="-92.087125">
        <ele>2478.6240012865464</ele>
        <time>2019-12-01T17:32:09Z</time>
      </trkpt>
      <trkpt lat="15.107797" lon="-92.087155">
        <ele>2478.8059892614574</ele>
        <time>2019-12-01T17:32:14Z</time>
      </trkpt>
      <trkpt lat="15.107809" lon="-92.087172">
        <ele>2477.865886831832</ele>
        <time>2019-12-01T17:32:19Z</time>
      </trkpt>
      <trkpt lat="15.107798" lon="-92.087193">
        <ele>2477.757029938023</ele>
        <time>2019-12-01T17:32:23Z</time>
      </trkpt>
      <trkpt lat="15.107786" lon="-92.087233">
        <ele>2478.4721063743623</ele>
        <time>2019-12-01T17:32:27Z</time>
      </trkpt>
      <trkpt lat="15.107778" lon="-92.087288">
        <ele>2478.312037138748</ele>
        <time>2019-12-01T17:32:32Z</time>
      </trkpt>
      <trkpt lat="15.107766" lon="-92.087337">
        <ele>2476.340675373284</ele>
        <time>2019-12-01T17:32:37Z</time>
      </trkpt>
      <trkpt lat="15.107759" lon="-92.087387">
        <ele>2477.0475053259825</ele>
        <time>2019-12-01T17:32:42Z</time>
      </trkpt>
      <trkpt lat="15.107770" lon="-92.087411">
        <ele>2479.6868287362263</ele>
        <time>2019-12-01T17:32:46Z</time>
      </trkpt>
      <trkpt lat="15.107773" lon="-92.087459">
        <ele>2480.009536482326</ele>
        <time>2019-12-01T17:32:51Z</time>
      </trkpt>
      <trkpt lat="15.107782" lon="-92.087507">
        <ele>2479.4655165261124</ele>
        <time>2019-12-01T17:32:56Z</time>
      </trkpt>
      <trkpt lat="15.107807" lon="-92.087525">
        <ele>2479.4655213665415</ele>
        <time>2019-12-01T17:33:00Z</time>
      </trkpt>
      <trkpt lat="15.107796" lon="-92.087524">
        <ele>2479.4655841942727</ele>
        <time>2019-12-01T17:33:05Z</time>
      </trkpt>
      <trkpt lat="15.107794" lon="-92.087523">
        <ele>2479.465591296514</ele>
        <time>2019-12-01T17:33:18Z</time>
      </trkpt>
      <trkpt lat="15.107773" lon="-92.087504">
        <ele>2479.4655382480705</ele>
        <time>2019-12-01T17:33:22Z</time>
      </trkpt>
      <trkpt lat="15.107773" lon="-92.087504">
        <ele>2479.4181749668205</ele>
        <time>2019-12-01T17:33:43Z</time>
      </trkpt>
      <trkpt lat="15.107770" lon="-92.087508">
        <ele>2478.1391841834816</ele>
        <time>2019-12-01T17:33:50Z</time>
      </trkpt>
      <trkpt lat="15.107770" lon="-92.087508">
        <ele>2478.1391841834816</ele>
        <time>2019-12-01T17:33:50Z</time>
      </trkpt>
      <trkpt lat="15.107669" lon="-92.087399">
        <ele>2477.646632923797</ele>
        <time>2019-12-01T17:40:33Z</time>
      </trkpt>
      <trkpt lat="15.107669" lon="-92.087399">
        <ele>2477.646632923797</ele>
        <time>2019-12-01T17:40:36Z</time>
      </trkpt>
      <trkpt lat="15.107669" lon="-92.087399">
        <ele>2477.646632923797</ele>
        <time>2019-12-01T17:40:36Z</time>
      </trkpt>
      <trkpt lat="15.107798" lon="-92.087232">
        <ele>2482.9117510096644</ele>
        <time>2019-12-01T17:44:54Z</time>
      </trkpt>
      <trkpt lat="15.107798" lon="-92.087232">
        <ele>2482.9117510096644</ele>
        <time>2019-12-01T17:44:57Z</time>
      </trkpt>
      <trkpt lat="15.107718" lon="-92.087414">
        <ele>2508.636422426191</ele>
        <time>2019-12-01T17:45:01Z</time>
      </trkpt>
      <trkpt lat="15.107718" lon="-92.087414">
        <ele>2496.901803285566</ele>
        <time>2019-12-01T17:47:04Z</time>
      </trkpt>
      <trkpt lat="15.107693" lon="-92.087350">
        <ele>2495.0646734602033</ele>
        <time>2019-12-01T17:47:09Z</time>
      </trkpt>
      <trkpt lat="15.107716" lon="-92.087323">
        <ele>2492.1235842902242</ele>
        <time>2019-12-01T17:47:14Z</time>
      </trkpt>
      <trkpt lat="15.107738" lon="-92.087292">
        <ele>2488.1448619316625</ele>
        <time>2019-12-01T17:47:18Z</time>
      </trkpt>
      <trkpt lat="15.107758" lon="-92.087264">
        <ele>2487.123462881455</ele>
        <time>2019-12-01T17:47:22Z</time>
      </trkpt>
      <trkpt lat="15.107774" lon="-92.087234">
        <ele>2485.1531019229346</ele>
        <time>2019-12-01T17:47:26Z</time>
      </trkpt>
      <trkpt lat="15.107776" lon="-92.087209">
        <ele>2483.221195819472</ele>
        <time>2019-12-01T17:47:30Z</time>
      </trkpt>
      <trkpt lat="15.107769" lon="-92.087174">
        <ele>2482.0131436416114</ele>
        <time>2019-12-01T17:47:34Z</time>
      </trkpt>
      <trkpt lat="15.107758" lon="-92.087132">
        <ele>2481.7681776185923</ele>
        <time>2019-12-01T17:47:38Z</time>
      </trkpt>
      <trkpt lat="15.107752" lon="-92.087100">
        <ele>2480.523526452223</ele>
        <time>2019-12-01T17:47:42Z</time>
      </trkpt>
      <trkpt lat="15.107750" lon="-92.087061">
        <ele>2480.317590822024</ele>
        <time>2019-12-01T17:47:46Z</time>
      </trkpt>
      <trkpt lat="15.107745" lon="-92.087027">
        <ele>2480.192042071002</ele>
        <time>2019-12-01T17:47:51Z</time>
      </trkpt>
      <trkpt lat="15.107724" lon="-92.086989">
        <ele>2479.843424529582</ele>
        <time>2019-12-01T17:47:55Z</time>
      </trkpt>
      <trkpt lat="15.107668" lon="-92.086976">
        <ele>2479.6649605836014</ele>
        <time>2019-12-01T17:47:59Z</time>
      </trkpt>
      <trkpt lat="15.107632" lon="-92.087007">
        <ele>2480.432105595311</ele>
        <time>2019-12-01T17:48:03Z</time>
      </trkpt>
      <trkpt lat="15.107603" lon="-92.087055">
        <ele>2480.646629620935</ele>
        <time>2019-12-01T17:48:08Z</time>
      </trkpt>
      <trkpt lat="15.107583" lon="-92.087090">
        <ele>2480.4456804035844</ele>
        <time>2019-12-01T17:48:12Z</time>
      </trkpt>
      <trkpt lat="15.107555" lon="-92.087055">
        <ele>2478.79196522256</ele>
        <time>2019-12-01T17:48:16Z</time>
      </trkpt>
      <trkpt lat="15.107546" lon="-92.086999">
        <ele>2477.1965091642833</ele>
        <time>2019-12-01T17:48:20Z</time>
      </trkpt>
      <trkpt lat="15.107535" lon="-92.086946">
        <ele>2475.6926538272764</ele>
        <time>2019-12-01T17:48:24Z</time>
      </trkpt>
      <trkpt lat="15.107528" lon="-92.086900">
        <ele>2474.6443999831677</ele>
        <time>2019-12-01T17:48:28Z</time>
      </trkpt>
      <trkpt lat="15.107523" lon="-92.086860">
        <ele>2472.3142043552493</ele>
        <time>2019-12-01T17:48:32Z</time>
      </trkpt>
      <trkpt lat="15.107499" lon="-92.086828">
        <ele>2469.9800681315432</ele>
        <time>2019-12-01T17:48:36Z</time>
      </trkpt>
      <trkpt lat="15.107456" lon="-92.086842">
        <ele>2469.017841479664</ele>
        <time>2019-12-01T17:48:40Z</time>
      </trkpt>
      <trkpt lat="15.107428" lon="-92.086858">
        <ele>2467.4258997117504</ele>
        <time>2019-12-01T17:48:44Z</time>
      </trkpt>
      <trkpt lat="15.107397" lon="-92.086839">
        <ele>2465.6187832361925</ele>
        <time>2019-12-01T17:48:49Z</time>
      </trkpt>
      <trkpt lat="15.107437" lon="-92.086796">
        <ele>2464.5800207827447</ele>
        <time>2019-12-01T17:48:54Z</time>
      </trkpt>
      <trkpt lat="15.107410" lon="-92.086764">
        <ele>2464.241511690472</ele>
        <time>2019-12-01T17:48:59Z</time>
      </trkpt>
      <trkpt lat="15.107362" lon="-92.086776">
        <ele>2463.5925285354356</ele>
        <time>2019-12-01T17:49:03Z</time>
      </trkpt>
      <trkpt lat="15.107310" lon="-92.086774">
        <ele>2462.8968102208473</ele>
        <time>2019-12-01T17:49:07Z</time>
      </trkpt>
      <trkpt lat="15.107254" lon="-92.086773">
        <ele>2462.485298313294</ele>
        <time>2019-12-01T17:49:12Z</time>
      </trkpt>
      <trkpt lat="15.107214" lon="-92.086767">
        <ele>2462.2994738415086</ele>
        <time>2019-12-01T17:49:16Z</time>
      </trkpt>
      <trkpt lat="15.107177" lon="-92.086769">
        <ele>2462.629812248093</ele>
        <time>2019-12-01T17:49:20Z</time>
      </trkpt>
      <trkpt lat="15.107154" lon="-92.086786">
        <ele>2462.6301331759387</ele>
        <time>2019-12-01T17:49:24Z</time>
      </trkpt>
      <trkpt lat="15.107143" lon="-92.086821">
        <ele>2461.7679990868523</ele>
        <time>2019-12-01T17:49:28Z</time>
      </trkpt>
      <trkpt lat="15.107120" lon="-92.086809">
        <ele>2461.102745297788</ele>
        <time>2019-12-01T17:49:32Z</time>
      </trkpt>
      <trkpt lat="15.107105" lon="-92.086770">
        <ele>2458.7025677285465</ele>
        <time>2019-12-01T17:49:36Z</time>
      </trkpt>
      <trkpt lat="15.107086" lon="-92.086727">
        <ele>2456.5540827504933</ele>
        <time>2019-12-01T17:49:40Z</time>
      </trkpt>
      <trkpt lat="15.107048" lon="-92.086717">
        <ele>2456.900427860375</ele>
        <time>2019-12-01T17:49:44Z</time>
      </trkpt>
      <trkpt lat="15.107025" lon="-92.086762">
        <ele>2457.7706428663123</ele>
        <time>2019-12-01T17:49:48Z</time>
      </trkpt>
      <trkpt lat="15.106993" lon="-92.086797">
        <ele>2457.412799968979</ele>
        <time>2019-12-01T17:49:53Z</time>
      </trkpt>
      <trkpt lat="15.106966" lon="-92.086759">
        <ele>2455.2241344835907</ele>
        <time>2019-12-01T17:49:57Z</time>
      </trkpt>
      <trkpt lat="15.106964" lon="-92.086701">
        <ele>2453.211377516443</ele>
        <time>2019-12-01T17:50:01Z</time>
      </trkpt>
      <trkpt lat="15.106957" lon="-92.086645">
        <ele>2451.1605840277743</ele>
        <time>2019-12-01T17:50:06Z</time>
      </trkpt>
      <trkpt lat="15.106906" lon="-92.086668">
        <ele>2449.9890329825175</ele>
        <time>2019-12-01T17:50:11Z</time>
      </trkpt>
      <trkpt lat="15.106869" lon="-92.086693">
        <ele>2449.4504524049007</ele>
        <time>2019-12-01T17:50:15Z</time>
      </trkpt>
      <trkpt lat="15.106863" lon="-92.086745">
        <ele>2449.365305587356</ele>
        <time>2019-12-01T17:50:19Z</time>
      </trkpt>
      <trkpt lat="15.106889" lon="-92.086803">
        <ele>2449.0356225213905</ele>
        <time>2019-12-01T17:50:24Z</time>
      </trkpt>
      <trkpt lat="15.106912" lon="-92.086833">
        <ele>2449.044301129885</ele>
        <time>2019-12-01T17:50:28Z</time>
      </trkpt>
      <trkpt lat="15.106942" lon="-92.086864">
        <ele>2449.1261950074913</ele>
        <time>2019-12-01T17:50:33Z</time>
      </trkpt>
      <trkpt lat="15.106957" lon="-92.086889">
        <ele>2449.2232550162116</ele>
        <time>2019-12-01T17:50:37Z</time>
      </trkpt>
      <trkpt lat="15.106954" lon="-92.086924">
        <ele>2449.3168796895857</ele>
        <time>2019-12-01T17:50:41Z</time>
      </trkpt>
      <trkpt lat="15.106955" lon="-92.086960">
        <ele>2449.884364849655</ele>
        <time>2019-12-01T17:50:45Z</time>
      </trkpt>
      <trkpt lat="15.106910" lon="-92.086962">
        <ele>2450.0794983843193</ele>
        <time>2019-12-01T17:50:50Z</time>
      </trkpt>
      <trkpt lat="15.106865" lon="-92.086946">
        <ele>2449.831350343809</ele>
        <time>2019-12-01T17:50:55Z</time>
      </trkpt>
      <trkpt lat="15.106831" lon="-92.086950">
        <ele>2449.7896216136564</ele>
        <time>2019-12-01T17:50:59Z</time>
      </trkpt>
      <trkpt lat="15.106790" lon="-92.086954">
        <ele>2448.4952569711036</ele>
        <time>2019-12-01T17:51:03Z</time>
      </trkpt>
      <trkpt lat="15.106757" lon="-92.086959">
        <ele>2447.141028404657</ele>
        <time>2019-12-01T17:51:07Z</time>
      </trkpt>
      <trkpt lat="15.106707" lon="-92.086962">
        <ele>2445.4756203168536</ele>
        <time>2019-12-01T17:51:12Z</time>
      </trkpt>
      <trkpt lat="15.106672" lon="-92.086971">
        <ele>2444.470320625701</ele>
        <time>2019-12-01T17:51:16Z</time>
      </trkpt>
      <trkpt lat="15.106623" lon="-92.086980">
        <ele>2444.757600292025</ele>
        <time>2019-12-01T17:51:20Z</time>
      </trkpt>
      <trkpt lat="15.106571" lon="-92.087003">
        <ele>2443.143660666546</ele>
        <time>2019-12-01T17:51:25Z</time>
      </trkpt>
      <trkpt lat="15.106555" lon="-92.087050">
        <ele>2441.9032530450886</ele>
        <time>2019-12-01T17:51:29Z</time>
      </trkpt>
      <trkpt lat="15.106563" lon="-92.087105">
        <ele>2441.2103741282353</ele>
        <time>2019-12-01T17:51:33Z</time>
      </trkpt>
      <trkpt lat="15.106578" lon="-92.087168">
        <ele>2439.2377462801946</ele>
        <time>2019-12-01T17:51:38Z</time>
      </trkpt>
      <trkpt lat="15.106585" lon="-92.087210">
        <ele>2437.7097926944307</ele>
        <time>2019-12-01T17:51:42Z</time>
      </trkpt>
      <trkpt lat="15.106553" lon="-92.087234">
        <ele>2437.997836368432</ele>
        <time>2019-12-01T17:51:47Z</time>
      </trkpt>
      <trkpt lat="15.106536" lon="-92.087183">
        <ele>2437.66737592019</ele>
        <time>2019-12-01T17:51:52Z</time>
      </trkpt>
      <trkpt lat="15.106504" lon="-92.087157">
        <ele>2436.347746241378</ele>
        <time>2019-12-01T17:51:56Z</time>
      </trkpt>
      <trkpt lat="15.106454" lon="-92.087129">
        <ele>2435.458399031985</ele>
        <time>2019-12-01T17:52:01Z</time>
      </trkpt>
      <trkpt lat="15.106410" lon="-92.087102">
        <ele>2435.499690718699</ele>
        <time>2019-12-01T17:52:06Z</time>
      </trkpt>
      <trkpt lat="15.106374" lon="-92.087076">
        <ele>2435.6759469725166</ele>
        <time>2019-12-01T17:52:10Z</time>
      </trkpt>
      <trkpt lat="15.106336" lon="-92.087042">
        <ele>2434.655116187182</ele>
        <time>2019-12-01T17:52:15Z</time>
      </trkpt>
      <trkpt lat="15.106310" lon="-92.087007">
        <ele>2433.536295528664</ele>
        <time>2019-12-01T17:52:19Z</time>
      </trkpt>
      <trkpt lat="15.106292" lon="-92.086963">
        <ele>2432.786231340435</ele>
        <time>2019-12-01T17:52:24Z</time>
      </trkpt>
      <trkpt lat="15.106270" lon="-92.086928">
        <ele>2432.8551334761096</ele>
        <time>2019-12-01T17:52:28Z</time>
      </trkpt>
      <trkpt lat="15.106241" lon="-92.086953">
        <ele>2432.649756609234</ele>
        <time>2019-12-01T17:52:33Z</time>
      </trkpt>
      <trkpt lat="15.106247" lon="-92.086996">
        <ele>2432.436266789352</ele>
        <time>2019-12-01T17:52:37Z</time>
      </trkpt>
      <trkpt lat="15.106253" lon="-92.087045">
        <ele>2431.183769850312</ele>
        <time>2019-12-01T17:52:42Z</time>
      </trkpt>
      <trkpt lat="15.106267" lon="-92.087095">
        <ele>2430.798176301006</ele>
        <time>2019-12-01T17:52:47Z</time>
      </trkpt>
      <trkpt lat="15.106282" lon="-92.087126">
        <ele>2429.7544374750532</ele>
        <time>2019-12-01T17:52:51Z</time>
      </trkpt>
      <trkpt lat="15.106296" lon="-92.087151">
        <ele>2427.6850007338526</ele>
        <time>2019-12-01T17:52:55Z</time>
      </trkpt>
      <trkpt lat="15.106271" lon="-92.087149">
        <ele>2425.952967548487</ele>
        <time>2019-12-01T17:52:59Z</time>
      </trkpt>
      <trkpt lat="15.106244" lon="-92.087118">
        <ele>2424.0453832729095</ele>
        <time>2019-12-01T17:53:03Z</time>
      </trkpt>
      <trkpt lat="15.106210" lon="-92.087085">
        <ele>2423.341668317933</ele>
        <time>2019-12-01T17:53:07Z</time>
      </trkpt>
      <trkpt lat="15.106180" lon="-92.087023">
        <ele>2421.2633841931274</ele>
        <time>2019-12-01T17:53:12Z</time>
      </trkpt>
      <trkpt lat="15.106158" lon="-92.086957">
        <ele>2419.2287145096197</ele>
        <time>2019-12-01T17:53:16Z</time>
      </trkpt>
      <trkpt lat="15.106136" lon="-92.086905">
        <ele>2416.6509545772783</ele>
        <time>2019-12-01T17:53:20Z</time>
      </trkpt>
      <trkpt lat="15.106093" lon="-92.086949">
        <ele>2415.2981584455147</ele>
        <time>2019-12-01T17:53:25Z</time>
      </trkpt>
      <trkpt lat="15.106102" lon="-92.087007">
        <ele>2414.667802178038</ele>
        <time>2019-12-01T17:53:30Z</time>
      </trkpt>
      <trkpt lat="15.106109" lon="-92.087047">
        <ele>2414.3824954126703</ele>
        <time>2019-12-01T17:53:34Z</time>
      </trkpt>
      <trkpt lat="15.106129" lon="-92.087086">
        <ele>2414.040213803583</ele>
        <time>2019-12-01T17:53:39Z</time>
      </trkpt>
      <trkpt lat="15.106146" lon="-92.087113">
        <ele>2414.2559311392333</ele>
        <time>2019-12-01T17:53:43Z</time>
      </trkpt>
      <trkpt lat="15.106144" lon="-92.087140">
        <ele>2414.141957711725</ele>
        <time>2019-12-01T17:53:47Z</time>
      </trkpt>
      <trkpt lat="15.106105" lon="-92.087130">
        <ele>2414.1865442164794</ele>
        <time>2019-12-01T17:53:51Z</time>
      </trkpt>
      <trkpt lat="15.106060" lon="-92.087083">
        <ele>2412.797229474106</ele>
        <time>2019-12-01T17:53:56Z</time>
      </trkpt>
      <trkpt lat="15.106022" lon="-92.087090">
        <ele>2410.42474152645</ele>
        <time>2019-12-01T17:54:00Z</time>
      </trkpt>
      <trkpt lat="15.106032" lon="-92.087145">
        <ele>2410.1442034783126</ele>
        <time>2019-12-01T17:54:05Z</time>
      </trkpt>
      <trkpt lat="15.106023" lon="-92.087168">
        <ele>2408.497519136032</ele>
        <time>2019-12-01T17:54:09Z</time>
      </trkpt>
      <trkpt lat="15.105998" lon="-92.087120">
        <ele>2407.989649440841</ele>
        <time>2019-12-01T17:54:14Z</time>
      </trkpt>
      <trkpt lat="15.105964" lon="-92.087065">
        <ele>2407.079668577582</ele>
        <time>2019-12-01T17:54:19Z</time>
      </trkpt>
      <trkpt lat="15.105942" lon="-92.087025">
        <ele>2405.1763516102897</ele>
        <time>2019-12-01T17:54:23Z</time>
      </trkpt>
      <trkpt lat="15.105929" lon="-92.086980">
        <ele>2404.4023191822794</ele>
        <time>2019-12-01T17:54:28Z</time>
      </trkpt>
      <trkpt lat="15.105903" lon="-92.086936">
        <ele>2403.1759945396834</ele>
        <time>2019-12-01T17:54:33Z</time>
      </trkpt>
      <trkpt lat="15.105889" lon="-92.086912">
        <ele>2401.7049017905956</ele>
        <time>2019-12-01T17:54:37Z</time>
      </trkpt>
      <trkpt lat="15.105864" lon="-92.086866">
        <ele>2400.074501040372</ele>
        <time>2019-12-01T17:54:42Z</time>
      </trkpt>
      <trkpt lat="15.105816" lon="-92.086863">
        <ele>2399.075763339007</ele>
        <time>2019-12-01T17:54:46Z</time>
      </trkpt>
      <trkpt lat="15.105761" lon="-92.086839">
        <ele>2397.316371877858</ele>
        <time>2019-12-01T17:54:51Z</time>
      </trkpt>
      <trkpt lat="15.105719" lon="-92.086806">
        <ele>2395.9696443592798</ele>
        <time>2019-12-01T17:54:55Z</time>
      </trkpt>
      <trkpt lat="15.105678" lon="-92.086756">
        <ele>2395.9960489432074</ele>
        <time>2019-12-01T17:55:00Z</time>
      </trkpt>
      <trkpt lat="15.105652" lon="-92.086717">
        <ele>2395.4736249067364</ele>
        <time>2019-12-01T17:55:04Z</time>
      </trkpt>
      <trkpt lat="15.105614" lon="-92.086704">
        <ele>2394.5943554375485</ele>
        <time>2019-12-01T17:55:08Z</time>
      </trkpt>
      <trkpt lat="15.105615" lon="-92.086750">
        <ele>2393.8091486682533</ele>
        <time>2019-12-01T17:55:12Z</time>
      </trkpt>
      <trkpt lat="15.105630" lon="-92.086802">
        <ele>2392.529525544668</ele>
        <time>2019-12-01T17:55:17Z</time>
      </trkpt>
      <trkpt lat="15.105649" lon="-92.086841">
        <ele>2392.077630820993</ele>
        <time>2019-12-01T17:55:21Z</time>
      </trkpt>
      <trkpt lat="15.105691" lon="-92.086873">
        <ele>2391.024437045479</ele>
        <time>2019-12-01T17:55:26Z</time>
      </trkpt>
      <trkpt lat="15.105677" lon="-92.086903">
        <ele>2390.105629711989</ele>
        <time>2019-12-01T17:55:31Z</time>
      </trkpt>
      <trkpt lat="15.105646" lon="-92.086877">
        <ele>2388.858757297756</ele>
        <time>2019-12-01T17:55:35Z</time>
      </trkpt>
      <trkpt lat="15.105605" lon="-92.086829">
        <ele>2386.697194851311</ele>
        <time>2019-12-01T17:55:40Z</time>
      </trkpt>
      <trkpt lat="15.105583" lon="-92.086794">
        <ele>2385.176728589668</ele>
        <time>2019-12-01T17:55:44Z</time>
      </trkpt>
      <trkpt lat="15.105544" lon="-92.086736">
        <ele>2384.2389282932218</ele>
        <time>2019-12-01T17:55:49Z</time>
      </trkpt>
      <trkpt lat="15.105497" lon="-92.086699">
        <ele>2382.249382292147</ele>
        <time>2019-12-01T17:55:54Z</time>
      </trkpt>
      <trkpt lat="15.105438" lon="-92.086692">
        <ele>2379.896431863525</ele>
        <time>2019-12-01T17:55:58Z</time>
      </trkpt>
      <trkpt lat="15.105367" lon="-92.086722">
        <ele>2378.1901558096633</ele>
        <time>2019-12-01T17:56:03Z</time>
      </trkpt>
      <trkpt lat="15.105326" lon="-92.086715">
        <ele>2376.79094980544</ele>
        <time>2019-12-01T17:56:07Z</time>
      </trkpt>
      <trkpt lat="15.105299" lon="-92.086681">
        <ele>2376.3396273247604</ele>
        <time>2019-12-01T17:56:11Z</time>
      </trkpt>
      <trkpt lat="15.105266" lon="-92.086656">
        <ele>2375.579101600708</ele>
        <time>2019-12-01T17:56:15Z</time>
      </trkpt>
      <trkpt lat="15.105224" lon="-92.086656">
        <ele>2374.65799550698</ele>
        <time>2019-12-01T17:56:19Z</time>
      </trkpt>
      <trkpt lat="15.105224" lon="-92.086706">
        <ele>2374.546410516491</ele>
        <time>2019-12-01T17:56:24Z</time>
      </trkpt>
      <trkpt lat="15.105195" lon="-92.086699">
        <ele>2372.5751062769446</ele>
        <time>2019-12-01T17:56:28Z</time>
      </trkpt>
      <trkpt lat="15.105169" lon="-92.086661">
        <ele>2370.5795436101175</ele>
        <time>2019-12-01T17:56:32Z</time>
      </trkpt>
      <trkpt lat="15.105142" lon="-92.086644">
        <ele>2368.9423533851095</ele>
        <time>2019-12-01T17:56:36Z</time>
      </trkpt>
      <trkpt lat="15.105114" lon="-92.086599">
        <ele>2368.8200381615247</ele>
        <time>2019-12-01T17:56:41Z</time>
      </trkpt>
      <trkpt lat="15.105096" lon="-92.086564">
        <ele>2368.588616025999</ele>
        <time>2019-12-01T17:56:45Z</time>
      </trkpt>
      <trkpt lat="15.105050" lon="-92.086577">
        <ele>2368.6224955374296</ele>
        <time>2019-12-01T17:56:50Z</time>
      </trkpt>
      <trkpt lat="15.105039" lon="-92.086630">
        <ele>2368.8762492982564</ele>
        <time>2019-12-01T17:56:54Z</time>
      </trkpt>
      <trkpt lat="15.105060" lon="-92.086688">
        <ele>2367.966762534762</ele>
        <time>2019-12-01T17:56:59Z</time>
      </trkpt>
      <trkpt lat="15.105048" lon="-92.086720">
        <ele>2367.1036241818083</ele>
        <time>2019-12-01T17:57:03Z</time>
      </trkpt>
      <trkpt lat="15.105024" lon="-92.086664">
        <ele>2366.39327847613</ele>
        <time>2019-12-01T17:57:08Z</time>
      </trkpt>
      <trkpt lat="15.105001" lon="-92.086620">
        <ele>2364.831969648279</ele>
        <time>2019-12-01T17:57:12Z</time>
      </trkpt>
      <trkpt lat="15.104972" lon="-92.086567">
        <ele>2364.201279876073</ele>
        <time>2019-12-01T17:57:16Z</time>
      </trkpt>
      <trkpt lat="15.104950" lon="-92.086521">
        <ele>2363.265679945008</ele>
        <time>2019-12-01T17:57:20Z</time>
      </trkpt>
      <trkpt lat="15.104934" lon="-92.086488">
        <ele>2362.588949423657</ele>
        <time>2019-12-01T17:57:24Z</time>
      </trkpt>
      <trkpt lat="15.104904" lon="-92.086504">
        <ele>2362.2006261367414</ele>
        <time>2019-12-01T17:57:29Z</time>
      </trkpt>
      <trkpt lat="15.104882" lon="-92.086526">
        <ele>2361.813785387569</ele>
        <time>2019-12-01T17:57:33Z</time>
      </trkpt>
      <trkpt lat="15.104866" lon="-92.086485">
        <ele>2361.3352169820314</ele>
        <time>2019-12-01T17:57:37Z</time>
      </trkpt>
      <trkpt lat="15.104854" lon="-92.086436">
        <ele>2360.168566615621</ele>
        <time>2019-12-01T17:57:41Z</time>
      </trkpt>
      <trkpt lat="15.104812" lon="-92.086405">
        <ele>2358.6475505449935</ele>
        <time>2019-12-01T17:57:46Z</time>
      </trkpt>
      <trkpt lat="15.104784" lon="-92.086461">
        <ele>2357.7791302345745</ele>
        <time>2019-12-01T17:57:50Z</time>
      </trkpt>
      <trkpt lat="15.104757" lon="-92.086458">
        <ele>2356.667960818789</ele>
        <time>2019-12-01T17:57:54Z</time>
      </trkpt>
      <trkpt lat="15.104736" lon="-92.086418">
        <ele>2356.6662432784337</ele>
        <time>2019-12-01T17:57:58Z</time>
      </trkpt>
      <trkpt lat="15.104714" lon="-92.086369">
        <ele>2356.016009362381</ele>
        <time>2019-12-01T17:58:03Z</time>
      </trkpt>
      <trkpt lat="15.104698" lon="-92.086332">
        <ele>2354.6229339542724</ele>
        <time>2019-12-01T17:58:07Z</time>
      </trkpt>
      <trkpt lat="15.104682" lon="-92.086369">
        <ele>2353.554791912234</ele>
        <time>2019-12-01T17:58:11Z</time>
      </trkpt>
      <trkpt lat="15.104663" lon="-92.086397">
        <ele>2352.537615382151</ele>
        <time>2019-12-01T17:58:15Z</time>
      </trkpt>
      <trkpt lat="15.104666" lon="-92.086328">
        <ele>2352.5693934930046</ele>
        <time>2019-12-01T17:58:20Z</time>
      </trkpt>
      <trkpt lat="15.104670" lon="-92.086281">
        <ele>2352.268379416952</ele>
        <time>2019-12-01T17:58:24Z</time>
      </trkpt>
      <trkpt lat="15.104659" lon="-92.086227">
        <ele>2351.5162237939007</ele>
        <time>2019-12-01T17:58:29Z</time>
      </trkpt>
      <trkpt lat="15.104662" lon="-92.086219">
        <ele>2348.944590799974</ele>
        <time>2019-12-01T17:58:34Z</time>
      </trkpt>
      <trkpt lat="15.104660" lon="-92.086214">
        <ele>2347.8945073970003</ele>
        <time>2019-12-01T17:58:44Z</time>
      </trkpt>
      <trkpt lat="15.104658" lon="-92.086195">
        <ele>2346.865775811215</ele>
        <time>2019-12-01T17:58:49Z</time>
      </trkpt>
      <trkpt lat="15.104654" lon="-92.086178">
        <ele>2346.306065221595</ele>
        <time>2019-12-01T17:58:54Z</time>
      </trkpt>
      <trkpt lat="15.104642" lon="-92.086174">
        <ele>2345.5458554005204</ele>
        <time>2019-12-01T17:58:58Z</time>
      </trkpt>
      <trkpt lat="15.104610" lon="-92.086184">
        <ele>2344.4101734658448</ele>
        <time>2019-12-01T17:59:03Z</time>
      </trkpt>
      <trkpt lat="15.104603" lon="-92.086186">
        <ele>2344.1221588964527</ele>
        <time>2019-12-01T17:59:07Z</time>
      </trkpt>
      <trkpt lat="15.104596" lon="-92.086187">
        <ele>2342.6771436476956</ele>
        <time>2019-12-01T17:59:17Z</time>
      </trkpt>
      <trkpt lat="15.104563" lon="-92.086193">
        <ele>2342.1925513722117</ele>
        <time>2019-12-01T17:59:22Z</time>
      </trkpt>
      <trkpt lat="15.104553" lon="-92.086181">
        <ele>2342.1243873950666</ele>
        <time>2019-12-01T17:59:26Z</time>
      </trkpt>
      <trkpt lat="15.104507" lon="-92.086156">
        <ele>2342.6083437714783</ele>
        <time>2019-12-01T17:59:31Z</time>
      </trkpt>
      <trkpt lat="15.104470" lon="-92.086181">
        <ele>2343.225032677265</ele>
        <time>2019-12-01T17:59:35Z</time>
      </trkpt>
      <trkpt lat="15.104444" lon="-92.086174">
        <ele>2342.7351437519715</ele>
        <time>2019-12-01T17:59:39Z</time>
      </trkpt>
      <trkpt lat="15.104409" lon="-92.086149">
        <ele>2341.873569460924</ele>
        <time>2019-12-01T17:59:44Z</time>
      </trkpt>
      <trkpt lat="15.104390" lon="-92.086125">
        <ele>2341.265791268629</ele>
        <time>2019-12-01T17:59:48Z</time>
      </trkpt>
      <trkpt lat="15.104368" lon="-92.086115">
        <ele>2340.9770262689576</ele>
        <time>2019-12-01T17:59:52Z</time>
      </trkpt>
      <trkpt lat="15.104354" lon="-92.086107">
        <ele>2340.812007433789</ele>
        <time>2019-12-01T17:59:55Z</time>
      </trkpt>
      <trkpt lat="15.104324" lon="-92.086085">
        <ele>2339.3598443413434</ele>
        <time>2019-12-01T18:00:00Z</time>
      </trkpt>
      <trkpt lat="15.104284" lon="-92.086056">
        <ele>2338.665727565062</ele>
        <time>2019-12-01T18:00:05Z</time>
      </trkpt>
      <trkpt lat="15.104264" lon="-92.086024">
        <ele>2338.18679261425</ele>
        <time>2019-12-01T18:00:09Z</time>
      </trkpt>
      <trkpt lat="15.104248" lon="-92.086007">
        <ele>2337.439662705127</ele>
        <time>2019-12-01T18:00:13Z</time>
      </trkpt>
      <trkpt lat="15.104237" lon="-92.085998">
        <ele>2335.528031978022</ele>
        <time>2019-12-01T18:00:17Z</time>
      </trkpt>
      <trkpt lat="15.104219" lon="-92.085981">
        <ele>2334.2860463285524</ele>
        <time>2019-12-01T18:00:22Z</time>
      </trkpt>
      <trkpt lat="15.104209" lon="-92.085974">
        <ele>2332.9857489099036</ele>
        <time>2019-12-01T18:00:26Z</time>
      </trkpt>
      <trkpt lat="15.104182" lon="-92.085961">
        <ele>2331.4023078841174</ele>
        <time>2019-12-01T18:00:31Z</time>
      </trkpt>
      <trkpt lat="15.104152" lon="-92.085939">
        <ele>2331.0451115933565</ele>
        <time>2019-12-01T18:00:35Z</time>
      </trkpt>
      <trkpt lat="15.104143" lon="-92.085924">
        <ele>2330.940785327969</ele>
        <time>2019-12-01T18:00:40Z</time>
      </trkpt>
      <trkpt lat="15.104131" lon="-92.085916">
        <ele>2330.760121656199</ele>
        <time>2019-12-01T18:00:44Z</time>
      </trkpt>
      <trkpt lat="15.104114" lon="-92.085908">
        <ele>2330.1773900531784</ele>
        <time>2019-12-01T18:00:48Z</time>
      </trkpt>
      <trkpt lat="15.104098" lon="-92.085899">
        <ele>2330.0721821651796</ele>
        <time>2019-12-01T18:00:53Z</time>
      </trkpt>
      <trkpt lat="15.104073" lon="-92.085884">
        <ele>2328.243105005958</ele>
        <time>2019-12-01T18:00:57Z</time>
      </trkpt>
      <trkpt lat="15.104059" lon="-92.085866">
        <ele>2327.1963957176326</ele>
        <time>2019-12-01T18:01:01Z</time>
      </trkpt>
      <trkpt lat="15.104044" lon="-92.085852">
        <ele>2327.1963549376196</ele>
        <time>2019-12-01T18:01:06Z</time>
      </trkpt>
      <trkpt lat="15.104042" lon="-92.085843">
        <ele>2327.1310993727325</ele>
        <time>2019-12-01T18:01:17Z</time>
      </trkpt>
      <trkpt lat="15.104036" lon="-92.085832">
        <ele>2326.3490445835405</ele>
        <time>2019-12-01T18:01:22Z</time>
      </trkpt>
      <trkpt lat="15.104050" lon="-92.085803">
        <ele>2326.4922322063103</ele>
        <time>2019-12-01T18:01:26Z</time>
      </trkpt>
      <trkpt lat="15.104048" lon="-92.085768">
        <ele>2326.7431294822354</ele>
        <time>2019-12-01T18:01:30Z</time>
      </trkpt>
      <trkpt lat="15.104026" lon="-92.085758">
        <ele>2326.262461554076</ele>
        <time>2019-12-01T18:01:35Z</time>
      </trkpt>
      <trkpt lat="15.104005" lon="-92.085760">
        <ele>2324.501637233832</ele>
        <time>2019-12-01T18:01:40Z</time>
      </trkpt>
      <trkpt lat="15.103987" lon="-92.085759">
        <ele>2322.735627982439</ele>
        <time>2019-12-01T18:01:44Z</time>
      </trkpt>
      <trkpt lat="15.103968" lon="-92.085752">
        <ele>2320.4104897431075</ele>
        <time>2019-12-01T18:01:48Z</time>
      </trkpt>
      <trkpt lat="15.103953" lon="-92.085737">
        <ele>2317.499309365761</ele>
        <time>2019-12-01T18:01:52Z</time>
      </trkpt>
      <trkpt lat="15.103934" lon="-92.085725">
        <ele>2316.492489691783</ele>
        <time>2019-12-01T18:01:56Z</time>
      </trkpt>
      <trkpt lat="15.103929" lon="-92.085712">
        <ele>2315.110804859716</ele>
        <time>2019-12-01T18:02:01Z</time>
      </trkpt>
      <trkpt lat="15.103926" lon="-92.085704">
        <ele>2314.889062772852</ele>
        <time>2019-12-01T18:02:05Z</time>
      </trkpt>
      <trkpt lat="15.103920" lon="-92.085697">
        <ele>2314.2635481137822</ele>
        <time>2019-12-01T18:02:10Z</time>
      </trkpt>
      <trkpt lat="15.103908" lon="-92.085697">
        <ele>2312.7902401322644</ele>
        <time>2019-12-01T18:02:15Z</time>
      </trkpt>
      <trkpt lat="15.103894" lon="-92.085691">
        <ele>2310.1650352844445</ele>
        <time>2019-12-01T18:02:19Z</time>
      </trkpt>
      <trkpt lat="15.103887" lon="-92.085684">
        <ele>2309.5488021447</ele>
        <time>2019-12-01T18:02:24Z</time>
      </trkpt>
      <trkpt lat="15.103882" lon="-92.085677">
        <ele>2309.548767233294</ele>
        <time>2019-12-01T18:02:44Z</time>
      </trkpt>
      <trkpt lat="15.103876" lon="-92.085676">
        <ele>2309.679411488382</ele>
        <time>2019-12-01T18:03:14Z</time>
      </trkpt>
      <trkpt lat="15.103850" lon="-92.085671">
        <ele>2308.3294428896506</ele>
        <time>2019-12-01T18:03:18Z</time>
      </trkpt>
      <trkpt lat="15.103820" lon="-92.085670">
        <ele>2307.3242565600135</ele>
        <time>2019-12-01T18:03:22Z</time>
      </trkpt>
      <trkpt lat="15.103787" lon="-92.085661">
        <ele>2305.8436749233692</ele>
        <time>2019-12-01T18:03:27Z</time>
      </trkpt>
      <trkpt lat="15.103779" lon="-92.085656">
        <ele>2305.537528468075</ele>
        <time>2019-12-01T18:03:31Z</time>
      </trkpt>
      <trkpt lat="15.103771" lon="-92.085644">
        <ele>2305.455679918048</ele>
        <time>2019-12-01T18:03:36Z</time>
      </trkpt>
      <trkpt lat="15.103769" lon="-92.085642">
        <ele>2305.455666221128</ele>
        <time>2019-12-01T18:03:44Z</time>
      </trkpt>
      <trkpt lat="15.103760" lon="-92.085629">
        <ele>2305.45560554078</ele>
        <time>2019-12-01T18:03:49Z</time>
      </trkpt>
      <trkpt lat="15.103758" lon="-92.085621">
        <ele>2303.7275205910228</ele>
        <time>2019-12-01T18:04:26Z</time>
      </trkpt>
      <trkpt lat="15.103763" lon="-92.085614">
        <ele>2303.7274071028273</ele>
        <time>2019-12-01T18:04:31Z</time>
      </trkpt>
      <trkpt lat="15.103757" lon="-92.085610">
        <ele>2303.8331290173146</ele>
        <time>2019-12-01T18:05:55Z</time>
      </trkpt>
      <trkpt lat="15.103746" lon="-92.085609">
        <ele>2303.833187822462</ele>
        <time>2019-12-01T18:06:00Z</time>
      </trkpt>
      <trkpt lat="15.103738" lon="-92.085605">
        <ele>2303.833205126163</ele>
        <time>2019-12-01T18:06:54Z</time>
      </trkpt>
      <trkpt lat="15.103731" lon="-92.085600">
        <ele>2304.3869077114296</ele>
        <time>2019-12-01T18:07:16Z</time>
      </trkpt>
      <trkpt lat="15.103674" lon="-92.085566">
        <ele>2304.8100548441494</ele>
        <time>2019-12-01T18:07:21Z</time>
      </trkpt>
      <trkpt lat="15.103660" lon="-92.085550">
        <ele>2304.80999771341</ele>
        <time>2019-12-01T18:07:25Z</time>
      </trkpt>
      <trkpt lat="15.103653" lon="-92.085541">
        <ele>2303.975238141091</ele>
        <time>2019-12-01T18:07:29Z</time>
      </trkpt>
      <trkpt lat="15.103644" lon="-92.085522">
        <ele>2303.894550157157</ele>
        <time>2019-12-01T18:07:33Z</time>
      </trkpt>
      <trkpt lat="15.103642" lon="-92.085497">
        <ele>2305.6301597604684</ele>
        <time>2019-12-01T18:07:37Z</time>
      </trkpt>
      <trkpt lat="15.103645" lon="-92.085465">
        <ele>2306.6352095647358</ele>
        <time>2019-12-01T18:07:41Z</time>
      </trkpt>
      <trkpt lat="15.103642" lon="-92.085442">
        <ele>2307.587883045348</ele>
        <time>2019-12-01T18:07:45Z</time>
      </trkpt>
      <trkpt lat="15.103621" lon="-92.085428">
        <ele>2307.946534039549</ele>
        <time>2019-12-01T18:07:50Z</time>
      </trkpt>
      <trkpt lat="15.103608" lon="-92.085426">
        <ele>2307.9104601695944</ele>
        <time>2019-12-01T18:07:54Z</time>
      </trkpt>
      <trkpt lat="15.103592" lon="-92.085433">
        <ele>2306.6096081963383</ele>
        <time>2019-12-01T18:07:58Z</time>
      </trkpt>
      <trkpt lat="15.103578" lon="-92.085442">
        <ele>2305.0604763259385</ele>
        <time>2019-12-01T18:08:02Z</time>
      </trkpt>
      <trkpt lat="15.103564" lon="-92.085446">
        <ele>2304.671447491132</ele>
        <time>2019-12-01T18:08:07Z</time>
      </trkpt>
      <trkpt lat="15.103555" lon="-92.085448">
        <ele>2304.6715242058267</ele>
        <time>2019-12-01T18:08:15Z</time>
      </trkpt>
      <trkpt lat="15.103548" lon="-92.085445">
        <ele>2303.9459582861637</ele>
        <time>2019-12-01T18:08:48Z</time>
      </trkpt>
      <trkpt lat="15.103533" lon="-92.085424">
        <ele>2301.836968980072</ele>
        <time>2019-12-01T18:08:52Z</time>
      </trkpt>
      <trkpt lat="15.103522" lon="-92.085408">
        <ele>2301.8368882106847</ele>
        <time>2019-12-01T18:08:56Z</time>
      </trkpt>
      <trkpt lat="15.103516" lon="-92.085399">
        <ele>2301.836841854596</ele>
        <time>2019-12-01T18:09:01Z</time>
      </trkpt>
      <trkpt lat="15.103510" lon="-92.085393">
        <ele>2301.836820900739</ele>
        <time>2019-12-01T18:09:10Z</time>
      </trkpt>
      <trkpt lat="15.103468" lon="-92.085364">
        <ele>2297.604886248736</ele>
        <time>2019-12-01T18:09:15Z</time>
      </trkpt>
      <trkpt lat="15.103436" lon="-92.085341">
        <ele>2296.5445751173297</ele>
        <time>2019-12-01T18:09:19Z</time>
      </trkpt>
      <trkpt lat="15.103412" lon="-92.085321">
        <ele>2295.470563982564</ele>
        <time>2019-12-01T18:09:23Z</time>
      </trkpt>
      <trkpt lat="15.103376" lon="-92.085294">
        <ele>2294.0596518844436</ele>
        <time>2019-12-01T18:09:27Z</time>
      </trkpt>
      <trkpt lat="15.103359" lon="-92.085281">
        <ele>2293.161451070628</ele>
        <time>2019-12-01T18:09:32Z</time>
      </trkpt>
      <trkpt lat="15.103306" lon="-92.085244">
        <ele>2291.0537776558904</ele>
        <time>2019-12-01T18:09:37Z</time>
      </trkpt>
      <trkpt lat="15.103274" lon="-92.085222">
        <ele>2289.966862661132</ele>
        <time>2019-12-01T18:09:41Z</time>
      </trkpt>
      <trkpt lat="15.103262" lon="-92.085215">
        <ele>2289.853592764606</ele>
        <time>2019-12-01T18:09:45Z</time>
      </trkpt>
      <trkpt lat="15.103241" lon="-92.085206">
        <ele>2289.3858683481917</ele>
        <time>2019-12-01T18:09:49Z</time>
      </trkpt>
      <trkpt lat="15.103198" lon="-92.085182">
        <ele>2284.2570194835507</ele>
        <time>2019-12-01T18:09:53Z</time>
      </trkpt>
      <trkpt lat="15.103167" lon="-92.085164">
        <ele>2281.1220458968646</ele>
        <time>2019-12-01T18:09:57Z</time>
      </trkpt>
      <trkpt lat="15.103144" lon="-92.085152">
        <ele>2277.906257098686</ele>
        <time>2019-12-01T18:10:01Z</time>
      </trkpt>
      <trkpt lat="15.103114" lon="-92.085125">
        <ele>2274.936956911494</ele>
        <time>2019-12-01T18:10:05Z</time>
      </trkpt>
      <trkpt lat="15.103101" lon="-92.085103">
        <ele>2272.397769717424</ele>
        <time>2019-12-01T18:10:09Z</time>
      </trkpt>
      <trkpt lat="15.103098" lon="-92.085093">
        <ele>2271.342759267018</ele>
        <time>2019-12-01T18:10:13Z</time>
      </trkpt>
      <trkpt lat="15.103090" lon="-92.085075">
        <ele>2269.776480892664</ele>
        <time>2019-12-01T18:10:17Z</time>
      </trkpt>
      <trkpt lat="15.103063" lon="-92.085027">
        <ele>2268.078200568954</ele>
        <time>2019-12-01T18:10:21Z</time>
      </trkpt>
      <trkpt lat="15.103036" lon="-92.084982">
        <ele>2266.6240820205526</ele>
        <time>2019-12-01T18:10:25Z</time>
      </trkpt>
      <trkpt lat="15.103018" lon="-92.084959">
        <ele>2266.490440758598</ele>
        <time>2019-12-01T18:10:30Z</time>
      </trkpt>
      <trkpt lat="15.103002" lon="-92.084947">
        <ele>2264.934271788071</ele>
        <time>2019-12-01T18:10:35Z</time>
      </trkpt>
      <trkpt lat="15.102977" lon="-92.084934">
        <ele>2264.312493079038</ele>
        <time>2019-12-01T18:10:39Z</time>
      </trkpt>
      <trkpt lat="15.102945" lon="-92.084929">
        <ele>2264.076570570988</ele>
        <time>2019-12-01T18:10:43Z</time>
      </trkpt>
      <trkpt lat="15.102924" lon="-92.084929">
        <ele>2263.104057375545</ele>
        <time>2019-12-01T18:10:47Z</time>
      </trkpt>
      <trkpt lat="15.102889" lon="-92.084915">
        <ele>2260.704255557185</ele>
        <time>2019-12-01T18:10:52Z</time>
      </trkpt>
      <trkpt lat="15.102874" lon="-92.084905">
        <ele>2258.193997442823</ele>
        <time>2019-12-01T18:10:56Z</time>
      </trkpt>
      <trkpt lat="15.102851" lon="-92.084882">
        <ele>2255.962238777811</ele>
        <time>2019-12-01T18:11:01Z</time>
      </trkpt>
      <trkpt lat="15.102825" lon="-92.084859">
        <ele>2254.4775704764675</ele>
        <time>2019-12-01T18:11:05Z</time>
      </trkpt>
      <trkpt lat="15.102806" lon="-92.084836">
        <ele>2252.2135578181783</ele>
        <time>2019-12-01T18:11:10Z</time>
      </trkpt>
      <trkpt lat="15.102800" lon="-92.084828">
        <ele>2251.887102533337</ele>
        <time>2019-12-01T18:11:14Z</time>
      </trkpt>
      <trkpt lat="15.102790" lon="-92.084823">
        <ele>2251.748458052607</ele>
        <time>2019-12-01T18:11:19Z</time>
      </trkpt>
      <trkpt lat="15.102778" lon="-92.084815">
        <ele>2251.9032395001477</ele>
        <time>2019-12-01T18:11:23Z</time>
      </trkpt>
      <trkpt lat="15.102768" lon="-92.084804">
        <ele>2251.9032049379093</ele>
        <time>2019-12-01T18:11:27Z</time>
      </trkpt>
      <trkpt lat="15.102762" lon="-92.084798">
        <ele>2251.9031826883597</ele>
        <time>2019-12-01T18:11:31Z</time>
      </trkpt>
      <trkpt lat="15.102755" lon="-92.084792">
        <ele>2251.8658134172024</ele>
        <time>2019-12-01T18:11:40Z</time>
      </trkpt>
      <trkpt lat="15.102742" lon="-92.084790">
        <ele>2251.4664699982263</ele>
        <time>2019-12-01T18:11:45Z</time>
      </trkpt>
      <trkpt lat="15.102725" lon="-92.084787">
        <ele>2250.244387351523</ele>
        <time>2019-12-01T18:11:49Z</time>
      </trkpt>
      <trkpt lat="15.102697" lon="-92.084781">
        <ele>2249.526740427447</ele>
        <time>2019-12-01T18:11:54Z</time>
      </trkpt>
      <trkpt lat="15.102663" lon="-92.084778">
        <ele>2246.937825757733</ele>
        <time>2019-12-01T18:11:58Z</time>
      </trkpt>
      <trkpt lat="15.102642" lon="-92.084773">
        <ele>2245.785337050213</ele>
        <time>2019-12-01T18:12:02Z</time>
      </trkpt>
      <trkpt lat="15.102632" lon="-92.084769">
        <ele>2245.7853592521847</ele>
        <time>2019-12-01T18:12:07Z</time>
      </trkpt>
      <trkpt lat="15.102624" lon="-92.084765">
        <ele>2245.7853711064013</ele>
        <time>2019-12-01T18:12:15Z</time>
      </trkpt>
      <trkpt lat="15.102619" lon="-92.084759">
        <ele>2245.410589935298</ele>
        <time>2019-12-01T18:12:30Z</time>
      </trkpt>
      <trkpt lat="15.102614" lon="-92.084749">
        <ele>2245.3712245902398</ele>
        <time>2019-12-01T18:12:34Z</time>
      </trkpt>
      <trkpt lat="15.102610" lon="-92.084742">
        <ele>2245.371183155343</ele>
        <time>2019-12-01T18:12:41Z</time>
      </trkpt>
      <trkpt lat="15.102606" lon="-92.084736">
        <ele>2244.8901980457767</ele>
        <time>2019-12-01T18:12:47Z</time>
      </trkpt>
      <trkpt lat="15.102600" lon="-92.084729">
        <ele>2243.4426505217602</ele>
        <time>2019-12-01T18:12:51Z</time>
      </trkpt>
      <trkpt lat="15.102592" lon="-92.084709">
        <ele>2243.4752248392315</ele>
        <time>2019-12-01T18:12:56Z</time>
      </trkpt>
      <trkpt lat="15.102582" lon="-92.084692">
        <ele>2242.745404856932</ele>
        <time>2019-12-01T18:13:00Z</time>
      </trkpt>
      <trkpt lat="15.102566" lon="-92.084677">
        <ele>2242.3906184509005</ele>
        <time>2019-12-01T18:13:05Z</time>
      </trkpt>
      <trkpt lat="15.102558" lon="-92.084682">
        <ele>2241.2688996214515</ele>
        <time>2019-12-01T18:13:09Z</time>
      </trkpt>
      <trkpt lat="15.102533" lon="-92.084657">
        <ele>2239.249049530366</ele>
        <time>2019-12-01T18:13:14Z</time>
      </trkpt>
      <trkpt lat="15.102498" lon="-92.084623">
        <ele>2238.3243975070504</ele>
        <time>2019-12-01T18:13:18Z</time>
      </trkpt>
      <trkpt lat="15.102481" lon="-92.084603">
        <ele>2238.351416321674</ele>
        <time>2019-12-01T18:13:22Z</time>
      </trkpt>
      <trkpt lat="15.102469" lon="-92.084591">
        <ele>2237.922175255665</ele>
        <time>2019-12-01T18:13:26Z</time>
      </trkpt>
      <trkpt lat="15.102455" lon="-92.084580">
        <ele>2237.0920836019545</ele>
        <time>2019-12-01T18:13:30Z</time>
      </trkpt>
      <trkpt lat="15.102429" lon="-92.084567">
        <ele>2234.3218684940516</ele>
        <time>2019-12-01T18:13:35Z</time>
      </trkpt>
      <trkpt lat="15.102402" lon="-92.084536">
        <ele>2230.3183297282585</ele>
        <time>2019-12-01T18:13:39Z</time>
      </trkpt>
      <trkpt lat="15.102383" lon="-92.084514">
        <ele>2226.2996893397567</ele>
        <time>2019-12-01T18:13:43Z</time>
      </trkpt>
      <trkpt lat="15.102355" lon="-92.084486">
        <ele>2222.101852989531</ele>
        <time>2019-12-01T18:13:48Z</time>
      </trkpt>
      <trkpt lat="15.102320" lon="-92.084462">
        <ele>2217.8113248190257</ele>
        <time>2019-12-01T18:13:53Z</time>
      </trkpt>
      <trkpt lat="15.102300" lon="-92.084453">
        <ele>2216.410494757194</ele>
        <time>2019-12-01T18:13:57Z</time>
      </trkpt>
      <trkpt lat="15.102283" lon="-92.084446">
        <ele>2216.4105450986776</ele>
        <time>2019-12-01T18:14:02Z</time>
      </trkpt>
      <trkpt lat="15.102275" lon="-92.084443">
        <ele>2216.1725292679703</ele>
        <time>2019-12-01T18:14:07Z</time>
      </trkpt>
      <trkpt lat="15.102245" lon="-92.084429">
        <ele>2215.316395026182</ele>
        <time>2019-12-01T18:14:12Z</time>
      </trkpt>
      <trkpt lat="15.102229" lon="-92.084417">
        <ele>2213.929911977361</ele>
        <time>2019-12-01T18:14:16Z</time>
      </trkpt>
      <trkpt lat="15.102197" lon="-92.084384">
        <ele>2213.791375993525</ele>
        <time>2019-12-01T18:14:21Z</time>
      </trkpt>
      <trkpt lat="15.102173" lon="-92.084368">
        <ele>2213.4981624178768</ele>
        <time>2019-12-01T18:14:25Z</time>
      </trkpt>
      <trkpt lat="15.102162" lon="-92.084361">
        <ele>2213.498172307661</ele>
        <time>2019-12-01T18:14:30Z</time>
      </trkpt>
      <trkpt lat="15.102156" lon="-92.084351">
        <ele>2212.4861554108475</ele>
        <time>2019-12-01T18:14:35Z</time>
      </trkpt>
      <trkpt lat="15.102146" lon="-92.084318">
        <ele>2211.492007364932</ele>
        <time>2019-12-01T18:14:39Z</time>
      </trkpt>
      <trkpt lat="15.102129" lon="-92.084292">
        <ele>2210.7086650099563</ele>
        <time>2019-12-01T18:14:44Z</time>
      </trkpt>
      <trkpt lat="15.102109" lon="-92.084274">
        <ele>2210.171757304289</ele>
        <time>2019-12-01T18:14:48Z</time>
      </trkpt>
      <trkpt lat="15.102097" lon="-92.084265">
        <ele>2209.6790746875445</ele>
        <time>2019-12-01T18:14:52Z</time>
      </trkpt>
      <trkpt lat="15.102080" lon="-92.084253">
        <ele>2209.1820001968367</ele>
        <time>2019-12-01T18:14:56Z</time>
      </trkpt>
      <trkpt lat="15.102061" lon="-92.084234">
        <ele>2208.3167142025773</ele>
        <time>2019-12-01T18:15:01Z</time>
      </trkpt>
      <trkpt lat="15.102049" lon="-92.084220">
        <ele>2207.990241352767</ele>
        <time>2019-12-01T18:15:05Z</time>
      </trkpt>
      <trkpt lat="15.102043" lon="-92.084213">
        <ele>2207.9902106282884</ele>
        <time>2019-12-01T18:15:09Z</time>
      </trkpt>
      <trkpt lat="15.102030" lon="-92.084215">
        <ele>2207.2776683030397</ele>
        <time>2019-12-01T18:15:14Z</time>
      </trkpt>
      <trkpt lat="15.102018" lon="-92.084209">
        <ele>2205.6783276981846</ele>
        <time>2019-12-01T18:15:18Z</time>
      </trkpt>
      <trkpt lat="15.102007" lon="-92.084196">
        <ele>2204.686330094459</ele>
        <time>2019-12-01T18:15:22Z</time>
      </trkpt>
      <trkpt lat="15.101985" lon="-92.084172">
        <ele>2202.9335603414947</ele>
        <time>2019-12-01T18:15:27Z</time>
      </trkpt>
      <trkpt lat="15.101963" lon="-92.084165">
        <ele>2201.6360376395414</ele>
        <time>2019-12-01T18:15:32Z</time>
      </trkpt>
      <trkpt lat="15.101920" lon="-92.084155">
        <ele>2201.33470790677</ele>
        <time>2019-12-01T18:15:36Z</time>
      </trkpt>
      <trkpt lat="15.101890" lon="-92.084143">
        <ele>2200.972247005506</ele>
        <time>2019-12-01T18:15:40Z</time>
      </trkpt>
      <trkpt lat="15.101882" lon="-92.084142">
        <ele>2201.109256184038</ele>
        <time>2019-12-01T18:15:45Z</time>
      </trkpt>
      <trkpt lat="15.101874" lon="-92.084140">
        <ele>2199.9628044176425</ele>
        <time>2019-12-01T18:15:49Z</time>
      </trkpt>
      <trkpt lat="15.101856" lon="-92.084117">
        <ele>2198.79619368107</ele>
        <time>2019-12-01T18:15:54Z</time>
      </trkpt>
      <trkpt lat="15.101815" lon="-92.084072">
        <ele>2198.5692308904204</ele>
        <time>2019-12-01T18:15:58Z</time>
      </trkpt>
      <trkpt lat="15.101784" lon="-92.084054">
        <ele>2197.427175313559</ele>
        <time>2019-12-01T18:16:02Z</time>
      </trkpt>
      <trkpt lat="15.101760" lon="-92.084034">
        <ele>2195.209125441913</ele>
        <time>2019-12-01T18:16:07Z</time>
      </trkpt>
      <trkpt lat="15.101755" lon="-92.084027">
        <ele>2194.1114322575395</ele>
        <time>2019-12-01T18:16:12Z</time>
      </trkpt>
      <trkpt lat="15.101744" lon="-92.084017">
        <ele>2192.6697634498487</ele>
        <time>2019-12-01T18:16:16Z</time>
      </trkpt>
      <trkpt lat="15.101708" lon="-92.083996">
        <ele>2190.257691569005</ele>
        <time>2019-12-01T18:16:21Z</time>
      </trkpt>
      <trkpt lat="15.101685" lon="-92.083975">
        <ele>2189.8633477260873</ele>
        <time>2019-12-01T18:16:25Z</time>
      </trkpt>
      <trkpt lat="15.101677" lon="-92.083945">
        <ele>2188.600658918277</ele>
        <time>2019-12-01T18:16:29Z</time>
      </trkpt>
      <trkpt lat="15.101663" lon="-92.083883">
        <ele>2186.1755992828867</ele>
        <time>2019-12-01T18:16:33Z</time>
      </trkpt>
      <trkpt lat="15.101662" lon="-92.083837">
        <ele>2184.6815139526093</ele>
        <time>2019-12-01T18:16:37Z</time>
      </trkpt>
      <trkpt lat="15.101653" lon="-92.083804">
        <ele>2183.8758420818467</ele>
        <time>2019-12-01T18:16:42Z</time>
      </trkpt>
      <trkpt lat="15.101638" lon="-92.083778">
        <ele>2182.3603095980156</ele>
        <time>2019-12-01T18:16:46Z</time>
      </trkpt>
      <trkpt lat="15.101644" lon="-92.083757">
        <ele>2181.6083539906667</ele>
        <time>2019-12-01T18:16:50Z</time>
      </trkpt>
      <trkpt lat="15.101645" lon="-92.083731">
        <ele>2180.962344380426</ele>
        <time>2019-12-01T18:16:54Z</time>
      </trkpt>
      <trkpt lat="15.101646" lon="-92.083707">
        <ele>2180.962107155475</ele>
        <time>2019-12-01T18:16:58Z</time>
      </trkpt>
      <trkpt lat="15.101658" lon="-92.083700">
        <ele>2180.9619639719904</ele>
        <time>2019-12-01T18:17:02Z</time>
      </trkpt>
      <trkpt lat="15.101665" lon="-92.083710">
        <ele>2180.962009303117</ele>
        <time>2019-12-01T18:17:07Z</time>
      </trkpt>
      <trkpt lat="15.101663" lon="-92.083729">
        <ele>2180.962200839648</ele>
        <time>2019-12-01T18:17:11Z</time>
      </trkpt>
      <trkpt lat="15.101662" lon="-92.083736">
        <ele>2180.9622815205366</ele>
        <time>2019-12-01T18:17:16Z</time>
      </trkpt>
      <trkpt lat="15.101662" lon="-92.083736">
        <ele>2180.9622815205366</ele>
        <time>2019-12-01T18:17:16Z</time>
      </trkpt>
    </trkseg>
  </trk>
</gpx>
